<?xml version='1.0' encoding='UTF-8'?><gpx version="1.1" creator="JPX - https://github.com/jenetics/jpx" xmlns="http://www.topografix.com/GPX/1/1"><trk><trkseg><trkpt lat="42.326633056196584" lon="13.435798946768658"><ele>589.0</ele><time>2026-05-03T06:33:47.999Z</time></trkpt><trkpt lat="42.32667686110998" lon="13.435733695498476"><ele>589.0</ele><time>2026-05-03T06:33:49.999Z</time></trkpt><trkpt lat="42.326767726527954" lon="13.43555338110692"><ele>589.0</ele><time>2026-05-03T06:35:11.997Z</time></trkpt><trkpt lat="42.32682605842092" lon="13.435417669027515"><ele>589.0</ele><time>2026-05-03T06:35:13.997Z</time></trkpt><trkpt lat="42.32689422361612" lon="13.435316501870911"><ele>589.0</ele><time>2026-05-03T06:35:15.997Z</time></trkpt><trkpt lat="42.32693548140639" lon="13.435230951615376"><ele>589.0</ele><time>2026-05-03T06:35:17.997Z</time></trkpt><trkpt lat="42.326986633015736" lon="13.43512488599273"><ele>589.0</ele><time>2026-05-03T06:35:39.998Z</time></trkpt><trkpt lat="42.326928048181536" lon="13.43499599226805"><ele>589.0</ele><time>2026-05-03T06:35:41.998Z</time></trkpt><trkpt lat="42.326847573555476" lon="13.434904559800367"><ele>589.0</ele><time>2026-05-03T06:35:43.998Z</time></trkpt><trkpt lat="42.32673468545827" lon="13.43477658960628"><ele>589.0</ele><time>2026-05-03T06:35:45.998Z</time></trkpt><trkpt lat="42.326646327278" lon="13.434691665446254"><ele>589.0</ele><time>2026-05-03T06:35:46.998Z</time></trkpt><trkpt lat="42.32655629829664" lon="13.434571979729718"><ele>589.0</ele><time>2026-05-03T06:35:47.998Z</time></trkpt><trkpt lat="42.32647232657689" lon="13.43447231533708"><ele>589.0</ele><time>2026-05-03T06:35:48.998Z</time></trkpt><trkpt lat="42.326388621930136" lon="13.43437114240991"><ele>589.0</ele><time>2026-05-03T06:35:49.998Z</time></trkpt><trkpt lat="42.32630048753614" lon="13.434268109032645"><ele>589.0</ele><time>2026-05-03T06:35:50.998Z</time></trkpt><trkpt lat="42.32622186319887" lon="13.43415874204778"><ele>589.0</ele><time>2026-05-03T06:35:51.998Z</time></trkpt><trkpt lat="42.32616554751521" lon="13.43407014145856"><ele>589.0</ele><time>2026-05-03T06:35:52.998Z</time></trkpt><trkpt lat="42.32611251730082" lon="13.434003382180423"><ele>589.0</ele><time>2026-05-03T06:35:53.998Z</time></trkpt><trkpt lat="42.3260519801279" lon="13.433953806664512"><ele>589.0</ele><time>2026-05-03T06:35:54.998Z</time></trkpt><trkpt lat="42.32597416591614" lon="13.433864749600398"><ele>589.0</ele><time>2026-05-03T06:35:56.998Z</time></trkpt><trkpt lat="42.32591932694044" lon="13.433798571292346"><ele>589.0</ele><time>2026-05-03T06:35:58.998Z</time></trkpt><trkpt lat="42.32597091240638" lon="13.43358897054041"><ele>589.0</ele><time>2026-05-03T06:36:11.998Z</time></trkpt><trkpt lat="42.3260176023751" lon="13.433489484876796"><ele>589.0</ele><time>2026-05-03T06:36:12.998Z</time></trkpt><trkpt lat="42.3260580288362" lon="13.433374612841005"><ele>589.25</ele><time>2026-05-03T06:36:13.998Z</time></trkpt><trkpt lat="42.32610450581503" lon="13.433243040866381"><ele>589.5</ele><time>2026-05-03T06:36:14.998Z</time></trkpt><trkpt lat="42.32615651802005" lon="13.433107917602607"><ele>589.75</ele><time>2026-05-03T06:36:15.998Z</time></trkpt><trkpt lat="42.32620830816508" lon="13.432965567394938"><ele>590.0</ele><time>2026-05-03T06:36:16.998Z</time></trkpt><trkpt lat="42.3262565974644" lon="13.432815937560747"><ele>590.0</ele><time>2026-05-03T06:36:17.998Z</time></trkpt><trkpt lat="42.32630653238027" lon="13.43266178971582"><ele>590.0</ele><time>2026-05-03T06:36:18.998Z</time></trkpt><trkpt lat="42.32636137223318" lon="13.43250635268023"><ele>590.0</ele><time>2026-05-03T06:36:19.998Z</time></trkpt><trkpt lat="42.326424880247345" lon="13.432345509064374"><ele>590.0</ele><time>2026-05-03T06:36:20.998Z</time></trkpt><trkpt lat="42.32648814729871" lon="13.432179857770075"><ele>590.0</ele><time>2026-05-03T06:36:21.998Z</time></trkpt><trkpt lat="42.326548900833174" lon="13.432008199348578"><ele>590.0</ele><time>2026-05-03T06:36:22.998Z</time></trkpt><trkpt lat="42.326609617949096" lon="13.431831467411472"><ele>590.0</ele><time>2026-05-03T06:36:23.998Z</time></trkpt><trkpt lat="42.32667309859402" lon="13.431653630082565"><ele>590.0</ele><time>2026-05-03T06:36:24.998Z</time></trkpt><trkpt lat="42.32674054782683" lon="13.43147310061361"><ele>590.0</ele><time>2026-05-03T06:36:25.998Z</time></trkpt><trkpt lat="42.326803850452954" lon="13.431292394781646"><ele>590.0</ele><time>2026-05-03T06:36:26.998Z</time></trkpt><trkpt lat="42.32686407787588" lon="13.431102513053846"><ele>590.0</ele><time>2026-05-03T06:36:27.998Z</time></trkpt><trkpt lat="42.3269265383683" lon="13.430914143025204"><ele>590.0</ele><time>2026-05-03T06:36:28.998Z</time></trkpt><trkpt lat="42.32699332530794" lon="13.430725444761974"><ele>590.0</ele><time>2026-05-03T06:36:29.998Z</time></trkpt><trkpt lat="42.32705973007115" lon="13.43054547674011"><ele>590.0</ele><time>2026-05-03T06:36:30.998Z</time></trkpt><trkpt lat="42.32712993694849" lon="13.430351913247394"><ele>590.0</ele><time>2026-05-03T06:36:31.998Z</time></trkpt><trkpt lat="42.32719190268596" lon="13.430163475406289"><ele>590.0</ele><time>2026-05-03T06:36:32.998Z</time></trkpt><trkpt lat="42.327257823521585" lon="13.429966397380063"><ele>590.0</ele><time>2026-05-03T06:36:33.998Z</time></trkpt><trkpt lat="42.32732255562956" lon="13.429776614664997"><ele>590.3333333333333</ele><time>2026-05-03T06:36:34.998Z</time></trkpt><trkpt lat="42.32739441322412" lon="13.429577348574623"><ele>590.6666666666666</ele><time>2026-05-03T06:36:35.998Z</time></trkpt><trkpt lat="42.32747673597253" lon="13.42938569613939"><ele>591.0</ele><time>2026-05-03T06:36:36.998Z</time></trkpt><trkpt lat="42.327573277894984" lon="13.429201458667702"><ele>591.0</ele><time>2026-05-03T06:36:37.998Z</time></trkpt><trkpt lat="42.327680513782454" lon="13.429025134432727"><ele>591.0</ele><time>2026-05-03T06:36:38.998Z</time></trkpt><trkpt lat="42.327790749677405" lon="13.42885288386763"><ele>591.0</ele><time>2026-05-03T06:36:39.998Z</time></trkpt><trkpt lat="42.32790392329759" lon="13.428688937010962"><ele>591.3333333333334</ele><time>2026-05-03T06:36:40.998Z</time></trkpt><trkpt lat="42.328020935200115" lon="13.428522606062135"><ele>591.6666666666667</ele><time>2026-05-03T06:36:41.998Z</time></trkpt><trkpt lat="42.32814068366593" lon="13.428351091053138"><ele>592.0</ele><time>2026-05-03T06:36:42.998Z</time></trkpt><trkpt lat="42.32825492663591" lon="13.428183496200257"><ele>592.0</ele><time>2026-05-03T06:36:43.998Z</time></trkpt><trkpt lat="42.32836577135253" lon="13.42801590659687"><ele>592.0</ele><time>2026-05-03T06:36:44.998Z</time></trkpt><trkpt lat="42.32848056566631" lon="13.42783920591808"><ele>592.0</ele><time>2026-05-03T06:36:45.998Z</time></trkpt><trkpt lat="42.32859262722224" lon="13.427668832912342"><ele>591.6666666666667</ele><time>2026-05-03T06:36:46.998Z</time></trkpt><trkpt lat="42.32870003876884" lon="13.427495390402893"><ele>591.3333333333334</ele><time>2026-05-03T06:36:47.998Z</time></trkpt><trkpt lat="42.32880487164732" lon="13.427311298273265"><ele>591.0</ele><time>2026-05-03T06:36:48.998Z</time></trkpt><trkpt lat="42.32890562514041" lon="13.427129089114146"><ele>591.0</ele><time>2026-05-03T06:36:49.998Z</time></trkpt><trkpt lat="42.32900641010943" lon="13.4269532526457"><ele>591.0</ele><time>2026-05-03T06:36:50.998Z</time></trkpt><trkpt lat="42.3291084271944" lon="13.426770324078573"><ele>591.0</ele><time>2026-05-03T06:36:51.998Z</time></trkpt><trkpt lat="42.32921180586383" lon="13.426582565630042"><ele>591.0</ele><time>2026-05-03T06:36:52.998Z</time></trkpt><trkpt lat="42.32931320881004" lon="13.426402256233073"><ele>591.0</ele><time>2026-05-03T06:36:53.998Z</time></trkpt><trkpt lat="42.329413919350024" lon="13.426225182501389"><ele>591.0</ele><time>2026-05-03T06:36:54.998Z</time></trkpt><trkpt lat="42.32951422428815" lon="13.426041804200521"><ele>591.0</ele><time>2026-05-03T06:36:55.998Z</time></trkpt><trkpt lat="42.3296079698035" lon="13.425845200572294"><ele>591.0</ele><time>2026-05-03T06:36:56.998Z</time></trkpt><trkpt lat="42.329699309782896" lon="13.425653744565563"><ele>591.0</ele><time>2026-05-03T06:36:57.998Z</time></trkpt><trkpt lat="42.32978554571115" lon="13.425463390234297"><ele>591.0</ele><time>2026-05-03T06:36:58.998Z</time></trkpt><trkpt lat="42.329870068723096" lon="13.42526630250778"><ele>591.0</ele><time>2026-05-03T06:36:59.998Z</time></trkpt><trkpt lat="42.329954522225485" lon="13.425064641190868"><ele>591.0</ele><time>2026-05-03T06:37:00.998Z</time></trkpt><trkpt lat="42.330040208763705" lon="13.424866331672673"><ele>591.0</ele><time>2026-05-03T06:37:01.998Z</time></trkpt><trkpt lat="42.33012802566563" lon="13.42467493289296"><ele>591.0</ele><time>2026-05-03T06:37:02.998Z</time></trkpt><trkpt lat="42.33022027652865" lon="13.4244863281683"><ele>591.0</ele><time>2026-05-03T06:37:03.998Z</time></trkpt><trkpt lat="42.33032211601164" lon="13.424299186485507"><ele>591.0</ele><time>2026-05-03T06:37:04.998Z</time></trkpt><trkpt lat="42.33042502723101" lon="13.424114724860289"><ele>591.0</ele><time>2026-05-03T06:37:05.998Z</time></trkpt><trkpt lat="42.330530132587675" lon="13.423938875914551"><ele>591.0</ele><time>2026-05-03T06:37:06.998Z</time></trkpt><trkpt lat="42.33063457877774" lon="13.423752268981229"><ele>591.0</ele><time>2026-05-03T06:37:07.998Z</time></trkpt><trkpt lat="42.33073766143409" lon="13.423563194397953"><ele>591.0</ele><time>2026-05-03T06:37:08.997Z</time></trkpt><trkpt lat="42.330836466143424" lon="13.423383045941101"><ele>591.0</ele><time>2026-05-03T06:37:09.997Z</time></trkpt><trkpt lat="42.33093802404108" lon="13.423190536836346"><ele>591.0</ele><time>2026-05-03T06:37:10.997Z</time></trkpt><trkpt lat="42.331036732950274" lon="13.42300505848615"><ele>591.0</ele><time>2026-05-03T06:37:11.997Z</time></trkpt><trkpt lat="42.331135928098725" lon="13.422824010934644"><ele>591.0</ele><time>2026-05-03T06:37:12.997Z</time></trkpt><trkpt lat="42.33123634104712" lon="13.422627936960312"><ele>592.0</ele><time>2026-05-03T06:37:13.997Z</time></trkpt><trkpt lat="42.33132986243771" lon="13.422442052066028"><ele>593.0</ele><time>2026-05-03T06:37:14.997Z</time></trkpt><trkpt lat="42.331426367137894" lon="13.422253790867895"><ele>594.0</ele><time>2026-05-03T06:37:15.997Z</time></trkpt><trkpt lat="42.33151495694767" lon="13.42204714798887"><ele>594.0</ele><time>2026-05-03T06:37:16.997Z</time></trkpt><trkpt lat="42.33157935018151" lon="13.42184240700846"><ele>594.0</ele><time>2026-05-03T06:37:17.997Z</time></trkpt><trkpt lat="42.33162364089313" lon="13.42161211474291"><ele>594.0</ele><time>2026-05-03T06:37:18.997Z</time></trkpt><trkpt lat="42.331657752536785" lon="13.421385014533259"><ele>593.6666666666666</ele><time>2026-05-03T06:37:19.997Z</time></trkpt><trkpt lat="42.33169092909662" lon="13.421163197605573"><ele>593.3333333333333</ele><time>2026-05-03T06:37:20.997Z</time></trkpt><trkpt lat="42.33172418459352" lon="13.420926431098051"><ele>593.0</ele><time>2026-05-03T06:37:21.997Z</time></trkpt><trkpt lat="42.331759950488184" lon="13.420697166143754"><ele>593.6666666666666</ele><time>2026-05-03T06:37:22.997Z</time></trkpt><trkpt lat="42.3317956875443" lon="13.420456416860507"><ele>594.3333333333334</ele><time>2026-05-03T06:37:23.997Z</time></trkpt><trkpt lat="42.33183186516273" lon="13.420210984004026"><ele>595.0</ele><time>2026-05-03T06:37:24.998Z</time></trkpt><trkpt lat="42.33186926627873" lon="13.41997145014787"><ele>595.0</ele><time>2026-05-03T06:37:25.998Z</time></trkpt><trkpt lat="42.331914580427664" lon="13.419731133810538"><ele>595.0</ele><time>2026-05-03T06:37:26.998Z</time></trkpt><trkpt lat="42.331971106084836" lon="13.419496300134417"><ele>595.0</ele><time>2026-05-03T06:37:27.998Z</time></trkpt><trkpt lat="42.33203324732723" lon="13.419264419795978"><ele>595.0</ele><time>2026-05-03T06:37:28.998Z</time></trkpt><trkpt lat="42.332094849945925" lon="13.419035338584408"><ele>595.0</ele><time>2026-05-03T06:37:29.998Z</time></trkpt><trkpt lat="42.33215529461978" lon="13.41880059711094"><ele>595.0</ele><time>2026-05-03T06:37:30.998Z</time></trkpt><trkpt lat="42.33221211372335" lon="13.418576468285979"><ele>595.3333333333334</ele><time>2026-05-03T06:37:31.998Z</time></trkpt><trkpt lat="42.332273184430726" lon="13.418337346878232"><ele>595.6666666666666</ele><time>2026-05-03T06:37:32.998Z</time></trkpt><trkpt lat="42.3323315213899" lon="13.418115916077394"><ele>596.0</ele><time>2026-05-03T06:37:33.998Z</time></trkpt><trkpt lat="42.33239094897493" lon="13.417899292649736"><ele>596.25</ele><time>2026-05-03T06:37:34.998Z</time></trkpt><trkpt lat="42.332440830201485" lon="13.417693283810342"><ele>596.5</ele><time>2026-05-03T06:37:35.998Z</time></trkpt><trkpt lat="42.33248697341543" lon="13.417507486316246"><ele>596.75</ele><time>2026-05-03T06:37:36.998Z</time></trkpt><trkpt lat="42.33252920170234" lon="13.41732327265108"><ele>597.0</ele><time>2026-05-03T06:37:37.998Z</time></trkpt><trkpt lat="42.332544065959816" lon="13.417159204369188"><ele>597.0</ele><time>2026-05-03T06:37:38.998Z</time></trkpt><trkpt lat="42.33254013433915" lon="13.417005401110275"><ele>597.0</ele><time>2026-05-03T06:37:39.998Z</time></trkpt><trkpt lat="42.33252244493286" lon="13.416888488302819"><ele>597.0</ele><time>2026-05-03T06:37:40.998Z</time></trkpt><trkpt lat="42.332489550803274" lon="13.416811826346121"><ele>597.0</ele><time>2026-05-03T06:37:41.998Z</time></trkpt><trkpt lat="42.33245865896482" lon="13.416728625472073"><ele>597.0</ele><time>2026-05-03T06:37:44.999Z</time></trkpt><trkpt lat="42.332584761805485" lon="13.41656406487381"><ele>597.0</ele><time>2026-05-03T06:37:47.999Z</time></trkpt><trkpt lat="42.33265907171183" lon="13.416504315035636"><ele>597.0</ele><time>2026-05-03T06:37:48.999Z</time></trkpt><trkpt lat="42.332738084759974" lon="13.416433932521409"><ele>597.0</ele><time>2026-05-03T06:37:49.999Z</time></trkpt><trkpt lat="42.332827357003474" lon="13.416368421693317"><ele>597.0</ele><time>2026-05-03T06:37:50.999Z</time></trkpt><trkpt lat="42.33292627138805" lon="13.416276686243824"><ele>597.0</ele><time>2026-05-03T06:37:51.999Z</time></trkpt><trkpt lat="42.333057487262764" lon="13.416177983963612"><ele>597.0</ele><time>2026-05-03T06:37:52.999Z</time></trkpt><trkpt lat="42.33319584136883" lon="13.416058966819808"><ele>597.0</ele><time>2026-05-03T06:37:53.999Z</time></trkpt><trkpt lat="42.333354939778275" lon="13.415916943302511"><ele>597.0</ele><time>2026-05-03T06:37:54.999Z</time></trkpt><trkpt lat="42.333507542477484" lon="13.415763445780124"><ele>597.0</ele><time>2026-05-03T06:37:55.999Z</time></trkpt><trkpt lat="42.33367743194651" lon="13.415641458168256"><ele>597.0</ele><time>2026-05-03T06:37:56.999Z</time></trkpt><trkpt lat="42.33384359626859" lon="13.415521950810652"><ele>597.0</ele><time>2026-05-03T06:37:57.999Z</time></trkpt><trkpt lat="42.33400782479207" lon="13.415407366735764"><ele>598.0</ele><time>2026-05-03T06:37:58.999Z</time></trkpt><trkpt lat="42.334177873529114" lon="13.415293038068606"><ele>599.0</ele><time>2026-05-03T06:37:59.999Z</time></trkpt><trkpt lat="42.334344255130446" lon="13.415186973065948"><ele>600.0</ele><time>2026-05-03T06:38:00.999Z</time></trkpt><trkpt lat="42.33451257374205" lon="13.415075553386464"><ele>600.0</ele><time>2026-05-03T06:38:01.999Z</time></trkpt><trkpt lat="42.334676501127255" lon="13.414975237292756"><ele>600.0</ele><time>2026-05-03T06:38:02.999Z</time></trkpt><trkpt lat="42.334842137067525" lon="13.414860390048371"><ele>600.0</ele><time>2026-05-03T06:38:03.999Z</time></trkpt><trkpt lat="42.33500684571155" lon="13.414754737264257"><ele>602.3333333333334</ele><time>2026-05-03T06:38:04.999Z</time></trkpt><trkpt lat="42.33516970856009" lon="13.4146525627318"><ele>604.6666666666667</ele><time>2026-05-03T06:38:05.999Z</time></trkpt><trkpt lat="42.33533305013726" lon="13.41454086140445"><ele>607.0</ele><time>2026-05-03T06:38:06.999Z</time></trkpt><trkpt lat="42.335489123242326" lon="13.414427743771071"><ele>604.6666666666667</ele><time>2026-05-03T06:38:07.999Z</time></trkpt><trkpt lat="42.33563642197784" lon="13.414316801735511"><ele>602.3333333333334</ele><time>2026-05-03T06:38:08.999Z</time></trkpt><trkpt lat="42.33576301425906" lon="13.41419683158159"><ele>600.0</ele><time>2026-05-03T06:38:09.999Z</time></trkpt><trkpt lat="42.33586997862001" lon="13.41404137082931"><ele>600.0</ele><time>2026-05-03T06:38:10.999Z</time></trkpt><trkpt lat="42.335959802038616" lon="13.413864862063251"><ele>600.0</ele><time>2026-05-03T06:38:11.999Z</time></trkpt><trkpt lat="42.33604441223198" lon="13.413669688413096"><ele>600.0</ele><time>2026-05-03T06:38:12.999Z</time></trkpt><trkpt lat="42.33612684635707" lon="13.413462617537718"><ele>601.6666666666666</ele><time>2026-05-03T06:38:13.999Z</time></trkpt><trkpt lat="42.33620892025317" lon="13.413252661788324"><ele>603.3333333333333</ele><time>2026-05-03T06:38:14.999Z</time></trkpt><trkpt lat="42.33629371798301" lon="13.413053622480367"><ele>605.0</ele><time>2026-05-03T06:38:15.999Z</time></trkpt><trkpt lat="42.336376161438444" lon="13.412845008348093"><ele>604.0</ele><time>2026-05-03T06:38:16.999Z</time></trkpt><trkpt lat="42.33645837335432" lon="13.412634418166851"><ele>603.0</ele><time>2026-05-03T06:38:17.999Z</time></trkpt><trkpt lat="42.3365420342301" lon="13.412418160098406"><ele>602.0</ele><time>2026-05-03T06:38:18.999Z</time></trkpt><trkpt lat="42.33662941823853" lon="13.412212685723173"><ele>603.0</ele><time>2026-05-03T06:38:19.999Z</time></trkpt><trkpt lat="42.336718249642985" lon="13.412001470339511"><ele>604.0</ele><time>2026-05-03T06:38:20.999Z</time></trkpt><trkpt lat="42.3368073565492" lon="13.411785552498179"><ele>605.0</ele><time>2026-05-03T06:38:21.999Z</time></trkpt><trkpt lat="42.33689422826829" lon="13.411564126513234"><ele>605.0</ele><time>2026-05-03T06:38:22.999Z</time></trkpt><trkpt lat="42.336981412978616" lon="13.41134675910333"><ele>605.0</ele><time>2026-05-03T06:38:23.999Z</time></trkpt><trkpt lat="42.33706936588576" lon="13.411131670661042"><ele>605.0</ele><time>2026-05-03T06:38:24.999Z</time></trkpt><trkpt lat="42.33715768088526" lon="13.410919742788348"><ele>604.0</ele><time>2026-05-03T06:38:25.999Z</time></trkpt><trkpt lat="42.337245656990724" lon="13.410705136332076"><ele>603.0</ele><time>2026-05-03T06:38:26.999Z</time></trkpt><trkpt lat="42.337324280794235" lon="13.41051233469418"><ele>602.0</ele><time>2026-05-03T06:38:27.999Z</time></trkpt><trkpt lat="42.33740035155162" lon="13.410328140640525"><ele>602.0</ele><time>2026-05-03T06:38:28.999Z</time></trkpt><trkpt lat="42.337485712927055" lon="13.410167111393248"><ele>602.0</ele><time>2026-05-03T06:38:29.999Z</time></trkpt><trkpt lat="42.33758164892214" lon="13.410048959854961"><ele>602.0</ele><time>2026-05-03T06:38:30.999Z</time></trkpt><trkpt lat="42.33768837344072" lon="13.409969626233178"><ele>602.0</ele><time>2026-05-03T06:38:31.999Z</time></trkpt><trkpt lat="42.33780537366256" lon="13.409937143587527"><ele>602.0</ele><time>2026-05-03T06:38:32.999Z</time></trkpt><trkpt lat="42.33793449276946" lon="13.40994981064141"><ele>602.0</ele><time>2026-05-03T06:38:33.999Z</time></trkpt><trkpt lat="42.338056726814884" lon="13.410023925075263"><ele>602.0</ele><time>2026-05-03T06:38:34.998Z</time></trkpt><trkpt lat="42.33817215821138" lon="13.41011245989649"><ele>602.0</ele><time>2026-05-03T06:38:35.998Z</time></trkpt><trkpt lat="42.33829843575838" lon="13.410194462056154"><ele>601.75</ele><time>2026-05-03T06:38:36.998Z</time></trkpt><trkpt lat="42.33842436155594" lon="13.410288430186133"><ele>601.5</ele><time>2026-05-03T06:38:37.998Z</time></trkpt><trkpt lat="42.338533648130976" lon="13.410363923482134"><ele>601.25</ele><time>2026-05-03T06:38:38.998Z</time></trkpt><trkpt lat="42.33864521592372" lon="13.410435374364312"><ele>601.0</ele><time>2026-05-03T06:38:39.998Z</time></trkpt><trkpt lat="42.33875004177715" lon="13.410495114770853"><ele>601.0</ele><time>2026-05-03T06:38:40.998Z</time></trkpt><trkpt lat="42.338848559971" lon="13.410551598779284"><ele>601.0</ele><time>2026-05-03T06:38:41.998Z</time></trkpt><trkpt lat="42.33892442918139" lon="13.410601683110217"><ele>601.0</ele><time>2026-05-03T06:38:42.998Z</time></trkpt><trkpt lat="42.33901217855952" lon="13.410616454153919"><ele>601.0</ele><time>2026-05-03T06:38:44.998Z</time></trkpt><trkpt lat="42.33910309089701" lon="13.410500857508547"><ele>601.0</ele><time>2026-05-03T06:38:47.998Z</time></trkpt><trkpt lat="42.33914135181943" lon="13.410390914441084"><ele>602.5</ele><time>2026-05-03T06:38:48.998Z</time></trkpt><trkpt lat="42.33915990269182" lon="13.410253969303518"><ele>604.0</ele><time>2026-05-03T06:38:49.998Z</time></trkpt><trkpt lat="42.339166644141926" lon="13.410111417456422"><ele>605.5</ele><time>2026-05-03T06:38:50.998Z</time></trkpt><trkpt lat="42.339178426917954" lon="13.409985292164656"><ele>607.0</ele><time>2026-05-03T06:38:51.998Z</time></trkpt><trkpt lat="42.3392087086618" lon="13.409786887194576"><ele>607.0</ele><time>2026-05-03T06:38:53.998Z</time></trkpt><trkpt lat="42.33923644563959" lon="13.40968250448606"><ele>607.0</ele><time>2026-05-03T06:38:55.998Z</time></trkpt><trkpt lat="42.339227927500474" lon="13.409556587012755"><ele>607.0</ele><time>2026-05-03T06:39:14.998Z</time></trkpt><trkpt lat="42.339240695884165" lon="13.40947072652131"><ele>607.0</ele><time>2026-05-03T06:39:15.998Z</time></trkpt><trkpt lat="42.33925683489888" lon="13.409374539608327"><ele>607.0</ele><time>2026-05-03T06:39:16.998Z</time></trkpt><trkpt lat="42.33927032083977" lon="13.409268773286193"><ele>607.0</ele><time>2026-05-03T06:39:17.998Z</time></trkpt><trkpt lat="42.33928361932739" lon="13.409149501668928"><ele>606.4</ele><time>2026-05-03T06:39:18.998Z</time></trkpt><trkpt lat="42.33930024531228" lon="13.409027686467052"><ele>605.8000000000001</ele><time>2026-05-03T06:39:19.998Z</time></trkpt><trkpt lat="42.339317452959264" lon="13.408895984445657"><ele>605.2</ele><time>2026-05-03T06:39:20.998Z</time></trkpt><trkpt lat="42.33933787586596" lon="13.408757637175068"><ele>604.6</ele><time>2026-05-03T06:39:21.998Z</time></trkpt><trkpt lat="42.33936229939716" lon="13.40861162084011"><ele>604.0</ele><time>2026-05-03T06:39:22.998Z</time></trkpt><trkpt lat="42.339388240021336" lon="13.408461725836807"><ele>604.0</ele><time>2026-05-03T06:39:23.998Z</time></trkpt><trkpt lat="42.3394210026031" lon="13.408310135845674"><ele>604.0</ele><time>2026-05-03T06:39:24.998Z</time></trkpt><trkpt lat="42.339467670156246" lon="13.408160353208258"><ele>604.0</ele><time>2026-05-03T06:39:25.998Z</time></trkpt><trkpt lat="42.339515138246384" lon="13.408009010046051"><ele>604.0</ele><time>2026-05-03T06:39:26.998Z</time></trkpt><trkpt lat="42.339573256595436" lon="13.407857661985126"><ele>604.0</ele><time>2026-05-03T06:39:27.998Z</time></trkpt><trkpt lat="42.33961475536572" lon="13.407695673374205"><ele>604.0</ele><time>2026-05-03T06:39:28.998Z</time></trkpt><trkpt lat="42.33965079024818" lon="13.407531728127871"><ele>604.0</ele><time>2026-05-03T06:39:29.998Z</time></trkpt><trkpt lat="42.33969000519217" lon="13.407367369696084"><ele>604.0</ele><time>2026-05-03T06:39:30.998Z</time></trkpt><trkpt lat="42.339728274728785" lon="13.407204203234242"><ele>607.5</ele><time>2026-05-03T06:39:31.998Z</time></trkpt><trkpt lat="42.339773578337315" lon="13.407045531862511"><ele>611.0</ele><time>2026-05-03T06:39:32.998Z</time></trkpt><trkpt lat="42.339828722765624" lon="13.40688864110943"><ele>614.5</ele><time>2026-05-03T06:39:33.998Z</time></trkpt><trkpt lat="42.33989528610085" lon="13.406739057279694"><ele>618.0</ele><time>2026-05-03T06:39:34.999Z</time></trkpt><trkpt lat="42.33997683711292" lon="13.406593973236475"><ele>618.0</ele><time>2026-05-03T06:39:35.999Z</time></trkpt><trkpt lat="42.340081087211374" lon="13.406486122044935"><ele>618.0</ele><time>2026-05-03T06:39:36.999Z</time></trkpt><trkpt lat="42.34018613460653" lon="13.406378715400383"><ele>618.0</ele><time>2026-05-03T06:39:37.999Z</time></trkpt><trkpt lat="42.340311981170544" lon="13.406311015247825"><ele>618.0</ele><time>2026-05-03T06:39:38.999Z</time></trkpt><trkpt lat="42.34044406320803" lon="13.406275577807225"><ele>619.25</ele><time>2026-05-03T06:39:39.999Z</time></trkpt><trkpt lat="42.340578534997995" lon="13.406260519181396"><ele>620.5</ele><time>2026-05-03T06:39:40.999Z</time></trkpt><trkpt lat="42.34071735623065" lon="13.406272850425298"><ele>621.75</ele><time>2026-05-03T06:39:41.999Z</time></trkpt><trkpt lat="42.34085248451654" lon="13.406305817178794"><ele>623.0</ele><time>2026-05-03T06:39:42.999Z</time></trkpt><trkpt lat="42.34098386680724" lon="13.40636875632777"><ele>626.6666666666666</ele><time>2026-05-03T06:39:43.999Z</time></trkpt><trkpt lat="42.34111281608108" lon="13.406456404127342"><ele>630.3333333333334</ele><time>2026-05-03T06:39:44.999Z</time></trkpt><trkpt lat="42.34125075494325" lon="13.406539855026312"><ele>634.0</ele><time>2026-05-03T06:39:45.999Z</time></trkpt><trkpt lat="42.34139283243171" lon="13.406620808475626"><ele>636.3333333333334</ele><time>2026-05-03T06:39:46.999Z</time></trkpt><trkpt lat="42.341542721316216" lon="13.40670375104624"><ele>638.6666666666666</ele><time>2026-05-03T06:39:47.999Z</time></trkpt><trkpt lat="42.34168252045428" lon="13.40678474768538"><ele>641.0</ele><time>2026-05-03T06:39:48.999Z</time></trkpt><trkpt lat="42.341821838139836" lon="13.406860446778149"><ele>641.0</ele><time>2026-05-03T06:39:49.999Z</time></trkpt><trkpt lat="42.34195802456436" lon="13.40693338922224"><ele>641.0</ele><time>2026-05-03T06:39:50.999Z</time></trkpt><trkpt lat="42.34209717864117" lon="13.407005979731373"><ele>641.0</ele><time>2026-05-03T06:39:51.999Z</time></trkpt><trkpt lat="42.34223536990335" lon="13.407081255154885"><ele>641.0</ele><time>2026-05-03T06:39:52.999Z</time></trkpt><trkpt lat="42.34237178728116" lon="13.40715295761253"><ele>644.5</ele><time>2026-05-03T06:39:53.999Z</time></trkpt><trkpt lat="42.34250644562263" lon="13.407225754086992"><ele>648.0</ele><time>2026-05-03T06:39:54.999Z</time></trkpt><trkpt lat="42.342644702438314" lon="13.407295853819432"><ele>651.5</ele><time>2026-05-03T06:39:55.999Z</time></trkpt><trkpt lat="42.34277643750206" lon="13.407371367923483"><ele>655.0</ele><time>2026-05-03T06:39:56.999Z</time></trkpt><trkpt lat="42.34290218893028" lon="13.407440531910337"><ele>655.0</ele><time>2026-05-03T06:39:57.999Z</time></trkpt><trkpt lat="42.343026814276236" lon="13.407511404607899"><ele>655.0</ele><time>2026-05-03T06:39:58.999Z</time></trkpt><trkpt lat="42.34314642554261" lon="13.407580856194318"><ele>655.0</ele><time>2026-05-03T06:39:59.999Z</time></trkpt><trkpt lat="42.343272497046435" lon="13.40765241668447"><ele>655.0</ele><time>2026-05-03T06:40:00.999Z</time></trkpt><trkpt lat="42.34340031233001" lon="13.407738984641641"><ele>656.0</ele><time>2026-05-03T06:40:01.999Z</time></trkpt><trkpt lat="42.343527317898854" lon="13.40785377114614"><ele>657.0</ele><time>2026-05-03T06:40:02.999Z</time></trkpt><trkpt lat="42.343640195166486" lon="13.408000206972238"><ele>658.0</ele><time>2026-05-03T06:40:03.999Z</time></trkpt><trkpt lat="42.34373587168358" lon="13.408162620287467"><ele>659.75</ele><time>2026-05-03T06:40:04.999Z</time></trkpt><trkpt lat="42.343825647094754" lon="13.408332610177485"><ele>661.5</ele><time>2026-05-03T06:40:05.999Z</time></trkpt><trkpt lat="42.34391462733356" lon="13.408496873356912"><ele>663.25</ele><time>2026-05-03T06:40:06.999Z</time></trkpt><trkpt lat="42.34400837168511" lon="13.40863930625897"><ele>665.0</ele><time>2026-05-03T06:40:07.999Z</time></trkpt><trkpt lat="42.34408734545927" lon="13.408748215265433"><ele>665.5</ele><time>2026-05-03T06:40:08.999Z</time></trkpt><trkpt lat="42.34416916524692" lon="13.408796241389055"><ele>666.0</ele><time>2026-05-03T06:40:09.999Z</time></trkpt><trkpt lat="42.34424740053967" lon="13.408780929454032"><ele>666.5</ele><time>2026-05-03T06:40:10.999Z</time></trkpt><trkpt lat="42.34431658000216" lon="13.408721043453733"><ele>667.0</ele><time>2026-05-03T06:40:11.999Z</time></trkpt><trkpt lat="42.34437713567708" lon="13.408631560345974"><ele>667.5</ele><time>2026-05-03T06:40:12.999Z</time></trkpt><trkpt lat="42.34440841199906" lon="13.408496907954646"><ele>668.0</ele><time>2026-05-03T06:40:13.999Z</time></trkpt><trkpt lat="42.34441329474195" lon="13.408355986271575"><ele>668.0</ele><time>2026-05-03T06:40:14.999Z</time></trkpt><trkpt lat="42.34438286962762" lon="13.40821266911944"><ele>668.0</ele><time>2026-05-03T06:40:15.999Z</time></trkpt><trkpt lat="42.34431845780156" lon="13.408089865403058"><ele>668.0</ele><time>2026-05-03T06:40:16.999Z</time></trkpt><trkpt lat="42.34423905577894" lon="13.407975269547645"><ele>668.0</ele><time>2026-05-03T06:40:17.999Z</time></trkpt><trkpt lat="42.34416478265181" lon="13.407852639756518"><ele>670.0</ele><time>2026-05-03T06:40:18.999Z</time></trkpt><trkpt lat="42.344092769835115" lon="13.407722481405193"><ele>672.0</ele><time>2026-05-03T06:40:19.999Z</time></trkpt><trkpt lat="42.34401707583299" lon="13.407575791121634"><ele>674.0</ele><time>2026-05-03T06:40:20.999Z</time></trkpt><trkpt lat="42.34393565274408" lon="13.407420913733707"><ele>676.0</ele><time>2026-05-03T06:40:21.999Z</time></trkpt><trkpt lat="42.34385580396355" lon="13.407262534596294"><ele>673.8</ele><time>2026-05-03T06:40:22.999Z</time></trkpt><trkpt lat="42.343779928480636" lon="13.407130409521793"><ele>671.5999999999999</ele><time>2026-05-03T06:40:23.999Z</time></trkpt><trkpt lat="42.34372191153889" lon="13.407020372550965"><ele>669.4</ele><time>2026-05-03T06:40:24.999Z</time></trkpt><trkpt lat="42.343696063779056" lon="13.406899429775585"><ele>667.2</ele><time>2026-05-03T06:40:25.999Z</time></trkpt><trkpt lat="42.34372680600319" lon="13.406791512929583"><ele>665.0</ele><time>2026-05-03T06:40:26.999Z</time></trkpt><trkpt lat="42.34378902235688" lon="13.40670620266351"><ele>665.0</ele><time>2026-05-03T06:40:27.999Z</time></trkpt><trkpt lat="42.34385789260201" lon="13.406633653793026"><ele>665.0</ele><time>2026-05-03T06:40:28.999Z</time></trkpt><trkpt lat="42.3439309104525" lon="13.40655663082858"><ele>665.0</ele><time>2026-05-03T06:40:29.999Z</time></trkpt><trkpt lat="42.34401216611528" lon="13.406469655812803"><ele>665.0</ele><time>2026-05-03T06:40:30.999Z</time></trkpt><trkpt lat="42.34410394036095" lon="13.406345575701943"><ele>665.0</ele><time>2026-05-03T06:40:31.999Z</time></trkpt><trkpt lat="42.344202960505946" lon="13.406190903244429"><ele>677.5</ele><time>2026-05-03T06:40:32.999Z</time></trkpt><trkpt lat="42.34440797608127" lon="13.405821477688198"><ele>690.0</ele><time>2026-05-03T06:40:34.999Z</time></trkpt><trkpt lat="42.344501043117376" lon="13.405629200059954"><ele>694.3333333333334</ele><time>2026-05-03T06:40:35.999Z</time></trkpt><trkpt lat="42.34457462175465" lon="13.40542083569127"><ele>698.6666666666667</ele><time>2026-05-03T06:40:37.021Z</time></trkpt><trkpt lat="42.34463779504355" lon="13.405222752942136"><ele>703.0</ele><time>2026-05-03T06:40:38.02Z</time></trkpt><trkpt lat="42.34469292618304" lon="13.405022620810529"><ele>703.3333333333334</ele><time>2026-05-03T06:40:39.021Z</time></trkpt><trkpt lat="42.34473783108762" lon="13.40481537572472"><ele>703.6666666666666</ele><time>2026-05-03T06:40:40.019Z</time></trkpt><trkpt lat="42.344787537362635" lon="13.40460043305492"><ele>704.0</ele><time>2026-05-03T06:40:41.015Z</time></trkpt><trkpt lat="42.344927755537654" lon="13.403920014224365"><ele>703.6666666666666</ele><time>2026-05-03T06:40:44.126Z</time></trkpt><trkpt lat="42.344978623777614" lon="13.403701181218878"><ele>703.3333333333334</ele><time>2026-05-03T06:40:45.126Z</time></trkpt><trkpt lat="42.34503045131527" lon="13.40348406585591"><ele>703.0</ele><time>2026-05-03T06:40:46.121Z</time></trkpt><trkpt lat="42.34506823512373" lon="13.403259030066902"><ele>703.0</ele><time>2026-05-03T06:40:47.123Z</time></trkpt><trkpt lat="42.34514128578327" lon="13.403050852969344"><ele>703.0</ele><time>2026-05-03T06:40:48.122Z</time></trkpt><trkpt lat="42.34519997237299" lon="13.402836297390177"><ele>703.0</ele><time>2026-05-03T06:40:49.121Z</time></trkpt><trkpt lat="42.34525923766835" lon="13.402620943586868"><ele>697.0</ele><time>2026-05-03T06:40:50.122Z</time></trkpt><trkpt lat="42.34532637525568" lon="13.402354381990992"><ele>691.0</ele><time>2026-05-03T06:40:51.999Z</time></trkpt><trkpt lat="42.34535165943012" lon="13.402157949598768"><ele>685.0</ele><time>2026-05-03T06:40:52.999Z</time></trkpt><trkpt lat="42.34546917947381" lon="13.402172981975632"><ele>683.8</ele><time>2026-05-03T06:40:54.999Z</time></trkpt><trkpt lat="42.34560453536299" lon="13.402107083948353"><ele>682.6</ele><time>2026-05-03T06:40:56.999Z</time></trkpt><trkpt lat="42.3456780556742" lon="13.402067233135526"><ele>681.4000000000001</ele><time>2026-05-03T06:40:57.999Z</time></trkpt><trkpt lat="42.345754113472786" lon="13.402023055472396"><ele>680.2</ele><time>2026-05-03T06:40:58.999Z</time></trkpt><trkpt lat="42.345850885290105" lon="13.402018412980803"><ele>679.0</ele><time>2026-05-03T06:40:59.999Z</time></trkpt><trkpt lat="42.345928365951785" lon="13.401958271315253"><ele>679.0</ele><time>2026-05-03T06:41:00.999Z</time></trkpt><trkpt lat="42.346009247887416" lon="13.401897707387985"><ele>679.0</ele><time>2026-05-03T06:41:01.999Z</time></trkpt><trkpt lat="42.34609254821834" lon="13.401871327545244"><ele>679.0</ele><time>2026-05-03T06:41:02.999Z</time></trkpt><trkpt lat="42.346164566338125" lon="13.401897582166985"><ele>679.0</ele><time>2026-05-03T06:41:03.999Z</time></trkpt><trkpt lat="42.346230218598876" lon="13.401958321166152"><ele>679.0</ele><time>2026-05-03T06:41:04.999Z</time></trkpt><trkpt lat="42.346284738737786" lon="13.402033658801672"><ele>679.0</ele><time>2026-05-03T06:41:05.999Z</time></trkpt><trkpt lat="42.34632593474697" lon="13.40212111605176"><ele>679.8000000000001</ele><time>2026-05-03T06:41:06.999Z</time></trkpt><trkpt lat="42.34635918096186" lon="13.402226889276601"><ele>680.6</ele><time>2026-05-03T06:41:07.999Z</time></trkpt><trkpt lat="42.346398338971426" lon="13.402354674682247"><ele>681.4</ele><time>2026-05-03T06:41:08.999Z</time></trkpt><trkpt lat="42.3464444147448" lon="13.402483266036441"><ele>682.2</ele><time>2026-05-03T06:41:09.999Z</time></trkpt><trkpt lat="42.34650646996254" lon="13.402629753066904"><ele>683.0</ele><time>2026-05-03T06:41:10.999Z</time></trkpt><trkpt lat="42.34658252022733" lon="13.402779703508129"><ele>684.6666666666666</ele><time>2026-05-03T06:41:11.999Z</time></trkpt><trkpt lat="42.3466532241308" lon="13.402941508684794"><ele>686.3333333333334</ele><time>2026-05-03T06:41:12.999Z</time></trkpt><trkpt lat="42.346732402033005" lon="13.403109761248135"><ele>688.0</ele><time>2026-05-03T06:41:13.999Z</time></trkpt><trkpt lat="42.34682160894911" lon="13.403295806407655"><ele>688.3333333333334</ele><time>2026-05-03T06:41:14.999Z</time></trkpt><trkpt lat="42.34691164960782" lon="13.403488339980864"><ele>688.6666666666666</ele><time>2026-05-03T06:41:15.999Z</time></trkpt><trkpt lat="42.34701907243846" lon="13.403686521662618"><ele>689.0</ele><time>2026-05-03T06:41:16.999Z</time></trkpt><trkpt lat="42.34712419636903" lon="13.403887297263422"><ele>690.6666666666666</ele><time>2026-05-03T06:41:17.999Z</time></trkpt><trkpt lat="42.34724792740882" lon="13.40408076377439"><ele>692.3333333333334</ele><time>2026-05-03T06:41:18.999Z</time></trkpt><trkpt lat="42.34737673743608" lon="13.404264499191672"><ele>694.0</ele><time>2026-05-03T06:41:19.999Z</time></trkpt><trkpt lat="42.347505094138526" lon="13.404439480478132"><ele>694.0</ele><time>2026-05-03T06:41:20.999Z</time></trkpt><trkpt lat="42.34761057033395" lon="13.404582744066444"><ele>694.0</ele><time>2026-05-03T06:41:21.999Z</time></trkpt><trkpt lat="42.34772416890508" lon="13.404711854439366"><ele>694.0</ele><time>2026-05-03T06:41:22.999Z</time></trkpt><trkpt lat="42.347844691838986" lon="13.404816208867949"><ele>694.0</ele><time>2026-05-03T06:41:23.999Z</time></trkpt><trkpt lat="42.34794503363369" lon="13.404915569802721"><ele>694.25</ele><time>2026-05-03T06:41:24.999Z</time></trkpt><trkpt lat="42.34806827514827" lon="13.40500822664822"><ele>694.5</ele><time>2026-05-03T06:41:25.999Z</time></trkpt><trkpt lat="42.348183179214026" lon="13.405110394084549"><ele>694.75</ele><time>2026-05-03T06:41:26.999Z</time></trkpt><trkpt lat="42.348303325999815" lon="13.4051966903564"><ele>695.0</ele><time>2026-05-03T06:41:27.999Z</time></trkpt><trkpt lat="42.34842453761991" lon="13.405281160548277"><ele>695.0</ele><time>2026-05-03T06:41:28.999Z</time></trkpt><trkpt lat="42.348551748547145" lon="13.405366110742895"><ele>695.0</ele><time>2026-05-03T06:41:29.999Z</time></trkpt><trkpt lat="42.34867263511052" lon="13.405439999949492"><ele>695.0</ele><time>2026-05-03T06:41:30.999Z</time></trkpt><trkpt lat="42.34879964642948" lon="13.405507410660903"><ele>695.0</ele><time>2026-05-03T06:41:31.999Z</time></trkpt><trkpt lat="42.34893391330887" lon="13.405572532363264"><ele>695.0</ele><time>2026-05-03T06:41:32.999Z</time></trkpt><trkpt lat="42.3490685268297" lon="13.405641371505805"><ele>695.0</ele><time>2026-05-03T06:41:33.999Z</time></trkpt><trkpt lat="42.34920760050809" lon="13.405706055382604"><ele>695.0</ele><time>2026-05-03T06:41:34.999Z</time></trkpt><trkpt lat="42.349345611442274" lon="13.405773015478031"><ele>695.0</ele><time>2026-05-03T06:41:35.999Z</time></trkpt><trkpt lat="42.34948754555173" lon="13.405846433259784"><ele>695.0</ele><time>2026-05-03T06:41:36.999Z</time></trkpt><trkpt lat="42.349629873789404" lon="13.405928141045775"><ele>695.0</ele><time>2026-05-03T06:41:37.999Z</time></trkpt><trkpt lat="42.349780340933656" lon="13.405990308485155"><ele>695.0</ele><time>2026-05-03T06:41:38.999Z</time></trkpt><trkpt lat="42.34992592229086" lon="13.40606323807214"><ele>696.0</ele><time>2026-05-03T06:41:39.999Z</time></trkpt><trkpt lat="42.350071062286986" lon="13.40613189763129"><ele>697.0</ele><time>2026-05-03T06:41:40.999Z</time></trkpt><trkpt lat="42.35021236979806" lon="13.406203719681802"><ele>698.0</ele><time>2026-05-03T06:41:41.999Z</time></trkpt><trkpt lat="42.35035872734822" lon="13.406282310502482"><ele>698.3333333333333</ele><time>2026-05-03T06:41:42.999Z</time></trkpt><trkpt lat="42.35049963591722" lon="13.406357835708274"><ele>698.6666666666666</ele><time>2026-05-03T06:41:43.999Z</time></trkpt><trkpt lat="42.35064459190501" lon="13.406432572549013"><ele>699.0</ele><time>2026-05-03T06:41:44.999Z</time></trkpt><trkpt lat="42.35078709282851" lon="13.406501900913478"><ele>699.0</ele><time>2026-05-03T06:41:45.999Z</time></trkpt><trkpt lat="42.35093639672377" lon="13.406567515129355"><ele>699.0</ele><time>2026-05-03T06:41:46.999Z</time></trkpt><trkpt lat="42.35107933812723" lon="13.40663869265261"><ele>699.0</ele><time>2026-05-03T06:41:47.999Z</time></trkpt><trkpt lat="42.35122128442311" lon="13.406707982337773"><ele>699.0</ele><time>2026-05-03T06:41:48.999Z</time></trkpt><trkpt lat="42.35136157781101" lon="13.40677758627585"><ele>699.0</ele><time>2026-05-03T06:41:49.999Z</time></trkpt><trkpt lat="42.35147637676745" lon="13.406825203577029"><ele>699.0</ele><time>2026-05-03T06:41:50.999Z</time></trkpt><trkpt lat="42.35157155048909" lon="13.406867815880362"><ele>699.0</ele><time>2026-05-03T06:41:51.999Z</time></trkpt><trkpt lat="42.351650065508444" lon="13.406891671447758"><ele>700.0</ele><time>2026-05-03T06:41:53Z</time></trkpt><trkpt lat="42.35171362316428" lon="13.406909838171114"><ele>701.0</ele><time>2026-05-03T06:41:54Z</time></trkpt><trkpt lat="42.35172084531302" lon="13.406730442723081"><ele>702.0</ele><time>2026-05-03T06:41:58Z</time></trkpt><trkpt lat="42.35166398411074" lon="13.406610868417111"><ele>703.0</ele><time>2026-05-03T06:41:59Z</time></trkpt><trkpt lat="42.35158402211809" lon="13.406459752796618"><ele>704.0</ele><time>2026-05-03T06:42:00Z</time></trkpt><trkpt lat="42.35150550771656" lon="13.40632812913905"><ele>703.6</ele><time>2026-05-03T06:42:01Z</time></trkpt><trkpt lat="42.3514257822089" lon="13.40619757833835"><ele>703.2</ele><time>2026-05-03T06:42:02Z</time></trkpt><trkpt lat="42.351378892307125" lon="13.406121396934179"><ele>702.8000000000001</ele><time>2026-05-03T06:42:03Z</time></trkpt><trkpt lat="42.351313066366714" lon="13.406027538778195"><ele>702.4000000000001</ele><time>2026-05-03T06:42:12Z</time></trkpt><trkpt lat="42.35124610302393" lon="13.405933575048381"><ele>702.0</ele><time>2026-05-03T06:42:14Z</time></trkpt><trkpt lat="42.351159750988586" lon="13.405837232251345"><ele>702.0</ele><time>2026-05-03T06:42:16Z</time></trkpt><trkpt lat="42.35108022072973" lon="13.405721411147951"><ele>702.0</ele><time>2026-05-03T06:42:18Z</time></trkpt><trkpt lat="42.351030926695884" lon="13.405659741502284"><ele>702.0</ele><time>2026-05-03T06:42:19Z</time></trkpt><trkpt lat="42.350976202967786" lon="13.40558794146537"><ele>702.0</ele><time>2026-05-03T06:42:20Z</time></trkpt><trkpt lat="42.35090380523189" lon="13.405501403755682"><ele>702.0</ele><time>2026-05-03T06:42:21Z</time></trkpt><trkpt lat="42.35083848966239" lon="13.40542139089605"><ele>702.0</ele><time>2026-05-03T06:42:22Z</time></trkpt><trkpt lat="42.35079122320702" lon="13.405343517838103"><ele>704.0</ele><time>2026-05-03T06:42:23Z</time></trkpt><trkpt lat="42.35072652728795" lon="13.405243346847415"><ele>706.0</ele><time>2026-05-03T06:42:25Z</time></trkpt><trkpt lat="42.35083288161139" lon="13.40519098259575"><ele>708.0</ele><time>2026-05-03T06:42:28.999Z</time></trkpt><trkpt lat="42.3509240432652" lon="13.405165409060153"><ele>710.0</ele><time>2026-05-03T06:42:29.999Z</time></trkpt><trkpt lat="42.35101708067951" lon="13.405161645758435"><ele>712.0</ele><time>2026-05-03T06:42:30.999Z</time></trkpt><trkpt lat="42.35108992457604" lon="13.405172312056223"><ele>712.0</ele><time>2026-05-03T06:42:31.999Z</time></trkpt><trkpt lat="42.351161198172875" lon="13.405216737571763"><ele>712.0</ele><time>2026-05-03T06:42:33.999Z</time></trkpt><trkpt lat="42.35122414453667" lon="13.405241142717541"><ele>712.0</ele><time>2026-05-03T06:42:36.999Z</time></trkpt><trkpt lat="42.35115727408604" lon="13.405217979332688"><ele>712.0</ele><time>2026-05-03T06:42:46.999Z</time></trkpt><trkpt lat="42.35104986966659" lon="13.405180477511523"><ele>712.0</ele><time>2026-05-03T06:42:48.999Z</time></trkpt><trkpt lat="42.35095025237315" lon="13.405174413622948"><ele>712.0</ele><time>2026-05-03T06:42:50.999Z</time></trkpt><trkpt lat="42.35086083268397" lon="13.405165519953952"><ele>712.0</ele><time>2026-05-03T06:42:52.999Z</time></trkpt><trkpt lat="42.35077046689398" lon="13.405188774242921"><ele>712.0</ele><time>2026-05-03T06:42:54.999Z</time></trkpt><trkpt lat="42.35071312111308" lon="13.405232519499771"><ele>712.0</ele><time>2026-05-03T06:42:56.999Z</time></trkpt><trkpt lat="42.350664100667416" lon="13.405300047960505"><ele>712.0</ele><time>2026-05-03T06:42:59.999Z</time></trkpt><trkpt lat="42.35073301341685" lon="13.405253277453909"><ele>712.0</ele><time>2026-05-03T06:43:14.999Z</time></trkpt><trkpt lat="42.35066729985176" lon="13.405165309608384"><ele>712.0</ele><time>2026-05-03T06:43:17.999Z</time></trkpt><trkpt lat="42.35060760066697" lon="13.4050963694383"><ele>712.0</ele><time>2026-05-03T06:43:18.999Z</time></trkpt><trkpt lat="42.350546768559475" lon="13.405031101137755"><ele>712.0</ele><time>2026-05-03T06:43:19.999Z</time></trkpt><trkpt lat="42.35047738357156" lon="13.404959631449866"><ele>712.0</ele><time>2026-05-03T06:43:20.999Z</time></trkpt><trkpt lat="42.35040373885293" lon="13.404882643441324"><ele>712.0</ele><time>2026-05-03T06:43:21.999Z</time></trkpt><trkpt lat="42.35032714017048" lon="13.404799453157779"><ele>712.0</ele><time>2026-05-03T06:43:22.999Z</time></trkpt><trkpt lat="42.35024890009523" lon="13.404714480288902"><ele>713.5</ele><time>2026-05-03T06:43:23.999Z</time></trkpt><trkpt lat="42.35016935712889" lon="13.40462707769644"><ele>715.0</ele><time>2026-05-03T06:43:24.999Z</time></trkpt><trkpt lat="42.350088517629544" lon="13.40453639271827"><ele>716.5</ele><time>2026-05-03T06:43:25.999Z</time></trkpt><trkpt lat="42.3500282747186" lon="13.404468812878234"><ele>718.0</ele><time>2026-05-03T06:43:26.999Z</time></trkpt><trkpt lat="42.34996993407608" lon="13.404403366897093"><ele>719.5</ele><time>2026-05-03T06:43:27.999Z</time></trkpt><trkpt lat="42.3499123124626" lon="13.40433872789339"><ele>721.0</ele><time>2026-05-03T06:43:28.999Z</time></trkpt><trkpt lat="42.34986402434335" lon="13.404283780378165"><ele>721.0</ele><time>2026-05-03T06:43:29.999Z</time></trkpt><trkpt lat="42.34977009632328" lon="13.404188772877207"><ele>721.0</ele><time>2026-05-03T06:43:31.999Z</time></trkpt><trkpt lat="42.349687146795844" lon="13.404101608474226"><ele>721.0</ele><time>2026-05-03T06:43:33.999Z</time></trkpt><trkpt lat="42.34966166440995" lon="13.403991958270732"><ele>721.0</ele><time>2026-05-03T06:43:45.999Z</time></trkpt><trkpt lat="42.349755567579585" lon="13.403690172248425"><ele>721.5</ele><time>2026-05-03T06:43:48.999Z</time></trkpt><trkpt lat="42.349780647801374" lon="13.403571516353292"><ele>722.0</ele><time>2026-05-03T06:43:51Z</time></trkpt><trkpt lat="42.34980658034988" lon="13.403451741956156"><ele>722.5</ele><time>2026-05-03T06:44:07Z</time></trkpt><trkpt lat="42.34983827166859" lon="13.403353088730832"><ele>723.0</ele><time>2026-05-03T06:44:09Z</time></trkpt><trkpt lat="42.349856993511025" lon="13.40327011237236"><ele>723.5</ele><time>2026-05-03T06:44:10Z</time></trkpt><trkpt lat="42.349871595803016" lon="13.403169281582151"><ele>724.0</ele><time>2026-05-03T06:44:11Z</time></trkpt><trkpt lat="42.34989153836317" lon="13.403068378782441"><ele>724.1666666666667</ele><time>2026-05-03T06:44:12Z</time></trkpt><trkpt lat="42.34991884602044" lon="13.402987715668088"><ele>724.3333333333334</ele><time>2026-05-03T06:44:13Z</time></trkpt><trkpt lat="42.349943493118666" lon="13.402905948554961"><ele>724.5</ele><time>2026-05-03T06:44:14Z</time></trkpt><trkpt lat="42.34996611339842" lon="13.402818924883624"><ele>724.6666666666666</ele><time>2026-05-03T06:44:15Z</time></trkpt><trkpt lat="42.34998395726104" lon="13.402729306487926"><ele>724.8333333333333</ele><time>2026-05-03T06:44:16Z</time></trkpt><trkpt lat="42.350018670150575" lon="13.402580863079088"><ele>725.0</ele><time>2026-05-03T06:44:18Z</time></trkpt><trkpt lat="42.350037138415345" lon="13.402491120829074"><ele>725.0</ele><time>2026-05-03T06:44:20Z</time></trkpt><trkpt lat="42.35000928901015" lon="13.402411113310064"><ele>725.0</ele><time>2026-05-03T06:44:22Z</time></trkpt><trkpt lat="42.35001867190213" lon="13.402516675962554"><ele>725.0</ele><time>2026-05-03T06:45:05Z</time></trkpt><trkpt lat="42.350005627097936" lon="13.402661391195345"><ele>725.0</ele><time>2026-05-03T06:45:08Z</time></trkpt><trkpt lat="42.34996940010958" lon="13.402814503493172"><ele>725.0</ele><time>2026-05-03T06:45:10Z</time></trkpt><trkpt lat="42.349773497990405" lon="13.40253238172499"><ele>724.0</ele><time>2026-05-03T06:45:11Z</time></trkpt><trkpt lat="42.34982760044281" lon="13.403295574783739"><ele>724.0</ele><time>2026-05-03T06:45:14.999Z</time></trkpt><trkpt lat="42.34991023314301" lon="13.403380223258191"><ele>724.0</ele><time>2026-05-03T06:45:16.999Z</time></trkpt><trkpt lat="42.349993050749546" lon="13.403399137086152"><ele>724.0</ele><time>2026-05-03T06:45:17.999Z</time></trkpt><trkpt lat="42.350088051179696" lon="13.403429246576495"><ele>724.0</ele><time>2026-05-03T06:45:18.999Z</time></trkpt><trkpt lat="42.350194821962795" lon="13.403464337814354"><ele>724.0</ele><time>2026-05-03T06:45:19.999Z</time></trkpt><trkpt lat="42.3503105824624" lon="13.403505550708699"><ele>724.0</ele><time>2026-05-03T06:45:20.999Z</time></trkpt><trkpt lat="42.35044278450505" lon="13.403557855743133"><ele>724.0</ele><time>2026-05-03T06:45:21.999Z</time></trkpt><trkpt lat="42.35056203383074" lon="13.403604285541634"><ele>724.0</ele><time>2026-05-03T06:45:22.999Z</time></trkpt><trkpt lat="42.35066124148183" lon="13.403612131586662"><ele>724.0</ele><time>2026-05-03T06:45:23.999Z</time></trkpt><trkpt lat="42.35074368228368" lon="13.403605262224714"><ele>724.0</ele><time>2026-05-03T06:45:24.999Z</time></trkpt><trkpt lat="42.35082046789589" lon="13.403615317665762"><ele>724.0</ele><time>2026-05-03T06:45:25.999Z</time></trkpt><trkpt lat="42.350893827079815" lon="13.403655375675752"><ele>724.0</ele><time>2026-05-03T06:45:26.999Z</time></trkpt><trkpt lat="42.3509637687966" lon="13.403663495162895"><ele>724.0</ele><time>2026-05-03T06:45:27.999Z</time></trkpt><trkpt lat="42.35102376509904" lon="13.403694609335329"><ele>724.0</ele><time>2026-05-03T06:45:29.999Z</time></trkpt><trkpt lat="42.35107679244273" lon="13.40379116007297"><ele>724.0</ele><time>2026-05-03T06:45:32.999Z</time></trkpt><trkpt lat="42.35118814506289" lon="13.403897558362795"><ele>724.0</ele><time>2026-05-03T06:45:34.999Z</time></trkpt><trkpt lat="42.35127043327223" lon="13.403928340518569"><ele>724.0</ele><time>2026-05-03T06:45:35.999Z</time></trkpt><trkpt lat="42.351364157899724" lon="13.403965902849736"><ele>724.0</ele><time>2026-05-03T06:45:36.999Z</time></trkpt><trkpt lat="42.35144520103135" lon="13.403998745053427"><ele>724.0</ele><time>2026-05-03T06:45:37.999Z</time></trkpt><trkpt lat="42.351528333893796" lon="13.40403243412674"><ele>724.0</ele><time>2026-05-03T06:45:38.999Z</time></trkpt><trkpt lat="42.35161697971021" lon="13.404068357275916"><ele>724.0</ele><time>2026-05-03T06:45:39.999Z</time></trkpt><trkpt lat="42.35169453306709" lon="13.404100194991175"><ele>724.0</ele><time>2026-05-03T06:45:40.999Z</time></trkpt><trkpt lat="42.351756163075294" lon="13.40412559124319"><ele>725.1666666666667</ele><time>2026-05-03T06:45:41.999Z</time></trkpt><trkpt lat="42.35185578314867" lon="13.404166642330784"><ele>726.3333333333334</ele><time>2026-05-03T06:45:43.999Z</time></trkpt><trkpt lat="42.35192078219938" lon="13.404183928910728"><ele>727.5</ele><time>2026-05-03T06:45:46.999Z</time></trkpt><trkpt lat="42.3519937665918" lon="13.40420221750879"><ele>728.6666666666666</ele><time>2026-05-03T06:45:49.999Z</time></trkpt><trkpt lat="42.35205497447882" lon="13.404146065227822"><ele>729.8333333333333</ele><time>2026-05-03T06:45:51.999Z</time></trkpt><trkpt lat="42.35211596168668" lon="13.404041997622997"><ele>731.0</ele><time>2026-05-03T06:45:53.999Z</time></trkpt><trkpt lat="42.35216650375287" lon="13.403919109795705"><ele>731.0</ele><time>2026-05-03T06:45:55.999Z</time></trkpt><trkpt lat="42.35218510223696" lon="13.403832760079766"><ele>731.0</ele><time>2026-05-03T06:45:56.999Z</time></trkpt><trkpt lat="42.35222312327732" lon="13.403682058710299"><ele>731.0</ele><time>2026-05-03T06:45:58.999Z</time></trkpt><trkpt lat="42.35226905629559" lon="13.40352761535079"><ele>731.0</ele><time>2026-05-03T06:46:00.999Z</time></trkpt><trkpt lat="42.35229461227935" lon="13.403446880131217"><ele>731.0</ele><time>2026-05-03T06:46:01.999Z</time></trkpt><trkpt lat="42.35231422305756" lon="13.403356107499457"><ele>731.0</ele><time>2026-05-03T06:46:02.999Z</time></trkpt><trkpt lat="42.352339569401146" lon="13.403272700123448"><ele>732.0</ele><time>2026-05-03T06:46:03.999Z</time></trkpt><trkpt lat="42.352361880763375" lon="13.403177621327416"><ele>733.0</ele><time>2026-05-03T06:46:04.999Z</time></trkpt><trkpt lat="42.35239117324803" lon="13.403084154654909"><ele>734.0</ele><time>2026-05-03T06:46:06Z</time></trkpt><trkpt lat="42.35242661663563" lon="13.402999393055055"><ele>735.0</ele><time>2026-05-03T06:46:07Z</time></trkpt><trkpt lat="42.352452899846455" lon="13.40290072293185"><ele>736.0</ele><time>2026-05-03T06:46:08Z</time></trkpt><trkpt lat="42.35247061243981" lon="13.402801247971793"><ele>737.0</ele><time>2026-05-03T06:46:09Z</time></trkpt><trkpt lat="42.3524944671545" lon="13.402701023593956"><ele>737.0</ele><time>2026-05-03T06:46:10Z</time></trkpt><trkpt lat="42.352530592667065" lon="13.40260358797196"><ele>737.0</ele><time>2026-05-03T06:46:11Z</time></trkpt><trkpt lat="42.352556486175544" lon="13.402501518354548"><ele>737.0</ele><time>2026-05-03T06:46:12Z</time></trkpt><trkpt lat="42.35258473689566" lon="13.402398321466682"><ele>737.0</ele><time>2026-05-03T06:46:13Z</time></trkpt><trkpt lat="42.35261193180219" lon="13.402291894135175"><ele>737.0</ele><time>2026-05-03T06:46:14Z</time></trkpt><trkpt lat="42.35264287753253" lon="13.402196000424713"><ele>737.0</ele><time>2026-05-03T06:46:15Z</time></trkpt><trkpt lat="42.35266878084896" lon="13.402086594552124"><ele>736.8</ele><time>2026-05-03T06:46:16Z</time></trkpt><trkpt lat="42.352702372418214" lon="13.401990652169813"><ele>736.6</ele><time>2026-05-03T06:46:17Z</time></trkpt><trkpt lat="42.3527340746536" lon="13.401894116005518"><ele>736.4</ele><time>2026-05-03T06:46:18Z</time></trkpt><trkpt lat="42.35276594989619" lon="13.40180290940564"><ele>736.1999999999999</ele><time>2026-05-03T06:46:19Z</time></trkpt><trkpt lat="42.35278173054449" lon="13.401711441682295"><ele>736.0</ele><time>2026-05-03T06:46:20Z</time></trkpt><trkpt lat="42.352980441957904" lon="13.401773723243213"><ele>735.6666666666667</ele><time>2026-05-03T06:46:23Z</time></trkpt><trkpt lat="42.35305984703083" lon="13.401821804490606"><ele>735.3333333333334</ele><time>2026-05-03T06:46:24Z</time></trkpt><trkpt lat="42.35313778222622" lon="13.401871730754506"><ele>735.0</ele><time>2026-05-03T06:46:25Z</time></trkpt><trkpt lat="42.35322548783291" lon="13.401909294888164"><ele>734.6666666666666</ele><time>2026-05-03T06:46:26Z</time></trkpt><trkpt lat="42.35329554256174" lon="13.40193834081344"><ele>734.3333333333333</ele><time>2026-05-03T06:46:27Z</time></trkpt><trkpt lat="42.353360345426005" lon="13.40194883105484"><ele>734.0</ele><time>2026-05-03T06:46:28Z</time></trkpt><trkpt lat="42.35342466417862" lon="13.401939210432369"><ele>734.0</ele><time>2026-05-03T06:46:29Z</time></trkpt><trkpt lat="42.35349819638782" lon="13.40190193046071"><ele>734.0</ele><time>2026-05-03T06:46:30Z</time></trkpt><trkpt lat="42.35356213342545" lon="13.401851479665648"><ele>734.0</ele><time>2026-05-03T06:46:31Z</time></trkpt><trkpt lat="42.35366272532906" lon="13.401808530028271"><ele>734.0</ele><time>2026-05-03T06:46:33Z</time></trkpt><trkpt lat="42.35371564219781" lon="13.401987754411817"><ele>734.0</ele><time>2026-05-03T06:46:36Z</time></trkpt><trkpt lat="42.353730952297674" lon="13.402142692964638"><ele>734.1666666666666</ele><time>2026-05-03T06:46:38Z</time></trkpt><trkpt lat="42.3537225711559" lon="13.402269402858398"><ele>734.3333333333333</ele><time>2026-05-03T06:46:40Z</time></trkpt><trkpt lat="42.35372938541967" lon="13.40236105582144"><ele>734.5</ele><time>2026-05-03T06:46:42Z</time></trkpt><trkpt lat="42.353738540369925" lon="13.402479975174549"><ele>734.6666666666666</ele><time>2026-05-03T06:46:45Z</time></trkpt><trkpt lat="42.35374783180543" lon="13.402570376906672"><ele>734.8333333333334</ele><time>2026-05-03T06:46:51Z</time></trkpt><trkpt lat="42.35375675296472" lon="13.40241973480485"><ele>735.0</ele><time>2026-05-03T06:49:07Z</time></trkpt><trkpt lat="42.35374149930663" lon="13.402317058095898"><ele>735.0</ele><time>2026-05-03T06:49:08Z</time></trkpt><trkpt lat="42.35375315307243" lon="13.402215466175138"><ele>735.0</ele><time>2026-05-03T06:49:09Z</time></trkpt><trkpt lat="42.353745837276584" lon="13.40211214817125"><ele>735.0</ele><time>2026-05-03T06:49:10Z</time></trkpt><trkpt lat="42.35374186091516" lon="13.402026480454046"><ele>735.0</ele><time>2026-05-03T06:49:11Z</time></trkpt><trkpt lat="42.35373224233589" lon="13.401871398603124"><ele>735.0</ele><time>2026-05-03T06:49:13Z</time></trkpt><trkpt lat="42.353770796705284" lon="13.401716604784262"><ele>734.8</ele><time>2026-05-03T06:49:15Z</time></trkpt><trkpt lat="42.353812138578554" lon="13.401644524373456"><ele>734.6</ele><time>2026-05-03T06:49:16Z</time></trkpt><trkpt lat="42.35387227372744" lon="13.401556058298086"><ele>734.4000000000001</ele><time>2026-05-03T06:49:18Z</time></trkpt><trkpt lat="42.35399313128998" lon="13.40166130506052"><ele>734.2</ele><time>2026-05-03T06:49:19Z</time></trkpt><trkpt lat="42.35404708822808" lon="13.401735829020126"><ele>734.0</ele><time>2026-05-03T06:49:20Z</time></trkpt><trkpt lat="42.35411618225466" lon="13.40180018737243"><ele>733.4000000000001</ele><time>2026-05-03T06:49:21Z</time></trkpt><trkpt lat="42.354179092722504" lon="13.401849665477197"><ele>732.8</ele><time>2026-05-03T06:49:22Z</time></trkpt><trkpt lat="42.35421030746884" lon="13.40198593616882"><ele>732.2</ele><time>2026-05-03T06:49:23Z</time></trkpt><trkpt lat="42.35429654028897" lon="13.402047243813564"><ele>731.5999999999999</ele><time>2026-05-03T06:49:24Z</time></trkpt><trkpt lat="42.35436426438636" lon="13.402170913199935"><ele>731.0</ele><time>2026-05-03T06:49:25Z</time></trkpt><trkpt lat="42.35446688170465" lon="13.402274180606423"><ele>731.0</ele><time>2026-05-03T06:49:26Z</time></trkpt><trkpt lat="42.35456074293595" lon="13.402394712538722"><ele>731.0</ele><time>2026-05-03T06:49:27Z</time></trkpt><trkpt lat="42.35464992503691" lon="13.40250582343386"><ele>731.0</ele><time>2026-05-03T06:49:28Z</time></trkpt><trkpt lat="42.35476046372542" lon="13.40261941428054"><ele>731.0</ele><time>2026-05-03T06:49:29Z</time></trkpt><trkpt lat="42.354840949224155" lon="13.402720713524548"><ele>729.4</ele><time>2026-05-03T06:49:30Z</time></trkpt><trkpt lat="42.35492892446062" lon="13.402815930597573"><ele>727.8</ele><time>2026-05-03T06:49:31Z</time></trkpt><trkpt lat="42.35502550358441" lon="13.402924695458497"><ele>726.1999999999999</ele><time>2026-05-03T06:49:32Z</time></trkpt><trkpt lat="42.35508495120307" lon="13.403035162677233"><ele>724.5999999999999</ele><time>2026-05-03T06:49:33Z</time></trkpt><trkpt lat="42.35514501437129" lon="13.403145963969136"><ele>723.0</ele><time>2026-05-03T06:49:34Z</time></trkpt><trkpt lat="42.35519155221506" lon="13.403258036862702"><ele>723.0</ele><time>2026-05-03T06:49:35Z</time></trkpt><trkpt lat="42.35522711109886" lon="13.40337802469115"><ele>723.0</ele><time>2026-05-03T06:49:36Z</time></trkpt><trkpt lat="42.35525955950744" lon="13.403513304373794"><ele>723.0</ele><time>2026-05-03T06:49:37Z</time></trkpt><trkpt lat="42.35528520473248" lon="13.403657629654907"><ele>723.0</ele><time>2026-05-03T06:49:38Z</time></trkpt><trkpt lat="42.355329129730244" lon="13.403801137848179"><ele>723.0</ele><time>2026-05-03T06:49:39Z</time></trkpt><trkpt lat="42.35537215026151" lon="13.403947804016035"><ele>724.75</ele><time>2026-05-03T06:49:40Z</time></trkpt><trkpt lat="42.355408056056646" lon="13.404099504189851"><ele>726.5</ele><time>2026-05-03T06:49:41Z</time></trkpt><trkpt lat="42.35544040731018" lon="13.404261495786464"><ele>728.25</ele><time>2026-05-03T06:49:42Z</time></trkpt><trkpt lat="42.35547497857381" lon="13.40441983983505"><ele>730.0</ele><time>2026-05-03T06:49:43Z</time></trkpt><trkpt lat="42.35550947777259" lon="13.404559434577402"><ele>730.1666666666667</ele><time>2026-05-03T06:49:44Z</time></trkpt><trkpt lat="42.35553362712032" lon="13.404680139654365"><ele>730.3333333333334</ele><time>2026-05-03T06:49:45Z</time></trkpt><trkpt lat="42.35555156814886" lon="13.404796878665204"><ele>730.5</ele><time>2026-05-03T06:49:46Z</time></trkpt><trkpt lat="42.35557915925739" lon="13.404886932112575"><ele>730.6666666666666</ele><time>2026-05-03T06:49:47Z</time></trkpt><trkpt lat="42.355605287788094" lon="13.405003718791702"><ele>730.8333333333333</ele><time>2026-05-03T06:49:49Z</time></trkpt><trkpt lat="42.35562607409056" lon="13.40509687964588"><ele>731.0</ele><time>2026-05-03T06:49:52Z</time></trkpt><trkpt lat="42.35550747447446" lon="13.405220285968586"><ele>727.6666666666666</ele><time>2026-05-03T06:53:38Z</time></trkpt><trkpt lat="42.35559538298992" lon="13.405260533207558"><ele>724.3333333333333</ele><time>2026-05-03T06:54:03Z</time></trkpt><trkpt lat="42.35566503513975" lon="13.405224560686253"><ele>721.0</ele><time>2026-05-03T06:54:37.001Z</time></trkpt><trkpt lat="42.35567836957871" lon="13.405103645034119"><ele>717.6666666666666</ele><time>2026-05-03T06:54:39.001Z</time></trkpt><trkpt lat="42.35563306958771" lon="13.404967863672322"><ele>714.3333333333334</ele><time>2026-05-03T06:54:41.001Z</time></trkpt><trkpt lat="42.35561687032538" lon="13.404874868722954"><ele>711.0</ele><time>2026-05-03T06:54:42.001Z</time></trkpt><trkpt lat="42.355592746366206" lon="13.40477509690026"><ele>709.5999999999999</ele><time>2026-05-03T06:54:43.001Z</time></trkpt><trkpt lat="42.355571305535875" lon="13.40465634001588"><ele>708.2</ele><time>2026-05-03T06:54:44.001Z</time></trkpt><trkpt lat="42.355539107295826" lon="13.404519845700573"><ele>706.8</ele><time>2026-05-03T06:54:45.001Z</time></trkpt><trkpt lat="42.35550428738459" lon="13.40438307546883"><ele>705.4000000000001</ele><time>2026-05-03T06:54:46.001Z</time></trkpt><trkpt lat="42.355473913484246" lon="13.404253136647604"><ele>704.0</ele><time>2026-05-03T06:54:47.001Z</time></trkpt><trkpt lat="42.355452501989454" lon="13.404121997531593"><ele>707.8000000000001</ele><time>2026-05-03T06:54:48.001Z</time></trkpt><trkpt lat="42.35542300082249" lon="13.40400607001291"><ele>711.6</ele><time>2026-05-03T06:54:49.001Z</time></trkpt><trkpt lat="42.35539203447117" lon="13.403876541972364"><ele>715.4</ele><time>2026-05-03T06:54:50.001Z</time></trkpt><trkpt lat="42.355360179938984" lon="13.403739144359054"><ele>719.2</ele><time>2026-05-03T06:54:51.001Z</time></trkpt><trkpt lat="42.35532597308635" lon="13.403602287506411"><ele>723.0</ele><time>2026-05-03T06:54:52.001Z</time></trkpt><trkpt lat="42.355299651136775" lon="13.403459250914903"><ele>723.0</ele><time>2026-05-03T06:54:53.001Z</time></trkpt><trkpt lat="42.35524976615485" lon="13.403328327997968"><ele>723.0</ele><time>2026-05-03T06:54:54.001Z</time></trkpt><trkpt lat="42.35520266974116" lon="13.403201872037219"><ele>723.0</ele><time>2026-05-03T06:54:55.001Z</time></trkpt><trkpt lat="42.355152071818125" lon="13.403090618100144"><ele>723.0</ele><time>2026-05-03T06:54:56.001Z</time></trkpt><trkpt lat="42.35509900138977" lon="13.402996012794"><ele>723.0</ele><time>2026-05-03T06:54:57.001Z</time></trkpt><trkpt lat="42.355049428487824" lon="13.402909827859329"><ele>721.8333333333334</ele><time>2026-05-03T06:54:58.001Z</time></trkpt><trkpt lat="42.35499473071605" lon="13.402836728008987"><ele>720.6666666666666</ele><time>2026-05-03T06:54:59.001Z</time></trkpt><trkpt lat="42.35493818109572" lon="13.40276886861943"><ele>719.5</ele><time>2026-05-03T06:55:00Z</time></trkpt><trkpt lat="42.354876042686655" lon="13.402690003239227"><ele>718.3333333333333</ele><time>2026-05-03T06:55:01Z</time></trkpt><trkpt lat="42.35480662847061" lon="13.402605857353164"><ele>717.1666666666666</ele><time>2026-05-03T06:55:02Z</time></trkpt><trkpt lat="42.35473222098255" lon="13.402524580296493"><ele>716.0</ele><time>2026-05-03T06:55:03Z</time></trkpt><trkpt lat="42.35465276003357" lon="13.402436481522063"><ele>718.0</ele><time>2026-05-03T06:55:04Z</time></trkpt><trkpt lat="42.35457603141986" lon="13.402346635988653"><ele>720.0</ele><time>2026-05-03T06:55:05Z</time></trkpt><trkpt lat="42.35449868290631" lon="13.40226338286068"><ele>722.0</ele><time>2026-05-03T06:55:06Z</time></trkpt><trkpt lat="42.3544337986867" lon="13.402185370578344"><ele>724.0</ele><time>2026-05-03T06:55:07Z</time></trkpt><trkpt lat="42.354385349217196" lon="13.402093058544311"><ele>726.0</ele><time>2026-05-03T06:55:08Z</time></trkpt><trkpt lat="42.354329754637696" lon="13.402046021631302"><ele>728.0</ele><time>2026-05-03T06:55:09Z</time></trkpt><trkpt lat="42.354287831806396" lon="13.401905742239789"><ele>728.0</ele><time>2026-05-03T06:55:11Z</time></trkpt><trkpt lat="42.354272323807244" lon="13.401769072760754"><ele>728.0</ele><time>2026-05-03T06:55:13Z</time></trkpt><trkpt lat="42.35427683505372" lon="13.401680226263412"><ele>728.0</ele><time>2026-05-03T06:55:14Z</time></trkpt><trkpt lat="42.35429324484766" lon="13.401582060474404"><ele>728.0</ele><time>2026-05-03T06:55:15Z</time></trkpt><trkpt lat="42.35433132232035" lon="13.401485398365518"><ele>728.0</ele><time>2026-05-03T06:55:17Z</time></trkpt><trkpt lat="42.35422193457706" lon="13.401367223360456"><ele>728.0</ele><time>2026-05-03T06:55:20Z</time></trkpt><trkpt lat="42.354115215118604" lon="13.401381611373694"><ele>728.0</ele><time>2026-05-03T06:55:22Z</time></trkpt><trkpt lat="42.35400238483077" lon="13.40132204975077"><ele>728.0</ele><time>2026-05-03T06:55:24Z</time></trkpt><trkpt lat="42.353944800353084" lon="13.401275239154435"><ele>728.0</ele><time>2026-05-03T06:55:25Z</time></trkpt><trkpt lat="42.35384481837757" lon="13.401213667993892"><ele>728.0</ele><time>2026-05-03T06:55:27Z</time></trkpt><trkpt lat="42.353782327698966" lon="13.40119848489223"><ele>729.0</ele><time>2026-05-03T06:55:28Z</time></trkpt><trkpt lat="42.353722902952235" lon="13.401234814143526"><ele>730.0</ele><time>2026-05-03T06:55:29Z</time></trkpt><trkpt lat="42.35368401016212" lon="13.40130964393082"><ele>731.0</ele><time>2026-05-03T06:55:30Z</time></trkpt><trkpt lat="42.35368859455038" lon="13.401408482871625"><ele>732.0</ele><time>2026-05-03T06:55:31Z</time></trkpt><trkpt lat="42.35373638343649" lon="13.401530263455358"><ele>733.0</ele><time>2026-05-03T06:55:33Z</time></trkpt><trkpt lat="42.35379001622002" lon="13.401581696041356"><ele>734.0</ele><time>2026-05-03T06:55:34Z</time></trkpt><trkpt lat="42.35378789476626" lon="13.40169296768811"><ele>734.0</ele><time>2026-05-03T06:55:36Z</time></trkpt><trkpt lat="42.35375657902242" lon="13.401800899566872"><ele>734.0</ele><time>2026-05-03T06:55:38Z</time></trkpt><trkpt lat="42.353866711003825" lon="13.401807191855918"><ele>734.0</ele><time>2026-05-03T06:55:39Z</time></trkpt><trkpt lat="42.35371416195079" lon="13.402020111584774"><ele>734.0</ele><time>2026-05-03T06:55:40Z</time></trkpt><trkpt lat="42.35372693540564" lon="13.40213352999608"><ele>734.1428571428571</ele><time>2026-05-03T06:55:41Z</time></trkpt><trkpt lat="42.35372975147636" lon="13.402221009059092"><ele>734.2857142857143</ele><time>2026-05-03T06:55:42Z</time></trkpt><trkpt lat="42.3537250655823" lon="13.402329655744229"><ele>734.4285714285714</ele><time>2026-05-03T06:55:44Z</time></trkpt><trkpt lat="42.3537491029831" lon="13.402412668584612"><ele>734.5714285714286</ele><time>2026-05-03T06:55:48Z</time></trkpt><trkpt lat="42.35374103778855" lon="13.402500045228114"><ele>734.7142857142858</ele><time>2026-05-03T06:55:50Z</time></trkpt><trkpt lat="42.353679661243795" lon="13.402449497645252"><ele>734.8571428571429</ele><time>2026-05-03T06:55:56.999Z</time></trkpt><trkpt lat="42.35374128515903" lon="13.402403878694605"><ele>735.0</ele><time>2026-05-03T07:07:48.999Z</time></trkpt><trkpt lat="42.353773212098126" lon="13.402317893852771"><ele>735.0</ele><time>2026-05-03T07:07:51.999Z</time></trkpt><trkpt lat="42.35373606182692" lon="13.402249085889462"><ele>735.0</ele><time>2026-05-03T07:08:02.998Z</time></trkpt><trkpt lat="42.353720963642026" lon="13.40216465413899"><ele>735.0</ele><time>2026-05-03T07:09:17.998Z</time></trkpt><trkpt lat="42.35370902982115" lon="13.402075760018196"><ele>735.0</ele><time>2026-05-03T07:09:19.998Z</time></trkpt><trkpt lat="42.35371443003122" lon="13.401940017656951"><ele>735.0</ele><time>2026-05-03T07:09:21.998Z</time></trkpt><trkpt lat="42.35373797936139" lon="13.40180314260506"><ele>735.0</ele><time>2026-05-03T07:09:23.998Z</time></trkpt><trkpt lat="42.3538119372312" lon="13.401698123436356"><ele>734.8</ele><time>2026-05-03T07:09:25.998Z</time></trkpt><trkpt lat="42.35383813540141" lon="13.401613654506171"><ele>734.6</ele><time>2026-05-03T07:09:26.998Z</time></trkpt><trkpt lat="42.35400537047875" lon="13.401660100411819"><ele>734.4000000000001</ele><time>2026-05-03T07:09:28.998Z</time></trkpt><trkpt lat="42.35406618498861" lon="13.401709808884844"><ele>734.2</ele><time>2026-05-03T07:09:29.998Z</time></trkpt><trkpt lat="42.35412739799426" lon="13.40179346297338"><ele>734.0</ele><time>2026-05-03T07:09:30.998Z</time></trkpt><trkpt lat="42.354192965663785" lon="13.401860651832859"><ele>733.25</ele><time>2026-05-03T07:09:31.998Z</time></trkpt><trkpt lat="42.354257885762344" lon="13.40198566961668"><ele>732.5</ele><time>2026-05-03T07:09:32.998Z</time></trkpt><trkpt lat="42.35433526990125" lon="13.402092481738697"><ele>731.75</ele><time>2026-05-03T07:09:33.998Z</time></trkpt><trkpt lat="42.35441876194676" lon="13.402197898592348"><ele>731.0</ele><time>2026-05-03T07:09:34.998Z</time></trkpt><trkpt lat="42.35450883668719" lon="13.402301160161192"><ele>731.0</ele><time>2026-05-03T07:09:35.998Z</time></trkpt><trkpt lat="42.35459522302942" lon="13.40241165824929"><ele>731.0</ele><time>2026-05-03T07:09:36.998Z</time></trkpt><trkpt lat="42.354682716176804" lon="13.402516827321488"><ele>731.0</ele><time>2026-05-03T07:09:37.998Z</time></trkpt><trkpt lat="42.354762570165676" lon="13.402622248158048"><ele>731.0</ele><time>2026-05-03T07:09:38.998Z</time></trkpt><trkpt lat="42.35485095091944" lon="13.402714175286336"><ele>729.0</ele><time>2026-05-03T07:09:39.998Z</time></trkpt><trkpt lat="42.35494674425391" lon="13.402813651807485"><ele>727.0</ele><time>2026-05-03T07:09:40.998Z</time></trkpt><trkpt lat="42.355030573261025" lon="13.402913772239836"><ele>725.0</ele><time>2026-05-03T07:09:41.998Z</time></trkpt><trkpt lat="42.35510137658679" lon="13.40302610401741"><ele>723.0</ele><time>2026-05-03T07:09:42.998Z</time></trkpt><trkpt lat="42.35516207972153" lon="13.403151395038211"><ele>723.0</ele><time>2026-05-03T07:09:43.998Z</time></trkpt><trkpt lat="42.355223263796915" lon="13.40329992432796"><ele>723.0</ele><time>2026-05-03T07:09:44.998Z</time></trkpt><trkpt lat="42.35527356033506" lon="13.403464088114186"><ele>723.0</ele><time>2026-05-03T07:09:45.998Z</time></trkpt><trkpt lat="42.35530534565816" lon="13.403619175451174"><ele>723.0</ele><time>2026-05-03T07:09:46.998Z</time></trkpt><trkpt lat="42.35534234780913" lon="13.403774239599075"><ele>724.4</ele><time>2026-05-03T07:09:47.998Z</time></trkpt><trkpt lat="42.35537786947573" lon="13.403930510965507"><ele>725.8</ele><time>2026-05-03T07:09:48.998Z</time></trkpt><trkpt lat="42.35541337824943" lon="13.404071736772922"><ele>727.2</ele><time>2026-05-03T07:09:49.998Z</time></trkpt><trkpt lat="42.35544411932355" lon="13.404214124520395"><ele>728.6</ele><time>2026-05-03T07:09:50.998Z</time></trkpt><trkpt lat="42.35547378944426" lon="13.404345804983757"><ele>730.0</ele><time>2026-05-03T07:09:51.998Z</time></trkpt><trkpt lat="42.3555102852899" lon="13.404479171447516"><ele>730.0</ele><time>2026-05-03T07:09:52.998Z</time></trkpt><trkpt lat="42.35553646686157" lon="13.40461251623103"><ele>730.0</ele><time>2026-05-03T07:09:53.998Z</time></trkpt><trkpt lat="42.35556606232615" lon="13.404749085554256"><ele>730.0</ele><time>2026-05-03T07:09:54.998Z</time></trkpt><trkpt lat="42.35559691705188" lon="13.404886822388761"><ele>730.0</ele><time>2026-05-03T07:09:55.998Z</time></trkpt><trkpt lat="42.355628292680734" lon="13.4050262407447"><ele>730.0</ele><time>2026-05-03T07:09:56.998Z</time></trkpt><trkpt lat="42.35565636383873" lon="13.405172278639528"><ele>726.4</ele><time>2026-05-03T07:09:57.998Z</time></trkpt><trkpt lat="42.35568368813658" lon="13.405318373916108"><ele>722.8</ele><time>2026-05-03T07:09:58.998Z</time></trkpt><trkpt lat="42.35571698315002" lon="13.405461842891789"><ele>719.2</ele><time>2026-05-03T07:09:59.998Z</time></trkpt><trkpt lat="42.3557405431956" lon="13.40558176608309"><ele>715.6</ele><time>2026-05-03T07:10:00.998Z</time></trkpt><trkpt lat="42.35575388600693" lon="13.405671616755082"><ele>712.0</ele><time>2026-05-03T07:10:01.998Z</time></trkpt><trkpt lat="42.35576648261305" lon="13.405775901652223"><ele>712.0</ele><time>2026-05-03T07:10:02.998Z</time></trkpt><trkpt lat="42.355771628147096" lon="13.405895320772583"><ele>712.0</ele><time>2026-05-03T07:10:03.998Z</time></trkpt><trkpt lat="42.355772186370984" lon="13.406014189701958"><ele>712.0</ele><time>2026-05-03T07:10:04.998Z</time></trkpt><trkpt lat="42.3557855116042" lon="13.406125351100371"><ele>712.0</ele><time>2026-05-03T07:10:05.998Z</time></trkpt><trkpt lat="42.35580331501926" lon="13.406230555064296"><ele>712.0</ele><time>2026-05-03T07:10:06.998Z</time></trkpt><trkpt lat="42.355809050678346" lon="13.406332475368925"><ele>712.0</ele><time>2026-05-03T07:10:07.998Z</time></trkpt><trkpt lat="42.355797466705056" lon="13.406426395238581"><ele>712.0</ele><time>2026-05-03T07:10:08.998Z</time></trkpt><trkpt lat="42.355753102786636" lon="13.406505911258511"><ele>712.0</ele><time>2026-05-03T07:10:09.998Z</time></trkpt><trkpt lat="42.35571052825728" lon="13.406595413196007"><ele>712.0</ele><time>2026-05-03T07:10:10.998Z</time></trkpt><trkpt lat="42.35567391383186" lon="13.406689661431308"><ele>712.0</ele><time>2026-05-03T07:10:11.998Z</time></trkpt><trkpt lat="42.35562547786901" lon="13.406756091230397"><ele>712.0</ele><time>2026-05-03T07:10:12.998Z</time></trkpt><trkpt lat="42.355542764922255" lon="13.406868163389927"><ele>712.0</ele><time>2026-05-03T07:10:14.998Z</time></trkpt><trkpt lat="42.355420105745324" lon="13.40691249482925"><ele>711.9999999999999</ele><time>2026-05-03T07:10:16.998Z</time></trkpt><trkpt lat="42.35536677223978" lon="13.406969049975197"><ele>712.0</ele><time>2026-05-03T07:10:17.998Z</time></trkpt><trkpt lat="42.35531445199171" lon="13.40701774262655"><ele>712.0</ele><time>2026-05-03T07:10:18.998Z</time></trkpt><trkpt lat="42.35527155324116" lon="13.407088941365393"><ele>712.0</ele><time>2026-05-03T07:10:19.998Z</time></trkpt><trkpt lat="42.355238600317776" lon="13.40717910664923"><ele>712.0</ele><time>2026-05-03T07:10:20.998Z</time></trkpt><trkpt lat="42.35520453918032" lon="13.407271114370308"><ele>711.9999999999999</ele><time>2026-05-03T07:10:21.998Z</time></trkpt><trkpt lat="42.355152817196064" lon="13.407356718822545"><ele>712.0</ele><time>2026-05-03T07:10:22.998Z</time></trkpt><trkpt lat="42.35510567657639" lon="13.407443846764618"><ele>712.0</ele><time>2026-05-03T07:10:23.998Z</time></trkpt><trkpt lat="42.35505466678471" lon="13.407544400313274"><ele>712.0</ele><time>2026-05-03T07:10:24.998Z</time></trkpt><trkpt lat="42.35499152539791" lon="13.4076849601382"><ele>712.0</ele><time>2026-05-03T07:10:25.998Z</time></trkpt><trkpt lat="42.35489995337209" lon="13.407840536081624"><ele>712.0</ele><time>2026-05-03T07:10:26.998Z</time></trkpt><trkpt lat="42.354815745572914" lon="13.408022759277456"><ele>711.6666666666667</ele><time>2026-05-03T07:10:27.998Z</time></trkpt><trkpt lat="42.354730324911145" lon="13.408219051143695"><ele>711.3333333333334</ele><time>2026-05-03T07:10:28.998Z</time></trkpt><trkpt lat="42.354630236348626" lon="13.408407695259609"><ele>711.0</ele><time>2026-05-03T07:10:29.998Z</time></trkpt><trkpt lat="42.35453998757351" lon="13.408582539219237"><ele>712.0</ele><time>2026-05-03T07:10:30.998Z</time></trkpt><trkpt lat="42.35444798285402" lon="13.408751831428676"><ele>713.0</ele><time>2026-05-03T07:10:31.998Z</time></trkpt><trkpt lat="42.35435268455953" lon="13.408903766429054"><ele>714.0</ele><time>2026-05-03T07:10:32.998Z</time></trkpt><trkpt lat="42.35425122466057" lon="13.409053770130638"><ele>714.0</ele><time>2026-05-03T07:10:33.998Z</time></trkpt><trkpt lat="42.35415153559653" lon="13.4091988396027"><ele>714.0</ele><time>2026-05-03T07:10:34.998Z</time></trkpt><trkpt lat="42.3540564227627" lon="13.409337680462633"><ele>714.0</ele><time>2026-05-03T07:10:35.998Z</time></trkpt><trkpt lat="42.3539584468966" lon="13.409483751327226"><ele>714.0</ele><time>2026-05-03T07:10:36.998Z</time></trkpt><trkpt lat="42.35386348859696" lon="13.409625335955802"><ele>713.75</ele><time>2026-05-03T07:10:37.998Z</time></trkpt><trkpt lat="42.35376621495416" lon="13.409765878775216"><ele>713.5</ele><time>2026-05-03T07:10:38.998Z</time></trkpt><trkpt lat="42.353680504531745" lon="13.409898613286312"><ele>713.25</ele><time>2026-05-03T07:10:39.998Z</time></trkpt><trkpt lat="42.35358697273338" lon="13.410022836950102"><ele>713.0</ele><time>2026-05-03T07:10:40.998Z</time></trkpt><trkpt lat="42.35349954157237" lon="13.41014909965345"><ele>713.0</ele><time>2026-05-03T07:10:41.998Z</time></trkpt><trkpt lat="42.35341891463375" lon="13.410272057281578"><ele>713.0</ele><time>2026-05-03T07:10:42.997Z</time></trkpt><trkpt lat="42.35333120725673" lon="13.410401032638527"><ele>713.0</ele><time>2026-05-03T07:10:43.997Z</time></trkpt><trkpt lat="42.35324729153715" lon="13.410527618825586"><ele>713.0</ele><time>2026-05-03T07:10:44.997Z</time></trkpt><trkpt lat="42.353163951526" lon="13.41065346429601"><ele>713.2</ele><time>2026-05-03T07:10:45.997Z</time></trkpt><trkpt lat="42.35308412366007" lon="13.410765050247806"><ele>713.4</ele><time>2026-05-03T07:10:46.997Z</time></trkpt><trkpt lat="42.35300881634183" lon="13.410874823973545"><ele>713.6</ele><time>2026-05-03T07:10:47.997Z</time></trkpt><trkpt lat="42.35293764391321" lon="13.410989199828412"><ele>713.8000000000001</ele><time>2026-05-03T07:10:48.997Z</time></trkpt><trkpt lat="42.352862573783185" lon="13.41109363664658"><ele>714.0</ele><time>2026-05-03T07:10:49.997Z</time></trkpt><trkpt lat="42.35278656264787" lon="13.411196406434923"><ele>714.0</ele><time>2026-05-03T07:10:50.997Z</time></trkpt><trkpt lat="42.35271279794811" lon="13.411312002041313"><ele>714.0</ele><time>2026-05-03T07:10:51.997Z</time></trkpt><trkpt lat="42.352645747984106" lon="13.411416449254775"><ele>714.0</ele><time>2026-05-03T07:10:52.997Z</time></trkpt><trkpt lat="42.35258171722362" lon="13.411506946549704"><ele>714.0</ele><time>2026-05-03T07:10:53.997Z</time></trkpt><trkpt lat="42.35252027011661" lon="13.411589277535231"><ele>714.0</ele><time>2026-05-03T07:10:54.997Z</time></trkpt><trkpt lat="42.35246684730149" lon="13.411662676098175"><ele>714.1666666666666</ele><time>2026-05-03T07:10:55.997Z</time></trkpt><trkpt lat="42.35242098319498" lon="13.41173066219831"><ele>714.3333333333334</ele><time>2026-05-03T07:10:56.997Z</time></trkpt><trkpt lat="42.35237413853248" lon="13.411799246110691"><ele>714.5</ele><time>2026-05-03T07:10:57.997Z</time></trkpt><trkpt lat="42.35232350311611" lon="13.411881457033621"><ele>714.6666666666667</ele><time>2026-05-03T07:10:58.997Z</time></trkpt><trkpt lat="42.35226627423936" lon="13.411971829489099"><ele>714.8333333333334</ele><time>2026-05-03T07:10:59.996Z</time></trkpt><trkpt lat="42.35219586032391" lon="13.412069386062287"><ele>715.0</ele><time>2026-05-03T07:11:00.996Z</time></trkpt><trkpt lat="42.35212969867892" lon="13.412178832973492"><ele>715.0</ele><time>2026-05-03T07:11:01.996Z</time></trkpt><trkpt lat="42.35206817049513" lon="13.412281875224927"><ele>715.0</ele><time>2026-05-03T07:11:02.996Z</time></trkpt><trkpt lat="42.35202049266483" lon="13.412384883774205"><ele>715.0</ele><time>2026-05-03T07:11:03.996Z</time></trkpt><trkpt lat="42.3519679791618" lon="13.412489618065305"><ele>715.0</ele><time>2026-05-03T07:11:04.996Z</time></trkpt><trkpt lat="42.351935826341574" lon="13.412612366436994"><ele>715.0</ele><time>2026-05-03T07:11:05.996Z</time></trkpt><trkpt lat="42.35197379460246" lon="13.412771422370755"><ele>715.0</ele><time>2026-05-03T07:11:06.996Z</time></trkpt><trkpt lat="42.35200135818128" lon="13.412921925104486"><ele>715.0</ele><time>2026-05-03T07:11:07.996Z</time></trkpt><trkpt lat="42.35206409916014" lon="13.41309195175309"><ele>715.0</ele><time>2026-05-03T07:11:08.996Z</time></trkpt><trkpt lat="42.35212072798823" lon="13.413271083498099"><ele>715.0</ele><time>2026-05-03T07:11:09.996Z</time></trkpt><trkpt lat="42.35218371648596" lon="13.413408281332435"><ele>716.6666666666667</ele><time>2026-05-03T07:11:10.996Z</time></trkpt><trkpt lat="42.35225853365663" lon="13.413561817726798"><ele>718.3333333333334</ele><time>2026-05-03T07:11:11.997Z</time></trkpt><trkpt lat="42.35233770111354" lon="13.413744053751952"><ele>720.0</ele><time>2026-05-03T07:11:12.997Z</time></trkpt><trkpt lat="42.35241417873683" lon="13.413951497533438"><ele>720.0</ele><time>2026-05-03T07:11:13.997Z</time></trkpt><trkpt lat="42.35247095315479" lon="13.414149898264965"><ele>720.0</ele><time>2026-05-03T07:11:14.997Z</time></trkpt><trkpt lat="42.352481782899076" lon="13.414360710915203"><ele>720.0</ele><time>2026-05-03T07:11:15.997Z</time></trkpt><trkpt lat="42.352467597078686" lon="13.41456684866735"><ele>720.3333333333334</ele><time>2026-05-03T07:11:16.997Z</time></trkpt><trkpt lat="42.35243290821163" lon="13.414772448738626"><ele>720.6666666666667</ele><time>2026-05-03T07:11:17.997Z</time></trkpt><trkpt lat="42.3523833012325" lon="13.414982803340344"><ele>721.0</ele><time>2026-05-03T07:11:18.997Z</time></trkpt><trkpt lat="42.352318976561264" lon="13.415179598952605"><ele>721.0</ele><time>2026-05-03T07:11:19.997Z</time></trkpt><trkpt lat="42.35223099877299" lon="13.415382838429888"><ele>721.0</ele><time>2026-05-03T07:11:20.997Z</time></trkpt><trkpt lat="42.35211466898596" lon="13.415564475293118"><ele>721.0</ele><time>2026-05-03T07:11:21.997Z</time></trkpt><trkpt lat="42.352011018451314" lon="13.415765910342893"><ele>721.75</ele><time>2026-05-03T07:11:22.997Z</time></trkpt><trkpt lat="42.3518997223066" lon="13.415942477692669"><ele>722.5</ele><time>2026-05-03T07:11:23.997Z</time></trkpt><trkpt lat="42.35181782588623" lon="13.416108487036393"><ele>723.25</ele><time>2026-05-03T07:11:24.998Z</time></trkpt><trkpt lat="42.35176210863425" lon="13.41626791209697"><ele>724.0</ele><time>2026-05-03T07:11:25.998Z</time></trkpt><trkpt lat="42.35171593788571" lon="13.416457508258969"><ele>724.75</ele><time>2026-05-03T07:11:26.998Z</time></trkpt><trkpt lat="42.35168858432232" lon="13.41665137370932"><ele>725.5</ele><time>2026-05-03T07:11:27.998Z</time></trkpt><trkpt lat="42.35167265553441" lon="13.416843443614063"><ele>726.25</ele><time>2026-05-03T07:11:28.998Z</time></trkpt><trkpt lat="42.35166319361524" lon="13.417035884476324"><ele>727.0</ele><time>2026-05-03T07:11:29.998Z</time></trkpt><trkpt lat="42.3516588426621" lon="13.417216710701174"><ele>727.75</ele><time>2026-05-03T07:11:30.998Z</time></trkpt><trkpt lat="42.35165638205892" lon="13.417398366309309"><ele>728.5</ele><time>2026-05-03T07:11:31.998Z</time></trkpt><trkpt lat="42.35164954794917" lon="13.417576381413543"><ele>729.25</ele><time>2026-05-03T07:11:32.998Z</time></trkpt><trkpt lat="42.3516385545088" lon="13.417747760416477"><ele>730.0</ele><time>2026-05-03T07:11:33.998Z</time></trkpt><trkpt lat="42.35163488275201" lon="13.417911929846882"><ele>730.0</ele><time>2026-05-03T07:11:34.998Z</time></trkpt><trkpt lat="42.35164005703469" lon="13.418062318462688"><ele>730.0</ele><time>2026-05-03T07:11:35.998Z</time></trkpt><trkpt lat="42.351659158244416" lon="13.418203227852343"><ele>730.0</ele><time>2026-05-03T07:11:36.998Z</time></trkpt><trkpt lat="42.35169105232629" lon="13.41832577638962"><ele>730.0</ele><time>2026-05-03T07:11:37.998Z</time></trkpt><trkpt lat="42.35174096358646" lon="13.418440144870164"><ele>730.0</ele><time>2026-05-03T07:11:38.998Z</time></trkpt><trkpt lat="42.35179746242209" lon="13.418531962435159"><ele>730.0</ele><time>2026-05-03T07:11:39.998Z</time></trkpt><trkpt lat="42.35185264326969" lon="13.418613835704546"><ele>730.0</ele><time>2026-05-03T07:11:40.998Z</time></trkpt><trkpt lat="42.351905584320996" lon="13.418690788889442"><ele>730.0</ele><time>2026-05-03T07:11:41.998Z</time></trkpt><trkpt lat="42.35193992646614" lon="13.418767761418444"><ele>730.0</ele><time>2026-05-03T07:11:43.998Z</time></trkpt><trkpt lat="42.35196238308428" lon="13.41890720715528"><ele>730.0</ele><time>2026-05-03T07:11:46.998Z</time></trkpt><trkpt lat="42.35198268377833" lon="13.41899516535283"><ele>730.0</ele><time>2026-05-03T07:11:47.998Z</time></trkpt><trkpt lat="42.3520088467861" lon="13.419076455028156"><ele>730.2</ele><time>2026-05-03T07:11:48.998Z</time></trkpt><trkpt lat="42.35196601668686" lon="13.419154837938677"><ele>730.4</ele><time>2026-05-03T07:11:50.998Z</time></trkpt><trkpt lat="42.35188850915656" lon="13.419111072728517"><ele>730.5999999999999</ele><time>2026-05-03T07:11:51.998Z</time></trkpt><trkpt lat="42.35186546900055" lon="13.419246520666801"><ele>730.8</ele><time>2026-05-03T07:11:53.998Z</time></trkpt><trkpt lat="42.35192993830085" lon="13.419430494071326"><ele>731.0</ele><time>2026-05-03T07:11:55.998Z</time></trkpt><trkpt lat="42.3520004840169" lon="13.419536964357361"><ele>731.4</ele><time>2026-05-03T07:11:56.998Z</time></trkpt><trkpt lat="42.3520756257884" lon="13.41966491587584"><ele>731.8</ele><time>2026-05-03T07:11:57.998Z</time></trkpt><trkpt lat="42.35214242750612" lon="13.419784556062044"><ele>732.1999999999999</ele><time>2026-05-03T07:11:58.998Z</time></trkpt><trkpt lat="42.35219030587428" lon="13.419904328035157"><ele>732.5999999999999</ele><time>2026-05-03T07:11:59.998Z</time></trkpt><trkpt lat="42.35218642598675" lon="13.420046135519925"><ele>733.0</ele><time>2026-05-03T07:12:00.998Z</time></trkpt><trkpt lat="42.35217470445682" lon="13.420194029857173"><ele>733.0</ele><time>2026-05-03T07:12:01.998Z</time></trkpt><trkpt lat="42.35217507805847" lon="13.42035044198177"><ele>733.0</ele><time>2026-05-03T07:12:02.998Z</time></trkpt><trkpt lat="42.35217187145744" lon="13.420512432181544"><ele>733.0</ele><time>2026-05-03T07:12:03.998Z</time></trkpt><trkpt lat="42.35219344045432" lon="13.420684872999493"><ele>733.0</ele><time>2026-05-03T07:12:04.998Z</time></trkpt><trkpt lat="42.35223799675341" lon="13.42083459146279"><ele>735.0</ele><time>2026-05-03T07:12:05.998Z</time></trkpt><trkpt lat="42.35228409267861" lon="13.420978375680555"><ele>737.0</ele><time>2026-05-03T07:12:06.998Z</time></trkpt><trkpt lat="42.35232986763444" lon="13.421123693252602"><ele>739.0</ele><time>2026-05-03T07:12:07.998Z</time></trkpt><trkpt lat="42.35236854788826" lon="13.421278875226953"><ele>741.0</ele><time>2026-05-03T07:12:08.998Z</time></trkpt><trkpt lat="42.35240287367388" lon="13.42144027508792"><ele>741.75</ele><time>2026-05-03T07:12:09.998Z</time></trkpt><trkpt lat="42.35241899152543" lon="13.421608966583676"><ele>742.5</ele><time>2026-05-03T07:12:10.998Z</time></trkpt><trkpt lat="42.35239164018018" lon="13.42176671889395"><ele>743.25</ele><time>2026-05-03T07:12:11.998Z</time></trkpt><trkpt lat="42.352353842192485" lon="13.421908638396747"><ele>744.0</ele><time>2026-05-03T07:12:12.998Z</time></trkpt><trkpt lat="42.35234306580825" lon="13.422043235435694"><ele>742.25</ele><time>2026-05-03T07:12:13.998Z</time></trkpt><trkpt lat="42.35233156134876" lon="13.422180575505324"><ele>740.5</ele><time>2026-05-03T07:12:14.998Z</time></trkpt><trkpt lat="42.35234574404794" lon="13.422346941316716"><ele>738.75</ele><time>2026-05-03T07:12:15.998Z</time></trkpt><trkpt lat="42.35236311013075" lon="13.422538153516527"><ele>737.0</ele><time>2026-05-03T07:12:16.998Z</time></trkpt><trkpt lat="42.352384137663286" lon="13.422740561790118"><ele>737.0</ele><time>2026-05-03T07:12:17.998Z</time></trkpt><trkpt lat="42.35240192382303" lon="13.422953453354436"><ele>737.0</ele><time>2026-05-03T07:12:18.998Z</time></trkpt><trkpt lat="42.35241853170389" lon="13.42314335089432"><ele>737.0</ele><time>2026-05-03T07:12:19.998Z</time></trkpt><trkpt lat="42.35243648421926" lon="13.423328565358428"><ele>737.0</ele><time>2026-05-03T07:12:20.998Z</time></trkpt><trkpt lat="42.352450524581776" lon="13.42351285358469"><ele>734.5</ele><time>2026-05-03T07:12:21.998Z</time></trkpt><trkpt lat="42.35242032498417" lon="13.423696533870014"><ele>732.0</ele><time>2026-05-03T07:12:22.998Z</time></trkpt><trkpt lat="42.35239127094016" lon="13.423871641229239"><ele>729.5</ele><time>2026-05-03T07:12:23.998Z</time></trkpt><trkpt lat="42.352367364162674" lon="13.424059734553035"><ele>727.0</ele><time>2026-05-03T07:12:24.998Z</time></trkpt><trkpt lat="42.35232411613896" lon="13.424253696595269"><ele>725.0</ele><time>2026-05-03T07:12:25.998Z</time></trkpt><trkpt lat="42.35228096398422" lon="13.424463323608121"><ele>723.0</ele><time>2026-05-03T07:12:26.998Z</time></trkpt><trkpt lat="42.35223261065383" lon="13.424669097125081"><ele>721.0</ele><time>2026-05-03T07:12:27.998Z</time></trkpt><trkpt lat="42.352196210130835" lon="13.424857901230816"><ele>720.25</ele><time>2026-05-03T07:12:28.998Z</time></trkpt><trkpt lat="42.352150116960985" lon="13.425039672494032"><ele>719.5</ele><time>2026-05-03T07:12:29.998Z</time></trkpt><trkpt lat="42.35206473024648" lon="13.425177216518843"><ele>718.75</ele><time>2026-05-03T07:12:30.998Z</time></trkpt><trkpt lat="42.3519910172577" lon="13.425317180532838"><ele>718.0</ele><time>2026-05-03T07:12:31.998Z</time></trkpt><trkpt lat="42.35191682751364" lon="13.425480186624128"><ele>718.0</ele><time>2026-05-03T07:12:32.998Z</time></trkpt><trkpt lat="42.351833747837716" lon="13.425628480797155"><ele>718.0</ele><time>2026-05-03T07:12:33.998Z</time></trkpt><trkpt lat="42.35175525856197" lon="13.425790515982335"><ele>718.0</ele><time>2026-05-03T07:12:34.998Z</time></trkpt><trkpt lat="42.35168446668408" lon="13.425947356935257"><ele>718.0</ele><time>2026-05-03T07:12:35.998Z</time></trkpt><trkpt lat="42.35161324037437" lon="13.426105953173556"><ele>718.0</ele><time>2026-05-03T07:12:36.998Z</time></trkpt><trkpt lat="42.351547126198355" lon="13.426258630922007"><ele>718.0</ele><time>2026-05-03T07:12:37.998Z</time></trkpt><trkpt lat="42.35149377371037" lon="13.42640315811027"><ele>718.0</ele><time>2026-05-03T07:12:38.998Z</time></trkpt><trkpt lat="42.35145408701473" lon="13.426556209208838"><ele>718.0</ele><time>2026-05-03T07:12:39.998Z</time></trkpt><trkpt lat="42.35141743570229" lon="13.426726321695275"><ele>720.75</ele><time>2026-05-03T07:12:40.998Z</time></trkpt><trkpt lat="42.35138994580338" lon="13.426903920144264"><ele>723.5</ele><time>2026-05-03T07:12:41.998Z</time></trkpt><trkpt lat="42.351359685194424" lon="13.427076298407416"><ele>726.25</ele><time>2026-05-03T07:12:42.998Z</time></trkpt><trkpt lat="42.35133848277228" lon="13.42724817051975"><ele>729.0</ele><time>2026-05-03T07:12:43.998Z</time></trkpt><trkpt lat="42.35132389936653" lon="13.42740897496413"><ele>730.0</ele><time>2026-05-03T07:12:44.998Z</time></trkpt><trkpt lat="42.351278028881794" lon="13.42754411927715"><ele>731.0</ele><time>2026-05-03T07:12:45.998Z</time></trkpt><trkpt lat="42.3512278907389" lon="13.427637808075042"><ele>732.0</ele><time>2026-05-03T07:12:46.998Z</time></trkpt><trkpt lat="42.35117465731507" lon="13.427730350532826"><ele>733.0</ele><time>2026-05-03T07:12:47.998Z</time></trkpt><trkpt lat="42.351130198948965" lon="13.427807229982008"><ele>734.0</ele><time>2026-05-03T07:12:48.998Z</time></trkpt><trkpt lat="42.35109058699843" lon="13.427875727749367"><ele>735.0</ele><time>2026-05-03T07:12:49.998Z</time></trkpt><trkpt lat="42.35105334354227" lon="13.427964081616746"><ele>734.2</ele><time>2026-05-03T07:12:50.998Z</time></trkpt><trkpt lat="42.35101452351887" lon="13.428068762381649"><ele>733.4</ele><time>2026-05-03T07:12:51.998Z</time></trkpt><trkpt lat="42.350997330479984" lon="13.428195032948645"><ele>732.5999999999999</ele><time>2026-05-03T07:12:52.998Z</time></trkpt><trkpt lat="42.35100554475686" lon="13.42828652843854"><ele>731.8</ele><time>2026-05-03T07:12:54.998Z</time></trkpt><trkpt lat="42.35117657046455" lon="13.42837052300683"><ele>731.0</ele><time>2026-05-03T07:12:58.998Z</time></trkpt><trkpt lat="42.351246536265506" lon="13.428320759318158"><ele>731.0</ele><time>2026-05-03T07:13:00.998Z</time></trkpt><trkpt lat="42.351318097733014" lon="13.428300682349128"><ele>731.0</ele><time>2026-05-03T07:13:01.998Z</time></trkpt><trkpt lat="42.351381985928796" lon="13.428260656722184"><ele>731.0</ele><time>2026-05-03T07:13:02.998Z</time></trkpt><trkpt lat="42.35149768528751" lon="13.428437351486176"><ele>731.0</ele><time>2026-05-03T07:13:03.998Z</time></trkpt><trkpt lat="42.35158461019652" lon="13.428477960397823"><ele>731.0</ele><time>2026-05-03T07:13:04.998Z</time></trkpt><trkpt lat="42.35165921103048" lon="13.428548994062158"><ele>733.0</ele><time>2026-05-03T07:13:05.997Z</time></trkpt><trkpt lat="42.35172689148632" lon="13.428638219036586"><ele>735.0</ele><time>2026-05-03T07:13:06.997Z</time></trkpt><trkpt lat="42.351781617741345" lon="13.428746899239487"><ele>737.0</ele><time>2026-05-03T07:13:07.997Z</time></trkpt><trkpt lat="42.35182550756389" lon="13.428849791444705"><ele>739.0</ele><time>2026-05-03T07:13:08.997Z</time></trkpt><trkpt lat="42.35187482978913" lon="13.428944818307238"><ele>741.0</ele><time>2026-05-03T07:13:10.997Z</time></trkpt><trkpt lat="42.35193490153534" lon="13.429042940351508"><ele>741.25</ele><time>2026-05-03T07:13:12.997Z</time></trkpt><trkpt lat="42.3518432782697" lon="13.429212242641666"><ele>741.5</ele><time>2026-05-03T07:13:13.997Z</time></trkpt><trkpt lat="42.351791565518695" lon="13.429366835679481"><ele>741.75</ele><time>2026-05-03T07:13:14.998Z</time></trkpt><trkpt lat="42.35172772643354" lon="13.429522679251507"><ele>742.0</ele><time>2026-05-03T07:13:15.998Z</time></trkpt><trkpt lat="42.35166857483918" lon="13.429675897986586"><ele>742.4000000000001</ele><time>2026-05-03T07:13:16.998Z</time></trkpt><trkpt lat="42.35160674895218" lon="13.429817197722418"><ele>742.8000000000001</ele><time>2026-05-03T07:13:17.998Z</time></trkpt><trkpt lat="42.35153894701807" lon="13.429943828873181"><ele>743.2</ele><time>2026-05-03T07:13:18.998Z</time></trkpt><trkpt lat="42.351458361804085" lon="13.430031170355539"><ele>743.6</ele><time>2026-05-03T07:13:19.998Z</time></trkpt><trkpt lat="42.351384287150175" lon="13.430095967795062"><ele>744.0</ele><time>2026-05-03T07:13:20.998Z</time></trkpt><trkpt lat="42.35130677588492" lon="13.430102528047984"><ele>741.6</ele><time>2026-05-03T07:13:21.998Z</time></trkpt><trkpt lat="42.35122877124676" lon="13.430054332126083"><ele>739.2</ele><time>2026-05-03T07:13:22.998Z</time></trkpt><trkpt lat="42.35111979207479" lon="13.430042902173513"><ele>736.8000000000001</ele><time>2026-05-03T07:13:23.998Z</time></trkpt><trkpt lat="42.35101371932565" lon="13.429994945393082"><ele>734.4000000000001</ele><time>2026-05-03T07:13:24.998Z</time></trkpt><trkpt lat="42.35090423056764" lon="13.42997037815514"><ele>732.0</ele><time>2026-05-03T07:13:25.998Z</time></trkpt><trkpt lat="42.35079571238504" lon="13.429917908392454"><ele>732.0</ele><time>2026-05-03T07:13:26.998Z</time></trkpt><trkpt lat="42.35069751146938" lon="13.429886973014732"><ele>732.0</ele><time>2026-05-03T07:13:27.998Z</time></trkpt><trkpt lat="42.350587962438574" lon="13.430076163771314"><ele>732.0</ele><time>2026-05-03T07:13:28.998Z</time></trkpt><trkpt lat="42.35049782979262" lon="13.430181728317123"><ele>732.0</ele><time>2026-05-03T07:13:29.998Z</time></trkpt><trkpt lat="42.3504126002777" lon="13.430309656860633"><ele>731.0</ele><time>2026-05-03T07:13:30.998Z</time></trkpt><trkpt lat="42.3503331837675" lon="13.430448880775614"><ele>730.0</ele><time>2026-05-03T07:13:31.999Z</time></trkpt><trkpt lat="42.350254482243194" lon="13.43059724667006"><ele>729.0</ele><time>2026-05-03T07:13:32.999Z</time></trkpt><trkpt lat="42.35015944757157" lon="13.430721281779931"><ele>728.0</ele><time>2026-05-03T07:13:33.999Z</time></trkpt><trkpt lat="42.350081809748815" lon="13.430863960138055"><ele>728.0</ele><time>2026-05-03T07:13:34.999Z</time></trkpt><trkpt lat="42.34998092541775" lon="13.43093356147005"><ele>728.0</ele><time>2026-05-03T07:13:35.999Z</time></trkpt><trkpt lat="42.3498883802512" lon="13.430992633083747"><ele>728.0</ele><time>2026-05-03T07:13:36.999Z</time></trkpt><trkpt lat="42.34978034506065" lon="13.431040587234435"><ele>728.0</ele><time>2026-05-03T07:13:37.999Z</time></trkpt><trkpt lat="42.349664257918405" lon="13.431056891167351"><ele>728.0</ele><time>2026-05-03T07:13:38.999Z</time></trkpt><trkpt lat="42.34954206495457" lon="13.43105804934361"><ele>726.5999999999999</ele><time>2026-05-03T07:13:39.999Z</time></trkpt><trkpt lat="42.34942172593347" lon="13.430990912732272"><ele>725.1999999999999</ele><time>2026-05-03T07:13:40.999Z</time></trkpt><trkpt lat="42.34930978189797" lon="13.430980323617003"><ele>723.8</ele><time>2026-05-03T07:13:41.999Z</time></trkpt><trkpt lat="42.34922100692093" lon="13.431026390127485"><ele>722.4</ele><time>2026-05-03T07:13:42.999Z</time></trkpt><trkpt lat="42.34913143579449" lon="13.431066117683436"><ele>721.0</ele><time>2026-05-03T07:13:43.999Z</time></trkpt><trkpt lat="42.34904149572523" lon="13.431116980525095"><ele>721.0</ele><time>2026-05-03T07:13:44.999Z</time></trkpt><trkpt lat="42.3489275455496" lon="13.431163998188683"><ele>721.0</ele><time>2026-05-03T07:13:45.999Z</time></trkpt><trkpt lat="42.348829628840384" lon="13.431212826986533"><ele>721.0</ele><time>2026-05-03T07:13:46.999Z</time></trkpt><trkpt lat="42.34872177988378" lon="13.431288624414856"><ele>721.0</ele><time>2026-05-03T07:13:47.999Z</time></trkpt><trkpt lat="42.34863624884623" lon="13.431363866237655"><ele>721.0</ele><time>2026-05-03T07:13:48.999Z</time></trkpt><trkpt lat="42.34854528700139" lon="13.431436330424052"><ele>721.0</ele><time>2026-05-03T07:13:49.999Z</time></trkpt><trkpt lat="42.348446672518016" lon="13.431496181723809"><ele>721.0</ele><time>2026-05-03T07:13:50.999Z</time></trkpt><trkpt lat="42.34833597366001" lon="13.431552754183976"><ele>721.0</ele><time>2026-05-03T07:13:51.999Z</time></trkpt><trkpt lat="42.348222802320045" lon="13.431601240121006"><ele>721.0</ele><time>2026-05-03T07:13:52.999Z</time></trkpt><trkpt lat="42.34812634436859" lon="13.431632069808277"><ele>721.0</ele><time>2026-05-03T07:13:53.999Z</time></trkpt><trkpt lat="42.3480390771587" lon="13.431645916969066"><ele>719.0</ele><time>2026-05-03T07:13:54.999Z</time></trkpt><trkpt lat="42.34796290208567" lon="13.431674727688025"><ele>717.0</ele><time>2026-05-03T07:13:55.999Z</time></trkpt><trkpt lat="42.347899597978426" lon="13.431704019387281"><ele>715.0</ele><time>2026-05-03T07:13:56.999Z</time></trkpt><trkpt lat="42.34777310168458" lon="13.431796048784971"><ele>713.0</ele><time>2026-05-03T07:14:05.999Z</time></trkpt><trkpt lat="42.34763289528666" lon="13.431883182109619"><ele>711.0</ele><time>2026-05-03T07:14:06.999Z</time></trkpt><trkpt lat="42.34746185035665" lon="13.431984460100477"><ele>711.0</ele><time>2026-05-03T07:14:07.999Z</time></trkpt><trkpt lat="42.34726340032673" lon="13.432101557381205"><ele>711.0</ele><time>2026-05-03T07:14:08.999Z</time></trkpt><trkpt lat="42.347057814321694" lon="13.432208033846367"><ele>711.0</ele><time>2026-05-03T07:14:09.999Z</time></trkpt><trkpt lat="42.34687655952751" lon="13.432324798215724"><ele>711.6666666666666</ele><time>2026-05-03T07:14:10.999Z</time></trkpt><trkpt lat="42.34671363265755" lon="13.432439354192645"><ele>712.3333333333333</ele><time>2026-05-03T07:14:11.999Z</time></trkpt><trkpt lat="42.346578936473534" lon="13.43257667882895"><ele>713.0</ele><time>2026-05-03T07:14:12.999Z</time></trkpt><trkpt lat="42.34645058578603" lon="13.43272030645757"><ele>713.2</ele><time>2026-05-03T07:14:13.999Z</time></trkpt><trkpt lat="42.34634737626848" lon="13.432827667275374"><ele>713.4</ele><time>2026-05-03T07:14:14.999Z</time></trkpt><trkpt lat="42.346256899041904" lon="13.43290884581205"><ele>713.6</ele><time>2026-05-03T07:14:15.999Z</time></trkpt><trkpt lat="42.346185191492516" lon="13.432957013433574"><ele>713.8000000000001</ele><time>2026-05-03T07:14:16.999Z</time></trkpt><trkpt lat="42.34611793869669" lon="13.432993249989305"><ele>714.0</ele><time>2026-05-03T07:14:17.999Z</time></trkpt><trkpt lat="42.346052387626735" lon="13.433032084038365"><ele>714.0</ele><time>2026-05-03T07:14:18.999Z</time></trkpt><trkpt lat="42.3459862900081" lon="13.433076006147326"><ele>714.0</ele><time>2026-05-03T07:14:19.999Z</time></trkpt><trkpt lat="42.34591663729438" lon="13.433098037155196"><ele>714.0</ele><time>2026-05-03T07:14:20.999Z</time></trkpt><trkpt lat="42.34582443218728" lon="13.433150571858897"><ele>714.0</ele><time>2026-05-03T07:14:22.999Z</time></trkpt><trkpt lat="42.345757781028034" lon="13.433186448284681"><ele>714.0</ele><time>2026-05-03T07:14:25.999Z</time></trkpt><trkpt lat="42.34565620314144" lon="13.433229871473662"><ele>714.0</ele><time>2026-05-03T07:14:28.999Z</time></trkpt><trkpt lat="42.3455807994229" lon="13.433241991665799"><ele>709.6666666666666</ele><time>2026-05-03T07:14:30.999Z</time></trkpt><trkpt lat="42.34551669127725" lon="13.433236351035374"><ele>705.3333333333333</ele><time>2026-05-03T07:14:32.999Z</time></trkpt><trkpt lat="42.34537990619985" lon="13.433214162204667"><ele>701.0</ele><time>2026-05-03T07:14:35.999Z</time></trkpt><trkpt lat="42.34525145105021" lon="13.433715450177429"><ele>701.0</ele><time>2026-05-03T07:14:37.999Z</time></trkpt><trkpt lat="42.3451986231678" lon="13.433790771793756"><ele>701.0</ele><time>2026-05-03T07:14:38.999Z</time></trkpt><trkpt lat="42.34514306297314" lon="13.433876821355224"><ele>701.0</ele><time>2026-05-03T07:14:39.999Z</time></trkpt><trkpt lat="42.34508805958261" lon="13.433980694132163"><ele>701.0</ele><time>2026-05-03T07:14:40.999Z</time></trkpt><trkpt lat="42.34503192896174" lon="13.434102686497017"><ele>701.0</ele><time>2026-05-03T07:14:41.999Z</time></trkpt><trkpt lat="42.34497488404264" lon="13.434224259991767"><ele>702.1999999999999</ele><time>2026-05-03T07:14:42.999Z</time></trkpt><trkpt lat="42.344914250249495" lon="13.434362394910488"><ele>703.4</ele><time>2026-05-03T07:14:43.999Z</time></trkpt><trkpt lat="42.344858368374496" lon="13.434475862073036"><ele>704.6</ele><time>2026-05-03T07:14:44.999Z</time></trkpt><trkpt lat="42.34480612928439" lon="13.43457781789402"><ele>705.8</ele><time>2026-05-03T07:14:45.999Z</time></trkpt><trkpt lat="42.344762048416214" lon="13.434684834128475"><ele>707.0</ele><time>2026-05-03T07:14:46.999Z</time></trkpt><trkpt lat="42.34472399746426" lon="13.434772523150423"><ele>704.8333333333333</ele><time>2026-05-03T07:14:47.999Z</time></trkpt><trkpt lat="42.344686081317775" lon="13.43486186996044"><ele>702.6666666666666</ele><time>2026-05-03T07:14:48.999Z</time></trkpt><trkpt lat="42.344647495546674" lon="13.434959797620058"><ele>700.5</ele><time>2026-05-03T07:14:49.999Z</time></trkpt><trkpt lat="42.34461330498979" lon="13.435061461399329"><ele>698.3333333333334</ele><time>2026-05-03T07:14:50.999Z</time></trkpt><trkpt lat="42.34457404810646" lon="13.435160900507155"><ele>696.1666666666667</ele><time>2026-05-03T07:14:51.999Z</time></trkpt><trkpt lat="42.34453715283507" lon="13.435267062546307"><ele>694.0</ele><time>2026-05-03T07:14:52.999Z</time></trkpt><trkpt lat="42.34449840860514" lon="13.43536239054165"><ele>694.0</ele><time>2026-05-03T07:14:53.999Z</time></trkpt><trkpt lat="42.3444588227136" lon="13.435462354047688"><ele>694.0</ele><time>2026-05-03T07:14:54.999Z</time></trkpt><trkpt lat="42.34441565054373" lon="13.435578338494471"><ele>694.0</ele><time>2026-05-03T07:14:55.999Z</time></trkpt><trkpt lat="42.34436930259609" lon="13.435676253287122"><ele>694.0</ele><time>2026-05-03T07:14:56.999Z</time></trkpt><trkpt lat="42.34431801899431" lon="13.43578670481705"><ele>694.0</ele><time>2026-05-03T07:14:57.999Z</time></trkpt><trkpt lat="42.34427063551979" lon="13.435886899649494"><ele>694.3333333333334</ele><time>2026-05-03T07:14:58.999Z</time></trkpt><trkpt lat="42.34425760645299" lon="13.435976479614931"><ele>694.6666666666667</ele><time>2026-05-03T07:14:59.999Z</time></trkpt><trkpt lat="42.3442580445463" lon="13.43608072591958"><ele>695.0</ele><time>2026-05-03T07:15:00.999Z</time></trkpt><trkpt lat="42.344263209969334" lon="13.436182369577038"><ele>695.3333333333334</ele><time>2026-05-03T07:15:01.999Z</time></trkpt><trkpt lat="42.34425190756103" lon="13.43627494411993"><ele>695.6666666666666</ele><time>2026-05-03T07:15:02.999Z</time></trkpt><trkpt lat="42.34423015969384" lon="13.436409969626096"><ele>696.0</ele><time>2026-05-03T07:15:04.999Z</time></trkpt><trkpt lat="42.34422277189206" lon="13.43649487202048"><ele>696.0</ele><time>2026-05-03T07:15:06.999Z</time></trkpt><trkpt lat="42.344221288448445" lon="13.436626350654342"><ele>696.0</ele><time>2026-05-03T07:15:08.999Z</time></trkpt><trkpt lat="42.34421494452062" lon="13.436731977766465"><ele>696.0</ele><time>2026-05-03T07:15:09.999Z</time></trkpt><trkpt lat="42.344205811454565" lon="13.436839833440747"><ele>696.0</ele><time>2026-05-03T07:15:10.999Z</time></trkpt><trkpt lat="42.34419287699454" lon="13.43693552395686"><ele>696.0</ele><time>2026-05-03T07:15:11.999Z</time></trkpt><trkpt lat="42.34416773196224" lon="13.437028292833372"><ele>696.0</ele><time>2026-05-03T07:15:12.999Z</time></trkpt><trkpt lat="42.34412502115809" lon="13.43712613089606"><ele>697.0</ele><time>2026-05-03T07:15:13.999Z</time></trkpt><trkpt lat="42.34408620589442" lon="13.437230242474552"><ele>698.0</ele><time>2026-05-03T07:15:14.999Z</time></trkpt><trkpt lat="42.34406278592372" lon="13.437321796366973"><ele>699.0</ele><time>2026-05-03T07:15:15.999Z</time></trkpt><trkpt lat="42.34405366857026" lon="13.437412471625864"><ele>700.0</ele><time>2026-05-03T07:15:16.999Z</time></trkpt><trkpt lat="42.3440564357478" lon="13.43750971041424"><ele>701.0</ele><time>2026-05-03T07:15:17.999Z</time></trkpt><trkpt lat="42.344054168559936" lon="13.437608021026458"><ele>702.0</ele><time>2026-05-03T07:15:18.999Z</time></trkpt><trkpt lat="42.34403309127899" lon="13.43771026453128"><ele>703.0</ele><time>2026-05-03T07:15:19.999Z</time></trkpt><trkpt lat="42.344006651483504" lon="13.437813421463058"><ele>703.0</ele><time>2026-05-03T07:15:20.999Z</time></trkpt><trkpt lat="42.34398946210267" lon="13.437918980216226"><ele>703.0</ele><time>2026-05-03T07:15:21.999Z</time></trkpt><trkpt lat="42.34398191748344" lon="13.438024243374356"><ele>703.0</ele><time>2026-05-03T07:15:22.999Z</time></trkpt><trkpt lat="42.34397319508014" lon="13.438125982460523"><ele>703.0</ele><time>2026-05-03T07:15:23.999Z</time></trkpt><trkpt lat="42.34394887828758" lon="13.438237563245501"><ele>703.0</ele><time>2026-05-03T07:15:24.999Z</time></trkpt><trkpt lat="42.34393114594169" lon="13.438335344952122"><ele>703.0</ele><time>2026-05-03T07:15:26Z</time></trkpt><trkpt lat="42.343916706354904" lon="13.438431074835313"><ele>701.8333333333334</ele><time>2026-05-03T07:15:27Z</time></trkpt><trkpt lat="42.343893105398585" lon="13.438601084287686"><ele>700.6666666666667</ele><time>2026-05-03T07:15:29Z</time></trkpt><trkpt lat="42.34386663336548" lon="13.438681953362911"><ele>699.5</ele><time>2026-05-03T07:15:30Z</time></trkpt><trkpt lat="42.34383835684116" lon="13.43876284737538"><ele>698.3333333333334</ele><time>2026-05-03T07:15:31Z</time></trkpt><trkpt lat="42.343795434545335" lon="13.438848273012283"><ele>697.1666666666666</ele><time>2026-05-03T07:15:32Z</time></trkpt><trkpt lat="42.34374864365181" lon="13.438942989325975"><ele>696.0</ele><time>2026-05-03T07:15:33Z</time></trkpt><trkpt lat="42.34368944728335" lon="13.439000525493354"><ele>696.0</ele><time>2026-05-03T07:15:34Z</time></trkpt><trkpt lat="42.343621794100734" lon="13.43905293702555"><ele>696.0</ele><time>2026-05-03T07:15:35Z</time></trkpt><trkpt lat="42.343542177326" lon="13.439100360398358"><ele>696.0</ele><time>2026-05-03T07:15:36Z</time></trkpt><trkpt lat="42.343461986584096" lon="13.439174911631536"><ele>696.0</ele><time>2026-05-03T07:15:37Z</time></trkpt><trkpt lat="42.343383776935944" lon="13.439276526586418"><ele>696.0</ele><time>2026-05-03T07:15:38Z</time></trkpt><trkpt lat="42.343308705684215" lon="13.439379380790326"><ele>696.0</ele><time>2026-05-03T07:15:39Z</time></trkpt><trkpt lat="42.343257021585664" lon="13.439463550092716"><ele>696.0</ele><time>2026-05-03T07:15:40Z</time></trkpt><trkpt lat="42.343171504217025" lon="13.439563212405744"><ele>696.0</ele><time>2026-05-03T07:15:42Z</time></trkpt><trkpt lat="42.34309763744168" lon="13.439671014408832"><ele>696.0</ele><time>2026-05-03T07:15:44Z</time></trkpt><trkpt lat="42.34299887759853" lon="13.43979507695455"><ele>696.0</ele><time>2026-05-03T07:15:46Z</time></trkpt><trkpt lat="42.34293455324997" lon="13.43984744288"><ele>695.6666666666666</ele><time>2026-05-03T07:15:47Z</time></trkpt><trkpt lat="42.342866060561164" lon="13.439885641552888"><ele>695.3333333333334</ele><time>2026-05-03T07:15:48Z</time></trkpt><trkpt lat="42.34278744165684" lon="13.43991136422764"><ele>695.0</ele><time>2026-05-03T07:15:49Z</time></trkpt><trkpt lat="42.3427164031737" lon="13.439927438335591"><ele>694.6666666666667</ele><time>2026-05-03T07:15:50Z</time></trkpt><trkpt lat="42.34264474073309" lon="13.439921247041912"><ele>694.3333333333334</ele><time>2026-05-03T07:15:51Z</time></trkpt><trkpt lat="42.3425805583632" lon="13.439905531188067"><ele>694.0</ele><time>2026-05-03T07:15:52Z</time></trkpt><trkpt lat="42.34244480234151" lon="13.439882214603534"><ele>694.0</ele><time>2026-05-03T07:15:54Z</time></trkpt><trkpt lat="42.34237329369135" lon="13.439889509106672"><ele>694.0</ele><time>2026-05-03T07:15:55Z</time></trkpt><trkpt lat="42.3423054820113" lon="13.439912319878772"><ele>694.0</ele><time>2026-05-03T07:15:56Z</time></trkpt><trkpt lat="42.34220590114874" lon="13.439998930192296"><ele>694.0</ele><time>2026-05-03T07:15:58Z</time></trkpt><trkpt lat="42.34210139099725" lon="13.440074174609732"><ele>694.0</ele><time>2026-05-03T07:16:00Z</time></trkpt><trkpt lat="42.34198354833414" lon="13.440099845482148"><ele>692.0</ele><time>2026-05-03T07:16:02Z</time></trkpt><trkpt lat="42.341880906989566" lon="13.440122631759067"><ele>690.0</ele><time>2026-05-03T07:16:04Z</time></trkpt><trkpt lat="42.341804101508565" lon="13.44015811359703"><ele>688.0</ele><time>2026-05-03T07:16:06Z</time></trkpt><trkpt lat="42.34168770030508" lon="13.440210159984593"><ele>686.0</ele><time>2026-05-03T07:16:08Z</time></trkpt><trkpt lat="42.34158685021913" lon="13.440213130862729"><ele>684.0</ele><time>2026-05-03T07:16:10Z</time></trkpt><trkpt lat="42.34148652258386" lon="13.440220719301534"><ele>681.8000000000001</ele><time>2026-05-03T07:16:12Z</time></trkpt><trkpt lat="42.34137243678095" lon="13.440217441150622"><ele>679.6</ele><time>2026-05-03T07:16:14Z</time></trkpt><trkpt lat="42.341249045954456" lon="13.440193045827444"><ele>677.4</ele><time>2026-05-03T07:16:16Z</time></trkpt><trkpt lat="42.34116812444733" lon="13.440203023151694"><ele>675.2</ele><time>2026-05-03T07:16:18Z</time></trkpt><trkpt lat="42.34110468533577" lon="13.44023658008485"><ele>673.0</ele><time>2026-05-03T07:16:20Z</time></trkpt><trkpt lat="42.34102640432803" lon="13.440257981612797"><ele>673.0</ele><time>2026-05-03T07:16:22Z</time></trkpt><trkpt lat="42.340925553560005" lon="13.440320976898168"><ele>673.0</ele><time>2026-05-03T07:16:24Z</time></trkpt><trkpt lat="42.3408442139981" lon="13.44036072266967"><ele>673.0</ele><time>2026-05-03T07:16:26Z</time></trkpt><trkpt lat="42.340753807795984" lon="13.440415789536965"><ele>673.0</ele><time>2026-05-03T07:16:28Z</time></trkpt><trkpt lat="42.34069053551827" lon="13.440445865467069"><ele>673.0</ele><time>2026-05-03T07:16:30Z</time></trkpt><trkpt lat="42.34058116266985" lon="13.440486205940564"><ele>671.0</ele><time>2026-05-03T07:16:32Z</time></trkpt><trkpt lat="42.34050702415009" lon="13.44052641295072"><ele>669.0</ele><time>2026-05-03T07:16:34Z</time></trkpt><trkpt lat="42.34041029191169" lon="13.440604137250013"><ele>667.0</ele><time>2026-05-03T07:16:36Z</time></trkpt><trkpt lat="42.3403518199628" lon="13.440716556797456"><ele>665.0</ele><time>2026-05-03T07:16:38Z</time></trkpt><trkpt lat="42.34032899315533" lon="13.440805094260178"><ele>663.0</ele><time>2026-05-03T07:16:39Z</time></trkpt><trkpt lat="42.34031075853081" lon="13.44090102338208"><ele>661.0</ele><time>2026-05-03T07:16:40Z</time></trkpt><trkpt lat="42.34028205472294" lon="13.44100574032353"><ele>661.0</ele><time>2026-05-03T07:16:41Z</time></trkpt><trkpt lat="42.340263966580885" lon="13.44109260455579"><ele>661.0</ele><time>2026-05-03T07:16:42Z</time></trkpt><trkpt lat="42.34024725669183" lon="13.441239704516546"><ele>661.0</ele><time>2026-05-03T07:16:44Z</time></trkpt><trkpt lat="42.340237687922475" lon="13.4413436048094"><ele>661.0</ele><time>2026-05-03T07:16:45Z</time></trkpt><trkpt lat="42.340220193329074" lon="13.44143751747668"><ele>661.0</ele><time>2026-05-03T07:16:46Z</time></trkpt><trkpt lat="42.34019168735457" lon="13.441551354869564"><ele>661.0</ele><time>2026-05-03T07:16:47Z</time></trkpt><trkpt lat="42.34016855136103" lon="13.441656452493946"><ele>659.75</ele><time>2026-05-03T07:16:48Z</time></trkpt><trkpt lat="42.3401368348463" lon="13.441772244919902"><ele>658.5</ele><time>2026-05-03T07:16:49Z</time></trkpt><trkpt lat="42.340087288226705" lon="13.441946803716666"><ele>657.25</ele><time>2026-05-03T07:16:50Z</time></trkpt><trkpt lat="42.34003044137109" lon="13.442129066069484"><ele>656.0</ele><time>2026-05-03T07:16:51Z</time></trkpt><trkpt lat="42.33999363647199" lon="13.44227354615801"><ele>655.4</ele><time>2026-05-03T07:16:52Z</time></trkpt><trkpt lat="42.33996226946777" lon="13.442397525238867"><ele>654.8</ele><time>2026-05-03T07:16:53Z</time></trkpt><trkpt lat="42.33993231321755" lon="13.44253253815377"><ele>654.1999999999999</ele><time>2026-05-03T07:16:54Z</time></trkpt><trkpt lat="42.33989948281511" lon="13.442676983085128"><ele>653.5999999999999</ele><time>2026-05-03T07:16:55Z</time></trkpt><trkpt lat="42.33986891127659" lon="13.442830031250868"><ele>653.0</ele><time>2026-05-03T07:16:56Z</time></trkpt><trkpt lat="42.339841007025974" lon="13.442980028952284"><ele>653.0</ele><time>2026-05-03T07:16:57Z</time></trkpt><trkpt lat="42.33980484410073" lon="13.443116586119793"><ele>653.0</ele><time>2026-05-03T07:16:58Z</time></trkpt><trkpt lat="42.33974791421323" lon="13.44325086504494"><ele>653.0</ele><time>2026-05-03T07:16:59Z</time></trkpt><trkpt lat="42.33969837180722" lon="13.443371901028861"><ele>653.0</ele><time>2026-05-03T07:17:00Z</time></trkpt><trkpt lat="42.33962766100043" lon="13.443478543078639"><ele>653.0</ele><time>2026-05-03T07:17:01Z</time></trkpt><trkpt lat="42.33953832356013" lon="13.44356258929936"><ele>653.0</ele><time>2026-05-03T07:17:02Z</time></trkpt><trkpt lat="42.3394459976078" lon="13.443654389126976"><ele>653.0</ele><time>2026-05-03T07:17:03Z</time></trkpt><trkpt lat="42.339342294876715" lon="13.443756730877334"><ele>653.0</ele><time>2026-05-03T07:17:04Z</time></trkpt><trkpt lat="42.339232852110186" lon="13.443892011100555"><ele>653.0</ele><time>2026-05-03T07:17:05Z</time></trkpt><trkpt lat="42.339135743438455" lon="13.444008788791571"><ele>653.0</ele><time>2026-05-03T07:17:06Z</time></trkpt><trkpt lat="42.33907365250469" lon="13.444125051262537"><ele>653.0</ele><time>2026-05-03T07:17:07Z</time></trkpt><trkpt lat="42.33902983796589" lon="13.444228003307241"><ele>653.0</ele><time>2026-05-03T07:17:08Z</time></trkpt><trkpt lat="42.33900812462561" lon="13.444332848812481"><ele>653.0</ele><time>2026-05-03T07:17:09Z</time></trkpt><trkpt lat="42.33899949780166" lon="13.444454642927917"><ele>653.0</ele><time>2026-05-03T07:17:10Z</time></trkpt><trkpt lat="42.33900725410393" lon="13.444592394046273"><ele>652.75</ele><time>2026-05-03T07:17:11Z</time></trkpt><trkpt lat="42.33902350750477" lon="13.444756899284796"><ele>652.5</ele><time>2026-05-03T07:17:12Z</time></trkpt><trkpt lat="42.339022601336765" lon="13.444916410815074"><ele>652.25</ele><time>2026-05-03T07:17:13Z</time></trkpt><trkpt lat="42.33899794528051" lon="13.445099789937046"><ele>652.0</ele><time>2026-05-03T07:17:14Z</time></trkpt><trkpt lat="42.338958390369214" lon="13.44531408715109"><ele>653.6666666666667</ele><time>2026-05-03T07:17:15Z</time></trkpt><trkpt lat="42.33891064635301" lon="13.445561267768248"><ele>655.3333333333334</ele><time>2026-05-03T07:17:16Z</time></trkpt><trkpt lat="42.33886960182195" lon="13.445776331609958"><ele>657.0</ele><time>2026-05-03T07:17:17Z</time></trkpt><trkpt lat="42.33881171689712" lon="13.445977186312918"><ele>651.3333333333334</ele><time>2026-05-03T07:17:18Z</time></trkpt><trkpt lat="42.33873500194924" lon="13.446151257650897"><ele>645.6666666666667</ele><time>2026-05-03T07:17:19Z</time></trkpt><trkpt lat="42.33864115442363" lon="13.446348142478843"><ele>640.0</ele><time>2026-05-03T07:17:20Z</time></trkpt><trkpt lat="42.338554332299765" lon="13.44655708497374"><ele>640.0</ele><time>2026-05-03T07:17:21Z</time></trkpt><trkpt lat="42.33848439851261" lon="13.44677913319839"><ele>640.0</ele><time>2026-05-03T07:17:22Z</time></trkpt><trkpt lat="42.33842392164167" lon="13.446994654903499"><ele>640.0</ele><time>2026-05-03T07:17:23Z</time></trkpt><trkpt lat="42.33836344594937" lon="13.447223448718107"><ele>640.3333333333334</ele><time>2026-05-03T07:17:24Z</time></trkpt><trkpt lat="42.33828353042616" lon="13.447441435625025"><ele>640.6666666666666</ele><time>2026-05-03T07:17:25Z</time></trkpt><trkpt lat="42.3382281431537" lon="13.44770253355459"><ele>641.0</ele><time>2026-05-03T07:17:26Z</time></trkpt><trkpt lat="42.338166264846286" lon="13.447925651632739"><ele>641.0</ele><time>2026-05-03T07:17:27Z</time></trkpt><trkpt lat="42.338098532009326" lon="13.448135433816095"><ele>641.0</ele><time>2026-05-03T07:17:28Z</time></trkpt><trkpt lat="42.33804037250174" lon="13.448333156847395"><ele>641.0</ele><time>2026-05-03T07:17:29Z</time></trkpt><trkpt lat="42.33798456808188" lon="13.448534359398604"><ele>635.6666666666666</ele><time>2026-05-03T07:17:30Z</time></trkpt><trkpt lat="42.33793008137713" lon="13.448719052418976"><ele>630.3333333333334</ele><time>2026-05-03T07:17:31Z</time></trkpt><trkpt lat="42.33787280427242" lon="13.448916979554134"><ele>625.0</ele><time>2026-05-03T07:17:32Z</time></trkpt><trkpt lat="42.33781767926172" lon="13.449125754459894"><ele>625.0</ele><time>2026-05-03T07:17:33Z</time></trkpt><trkpt lat="42.337768657246876" lon="13.449325435561015"><ele>625.0</ele><time>2026-05-03T07:17:34Z</time></trkpt><trkpt lat="42.337744895221874" lon="13.449485848471898"><ele>625.0</ele><time>2026-05-03T07:17:35Z</time></trkpt><trkpt lat="42.33774125511062" lon="13.449645151468337"><ele>625.0</ele><time>2026-05-03T07:17:36Z</time></trkpt><trkpt lat="42.337760254318226" lon="13.449812941108316"><ele>624.75</ele><time>2026-05-03T07:17:37Z</time></trkpt><trkpt lat="42.33779156458798" lon="13.449999167304593"><ele>624.5</ele><time>2026-05-03T07:17:38Z</time></trkpt><trkpt lat="42.33781517742879" lon="13.450189314513818"><ele>624.25</ele><time>2026-05-03T07:17:39Z</time></trkpt><trkpt lat="42.33783613633391" lon="13.450395533405212"><ele>624.0</ele><time>2026-05-03T07:17:40Z</time></trkpt><trkpt lat="42.33783416904148" lon="13.450608123479414"><ele>623.5</ele><time>2026-05-03T07:17:41Z</time></trkpt><trkpt lat="42.33784204010745" lon="13.450809866413698"><ele>623.0</ele><time>2026-05-03T07:17:42Z</time></trkpt><trkpt lat="42.33785920875565" lon="13.450986659051216"><ele>622.5</ele><time>2026-05-03T07:17:43Z</time></trkpt><trkpt lat="42.33786337716903" lon="13.45114530774938"><ele>622.0</ele><time>2026-05-03T07:17:44Z</time></trkpt><trkpt lat="42.33786437894318" lon="13.451306424910204"><ele>621.5</ele><time>2026-05-03T07:17:45Z</time></trkpt><trkpt lat="42.337879042367845" lon="13.45149326218967"><ele>621.0</ele><time>2026-05-03T07:17:46Z</time></trkpt><trkpt lat="42.3378967753755" lon="13.451661645371194"><ele>620.5</ele><time>2026-05-03T07:17:47Z</time></trkpt><trkpt lat="42.33790307827625" lon="13.451821470227733"><ele>620.0</ele><time>2026-05-03T07:17:48Z</time></trkpt><trkpt lat="42.33791146055714" lon="13.451974666147914"><ele>619.2</ele><time>2026-05-03T07:17:49Z</time></trkpt><trkpt lat="42.33791289499863" lon="13.452138557084838"><ele>618.4</ele><time>2026-05-03T07:17:50Z</time></trkpt><trkpt lat="42.337918909134466" lon="13.452291376569287"><ele>617.6</ele><time>2026-05-03T07:17:51Z</time></trkpt><trkpt lat="42.33792948513863" lon="13.452445397622542"><ele>616.8</ele><time>2026-05-03T07:17:52Z</time></trkpt><trkpt lat="42.33791858810998" lon="13.452578384901466"><ele>616.0</ele><time>2026-05-03T07:17:53Z</time></trkpt><trkpt lat="42.33792505098341" lon="13.452697206332036"><ele>616.0</ele><time>2026-05-03T07:17:54Z</time></trkpt><trkpt lat="42.33793524298336" lon="13.452792720381137"><ele>616.0</ele><time>2026-05-03T07:17:55Z</time></trkpt><trkpt lat="42.33795320225493" lon="13.452901304554937"><ele>616.0</ele><time>2026-05-03T07:17:57Z</time></trkpt><trkpt lat="42.33794903129464" lon="13.453011777468765"><ele>616.0</ele><time>2026-05-03T07:18:00Z</time></trkpt><trkpt lat="42.33795484492782" lon="13.453112186177936"><ele>616.0</ele><time>2026-05-03T07:18:01Z</time></trkpt><trkpt lat="42.33795983557122" lon="13.453198380864137"><ele>616.0</ele><time>2026-05-03T07:18:02Z</time></trkpt><trkpt lat="42.33813596959481" lon="13.45327665610198"><ele>617.8333333333334</ele><time>2026-05-03T07:18:03Z</time></trkpt><trkpt lat="42.3381478432113" lon="13.453415013128755"><ele>619.6666666666667</ele><time>2026-05-03T07:18:04Z</time></trkpt><trkpt lat="42.33814080075801" lon="13.453540541690346"><ele>621.5</ele><time>2026-05-03T07:18:05Z</time></trkpt><trkpt lat="42.338168923296834" lon="13.453617981451586"><ele>623.3333333333334</ele><time>2026-05-03T07:18:06Z</time></trkpt><trkpt lat="42.33819065188683" lon="13.453708314493015"><ele>625.1666666666666</ele><time>2026-05-03T07:18:07Z</time></trkpt><trkpt lat="42.33822749056504" lon="13.453799343089567"><ele>627.0</ele><time>2026-05-03T07:18:08Z</time></trkpt><trkpt lat="42.33823958099569" lon="13.453930063352269"><ele>627.0</ele><time>2026-05-03T07:18:09Z</time></trkpt><trkpt lat="42.338254407895235" lon="13.454069863408233"><ele>627.0</ele><time>2026-05-03T07:18:10Z</time></trkpt><trkpt lat="42.338144606651234" lon="13.454231159648323"><ele>627.0</ele><time>2026-05-03T07:18:11Z</time></trkpt><trkpt lat="42.33811917089376" lon="13.454368932253892"><ele>627.0</ele><time>2026-05-03T07:18:12Z</time></trkpt><trkpt lat="42.33809856189886" lon="13.454511165710958"><ele>625.8000000000001</ele><time>2026-05-03T07:18:13Z</time></trkpt><trkpt lat="42.33808696553307" lon="13.45464304913902"><ele>624.6</ele><time>2026-05-03T07:18:14Z</time></trkpt><trkpt lat="42.33808838701044" lon="13.454771807154147"><ele>623.4000000000001</ele><time>2026-05-03T07:18:15Z</time></trkpt><trkpt lat="42.33810177272414" lon="13.454913111132191"><ele>622.2</ele><time>2026-05-03T07:18:16Z</time></trkpt><trkpt lat="42.33814217298308" lon="13.455081657169941"><ele>621.0</ele><time>2026-05-03T07:18:17Z</time></trkpt><trkpt lat="42.338187917372245" lon="13.455236271456442"><ele>621.0</ele><time>2026-05-03T07:18:18Z</time></trkpt><trkpt lat="42.338221255236014" lon="13.455363403117383"><ele>621.0</ele><time>2026-05-03T07:18:19Z</time></trkpt><trkpt lat="42.338243912717815" lon="13.455451846183353"><ele>621.0</ele><time>2026-05-03T07:18:20Z</time></trkpt><trkpt lat="42.33820589607725" lon="13.455525523994119"><ele>621.0</ele><time>2026-05-03T07:18:22Z</time></trkpt><trkpt lat="42.33808053377232" lon="13.455473219810745"><ele>621.0</ele><time>2026-05-03T07:18:25Z</time></trkpt><trkpt lat="42.33818769974783" lon="13.45561908107245"><ele>617.0</ele><time>2026-05-03T07:18:31Z</time></trkpt><trkpt lat="42.33830191950604" lon="13.4556796078285"><ele>613.0</ele><time>2026-05-03T07:18:32Z</time></trkpt><trkpt lat="42.33842349555837" lon="13.455720602759628"><ele>609.0</ele><time>2026-05-03T07:18:33Z</time></trkpt><trkpt lat="42.33853080959652" lon="13.455756660281898"><ele>605.0</ele><time>2026-05-03T07:18:34Z</time></trkpt><trkpt lat="42.338633492088945" lon="13.455791858832933"><ele>605.0</ele><time>2026-05-03T07:18:35Z</time></trkpt><trkpt lat="42.33874898123046" lon="13.455833502660543"><ele>605.0</ele><time>2026-05-03T07:18:36Z</time></trkpt><trkpt lat="42.33887178624351" lon="13.4558549827435"><ele>605.0</ele><time>2026-05-03T07:18:37Z</time></trkpt><trkpt lat="42.33898304450684" lon="13.455915420617321"><ele>605.0</ele><time>2026-05-03T07:18:38Z</time></trkpt><trkpt lat="42.33909859094397" lon="13.455962800005409"><ele>606.0</ele><time>2026-05-03T07:18:39Z</time></trkpt><trkpt lat="42.33920932332433" lon="13.455991854923505"><ele>607.0</ele><time>2026-05-03T07:18:40Z</time></trkpt><trkpt lat="42.339330105409516" lon="13.456001283667543"><ele>608.0</ele><time>2026-05-03T07:18:41Z</time></trkpt><trkpt lat="42.339437975783696" lon="13.455994366909797"><ele>609.0</ele><time>2026-05-03T07:18:42Z</time></trkpt><trkpt lat="42.33953202518389" lon="13.456008490800922"><ele>610.0</ele><time>2026-05-03T07:18:43Z</time></trkpt><trkpt lat="42.33962426295573" lon="13.456021217283931"><ele>610.0</ele><time>2026-05-03T07:18:44Z</time></trkpt><trkpt lat="42.3396908845741" lon="13.45609456551866"><ele>610.0</ele><time>2026-05-03T07:18:45Z</time></trkpt><trkpt lat="42.339716581467485" lon="13.456230979161532"><ele>610.0</ele><time>2026-05-03T07:18:46Z</time></trkpt><trkpt lat="42.33972700302067" lon="13.45634901114103"><ele>610.0</ele><time>2026-05-03T07:18:47Z</time></trkpt><trkpt lat="42.339744166387284" lon="13.456474556609882"><ele>610.0</ele><time>2026-05-03T07:18:48Z</time></trkpt><trkpt lat="42.33974400712928" lon="13.456590598823176"><ele>608.5</ele><time>2026-05-03T07:18:49Z</time></trkpt><trkpt lat="42.33976953153799" lon="13.456690914340028"><ele>607.0</ele><time>2026-05-03T07:18:52.001Z</time></trkpt><trkpt lat="42.33985975219062" lon="13.456715486554003"><ele>605.5</ele><time>2026-05-03T07:18:53.001Z</time></trkpt><trkpt lat="42.33994122174023" lon="13.456721724702293"><ele>604.0</ele><time>2026-05-03T07:18:54.001Z</time></trkpt><trkpt lat="42.34002465401885" lon="13.456740595088382"><ele>602.5</ele><time>2026-05-03T07:18:55.001Z</time></trkpt><trkpt lat="42.34012520759213" lon="13.456768070091302"><ele>601.0</ele><time>2026-05-03T07:18:56.001Z</time></trkpt><trkpt lat="42.34023578470625" lon="13.456804824946753"><ele>601.0</ele><time>2026-05-03T07:18:57.001Z</time></trkpt><trkpt lat="42.34036848437653" lon="13.456846709803823"><ele>601.0</ele><time>2026-05-03T07:18:58.001Z</time></trkpt><trkpt lat="42.340514054067235" lon="13.456899917153008"><ele>601.0</ele><time>2026-05-03T07:18:59.001Z</time></trkpt><trkpt lat="42.3406745638352" lon="13.456957861471064"><ele>600.6666666666667</ele><time>2026-05-03T07:19:00.001Z</time></trkpt><trkpt lat="42.34082356379285" lon="13.457020854520371"><ele>600.3333333333334</ele><time>2026-05-03T07:19:01.001Z</time></trkpt><trkpt lat="42.3409838030588" lon="13.457096537421652"><ele>600.0</ele><time>2026-05-03T07:19:02.001Z</time></trkpt><trkpt lat="42.34113190740935" lon="13.457183214353634"><ele>600.3333333333334</ele><time>2026-05-03T07:19:03.001Z</time></trkpt><trkpt lat="42.341283328876855" lon="13.457284698305363"><ele>600.6666666666667</ele><time>2026-05-03T07:19:04.001Z</time></trkpt><trkpt lat="42.341415117451255" lon="13.45741101961815"><ele>601.0</ele><time>2026-05-03T07:19:05.001Z</time></trkpt><trkpt lat="42.34153825384328" lon="13.457563928432737"><ele>601.0</ele><time>2026-05-03T07:19:06.001Z</time></trkpt><trkpt lat="42.341643040289" lon="13.457725509056932"><ele>601.0</ele><time>2026-05-03T07:19:07.001Z</time></trkpt><trkpt lat="42.341759864372015" lon="13.457888585432388"><ele>601.0</ele><time>2026-05-03T07:19:08.001Z</time></trkpt><trkpt lat="42.34188070987268" lon="13.458051297989233"><ele>601.0</ele><time>2026-05-03T07:19:09.001Z</time></trkpt><trkpt lat="42.34200421969521" lon="13.458211796641338"><ele>601.0</ele><time>2026-05-03T07:19:10.001Z</time></trkpt><trkpt lat="42.34212319503897" lon="13.458369340672851"><ele>601.0</ele><time>2026-05-03T07:19:11.001Z</time></trkpt><trkpt lat="42.34225444115051" lon="13.458536891671244"><ele>601.0</ele><time>2026-05-03T07:19:12.001Z</time></trkpt><trkpt lat="42.342382012667635" lon="13.458702023883324"><ele>601.0</ele><time>2026-05-03T07:19:13.001Z</time></trkpt><trkpt lat="42.34251136953697" lon="13.458875276558967"><ele>601.0</ele><time>2026-05-03T07:19:14.001Z</time></trkpt><trkpt lat="42.3426402160915" lon="13.459051662787182"><ele>601.0</ele><time>2026-05-03T07:19:15.001Z</time></trkpt><trkpt lat="42.34276469196002" lon="13.459219362635855"><ele>601.0</ele><time>2026-05-03T07:19:16.001Z</time></trkpt><trkpt lat="42.34289743779155" lon="13.459388365682875"><ele>601.0</ele><time>2026-05-03T07:19:17.001Z</time></trkpt><trkpt lat="42.34302432585746" lon="13.459555505908723"><ele>602.6666666666667</ele><time>2026-05-03T07:19:18.001Z</time></trkpt><trkpt lat="42.34314258277632" lon="13.459718973278276"><ele>604.3333333333334</ele><time>2026-05-03T07:19:19.001Z</time></trkpt><trkpt lat="42.3432661139565" lon="13.45988811297966"><ele>606.0</ele><time>2026-05-03T07:19:20.001Z</time></trkpt><trkpt lat="42.34339146654428" lon="13.460051153034744"><ele>606.0</ele><time>2026-05-03T07:19:21.001Z</time></trkpt><trkpt lat="42.34351510907554" lon="13.460212932945154"><ele>606.0</ele><time>2026-05-03T07:19:22.001Z</time></trkpt><trkpt lat="42.34363776189539" lon="13.460376570738271"><ele>606.0</ele><time>2026-05-03T07:19:23.001Z</time></trkpt><trkpt lat="42.343759839759144" lon="13.460537031803005"><ele>607.3333333333334</ele><time>2026-05-03T07:19:24.001Z</time></trkpt><trkpt lat="42.34388879921868" lon="13.460702423505783"><ele>608.6666666666667</ele><time>2026-05-03T07:19:25.001Z</time></trkpt><trkpt lat="42.34401818070253" lon="13.460867869435816"><ele>610.0</ele><time>2026-05-03T07:19:26.001Z</time></trkpt><trkpt lat="42.34414348812142" lon="13.461030439610948"><ele>610.0</ele><time>2026-05-03T07:19:27.001Z</time></trkpt><trkpt lat="42.344267547332414" lon="13.461190478888096"><ele>610.0</ele><time>2026-05-03T07:19:28.001Z</time></trkpt><trkpt lat="42.344401897216905" lon="13.461344816496549"><ele>610.0</ele><time>2026-05-03T07:19:29.001Z</time></trkpt><trkpt lat="42.344532967653016" lon="13.4614960712677"><ele>609.6666666666667</ele><time>2026-05-03T07:19:30.001Z</time></trkpt><trkpt lat="42.344664605842645" lon="13.461648525938164"><ele>609.3333333333334</ele><time>2026-05-03T07:19:31.001Z</time></trkpt><trkpt lat="42.344792380311475" lon="13.461789416876883"><ele>609.0</ele><time>2026-05-03T07:19:32.001Z</time></trkpt><trkpt lat="42.344927036085636" lon="13.46193561986765"><ele>610.0</ele><time>2026-05-03T07:19:33.001Z</time></trkpt><trkpt lat="42.345064571030726" lon="13.46207786944189"><ele>611.0</ele><time>2026-05-03T07:19:34.001Z</time></trkpt><trkpt lat="42.34519277986806" lon="13.46219687980563"><ele>612.0</ele><time>2026-05-03T07:19:35.001Z</time></trkpt><trkpt lat="42.345317152657856" lon="13.462301056757143"><ele>612.0</ele><time>2026-05-03T07:19:36.001Z</time></trkpt><trkpt lat="42.34541898220149" lon="13.462382281795007"><ele>612.0</ele><time>2026-05-03T07:19:37.001Z</time></trkpt><trkpt lat="42.34549714690707" lon="13.462459476427231"><ele>612.0</ele><time>2026-05-03T07:19:38.001Z</time></trkpt><trkpt lat="42.34555174872821" lon="13.462502885269544"><ele>612.0</ele><time>2026-05-03T07:19:39.001Z</time></trkpt><trkpt lat="42.34561959762813" lon="13.462576170481805"><ele>612.0</ele><time>2026-05-03T07:19:42.001Z</time></trkpt><trkpt lat="42.34560504859059" lon="13.46267721885789"><ele>612.0</ele><time>2026-05-03T07:19:45.001Z</time></trkpt><trkpt lat="42.34551865674798" lon="13.462766870558754"><ele>612.0</ele><time>2026-05-03T07:19:47.001Z</time></trkpt><trkpt lat="42.34545385879506" lon="13.462852630342184"><ele>612.0</ele><time>2026-05-03T07:19:48.001Z</time></trkpt><trkpt lat="42.34538129115417" lon="13.4629684128782"><ele>612.0</ele><time>2026-05-03T07:19:49.001Z</time></trkpt><trkpt lat="42.34529335861726" lon="13.463093094601431"><ele>612.0</ele><time>2026-05-03T07:19:50.001Z</time></trkpt><trkpt lat="42.34521667028646" lon="13.463234468476248"><ele>612.5</ele><time>2026-05-03T07:19:51.001Z</time></trkpt><trkpt lat="42.34513979971957" lon="13.46338083423475"><ele>613.0</ele><time>2026-05-03T07:19:52.001Z</time></trkpt><trkpt lat="42.34506815196994" lon="13.463519946957138"><ele>613.5</ele><time>2026-05-03T07:19:53.001Z</time></trkpt><trkpt lat="42.34499762849827" lon="13.463679480416255"><ele>614.0</ele><time>2026-05-03T07:19:54.001Z</time></trkpt><trkpt lat="42.344947131699676" lon="13.463848291853656"><ele>614.25</ele><time>2026-05-03T07:19:55.001Z</time></trkpt><trkpt lat="42.34491468618358" lon="13.464030792079287"><ele>614.5</ele><time>2026-05-03T07:19:56.001Z</time></trkpt><trkpt lat="42.34488847333963" lon="13.464217494009727"><ele>614.75</ele><time>2026-05-03T07:19:57.001Z</time></trkpt><trkpt lat="42.344851803796516" lon="13.464398336590076"><ele>615.0</ele><time>2026-05-03T07:19:58.001Z</time></trkpt><trkpt lat="42.34479908439964" lon="13.46457806291335"><ele>615.0</ele><time>2026-05-03T07:19:59.001Z</time></trkpt><trkpt lat="42.34475315546072" lon="13.464763962286304"><ele>615.0</ele><time>2026-05-03T07:20:00.001Z</time></trkpt><trkpt lat="42.34470902469625" lon="13.464950836491827"><ele>615.0</ele><time>2026-05-03T07:20:01.001Z</time></trkpt><trkpt lat="42.344664380251565" lon="13.465110920751306"><ele>615.0</ele><time>2026-05-03T07:20:02.001Z</time></trkpt><trkpt lat="42.34464218392801" lon="13.465229352553923"><ele>614.8</ele><time>2026-05-03T07:20:03.001Z</time></trkpt><trkpt lat="42.34463181379332" lon="13.465317354788576"><ele>614.6</ele><time>2026-05-03T07:20:04.001Z</time></trkpt><trkpt lat="42.34460224439285" lon="13.465435428259953"><ele>614.4</ele><time>2026-05-03T07:20:05.001Z</time></trkpt><trkpt lat="42.344537210245356" lon="13.46560873056806"><ele>614.2</ele><time>2026-05-03T07:20:06.001Z</time></trkpt><trkpt lat="42.34447175280786" lon="13.465765775031207"><ele>614.0</ele><time>2026-05-03T07:20:07.001Z</time></trkpt><trkpt lat="42.34440188167744" lon="13.465874764535844"><ele>614.0</ele><time>2026-05-03T07:20:08.001Z</time></trkpt><trkpt lat="42.34436162338758" lon="13.465965412360166"><ele>614.0</ele><time>2026-05-03T07:20:09.001Z</time></trkpt><trkpt lat="42.34447711078483" lon="13.466139686842178"><ele>614.0</ele><time>2026-05-03T07:20:14.001Z</time></trkpt><trkpt lat="42.344552045295224" lon="13.466183577531298"><ele>614.0</ele><time>2026-05-03T07:20:15.001Z</time></trkpt><trkpt lat="42.344649970061866" lon="13.466222600136176"><ele>614.0</ele><time>2026-05-03T07:20:16.001Z</time></trkpt><trkpt lat="42.344761868613574" lon="13.466259404949033"><ele>614.25</ele><time>2026-05-03T07:20:17.001Z</time></trkpt><trkpt lat="42.34489503190514" lon="13.466292789814025"><ele>614.5</ele><time>2026-05-03T07:20:18.001Z</time></trkpt><trkpt lat="42.34505088649235" lon="13.466319305559281"><ele>614.75</ele><time>2026-05-03T07:20:19.001Z</time></trkpt><trkpt lat="42.34519007187713" lon="13.466322756840444"><ele>615.0</ele><time>2026-05-03T07:20:20.001Z</time></trkpt><trkpt lat="42.34531022318513" lon="13.466306833949195"><ele>615.0</ele><time>2026-05-03T07:20:21.001Z</time></trkpt><trkpt lat="42.34541658309391" lon="13.46628327715332"><ele>615.0</ele><time>2026-05-03T07:20:22.001Z</time></trkpt><trkpt lat="42.34551755855338" lon="13.466295104752305"><ele>615.0</ele><time>2026-05-03T07:20:23.001Z</time></trkpt><trkpt lat="42.345619178128906" lon="13.46635183299481"><ele>615.0</ele><time>2026-05-03T07:20:24.001Z</time></trkpt><trkpt lat="42.34572619694039" lon="13.466429035531403"><ele>615.0</ele><time>2026-05-03T07:20:25.001Z</time></trkpt><trkpt lat="42.345836077633706" lon="13.466505300611738"><ele>616.0</ele><time>2026-05-03T07:20:26.001Z</time></trkpt><trkpt lat="42.3459485155763" lon="13.466567272448323"><ele>617.0</ele><time>2026-05-03T07:20:27.001Z</time></trkpt><trkpt lat="42.34606232747372" lon="13.466637790390974"><ele>618.0</ele><time>2026-05-03T07:20:28.001Z</time></trkpt><trkpt lat="42.34617039275748" lon="13.466712196828771"><ele>619.0</ele><time>2026-05-03T07:20:29.001Z</time></trkpt><trkpt lat="42.34625628141046" lon="13.466774248039476"><ele>619.0</ele><time>2026-05-03T07:20:30.001Z</time></trkpt><trkpt lat="42.346331902227774" lon="13.466837657766577"><ele>619.0</ele><time>2026-05-03T07:20:31.001Z</time></trkpt><trkpt lat="42.346405136171875" lon="13.466920809340513"><ele>619.0</ele><time>2026-05-03T07:20:32.001Z</time></trkpt><trkpt lat="42.34648375117521" lon="13.46702866011409"><ele>619.0</ele><time>2026-05-03T07:20:33.001Z</time></trkpt><trkpt lat="42.346559250498856" lon="13.467153086306975"><ele>619.0</ele><time>2026-05-03T07:20:34.001Z</time></trkpt><trkpt lat="42.34663155191786" lon="13.4672999555818"><ele>619.6666666666667</ele><time>2026-05-03T07:20:35.001Z</time></trkpt><trkpt lat="42.34674652917188" lon="13.467475668219917"><ele>620.3333333333334</ele><time>2026-05-03T07:20:36.001Z</time></trkpt><trkpt lat="42.346849607353796" lon="13.467653817440091"><ele>621.0</ele><time>2026-05-03T07:20:37.001Z</time></trkpt><trkpt lat="42.34693466683467" lon="13.467784344339188"><ele>621.0</ele><time>2026-05-03T07:20:38.001Z</time></trkpt><trkpt lat="42.347005484111826" lon="13.467874176542752"><ele>621.0</ele><time>2026-05-03T07:20:39.001Z</time></trkpt><trkpt lat="42.34706482881552" lon="13.467913060914029"><ele>621.0</ele><time>2026-05-03T07:20:40.001Z</time></trkpt><trkpt lat="42.34714439565817" lon="13.467905656941422"><ele>621.0</ele><time>2026-05-03T07:20:41.001Z</time></trkpt><trkpt lat="42.34726547185179" lon="13.467872784847925"><ele>621.0</ele><time>2026-05-03T07:20:42.001Z</time></trkpt><trkpt lat="42.34738092154063" lon="13.467836877406324"><ele>621.4</ele><time>2026-05-03T07:20:43.001Z</time></trkpt><trkpt lat="42.347472874758694" lon="13.467824676082538"><ele>621.8</ele><time>2026-05-03T07:20:44.001Z</time></trkpt><trkpt lat="42.347561490460585" lon="13.467837466603394"><ele>622.1999999999999</ele><time>2026-05-03T07:20:45.001Z</time></trkpt><trkpt lat="42.347655166979045" lon="13.467874030664742"><ele>622.6</ele><time>2026-05-03T07:20:46.001Z</time></trkpt><trkpt lat="42.34774931500569" lon="13.46793930636223"><ele>623.0</ele><time>2026-05-03T07:20:47.001Z</time></trkpt><trkpt lat="42.34785337655593" lon="13.467987501329377"><ele>623.25</ele><time>2026-05-03T07:20:48.001Z</time></trkpt><trkpt lat="42.347964929234145" lon="13.468023389307808"><ele>623.5</ele><time>2026-05-03T07:20:49.001Z</time></trkpt><trkpt lat="42.34809352840396" lon="13.468061338109758"><ele>623.75</ele><time>2026-05-03T07:20:50.001Z</time></trkpt><trkpt lat="42.34821035724085" lon="13.468094399748935"><ele>624.0</ele><time>2026-05-03T07:20:51.001Z</time></trkpt><trkpt lat="42.34832785738375" lon="13.468137748530651"><ele>624.2</ele><time>2026-05-03T07:20:52.001Z</time></trkpt><trkpt lat="42.34843880861172" lon="13.468188451892797"><ele>624.4</ele><time>2026-05-03T07:20:53.001Z</time></trkpt><trkpt lat="42.34854368225927" lon="13.468243276978468"><ele>624.6</ele><time>2026-05-03T07:20:54.001Z</time></trkpt><trkpt lat="42.348646300002464" lon="13.468289829977644"><ele>624.8</ele><time>2026-05-03T07:20:55.001Z</time></trkpt><trkpt lat="42.34874132063425" lon="13.46833099742088"><ele>625.0</ele><time>2026-05-03T07:20:56.001Z</time></trkpt><trkpt lat="42.34884320050982" lon="13.468371936848188"><ele>625.6</ele><time>2026-05-03T07:20:57.001Z</time></trkpt><trkpt lat="42.34894017911867" lon="13.468405812733648"><ele>626.2</ele><time>2026-05-03T07:20:58.001Z</time></trkpt><trkpt lat="42.34903595081174" lon="13.468434603249245"><ele>626.8</ele><time>2026-05-03T07:20:59.001Z</time></trkpt><trkpt lat="42.34913468852344" lon="13.468458250460532"><ele>627.4</ele><time>2026-05-03T07:21:00.001Z</time></trkpt><trkpt lat="42.34922641962908" lon="13.468476268033307"><ele>628.0</ele><time>2026-05-03T07:21:01.001Z</time></trkpt><trkpt lat="42.34932341808359" lon="13.468479432932622"><ele>628.0</ele><time>2026-05-03T07:21:02.001Z</time></trkpt><trkpt lat="42.3494226685705" lon="13.468481597063265"><ele>628.0</ele><time>2026-05-03T07:21:03.001Z</time></trkpt><trkpt lat="42.34951883766874" lon="13.46848438971272"><ele>628.0</ele><time>2026-05-03T07:21:04.001Z</time></trkpt><trkpt lat="42.34962105896555" lon="13.468489339343407"><ele>628.0</ele><time>2026-05-03T07:21:05.001Z</time></trkpt><trkpt lat="42.349730621090885" lon="13.468494146820534"><ele>628.0</ele><time>2026-05-03T07:21:06.001Z</time></trkpt><trkpt lat="42.349840927034336" lon="13.468490101441063"><ele>628.25</ele><time>2026-05-03T07:21:07.001Z</time></trkpt><trkpt lat="42.34995760976278" lon="13.468496952457743"><ele>628.5</ele><time>2026-05-03T07:21:08.001Z</time></trkpt><trkpt lat="42.350070196817" lon="13.46853034909306"><ele>628.75</ele><time>2026-05-03T07:21:09.001Z</time></trkpt><trkpt lat="42.35017282657728" lon="13.468600155882754"><ele>629.0</ele><time>2026-05-03T07:21:10.001Z</time></trkpt><trkpt lat="42.35029290725507" lon="13.468701497300016"><ele>629.0</ele><time>2026-05-03T07:21:11.001Z</time></trkpt><trkpt lat="42.350426018189886" lon="13.468843339816397"><ele>629.0</ele><time>2026-05-03T07:21:12.001Z</time></trkpt><trkpt lat="42.35054240543215" lon="13.468961258146797"><ele>629.0</ele><time>2026-05-03T07:21:13.001Z</time></trkpt><trkpt lat="42.350657902884706" lon="13.469034555747465"><ele>629.0</ele><time>2026-05-03T07:21:14.001Z</time></trkpt><trkpt lat="42.35076768885655" lon="13.4690688435995"><ele>629.3333333333333</ele><time>2026-05-03T07:21:15.001Z</time></trkpt><trkpt lat="42.35086598968729" lon="13.469083268060546"><ele>629.6666666666666</ele><time>2026-05-03T07:21:16.001Z</time></trkpt><trkpt lat="42.35095601823358" lon="13.469082161792215"><ele>630.0</ele><time>2026-05-03T07:21:17.001Z</time></trkpt><trkpt lat="42.351031892903094" lon="13.469068713322295"><ele>630.3333333333334</ele><time>2026-05-03T07:21:18.001Z</time></trkpt><trkpt lat="42.3511017152792" lon="13.469046812955899"><ele>630.6666666666667</ele><time>2026-05-03T07:21:19.001Z</time></trkpt><trkpt lat="42.35117218186606" lon="13.469010492335212"><ele>631.0</ele><time>2026-05-03T07:21:20.001Z</time></trkpt><trkpt lat="42.35124022062039" lon="13.468974040333322"><ele>631.0</ele><time>2026-05-03T07:21:21.001Z</time></trkpt><trkpt lat="42.35130381738352" lon="13.468934892002205"><ele>631.0</ele><time>2026-05-03T07:21:22.001Z</time></trkpt><trkpt lat="42.351400828257674" lon="13.468856599146717"><ele>631.0</ele><time>2026-05-03T07:21:24.001Z</time></trkpt><trkpt lat="42.35149195464546" lon="13.468731519685246"><ele>631.0</ele><time>2026-05-03T07:21:26.001Z</time></trkpt><trkpt lat="42.35154509853611" lon="13.468668675712186"><ele>631.0</ele><time>2026-05-03T07:21:27.001Z</time></trkpt><trkpt lat="42.35166654968844" lon="13.468693639564425"><ele>632.25</ele><time>2026-05-03T07:21:29.001Z</time></trkpt><trkpt lat="42.35174382233171" lon="13.468764925554177"><ele>633.5</ele><time>2026-05-03T07:21:30.002Z</time></trkpt><trkpt lat="42.35184477938932" lon="13.468867149350624"><ele>634.75</ele><time>2026-05-03T07:21:31.002Z</time></trkpt><trkpt lat="42.35193877465408" lon="13.469005135584382"><ele>636.0</ele><time>2026-05-03T07:21:32.002Z</time></trkpt><trkpt lat="42.35204241383354" lon="13.469152017982225"><ele>636.0</ele><time>2026-05-03T07:21:33.002Z</time></trkpt><trkpt lat="42.35216107178701" lon="13.46929052552288"><ele>636.0</ele><time>2026-05-03T07:21:34.002Z</time></trkpt><trkpt lat="42.35227480765238" lon="13.469420510395922"><ele>636.0</ele><time>2026-05-03T07:21:35.002Z</time></trkpt><trkpt lat="42.35238568636426" lon="13.46954478500046"><ele>636.75</ele><time>2026-05-03T07:21:36.002Z</time></trkpt><trkpt lat="42.352493125694316" lon="13.469667613829241"><ele>637.5</ele><time>2026-05-03T07:21:37.002Z</time></trkpt><trkpt lat="42.352593541481355" lon="13.469776447813773"><ele>638.25</ele><time>2026-05-03T07:21:38.002Z</time></trkpt><trkpt lat="42.352703444002" lon="13.469896866018205"><ele>639.0</ele><time>2026-05-03T07:21:39.002Z</time></trkpt><trkpt lat="42.352795362195145" lon="13.469996514626736"><ele>639.0</ele><time>2026-05-03T07:21:40.001Z</time></trkpt><trkpt lat="42.35287858616736" lon="13.470096017515845"><ele>639.0</ele><time>2026-05-03T07:21:41.001Z</time></trkpt><trkpt lat="42.352950821716696" lon="13.470202945412934"><ele>639.0</ele><time>2026-05-03T07:21:42.001Z</time></trkpt><trkpt lat="42.35301890113931" lon="13.47032531172208"><ele>639.0</ele><time>2026-05-03T07:21:43.001Z</time></trkpt><trkpt lat="42.35309491597865" lon="13.47044439698732"><ele>639.0</ele><time>2026-05-03T07:21:44.001Z</time></trkpt><trkpt lat="42.35316963945281" lon="13.470569500576046"><ele>639.6</ele><time>2026-05-03T07:21:45.001Z</time></trkpt><trkpt lat="42.353239400286334" lon="13.470700296576188"><ele>640.2</ele><time>2026-05-03T07:21:46.001Z</time></trkpt><trkpt lat="42.35329151828729" lon="13.470832614603067"><ele>640.8000000000001</ele><time>2026-05-03T07:21:47.001Z</time></trkpt><trkpt lat="42.35334097346255" lon="13.470949373393422"><ele>641.4</ele><time>2026-05-03T07:21:48.001Z</time></trkpt><trkpt lat="42.35340269589873" lon="13.471064687304281"><ele>642.0</ele><time>2026-05-03T07:21:49.001Z</time></trkpt><trkpt lat="42.353456403260665" lon="13.471189756753922"><ele>642.0</ele><time>2026-05-03T07:21:50.001Z</time></trkpt><trkpt lat="42.353524795771435" lon="13.471298766730365"><ele>642.0</ele><time>2026-05-03T07:21:51.001Z</time></trkpt><trkpt lat="42.3536034366127" lon="13.471391824462932"><ele>642.0</ele><time>2026-05-03T07:21:52.001Z</time></trkpt><trkpt lat="42.353668462843565" lon="13.471460834968077"><ele>642.0</ele><time>2026-05-03T07:21:53.001Z</time></trkpt><trkpt lat="42.353723661043176" lon="13.471531260990284"><ele>642.0</ele><time>2026-05-03T07:21:55.001Z</time></trkpt><trkpt lat="42.35382294452191" lon="13.471564833247006"><ele>642.5</ele><time>2026-05-03T07:21:58.001Z</time></trkpt><trkpt lat="42.353915693895196" lon="13.471537940492365"><ele>643.0</ele><time>2026-05-03T07:21:59.001Z</time></trkpt><trkpt lat="42.35402284552935" lon="13.471500171211376"><ele>643.5</ele><time>2026-05-03T07:22:00.001Z</time></trkpt><trkpt lat="42.35416117751456" lon="13.471453839844706"><ele>644.0</ele><time>2026-05-03T07:22:01.001Z</time></trkpt><trkpt lat="42.35430431728352" lon="13.47141664958239"><ele>644.0</ele><time>2026-05-03T07:22:02.001Z</time></trkpt><trkpt lat="42.3544183877578" lon="13.471396208559606"><ele>644.0</ele><time>2026-05-03T07:22:03.001Z</time></trkpt><trkpt lat="42.354514031193396" lon="13.471406143837063"><ele>644.0</ele><time>2026-05-03T07:22:04.001Z</time></trkpt><trkpt lat="42.35458748857166" lon="13.471424254405276"><ele>644.0</ele><time>2026-05-03T07:22:05.001Z</time></trkpt><trkpt lat="42.35465497636668" lon="13.471594184176773"><ele>644.0</ele><time>2026-05-03T07:22:06.001Z</time></trkpt><trkpt lat="42.354743038172714" lon="13.471712471701366"><ele>645.0</ele><time>2026-05-03T07:22:07.001Z</time></trkpt><trkpt lat="42.354849300957646" lon="13.471811540561193"><ele>646.0</ele><time>2026-05-03T07:22:08.001Z</time></trkpt><trkpt lat="42.35497056920233" lon="13.471969262774287"><ele>647.0</ele><time>2026-05-03T07:22:09.001Z</time></trkpt><trkpt lat="42.355112152817455" lon="13.472137488205544"><ele>647.0</ele><time>2026-05-03T07:22:10.001Z</time></trkpt><trkpt lat="42.35523749329934" lon="13.472312062032799"><ele>647.0</ele><time>2026-05-03T07:22:11.001Z</time></trkpt><trkpt lat="42.35536331609812" lon="13.472464472960553"><ele>647.0</ele><time>2026-05-03T07:22:12.001Z</time></trkpt><trkpt lat="42.35547654508942" lon="13.47260834427909"><ele>647.6666666666666</ele><time>2026-05-03T07:22:13.001Z</time></trkpt><trkpt lat="42.355597681130476" lon="13.472755013485331"><ele>648.3333333333334</ele><time>2026-05-03T07:22:14.001Z</time></trkpt><trkpt lat="42.35572155216871" lon="13.472894719546177"><ele>649.0</ele><time>2026-05-03T07:22:15.001Z</time></trkpt><trkpt lat="42.35584828359526" lon="13.473019815901843"><ele>649.25</ele><time>2026-05-03T07:22:16.001Z</time></trkpt><trkpt lat="42.35597871683549" lon="13.473144430178014"><ele>649.5</ele><time>2026-05-03T07:22:17.001Z</time></trkpt><trkpt lat="42.35609467850664" lon="13.47326428068557"><ele>649.75</ele><time>2026-05-03T07:22:18.001Z</time></trkpt><trkpt lat="42.35619512502973" lon="13.473371394394622"><ele>650.0</ele><time>2026-05-03T07:22:19.001Z</time></trkpt><trkpt lat="42.35626793148105" lon="13.473455658534501"><ele>650.0</ele><time>2026-05-03T07:22:20.001Z</time></trkpt><trkpt lat="42.356335000404826" lon="13.473510052772104"><ele>650.0</ele><time>2026-05-03T07:22:21.001Z</time></trkpt><trkpt lat="42.356405858727186" lon="13.473536943453635"><ele>650.0</ele><time>2026-05-03T07:22:22.001Z</time></trkpt><trkpt lat="42.35648350035481" lon="13.473548924491183"><ele>650.0</ele><time>2026-05-03T07:22:23.001Z</time></trkpt><trkpt lat="42.35655637418001" lon="13.473580933027671"><ele>650.0</ele><time>2026-05-03T07:22:24.001Z</time></trkpt><trkpt lat="42.35658420956416" lon="13.473662551147314"><ele>650.0</ele><time>2026-05-03T07:22:25.001Z</time></trkpt><trkpt lat="42.3566180025719" lon="13.4737506976455"><ele>650.0</ele><time>2026-05-03T07:22:26.001Z</time></trkpt><trkpt lat="42.35666585438186" lon="13.473856649486022"><ele>651.2</ele><time>2026-05-03T07:22:27.001Z</time></trkpt><trkpt lat="42.35671031603065" lon="13.473988270376264"><ele>652.4</ele><time>2026-05-03T07:22:28.001Z</time></trkpt><trkpt lat="42.35674714282115" lon="13.474118694256601"><ele>653.5999999999999</ele><time>2026-05-03T07:22:29.001Z</time></trkpt><trkpt lat="42.356775998865444" lon="13.47423121885508"><ele>654.8</ele><time>2026-05-03T07:22:30.001Z</time></trkpt><trkpt lat="42.356815474880584" lon="13.474360048647492"><ele>656.0</ele><time>2026-05-03T07:22:31.001Z</time></trkpt><trkpt lat="42.356861978827276" lon="13.474496123634436"><ele>658.25</ele><time>2026-05-03T07:22:32.001Z</time></trkpt><trkpt lat="42.356917883683" lon="13.474652023474114"><ele>660.5</ele><time>2026-05-03T07:22:33.001Z</time></trkpt><trkpt lat="42.356980439557944" lon="13.474813100530026"><ele>662.75</ele><time>2026-05-03T07:22:34.001Z</time></trkpt><trkpt lat="42.357037976656294" lon="13.4749797828521"><ele>665.0</ele><time>2026-05-03T07:22:35.001Z</time></trkpt><trkpt lat="42.35709873395775" lon="13.475154038313082"><ele>665.0</ele><time>2026-05-03T07:22:36.001Z</time></trkpt><trkpt lat="42.35713919203928" lon="13.475337773190635"><ele>665.0</ele><time>2026-05-03T07:22:37.001Z</time></trkpt><trkpt lat="42.357163622557806" lon="13.475494879313729"><ele>665.0</ele><time>2026-05-03T07:22:38.001Z</time></trkpt><trkpt lat="42.35719103365009" lon="13.475603372091983"><ele>665.0</ele><time>2026-05-03T07:22:39.001Z</time></trkpt><trkpt lat="42.35720190734224" lon="13.475706419120222"><ele>665.0</ele><time>2026-05-03T07:22:40.001Z</time></trkpt><trkpt lat="42.35723483613995" lon="13.475836335447907"><ele>667.2</ele><time>2026-05-03T07:22:41.001Z</time></trkpt><trkpt lat="42.357260091211586" lon="13.475977487651654"><ele>669.4</ele><time>2026-05-03T07:22:42.001Z</time></trkpt><trkpt lat="42.35723720835424" lon="13.476119117125105"><ele>671.5999999999999</ele><time>2026-05-03T07:22:43.001Z</time></trkpt><trkpt lat="42.35722395904932" lon="13.476260974397968"><ele>673.8</ele><time>2026-05-03T07:22:44.001Z</time></trkpt><trkpt lat="42.35723057153901" lon="13.476397057950402"><ele>676.0</ele><time>2026-05-03T07:22:45.001Z</time></trkpt><trkpt lat="42.357230579312116" lon="13.476533925191108"><ele>677.1666666666667</ele><time>2026-05-03T07:22:46.001Z</time></trkpt><trkpt lat="42.35723890629558" lon="13.476663319231104"><ele>678.3333333333334</ele><time>2026-05-03T07:22:47.001Z</time></trkpt><trkpt lat="42.357249753571715" lon="13.476792229904982"><ele>679.5</ele><time>2026-05-03T07:22:48.001Z</time></trkpt><trkpt lat="42.357257256991424" lon="13.476897010745562"><ele>680.6666666666666</ele><time>2026-05-03T07:22:49.001Z</time></trkpt><trkpt lat="42.357258434886695" lon="13.477005180344657"><ele>681.8333333333333</ele><time>2026-05-03T07:22:50.001Z</time></trkpt><trkpt lat="42.35726782413519" lon="13.477101737253797"><ele>683.0</ele><time>2026-05-03T07:22:51.001Z</time></trkpt><trkpt lat="42.35727829655923" lon="13.477191764753385"><ele>684.0</ele><time>2026-05-03T07:22:52.001Z</time></trkpt><trkpt lat="42.35729300514401" lon="13.477290824656297"><ele>685.0</ele><time>2026-05-03T07:22:53.001Z</time></trkpt><trkpt lat="42.35730577338112" lon="13.4773867764655"><ele>686.0</ele><time>2026-05-03T07:22:54Z</time></trkpt><trkpt lat="42.35734367589869" lon="13.477483123572886"><ele>687.0</ele><time>2026-05-03T07:22:55Z</time></trkpt><trkpt lat="42.357328585845075" lon="13.477615805818273"><ele>688.0</ele><time>2026-05-03T07:22:56Z</time></trkpt><trkpt lat="42.35733771577675" lon="13.477757871238362"><ele>689.0</ele><time>2026-05-03T07:22:57Z</time></trkpt><trkpt lat="42.3573442116722" lon="13.477919559893948"><ele>690.6</ele><time>2026-05-03T07:22:58Z</time></trkpt><trkpt lat="42.3573727221893" lon="13.478037642605525"><ele>692.2</ele><time>2026-05-03T07:22:59Z</time></trkpt><trkpt lat="42.35740367043355" lon="13.478184008665039"><ele>693.8000000000001</ele><time>2026-05-03T07:23:00Z</time></trkpt><trkpt lat="42.35744528471048" lon="13.478322084971335"><ele>695.4000000000001</ele><time>2026-05-03T07:23:01Z</time></trkpt><trkpt lat="42.3574931037768" lon="13.478461968685602"><ele>697.0</ele><time>2026-05-03T07:23:02Z</time></trkpt><trkpt lat="42.35752800247692" lon="13.478584268787559"><ele>697.0</ele><time>2026-05-03T07:23:03Z</time></trkpt><trkpt lat="42.357543989500854" lon="13.478682381507259"><ele>697.0</ele><time>2026-05-03T07:23:04Z</time></trkpt><trkpt lat="42.35756335974328" lon="13.478888343716761"><ele>697.0</ele><time>2026-05-03T07:23:06Z</time></trkpt><trkpt lat="42.35757944272265" lon="13.479005393066517"><ele>697.0</ele><time>2026-05-03T07:23:07Z</time></trkpt><trkpt lat="42.35759870150278" lon="13.479117067869192"><ele>697.0</ele><time>2026-05-03T07:23:08Z</time></trkpt><trkpt lat="42.35761563661992" lon="13.47925829892346"><ele>698.8</ele><time>2026-05-03T07:23:09Z</time></trkpt><trkpt lat="42.357636780557925" lon="13.479390184088675"><ele>700.6</ele><time>2026-05-03T07:23:10Z</time></trkpt><trkpt lat="42.35764892990747" lon="13.479532972467522"><ele>702.4</ele><time>2026-05-03T07:23:11Z</time></trkpt><trkpt lat="42.35767013420753" lon="13.479671718814485"><ele>704.1999999999999</ele><time>2026-05-03T07:23:12Z</time></trkpt><trkpt lat="42.357687375473354" lon="13.47979878092645"><ele>706.0</ele><time>2026-05-03T07:23:13Z</time></trkpt><trkpt lat="42.357709872058386" lon="13.479942087327169"><ele>708.25</ele><time>2026-05-03T07:23:14Z</time></trkpt><trkpt lat="42.35773373734398" lon="13.480107308605586"><ele>710.5</ele><time>2026-05-03T07:23:15Z</time></trkpt><trkpt lat="42.35775082982675" lon="13.48028039062644"><ele>712.75</ele><time>2026-05-03T07:23:16Z</time></trkpt><trkpt lat="42.357712418939606" lon="13.480417593947188"><ele>715.0</ele><time>2026-05-03T07:23:17Z</time></trkpt><trkpt lat="42.35767008925928" lon="13.48056308992183"><ele>716.6</ele><time>2026-05-03T07:23:18Z</time></trkpt><trkpt lat="42.357665231280514" lon="13.480737044716289"><ele>718.2</ele><time>2026-05-03T07:23:19Z</time></trkpt><trkpt lat="42.35766419387862" lon="13.4808805199465"><ele>719.8</ele><time>2026-05-03T07:23:20Z</time></trkpt><trkpt lat="42.357694511437174" lon="13.48099624422333"><ele>721.4</ele><time>2026-05-03T07:23:21Z</time></trkpt><trkpt lat="42.35773539225742" lon="13.481119863052523"><ele>723.0</ele><time>2026-05-03T07:23:23Z</time></trkpt><trkpt lat="42.35778714945193" lon="13.481251619136293"><ele>725.5</ele><time>2026-05-03T07:23:25Z</time></trkpt><trkpt lat="42.35781946321641" lon="13.481347462033169"><ele>728.0</ele><time>2026-05-03T07:23:26Z</time></trkpt><trkpt lat="42.35771034698395" lon="13.481541367139329"><ele>730.5</ele><time>2026-05-03T07:23:27Z</time></trkpt><trkpt lat="42.35769443559387" lon="13.481690264489954"><ele>733.0</ele><time>2026-05-03T07:23:28Z</time></trkpt><trkpt lat="42.357671359041646" lon="13.481820592143292"><ele>733.0</ele><time>2026-05-03T07:23:29Z</time></trkpt><trkpt lat="42.35764785307849" lon="13.481952914475045"><ele>733.0</ele><time>2026-05-03T07:23:30Z</time></trkpt><trkpt lat="42.357612271408236" lon="13.482078518268588"><ele>733.0</ele><time>2026-05-03T07:23:31Z</time></trkpt><trkpt lat="42.35758737446447" lon="13.482222648203035"><ele>733.0</ele><time>2026-05-03T07:23:32Z</time></trkpt><trkpt lat="42.35756163688682" lon="13.48234701495969"><ele>733.0</ele><time>2026-05-03T07:23:33Z</time></trkpt><trkpt lat="42.35754656500318" lon="13.482488363238474"><ele>735.0</ele><time>2026-05-03T07:23:34Z</time></trkpt><trkpt lat="42.35754615998252" lon="13.48261749058929"><ele>737.0</ele><time>2026-05-03T07:23:35Z</time></trkpt><trkpt lat="42.35755696467615" lon="13.482763277100496"><ele>739.0</ele><time>2026-05-03T07:23:36.002Z</time></trkpt><trkpt lat="42.35757680348938" lon="13.482908044182775"><ele>741.0</ele><time>2026-05-03T07:23:37.002Z</time></trkpt><trkpt lat="42.35760118303305" lon="13.483087969987565"><ele>743.0</ele><time>2026-05-03T07:23:38.002Z</time></trkpt><trkpt lat="42.357613148570735" lon="13.483272414971033"><ele>744.4</ele><time>2026-05-03T07:23:39.001Z</time></trkpt><trkpt lat="42.357626865437894" lon="13.48345893971808"><ele>745.8</ele><time>2026-05-03T07:23:40.001Z</time></trkpt><trkpt lat="42.35763387925588" lon="13.483608326917224"><ele>747.2</ele><time>2026-05-03T07:23:41.001Z</time></trkpt><trkpt lat="42.35765477999406" lon="13.483717994537585"><ele>748.6</ele><time>2026-05-03T07:23:42.001Z</time></trkpt><trkpt lat="42.35767640747805" lon="13.4838592919569"><ele>750.0</ele><time>2026-05-03T07:23:43.001Z</time></trkpt><trkpt lat="42.3577006351144" lon="13.483991973019718"><ele>750.8</ele><time>2026-05-03T07:23:44.001Z</time></trkpt><trkpt lat="42.357728349399736" lon="13.484130183462991"><ele>751.6</ele><time>2026-05-03T07:23:45.001Z</time></trkpt><trkpt lat="42.35775187501625" lon="13.484266006688383"><ele>752.4000000000001</ele><time>2026-05-03T07:23:46.001Z</time></trkpt><trkpt lat="42.3577726162831" lon="13.484401684465675"><ele>753.2</ele><time>2026-05-03T07:23:47.001Z</time></trkpt><trkpt lat="42.35778000653282" lon="13.48452463941628"><ele>754.0</ele><time>2026-05-03T07:23:48.001Z</time></trkpt><trkpt lat="42.35776883170384" lon="13.484643875050839"><ele>755.2</ele><time>2026-05-03T07:23:49.001Z</time></trkpt><trkpt lat="42.35775962736274" lon="13.484757220850815"><ele>756.4000000000001</ele><time>2026-05-03T07:23:50.001Z</time></trkpt><trkpt lat="42.35774676616997" lon="13.484881583297678"><ele>757.6</ele><time>2026-05-03T07:23:51.001Z</time></trkpt><trkpt lat="42.35772775646502" lon="13.48502424988029"><ele>758.8</ele><time>2026-05-03T07:23:52.001Z</time></trkpt><trkpt lat="42.357702624246805" lon="13.485182432214474"><ele>760.0</ele><time>2026-05-03T07:23:53.001Z</time></trkpt><trkpt lat="42.35769209106424" lon="13.485329913189313"><ele>759.5</ele><time>2026-05-03T07:23:54.001Z</time></trkpt><trkpt lat="42.35768366860911" lon="13.485461220920628"><ele>759.0</ele><time>2026-05-03T07:23:55.001Z</time></trkpt><trkpt lat="42.35767660962825" lon="13.48558258171414"><ele>758.5</ele><time>2026-05-03T07:23:56.001Z</time></trkpt><trkpt lat="42.35767456987745" lon="13.485687871433676"><ele>758.0</ele><time>2026-05-03T07:23:57.001Z</time></trkpt><trkpt lat="42.357676442941326" lon="13.48577508802952"><ele>757.5</ele><time>2026-05-03T07:23:58.001Z</time></trkpt><trkpt lat="42.357683045421986" lon="13.485879422551509"><ele>757.0</ele><time>2026-05-03T07:23:59.001Z</time></trkpt><trkpt lat="42.35770495537189" lon="13.485968326837515"><ele>757.0</ele><time>2026-05-03T07:24:00.001Z</time></trkpt><trkpt lat="42.35772789779122" lon="13.486056981245923"><ele>757.0</ele><time>2026-05-03T07:24:01.001Z</time></trkpt><trkpt lat="42.35776117105891" lon="13.48614225065308"><ele>757.0</ele><time>2026-05-03T07:24:02.001Z</time></trkpt><trkpt lat="42.35779487506604" lon="13.486232735120714"><ele>757.0</ele><time>2026-05-03T07:24:03.001Z</time></trkpt><trkpt lat="42.357858033378086" lon="13.486390822861418"><ele>757.0</ele><time>2026-05-03T07:24:05.001Z</time></trkpt><trkpt lat="42.35792351042551" lon="13.486539228400693"><ele>756.0</ele><time>2026-05-03T07:24:07.001Z</time></trkpt><trkpt lat="42.358009940525044" lon="13.486642277536259"><ele>755.0</ele><time>2026-05-03T07:24:09.001Z</time></trkpt><trkpt lat="42.35810581896696" lon="13.486746055697271"><ele>754.0</ele><time>2026-05-03T07:24:11.001Z</time></trkpt><trkpt lat="42.35819782580623" lon="13.48685434623797"><ele>753.0</ele><time>2026-05-03T07:24:13.001Z</time></trkpt><trkpt lat="42.35825118853508" lon="13.48691768189853"><ele>752.0</ele><time>2026-05-03T07:24:14.001Z</time></trkpt><trkpt lat="42.3583176471546" lon="13.48699649703705"><ele>754.2</ele><time>2026-05-03T07:24:15.001Z</time></trkpt><trkpt lat="42.35838412311861" lon="13.487082489226307"><ele>756.4000000000001</ele><time>2026-05-03T07:24:16.001Z</time></trkpt><trkpt lat="42.35845748705888" lon="13.487184174655372"><ele>758.5999999999999</ele><time>2026-05-03T07:24:17.001Z</time></trkpt><trkpt lat="42.358548850703016" lon="13.487291641647964"><ele>760.8</ele><time>2026-05-03T07:24:18.001Z</time></trkpt><trkpt lat="42.358645625154" lon="13.487402692442998"><ele>763.0</ele><time>2026-05-03T07:24:19Z</time></trkpt><trkpt lat="42.3587176079361" lon="13.48749518924957"><ele>763.0</ele><time>2026-05-03T07:24:20Z</time></trkpt><trkpt lat="42.35876448389143" lon="13.487597300482948"><ele>763.0</ele><time>2026-05-03T07:24:21Z</time></trkpt><trkpt lat="42.358815468816644" lon="13.487731036455019"><ele>763.0</ele><time>2026-05-03T07:24:22Z</time></trkpt><trkpt lat="42.35887196829897" lon="13.48785425048086"><ele>763.0</ele><time>2026-05-03T07:24:23Z</time></trkpt><trkpt lat="42.35891821190861" lon="13.487968510959918"><ele>763.0</ele><time>2026-05-03T07:24:24Z</time></trkpt><trkpt lat="42.35897194779426" lon="13.48804750821043"><ele>766.4</ele><time>2026-05-03T07:24:25Z</time></trkpt><trkpt lat="42.35903916637448" lon="13.488121625379359"><ele>769.8</ele><time>2026-05-03T07:24:27Z</time></trkpt><trkpt lat="42.359131511070316" lon="13.488220810929787"><ele>773.2</ele><time>2026-05-03T07:24:29Z</time></trkpt><trkpt lat="42.35918822570595" lon="13.488300389816306"><ele>776.6</ele><time>2026-05-03T07:24:30Z</time></trkpt><trkpt lat="42.359233036965804" lon="13.488366572750266"><ele>780.0</ele><time>2026-05-03T07:24:31Z</time></trkpt><trkpt lat="42.35932354931017" lon="13.488474477913885"><ele>780.0</ele><time>2026-05-03T07:24:33Z</time></trkpt><trkpt lat="42.35937532736772" lon="13.488554466076861"><ele>780.0</ele><time>2026-05-03T07:24:34Z</time></trkpt><trkpt lat="42.35942513522517" lon="13.488627123827774"><ele>780.0</ele><time>2026-05-03T07:24:35Z</time></trkpt><trkpt lat="42.35947136083189" lon="13.488698829773384"><ele>780.0</ele><time>2026-05-03T07:24:36Z</time></trkpt><trkpt lat="42.359506707940604" lon="13.488784603347124"><ele>780.0</ele><time>2026-05-03T07:24:37Z</time></trkpt><trkpt lat="42.35954667481889" lon="13.488884176325108"><ele>780.0</ele><time>2026-05-03T07:24:38Z</time></trkpt><trkpt lat="42.359599519499575" lon="13.488992052467749"><ele>781.1666666666666</ele><time>2026-05-03T07:24:39Z</time></trkpt><trkpt lat="42.35964605259722" lon="13.48905917289127"><ele>782.3333333333333</ele><time>2026-05-03T07:24:40Z</time></trkpt><trkpt lat="42.35969731592783" lon="13.489128198894042"><ele>783.5</ele><time>2026-05-03T07:24:41Z</time></trkpt><trkpt lat="42.359753407716674" lon="13.489203036160207"><ele>784.6666666666666</ele><time>2026-05-03T07:24:42Z</time></trkpt><trkpt lat="42.35981272365804" lon="13.489266205120806"><ele>785.8333333333333</ele><time>2026-05-03T07:24:43Z</time></trkpt><trkpt lat="42.359874280277744" lon="13.489325829530864"><ele>787.0</ele><time>2026-05-03T07:24:44Z</time></trkpt><trkpt lat="42.359947549376294" lon="13.48937567841131"><ele>787.8333333333333</ele><time>2026-05-03T07:24:45Z</time></trkpt><trkpt lat="42.360017494828746" lon="13.489416486024924"><ele>788.6666666666666</ele><time>2026-05-03T07:24:46Z</time></trkpt><trkpt lat="42.36008008451931" lon="13.48944091144454"><ele>789.5</ele><time>2026-05-03T07:24:47Z</time></trkpt><trkpt lat="42.36014046009009" lon="13.489478915493878"><ele>790.3333333333333</ele><time>2026-05-03T07:24:48Z</time></trkpt><trkpt lat="42.360239229967156" lon="13.489582716500603"><ele>791.1666666666666</ele><time>2026-05-03T07:24:50Z</time></trkpt><trkpt lat="42.360291332382786" lon="13.489652035942887"><ele>792.0</ele><time>2026-05-03T07:24:51Z</time></trkpt><trkpt lat="42.36034132705448" lon="13.489720470251232"><ele>792.8333333333334</ele><time>2026-05-03T07:24:52Z</time></trkpt><trkpt lat="42.36040845509051" lon="13.489775088255657"><ele>793.6666666666667</ele><time>2026-05-03T07:24:53Z</time></trkpt><trkpt lat="42.36047657461913" lon="13.489820134264486"><ele>794.5</ele><time>2026-05-03T07:24:54Z</time></trkpt><trkpt lat="42.36054101747586" lon="13.489855421324382"><ele>795.3333333333334</ele><time>2026-05-03T07:24:55Z</time></trkpt><trkpt lat="42.36061140492595" lon="13.489901811984268"><ele>796.1666666666667</ele><time>2026-05-03T07:24:56Z</time></trkpt><trkpt lat="42.36067718978067" lon="13.489957657797905"><ele>797.0</ele><time>2026-05-03T07:24:57Z</time></trkpt><trkpt lat="42.36073296236066" lon="13.490026167235373"><ele>797.5000000000001</ele><time>2026-05-03T07:24:58Z</time></trkpt><trkpt lat="42.360787468346466" lon="13.490111252785566"><ele>798.0</ele><time>2026-05-03T07:24:59Z</time></trkpt><trkpt lat="42.3608538637494" lon="13.490189289854614"><ele>798.5</ele><time>2026-05-03T07:25:00Z</time></trkpt><trkpt lat="42.36095268102844" lon="13.490231539318355"><ele>799.0</ele><time>2026-05-03T07:25:01Z</time></trkpt><trkpt lat="42.361035721489245" lon="13.490276936974368"><ele>799.5000000000001</ele><time>2026-05-03T07:25:02Z</time></trkpt><trkpt lat="42.36111500371042" lon="13.490293875045948"><ele>800.0</ele><time>2026-05-03T07:25:03Z</time></trkpt><trkpt lat="42.36122960491761" lon="13.490392190516033"><ele>802.0000000000001</ele><time>2026-05-03T07:25:05Z</time></trkpt><trkpt lat="42.36128818522964" lon="13.49043485920588"><ele>804.0</ele><time>2026-05-03T07:25:06Z</time></trkpt><trkpt lat="42.36134035036277" lon="13.490498062624031"><ele>806.0</ele><time>2026-05-03T07:25:07Z</time></trkpt><trkpt lat="42.36143511040582" lon="13.490606918895425"><ele>808.0</ele><time>2026-05-03T07:25:09Z</time></trkpt><trkpt lat="42.36149658269579" lon="13.49065638947905"><ele>810.0000000000001</ele><time>2026-05-03T07:25:10Z</time></trkpt><trkpt lat="42.36155959809567" lon="13.490707938789432"><ele>812.0</ele><time>2026-05-03T07:25:11Z</time></trkpt><trkpt lat="42.36165630153003" lon="13.49078292794921"><ele>812.0000000000001</ele><time>2026-05-03T07:25:13Z</time></trkpt><trkpt lat="42.361724385204894" lon="13.490858194755129"><ele>812.0</ele><time>2026-05-03T07:25:14Z</time></trkpt><trkpt lat="42.36179320398032" lon="13.490882405470005"><ele>812.0</ele><time>2026-05-03T07:25:15Z</time></trkpt><trkpt lat="42.36185614445143" lon="13.490915166566154"><ele>812.0</ele><time>2026-05-03T07:25:16Z</time></trkpt><trkpt lat="42.36191580583689" lon="13.490956058085349"><ele>812.0000000000001</ele><time>2026-05-03T07:25:17Z</time></trkpt><trkpt lat="42.3619618318453" lon="13.49101568766667"><ele>812.0</ele><time>2026-05-03T07:25:18Z</time></trkpt><trkpt lat="42.36202815555291" lon="13.49113192993412"><ele>812.0000000000001</ele><time>2026-05-03T07:25:20Z</time></trkpt><trkpt lat="42.36209164849903" lon="13.491255296996302"><ele>812.0</ele><time>2026-05-03T07:25:22Z</time></trkpt><trkpt lat="42.36214139769027" lon="13.491317264164913"><ele>812.0</ele><time>2026-05-03T07:25:23Z</time></trkpt><trkpt lat="42.36219876689766" lon="13.491377183078326"><ele>812.0</ele><time>2026-05-03T07:25:24Z</time></trkpt><trkpt lat="42.36225766059257" lon="13.491465000082037"><ele>812.0000000000001</ele><time>2026-05-03T07:25:25Z</time></trkpt><trkpt lat="42.36231691725271" lon="13.491539238461344"><ele>812.0</ele><time>2026-05-03T07:25:26Z</time></trkpt><trkpt lat="42.362378805296544" lon="13.4916199631029"><ele>813.0</ele><time>2026-05-03T07:25:27Z</time></trkpt><trkpt lat="42.36242285781126" lon="13.491684528937213"><ele>814.0</ele><time>2026-05-03T07:25:28Z</time></trkpt><trkpt lat="42.36247087458129" lon="13.491752010165692"><ele>815.0</ele><time>2026-05-03T07:25:29Z</time></trkpt><trkpt lat="42.36251357982348" lon="13.491832819650654"><ele>816.0</ele><time>2026-05-03T07:25:30Z</time></trkpt><trkpt lat="42.36254858810996" lon="13.491920048141957"><ele>817.0</ele><time>2026-05-03T07:25:31Z</time></trkpt><trkpt lat="42.36258080963335" lon="13.492010238186943"><ele>818.0</ele><time>2026-05-03T07:25:32Z</time></trkpt><trkpt lat="42.36261324499549" lon="13.492100358768509"><ele>819.0</ele><time>2026-05-03T07:25:33Z</time></trkpt><trkpt lat="42.36263174485243" lon="13.492190989529828"><ele>820.5</ele><time>2026-05-03T07:25:34Z</time></trkpt><trkpt lat="42.36266371187314" lon="13.49229275838573"><ele>822.0</ele><time>2026-05-03T07:25:35Z</time></trkpt><trkpt lat="42.362684597142454" lon="13.492396972143155"><ele>823.5</ele><time>2026-05-03T07:25:36Z</time></trkpt><trkpt lat="42.36270371694024" lon="13.492501570069388"><ele>825.0</ele><time>2026-05-03T07:25:37Z</time></trkpt><trkpt lat="42.36272530142219" lon="13.492596907757024"><ele>826.5</ele><time>2026-05-03T07:25:38Z</time></trkpt><trkpt lat="42.362752225346085" lon="13.492682547320063"><ele>828.0</ele><time>2026-05-03T07:25:39Z</time></trkpt><trkpt lat="42.362778434194965" lon="13.492782866319232"><ele>828.0</ele><time>2026-05-03T07:25:40Z</time></trkpt><trkpt lat="42.36279990709093" lon="13.492878776423694"><ele>828.0</ele><time>2026-05-03T07:25:41Z</time></trkpt><trkpt lat="42.3628008021313" lon="13.49302780614809"><ele>828.0</ele><time>2026-05-03T07:25:43.001Z</time></trkpt><trkpt lat="42.36277945700201" lon="13.493152064000157"><ele>828.0</ele><time>2026-05-03T07:25:45.001Z</time></trkpt><trkpt lat="42.362783532874005" lon="13.493330242203113"><ele>828.0</ele><time>2026-05-03T07:25:47.001Z</time></trkpt><trkpt lat="42.36280664950282" lon="13.493478408576044"><ele>831.2</ele><time>2026-05-03T07:25:49.001Z</time></trkpt><trkpt lat="42.36286630223196" lon="13.493608795018398"><ele>834.4</ele><time>2026-05-03T07:25:51.001Z</time></trkpt><trkpt lat="42.36290910469183" lon="13.49367576661975"><ele>837.6</ele><time>2026-05-03T07:25:52.001Z</time></trkpt><trkpt lat="42.36293397759399" lon="13.493816655710376"><ele>840.8000000000001</ele><time>2026-05-03T07:25:54.001Z</time></trkpt><trkpt lat="42.362939681290676" lon="13.493987919328992"><ele>844.0</ele><time>2026-05-03T07:25:56.001Z</time></trkpt><trkpt lat="42.36294517214283" lon="13.494172158901367"><ele>846.1666666666666</ele><time>2026-05-03T07:25:58.001Z</time></trkpt><trkpt lat="42.36294513467223" lon="13.49427452282008"><ele>848.3333333333333</ele><time>2026-05-03T07:25:59.001Z</time></trkpt><trkpt lat="42.36295436341357" lon="13.494376029157907"><ele>850.5</ele><time>2026-05-03T07:26:00.001Z</time></trkpt><trkpt lat="42.362964235265856" lon="13.494477082151015"><ele>852.6666666666667</ele><time>2026-05-03T07:26:01.001Z</time></trkpt><trkpt lat="42.36297558194465" lon="13.494589656055176"><ele>854.8333333333334</ele><time>2026-05-03T07:26:02.001Z</time></trkpt><trkpt lat="42.36296821619627" lon="13.494698900472871"><ele>857.0</ele><time>2026-05-03T07:26:03.001Z</time></trkpt><trkpt lat="42.36295555386601" lon="13.494806491694774"><ele>858.2</ele><time>2026-05-03T07:26:04.001Z</time></trkpt><trkpt lat="42.362954567289556" lon="13.494928789255974"><ele>859.4000000000001</ele><time>2026-05-03T07:26:05.001Z</time></trkpt><trkpt lat="42.36294138564088" lon="13.495039364659819"><ele>860.5999999999999</ele><time>2026-05-03T07:26:06.001Z</time></trkpt><trkpt lat="42.362925045789616" lon="13.495168332636174"><ele>861.8</ele><time>2026-05-03T07:26:07.001Z</time></trkpt><trkpt lat="42.36291424972968" lon="13.495288342787564"><ele>863.0</ele><time>2026-05-03T07:26:08.001Z</time></trkpt><trkpt lat="42.36289436018007" lon="13.495425065768902"><ele>863.3333333333334</ele><time>2026-05-03T07:26:09.001Z</time></trkpt><trkpt lat="42.362888306632385" lon="13.495534601006348"><ele>863.6666666666667</ele><time>2026-05-03T07:26:10.001Z</time></trkpt><trkpt lat="42.362886175259575" lon="13.495663649077255"><ele>864.0</ele><time>2026-05-03T07:26:11.001Z</time></trkpt><trkpt lat="42.36287970533715" lon="13.495800614863606"><ele>864.3333333333333</ele><time>2026-05-03T07:26:12.001Z</time></trkpt><trkpt lat="42.36287113470759" lon="13.495896441966124"><ele>864.6666666666666</ele><time>2026-05-03T07:26:13.001Z</time></trkpt><trkpt lat="42.36286100797954" lon="13.495985825486306"><ele>865.0</ele><time>2026-05-03T07:26:14Z</time></trkpt><trkpt lat="42.36285269975274" lon="13.49614198440803"><ele>864.9999999999999</ele><time>2026-05-03T07:26:16Z</time></trkpt><trkpt lat="42.36284468884466" lon="13.496237496459745"><ele>865.0</ele><time>2026-05-03T07:26:17Z</time></trkpt><trkpt lat="42.362833455235055" lon="13.496332130725108"><ele>865.0</ele><time>2026-05-03T07:26:18Z</time></trkpt><trkpt lat="42.36282834580215" lon="13.496418762148867"><ele>865.0</ele><time>2026-05-03T07:26:19Z</time></trkpt><trkpt lat="42.362821106193024" lon="13.49656402695478"><ele>864.9999999999999</ele><time>2026-05-03T07:26:21Z</time></trkpt><trkpt lat="42.36283768684754" lon="13.496711035014359"><ele>865.0</ele><time>2026-05-03T07:26:23Z</time></trkpt><trkpt lat="42.36285314706425" lon="13.49679428092313"><ele>866.2</ele><time>2026-05-03T07:26:24Z</time></trkpt><trkpt lat="42.36288032589766" lon="13.496942797608666"><ele>867.4</ele><time>2026-05-03T07:26:26Z</time></trkpt><trkpt lat="42.362919205377885" lon="13.497112005511244"><ele>868.5999999999999</ele><time>2026-05-03T07:26:28Z</time></trkpt><trkpt lat="42.36289571483018" lon="13.497274682739656"><ele>869.8</ele><time>2026-05-03T07:26:30Z</time></trkpt><trkpt lat="42.362886106738735" lon="13.497366442194698"><ele>871.0</ele><time>2026-05-03T07:26:31Z</time></trkpt><trkpt lat="42.36288752071607" lon="13.497512407364585"><ele>871.6666666666666</ele><time>2026-05-03T07:26:33Z</time></trkpt><trkpt lat="42.362923425641775" lon="13.4976790101644"><ele>872.3333333333333</ele><time>2026-05-03T07:26:35Z</time></trkpt><trkpt lat="42.362977714549814" lon="13.497806685379826"><ele>873.0</ele><time>2026-05-03T07:26:37Z</time></trkpt><trkpt lat="42.36302844765668" lon="13.49787968014051"><ele>873.6666666666667</ele><time>2026-05-03T07:27:02Z</time></trkpt><trkpt lat="42.36306762996905" lon="13.497946734936288"><ele>874.3333333333334</ele><time>2026-05-03T07:27:03Z</time></trkpt><trkpt lat="42.36311243127631" lon="13.498025401898749"><ele>875.0</ele><time>2026-05-03T07:27:04Z</time></trkpt><trkpt lat="42.363170693591606" lon="13.49809024896748"><ele>878.6</ele><time>2026-05-03T07:27:05Z</time></trkpt><trkpt lat="42.36322930201485" lon="13.498132493274364"><ele>882.2</ele><time>2026-05-03T07:27:06Z</time></trkpt><trkpt lat="42.36335296393354" lon="13.49824078952203"><ele>885.8</ele><time>2026-05-03T07:27:08Z</time></trkpt><trkpt lat="42.36342125301631" lon="13.498309871208917"><ele>889.4</ele><time>2026-05-03T07:27:09Z</time></trkpt><trkpt lat="42.36350296045207" lon="13.498380904414962"><ele>893.0</ele><time>2026-05-03T07:27:10Z</time></trkpt><trkpt lat="42.363574695145665" lon="13.498448865465512"><ele>893.0000000000001</ele><time>2026-05-03T07:27:11Z</time></trkpt><trkpt lat="42.36362072933182" lon="13.49850808481888"><ele>893.0</ele><time>2026-05-03T07:27:12Z</time></trkpt><trkpt lat="42.363669213755486" lon="13.498656797008463"><ele>893.0</ele><time>2026-05-03T07:27:14Z</time></trkpt><trkpt lat="42.36368359532775" lon="13.498744068184001"><ele>893.0</ele><time>2026-05-03T07:27:15Z</time></trkpt><trkpt lat="42.36371336648705" lon="13.498839329121946"><ele>893.0000000000001</ele><time>2026-05-03T07:27:17Z</time></trkpt><trkpt lat="42.363738519040815" lon="13.498942018996289"><ele>893.0</ele><time>2026-05-03T07:27:27Z</time></trkpt><trkpt lat="42.36379537737825" lon="13.49903615453268"><ele>895.5999999999999</ele><time>2026-05-03T07:27:29Z</time></trkpt><trkpt lat="42.36386611552707" lon="13.499101164624408"><ele>898.1999999999999</ele><time>2026-05-03T07:27:31Z</time></trkpt><trkpt lat="42.36392402517409" lon="13.499165694864551"><ele>900.8</ele><time>2026-05-03T07:27:32Z</time></trkpt><trkpt lat="42.363963720216915" lon="13.49923975461843"><ele>903.4</ele><time>2026-05-03T07:27:33Z</time></trkpt><trkpt lat="42.36399758802522" lon="13.499363152940559"><ele>906.0</ele><time>2026-05-03T07:27:35Z</time></trkpt><trkpt lat="42.364081607512176" lon="13.499489856697537"><ele>906.0</ele><time>2026-05-03T07:27:37Z</time></trkpt><trkpt lat="42.36413789209027" lon="13.499543258107265"><ele>905.9999999999999</ele><time>2026-05-03T07:27:38Z</time></trkpt><trkpt lat="42.36422407830874" lon="13.499675547725985"><ele>905.9999999999999</ele><time>2026-05-03T07:27:40Z</time></trkpt><trkpt lat="42.36430153065636" lon="13.49982586765404"><ele>906.0</ele><time>2026-05-03T07:27:42Z</time></trkpt><trkpt lat="42.364349444311756" lon="13.499914096662076"><ele>906.0</ele><time>2026-05-03T07:27:42.999Z</time></trkpt><trkpt lat="42.36438814040848" lon="13.499992028772333"><ele>906.4</ele><time>2026-05-03T07:27:43.999Z</time></trkpt><trkpt lat="42.36444759605477" lon="13.500137446373698"><ele>906.8</ele><time>2026-05-03T07:27:45.999Z</time></trkpt><trkpt lat="42.36451532253813" lon="13.500276483874407"><ele>907.1999999999999</ele><time>2026-05-03T07:27:48.001Z</time></trkpt><trkpt lat="42.364569250558425" lon="13.500399383920252"><ele>907.5999999999999</ele><time>2026-05-03T07:27:50.001Z</time></trkpt><trkpt lat="42.3646090884527" lon="13.500512941732795"><ele>908.0</ele><time>2026-05-03T07:27:52.001Z</time></trkpt><trkpt lat="42.364651598607324" lon="13.500650170802476"><ele>910.0000000000001</ele><time>2026-05-03T07:27:55.001Z</time></trkpt><trkpt lat="42.3647034654008" lon="13.500751773199012"><ele>912.0</ele><time>2026-05-03T07:27:57.001Z</time></trkpt><trkpt lat="42.36474078749453" lon="13.50085787337472"><ele>914.0</ele><time>2026-05-03T07:27:59.001Z</time></trkpt><trkpt lat="42.36477980617541" lon="13.50095073595108"><ele>916.0</ele><time>2026-05-03T07:28:01Z</time></trkpt><trkpt lat="42.364807542718374" lon="13.501027746938828"><ele>918.0000000000001</ele><time>2026-05-03T07:28:03Z</time></trkpt><trkpt lat="42.364851319672056" lon="13.501138508620633"><ele>920.0</ele><time>2026-05-03T07:28:05Z</time></trkpt><trkpt lat="42.36488469168943" lon="13.50126484721624"><ele>921.1666666666667</ele><time>2026-05-03T07:28:07Z</time></trkpt><trkpt lat="42.364897459789326" lon="13.501385609379401"><ele>922.3333333333334</ele><time>2026-05-03T07:28:09Z</time></trkpt><trkpt lat="42.36492683803881" lon="13.501505802097029"><ele>923.5</ele><time>2026-05-03T07:28:11Z</time></trkpt><trkpt lat="42.364941620417525" lon="13.501597190349251"><ele>924.6666666666667</ele><time>2026-05-03T07:28:12Z</time></trkpt><trkpt lat="42.36497640510955" lon="13.50172161746361"><ele>925.8333333333334</ele><time>2026-05-03T07:28:14Z</time></trkpt><trkpt lat="42.36500458922863" lon="13.501825739652213"><ele>927.0</ele><time>2026-05-03T07:28:16Z</time></trkpt><trkpt lat="42.36503973577457" lon="13.501951223483598"><ele>927.0</ele><time>2026-05-03T07:28:18Z</time></trkpt><trkpt lat="42.365075711187465" lon="13.502054605004023"><ele>927.0</ele><time>2026-05-03T07:28:20Z</time></trkpt><trkpt lat="42.36509588595226" lon="13.502148014637967"><ele>927.0</ele><time>2026-05-03T07:28:22Z</time></trkpt><trkpt lat="42.36512380733232" lon="13.502258114390651"><ele>927.0</ele><time>2026-05-03T07:28:28Z</time></trkpt><trkpt lat="42.36515474918416" lon="13.502375761938461"><ele>927.0</ele><time>2026-05-03T07:28:30Z</time></trkpt><trkpt lat="42.36517637290148" lon="13.50253339965935"><ele>928.0</ele><time>2026-05-03T07:28:32Z</time></trkpt><trkpt lat="42.36518919733126" lon="13.502638685464442"><ele>929.0</ele><time>2026-05-03T07:28:33Z</time></trkpt><trkpt lat="42.365216666265624" lon="13.502728522349654"><ele>930.0</ele><time>2026-05-03T07:28:34Z</time></trkpt><trkpt lat="42.36525073517867" lon="13.502810118956349"><ele>931.0</ele><time>2026-05-03T07:28:35Z</time></trkpt><trkpt lat="42.365280411307296" lon="13.502904472300301"><ele>932.0</ele><time>2026-05-03T07:28:36Z</time></trkpt><trkpt lat="42.36531061694459" lon="13.503007963493172"><ele>933.0</ele><time>2026-05-03T07:28:37Z</time></trkpt><trkpt lat="42.365392358554885" lon="13.503163090362268"><ele>934.5999999999999</ele><time>2026-05-03T07:28:39Z</time></trkpt><trkpt lat="42.365444515108614" lon="13.503257522695764"><ele>936.1999999999999</ele><time>2026-05-03T07:28:40Z</time></trkpt><trkpt lat="42.36550588915983" lon="13.503361417677384"><ele>937.8</ele><time>2026-05-03T07:28:41Z</time></trkpt><trkpt lat="42.36553910408944" lon="13.503449437977965"><ele>939.4</ele><time>2026-05-03T07:28:42Z</time></trkpt><trkpt lat="42.36559556013501" lon="13.503554227790598"><ele>941.0</ele><time>2026-05-03T07:28:43Z</time></trkpt><trkpt lat="42.36564920744659" lon="13.503661131961854"><ele>941.6666666666667</ele><time>2026-05-03T07:28:44Z</time></trkpt><trkpt lat="42.36568979760131" lon="13.50376664383264"><ele>942.3333333333334</ele><time>2026-05-03T07:28:45Z</time></trkpt><trkpt lat="42.365728082591204" lon="13.503875244380554"><ele>943.0</ele><time>2026-05-03T07:28:46Z</time></trkpt><trkpt lat="42.365759957334966" lon="13.503987549823108"><ele>943.6666666666667</ele><time>2026-05-03T07:28:47Z</time></trkpt><trkpt lat="42.36579223719266" lon="13.504099741247476"><ele>944.3333333333334</ele><time>2026-05-03T07:28:48Z</time></trkpt><trkpt lat="42.36581002080343" lon="13.50419847093727"><ele>945.0</ele><time>2026-05-03T07:28:49Z</time></trkpt><trkpt lat="42.365829987175985" lon="13.50429921072625"><ele>945.0</ele><time>2026-05-03T07:28:50Z</time></trkpt><trkpt lat="42.365830126331524" lon="13.504414906508218"><ele>945.0</ele><time>2026-05-03T07:28:51Z</time></trkpt><trkpt lat="42.36582750386733" lon="13.504504118233266"><ele>945.0</ele><time>2026-05-03T07:28:52Z</time></trkpt><trkpt lat="42.3658047382671" lon="13.504687237100018"><ele>945.0</ele><time>2026-05-03T07:28:54Z</time></trkpt><trkpt lat="42.36579447809761" lon="13.504777287597152"><ele>945.0</ele><time>2026-05-03T07:28:55Z</time></trkpt><trkpt lat="42.36579412935205" lon="13.504877879688783"><ele>945.0</ele><time>2026-05-03T07:28:56Z</time></trkpt><trkpt lat="42.36581165309934" lon="13.505001318919241"><ele>945.25</ele><time>2026-05-03T07:28:57Z</time></trkpt><trkpt lat="42.36585200281092" lon="13.505173396283865"><ele>945.5</ele><time>2026-05-03T07:28:58Z</time></trkpt><trkpt lat="42.365895099994106" lon="13.505330381847374"><ele>945.75</ele><time>2026-05-03T07:28:59Z</time></trkpt><trkpt lat="42.36592451389008" lon="13.505487657224581"><ele>946.0</ele><time>2026-05-03T07:29:00Z</time></trkpt><trkpt lat="42.365946267064665" lon="13.505620814783159"><ele>946.1999999999999</ele><time>2026-05-03T07:29:01Z</time></trkpt><trkpt lat="42.36596260829122" lon="13.505766264226265"><ele>946.3999999999999</ele><time>2026-05-03T07:29:02Z</time></trkpt><trkpt lat="42.365976736711424" lon="13.505899465100065"><ele>946.6</ele><time>2026-05-03T07:29:03Z</time></trkpt><trkpt lat="42.36599437047702" lon="13.50600726685778"><ele>946.8</ele><time>2026-05-03T07:29:04Z</time></trkpt><trkpt lat="42.36600413624798" lon="13.50610222978012"><ele>947.0</ele><time>2026-05-03T07:29:05Z</time></trkpt><trkpt lat="42.366013047537656" lon="13.50622526119143"><ele>947.3333333333334</ele><time>2026-05-03T07:29:05.999Z</time></trkpt><trkpt lat="42.366022198388876" lon="13.506345677691234"><ele>947.6666666666667</ele><time>2026-05-03T07:29:06.999Z</time></trkpt><trkpt lat="42.36604371662163" lon="13.506466946017856"><ele>948.0</ele><time>2026-05-03T07:29:07.999Z</time></trkpt><trkpt lat="42.36607999824852" lon="13.50655291742582"><ele>948.3333333333333</ele><time>2026-05-03T07:29:08.999Z</time></trkpt><trkpt lat="42.36612372631899" lon="13.506619250801064"><ele>948.6666666666666</ele><time>2026-05-03T07:29:09.999Z</time></trkpt><trkpt lat="42.366169582731764" lon="13.506681165942293"><ele>949.0</ele><time>2026-05-03T07:29:10.999Z</time></trkpt><trkpt lat="42.36623245730728" lon="13.506830315954602"><ele>948.9999999999999</ele><time>2026-05-03T07:29:12.999Z</time></trkpt><trkpt lat="42.366281141554865" lon="13.50690275775736"><ele>949.0</ele><time>2026-05-03T07:29:13.999Z</time></trkpt><trkpt lat="42.366346319310274" lon="13.506982398983387"><ele>949.0</ele><time>2026-05-03T07:29:14.999Z</time></trkpt><trkpt lat="42.36641818143842" lon="13.507063436634736"><ele>949.0</ele><time>2026-05-03T07:29:15.999Z</time></trkpt><trkpt lat="42.3664753127514" lon="13.507140570842006"><ele>948.9999999999999</ele><time>2026-05-03T07:29:16.999Z</time></trkpt><trkpt lat="42.36652255707643" lon="13.50722633058891"><ele>949.0</ele><time>2026-05-03T07:29:17.999Z</time></trkpt><trkpt lat="42.36658236856741" lon="13.507318814833324"><ele>951.2</ele><time>2026-05-03T07:29:18.999Z</time></trkpt><trkpt lat="42.36664690613916" lon="13.507443468396238"><ele>953.4000000000001</ele><time>2026-05-03T07:29:19.999Z</time></trkpt><trkpt lat="42.36670191564763" lon="13.507526608144612"><ele>955.6</ele><time>2026-05-03T07:29:20.999Z</time></trkpt><trkpt lat="42.36674808886787" lon="13.507584690089493"><ele>957.8</ele><time>2026-05-03T07:29:22.999Z</time></trkpt><trkpt lat="42.366694735510634" lon="13.507679297194935"><ele>960.0</ele><time>2026-05-03T07:29:29.999Z</time></trkpt><trkpt lat="42.366591507567556" lon="13.507714856967562"><ele>960.0</ele><time>2026-05-03T07:29:31.999Z</time></trkpt><trkpt lat="42.366526735687536" lon="13.507749560363708"><ele>960.0</ele><time>2026-05-03T07:29:32.999Z</time></trkpt><trkpt lat="42.366472477235554" lon="13.507795702790204"><ele>960.0</ele><time>2026-05-03T07:29:33.999Z</time></trkpt><trkpt lat="42.36640813415433" lon="13.507847780584253"><ele>960.0</ele><time>2026-05-03T07:29:34.999Z</time></trkpt><trkpt lat="42.36634596500272" lon="13.507901373717086"><ele>960.0</ele><time>2026-05-03T07:29:35.999Z</time></trkpt><trkpt lat="42.36627989312796" lon="13.507956010483854"><ele>960.0</ele><time>2026-05-03T07:29:36.999Z</time></trkpt><trkpt lat="42.366212474795184" lon="13.507999258675603"><ele>960.0</ele><time>2026-05-03T07:29:37.999Z</time></trkpt><trkpt lat="42.36613304108788" lon="13.508053555995703"><ele>958.6</ele><time>2026-05-03T07:29:38.999Z</time></trkpt><trkpt lat="42.366068185381444" lon="13.508108433589118"><ele>957.2</ele><time>2026-05-03T07:29:39.999Z</time></trkpt><trkpt lat="42.366027699487454" lon="13.508193421933766"><ele>955.8</ele><time>2026-05-03T07:29:40.999Z</time></trkpt><trkpt lat="42.365954958505" lon="13.508330527535438"><ele>954.4</ele><time>2026-05-03T07:29:41.999Z</time></trkpt><trkpt lat="42.36589194282376" lon="13.508480096729084"><ele>953.0</ele><time>2026-05-03T07:29:42.999Z</time></trkpt><trkpt lat="42.36583619431727" lon="13.508588553226334"><ele>953.0000000000001</ele><time>2026-05-03T07:29:43.999Z</time></trkpt><trkpt lat="42.365769827425915" lon="13.50861861383205"><ele>953.0</ele><time>2026-05-03T07:29:45.999Z</time></trkpt><trkpt lat="42.36575746020003" lon="13.50870820233582"><ele>953.0</ele><time>2026-05-03T07:29:47.999Z</time></trkpt><trkpt lat="42.3657478223712" lon="13.50883670615565"><ele>953.0</ele><time>2026-05-03T07:29:48.999Z</time></trkpt><trkpt lat="42.36571883273301" lon="13.508992324175862"><ele>953.0000000000001</ele><time>2026-05-03T07:29:49.999Z</time></trkpt><trkpt lat="42.3656757952721" lon="13.509077588165603"><ele>953.0</ele><time>2026-05-03T07:29:50.999Z</time></trkpt><trkpt lat="42.36563056277083" lon="13.509152867128538"><ele>953.8</ele><time>2026-05-03T07:29:51.999Z</time></trkpt><trkpt lat="42.365584206782415" lon="13.509291759647324"><ele>954.5999999999999</ele><time>2026-05-03T07:29:54Z</time></trkpt><trkpt lat="42.365580745091094" lon="13.509383936582372"><ele>955.4000000000001</ele><time>2026-05-03T07:29:55Z</time></trkpt><trkpt lat="42.365590809934055" lon="13.509472025511192"><ele>956.2</ele><time>2026-05-03T07:29:56Z</time></trkpt><trkpt lat="42.36560579906167" lon="13.50961851400935"><ele>957.0</ele><time>2026-05-03T07:29:58Z</time></trkpt><trkpt lat="42.365677381164424" lon="13.509739124153304"><ele>957.0</ele><time>2026-05-03T07:30:00Z</time></trkpt><trkpt lat="42.36573106189721" lon="13.509786531099506"><ele>957.0000000000001</ele><time>2026-05-03T07:30:01Z</time></trkpt><trkpt lat="42.365789884891264" lon="13.509824312322618"><ele>957.0</ele><time>2026-05-03T07:30:02Z</time></trkpt><trkpt lat="42.365851840689956" lon="13.509869454936258"><ele>957.0</ele><time>2026-05-03T07:30:03Z</time></trkpt><trkpt lat="42.36592905452215" lon="13.509917109891333"><ele>957.0000000000001</ele><time>2026-05-03T07:30:04Z</time></trkpt><trkpt lat="42.36600684147237" lon="13.509943068889235"><ele>957.0</ele><time>2026-05-03T07:30:05Z</time></trkpt><trkpt lat="42.36607412113325" lon="13.509968734085954"><ele>957.0</ele><time>2026-05-03T07:30:06Z</time></trkpt><trkpt lat="42.36607337337882" lon="13.510111730386816"><ele>957.0</ele><time>2026-05-03T07:30:08Z</time></trkpt><trkpt lat="42.36603665306054" lon="13.51021019345344"><ele>957.0</ele><time>2026-05-03T07:30:09Z</time></trkpt><trkpt lat="42.365996872790554" lon="13.510303185704116"><ele>957.0</ele><time>2026-05-03T07:30:10Z</time></trkpt><trkpt lat="42.36596765389363" lon="13.51042974494974"><ele>957.0</ele><time>2026-05-03T07:30:11Z</time></trkpt><trkpt lat="42.36592087421711" lon="13.510564136460573"><ele>957.0</ele><time>2026-05-03T07:30:12Z</time></trkpt><trkpt lat="42.36584741476205" lon="13.510656135210056"><ele>956.8</ele><time>2026-05-03T07:30:13Z</time></trkpt><trkpt lat="42.36576930871988" lon="13.510712657998893"><ele>956.6</ele><time>2026-05-03T07:30:14Z</time></trkpt><trkpt lat="42.36569383297861" lon="13.510784189919981"><ele>956.3999999999999</ele><time>2026-05-03T07:30:15Z</time></trkpt><trkpt lat="42.36564678128763" lon="13.510871760368037"><ele>956.1999999999999</ele><time>2026-05-03T07:30:16Z</time></trkpt><trkpt lat="42.365584314394034" lon="13.511007566807171"><ele>956.0</ele><time>2026-05-03T07:30:17Z</time></trkpt><trkpt lat="42.365544721732434" lon="13.511120116345127"><ele>955.5999999999999</ele><time>2026-05-03T07:30:18Z</time></trkpt><trkpt lat="42.36552784334151" lon="13.511231815793286"><ele>955.1999999999999</ele><time>2026-05-03T07:30:19Z</time></trkpt><trkpt lat="42.365534898755776" lon="13.511361862607712"><ele>954.8000000000001</ele><time>2026-05-03T07:30:20Z</time></trkpt><trkpt lat="42.36552063275421" lon="13.511496117755835"><ele>954.4000000000001</ele><time>2026-05-03T07:30:21Z</time></trkpt><trkpt lat="42.36545939814897" lon="13.511653213111614"><ele>954.0</ele><time>2026-05-03T07:30:22Z</time></trkpt><trkpt lat="42.36538259618929" lon="13.511805913646375"><ele>954.0</ele><time>2026-05-03T07:30:23Z</time></trkpt><trkpt lat="42.365347692569856" lon="13.511966722896632"><ele>954.0000000000001</ele><time>2026-05-03T07:30:24Z</time></trkpt><trkpt lat="42.36533481220728" lon="13.51206441337551"><ele>954.0000000000001</ele><time>2026-05-03T07:30:25Z</time></trkpt><trkpt lat="42.36534384350556" lon="13.512175296479013"><ele>954.0</ele><time>2026-05-03T07:30:26Z</time></trkpt><trkpt lat="42.36534990037749" lon="13.512305614280926"><ele>954.0</ele><time>2026-05-03T07:30:27Z</time></trkpt><trkpt lat="42.36537277252896" lon="13.512443788932524"><ele>954.6</ele><time>2026-05-03T07:30:29Z</time></trkpt><trkpt lat="42.36541450698308" lon="13.512532957015008"><ele>955.2</ele><time>2026-05-03T07:30:30Z</time></trkpt><trkpt lat="42.36545242635268" lon="13.512647578053478"><ele>955.8000000000001</ele><time>2026-05-03T07:30:31Z</time></trkpt><trkpt lat="42.36548636588773" lon="13.512813438058384"><ele>956.4000000000001</ele><time>2026-05-03T07:30:32Z</time></trkpt><trkpt lat="42.36550271160116" lon="13.512992542009664"><ele>957.0</ele><time>2026-05-03T07:30:33Z</time></trkpt><trkpt lat="42.36551994448694" lon="13.513147347689802"><ele>957.0</ele><time>2026-05-03T07:30:34Z</time></trkpt><trkpt lat="42.365524379998895" lon="13.513264028627182"><ele>957.0</ele><time>2026-05-03T07:30:36Z</time></trkpt><trkpt lat="42.3654496308233" lon="13.513238267716627"><ele>957.0</ele><time>2026-05-03T07:30:38Z</time></trkpt><trkpt lat="42.365385118861354" lon="13.51320554016094"><ele>957.0</ele><time>2026-05-03T07:30:39Z</time></trkpt><trkpt lat="42.365323841626946" lon="13.513136236073342"><ele>957.0</ele><time>2026-05-03T07:30:40Z</time></trkpt><trkpt lat="42.365263772651204" lon="13.513028639189992"><ele>957.0</ele><time>2026-05-03T07:30:41Z</time></trkpt><trkpt lat="42.365193169579214" lon="13.512878922795496"><ele>957.0</ele><time>2026-05-03T07:30:42Z</time></trkpt><trkpt lat="42.36510345164423" lon="13.51273294509024"><ele>957.0</ele><time>2026-05-03T07:30:43Z</time></trkpt><trkpt lat="42.36501789408618" lon="13.512619636535678"><ele>957.0</ele><time>2026-05-03T07:30:44Z</time></trkpt><trkpt lat="42.36493866411905" lon="13.512493212281289"><ele>957.0</ele><time>2026-05-03T07:30:45Z</time></trkpt><trkpt lat="42.36485576632047" lon="13.512339181746057"><ele>957.0</ele><time>2026-05-03T07:30:46Z</time></trkpt><trkpt lat="42.3647700257619" lon="13.512207295656752"><ele>957.0</ele><time>2026-05-03T07:30:47Z</time></trkpt><trkpt lat="42.36468723070822" lon="13.512097431668021"><ele>957.0</ele><time>2026-05-03T07:30:48Z</time></trkpt><trkpt lat="42.36459440204128" lon="13.511999962416153"><ele>957.0</ele><time>2026-05-03T07:30:49Z</time></trkpt><trkpt lat="42.36445641202423" lon="13.511873628473799"><ele>954.8</ele><time>2026-05-03T07:30:50Z</time></trkpt><trkpt lat="42.364347494938386" lon="13.511741648292729"><ele>952.6</ele><time>2026-05-03T07:30:51Z</time></trkpt><trkpt lat="42.3642634994522" lon="13.5116416492551"><ele>950.3999999999999</ele><time>2026-05-03T07:30:52Z</time></trkpt><trkpt lat="42.364188657466094" lon="13.511556879754172"><ele>948.1999999999999</ele><time>2026-05-03T07:30:52.999Z</time></trkpt><trkpt lat="42.364127111538984" lon="13.511491864651584"><ele>946.0</ele><time>2026-05-03T07:30:53.999Z</time></trkpt><trkpt lat="42.3640484166991" lon="13.51143323637246"><ele>946.0</ele><time>2026-05-03T07:30:54.999Z</time></trkpt><trkpt lat="42.363933494176656" lon="13.511387634725224"><ele>946.0</ele><time>2026-05-03T07:30:55.999Z</time></trkpt><trkpt lat="42.36380973151818" lon="13.511346802904848"><ele>946.0</ele><time>2026-05-03T07:30:56.999Z</time></trkpt><trkpt lat="42.36365359964133" lon="13.511305037448741"><ele>946.0</ele><time>2026-05-03T07:30:57.999Z</time></trkpt><trkpt lat="42.363531495480686" lon="13.511278212688405"><ele>946.1666666666666</ele><time>2026-05-03T07:30:58.999Z</time></trkpt><trkpt lat="42.36343949779822" lon="13.511259801954669"><ele>946.3333333333333</ele><time>2026-05-03T07:30:59.999Z</time></trkpt><trkpt lat="42.36333578310072" lon="13.511237983771572"><ele>946.5</ele><time>2026-05-03T07:31:00.999Z</time></trkpt><trkpt lat="42.363249570307985" lon="13.511227263254767"><ele>946.6666666666667</ele><time>2026-05-03T07:31:01.999Z</time></trkpt><trkpt lat="42.36317212994163" lon="13.511190628757292"><ele>946.8333333333334</ele><time>2026-05-03T07:31:02.999Z</time></trkpt><trkpt lat="42.3631098826796" lon="13.511122292760888"><ele>947.0</ele><time>2026-05-03T07:31:03.999Z</time></trkpt><trkpt lat="42.363028911143275" lon="13.510996927212055"><ele>943.25</ele><time>2026-05-03T07:31:04.999Z</time></trkpt><trkpt lat="42.36293939872973" lon="13.510879818870526"><ele>939.5</ele><time>2026-05-03T07:31:05.999Z</time></trkpt><trkpt lat="42.36284769985324" lon="13.510766593946865"><ele>935.75</ele><time>2026-05-03T07:31:06.999Z</time></trkpt><trkpt lat="42.36277859213115" lon="13.510657273672832"><ele>932.0</ele><time>2026-05-03T07:31:07.999Z</time></trkpt><trkpt lat="42.36270335295558" lon="13.51057405459189"><ele>932.0</ele><time>2026-05-03T07:31:08.999Z</time></trkpt><trkpt lat="42.36262601220217" lon="13.510501224136677"><ele>932.0</ele><time>2026-05-03T07:31:09.999Z</time></trkpt><trkpt lat="42.36255061481379" lon="13.510472361949315"><ele>932.0</ele><time>2026-05-03T07:31:10.999Z</time></trkpt><trkpt lat="42.36245083107523" lon="13.510491356139559"><ele>932.0</ele><time>2026-05-03T07:31:11.999Z</time></trkpt><trkpt lat="42.36233379823412" lon="13.510518149094233"><ele>932.0</ele><time>2026-05-03T07:31:12.999Z</time></trkpt><trkpt lat="42.362229107239735" lon="13.51054941041826"><ele>930.4000000000001</ele><time>2026-05-03T07:31:13.999Z</time></trkpt><trkpt lat="42.36212237570889" lon="13.510584075556473"><ele>928.8000000000001</ele><time>2026-05-03T07:31:14.999Z</time></trkpt><trkpt lat="42.362045185439634" lon="13.510629538259087"><ele>927.2</ele><time>2026-05-03T07:31:15.999Z</time></trkpt><trkpt lat="42.36194952276307" lon="13.510624511591255"><ele>925.6</ele><time>2026-05-03T07:31:16.999Z</time></trkpt><trkpt lat="42.36185149320783" lon="13.510615563985667"><ele>924.0</ele><time>2026-05-03T07:31:17.999Z</time></trkpt><trkpt lat="42.361752106263104" lon="13.510651123677336"><ele>924.0</ele><time>2026-05-03T07:31:18.999Z</time></trkpt><trkpt lat="42.36161718537885" lon="13.510689593877537"><ele>924.0</ele><time>2026-05-03T07:31:19.999Z</time></trkpt><trkpt lat="42.36149578574456" lon="13.510704326125358"><ele>924.0</ele><time>2026-05-03T07:31:20.999Z</time></trkpt><trkpt lat="42.36136782530862" lon="13.510690481108178"><ele>924.0</ele><time>2026-05-03T07:31:21.999Z</time></trkpt><trkpt lat="42.36127171338685" lon="13.510672788834313"><ele>922.75</ele><time>2026-05-03T07:31:22.999Z</time></trkpt><trkpt lat="42.361165514666524" lon="13.510621263760825"><ele>921.5</ele><time>2026-05-03T07:31:23.999Z</time></trkpt><trkpt lat="42.36104456938444" lon="13.510574289844"><ele>920.25</ele><time>2026-05-03T07:31:24.999Z</time></trkpt><trkpt lat="42.360907362702584" lon="13.510541971347143"><ele>919.0</ele><time>2026-05-03T07:31:25.999Z</time></trkpt><trkpt lat="42.36078937338296" lon="13.510503890043186"><ele>918.9999999999999</ele><time>2026-05-03T07:31:26.999Z</time></trkpt><trkpt lat="42.36070277830423" lon="13.510455935750734"><ele>919.0</ele><time>2026-05-03T07:31:27.999Z</time></trkpt><trkpt lat="42.3606356936342" lon="13.510397118319947"><ele>919.0</ele><time>2026-05-03T07:31:28.999Z</time></trkpt><trkpt lat="42.36056019033909" lon="13.510312659656968"><ele>919.0</ele><time>2026-05-03T07:31:29.999Z</time></trkpt><trkpt lat="42.36049114933475" lon="13.510253428382288"><ele>918.9999999999999</ele><time>2026-05-03T07:31:30.999Z</time></trkpt><trkpt lat="42.36042588438493" lon="13.510187158077096"><ele>919.0</ele><time>2026-05-03T07:31:31.999Z</time></trkpt><trkpt lat="42.36035691887163" lon="13.51012650562197"><ele>916.4000000000001</ele><time>2026-05-03T07:31:32.999Z</time></trkpt><trkpt lat="42.360279866970174" lon="13.510044100234477"><ele>913.8000000000001</ele><time>2026-05-03T07:31:33.999Z</time></trkpt><trkpt lat="42.360199703055194" lon="13.509941933286091"><ele>911.1999999999999</ele><time>2026-05-03T07:31:34.999Z</time></trkpt><trkpt lat="42.36012491030508" lon="13.509857704074838"><ele>908.5999999999999</ele><time>2026-05-03T07:31:35.999Z</time></trkpt><trkpt lat="42.36005699495205" lon="13.50978829627332"><ele>906.0</ele><time>2026-05-03T07:31:36.999Z</time></trkpt><trkpt lat="42.36000727694811" lon="13.509727556151331"><ele>906.0</ele><time>2026-05-03T07:31:37.999Z</time></trkpt><trkpt lat="42.35995780843615" lon="13.509647282826585"><ele>905.9999999999999</ele><time>2026-05-03T07:31:38.999Z</time></trkpt><trkpt lat="42.35993552366567" lon="13.509556561648692"><ele>905.9999999999999</ele><time>2026-05-03T07:31:39.999Z</time></trkpt><trkpt lat="42.359910365222824" lon="13.509459452620451"><ele>906.0</ele><time>2026-05-03T07:31:40.999Z</time></trkpt><trkpt lat="42.35988348673047" lon="13.509310857275906"><ele>906.0</ele><time>2026-05-03T07:31:41.999Z</time></trkpt><trkpt lat="42.35984248451601" lon="13.509144168249964"><ele>906.0</ele><time>2026-05-03T07:31:42.999Z</time></trkpt><trkpt lat="42.35979570995088" lon="13.508946550126083"><ele>906.0</ele><time>2026-05-03T07:31:43.999Z</time></trkpt><trkpt lat="42.359752807472745" lon="13.508707045011121"><ele>906.0</ele><time>2026-05-03T07:31:44.999Z</time></trkpt><trkpt lat="42.35971272769968" lon="13.508499781527528"><ele>903.0</ele><time>2026-05-03T07:31:45.999Z</time></trkpt><trkpt lat="42.359684497278685" lon="13.508329451621565"><ele>900.0</ele><time>2026-05-03T07:31:46.999Z</time></trkpt><trkpt lat="42.359645319217414" lon="13.508135972240376"><ele>897.0</ele><time>2026-05-03T07:31:47.999Z</time></trkpt><trkpt lat="42.35960750250734" lon="13.50792038133969"><ele>894.0</ele><time>2026-05-03T07:31:48.999Z</time></trkpt><trkpt lat="42.359576427711936" lon="13.507752472087393"><ele>892.6</ele><time>2026-05-03T07:31:49.999Z</time></trkpt><trkpt lat="42.359551913246705" lon="13.507623040409777"><ele>891.2</ele><time>2026-05-03T07:31:50.999Z</time></trkpt><trkpt lat="42.359552098368304" lon="13.507499315936235"><ele>889.8000000000001</ele><time>2026-05-03T07:31:51.999Z</time></trkpt><trkpt lat="42.359569224448045" lon="13.507371579434365"><ele>888.4000000000001</ele><time>2026-05-03T07:31:52.999Z</time></trkpt><trkpt lat="42.35956113289367" lon="13.50722726872347"><ele>887.0</ele><time>2026-05-03T07:31:53.999Z</time></trkpt><trkpt lat="42.35951317613493" lon="13.507116719003744"><ele>885.8</ele><time>2026-05-03T07:31:54.999Z</time></trkpt><trkpt lat="42.35948127424557" lon="13.507034972774496"><ele>884.6</ele><time>2026-05-03T07:31:55.999Z</time></trkpt><trkpt lat="42.35949987119269" lon="13.50688049002455"><ele>883.3999999999999</ele><time>2026-05-03T07:31:57.999Z</time></trkpt><trkpt lat="42.35949871299687" lon="13.506759111594965"><ele>882.1999999999999</ele><time>2026-05-03T07:31:58.999Z</time></trkpt><trkpt lat="42.35947936363573" lon="13.506651667049104"><ele>881.0</ele><time>2026-05-03T07:32:00Z</time></trkpt><trkpt lat="42.359442104882085" lon="13.506515779524808"><ele>881.0000000000001</ele><time>2026-05-03T07:32:01Z</time></trkpt><trkpt lat="42.35941236147823" lon="13.506424012234682"><ele>881.0</ele><time>2026-05-03T07:32:02Z</time></trkpt><trkpt lat="42.35937427503918" lon="13.5062944869176"><ele>881.0</ele><time>2026-05-03T07:32:04Z</time></trkpt><trkpt lat="42.35928502689256" lon="13.50630166616789"><ele>881.0</ele><time>2026-05-03T07:32:14Z</time></trkpt><trkpt lat="42.35922524344302" lon="13.506348648230533"><ele>881.0000000000001</ele><time>2026-05-03T07:32:15Z</time></trkpt><trkpt lat="42.35914210366793" lon="13.506369019441676"><ele>881.0</ele><time>2026-05-03T07:32:16Z</time></trkpt><trkpt lat="42.35905012743337" lon="13.506300806461104"><ele>880.25</ele><time>2026-05-03T07:32:17Z</time></trkpt><trkpt lat="42.35896259628529" lon="13.506237221602323"><ele>879.5</ele><time>2026-05-03T07:32:18Z</time></trkpt><trkpt lat="42.358877871535405" lon="13.506128850090956"><ele>878.75</ele><time>2026-05-03T07:32:19Z</time></trkpt><trkpt lat="42.35879035458229" lon="13.505982209629279"><ele>878.0</ele><time>2026-05-03T07:32:20Z</time></trkpt><trkpt lat="42.35869678636863" lon="13.505846819964457"><ele>877.3333333333334</ele><time>2026-05-03T07:32:21Z</time></trkpt><trkpt lat="42.358609928686725" lon="13.505678733137241"><ele>876.6666666666667</ele><time>2026-05-03T07:32:22Z</time></trkpt><trkpt lat="42.35852569964861" lon="13.505512101643546"><ele>876.0</ele><time>2026-05-03T07:32:23Z</time></trkpt><trkpt lat="42.3584320002484" lon="13.505343567843711"><ele>876.0</ele><time>2026-05-03T07:32:24Z</time></trkpt><trkpt lat="42.35833662363662" lon="13.50518987134884"><ele>876.0</ele><time>2026-05-03T07:32:25Z</time></trkpt><trkpt lat="42.35823065475375" lon="13.50504284742846"><ele>876.0</ele><time>2026-05-03T07:32:26Z</time></trkpt><trkpt lat="42.35810338249566" lon="13.504909972292856"><ele>883.6666666666667</ele><time>2026-05-03T07:32:27Z</time></trkpt><trkpt lat="42.3579694513088" lon="13.50480146059305"><ele>891.3333333333334</ele><time>2026-05-03T07:32:28Z</time></trkpt><trkpt lat="42.35782628744478" lon="13.50469021989805"><ele>899.0</ele><time>2026-05-03T07:32:29Z</time></trkpt><trkpt lat="42.35770759687112" lon="13.504609226281024"><ele>893.25</ele><time>2026-05-03T07:32:30Z</time></trkpt><trkpt lat="42.357591066823254" lon="13.504544723976935"><ele>887.5</ele><time>2026-05-03T07:32:31Z</time></trkpt><trkpt lat="42.35748722727568" lon="13.504504100454497"><ele>881.75</ele><time>2026-05-03T07:32:32Z</time></trkpt><trkpt lat="42.35737950122331" lon="13.50448439949383"><ele>876.0</ele><time>2026-05-03T07:32:33Z</time></trkpt><trkpt lat="42.35726217315473" lon="13.504472817142721"><ele>877.0</ele><time>2026-05-03T07:32:34Z</time></trkpt><trkpt lat="42.357139377876784" lon="13.504478118932726"><ele>878.0</ele><time>2026-05-03T07:32:35Z</time></trkpt><trkpt lat="42.35701551681524" lon="13.504513475458575"><ele>879.0</ele><time>2026-05-03T07:32:36Z</time></trkpt><trkpt lat="42.356892506656585" lon="13.504561989174828"><ele>880.0</ele><time>2026-05-03T07:32:37Z</time></trkpt><trkpt lat="42.35677248060032" lon="13.504633059361721"><ele>884.5</ele><time>2026-05-03T07:32:38Z</time></trkpt><trkpt lat="42.35666944368664" lon="13.50472618061688"><ele>889.0</ele><time>2026-05-03T07:32:39Z</time></trkpt><trkpt lat="42.356591785505174" lon="13.504862781396612"><ele>893.5</ele><time>2026-05-03T07:32:40Z</time></trkpt><trkpt lat="42.356516236357386" lon="13.505048446377355"><ele>898.0</ele><time>2026-05-03T07:32:41Z</time></trkpt><trkpt lat="42.35646293978271" lon="13.505249596117507"><ele>900.4</ele><time>2026-05-03T07:32:42Z</time></trkpt><trkpt lat="42.35642177931787" lon="13.505415773448831"><ele>902.8</ele><time>2026-05-03T07:32:43Z</time></trkpt><trkpt lat="42.356396919124634" lon="13.50550929648561"><ele>905.2</ele><time>2026-05-03T07:32:44Z</time></trkpt><trkpt lat="42.3565137311839" lon="13.505637273487505"><ele>907.6</ele><time>2026-05-03T07:32:48Z</time></trkpt><trkpt lat="42.356560057633175" lon="13.505698128030277"><ele>910.0</ele><time>2026-05-03T07:32:49Z</time></trkpt><trkpt lat="42.35661553187692" lon="13.505768549405307"><ele>909.9999999999999</ele><time>2026-05-03T07:32:50Z</time></trkpt><trkpt lat="42.356670657688476" lon="13.505835501208855"><ele>910.0</ele><time>2026-05-03T07:32:51Z</time></trkpt><trkpt lat="42.35673319066643" lon="13.505886802374995"><ele>910.0</ele><time>2026-05-03T07:32:52Z</time></trkpt><trkpt lat="42.35679845907103" lon="13.505950137711201"><ele>910.0</ele><time>2026-05-03T07:32:53Z</time></trkpt><trkpt lat="42.35686381605217" lon="13.506005769925148"><ele>909.9999999999999</ele><time>2026-05-03T07:32:54Z</time></trkpt><trkpt lat="42.356924283873326" lon="13.506082847071797"><ele>910.0</ele><time>2026-05-03T07:32:55Z</time></trkpt><trkpt lat="42.35698181578234" lon="13.506187260734084"><ele>912.0</ele><time>2026-05-03T07:32:56Z</time></trkpt><trkpt lat="42.3570204262396" lon="13.50631956738113"><ele>914.0</ele><time>2026-05-03T07:32:57Z</time></trkpt><trkpt lat="42.357011799834574" lon="13.506437397841214"><ele>916.0</ele><time>2026-05-03T07:32:58Z</time></trkpt><trkpt lat="42.35699954704597" lon="13.506603509100161"><ele>918.0</ele><time>2026-05-03T07:33:00Z</time></trkpt><trkpt lat="42.35699787737501" lon="13.506727849636873"><ele>920.0</ele><time>2026-05-03T07:33:02Z</time></trkpt><trkpt lat="42.357059331749504" lon="13.506801354708102"><ele>920.0000000000001</ele><time>2026-05-03T07:33:03.999Z</time></trkpt><trkpt lat="42.35716423767393" lon="13.50676038826331"><ele>920.0</ele><time>2026-05-03T07:33:05.999Z</time></trkpt><trkpt lat="42.357233988369345" lon="13.506716653827217"><ele>920.0</ele><time>2026-05-03T07:33:06.999Z</time></trkpt><trkpt lat="42.357304237359436" lon="13.506674754506651"><ele>920.0</ele><time>2026-05-03T07:33:07.999Z</time></trkpt><trkpt lat="42.357369781251805" lon="13.506630085487696"><ele>920.0000000000001</ele><time>2026-05-03T07:33:08.999Z</time></trkpt><trkpt lat="42.357448057946144" lon="13.506641052820507"><ele>920.0</ele><time>2026-05-03T07:33:10.999Z</time></trkpt><trkpt lat="42.357487607085936" lon="13.50676173110569"><ele>920.8333333333334</ele><time>2026-05-03T07:33:12.999Z</time></trkpt><trkpt lat="42.35750214960213" lon="13.506853235905304"><ele>921.6666666666667</ele><time>2026-05-03T07:33:13.999Z</time></trkpt><trkpt lat="42.35752169338418" lon="13.506969232034736"><ele>922.5</ele><time>2026-05-03T07:33:14.999Z</time></trkpt><trkpt lat="42.35752263724613" lon="13.507096265469231"><ele>923.3333333333333</ele><time>2026-05-03T07:33:15.999Z</time></trkpt><trkpt lat="42.35754050542317" lon="13.507215491593627"><ele>924.1666666666666</ele><time>2026-05-03T07:33:16.999Z</time></trkpt><trkpt lat="42.357545478419375" lon="13.507320562822997"><ele>925.0</ele><time>2026-05-03T07:33:17.999Z</time></trkpt><trkpt lat="42.35755162475483" lon="13.507451907853827"><ele>926.0</ele><time>2026-05-03T07:33:18.999Z</time></trkpt><trkpt lat="42.35754294414857" lon="13.507571899225676"><ele>927.0</ele><time>2026-05-03T07:33:19.999Z</time></trkpt><trkpt lat="42.357520619815524" lon="13.507671487060454"><ele>928.0</ele><time>2026-05-03T07:33:20.999Z</time></trkpt><trkpt lat="42.35750453173768" lon="13.50779838944961"><ele>929.0</ele><time>2026-05-03T07:33:21.999Z</time></trkpt><trkpt lat="42.35751460930864" lon="13.507930781238375"><ele>930.0</ele><time>2026-05-03T07:33:22.999Z</time></trkpt><trkpt lat="42.35753917415795" lon="13.508084623919848"><ele>932.0</ele><time>2026-05-03T07:33:23.999Z</time></trkpt><trkpt lat="42.35756650153156" lon="13.508243870994445"><ele>934.0</ele><time>2026-05-03T07:33:24.999Z</time></trkpt><trkpt lat="42.35756857924255" lon="13.50840039204825"><ele>936.0</ele><time>2026-05-03T07:33:25.999Z</time></trkpt><trkpt lat="42.35754018881838" lon="13.50854450467001"><ele>938.0</ele><time>2026-05-03T07:33:26.999Z</time></trkpt><trkpt lat="42.357488117054764" lon="13.508679432534958"><ele>941.0</ele><time>2026-05-03T07:33:27.999Z</time></trkpt><trkpt lat="42.35746943275647" lon="13.508821682420658"><ele>944.0</ele><time>2026-05-03T07:33:28.999Z</time></trkpt><trkpt lat="42.357454001432295" lon="13.508939166213542"><ele>947.0</ele><time>2026-05-03T07:33:29.999Z</time></trkpt><trkpt lat="42.3574422270564" lon="13.509028806606395"><ele>950.0</ele><time>2026-05-03T07:33:32.999Z</time></trkpt><trkpt lat="42.357574064733825" lon="13.509132263654413"><ele>953.0</ele><time>2026-05-03T07:33:33.999Z</time></trkpt><trkpt lat="42.35765050367189" lon="13.509232696441675"><ele>953.0</ele><time>2026-05-03T07:33:34.999Z</time></trkpt><trkpt lat="42.357752545898514" lon="13.509355758047885"><ele>953.0</ele><time>2026-05-03T07:33:35.999Z</time></trkpt><trkpt lat="42.357826119420146" lon="13.509520742787226"><ele>953.0</ele><time>2026-05-03T07:33:36.999Z</time></trkpt><trkpt lat="42.357893937266404" lon="13.509697624599317"><ele>953.0</ele><time>2026-05-03T07:33:37.999Z</time></trkpt><trkpt lat="42.35793956269177" lon="13.509892621379775"><ele>955.75</ele><time>2026-05-03T07:33:38.999Z</time></trkpt><trkpt lat="42.357965098493985" lon="13.510091878346872"><ele>958.5</ele><time>2026-05-03T07:33:39.999Z</time></trkpt><trkpt lat="42.35797802297984" lon="13.510286313477588"><ele>961.25</ele><time>2026-05-03T07:33:40.999Z</time></trkpt><trkpt lat="42.357943434808504" lon="13.510440753252942"><ele>964.0</ele><time>2026-05-03T07:33:41.999Z</time></trkpt><trkpt lat="42.35791203068621" lon="13.510537323736182"><ele>964.3333333333333</ele><time>2026-05-03T07:33:42.999Z</time></trkpt><trkpt lat="42.35778785618114" lon="13.510572025641377"><ele>964.6666666666666</ele><time>2026-05-03T07:33:44.999Z</time></trkpt><trkpt lat="42.35770935280576" lon="13.510565994603338"><ele>965.0</ele><time>2026-05-03T07:33:45.999Z</time></trkpt><trkpt lat="42.357626187674086" lon="13.510587328124045"><ele>965.3333333333333</ele><time>2026-05-03T07:33:46.999Z</time></trkpt><trkpt lat="42.35756287595337" lon="13.510586341222186"><ele>965.6666666666666</ele><time>2026-05-03T07:33:47.999Z</time></trkpt><trkpt lat="42.35750619506224" lon="13.510647306288968"><ele>966.0</ele><time>2026-05-03T07:33:49.999Z</time></trkpt><trkpt lat="42.357574129115044" lon="13.51082978888359"><ele>966.0</ele><time>2026-05-03T07:33:52.999Z</time></trkpt><trkpt lat="42.35764346449008" lon="13.510933219097263"><ele>966.0</ele><time>2026-05-03T07:33:53.999Z</time></trkpt><trkpt lat="42.35771475069479" lon="13.511059880287899"><ele>966.0</ele><time>2026-05-03T07:33:54.999Z</time></trkpt><trkpt lat="42.357777281449735" lon="13.51120772731793"><ele>966.0</ele><time>2026-05-03T07:33:55.999Z</time></trkpt><trkpt lat="42.35783487679404" lon="13.511387808247923"><ele>966.0</ele><time>2026-05-03T07:33:56.999Z</time></trkpt><trkpt lat="42.357894091347525" lon="13.511585789682304"><ele>966.0</ele><time>2026-05-03T07:33:57.999Z</time></trkpt><trkpt lat="42.357960959350194" lon="13.511778543879135"><ele>966.0</ele><time>2026-05-03T07:33:58.999Z</time></trkpt><trkpt lat="42.35802791518302" lon="13.511953848811446"><ele>966.75</ele><time>2026-05-03T07:33:59.999Z</time></trkpt><trkpt lat="42.35809338134467" lon="13.512126422583052"><ele>967.5</ele><time>2026-05-03T07:34:00.999Z</time></trkpt><trkpt lat="42.35816081684127" lon="13.512301643047234"><ele>968.25</ele><time>2026-05-03T07:34:01.999Z</time></trkpt><trkpt lat="42.35822874372988" lon="13.512476145901987"><ele>969.0</ele><time>2026-05-03T07:34:02.999Z</time></trkpt><trkpt lat="42.35829167278094" lon="13.512645978567232"><ele>969.0</ele><time>2026-05-03T07:34:03.999Z</time></trkpt><trkpt lat="42.35835031678853" lon="13.512808531543754"><ele>969.0</ele><time>2026-05-03T07:34:04.999Z</time></trkpt><trkpt lat="42.35841516411559" lon="13.512977211897029"><ele>969.0</ele><time>2026-05-03T07:34:06Z</time></trkpt><trkpt lat="42.35848208789792" lon="13.513151150046317"><ele>969.0</ele><time>2026-05-03T07:34:07Z</time></trkpt><trkpt lat="42.35854954100025" lon="13.513310666269001"><ele>969.4000000000001</ele><time>2026-05-03T07:34:08Z</time></trkpt><trkpt lat="42.35861634108338" lon="13.513487789215873"><ele>969.8000000000001</ele><time>2026-05-03T07:34:09Z</time></trkpt><trkpt lat="42.35866171829092" lon="13.513631266183538"><ele>970.1999999999999</ele><time>2026-05-03T07:34:10Z</time></trkpt><trkpt lat="42.358691405870715" lon="13.513727340399289"><ele>970.5999999999999</ele><time>2026-05-03T07:34:11Z</time></trkpt><trkpt lat="42.358734238360974" lon="13.51385076015755"><ele>971.0</ele><time>2026-05-03T07:34:14Z</time></trkpt><trkpt lat="42.35879034862364" lon="13.51399322287395"><ele>971.25</ele><time>2026-05-03T07:34:16Z</time></trkpt><trkpt lat="42.35884041675691" lon="13.514113500078869"><ele>971.5</ele><time>2026-05-03T07:34:17Z</time></trkpt><trkpt lat="42.35889858894806" lon="13.514244784192412"><ele>971.75</ele><time>2026-05-03T07:34:18Z</time></trkpt><trkpt lat="42.35896312773719" lon="13.5143887852467"><ele>972.0</ele><time>2026-05-03T07:34:19Z</time></trkpt><trkpt lat="42.35903906050857" lon="13.51456235095864"><ele>975.25</ele><time>2026-05-03T07:34:20Z</time></trkpt><trkpt lat="42.35911332563261" lon="13.514739003761136"><ele>978.5</ele><time>2026-05-03T07:34:21Z</time></trkpt><trkpt lat="42.3591925153896" lon="13.514907052830441"><ele>981.75</ele><time>2026-05-03T07:34:22Z</time></trkpt><trkpt lat="42.35926049394113" lon="13.515024228464668"><ele>985.0</ele><time>2026-05-03T07:34:23Z</time></trkpt><trkpt lat="42.35932852731631" lon="13.515131420614116"><ele>985.0</ele><time>2026-05-03T07:34:24Z</time></trkpt><trkpt lat="42.35938815128672" lon="13.515225362996922"><ele>985.0</ele><time>2026-05-03T07:34:25Z</time></trkpt><trkpt lat="42.35923790385282" lon="13.515508466479147"><ele>985.0</ele><time>2026-05-03T07:34:26Z</time></trkpt><trkpt lat="42.3592041030162" lon="13.515630271163449"><ele>985.0</ele><time>2026-05-03T07:34:27Z</time></trkpt><trkpt lat="42.359146458077234" lon="13.51574763782595"><ele>986.25</ele><time>2026-05-03T07:34:28Z</time></trkpt><trkpt lat="42.35909164538328" lon="13.51589160855788"><ele>987.5</ele><time>2026-05-03T07:34:29Z</time></trkpt><trkpt lat="42.35905256102782" lon="13.516053596475428"><ele>988.75</ele><time>2026-05-03T07:34:30Z</time></trkpt><trkpt lat="42.359031147860065" lon="13.516219818568546"><ele>990.0</ele><time>2026-05-03T07:34:31Z</time></trkpt><trkpt lat="42.35902206808978" lon="13.516382251806036"><ele>993.75</ele><time>2026-05-03T07:34:32Z</time></trkpt><trkpt lat="42.359034151239854" lon="13.516528502359563"><ele>997.5</ele><time>2026-05-03T07:34:33Z</time></trkpt><trkpt lat="42.3590224651001" lon="13.516674222536977"><ele>1001.25</ele><time>2026-05-03T07:34:34Z</time></trkpt><trkpt lat="42.35898519726613" lon="13.516822247173138"><ele>1005.0</ele><time>2026-05-03T07:34:35Z</time></trkpt><trkpt lat="42.3589211967356" lon="13.516973564855562"><ele>1003.0</ele><time>2026-05-03T07:34:36Z</time></trkpt><trkpt lat="42.358832503369314" lon="13.51715874603847"><ele>1001.0</ele><time>2026-05-03T07:34:37Z</time></trkpt><trkpt lat="42.358735570425836" lon="13.517349788094505"><ele>999.0</ele><time>2026-05-03T07:34:38Z</time></trkpt><trkpt lat="42.358662549746995" lon="13.517491763901928"><ele>999.0</ele><time>2026-05-03T07:34:39Z</time></trkpt><trkpt lat="42.35860679897873" lon="13.517590699127929"><ele>999.0000000000001</ele><time>2026-05-03T07:34:40Z</time></trkpt><trkpt lat="42.358563427612275" lon="13.517670478853939"><ele>999.0000000000001</ele><time>2026-05-03T07:34:41Z</time></trkpt><trkpt lat="42.35857954776117" lon="13.517762222136561"><ele>999.0</ele><time>2026-05-03T07:34:43Z</time></trkpt><trkpt lat="42.35869752343935" lon="13.517776158215986"><ele>999.0</ele><time>2026-05-03T07:34:45Z</time></trkpt><trkpt lat="42.35878816712126" lon="13.517668111679795"><ele>999.0</ele><time>2026-05-03T07:34:47Z</time></trkpt><trkpt lat="42.35884149051065" lon="13.517590138500957"><ele>999.0</ele><time>2026-05-03T07:34:48Z</time></trkpt><trkpt lat="42.358914047313554" lon="13.517463658623443"><ele>999.0</ele><time>2026-05-03T07:34:49Z</time></trkpt><trkpt lat="42.359006389060724" lon="13.517315824957707"><ele>999.0</ele><time>2026-05-03T07:34:50Z</time></trkpt><trkpt lat="42.35910616699493" lon="13.517160360755822"><ele>1000.5</ele><time>2026-05-03T07:34:51Z</time></trkpt><trkpt lat="42.35920147534987" lon="13.51701667685822"><ele>1002.0</ele><time>2026-05-03T07:34:52Z</time></trkpt><trkpt lat="42.35928268140763" lon="13.516902799889838"><ele>1003.5</ele><time>2026-05-03T07:34:53Z</time></trkpt><trkpt lat="42.35936011652428" lon="13.516790384439593"><ele>1005.0</ele><time>2026-05-03T07:34:54Z</time></trkpt><trkpt lat="42.35943312996139" lon="13.516708024977484"><ele>1005.0</ele><time>2026-05-03T07:34:55Z</time></trkpt><trkpt lat="42.35951080090768" lon="13.516661926249585"><ele>1005.0</ele><time>2026-05-03T07:34:56Z</time></trkpt><trkpt lat="42.35961314750058" lon="13.51661643333535"><ele>1005.0</ele><time>2026-05-03T07:34:56.999Z</time></trkpt><trkpt lat="42.359728792405846" lon="13.516568195102185"><ele>1005.0</ele><time>2026-05-03T07:34:57.999Z</time></trkpt><trkpt lat="42.35983412759895" lon="13.516552624865126"><ele>1005.0</ele><time>2026-05-03T07:34:58.999Z</time></trkpt><trkpt lat="42.35993888856173" lon="13.516540202843712"><ele>1009.25</ele><time>2026-05-03T07:34:59.999Z</time></trkpt><trkpt lat="42.36005493178728" lon="13.516517063823715"><ele>1013.5</ele><time>2026-05-03T07:35:00.999Z</time></trkpt><trkpt lat="42.360173915289835" lon="13.516493744640487"><ele>1017.75</ele><time>2026-05-03T07:35:01.999Z</time></trkpt><trkpt lat="42.36031304876749" lon="13.516467327323213"><ele>1022.0</ele><time>2026-05-03T07:35:02.999Z</time></trkpt><trkpt lat="42.36042531158278" lon="13.516470943512235"><ele>1024.25</ele><time>2026-05-03T07:35:03.999Z</time></trkpt><trkpt lat="42.36055241980785" lon="13.51648677073674"><ele>1026.5</ele><time>2026-05-03T07:35:04.999Z</time></trkpt><trkpt lat="42.36069032749271" lon="13.516525500714218"><ele>1028.75</ele><time>2026-05-03T07:35:05.999Z</time></trkpt><trkpt lat="42.360830486841365" lon="13.51658244782384"><ele>1031.0</ele><time>2026-05-03T07:35:06.999Z</time></trkpt><trkpt lat="42.36094537721085" lon="13.516641228012274"><ele>1031.0</ele><time>2026-05-03T07:35:07.999Z</time></trkpt><trkpt lat="42.36107932843826" lon="13.51665390226215"><ele>1031.0</ele><time>2026-05-03T07:35:08.999Z</time></trkpt><trkpt lat="42.361234772309125" lon="13.516639494125599"><ele>1031.0</ele><time>2026-05-03T07:35:09.999Z</time></trkpt><trkpt lat="42.361389487465885" lon="13.51661195904246"><ele>1031.0</ele><time>2026-05-03T07:35:10.999Z</time></trkpt><trkpt lat="42.36154650963585" lon="13.516591468169688"><ele>1032.5</ele><time>2026-05-03T07:35:11.999Z</time></trkpt><trkpt lat="42.36168084694835" lon="13.516588623236853"><ele>1034.0</ele><time>2026-05-03T07:35:12.999Z</time></trkpt><trkpt lat="42.361812947887444" lon="13.516601038645293"><ele>1035.5</ele><time>2026-05-03T07:35:13.999Z</time></trkpt><trkpt lat="42.36192975715848" lon="13.516608155569697"><ele>1037.0</ele><time>2026-05-03T07:35:14.999Z</time></trkpt><trkpt lat="42.362038783172046" lon="13.516598273151295"><ele>1037.0</ele><time>2026-05-03T07:35:15.999Z</time></trkpt><trkpt lat="42.36217509491138" lon="13.516588281814734"><ele>1037.0</ele><time>2026-05-03T07:35:16.999Z</time></trkpt><trkpt lat="42.36230492970399" lon="13.516581983097153"><ele>1037.0</ele><time>2026-05-03T07:35:17.999Z</time></trkpt><trkpt lat="42.36243291268113" lon="13.516596230543893"><ele>1037.0</ele><time>2026-05-03T07:35:18.999Z</time></trkpt><trkpt lat="42.36257533870597" lon="13.516622504747813"><ele>1038.25</ele><time>2026-05-03T07:35:19.999Z</time></trkpt><trkpt lat="42.36272224034377" lon="13.516650561042148"><ele>1039.5</ele><time>2026-05-03T07:35:20.999Z</time></trkpt><trkpt lat="42.36285199528815" lon="13.516682480268445"><ele>1040.75</ele><time>2026-05-03T07:35:21.999Z</time></trkpt><trkpt lat="42.36296163508379" lon="13.516728009698648"><ele>1042.0</ele><time>2026-05-03T07:35:22.999Z</time></trkpt><trkpt lat="42.36306359298098" lon="13.516772841953781"><ele>1042.0</ele><time>2026-05-03T07:35:23.999Z</time></trkpt><trkpt lat="42.36314688960654" lon="13.516835096856203"><ele>1042.0</ele><time>2026-05-03T07:35:24.999Z</time></trkpt><trkpt lat="42.3632309154889" lon="13.516924089545475"><ele>1042.0</ele><time>2026-05-03T07:35:25.999Z</time></trkpt><trkpt lat="42.36333494580203" lon="13.517015670818186"><ele>1042.0</ele><time>2026-05-03T07:35:26.999Z</time></trkpt><trkpt lat="42.36345597669953" lon="13.517110579437222"><ele>1045.5</ele><time>2026-05-03T07:35:27.999Z</time></trkpt><trkpt lat="42.36359163812727" lon="13.517193650783058"><ele>1049.0</ele><time>2026-05-03T07:35:28.999Z</time></trkpt><trkpt lat="42.36370936143707" lon="13.517262884851137"><ele>1052.5</ele><time>2026-05-03T07:35:29.999Z</time></trkpt><trkpt lat="42.363829635866814" lon="13.517313322289041"><ele>1056.0</ele><time>2026-05-03T07:35:30.999Z</time></trkpt><trkpt lat="42.36394487133083" lon="13.517337526855169"><ele>1056.0</ele><time>2026-05-03T07:35:31.999Z</time></trkpt><trkpt lat="42.36404675567291" lon="13.517344116680887"><ele>1056.0</ele><time>2026-05-03T07:35:32.999Z</time></trkpt><trkpt lat="42.364152295989086" lon="13.517352720476778"><ele>1056.0</ele><time>2026-05-03T07:35:33.999Z</time></trkpt><trkpt lat="42.364268908014765" lon="13.517362870317637"><ele>1056.0</ele><time>2026-05-03T07:35:34.999Z</time></trkpt><trkpt lat="42.364410733096584" lon="13.517399724147236"><ele>1056.0</ele><time>2026-05-03T07:35:35.999Z</time></trkpt><trkpt lat="42.36451407454995" lon="13.517424440610604"><ele>1056.0</ele><time>2026-05-03T07:35:36.999Z</time></trkpt><trkpt lat="42.36460105063335" lon="13.517451452776665"><ele>1056.0</ele><time>2026-05-03T07:35:37.999Z</time></trkpt><trkpt lat="42.36466626257228" lon="13.517474612282767"><ele>1056.0</ele><time>2026-05-03T07:35:38.999Z</time></trkpt><trkpt lat="42.36476726668228" lon="13.517514267117766"><ele>1056.0</ele><time>2026-05-03T07:35:40.999Z</time></trkpt><trkpt lat="42.364830842512426" lon="13.517541083044717"><ele>1056.0</ele><time>2026-05-03T07:35:41.999Z</time></trkpt><trkpt lat="42.36495782601068" lon="13.517619600670075"><ele>1056.6666666666667</ele><time>2026-05-03T07:35:43.999Z</time></trkpt><trkpt lat="42.36503651358453" lon="13.517652261405761"><ele>1057.3333333333333</ele><time>2026-05-03T07:35:44.999Z</time></trkpt><trkpt lat="42.36511768291868" lon="13.517676046838194"><ele>1058.0</ele><time>2026-05-03T07:35:45.999Z</time></trkpt><trkpt lat="42.365194442340766" lon="13.517727858451597"><ele>1058.6666666666665</ele><time>2026-05-03T07:35:46.999Z</time></trkpt><trkpt lat="42.36527832387101" lon="13.517772353907482"><ele>1059.3333333333333</ele><time>2026-05-03T07:35:47.999Z</time></trkpt><trkpt lat="42.36535360536403" lon="13.517805768605898"><ele>1060.0</ele><time>2026-05-03T07:35:48.999Z</time></trkpt><trkpt lat="42.36542478642692" lon="13.517866380048131"><ele>1061.8</ele><time>2026-05-03T07:35:50.999Z</time></trkpt><trkpt lat="42.36552889819157" lon="13.517918893561358"><ele>1063.6</ele><time>2026-05-03T07:35:52.999Z</time></trkpt><trkpt lat="42.36562111018931" lon="13.517960778785065"><ele>1065.4</ele><time>2026-05-03T07:35:53.999Z</time></trkpt><trkpt lat="42.36572841988465" lon="13.518034135835393"><ele>1067.2</ele><time>2026-05-03T07:35:54.999Z</time></trkpt><trkpt lat="42.365800345216" lon="13.518109112922435"><ele>1069.0</ele><time>2026-05-03T07:35:55.999Z</time></trkpt><trkpt lat="42.365806832114366" lon="13.518215590689511"><ele>1069.0</ele><time>2026-05-03T07:35:57.999Z</time></trkpt><trkpt lat="42.36574550924227" lon="13.518262602376716"><ele>1069.0</ele><time>2026-05-03T07:35:58.999Z</time></trkpt><trkpt lat="42.365655598329106" lon="13.518228446448342"><ele>1069.0</ele><time>2026-05-03T07:36:00.999Z</time></trkpt><trkpt lat="42.36559159149237" lon="13.518188233439234"><ele>1069.0</ele><time>2026-05-03T07:36:01.999Z</time></trkpt><trkpt lat="42.36550375959064" lon="13.518152148538922"><ele>1069.0</ele><time>2026-05-03T07:36:02.999Z</time></trkpt><trkpt lat="42.365387384571974" lon="13.518118606429187"><ele>1069.0</ele><time>2026-05-03T07:36:03.999Z</time></trkpt><trkpt lat="42.36528761796935" lon="13.518107465433001"><ele>1071.0</ele><time>2026-05-03T07:36:04.999Z</time></trkpt><trkpt lat="42.36516646356543" lon="13.51811721009586"><ele>1073.0</ele><time>2026-05-03T07:36:05.999Z</time></trkpt><trkpt lat="42.36504989503802" lon="13.51813434258828"><ele>1075.0</ele><time>2026-05-03T07:36:06.999Z</time></trkpt><trkpt lat="42.364920656993" lon="13.518154061822365"><ele>1077.0</ele><time>2026-05-03T07:36:07.999Z</time></trkpt><trkpt lat="42.36481153913335" lon="13.51816810070455"><ele>1077.0</ele><time>2026-05-03T07:36:08.999Z</time></trkpt><trkpt lat="42.364727535276764" lon="13.51818119179071"><ele>1077.0</ele><time>2026-05-03T07:36:09.999Z</time></trkpt><trkpt lat="42.364642090372605" lon="13.518223199813061"><ele>1077.0</ele><time>2026-05-03T07:36:12Z</time></trkpt><trkpt lat="42.36461240710772" lon="13.518401104787484"><ele>1077.0</ele><time>2026-05-03T07:36:14Z</time></trkpt><trkpt lat="42.36470760250401" lon="13.518528069468328"><ele>1077.0</ele><time>2026-05-03T07:36:16Z</time></trkpt><trkpt lat="42.36481146828064" lon="13.5184841693111"><ele>1077.0</ele><time>2026-05-03T07:36:17Z</time></trkpt><trkpt lat="42.36493295307108" lon="13.518495789984224"><ele>1077.0</ele><time>2026-05-03T07:36:18Z</time></trkpt><trkpt lat="42.365060203602894" lon="13.51850040518375"><ele>1077.0</ele><time>2026-05-03T07:36:19Z</time></trkpt><trkpt lat="42.36519167666216" lon="13.51855287054056"><ele>1077.0</ele><time>2026-05-03T07:36:20Z</time></trkpt><trkpt lat="42.36528222279437" lon="13.51867171186538"><ele>1079.0</ele><time>2026-05-03T07:36:21Z</time></trkpt><trkpt lat="42.36537499065886" lon="13.518770043492552"><ele>1081.0</ele><time>2026-05-03T07:36:22Z</time></trkpt><trkpt lat="42.3654801888014" lon="13.518880931717753"><ele>1083.0</ele><time>2026-05-03T07:36:23Z</time></trkpt><trkpt lat="42.36560961661394" lon="13.518998146174878"><ele>1085.0</ele><time>2026-05-03T07:36:24Z</time></trkpt><trkpt lat="42.36571191442169" lon="13.519122252054906"><ele>1085.0</ele><time>2026-05-03T07:36:25Z</time></trkpt><trkpt lat="42.36577686369592" lon="13.519207798890836"><ele>1085.0</ele><time>2026-05-03T07:36:26Z</time></trkpt><trkpt lat="42.36580618814819" lon="13.51937453783879"><ele>1085.0</ele><time>2026-05-03T07:36:28Z</time></trkpt><trkpt lat="42.36579591526831" lon="13.519498377767665"><ele>1085.0</ele><time>2026-05-03T07:36:29Z</time></trkpt><trkpt lat="42.36579516525639" lon="13.51966491865295"><ele>1085.0</ele><time>2026-05-03T07:36:30Z</time></trkpt><trkpt lat="42.36579571673155" lon="13.51985667978705"><ele>1087.75</ele><time>2026-05-03T07:36:31Z</time></trkpt><trkpt lat="42.36579356931926" lon="13.520047477628834"><ele>1090.5</ele><time>2026-05-03T07:36:32Z</time></trkpt><trkpt lat="42.36579186322939" lon="13.52020708926198"><ele>1093.25</ele><time>2026-05-03T07:36:33Z</time></trkpt><trkpt lat="42.36580897646344" lon="13.520373118350964"><ele>1096.0</ele><time>2026-05-03T07:36:34Z</time></trkpt><trkpt lat="42.36581364313282" lon="13.520534789709918"><ele>1096.5</ele><time>2026-05-03T07:36:35Z</time></trkpt><trkpt lat="42.36584838519774" lon="13.520658461910296"><ele>1097.0</ele><time>2026-05-03T07:36:36Z</time></trkpt><trkpt lat="42.3658737284104" lon="13.520776952778336"><ele>1097.5</ele><time>2026-05-03T07:36:37Z</time></trkpt><trkpt lat="42.36587182904748" lon="13.520885093353634"><ele>1098.0</ele><time>2026-05-03T07:36:38Z</time></trkpt><trkpt lat="42.36586263430518" lon="13.521012239092295"><ele>1098.5</ele><time>2026-05-03T07:36:39Z</time></trkpt><trkpt lat="42.36585435270744" lon="13.521127534219886"><ele>1099.0</ele><time>2026-05-03T07:36:40Z</time></trkpt><trkpt lat="42.365841668070665" lon="13.52126110714443"><ele>1099.5</ele><time>2026-05-03T07:36:41Z</time></trkpt><trkpt lat="42.36582607883415" lon="13.521423399982984"><ele>1100.0</ele><time>2026-05-03T07:36:42Z</time></trkpt><trkpt lat="42.36580632844561" lon="13.521591880175949"><ele>1100.5</ele><time>2026-05-03T07:36:43Z</time></trkpt><trkpt lat="42.3657612555222" lon="13.521747491092324"><ele>1101.0</ele><time>2026-05-03T07:36:44Z</time></trkpt><trkpt lat="42.36573847428568" lon="13.521884395591277"><ele>1101.0</ele><time>2026-05-03T07:36:45Z</time></trkpt><trkpt lat="42.365742287353186" lon="13.521992515620115"><ele>1101.0</ele><time>2026-05-03T07:36:46Z</time></trkpt><trkpt lat="42.365743079260184" lon="13.522158884168672"><ele>1101.0</ele><time>2026-05-03T07:36:47Z</time></trkpt><trkpt lat="42.36574568915877" lon="13.522291739637495"><ele>1101.0</ele><time>2026-05-03T07:36:48Z</time></trkpt><trkpt lat="42.36572044144088" lon="13.522403632459415"><ele>1101.0</ele><time>2026-05-03T07:36:49Z</time></trkpt><trkpt lat="42.36567150464565" lon="13.522468971142255"><ele>1102.75</ele><time>2026-05-03T07:36:50Z</time></trkpt><trkpt lat="42.36559168402098" lon="13.522576397861066"><ele>1104.5</ele><time>2026-05-03T07:36:51Z</time></trkpt><trkpt lat="42.36550620872846" lon="13.522715928819375"><ele>1106.25</ele><time>2026-05-03T07:36:52Z</time></trkpt><trkpt lat="42.36543271106422" lon="13.522837754674025"><ele>1108.0</ele><time>2026-05-03T07:36:53Z</time></trkpt><trkpt lat="42.3653511365932" lon="13.522965994181517"><ele>1109.2</ele><time>2026-05-03T07:36:54Z</time></trkpt><trkpt lat="42.36526991686999" lon="13.523086929452237"><ele>1110.4</ele><time>2026-05-03T07:36:55Z</time></trkpt><trkpt lat="42.365204817427376" lon="13.523178321312072"><ele>1111.6000000000001</ele><time>2026-05-03T07:36:56Z</time></trkpt><trkpt lat="42.36513355532879" lon="13.523277400717609"><ele>1112.8</ele><time>2026-05-03T07:36:57Z</time></trkpt><trkpt lat="42.36505524909677" lon="13.523386274007157"><ele>1114.0</ele><time>2026-05-03T07:36:58Z</time></trkpt><trkpt lat="42.36497829283225" lon="13.52349327034704"><ele>1114.0</ele><time>2026-05-03T07:36:59Z</time></trkpt><trkpt lat="42.36490416013731" lon="13.523597106610122"><ele>1114.0</ele><time>2026-05-03T07:37:00Z</time></trkpt><trkpt lat="42.36483267554666" lon="13.523699725756657"><ele>1114.0</ele><time>2026-05-03T07:37:01Z</time></trkpt><trkpt lat="42.364772698234255" lon="13.523824114611365"><ele>1114.0</ele><time>2026-05-03T07:37:02Z</time></trkpt><trkpt lat="42.3647136142452" lon="13.523939651311201"><ele>1114.0</ele><time>2026-05-03T07:37:03Z</time></trkpt><trkpt lat="42.364644705565084" lon="13.524080594181251"><ele>1116.0</ele><time>2026-05-03T07:37:04Z</time></trkpt><trkpt lat="42.36459466418481" lon="13.524231002681177"><ele>1118.0</ele><time>2026-05-03T07:37:05Z</time></trkpt><trkpt lat="42.3645564919877" lon="13.524393592366316"><ele>1120.0</ele><time>2026-05-03T07:37:06Z</time></trkpt><trkpt lat="42.364518044679926" lon="13.52456868868347"><ele>1122.0</ele><time>2026-05-03T07:37:07Z</time></trkpt><trkpt lat="42.36449077652673" lon="13.524751555411642"><ele>1122.2</ele><time>2026-05-03T07:37:08Z</time></trkpt><trkpt lat="42.36447247715596" lon="13.524884711860325"><ele>1122.4</ele><time>2026-05-03T07:37:09Z</time></trkpt><trkpt lat="42.36447141613052" lon="13.525012078280064"><ele>1122.6</ele><time>2026-05-03T07:37:10Z</time></trkpt><trkpt lat="42.364484479454674" lon="13.525129832145131"><ele>1122.8</ele><time>2026-05-03T07:37:11Z</time></trkpt><trkpt lat="42.36452636177287" lon="13.525272667498305"><ele>1123.0</ele><time>2026-05-03T07:37:11.999Z</time></trkpt><trkpt lat="42.36456729856166" lon="13.52547624870865"><ele>1123.3333333333333</ele><time>2026-05-03T07:37:12.999Z</time></trkpt><trkpt lat="42.36457500906931" lon="13.525715592830341"><ele>1123.6666666666667</ele><time>2026-05-03T07:37:13.999Z</time></trkpt><trkpt lat="42.36457266523652" lon="13.52592276562326"><ele>1124.0</ele><time>2026-05-03T07:37:14.999Z</time></trkpt><trkpt lat="42.36455487636011" lon="13.526151061937286"><ele>1124.6666666666667</ele><time>2026-05-03T07:37:15.999Z</time></trkpt><trkpt lat="42.364525121052054" lon="13.526351250167282"><ele>1125.3333333333333</ele><time>2026-05-03T07:37:16.999Z</time></trkpt><trkpt lat="42.36450502907112" lon="13.526576833834861"><ele>1126.0</ele><time>2026-05-03T07:37:17.999Z</time></trkpt><trkpt lat="42.36451647247939" lon="13.526768647321697"><ele>1126.0</ele><time>2026-05-03T07:37:18.999Z</time></trkpt><trkpt lat="42.364533126167295" lon="13.526933620834207"><ele>1126.0</ele><time>2026-05-03T07:37:19.999Z</time></trkpt><trkpt lat="42.36455827353295" lon="13.527101438974112"><ele>1126.0</ele><time>2026-05-03T07:37:20.999Z</time></trkpt><trkpt lat="42.36457491530885" lon="13.527246974421681"><ele>1126.0</ele><time>2026-05-03T07:37:21.999Z</time></trkpt><trkpt lat="42.36459956882173" lon="13.527440407983642"><ele>1127.5</ele><time>2026-05-03T07:37:22.999Z</time></trkpt><trkpt lat="42.36460258885488" lon="13.527628669662374"><ele>1129.0</ele><time>2026-05-03T07:37:23.999Z</time></trkpt><trkpt lat="42.36459859454483" lon="13.527809079184694"><ele>1130.5</ele><time>2026-05-03T07:37:24.999Z</time></trkpt><trkpt lat="42.36458218779779" lon="13.5279853318417"><ele>1132.0</ele><time>2026-05-03T07:37:25.999Z</time></trkpt><trkpt lat="42.36455226322278" lon="13.528173910023115"><ele>1134.0</ele><time>2026-05-03T07:37:26.999Z</time></trkpt><trkpt lat="42.364518009212055" lon="13.52839948514495"><ele>1136.0</ele><time>2026-05-03T07:37:27.999Z</time></trkpt><trkpt lat="42.36451873599135" lon="13.528642315637692"><ele>1138.0</ele><time>2026-05-03T07:37:28.999Z</time></trkpt><trkpt lat="42.36451146526073" lon="13.528819771457947"><ele>1140.5</ele><time>2026-05-03T07:37:29.999Z</time></trkpt><trkpt lat="42.36454074059672" lon="13.529013707078876"><ele>1143.0</ele><time>2026-05-03T07:37:30.999Z</time></trkpt><trkpt lat="42.36452375536028" lon="13.52921340064706"><ele>1145.5</ele><time>2026-05-03T07:37:31.999Z</time></trkpt><trkpt lat="42.36454146932097" lon="13.529383195352375"><ele>1148.0</ele><time>2026-05-03T07:37:32.999Z</time></trkpt><trkpt lat="42.36458028765887" lon="13.529471617762255"><ele>1149.6</ele><time>2026-05-03T07:37:33.999Z</time></trkpt><trkpt lat="42.36469641638808" lon="13.529505399000469"><ele>1151.1999999999998</ele><time>2026-05-03T07:37:35.999Z</time></trkpt><trkpt lat="42.3647542041655" lon="13.529456233271295"><ele>1152.8</ele><time>2026-05-03T07:37:36.999Z</time></trkpt><trkpt lat="42.36479679622643" lon="13.529348549544608"><ele>1154.3999999999999</ele><time>2026-05-03T07:37:37.999Z</time></trkpt><trkpt lat="42.364832576404" lon="13.529219007058588"><ele>1156.0</ele><time>2026-05-03T07:37:38.999Z</time></trkpt><trkpt lat="42.36488476593811" lon="13.5290773529953"><ele>1156.0</ele><time>2026-05-03T07:37:39.999Z</time></trkpt><trkpt lat="42.36496784595239" lon="13.528995662460654"><ele>1156.0</ele><time>2026-05-03T07:37:40.999Z</time></trkpt><trkpt lat="42.365039973403775" lon="13.52889559920219"><ele>1156.0</ele><time>2026-05-03T07:37:41.999Z</time></trkpt><trkpt lat="42.36514440908396" lon="13.528824963089649"><ele>1156.0</ele><time>2026-05-03T07:37:42.999Z</time></trkpt><trkpt lat="42.36525182867814" lon="13.528759565237337"><ele>1156.0</ele><time>2026-05-03T07:37:43.999Z</time></trkpt><trkpt lat="42.36535914937163" lon="13.528692276809885"><ele>1156.0</ele><time>2026-05-03T07:37:44.999Z</time></trkpt><trkpt lat="42.365445178067574" lon="13.528636554613293"><ele>1156.0</ele><time>2026-05-03T07:37:45.999Z</time></trkpt><trkpt lat="42.36553734864313" lon="13.528617857754394"><ele>1156.0</ele><time>2026-05-03T07:37:47.999Z</time></trkpt><trkpt lat="42.36557284009068" lon="13.528714380742285"><ele>1156.0</ele><time>2026-05-03T07:37:49.999Z</time></trkpt><trkpt lat="42.365525961838415" lon="13.528792788302631"><ele>1156.0</ele><time>2026-05-03T07:37:51.999Z</time></trkpt><trkpt lat="42.36542772326352" lon="13.528813172447897"><ele>1156.0</ele><time>2026-05-03T07:37:53.999Z</time></trkpt><trkpt lat="42.36536570406079" lon="13.528856641668986"><ele>1156.0</ele><time>2026-05-03T07:37:54.999Z</time></trkpt><trkpt lat="42.365300007550864" lon="13.52890268823464"><ele>1156.0</ele><time>2026-05-03T07:37:55.999Z</time></trkpt><trkpt lat="42.36522964044726" lon="13.528973893247537"><ele>1156.0</ele><time>2026-05-03T07:37:56.999Z</time></trkpt><trkpt lat="42.365172030754884" lon="13.529055135353365"><ele>1156.0</ele><time>2026-05-03T07:37:57.999Z</time></trkpt><trkpt lat="42.365121994281736" lon="13.5291492785161"><ele>1156.0</ele><time>2026-05-03T07:37:58.999Z</time></trkpt><trkpt lat="42.36508495513346" lon="13.529243042868641"><ele>1156.0</ele><time>2026-05-03T07:37:59.999Z</time></trkpt><trkpt lat="42.36505948301213" lon="13.52933240578064"><ele>1156.0</ele><time>2026-05-03T07:38:00.999Z</time></trkpt><trkpt lat="42.3650527602303" lon="13.52944185684162"><ele>1156.0</ele><time>2026-05-03T07:38:01.999Z</time></trkpt><trkpt lat="42.365072309978004" lon="13.529557158967235"><ele>1156.0</ele><time>2026-05-03T07:38:02.999Z</time></trkpt><trkpt lat="42.365076373009664" lon="13.5296715664758"><ele>1156.0</ele><time>2026-05-03T07:38:03.999Z</time></trkpt><trkpt lat="42.36509454383576" lon="13.529774446449087"><ele>1156.0</ele><time>2026-05-03T07:38:04.999Z</time></trkpt><trkpt lat="42.36513193488539" lon="13.529859394981578"><ele>1156.0</ele><time>2026-05-03T07:38:05.999Z</time></trkpt><trkpt lat="42.36518292773727" lon="13.529932968898736"><ele>1156.8333333333333</ele><time>2026-05-03T07:38:06.999Z</time></trkpt><trkpt lat="42.36524568495532" lon="13.529999529076258"><ele>1157.6666666666665</ele><time>2026-05-03T07:38:07.999Z</time></trkpt><trkpt lat="42.36530545731708" lon="13.530060017451818"><ele>1158.5</ele><time>2026-05-03T07:38:08.999Z</time></trkpt><trkpt lat="42.36536349899252" lon="13.530121017103145"><ele>1159.3333333333333</ele><time>2026-05-03T07:38:09.999Z</time></trkpt><trkpt lat="42.36542138991877" lon="13.530199004867642"><ele>1160.1666666666667</ele><time>2026-05-03T07:38:10.999Z</time></trkpt><trkpt lat="42.36549777787029" lon="13.53029433441009"><ele>1161.0</ele><time>2026-05-03T07:38:11.999Z</time></trkpt><trkpt lat="42.36556799198383" lon="13.530402776329439"><ele>1164.0</ele><time>2026-05-03T07:38:12.999Z</time></trkpt><trkpt lat="42.36561470394544" lon="13.53053735643506"><ele>1167.0</ele><time>2026-05-03T07:38:13.999Z</time></trkpt><trkpt lat="42.36563460498371" lon="13.530685960416188"><ele>1170.0</ele><time>2026-05-03T07:38:14.999Z</time></trkpt><trkpt lat="42.36563952678592" lon="13.530849963297008"><ele>1173.0</ele><time>2026-05-03T07:38:15.999Z</time></trkpt><trkpt lat="42.365653294344746" lon="13.531028116323162"><ele>1173.0</ele><time>2026-05-03T07:38:16.999Z</time></trkpt><trkpt lat="42.365696847651876" lon="13.531213077841915"><ele>1173.0</ele><time>2026-05-03T07:38:18Z</time></trkpt><trkpt lat="42.36576427707838" lon="13.531353032116995"><ele>1173.0</ele><time>2026-05-03T07:38:19Z</time></trkpt><trkpt lat="42.36584633271813" lon="13.531486811127378"><ele>1173.0</ele><time>2026-05-03T07:38:20Z</time></trkpt><trkpt lat="42.36590924215209" lon="13.531619427813485"><ele>1174.25</ele><time>2026-05-03T07:38:21Z</time></trkpt><trkpt lat="42.36596221465316" lon="13.531775507388975"><ele>1175.5</ele><time>2026-05-03T07:38:22Z</time></trkpt><trkpt lat="42.36600096210982" lon="13.53193954032817"><ele>1176.75</ele><time>2026-05-03T07:38:23Z</time></trkpt><trkpt lat="42.366031225283876" lon="13.53210152020662"><ele>1178.0</ele><time>2026-05-03T07:38:24Z</time></trkpt><trkpt lat="42.366035147429756" lon="13.532247745179447"><ele>1178.25</ele><time>2026-05-03T07:38:25Z</time></trkpt><trkpt lat="42.366015034582524" lon="13.53240142071151"><ele>1178.5</ele><time>2026-05-03T07:38:26Z</time></trkpt><trkpt lat="42.36597703915086" lon="13.532549520635225"><ele>1178.75</ele><time>2026-05-03T07:38:27Z</time></trkpt><trkpt lat="42.36590980803247" lon="13.532663740844173"><ele>1179.0</ele><time>2026-05-03T07:38:28Z</time></trkpt><trkpt lat="42.36582384838498" lon="13.532777539944114"><ele>1181.25</ele><time>2026-05-03T07:38:29Z</time></trkpt><trkpt lat="42.36572580738613" lon="13.532892573920513"><ele>1183.5</ele><time>2026-05-03T07:38:30Z</time></trkpt><trkpt lat="42.36562309134781" lon="13.532979116737069"><ele>1185.75</ele><time>2026-05-03T07:38:31Z</time></trkpt><trkpt lat="42.36550967808118" lon="13.533042719784907"><ele>1188.0</ele><time>2026-05-03T07:38:32Z</time></trkpt><trkpt lat="42.36537328206581" lon="13.533140060589744"><ele>1193.0</ele><time>2026-05-03T07:38:33Z</time></trkpt><trkpt lat="42.36524551187186" lon="13.533266541495454"><ele>1198.0</ele><time>2026-05-03T07:38:34Z</time></trkpt><trkpt lat="42.365143957085145" lon="13.533416418297351"><ele>1203.0</ele><time>2026-05-03T07:38:35Z</time></trkpt><trkpt lat="42.36507534238334" lon="13.53360376870338"><ele>1204.6666666666667</ele><time>2026-05-03T07:38:36Z</time></trkpt><trkpt lat="42.36503447776991" lon="13.53378429800593"><ele>1206.3333333333335</ele><time>2026-05-03T07:38:37Z</time></trkpt><trkpt lat="42.36501315092913" lon="13.534003989084237"><ele>1208.0</ele><time>2026-05-03T07:38:38Z</time></trkpt><trkpt lat="42.365010390628655" lon="13.534236090294947"><ele>1208.0</ele><time>2026-05-03T07:38:39Z</time></trkpt><trkpt lat="42.36498465566734" lon="13.53450742150106"><ele>1208.0</ele><time>2026-05-03T07:38:40Z</time></trkpt><trkpt lat="42.36497134260147" lon="13.534774454647554"><ele>1208.0</ele><time>2026-05-03T07:38:41Z</time></trkpt><trkpt lat="42.364971501993594" lon="13.535015038103522"><ele>1209.6666666666667</ele><time>2026-05-03T07:38:42Z</time></trkpt><trkpt lat="42.364946858263984" lon="13.53520038484843"><ele>1211.3333333333333</ele><time>2026-05-03T07:38:43Z</time></trkpt><trkpt lat="42.3649140894141" lon="13.535379496685445"><ele>1213.0</ele><time>2026-05-03T07:38:44Z</time></trkpt><trkpt lat="42.36487044787941" lon="13.535608768777893"><ele>1213.3333333333333</ele><time>2026-05-03T07:38:45Z</time></trkpt><trkpt lat="42.364817668888826" lon="13.53586802223942"><ele>1213.6666666666667</ele><time>2026-05-03T07:38:46Z</time></trkpt><trkpt lat="42.36477118773929" lon="13.536137359764183"><ele>1214.0</ele><time>2026-05-03T07:38:47Z</time></trkpt><trkpt lat="42.36470126984102" lon="13.536360428930415"><ele>1214.5</ele><time>2026-05-03T07:38:48Z</time></trkpt><trkpt lat="42.36467819190978" lon="13.53657816631066"><ele>1215.0</ele><time>2026-05-03T07:38:49Z</time></trkpt><trkpt lat="42.364629105284656" lon="13.53676334059126"><ele>1215.5</ele><time>2026-05-03T07:38:50Z</time></trkpt><trkpt lat="42.36457564295459" lon="13.5369156941568"><ele>1216.0</ele><time>2026-05-03T07:38:51Z</time></trkpt><trkpt lat="42.36449306315116" lon="13.537098030795175"><ele>1217.0</ele><time>2026-05-03T07:38:52Z</time></trkpt><trkpt lat="42.36438056597768" lon="13.537321686951554"><ele>1218.0</ele><time>2026-05-03T07:38:53Z</time></trkpt><trkpt lat="42.36426223274625" lon="13.537544136262703"><ele>1219.0</ele><time>2026-05-03T07:38:54Z</time></trkpt><trkpt lat="42.36414211735409" lon="13.537779246963632"><ele>1220.25</ele><time>2026-05-03T07:38:55Z</time></trkpt><trkpt lat="42.36405410526473" lon="13.53796013950905"><ele>1221.5</ele><time>2026-05-03T07:38:56Z</time></trkpt><trkpt lat="42.36397237690515" lon="13.538108473847267"><ele>1222.75</ele><time>2026-05-03T07:38:57Z</time></trkpt><trkpt lat="42.3638857682978" lon="13.538221538294279"><ele>1224.0</ele><time>2026-05-03T07:38:58Z</time></trkpt><trkpt lat="42.363781623180635" lon="13.53835062783637"><ele>1224.0</ele><time>2026-05-03T07:38:59Z</time></trkpt><trkpt lat="42.36364129630214" lon="13.538522053511933"><ele>1224.0</ele><time>2026-05-03T07:39:00Z</time></trkpt><trkpt lat="42.36348506698681" lon="13.538712458031718"><ele>1224.0</ele><time>2026-05-03T07:39:01Z</time></trkpt><trkpt lat="42.36333199207825" lon="13.538912834394914"><ele>1225.3333333333333</ele><time>2026-05-03T07:39:02Z</time></trkpt><trkpt lat="42.36317968826168" lon="13.53912253417838"><ele>1226.6666666666665</ele><time>2026-05-03T07:39:03Z</time></trkpt><trkpt lat="42.363040679881685" lon="13.539326762481064"><ele>1228.0</ele><time>2026-05-03T07:39:04Z</time></trkpt><trkpt lat="42.36289360219359" lon="13.539534724667675"><ele>1227.3333333333333</ele><time>2026-05-03T07:39:05Z</time></trkpt><trkpt lat="42.36275338717597" lon="13.539721836555639"><ele>1226.6666666666667</ele><time>2026-05-03T07:39:06Z</time></trkpt><trkpt lat="42.36264547843929" lon="13.53988654080371"><ele>1226.0</ele><time>2026-05-03T07:39:07Z</time></trkpt><trkpt lat="42.36255941439348" lon="13.540069298560034"><ele>1226.0</ele><time>2026-05-03T07:39:08Z</time></trkpt><trkpt lat="42.36246177007431" lon="13.540284862681084"><ele>1226.0</ele><time>2026-05-03T07:39:09Z</time></trkpt><trkpt lat="42.36239772867529" lon="13.540517651511623"><ele>1226.0</ele><time>2026-05-03T07:39:10Z</time></trkpt><trkpt lat="42.36233563494374" lon="13.540746382667027"><ele>1227.3333333333335</ele><time>2026-05-03T07:39:11Z</time></trkpt><trkpt lat="42.36227452776573" lon="13.540988748815257"><ele>1228.6666666666667</ele><time>2026-05-03T07:39:12Z</time></trkpt><trkpt lat="42.36220052363027" lon="13.541268469806477"><ele>1230.0</ele><time>2026-05-03T07:39:13Z</time></trkpt><trkpt lat="42.36209570269541" lon="13.541571564930656"><ele>1230.0</ele><time>2026-05-03T07:39:14Z</time></trkpt><trkpt lat="42.36202261769248" lon="13.541900311545808"><ele>1230.0</ele><time>2026-05-03T07:39:15Z</time></trkpt><trkpt lat="42.36193923310381" lon="13.542175738027078"><ele>1230.0</ele><time>2026-05-03T07:39:16Z</time></trkpt><trkpt lat="42.361861599423115" lon="13.542411075037352"><ele>1230.0</ele><time>2026-05-03T07:39:17Z</time></trkpt><trkpt lat="42.36179990161873" lon="13.542611215177601"><ele>1230.0</ele><time>2026-05-03T07:39:18Z</time></trkpt><trkpt lat="42.36178080304101" lon="13.542813506510825"><ele>1230.0</ele><time>2026-05-03T07:39:19Z</time></trkpt><trkpt lat="42.36177256522936" lon="13.54301984281377"><ele>1230.0</ele><time>2026-05-03T07:39:20Z</time></trkpt><trkpt lat="42.3617713665354" lon="13.543300149930385"><ele>1230.0</ele><time>2026-05-03T07:39:21Z</time></trkpt><trkpt lat="42.36175966918991" lon="13.543564458888632"><ele>1231.0</ele><time>2026-05-03T07:39:22Z</time></trkpt><trkpt lat="42.36168973629355" lon="13.543783710598811"><ele>1232.0</ele><time>2026-05-03T07:39:23Z</time></trkpt><trkpt lat="42.361620218068055" lon="13.54404140216358"><ele>1233.0</ele><time>2026-05-03T07:39:24Z</time></trkpt><trkpt lat="42.3615691555117" lon="13.54429932207262"><ele>1234.0</ele><time>2026-05-03T07:39:25Z</time></trkpt><trkpt lat="42.36154669570459" lon="13.544568308073359"><ele>1235.0</ele><time>2026-05-03T07:39:25.999Z</time></trkpt><trkpt lat="42.36151408512199" lon="13.544772818448465"><ele>1236.0</ele><time>2026-05-03T07:39:26.999Z</time></trkpt><trkpt lat="42.36150552037357" lon="13.544930570994499"><ele>1236.0</ele><time>2026-05-03T07:39:27.999Z</time></trkpt><trkpt lat="42.361531458757916" lon="13.545104202958795"><ele>1236.0</ele><time>2026-05-03T07:39:28.999Z</time></trkpt><trkpt lat="42.361538271008875" lon="13.545312885618111"><ele>1236.0</ele><time>2026-05-03T07:39:29.999Z</time></trkpt><trkpt lat="42.361529382571476" lon="13.545518466678969"><ele>1236.0</ele><time>2026-05-03T07:39:30.999Z</time></trkpt><trkpt lat="42.36150156423667" lon="13.545718947246808"><ele>1235.75</ele><time>2026-05-03T07:39:31.999Z</time></trkpt><trkpt lat="42.36149676302189" lon="13.545912331266624"><ele>1235.5</ele><time>2026-05-03T07:39:32.999Z</time></trkpt><trkpt lat="42.361511543034226" lon="13.54606337803313"><ele>1235.25</ele><time>2026-05-03T07:39:33.999Z</time></trkpt><trkpt lat="42.361561153302574" lon="13.546197655391458"><ele>1235.0</ele><time>2026-05-03T07:39:34.999Z</time></trkpt><trkpt lat="42.36158407364668" lon="13.546324938954635"><ele>1234.5</ele><time>2026-05-03T07:39:35.999Z</time></trkpt><trkpt lat="42.36159394804423" lon="13.546451696233035"><ele>1234.0</ele><time>2026-05-03T07:39:36.999Z</time></trkpt><trkpt lat="42.3616227005996" lon="13.546594675701522"><ele>1233.5</ele><time>2026-05-03T07:39:37.999Z</time></trkpt><trkpt lat="42.36146241477539" lon="13.546772289169414"><ele>1233.0</ele><time>2026-05-03T07:39:38.999Z</time></trkpt><trkpt lat="42.36138277416423" lon="13.546910882450188"><ele>1233.25</ele><time>2026-05-03T07:39:39.999Z</time></trkpt><trkpt lat="42.36129955713473" lon="13.547042731998578"><ele>1233.5</ele><time>2026-05-03T07:39:40.999Z</time></trkpt><trkpt lat="42.36123561634227" lon="13.547204953455704"><ele>1233.75</ele><time>2026-05-03T07:39:41.999Z</time></trkpt><trkpt lat="42.36118892264139" lon="13.547384018592352"><ele>1234.0</ele><time>2026-05-03T07:39:42.999Z</time></trkpt><trkpt lat="42.36111820303056" lon="13.547573190604227"><ele>1231.75</ele><time>2026-05-03T07:39:43.999Z</time></trkpt><trkpt lat="42.36101916411762" lon="13.547765150091076"><ele>1229.5</ele><time>2026-05-03T07:39:44.999Z</time></trkpt><trkpt lat="42.36095296607537" lon="13.547925499024831"><ele>1227.25</ele><time>2026-05-03T07:39:45.999Z</time></trkpt><trkpt lat="42.360875000493124" lon="13.548050123072535"><ele>1225.0</ele><time>2026-05-03T07:39:46.999Z</time></trkpt><trkpt lat="42.360769028898744" lon="13.548169693177067"><ele>1225.0</ele><time>2026-05-03T07:39:47.999Z</time></trkpt><trkpt lat="42.36067682452518" lon="13.548310370737275"><ele>1225.0</ele><time>2026-05-03T07:39:48.999Z</time></trkpt><trkpt lat="42.36061345479886" lon="13.548507962557231"><ele>1225.0</ele><time>2026-05-03T07:39:49.999Z</time></trkpt><trkpt lat="42.360567102876644" lon="13.548747374308848"><ele>1222.6666666666665</ele><time>2026-05-03T07:39:50.999Z</time></trkpt><trkpt lat="42.360523688683145" lon="13.549012687419978"><ele>1220.3333333333333</ele><time>2026-05-03T07:39:51.999Z</time></trkpt><trkpt lat="42.36049063849237" lon="13.549256019431477"><ele>1218.0</ele><time>2026-05-03T07:39:52.999Z</time></trkpt><trkpt lat="42.360444545001826" lon="13.549483468193378"><ele>1217.0</ele><time>2026-05-03T07:39:53.999Z</time></trkpt><trkpt lat="42.36039374098557" lon="13.54970863824102"><ele>1216.0</ele><time>2026-05-03T07:39:54.999Z</time></trkpt><trkpt lat="42.36035863712439" lon="13.54991515656496"><ele>1215.0</ele><time>2026-05-03T07:39:55.999Z</time></trkpt><trkpt lat="42.36032557721252" lon="13.550160699236166"><ele>1214.0</ele><time>2026-05-03T07:39:56.999Z</time></trkpt><trkpt lat="42.36028324371399" lon="13.550430186584006"><ele>1213.0</ele><time>2026-05-03T07:39:57.999Z</time></trkpt><trkpt lat="42.360221273690776" lon="13.550762190795298"><ele>1213.0</ele><time>2026-05-03T07:39:58.999Z</time></trkpt><trkpt lat="42.36014627044714" lon="13.551091328464905"><ele>1213.0</ele><time>2026-05-03T07:39:59.999Z</time></trkpt><trkpt lat="42.360081627718664" lon="13.551371579516442"><ele>1212.6666666666665</ele><time>2026-05-03T07:40:00.999Z</time></trkpt><trkpt lat="42.36001855358501" lon="13.551655255316609"><ele>1212.3333333333333</ele><time>2026-05-03T07:40:01.999Z</time></trkpt><trkpt lat="42.35995375491926" lon="13.551920821418223"><ele>1212.0</ele><time>2026-05-03T07:40:02.999Z</time></trkpt><trkpt lat="42.35987937508752" lon="13.55212948029879"><ele>1211.6666666666667</ele><time>2026-05-03T07:40:03.999Z</time></trkpt><trkpt lat="42.3598044333687" lon="13.552343761739339"><ele>1211.3333333333335</ele><time>2026-05-03T07:40:04.999Z</time></trkpt><trkpt lat="42.35971660854713" lon="13.552513239651924"><ele>1211.0</ele><time>2026-05-03T07:40:05.999Z</time></trkpt><trkpt lat="42.359610387824915" lon="13.55269519706888"><ele>1211.0</ele><time>2026-05-03T07:40:06.999Z</time></trkpt><trkpt lat="42.35949565809485" lon="13.552915679457051"><ele>1211.0</ele><time>2026-05-03T07:40:07.999Z</time></trkpt><trkpt lat="42.35937108772952" lon="13.553191904103054"><ele>1211.0</ele><time>2026-05-03T07:40:08.999Z</time></trkpt><trkpt lat="42.35929088446507" lon="13.553447340193156"><ele>1211.3333333333335</ele><time>2026-05-03T07:40:09.999Z</time></trkpt><trkpt lat="42.35921480920404" lon="13.553748688582465"><ele>1211.6666666666667</ele><time>2026-05-03T07:40:10.999Z</time></trkpt><trkpt lat="42.35913931893719" lon="13.554008785321242"><ele>1212.0</ele><time>2026-05-03T07:40:11.999Z</time></trkpt><trkpt lat="42.35903867024192" lon="13.55422949505367"><ele>1212.0</ele><time>2026-05-03T07:40:12.999Z</time></trkpt><trkpt lat="42.35892819868995" lon="13.554470326143814"><ele>1212.0</ele><time>2026-05-03T07:40:13.999Z</time></trkpt><trkpt lat="42.35885260033581" lon="13.554646143400264"><ele>1212.0</ele><time>2026-05-03T07:40:14.999Z</time></trkpt><trkpt lat="42.358792202677435" lon="13.554807546037027"><ele>1215.3333333333333</ele><time>2026-05-03T07:40:15.999Z</time></trkpt><trkpt lat="42.35873014275969" lon="13.554962650440356"><ele>1218.6666666666665</ele><time>2026-05-03T07:40:16.999Z</time></trkpt><trkpt lat="42.35865881753268" lon="13.555153439486828"><ele>1222.0</ele><time>2026-05-03T07:40:17.999Z</time></trkpt><trkpt lat="42.35859095075115" lon="13.5553664840727"><ele>1220.3333333333333</ele><time>2026-05-03T07:40:18.999Z</time></trkpt><trkpt lat="42.35851612308726" lon="13.555597820119274"><ele>1218.6666666666667</ele><time>2026-05-03T07:40:19.999Z</time></trkpt><trkpt lat="42.358465020488715" lon="13.555818116874693"><ele>1217.0</ele><time>2026-05-03T07:40:20.999Z</time></trkpt><trkpt lat="42.35842506742482" lon="13.5559889553964"><ele>1217.0</ele><time>2026-05-03T07:40:21.999Z</time></trkpt><trkpt lat="42.358405285676525" lon="13.55615410131291"><ele>1217.0</ele><time>2026-05-03T07:40:22.999Z</time></trkpt><trkpt lat="42.35841384665792" lon="13.556327489321907"><ele>1217.0</ele><time>2026-05-03T07:40:24Z</time></trkpt><trkpt lat="42.358444922209884" lon="13.556553201956941"><ele>1217.0</ele><time>2026-05-03T07:40:25Z</time></trkpt><trkpt lat="42.358462016387065" lon="13.556777973284076"><ele>1215.5</ele><time>2026-05-03T07:40:26Z</time></trkpt><trkpt lat="42.35848412905716" lon="13.556943114820461"><ele>1214.0</ele><time>2026-05-03T07:40:27Z</time></trkpt><trkpt lat="42.35851816219741" lon="13.55708630591884"><ele>1212.5</ele><time>2026-05-03T07:40:28Z</time></trkpt><trkpt lat="42.35857469115166" lon="13.557231541084333"><ele>1211.0</ele><time>2026-05-03T07:40:29Z</time></trkpt><trkpt lat="42.358673131474006" lon="13.557397300797094"><ele>1211.0</ele><time>2026-05-03T07:40:30Z</time></trkpt><trkpt lat="42.35876137305394" lon="13.557596605420796"><ele>1211.0</ele><time>2026-05-03T07:40:31Z</time></trkpt><trkpt lat="42.3588120348646" lon="13.557764490997569"><ele>1211.0</ele><time>2026-05-03T07:40:32Z</time></trkpt><trkpt lat="42.358817099417" lon="13.55793401240982"><ele>1211.0</ele><time>2026-05-03T07:40:33Z</time></trkpt><trkpt lat="42.35881225455625" lon="13.55818696967267"><ele>1210.6666666666667</ele><time>2026-05-03T07:40:34Z</time></trkpt><trkpt lat="42.35881788389834" lon="13.558423849847568"><ele>1210.3333333333333</ele><time>2026-05-03T07:40:35Z</time></trkpt><trkpt lat="42.3588809490531" lon="13.558686616859852"><ele>1210.0</ele><time>2026-05-03T07:40:36Z</time></trkpt><trkpt lat="42.35895223416178" lon="13.558958300813975"><ele>1207.3333333333333</ele><time>2026-05-03T07:40:37Z</time></trkpt><trkpt lat="42.35899930026257" lon="13.559192396665575"><ele>1204.6666666666667</ele><time>2026-05-03T07:40:38Z</time></trkpt><trkpt lat="42.359027416778005" lon="13.559387615735494"><ele>1202.0</ele><time>2026-05-03T07:40:39Z</time></trkpt><trkpt lat="42.35902828795173" lon="13.55956881118692"><ele>1202.0</ele><time>2026-05-03T07:40:40Z</time></trkpt><trkpt lat="42.35898937635746" lon="13.55977957550895"><ele>1202.0</ele><time>2026-05-03T07:40:41Z</time></trkpt><trkpt lat="42.35894278593713" lon="13.560016059466129"><ele>1202.0</ele><time>2026-05-03T07:40:42Z</time></trkpt><trkpt lat="42.35891474864888" lon="13.56025632239997"><ele>1201.5</ele><time>2026-05-03T07:40:43Z</time></trkpt><trkpt lat="42.358908572872345" lon="13.560584152997798"><ele>1201.0</ele><time>2026-05-03T07:40:44Z</time></trkpt><trkpt lat="42.35890905624648" lon="13.560909829041595"><ele>1201.0</ele><time>2026-05-03T07:40:45Z</time></trkpt><trkpt lat="42.35891214320034" lon="13.561197501505747"><ele>1201.0</ele><time>2026-05-03T07:40:46Z</time></trkpt><trkpt lat="42.35890073552219" lon="13.561515801759157"><ele>1201.0</ele><time>2026-05-03T07:40:47Z</time></trkpt><trkpt lat="42.35889234449295" lon="13.561791366219179"><ele>1200.3333333333333</ele><time>2026-05-03T07:40:48Z</time></trkpt><trkpt lat="42.35888375433204" lon="13.562028760359011"><ele>1199.6666666666667</ele><time>2026-05-03T07:40:49Z</time></trkpt><trkpt lat="42.35887265733416" lon="13.562272195863981"><ele>1199.0</ele><time>2026-05-03T07:40:50Z</time></trkpt><trkpt lat="42.3588674041154" lon="13.56254504274086"><ele>1198.6666666666667</ele><time>2026-05-03T07:40:51Z</time></trkpt><trkpt lat="42.35887277903206" lon="13.562845375172687"><ele>1198.3333333333333</ele><time>2026-05-03T07:40:52Z</time></trkpt><trkpt lat="42.358901374293346" lon="13.563120028101388"><ele>1198.0</ele><time>2026-05-03T07:40:53Z</time></trkpt><trkpt lat="42.3589406961164" lon="13.563326898096777"><ele>1195.3333333333333</ele><time>2026-05-03T07:40:54Z</time></trkpt><trkpt lat="42.358984139763976" lon="13.563558054365648"><ele>1192.6666666666667</ele><time>2026-05-03T07:40:55Z</time></trkpt><trkpt lat="42.35901170312942" lon="13.563739540453398"><ele>1190.0</ele><time>2026-05-03T07:40:56Z</time></trkpt><trkpt lat="42.35900401057112" lon="13.563930386125396"><ele>1190.75</ele><time>2026-05-03T07:40:57Z</time></trkpt><trkpt lat="42.358979250960154" lon="13.56415842141378"><ele>1191.5</ele><time>2026-05-03T07:40:58Z</time></trkpt><trkpt lat="42.35898174967826" lon="13.564345714987862"><ele>1192.25</ele><time>2026-05-03T07:40:59Z</time></trkpt><trkpt lat="42.35900060514598" lon="13.564477078176367"><ele>1193.0</ele><time>2026-05-03T07:41:00Z</time></trkpt><trkpt lat="42.35900917803505" lon="13.564588344240043"><ele>1193.0</ele><time>2026-05-03T07:41:01Z</time></trkpt><trkpt lat="42.35900388523758" lon="13.564690426028088"><ele>1193.0</ele><time>2026-05-03T07:41:02Z</time></trkpt><trkpt lat="42.35895760616931" lon="13.564851972343305"><ele>1193.0</ele><time>2026-05-03T07:41:04Z</time></trkpt><trkpt lat="42.35892895917072" lon="13.564947203619102"><ele>1193.0</ele><time>2026-05-03T07:41:06Z</time></trkpt><trkpt lat="42.35890331693781" lon="13.565075385809465"><ele>1193.0</ele><time>2026-05-03T07:42:38.001Z</time></trkpt><trkpt lat="42.35886613849749" lon="13.565194445589455"><ele>1193.5</ele><time>2026-05-03T07:42:39.001Z</time></trkpt><trkpt lat="42.35883684915749" lon="13.565320622059344"><ele>1194.0</ele><time>2026-05-03T07:42:40.001Z</time></trkpt><trkpt lat="42.3588207266646" lon="13.565463072187182"><ele>1194.5</ele><time>2026-05-03T07:42:41.001Z</time></trkpt><trkpt lat="42.35881143358214" lon="13.565626144604485"><ele>1195.0</ele><time>2026-05-03T07:42:42.001Z</time></trkpt><trkpt lat="42.35880511241171" lon="13.565807768483193"><ele>1194.0</ele><time>2026-05-03T07:42:43.001Z</time></trkpt><trkpt lat="42.358797482096186" lon="13.565999289620366"><ele>1193.0</ele><time>2026-05-03T07:42:44.001Z</time></trkpt><trkpt lat="42.35880114682843" lon="13.56620089453114"><ele>1192.0</ele><time>2026-05-03T07:42:45.001Z</time></trkpt><trkpt lat="42.358807663287934" lon="13.566407388865967"><ele>1191.0</ele><time>2026-05-03T07:42:46.001Z</time></trkpt><trkpt lat="42.3588152085389" lon="13.566597788105865"><ele>1191.0</ele><time>2026-05-03T07:42:47.001Z</time></trkpt><trkpt lat="42.35881708482937" lon="13.566808512142762"><ele>1191.0</ele><time>2026-05-03T07:42:48.001Z</time></trkpt><trkpt lat="42.3588203463158" lon="13.56704506259788"><ele>1191.0</ele><time>2026-05-03T07:42:49.001Z</time></trkpt><trkpt lat="42.35880762377366" lon="13.567286752937562"><ele>1191.0</ele><time>2026-05-03T07:42:50Z</time></trkpt><trkpt lat="42.35879969033416" lon="13.567542891238242"><ele>1191.0</ele><time>2026-05-03T07:42:51Z</time></trkpt><trkpt lat="42.35878950094638" lon="13.567798409094664"><ele>1191.0</ele><time>2026-05-03T07:42:52Z</time></trkpt><trkpt lat="42.35877169495159" lon="13.568063754094872"><ele>1191.0</ele><time>2026-05-03T07:42:53Z</time></trkpt><trkpt lat="42.35874285132536" lon="13.568333730818404"><ele>1191.0</ele><time>2026-05-03T07:42:54Z</time></trkpt><trkpt lat="42.3587064729616" lon="13.568571170298691"><ele>1191.0</ele><time>2026-05-03T07:42:55Z</time></trkpt><trkpt lat="42.3586734058242" lon="13.568768918635707"><ele>1189.25</ele><time>2026-05-03T07:42:56Z</time></trkpt><trkpt lat="42.35863277178216" lon="13.568967347640813"><ele>1187.5</ele><time>2026-05-03T07:42:57Z</time></trkpt><trkpt lat="42.35857975456228" lon="13.569156183536297"><ele>1185.75</ele><time>2026-05-03T07:42:58Z</time></trkpt><trkpt lat="42.35849971024266" lon="13.569312620573573"><ele>1184.0</ele><time>2026-05-03T07:42:59Z</time></trkpt><trkpt lat="42.358396388906684" lon="13.569466098247698"><ele>1187.0</ele><time>2026-05-03T07:43:00Z</time></trkpt><trkpt lat="42.358276392142095" lon="13.569621022562211"><ele>1190.0</ele><time>2026-05-03T07:43:01Z</time></trkpt><trkpt lat="42.358149281119076" lon="13.569809262232221"><ele>1193.0</ele><time>2026-05-03T07:43:02Z</time></trkpt><trkpt lat="42.35802821670739" lon="13.57000060576529"><ele>1193.0</ele><time>2026-05-03T07:43:03Z</time></trkpt><trkpt lat="42.357907163308006" lon="13.57022946015072"><ele>1193.0</ele><time>2026-05-03T07:43:04Z</time></trkpt><trkpt lat="42.35777529469074" lon="13.570472268445114"><ele>1193.0</ele><time>2026-05-03T07:43:05Z</time></trkpt><trkpt lat="42.35766070508171" lon="13.570735777241767"><ele>1192.0</ele><time>2026-05-03T07:43:06Z</time></trkpt><trkpt lat="42.35753984791523" lon="13.570996891656904"><ele>1191.0</ele><time>2026-05-03T07:43:07Z</time></trkpt><trkpt lat="42.35741392878676" lon="13.571251971738953"><ele>1191.0</ele><time>2026-05-03T07:43:08Z</time></trkpt><trkpt lat="42.357280025253004" lon="13.571496645040572"><ele>1191.0</ele><time>2026-05-03T07:43:09Z</time></trkpt><trkpt lat="42.35715910572235" lon="13.571705004209614"><ele>1191.0</ele><time>2026-05-03T07:43:10Z</time></trkpt><trkpt lat="42.35704360009633" lon="13.571903202378948"><ele>1189.3333333333333</ele><time>2026-05-03T07:43:11Z</time></trkpt><trkpt lat="42.356931948025846" lon="13.572090661436857"><ele>1187.6666666666665</ele><time>2026-05-03T07:43:12Z</time></trkpt><trkpt lat="42.3568246319272" lon="13.572261649671963"><ele>1186.0</ele><time>2026-05-03T07:43:13Z</time></trkpt><trkpt lat="42.35670466355662" lon="13.572414586061262"><ele>1186.0</ele><time>2026-05-03T07:43:14Z</time></trkpt><trkpt lat="42.35658771105536" lon="13.572487892962432"><ele>1186.0</ele><time>2026-05-03T07:43:15Z</time></trkpt><trkpt lat="42.35648730579249" lon="13.572535376600808"><ele>1186.0</ele><time>2026-05-03T07:43:16Z</time></trkpt><trkpt lat="42.35639273038367" lon="13.572516117986602"><ele>1186.0</ele><time>2026-05-03T07:43:17Z</time></trkpt><trkpt lat="42.35630369320824" lon="13.572472412721421"><ele>1186.0</ele><time>2026-05-03T07:43:18Z</time></trkpt><trkpt lat="42.35616265429188" lon="13.572415626637591"><ele>1185.0</ele><time>2026-05-03T07:43:19Z</time></trkpt><trkpt lat="42.356027833204436" lon="13.572396344135335"><ele>1184.0</ele><time>2026-05-03T07:43:20Z</time></trkpt><trkpt lat="42.35588632905877" lon="13.572425582142092"><ele>1183.0</ele><time>2026-05-03T07:43:21Z</time></trkpt><trkpt lat="42.355739674194645" lon="13.57248890745435"><ele>1182.0</ele><time>2026-05-03T07:43:22Z</time></trkpt><trkpt lat="42.35558383020552" lon="13.572568391092233"><ele>1180.0</ele><time>2026-05-03T07:43:23Z</time></trkpt><trkpt lat="42.35541891369678" lon="13.572655601603058"><ele>1178.0</ele><time>2026-05-03T07:43:24Z</time></trkpt><trkpt lat="42.35523265719135" lon="13.572765069581555"><ele>1176.0</ele><time>2026-05-03T07:43:25Z</time></trkpt><trkpt lat="42.355056890276074" lon="13.57287605643312"><ele>1176.0</ele><time>2026-05-03T07:43:26Z</time></trkpt><trkpt lat="42.35489047557755" lon="13.572965503598773"><ele>1176.0</ele><time>2026-05-03T07:43:27Z</time></trkpt><trkpt lat="42.35472029417015" lon="13.573056445803832"><ele>1176.0</ele><time>2026-05-03T07:43:28Z</time></trkpt><trkpt lat="42.354551319307376" lon="13.573130835454629"><ele>1175.6666666666667</ele><time>2026-05-03T07:43:29Z</time></trkpt><trkpt lat="42.354412660426256" lon="13.573216389076949"><ele>1175.3333333333335</ele><time>2026-05-03T07:43:30Z</time></trkpt><trkpt lat="42.35426071110258" lon="13.573297211458762"><ele>1175.0</ele><time>2026-05-03T07:43:31Z</time></trkpt><trkpt lat="42.35409256773611" lon="13.57339041097553"><ele>1175.0</ele><time>2026-05-03T07:43:32Z</time></trkpt><trkpt lat="42.353936180693005" lon="13.573499517305565"><ele>1175.0</ele><time>2026-05-03T07:43:33Z</time></trkpt><trkpt lat="42.353796535319525" lon="13.573601149945167"><ele>1175.0</ele><time>2026-05-03T07:43:34Z</time></trkpt><trkpt lat="42.353653420142585" lon="13.573699953609536"><ele>1172.8</ele><time>2026-05-03T07:43:35Z</time></trkpt><trkpt lat="42.353525593935366" lon="13.573780106937143"><ele>1170.6</ele><time>2026-05-03T07:43:36Z</time></trkpt><trkpt lat="42.353412162384544" lon="13.573855404086103"><ele>1168.4</ele><time>2026-05-03T07:43:37Z</time></trkpt><trkpt lat="42.35332885384238" lon="13.573908438378064"><ele>1166.2</ele><time>2026-05-03T07:43:38Z</time></trkpt><trkpt lat="42.35326754505966" lon="13.573939476741867"><ele>1164.0</ele><time>2026-05-03T07:43:39Z</time></trkpt><trkpt lat="42.353160158759216" lon="13.573999385954282"><ele>1164.0</ele><time>2026-05-03T07:43:41Z</time></trkpt><trkpt lat="42.35310131316023" lon="13.574037129856578"><ele>1164.0</ele><time>2026-05-03T07:43:42Z</time></trkpt><trkpt lat="42.353039033399405" lon="13.57408280060349"><ele>1164.0</ele><time>2026-05-03T07:43:43Z</time></trkpt><trkpt lat="42.35295681033057" lon="13.574148697695376"><ele>1164.0</ele><time>2026-05-03T07:43:44.999Z</time></trkpt><trkpt lat="42.35286286800866" lon="13.57422245701838"><ele>1164.0</ele><time>2026-05-03T07:43:46.999Z</time></trkpt><trkpt lat="42.35280150558832" lon="13.574249821895602"><ele>1164.0</ele><time>2026-05-03T07:43:47.999Z</time></trkpt><trkpt lat="42.352712637084956" lon="13.574263864984037"><ele>1162.8</ele><time>2026-05-03T07:43:48.999Z</time></trkpt><trkpt lat="42.352623430737424" lon="13.574265392056795"><ele>1161.6000000000001</ele><time>2026-05-03T07:43:49.999Z</time></trkpt><trkpt lat="42.35252505976443" lon="13.574246317015598"><ele>1160.4</ele><time>2026-05-03T07:43:50.999Z</time></trkpt><trkpt lat="42.35244033716733" lon="13.574193075364438"><ele>1159.2</ele><time>2026-05-03T07:43:51.999Z</time></trkpt><trkpt lat="42.35234383712313" lon="13.574129086863966"><ele>1158.0</ele><time>2026-05-03T07:43:52.999Z</time></trkpt><trkpt lat="42.35224210267587" lon="13.574045364651775"><ele>1156.75</ele><time>2026-05-03T07:43:53.999Z</time></trkpt><trkpt lat="42.35212490180817" lon="13.57394913398982"><ele>1155.5</ele><time>2026-05-03T07:43:54.999Z</time></trkpt><trkpt lat="42.35200348197101" lon="13.573841531879873"><ele>1154.25</ele><time>2026-05-03T07:43:55.999Z</time></trkpt><trkpt lat="42.351890044237784" lon="13.57375700146685"><ele>1153.0</ele><time>2026-05-03T07:43:56.999Z</time></trkpt><trkpt lat="42.35176699396875" lon="13.573667962998684"><ele>1153.0</ele><time>2026-05-03T07:43:57.999Z</time></trkpt><trkpt lat="42.35163112007549" lon="13.573572983239737"><ele>1153.0</ele><time>2026-05-03T07:43:58.999Z</time></trkpt><trkpt lat="42.35147263946555" lon="13.573458214951808"><ele>1153.0</ele><time>2026-05-03T07:43:59.999Z</time></trkpt><trkpt lat="42.35133283176271" lon="13.573321112653861"><ele>1151.0</ele><time>2026-05-03T07:44:00.999Z</time></trkpt><trkpt lat="42.351212401483046" lon="13.573178617792504"><ele>1149.0</ele><time>2026-05-03T07:44:01.999Z</time></trkpt><trkpt lat="42.351092058207435" lon="13.573016101732664"><ele>1147.0</ele><time>2026-05-03T07:44:02.999Z</time></trkpt><trkpt lat="42.35099885489804" lon="13.572862371061216"><ele>1147.5</ele><time>2026-05-03T07:44:03.999Z</time></trkpt><trkpt lat="42.350900830519926" lon="13.572701544452272"><ele>1148.0</ele><time>2026-05-03T07:44:04.999Z</time></trkpt><trkpt lat="42.350799911352745" lon="13.572560751968785"><ele>1148.5</ele><time>2026-05-03T07:44:05.999Z</time></trkpt><trkpt lat="42.35069231546257" lon="13.5724519405607"><ele>1149.0</ele><time>2026-05-03T07:44:06.999Z</time></trkpt><trkpt lat="42.35057219566024" lon="13.57238071299626"><ele>1147.75</ele><time>2026-05-03T07:44:07.999Z</time></trkpt><trkpt lat="42.35044799739471" lon="13.572313643778786"><ele>1146.5</ele><time>2026-05-03T07:44:08.999Z</time></trkpt><trkpt lat="42.350329545387446" lon="13.572236977691297"><ele>1145.25</ele><time>2026-05-03T07:44:09.999Z</time></trkpt><trkpt lat="42.35020987079037" lon="13.57212755039471"><ele>1144.0</ele><time>2026-05-03T07:44:10.999Z</time></trkpt><trkpt lat="42.35007429826684" lon="13.572006689143832"><ele>1144.0</ele><time>2026-05-03T07:44:11.999Z</time></trkpt><trkpt lat="42.349929672375914" lon="13.57188838100853"><ele>1144.0</ele><time>2026-05-03T07:44:12.999Z</time></trkpt><trkpt lat="42.34979691778102" lon="13.571756643920876"><ele>1144.0</ele><time>2026-05-03T07:44:13.999Z</time></trkpt><trkpt lat="42.34968894336296" lon="13.571629545392696"><ele>1140.5</ele><time>2026-05-03T07:44:14.999Z</time></trkpt><trkpt lat="42.34958503435194" lon="13.571481283925102"><ele>1137.0</ele><time>2026-05-03T07:44:15.999Z</time></trkpt><trkpt lat="42.349478329101046" lon="13.571371921726602"><ele>1133.5</ele><time>2026-05-03T07:44:16.999Z</time></trkpt><trkpt lat="42.34935684629788" lon="13.571309037672721"><ele>1130.0</ele><time>2026-05-03T07:44:17.999Z</time></trkpt><trkpt lat="42.34920097905878" lon="13.571279691900333"><ele>1130.0</ele><time>2026-05-03T07:44:18.999Z</time></trkpt><trkpt lat="42.349032662316446" lon="13.571267659230942"><ele>1130.0</ele><time>2026-05-03T07:44:19.999Z</time></trkpt><trkpt lat="42.34886389537361" lon="13.571236545865123"><ele>1130.0</ele><time>2026-05-03T07:44:20.999Z</time></trkpt><trkpt lat="42.34869358782327" lon="13.571174019247282"><ele>1129.6666666666667</ele><time>2026-05-03T07:44:21.999Z</time></trkpt><trkpt lat="42.34851996649256" lon="13.571082865507323"><ele>1129.3333333333333</ele><time>2026-05-03T07:44:22.999Z</time></trkpt><trkpt lat="42.348381460511675" lon="13.570975362306083"><ele>1129.0</ele><time>2026-05-03T07:44:23.999Z</time></trkpt><trkpt lat="42.34824533171891" lon="13.570863595521024"><ele>1129.0</ele><time>2026-05-03T07:44:24.999Z</time></trkpt><trkpt lat="42.34813966667717" lon="13.570754479343984"><ele>1129.0</ele><time>2026-05-03T07:44:25.999Z</time></trkpt><trkpt lat="42.34807564142105" lon="13.57064054028728"><ele>1129.0</ele><time>2026-05-03T07:44:26.999Z</time></trkpt><trkpt lat="42.34803644896185" lon="13.570522645205664"><ele>1129.0</ele><time>2026-05-03T07:44:27.999Z</time></trkpt><trkpt lat="42.3480054306081" lon="13.570402362328972"><ele>1129.0</ele><time>2026-05-03T07:44:28.999Z</time></trkpt><trkpt lat="42.347967194109586" lon="13.570291522873424"><ele>1127.6666666666665</ele><time>2026-05-03T07:44:29.999Z</time></trkpt><trkpt lat="42.34791625408727" lon="13.570190918768342"><ele>1126.3333333333333</ele><time>2026-05-03T07:44:30.999Z</time></trkpt><trkpt lat="42.34785746147242" lon="13.570111840093974"><ele>1125.0</ele><time>2026-05-03T07:44:31.999Z</time></trkpt><trkpt lat="42.347788519871195" lon="13.570039508413466"><ele>1123.6666666666667</ele><time>2026-05-03T07:44:32.999Z</time></trkpt><trkpt lat="42.34772680172873" lon="13.569978627924723"><ele>1122.3333333333335</ele><time>2026-05-03T07:44:33.999Z</time></trkpt><trkpt lat="42.34765447418405" lon="13.569894961292118"><ele>1121.0</ele><time>2026-05-03T07:44:34.999Z</time></trkpt><trkpt lat="42.347588288826685" lon="13.569815659367539"><ele>1121.0</ele><time>2026-05-03T07:44:36.001Z</time></trkpt><trkpt lat="42.34751928929001" lon="13.56976115614826"><ele>1121.0</ele><time>2026-05-03T07:44:37.001Z</time></trkpt><trkpt lat="42.34743522602596" lon="13.569728911149019"><ele>1121.0</ele><time>2026-05-03T07:44:38.001Z</time></trkpt><trkpt lat="42.34735031058087" lon="13.569733093562814"><ele>1121.0</ele><time>2026-05-03T07:44:39.001Z</time></trkpt><trkpt lat="42.34725242469402" lon="13.569748633373928"><ele>1121.0</ele><time>2026-05-03T07:44:40.001Z</time></trkpt><trkpt lat="42.3471323509267" lon="13.569782375682472"><ele>1120.5</ele><time>2026-05-03T07:44:41.001Z</time></trkpt><trkpt lat="42.34698610853799" lon="13.569842770843188"><ele>1120.0</ele><time>2026-05-03T07:44:42.001Z</time></trkpt><trkpt lat="42.34684299428714" lon="13.569905648303576"><ele>1119.5</ele><time>2026-05-03T07:44:43.001Z</time></trkpt><trkpt lat="42.34670141374121" lon="13.569860746159437"><ele>1119.0</ele><time>2026-05-03T07:44:44.001Z</time></trkpt><trkpt lat="42.346554887587786" lon="13.569875444402092"><ele>1119.0</ele><time>2026-05-03T07:44:45.001Z</time></trkpt><trkpt lat="42.346411745386334" lon="13.569909049302797"><ele>1119.0</ele><time>2026-05-03T07:44:46.001Z</time></trkpt><trkpt lat="42.3462989402896" lon="13.569976715837942"><ele>1119.0</ele><time>2026-05-03T07:44:47.001Z</time></trkpt><trkpt lat="42.34620457307692" lon="13.570046591294734"><ele>1119.0</ele><time>2026-05-03T07:44:48.001Z</time></trkpt><trkpt lat="42.34611501874075" lon="13.570167027604233"><ele>1118.0</ele><time>2026-05-03T07:44:49.001Z</time></trkpt><trkpt lat="42.3459808253281" lon="13.570286766076684"><ele>1117.0</ele><time>2026-05-03T07:44:50.001Z</time></trkpt><trkpt lat="42.345876650798566" lon="13.570394204328274"><ele>1116.0</ele><time>2026-05-03T07:44:51.001Z</time></trkpt><trkpt lat="42.34579720500822" lon="13.570526373918963"><ele>1115.0</ele><time>2026-05-03T07:44:52Z</time></trkpt><trkpt lat="42.345769170490826" lon="13.570667853339941"><ele>1115.0</ele><time>2026-05-03T07:44:53Z</time></trkpt><trkpt lat="42.34573776597204" lon="13.5708243774194"><ele>1115.0</ele><time>2026-05-03T07:44:54Z</time></trkpt><trkpt lat="42.345723809396276" lon="13.57099077298312"><ele>1115.0</ele><time>2026-05-03T07:44:55Z</time></trkpt><trkpt lat="42.34569020132077" lon="13.571125549938802"><ele>1115.0</ele><time>2026-05-03T07:44:56Z</time></trkpt><trkpt lat="42.34558280823129" lon="13.571182393501063"><ele>1113.6</ele><time>2026-05-03T07:44:57Z</time></trkpt><trkpt lat="42.345473174243935" lon="13.571296948840066"><ele>1112.2</ele><time>2026-05-03T07:44:58Z</time></trkpt><trkpt lat="42.345369101231164" lon="13.571385963940006"><ele>1110.8</ele><time>2026-05-03T07:44:59Z</time></trkpt><trkpt lat="42.34529811231066" lon="13.571458942659687"><ele>1109.4</ele><time>2026-05-03T07:45:00Z</time></trkpt><trkpt lat="42.345249946529876" lon="13.571539839616205"><ele>1108.0</ele><time>2026-05-03T07:45:01Z</time></trkpt><trkpt lat="42.34519319149641" lon="13.571614774866253"><ele>1108.0</ele><time>2026-05-03T07:45:02Z</time></trkpt><trkpt lat="42.34515650384432" lon="13.57170186935275"><ele>1108.0</ele><time>2026-05-03T07:45:03Z</time></trkpt><trkpt lat="42.345110203157006" lon="13.571784822728876"><ele>1108.0</ele><time>2026-05-03T07:45:04Z</time></trkpt><trkpt lat="42.34507266254043" lon="13.571897482548481"><ele>1108.0</ele><time>2026-05-03T07:45:05Z</time></trkpt><trkpt lat="42.34503752269653" lon="13.572014608656405"><ele>1108.0</ele><time>2026-05-03T07:45:06Z</time></trkpt><trkpt lat="42.345010754574524" lon="13.57210923073133"><ele>1108.0</ele><time>2026-05-03T07:45:07Z</time></trkpt><trkpt lat="42.34497393925564" lon="13.572219409552963"><ele>1108.0</ele><time>2026-05-03T07:45:08Z</time></trkpt><trkpt lat="42.34492627100602" lon="13.572325650130644"><ele>1108.0</ele><time>2026-05-03T07:45:09Z</time></trkpt><trkpt lat="42.344870650943136" lon="13.572427725317134"><ele>1108.0</ele><time>2026-05-03T07:45:10Z</time></trkpt><trkpt lat="42.34480195720335" lon="13.572538652573478"><ele>1108.0</ele><time>2026-05-03T07:45:11Z</time></trkpt><trkpt lat="42.34471291156276" lon="13.572655638132636"><ele>1108.0</ele><time>2026-05-03T07:45:12Z</time></trkpt><trkpt lat="42.34462495903446" lon="13.572762868559058"><ele>1107.6</ele><time>2026-05-03T07:45:13Z</time></trkpt><trkpt lat="42.344544041186325" lon="13.572860990828323"><ele>1107.1999999999998</ele><time>2026-05-03T07:45:14Z</time></trkpt><trkpt lat="42.344471775816615" lon="13.57294717265878"><ele>1106.8</ele><time>2026-05-03T07:45:15Z</time></trkpt><trkpt lat="42.344396603054456" lon="13.573034946810619"><ele>1106.3999999999999</ele><time>2026-05-03T07:45:16Z</time></trkpt><trkpt lat="42.344322397768074" lon="13.573122382424348"><ele>1106.0</ele><time>2026-05-03T07:45:17Z</time></trkpt><trkpt lat="42.34424186468178" lon="13.573217868310595"><ele>1106.0</ele><time>2026-05-03T07:45:18Z</time></trkpt><trkpt lat="42.34415982778857" lon="13.573315137125979"><ele>1106.0</ele><time>2026-05-03T07:45:19Z</time></trkpt><trkpt lat="42.34408066484067" lon="13.573408998444592"><ele>1106.0</ele><time>2026-05-03T07:45:20Z</time></trkpt><trkpt lat="42.343991754224184" lon="13.573509871987614"><ele>1106.0</ele><time>2026-05-03T07:45:21Z</time></trkpt><trkpt lat="42.34390360862709" lon="13.573603625287008"><ele>1106.0</ele><time>2026-05-03T07:45:22Z</time></trkpt><trkpt lat="42.34380884123782" lon="13.573715868570643"><ele>1104.75</ele><time>2026-05-03T07:45:23Z</time></trkpt><trkpt lat="42.34371682558873" lon="13.573837460249432"><ele>1103.5</ele><time>2026-05-03T07:45:24Z</time></trkpt><trkpt lat="42.343625361156434" lon="13.573980999148743"><ele>1102.25</ele><time>2026-05-03T07:45:25Z</time></trkpt><trkpt lat="42.34352958519617" lon="13.574128471808436"><ele>1101.0</ele><time>2026-05-03T07:45:26Z</time></trkpt><trkpt lat="42.34343979057856" lon="13.57428629827536"><ele>1101.0</ele><time>2026-05-03T07:45:27Z</time></trkpt><trkpt lat="42.34333139738564" lon="13.574453434711856"><ele>1101.0</ele><time>2026-05-03T07:45:28Z</time></trkpt><trkpt lat="42.343229041236214" lon="13.574603581936874"><ele>1101.0</ele><time>2026-05-03T07:45:29Z</time></trkpt><trkpt lat="42.343114065133285" lon="13.574746700464853"><ele>1101.3333333333333</ele><time>2026-05-03T07:45:30Z</time></trkpt><trkpt lat="42.34298769033578" lon="13.574880475445964"><ele>1101.6666666666665</ele><time>2026-05-03T07:45:31Z</time></trkpt><trkpt lat="42.34285922079693" lon="13.574992556317069"><ele>1102.0</ele><time>2026-05-03T07:45:32Z</time></trkpt><trkpt lat="42.34272737553991" lon="13.575113434630238"><ele>1102.0</ele><time>2026-05-03T07:45:33Z</time></trkpt><trkpt lat="42.34262654709867" lon="13.575277163608215"><ele>1102.0</ele><time>2026-05-03T07:45:33.999Z</time></trkpt><trkpt lat="42.342518926651515" lon="13.575433856411104"><ele>1102.0</ele><time>2026-05-03T07:45:34.999Z</time></trkpt><trkpt lat="42.34242730161273" lon="13.575566518417647"><ele>1102.25</ele><time>2026-05-03T07:45:35.999Z</time></trkpt><trkpt lat="42.34233985950078" lon="13.57571435729532"><ele>1102.5</ele><time>2026-05-03T07:45:36.999Z</time></trkpt><trkpt lat="42.34224612400279" lon="13.575860073974747"><ele>1102.75</ele><time>2026-05-03T07:45:37.999Z</time></trkpt><trkpt lat="42.34213927363527" lon="13.576026509344738"><ele>1103.0</ele><time>2026-05-03T07:45:38.999Z</time></trkpt><trkpt lat="42.3420232673703" lon="13.576194247009138"><ele>1101.3333333333335</ele><time>2026-05-03T07:45:39.999Z</time></trkpt><trkpt lat="42.34190048287999" lon="13.576368858344154"><ele>1099.6666666666667</ele><time>2026-05-03T07:45:40.999Z</time></trkpt><trkpt lat="42.34177108456986" lon="13.576560286056129"><ele>1098.0</ele><time>2026-05-03T07:45:41.999Z</time></trkpt><trkpt lat="42.3416390150295" lon="13.576758073492377"><ele>1098.0</ele><time>2026-05-03T07:45:42.999Z</time></trkpt><trkpt lat="42.341502288278626" lon="13.576965072600139"><ele>1098.0</ele><time>2026-05-03T07:45:43.999Z</time></trkpt><trkpt lat="42.341355322994346" lon="13.577146745955789"><ele>1098.0</ele><time>2026-05-03T07:45:44.999Z</time></trkpt><trkpt lat="42.34124106548649" lon="13.57730350683839"><ele>1097.5</ele><time>2026-05-03T07:45:45.999Z</time></trkpt><trkpt lat="42.34114348488496" lon="13.577439620349296"><ele>1097.0</ele><time>2026-05-03T07:45:46.999Z</time></trkpt><trkpt lat="42.34104522424168" lon="13.577580155222792"><ele>1096.5</ele><time>2026-05-03T07:45:47.999Z</time></trkpt><trkpt lat="42.34096220004783" lon="13.577698898538495"><ele>1096.0</ele><time>2026-05-03T07:45:48.999Z</time></trkpt><trkpt lat="42.34088816005556" lon="13.577804792291598"><ele>1096.8</ele><time>2026-05-03T07:45:49.999Z</time></trkpt><trkpt lat="42.3408214634551" lon="13.577897795248635"><ele>1097.6</ele><time>2026-05-03T07:45:50.999Z</time></trkpt><trkpt lat="42.34075813746381" lon="13.57798460712308"><ele>1098.4</ele><time>2026-05-03T07:45:51.999Z</time></trkpt><trkpt lat="42.34069661235857" lon="13.578068950277682"><ele>1099.2</ele><time>2026-05-03T07:45:52.999Z</time></trkpt><trkpt lat="42.34062901225214" lon="13.578161904190415"><ele>1100.0</ele><time>2026-05-03T07:45:53.999Z</time></trkpt><trkpt lat="42.34056023072582" lon="13.578257862047053"><ele>1098.6666666666667</ele><time>2026-05-03T07:45:54.999Z</time></trkpt><trkpt lat="42.34049562621757" lon="13.578347992404138"><ele>1097.3333333333335</ele><time>2026-05-03T07:45:55.999Z</time></trkpt><trkpt lat="42.340434025182745" lon="13.578433932595795"><ele>1096.0</ele><time>2026-05-03T07:45:56.999Z</time></trkpt><trkpt lat="42.34037841743207" lon="13.5785106389259"><ele>1094.6666666666667</ele><time>2026-05-03T07:45:57.999Z</time></trkpt><trkpt lat="42.340317704702485" lon="13.578593917695104"><ele>1093.3333333333333</ele><time>2026-05-03T07:45:58.999Z</time></trkpt><trkpt lat="42.3402641687247" lon="13.578667352354728"><ele>1092.0</ele><time>2026-05-03T07:45:59.999Z</time></trkpt><trkpt lat="42.34020834089765" lon="13.578743930510521"><ele>1092.0</ele><time>2026-05-03T07:46:00.999Z</time></trkpt><trkpt lat="42.34015512704544" lon="13.578814435201911"><ele>1092.0</ele><time>2026-05-03T07:46:01.999Z</time></trkpt><trkpt lat="42.340109008278546" lon="13.578875377827949"><ele>1092.0</ele><time>2026-05-03T07:46:02.999Z</time></trkpt><trkpt lat="42.340029491819614" lon="13.578980453194152"><ele>1092.0</ele><time>2026-05-03T07:46:04.999Z</time></trkpt><trkpt lat="42.33995788338981" lon="13.579075078617011"><ele>1092.0</ele><time>2026-05-03T07:46:06.999Z</time></trkpt><trkpt lat="42.33989003495573" lon="13.57916792589988"><ele>1092.0</ele><time>2026-05-03T07:46:08.999Z</time></trkpt><trkpt lat="42.33984391093475" lon="13.579236424579513"><ele>1092.0</ele><time>2026-05-03T07:46:10.999Z</time></trkpt><trkpt lat="42.33978228094115" lon="13.579341669201657"><ele>1092.0</ele><time>2026-05-03T07:46:12.999Z</time></trkpt><trkpt lat="42.33969535398382" lon="13.579468352529126"><ele>1092.0</ele><time>2026-05-03T07:46:14.999Z</time></trkpt><trkpt lat="42.33964980022991" lon="13.579542349615728"><ele>1092.0</ele><time>2026-05-03T07:46:15.999Z</time></trkpt><trkpt lat="42.33960068343943" lon="13.57962461529281"><ele>1092.0</ele><time>2026-05-03T07:46:16.999Z</time></trkpt><trkpt lat="42.33954538410643" lon="13.579718635996214"><ele>1091.1666666666667</ele><time>2026-05-03T07:46:17.999Z</time></trkpt><trkpt lat="42.33949252819015" lon="13.579820065332786"><ele>1090.3333333333333</ele><time>2026-05-03T07:46:18.999Z</time></trkpt><trkpt lat="42.33945040891925" lon="13.579901340485614"><ele>1089.5</ele><time>2026-05-03T07:46:19.999Z</time></trkpt><trkpt lat="42.3393889801646" lon="13.5799979177178"><ele>1088.6666666666665</ele><time>2026-05-03T07:46:20.999Z</time></trkpt><trkpt lat="42.339337301810616" lon="13.580071796416805"><ele>1087.8333333333333</ele><time>2026-05-03T07:46:21.999Z</time></trkpt><trkpt lat="42.339287246774475" lon="13.580139146875476"><ele>1087.0</ele><time>2026-05-03T07:46:22.999Z</time></trkpt><trkpt lat="42.33922197132763" lon="13.580226027711037"><ele>1087.0</ele><time>2026-05-03T07:46:23.999Z</time></trkpt><trkpt lat="42.33915879264171" lon="13.580301457000628"><ele>1087.0</ele><time>2026-05-03T07:46:24.999Z</time></trkpt><trkpt lat="42.33908849453181" lon="13.5803465456368"><ele>1087.0</ele><time>2026-05-03T07:46:25.999Z</time></trkpt><trkpt lat="42.339013913995764" lon="13.580418366078183"><ele>1087.0</ele><time>2026-05-03T07:46:26.999Z</time></trkpt><trkpt lat="42.338935215225035" lon="13.580494679928652"><ele>1087.0</ele><time>2026-05-03T07:46:27.999Z</time></trkpt><trkpt lat="42.33885732850733" lon="13.58057858995096"><ele>1087.4</ele><time>2026-05-03T07:46:28.999Z</time></trkpt><trkpt lat="42.33877175243185" lon="13.580673165775373"><ele>1087.8000000000002</ele><time>2026-05-03T07:46:29.999Z</time></trkpt><trkpt lat="42.33868484012521" lon="13.580726658823284"><ele>1088.2</ele><time>2026-05-03T07:46:30.998Z</time></trkpt><trkpt lat="42.33860571098578" lon="13.58077650332986"><ele>1088.6000000000001</ele><time>2026-05-03T07:46:31.998Z</time></trkpt><trkpt lat="42.33852694582322" lon="13.580783631414658"><ele>1089.0</ele><time>2026-05-03T07:46:32.998Z</time></trkpt><trkpt lat="42.338405705253024" lon="13.58071030274819"><ele>1089.0</ele><time>2026-05-03T07:46:34.998Z</time></trkpt><trkpt lat="42.338329775193024" lon="13.580641983600366"><ele>1089.0</ele><time>2026-05-03T07:46:35.998Z</time></trkpt><trkpt lat="42.33825618540255" lon="13.580568098909977"><ele>1089.0</ele><time>2026-05-03T07:46:36.998Z</time></trkpt><trkpt lat="42.33818425142739" lon="13.580481487277098"><ele>1089.0</ele><time>2026-05-03T07:46:37.998Z</time></trkpt><trkpt lat="42.33813218660223" lon="13.580402260380337"><ele>1089.0</ele><time>2026-05-03T07:46:38.998Z</time></trkpt><trkpt lat="42.338070048685175" lon="13.580310370833722"><ele>1089.8333333333333</ele><time>2026-05-03T07:46:39.998Z</time></trkpt><trkpt lat="42.3380112818172" lon="13.580220999012973"><ele>1090.6666666666667</ele><time>2026-05-03T07:46:40.998Z</time></trkpt><trkpt lat="42.337963960510656" lon="13.580139201271587"><ele>1091.5</ele><time>2026-05-03T07:46:42Z</time></trkpt><trkpt lat="42.33792423440058" lon="13.580064025167536"><ele>1092.3333333333335</ele><time>2026-05-03T07:46:43Z</time></trkpt><trkpt lat="42.33786331093757" lon="13.579965266284358"><ele>1093.1666666666667</ele><time>2026-05-03T07:46:45Z</time></trkpt><trkpt lat="42.33780691918679" lon="13.579922712389202"><ele>1094.0</ele><time>2026-05-03T07:46:48Z</time></trkpt><trkpt lat="42.33777776328104" lon="13.580125691613596"><ele>1094.0</ele><time>2026-05-03T07:46:51Z</time></trkpt><trkpt lat="42.337836201500316" lon="13.5802807178267"><ele>1094.0</ele><time>2026-05-03T07:46:52Z</time></trkpt><trkpt lat="42.33789321875927" lon="13.580465747997815"><ele>1094.0</ele><time>2026-05-03T07:46:53Z</time></trkpt><trkpt lat="42.33790384324633" lon="13.580643910240726"><ele>1094.0</ele><time>2026-05-03T07:46:54Z</time></trkpt><trkpt lat="42.337874914077695" lon="13.580809738036004"><ele>1095.0</ele><time>2026-05-03T07:46:55Z</time></trkpt><trkpt lat="42.33779368025477" lon="13.580934811633668"><ele>1096.0</ele><time>2026-05-03T07:46:56Z</time></trkpt><trkpt lat="42.3377344727952" lon="13.581078173052763"><ele>1097.0</ele><time>2026-05-03T07:46:57Z</time></trkpt><trkpt lat="42.337654033681254" lon="13.581206027936252"><ele>1098.0</ele><time>2026-05-03T07:46:58Z</time></trkpt><trkpt lat="42.33758287483387" lon="13.581378538323696"><ele>1098.0</ele><time>2026-05-03T07:46:59Z</time></trkpt><trkpt lat="42.337532582884755" lon="13.581555386812607"><ele>1098.0</ele><time>2026-05-03T07:47:00Z</time></trkpt><trkpt lat="42.33750264330547" lon="13.581734658725944"><ele>1098.0</ele><time>2026-05-03T07:47:01Z</time></trkpt><trkpt lat="42.33749336130408" lon="13.581921324842035"><ele>1098.0</ele><time>2026-05-03T07:47:02Z</time></trkpt><trkpt lat="42.33749764905034" lon="13.58211097591936"><ele>1098.6</ele><time>2026-05-03T07:47:03Z</time></trkpt><trkpt lat="42.33751826783746" lon="13.582295519471206"><ele>1099.1999999999998</ele><time>2026-05-03T07:47:04Z</time></trkpt><trkpt lat="42.33754737038623" lon="13.582428840966916"><ele>1099.8</ele><time>2026-05-03T07:47:05Z</time></trkpt><trkpt lat="42.337560989420936" lon="13.582515071250082"><ele>1100.3999999999999</ele><time>2026-05-03T07:47:06Z</time></trkpt><trkpt lat="42.3375831727442" lon="13.582674122041851"><ele>1101.0</ele><time>2026-05-03T07:47:08Z</time></trkpt><trkpt lat="42.33762426833058" lon="13.582782166895402"><ele>1100.8</ele><time>2026-05-03T07:47:10Z</time></trkpt><trkpt lat="42.33762230549796" lon="13.58286934303452"><ele>1100.6</ele><time>2026-05-03T07:47:15Z</time></trkpt><trkpt lat="42.33764605089923" lon="13.58301967518827"><ele>1100.4</ele><time>2026-05-03T07:47:18Z</time></trkpt><trkpt lat="42.33766258957789" lon="13.583124381691318"><ele>1100.2</ele><time>2026-05-03T07:47:20Z</time></trkpt><trkpt lat="42.33762618319828" lon="13.583198259240943"><ele>1100.0</ele><time>2026-05-03T07:47:25Z</time></trkpt><trkpt lat="42.3374607681983" lon="13.583284777706341"><ele>1100.0</ele><time>2026-05-03T07:47:26.999Z</time></trkpt><trkpt lat="42.33737925466277" lon="13.583340932821985"><ele>1100.0</ele><time>2026-05-03T07:47:27.999Z</time></trkpt><trkpt lat="42.337314705327266" lon="13.583388117011893"><ele>1100.0</ele><time>2026-05-03T07:47:28.999Z</time></trkpt><trkpt lat="42.33724327110862" lon="13.583449449112443"><ele>1100.0</ele><time>2026-05-03T07:47:29.999Z</time></trkpt><trkpt lat="42.33716205344825" lon="13.583520330545719"><ele>1100.0</ele><time>2026-05-03T07:47:31.999Z</time></trkpt><trkpt lat="42.33718503637578" lon="13.583629764923753"><ele>1100.0</ele><time>2026-05-03T07:47:35.999Z</time></trkpt><trkpt lat="42.33724723245835" lon="13.583689803454112"><ele>1097.857142857143</ele><time>2026-05-03T07:47:37.999Z</time></trkpt><trkpt lat="42.337213606503596" lon="13.583788490394259"><ele>1095.7142857142858</ele><time>2026-05-03T07:47:39.999Z</time></trkpt><trkpt lat="42.33717664619454" lon="13.583868390454185"><ele>1093.5714285714284</ele><time>2026-05-03T07:47:40.999Z</time></trkpt><trkpt lat="42.33714658897892" lon="13.583953130250288"><ele>1091.4285714285716</ele><time>2026-05-03T07:47:41.999Z</time></trkpt><trkpt lat="42.33711755143181" lon="13.584028968733863"><ele>1089.2857142857142</ele><time>2026-05-03T07:47:42.999Z</time></trkpt><trkpt lat="42.337078735738466" lon="13.584098798112404"><ele>1087.142857142857</ele><time>2026-05-03T07:47:44.999Z</time></trkpt><trkpt lat="42.33701373976133" lon="13.584160802163273"><ele>1085.0</ele><time>2026-05-03T07:47:48.999Z</time></trkpt><trkpt lat="42.33693504350165" lon="13.584252377950317"><ele>1085.0</ele><time>2026-05-03T07:47:50.999Z</time></trkpt><trkpt lat="42.336894692824146" lon="13.584349296492308"><ele>1085.0</ele><time>2026-05-03T07:47:52.999Z</time></trkpt><trkpt lat="42.33685354501325" lon="13.584422438189812"><ele>1085.0</ele><time>2026-05-03T07:47:53.999Z</time></trkpt><trkpt lat="42.3367950381252" lon="13.584498034689283"><ele>1085.0</ele><time>2026-05-03T07:47:55.999Z</time></trkpt><trkpt lat="42.3367220131104" lon="13.584557670386113"><ele>1085.0</ele><time>2026-05-03T07:47:57.999Z</time></trkpt><trkpt lat="42.3366772679937" lon="13.584649293774982"><ele>1085.0</ele><time>2026-05-03T07:47:59.999Z</time></trkpt><trkpt lat="42.33661973660592" lon="13.584721992425367"><ele>1084.4</ele><time>2026-05-03T07:48:02.999Z</time></trkpt><trkpt lat="42.33654459229231" lon="13.584793963474862"><ele>1083.8</ele><time>2026-05-03T07:48:05.999Z</time></trkpt><trkpt lat="42.336513451766905" lon="13.584924745490227"><ele>1083.2</ele><time>2026-05-03T07:48:07.999Z</time></trkpt><trkpt lat="42.336464139270106" lon="13.585049515688365"><ele>1082.6</ele><time>2026-05-03T07:48:09.999Z</time></trkpt><trkpt lat="42.33641953452334" lon="13.58514973393498"><ele>1082.0</ele><time>2026-05-03T07:48:10.999Z</time></trkpt><trkpt lat="42.336389331207954" lon="13.585232521472062"><ele>1079.5</ele><time>2026-05-03T07:48:11.999Z</time></trkpt><trkpt lat="42.336356959242" lon="13.585352993713453"><ele>1077.0</ele><time>2026-05-03T07:48:13.999Z</time></trkpt><trkpt lat="42.33633634872465" lon="13.585457793271052"><ele>1074.5</ele><time>2026-05-03T07:48:17.999Z</time></trkpt><trkpt lat="42.33628896202865" lon="13.58555358206696"><ele>1072.0</ele><time>2026-05-03T07:48:20.999Z</time></trkpt><trkpt lat="42.33625727805247" lon="13.585666907679812"><ele>1069.5</ele><time>2026-05-03T07:48:24.998Z</time></trkpt><trkpt lat="42.33622364724544" lon="13.585755540896868"><ele>1067.0</ele><time>2026-05-03T07:48:26.998Z</time></trkpt><trkpt lat="42.33617060992036" lon="13.585807016894861"><ele>1067.0</ele><time>2026-05-03T07:48:28.998Z</time></trkpt><trkpt lat="42.33607245619591" lon="13.585878599666813"><ele>1067.0</ele><time>2026-05-03T07:48:30.998Z</time></trkpt><trkpt lat="42.335975682690325" lon="13.58598038941071"><ele>1067.0</ele><time>2026-05-03T07:48:32.998Z</time></trkpt><trkpt lat="42.33590975539354" lon="13.586025290817103"><ele>1067.0</ele><time>2026-05-03T07:48:33.998Z</time></trkpt><trkpt lat="42.335807282154576" lon="13.586087494511062"><ele>1067.0</ele><time>2026-05-03T07:48:34.998Z</time></trkpt><trkpt lat="42.33572643834753" lon="13.586174511872935"><ele>1068.6</ele><time>2026-05-03T07:48:35.998Z</time></trkpt><trkpt lat="42.33564706879876" lon="13.586264213439188"><ele>1070.2</ele><time>2026-05-03T07:48:36.998Z</time></trkpt><trkpt lat="42.33558260487181" lon="13.586306183768373"><ele>1071.8</ele><time>2026-05-03T07:48:37.998Z</time></trkpt><trkpt lat="42.33550852269999" lon="13.58634546850311"><ele>1073.4</ele><time>2026-05-03T07:48:38.998Z</time></trkpt><trkpt lat="42.335431633124266" lon="13.586392597453335"><ele>1075.0</ele><time>2026-05-03T07:48:39.998Z</time></trkpt><trkpt lat="42.335322315248476" lon="13.586443091098921"><ele>1071.8</ele><time>2026-05-03T07:48:40.998Z</time></trkpt><trkpt lat="42.33520329066656" lon="13.586502280804062"><ele>1068.6</ele><time>2026-05-03T07:48:41.998Z</time></trkpt><trkpt lat="42.33509539090663" lon="13.586560942753534"><ele>1065.4</ele><time>2026-05-03T07:48:42.998Z</time></trkpt><trkpt lat="42.33500275058273" lon="13.586611131187837"><ele>1062.2</ele><time>2026-05-03T07:48:43.998Z</time></trkpt><trkpt lat="42.33492026406658" lon="13.586657597842208"><ele>1059.0</ele><time>2026-05-03T07:48:44.998Z</time></trkpt><trkpt lat="42.334811534355794" lon="13.58670841816829"><ele>1059.0</ele><time>2026-05-03T07:48:45.998Z</time></trkpt><trkpt lat="42.334752563817304" lon="13.586748446629215"><ele>1059.0</ele><time>2026-05-03T07:48:46.998Z</time></trkpt><trkpt lat="42.33467983095586" lon="13.586761989732828"><ele>1059.0</ele><time>2026-05-03T07:48:48Z</time></trkpt><trkpt lat="42.334604998950944" lon="13.586759121002238"><ele>1059.0</ele><time>2026-05-03T07:48:49Z</time></trkpt><trkpt lat="42.334515110486095" lon="13.586741760475094"><ele>1059.0</ele><time>2026-05-03T07:48:50Z</time></trkpt><trkpt lat="42.33442292378978" lon="13.586727463047879"><ele>1059.0</ele><time>2026-05-03T07:48:51Z</time></trkpt><trkpt lat="42.334334593038264" lon="13.586745619623535"><ele>1056.2</ele><time>2026-05-03T07:48:52Z</time></trkpt><trkpt lat="42.33424139324406" lon="13.58676877128311"><ele>1053.4</ele><time>2026-05-03T07:48:53Z</time></trkpt><trkpt lat="42.334171493220055" lon="13.58678528895158"><ele>1050.6</ele><time>2026-05-03T07:48:54Z</time></trkpt><trkpt lat="42.33408807901373" lon="13.58680385026411"><ele>1047.8</ele><time>2026-05-03T07:48:55Z</time></trkpt><trkpt lat="42.3339566690081" lon="13.586763778224809"><ele>1045.0</ele><time>2026-05-03T07:48:57Z</time></trkpt><trkpt lat="42.33388031647891" lon="13.586742574331023"><ele>1043.1666666666665</ele><time>2026-05-03T07:48:58Z</time></trkpt><trkpt lat="42.33381065383592" lon="13.586755715144749"><ele>1041.3333333333333</ele><time>2026-05-03T07:48:59Z</time></trkpt><trkpt lat="42.33374338034879" lon="13.586773566079069"><ele>1039.5</ele><time>2026-05-03T07:49:00Z</time></trkpt><trkpt lat="42.333661163851836" lon="13.586772196568466"><ele>1037.6666666666667</ele><time>2026-05-03T07:49:01Z</time></trkpt><trkpt lat="42.33357731282389" lon="13.586756631714117"><ele>1035.8333333333335</ele><time>2026-05-03T07:49:02Z</time></trkpt><trkpt lat="42.33350325762079" lon="13.586753029067657"><ele>1034.0</ele><time>2026-05-03T07:49:03Z</time></trkpt><trkpt lat="42.33342663253617" lon="13.586733143726843"><ele>1034.0</ele><time>2026-05-03T07:49:04Z</time></trkpt><trkpt lat="42.33334646769529" lon="13.586744249333103"><ele>1034.0</ele><time>2026-05-03T07:49:05Z</time></trkpt><trkpt lat="42.33327340998912" lon="13.586784076544484"><ele>1034.0</ele><time>2026-05-03T07:49:06Z</time></trkpt><trkpt lat="42.33321639136649" lon="13.586825488245468"><ele>1034.0</ele><time>2026-05-03T07:49:07Z</time></trkpt><trkpt lat="42.333097347316794" lon="13.586865121759674"><ele>1034.0</ele><time>2026-05-03T07:49:09Z</time></trkpt><trkpt lat="42.33299355155166" lon="13.586884350534692"><ele>1032.4</ele><time>2026-05-03T07:49:11Z</time></trkpt><trkpt lat="42.33291130236798" lon="13.58692325378788"><ele>1030.8000000000002</ele><time>2026-05-03T07:49:16Z</time></trkpt><trkpt lat="42.33279315264621" lon="13.586956425580077"><ele>1029.1999999999998</ele><time>2026-05-03T07:49:18Z</time></trkpt><trkpt lat="42.33270681885393" lon="13.58698916859667"><ele>1027.6</ele><time>2026-05-03T07:49:20Z</time></trkpt><trkpt lat="42.332632314415214" lon="13.587041549297624"><ele>1026.0</ele><time>2026-05-03T07:49:24Z</time></trkpt><trkpt lat="42.33254499471964" lon="13.587053640116425"><ele>1026.0</ele><time>2026-05-03T07:49:26Z</time></trkpt><trkpt lat="42.33248836229118" lon="13.587094867269577"><ele>1026.0</ele><time>2026-05-03T07:49:29Z</time></trkpt><trkpt lat="42.332447417249924" lon="13.587181546801519"><ele>1026.0</ele><time>2026-05-03T07:49:30.999Z</time></trkpt><trkpt lat="42.33238950455335" lon="13.587246077904977"><ele>1026.0</ele><time>2026-05-03T07:49:31.999Z</time></trkpt><trkpt lat="42.33229849018071" lon="13.587303818753186"><ele>1026.0</ele><time>2026-05-03T07:49:33.999Z</time></trkpt><trkpt lat="42.33220984147747" lon="13.587356027661638"><ele>1026.0</ele><time>2026-05-03T07:49:35.999Z</time></trkpt><trkpt lat="42.332149960572664" lon="13.587394219959394"><ele>1023.1999999999999</ele><time>2026-05-03T07:49:36.999Z</time></trkpt><trkpt lat="42.332033013258055" lon="13.587417964043462"><ele>1020.3999999999999</ele><time>2026-05-03T07:49:38.999Z</time></trkpt><trkpt lat="42.33197013925438" lon="13.587367244933816"><ele>1017.6</ele><time>2026-05-03T07:49:40.999Z</time></trkpt><trkpt lat="42.33193369370031" lon="13.587254663644769"><ele>1014.8</ele><time>2026-05-03T07:49:42.999Z</time></trkpt><trkpt lat="42.33193355011344" lon="13.587135118425852"><ele>1012.0</ele><time>2026-05-03T07:49:44.999Z</time></trkpt><trkpt lat="42.331901429999014" lon="13.58702945707286"><ele>1012.0</ele><time>2026-05-03T07:49:46.999Z</time></trkpt><trkpt lat="42.33183569012933" lon="13.587043666758458"><ele>1012.0</ele><time>2026-05-03T07:49:48.999Z</time></trkpt><trkpt lat="42.33178346294716" lon="13.58710745413192"><ele>1012.0</ele><time>2026-05-03T07:49:49.999Z</time></trkpt><trkpt lat="42.33171658221394" lon="13.587238096658298"><ele>1012.0</ele><time>2026-05-03T07:49:50.999Z</time></trkpt><trkpt lat="42.33163698481194" lon="13.587429738526994"><ele>1012.0</ele><time>2026-05-03T07:49:51.999Z</time></trkpt><trkpt lat="42.33154713373197" lon="13.587648820404853"><ele>1012.6666666666666</ele><time>2026-05-03T07:49:52.999Z</time></trkpt><trkpt lat="42.33143818400316" lon="13.587875099176593"><ele>1013.3333333333333</ele><time>2026-05-03T07:49:53.999Z</time></trkpt><trkpt lat="42.33132516575863" lon="13.588120565649803"><ele>1014.0</ele><time>2026-05-03T07:49:54.999Z</time></trkpt><trkpt lat="42.33123114489959" lon="13.588356406323124"><ele>1009.0</ele><time>2026-05-03T07:49:55.999Z</time></trkpt><trkpt lat="42.331154941086936" lon="13.58858580024624"><ele>1004.0</ele><time>2026-05-03T07:49:56.999Z</time></trkpt><trkpt lat="42.33109314944325" lon="13.588811876753358"><ele>999.0</ele><time>2026-05-03T07:49:57.999Z</time></trkpt><trkpt lat="42.33103431228896" lon="13.589032979544658"><ele>999.0</ele><time>2026-05-03T07:49:58.999Z</time></trkpt><trkpt lat="42.33097148707386" lon="13.589232245488633"><ele>999.0</ele><time>2026-05-03T07:49:59.999Z</time></trkpt><trkpt lat="42.33091500680946" lon="13.589430051247573"><ele>999.0</ele><time>2026-05-03T07:50:00.999Z</time></trkpt><trkpt lat="42.33085288962407" lon="13.589634210171587"><ele>999.3333333333333</ele><time>2026-05-03T07:50:01.999Z</time></trkpt><trkpt lat="42.33075118717729" lon="13.589786759087186"><ele>999.6666666666666</ele><time>2026-05-03T07:50:02.999Z</time></trkpt><trkpt lat="42.33063039595213" lon="13.589889065572523"><ele>1000.0</ele><time>2026-05-03T07:50:03.999Z</time></trkpt><trkpt lat="42.33048428383064" lon="13.589981489831485"><ele>997.3333333333333</ele><time>2026-05-03T07:50:04.999Z</time></trkpt><trkpt lat="42.33034008663312" lon="13.590078929294856"><ele>994.6666666666667</ele><time>2026-05-03T07:50:05.999Z</time></trkpt><trkpt lat="42.33019751306919" lon="13.590137797562205"><ele>992.0</ele><time>2026-05-03T07:50:06.999Z</time></trkpt><trkpt lat="42.33005354229326" lon="13.590178157379311"><ele>992.0</ele><time>2026-05-03T07:50:07.999Z</time></trkpt><trkpt lat="42.32991391858404" lon="13.590189256173785"><ele>992.0</ele><time>2026-05-03T07:50:08.999Z</time></trkpt><trkpt lat="42.32980754725081" lon="13.590212225502494"><ele>992.0</ele><time>2026-05-03T07:50:09.999Z</time></trkpt><trkpt lat="42.3297351620183" lon="13.590426707488648"><ele>992.0</ele><time>2026-05-03T07:50:10.999Z</time></trkpt><trkpt lat="42.32965622815811" lon="13.590542433688828"><ele>990.75</ele><time>2026-05-03T07:50:11.999Z</time></trkpt><trkpt lat="42.3296241300093" lon="13.590621301176915"><ele>989.5</ele><time>2026-05-03T07:50:12.999Z</time></trkpt><trkpt lat="42.32974270513721" lon="13.59070306210886"><ele>988.25</ele><time>2026-05-03T07:50:15.999Z</time></trkpt><trkpt lat="42.32984158698211" lon="13.590782359034334"><ele>987.0</ele><time>2026-05-03T07:50:16.999Z</time></trkpt><trkpt lat="42.32999880282258" lon="13.59086696996722"><ele>989.0</ele><time>2026-05-03T07:50:17.999Z</time></trkpt><trkpt lat="42.33014002600728" lon="13.590949040799257"><ele>991.0</ele><time>2026-05-03T07:50:18.999Z</time></trkpt><trkpt lat="42.330236927001664" lon="13.59101041874826"><ele>993.0</ele><time>2026-05-03T07:50:19.999Z</time></trkpt><trkpt lat="42.330305825040924" lon="13.591073888233964"><ele>995.0</ele><time>2026-05-03T07:50:20.999Z</time></trkpt><trkpt lat="42.33037920910611" lon="13.591152891196096"><ele>997.0</ele><time>2026-05-03T07:50:21.999Z</time></trkpt><trkpt lat="42.33044958092229" lon="13.59124368771844"><ele>998.75</ele><time>2026-05-03T07:50:22.999Z</time></trkpt><trkpt lat="42.330532635000694" lon="13.591329786271173"><ele>1000.5</ele><time>2026-05-03T07:50:23.999Z</time></trkpt><trkpt lat="42.33062571783059" lon="13.591418298148918"><ele>1002.25</ele><time>2026-05-03T07:50:24.999Z</time></trkpt><trkpt lat="42.330739902513" lon="13.591530147141626"><ele>1004.0</ele><time>2026-05-03T07:50:25.999Z</time></trkpt><trkpt lat="42.330853546380624" lon="13.591638174237577"><ele>1006.25</ele><time>2026-05-03T07:50:26.998Z</time></trkpt><trkpt lat="42.330952759203576" lon="13.591740717199988"><ele>1008.5</ele><time>2026-05-03T07:50:27.998Z</time></trkpt><trkpt lat="42.33103527449661" lon="13.591846405895268"><ele>1010.75</ele><time>2026-05-03T07:50:28.998Z</time></trkpt><trkpt lat="42.33111435055291" lon="13.59196458611552"><ele>1013.0</ele><time>2026-05-03T07:50:29.998Z</time></trkpt><trkpt lat="42.33120955014802" lon="13.592105237679819"><ele>1014.5</ele><time>2026-05-03T07:50:30.998Z</time></trkpt><trkpt lat="42.33128653526975" lon="13.592274345621403"><ele>1016.0</ele><time>2026-05-03T07:50:31.998Z</time></trkpt><trkpt lat="42.33136806740597" lon="13.592436253489627"><ele>1017.5</ele><time>2026-05-03T07:50:32.998Z</time></trkpt><trkpt lat="42.331460322852315" lon="13.592600042263243"><ele>1019.0</ele><time>2026-05-03T07:50:33.998Z</time></trkpt><trkpt lat="42.33153619259039" lon="13.592762323536355"><ele>1021.8000000000001</ele><time>2026-05-03T07:50:34.998Z</time></trkpt><trkpt lat="42.33160780822587" lon="13.592897250080732"><ele>1024.6000000000001</ele><time>2026-05-03T07:50:35.998Z</time></trkpt><trkpt lat="42.3316716019047" lon="13.593015091982258"><ele>1027.4</ele><time>2026-05-03T07:50:36.998Z</time></trkpt><trkpt lat="42.331714255306224" lon="13.593089769205411"><ele>1030.2</ele><time>2026-05-03T07:50:37.998Z</time></trkpt><trkpt lat="42.331754807691546" lon="13.5931644528839"><ele>1033.0</ele><time>2026-05-03T07:50:39.998Z</time></trkpt><trkpt lat="42.33181372972405" lon="13.593277681858371"><ele>1033.0</ele><time>2026-05-03T07:50:41.998Z</time></trkpt><trkpt lat="42.33185170352592" lon="13.593348187198794"><ele>1033.0</ele><time>2026-05-03T07:50:42.998Z</time></trkpt><trkpt lat="42.331896169818016" lon="13.593423743548604"><ele>1033.0</ele><time>2026-05-03T07:50:43.998Z</time></trkpt><trkpt lat="42.33196848048799" lon="13.593572326861871"><ele>1033.0</ele><time>2026-05-03T07:50:44.998Z</time></trkpt><trkpt lat="42.33204244991321" lon="13.593713845898437"><ele>1033.0</ele><time>2026-05-03T07:50:45.998Z</time></trkpt><trkpt lat="42.33208078443464" lon="13.593796187692524"><ele>1034.8</ele><time>2026-05-03T07:50:46.998Z</time></trkpt><trkpt lat="42.33211994750623" lon="13.59389068642479"><ele>1036.6</ele><time>2026-05-03T07:50:48.998Z</time></trkpt><trkpt lat="42.33202884421168" lon="13.593980703415731"><ele>1038.4</ele><time>2026-05-03T07:50:50.998Z</time></trkpt><trkpt lat="42.33197879584159" lon="13.594048096263009"><ele>1040.2</ele><time>2026-05-03T07:50:51.998Z</time></trkpt><trkpt lat="42.331938755816246" lon="13.59416436363559"><ele>1042.0</ele><time>2026-05-03T07:50:52.998Z</time></trkpt><trkpt lat="42.33189010810732" lon="13.594322100635578"><ele>1042.0</ele><time>2026-05-03T07:50:54Z</time></trkpt><trkpt lat="42.331821434649434" lon="13.594454165230783"><ele>1042.0</ele><time>2026-05-03T07:50:55Z</time></trkpt><trkpt lat="42.33174430045393" lon="13.594565924950533"><ele>1042.0</ele><time>2026-05-03T07:50:56Z</time></trkpt><trkpt lat="42.331694093404444" lon="13.594646990194407"><ele>1042.0</ele><time>2026-05-03T07:50:57Z</time></trkpt><trkpt lat="42.33164498066046" lon="13.594745672764674"><ele>1042.0</ele><time>2026-05-03T07:50:59Z</time></trkpt><trkpt lat="42.33161057923429" lon="13.594859173705734"><ele>1041.3333333333333</ele><time>2026-05-03T07:51:01Z</time></trkpt><trkpt lat="42.331666983980554" lon="13.59495169663702"><ele>1040.6666666666665</ele><time>2026-05-03T07:51:03Z</time></trkpt><trkpt lat="42.33173262319589" lon="13.594957688740195"><ele>1040.0</ele><time>2026-05-03T07:51:04Z</time></trkpt><trkpt lat="42.331800434906874" lon="13.594954261326183"><ele>1039.3333333333333</ele><time>2026-05-03T07:51:06Z</time></trkpt><trkpt lat="42.331839121205796" lon="13.595022333936779"><ele>1038.6666666666667</ele><time>2026-05-03T07:51:08Z</time></trkpt><trkpt lat="42.331857388099365" lon="13.595112070305191"><ele>1038.0</ele><time>2026-05-03T07:51:09Z</time></trkpt><trkpt lat="42.33187746714011" lon="13.595253649426471"><ele>1037.4</ele><time>2026-05-03T07:51:10Z</time></trkpt><trkpt lat="42.33189452692323" lon="13.595412042727563"><ele>1036.8</ele><time>2026-05-03T07:51:11Z</time></trkpt><trkpt lat="42.33190649220011" lon="13.595591249270255"><ele>1036.2</ele><time>2026-05-03T07:51:12Z</time></trkpt><trkpt lat="42.3319213665514" lon="13.595728262787183"><ele>1035.6</ele><time>2026-05-03T07:51:13Z</time></trkpt><trkpt lat="42.331913986896865" lon="13.595820776237906"><ele>1035.0</ele><time>2026-05-03T07:51:14Z</time></trkpt><trkpt lat="42.33186854238508" lon="13.595884231872256"><ele>1035.0</ele><time>2026-05-03T07:51:15Z</time></trkpt><trkpt lat="42.33179735832206" lon="13.59597760435702"><ele>1035.0</ele><time>2026-05-03T07:51:16Z</time></trkpt><trkpt lat="42.33169321191217" lon="13.596123981148619"><ele>1035.0</ele><time>2026-05-03T07:51:17Z</time></trkpt><trkpt lat="42.33161875654951" lon="13.596235260978212"><ele>1035.0</ele><time>2026-05-03T07:51:18Z</time></trkpt><trkpt lat="42.33155719595606" lon="13.59629770577263"><ele>1035.0</ele><time>2026-05-03T07:51:19Z</time></trkpt><trkpt lat="42.33149171384608" lon="13.596298522566128"><ele>1035.4</ele><time>2026-05-03T07:51:20Z</time></trkpt><trkpt lat="42.33143349827489" lon="13.596235879242789"><ele>1035.8</ele><time>2026-05-03T07:51:21Z</time></trkpt><trkpt lat="42.33135504195805" lon="13.59617192640671"><ele>1036.2</ele><time>2026-05-03T07:51:22Z</time></trkpt><trkpt lat="42.33126807975096" lon="13.596160681246184"><ele>1036.6</ele><time>2026-05-03T07:51:23Z</time></trkpt><trkpt lat="42.331157049471166" lon="13.59618690987296"><ele>1037.0</ele><time>2026-05-03T07:51:24Z</time></trkpt><trkpt lat="42.33103400798607" lon="13.596228374716077"><ele>1035.0</ele><time>2026-05-03T07:51:25Z</time></trkpt><trkpt lat="42.33093386043791" lon="13.596287916626391"><ele>1033.0</ele><time>2026-05-03T07:51:26Z</time></trkpt><trkpt lat="42.33086866087505" lon="13.596369909267368"><ele>1031.0</ele><time>2026-05-03T07:51:27Z</time></trkpt><trkpt lat="42.330805738578604" lon="13.596501337651759"><ele>1029.0</ele><time>2026-05-03T07:51:28Z</time></trkpt><trkpt lat="42.33073927172367" lon="13.596653911986872"><ele>1027.0</ele><time>2026-05-03T07:51:29Z</time></trkpt><trkpt lat="42.33068417474718" lon="13.596793515077982"><ele>1027.0</ele><time>2026-05-03T07:51:30Z</time></trkpt><trkpt lat="42.33066480142217" lon="13.59691233942379"><ele>1027.0</ele><time>2026-05-03T07:51:31Z</time></trkpt><trkpt lat="42.33065933828917" lon="13.597053940203132"><ele>1027.0</ele><time>2026-05-03T07:51:32Z</time></trkpt><trkpt lat="42.33064795460554" lon="13.597205765548136"><ele>1027.0</ele><time>2026-05-03T07:51:32.999Z</time></trkpt><trkpt lat="42.33064240935168" lon="13.59735491237212"><ele>1027.0</ele><time>2026-05-03T07:51:33.999Z</time></trkpt><trkpt lat="42.33060284104943" lon="13.597483763177376"><ele>1026.25</ele><time>2026-05-03T07:51:34.999Z</time></trkpt><trkpt lat="42.330531670293475" lon="13.59753918269506"><ele>1025.5</ele><time>2026-05-03T07:51:35.999Z</time></trkpt><trkpt lat="42.33043229204687" lon="13.597607968456582"><ele>1024.75</ele><time>2026-05-03T07:51:36.999Z</time></trkpt><trkpt lat="42.33032879602085" lon="13.59771867330392"><ele>1024.0</ele><time>2026-05-03T07:51:37.999Z</time></trkpt><trkpt lat="42.330239287423716" lon="13.59784332178477"><ele>1024.0</ele><time>2026-05-03T07:51:38.999Z</time></trkpt><trkpt lat="42.33016166911988" lon="13.597948553362004"><ele>1024.0</ele><time>2026-05-03T07:51:39.999Z</time></trkpt><trkpt lat="42.33008534398086" lon="13.598021376161077"><ele>1024.0</ele><time>2026-05-03T07:51:40.999Z</time></trkpt><trkpt lat="42.32998974552447" lon="13.598060014779772"><ele>1024.0</ele><time>2026-05-03T07:51:41.999Z</time></trkpt><trkpt lat="42.32986680305285" lon="13.598078074837076"><ele>1024.0</ele><time>2026-05-03T07:51:42.999Z</time></trkpt><trkpt lat="42.329763143172315" lon="13.598124047742775"><ele>1022.8000000000001</ele><time>2026-05-03T07:51:43.999Z</time></trkpt><trkpt lat="42.32967813071743" lon="13.598203939470476"><ele>1021.6000000000001</ele><time>2026-05-03T07:51:44.999Z</time></trkpt><trkpt lat="42.329589481846305" lon="13.59828123529282"><ele>1020.4</ele><time>2026-05-03T07:51:45.999Z</time></trkpt><trkpt lat="42.32949766470895" lon="13.598363542597136"><ele>1019.2</ele><time>2026-05-03T07:51:46.999Z</time></trkpt><trkpt lat="42.32940932867105" lon="13.59846306303402"><ele>1018.0</ele><time>2026-05-03T07:51:47.999Z</time></trkpt><trkpt lat="42.32933574040582" lon="13.598573808665426"><ele>1017.9999999999999</ele><time>2026-05-03T07:51:48.999Z</time></trkpt><trkpt lat="42.32928307540277" lon="13.598642689545343"><ele>1018.0</ele><time>2026-05-03T07:51:49.999Z</time></trkpt><trkpt lat="42.32921410753297" lon="13.598662706222331"><ele>1018.0</ele><time>2026-05-03T07:51:50.999Z</time></trkpt><trkpt lat="42.329101174795355" lon="13.598693203250736"><ele>1018.0</ele><time>2026-05-03T07:51:51.999Z</time></trkpt><trkpt lat="42.3290209472868" lon="13.598745489806571"><ele>1017.9999999999999</ele><time>2026-05-03T07:51:52.999Z</time></trkpt><trkpt lat="42.32896948332282" lon="13.598844867457553"><ele>1018.0</ele><time>2026-05-03T07:51:53.999Z</time></trkpt><trkpt lat="42.328883527349944" lon="13.598981487494889"><ele>1017.5</ele><time>2026-05-03T07:51:54.999Z</time></trkpt><trkpt lat="42.32878262185586" lon="13.59913493909119"><ele>1017.0</ele><time>2026-05-03T07:51:55.999Z</time></trkpt><trkpt lat="42.328690598358385" lon="13.599270020441406"><ele>1016.5</ele><time>2026-05-03T07:51:56.999Z</time></trkpt><trkpt lat="42.32862053754268" lon="13.599396942933108"><ele>1016.0</ele><time>2026-05-03T07:51:57.999Z</time></trkpt><trkpt lat="42.328557218412726" lon="13.599525205570504"><ele>1017.25</ele><time>2026-05-03T07:51:58.999Z</time></trkpt><trkpt lat="42.328478521921895" lon="13.59964259078489"><ele>1018.5</ele><time>2026-05-03T07:51:59.999Z</time></trkpt><trkpt lat="42.32839144840454" lon="13.59973574889464"><ele>1019.75</ele><time>2026-05-03T07:52:00.999Z</time></trkpt><trkpt lat="42.32829097811055" lon="13.599812452773877"><ele>1021.0</ele><time>2026-05-03T07:52:01.999Z</time></trkpt><trkpt lat="42.3281970418335" lon="13.599899610514086"><ele>1021.0</ele><time>2026-05-03T07:52:02.999Z</time></trkpt><trkpt lat="42.328132399459555" lon="13.599991919425232"><ele>1020.9999999999999</ele><time>2026-05-03T07:52:03.999Z</time></trkpt><trkpt lat="42.328061735709284" lon="13.60009148750724"><ele>1020.9999999999999</ele><time>2026-05-03T07:52:04.999Z</time></trkpt><trkpt lat="42.32801017733784" lon="13.600211230527831"><ele>1021.0</ele><time>2026-05-03T07:52:05.999Z</time></trkpt><trkpt lat="42.32795543492593" lon="13.60036304353134"><ele>1021.0</ele><time>2026-05-03T07:52:06.999Z</time></trkpt><trkpt lat="42.32786224733162" lon="13.600491623519153"><ele>1020.25</ele><time>2026-05-03T07:52:07.999Z</time></trkpt><trkpt lat="42.32774741124551" lon="13.600583540604486"><ele>1019.5</ele><time>2026-05-03T07:52:08.999Z</time></trkpt><trkpt lat="42.3276485902425" lon="13.600707355374043"><ele>1018.75</ele><time>2026-05-03T07:52:09.999Z</time></trkpt><trkpt lat="42.32756108887538" lon="13.600851803876841"><ele>1018.0</ele><time>2026-05-03T07:52:10.999Z</time></trkpt><trkpt lat="42.32749611236839" lon="13.600992937977319"><ele>1018.0</ele><time>2026-05-03T07:52:11.999Z</time></trkpt><trkpt lat="42.32744689495205" lon="13.601145011249361"><ele>1018.0</ele><time>2026-05-03T07:52:12.999Z</time></trkpt><trkpt lat="42.32737169729233" lon="13.60129735571759"><ele>1018.0</ele><time>2026-05-03T07:52:13.999Z</time></trkpt><trkpt lat="42.32729343386864" lon="13.601431072179716"><ele>1018.0</ele><time>2026-05-03T07:52:14.999Z</time></trkpt><trkpt lat="42.327218606663095" lon="13.60156512174228"><ele>1017.8</ele><time>2026-05-03T07:52:15.999Z</time></trkpt><trkpt lat="42.327166370962" lon="13.601708018923404"><ele>1017.5999999999999</ele><time>2026-05-03T07:52:16.999Z</time></trkpt><trkpt lat="42.3271100868049" lon="13.601843306539944"><ele>1017.4000000000001</ele><time>2026-05-03T07:52:17.999Z</time></trkpt><trkpt lat="42.32703650178701" lon="13.601973312361118"><ele>1017.2</ele><time>2026-05-03T07:52:18.999Z</time></trkpt><trkpt lat="42.3269875986002" lon="13.602080374374008"><ele>1017.0</ele><time>2026-05-03T07:52:19.999Z</time></trkpt><trkpt lat="42.32694987361795" lon="13.602224662589826"><ele>1016.0</ele><time>2026-05-03T07:52:20.999Z</time></trkpt><trkpt lat="42.32693197103555" lon="13.602375944852692"><ele>1015.0</ele><time>2026-05-03T07:52:21.999Z</time></trkpt><trkpt lat="42.32688122726282" lon="13.602509668286851"><ele>1014.0</ele><time>2026-05-03T07:52:22.999Z</time></trkpt><trkpt lat="42.32686296472659" lon="13.60267247366709"><ele>1013.0</ele><time>2026-05-03T07:52:23.999Z</time></trkpt><trkpt lat="42.32681547508064" lon="13.602830519311013"><ele>1014.0</ele><time>2026-05-03T07:52:24.999Z</time></trkpt><trkpt lat="42.326743783603675" lon="13.602963846449722"><ele>1015.0</ele><time>2026-05-03T07:52:25.999Z</time></trkpt><trkpt lat="42.32666567693519" lon="13.603087079451504"><ele>1016.0</ele><time>2026-05-03T07:52:26.999Z</time></trkpt><trkpt lat="42.32660442926511" lon="13.60321036825187"><ele>1017.0</ele><time>2026-05-03T07:52:27.999Z</time></trkpt><trkpt lat="42.32651268610422" lon="13.603341421349823"><ele>1017.0</ele><time>2026-05-03T07:52:28.999Z</time></trkpt><trkpt lat="42.326419746121836" lon="13.603446561825967"><ele>1017.0</ele><time>2026-05-03T07:52:29.999Z</time></trkpt><trkpt lat="42.32632521036123" lon="13.603554746693176"><ele>1017.0</ele><time>2026-05-03T07:52:30.999Z</time></trkpt><trkpt lat="42.32624297937705" lon="13.603650191558412"><ele>1017.0</ele><time>2026-05-03T07:52:31.998Z</time></trkpt><trkpt lat="42.32617309839354" lon="13.603752807908865"><ele>1016.0</ele><time>2026-05-03T07:52:32.998Z</time></trkpt><trkpt lat="42.32609586004014" lon="13.603852283856252"><ele>1015.0</ele><time>2026-05-03T07:52:33.998Z</time></trkpt><trkpt lat="42.326005158436644" lon="13.603974381494366"><ele>1014.0</ele><time>2026-05-03T07:52:34.998Z</time></trkpt><trkpt lat="42.325929424523856" lon="13.60407579895106"><ele>1013.0</ele><time>2026-05-03T07:52:35.998Z</time></trkpt><trkpt lat="42.32586578272703" lon="13.604184479362932"><ele>1012.0</ele><time>2026-05-03T07:52:36.998Z</time></trkpt><trkpt lat="42.32582983223433" lon="13.604303811914402"><ele>1012.0</ele><time>2026-05-03T07:52:37.998Z</time></trkpt><trkpt lat="42.32577919799999" lon="13.604426296655673"><ele>1012.0</ele><time>2026-05-03T07:52:38.998Z</time></trkpt><trkpt lat="42.32570494048729" lon="13.604538624084901"><ele>1012.0</ele><time>2026-05-03T07:52:39.998Z</time></trkpt><trkpt lat="42.32560493820356" lon="13.604642972826737"><ele>1012.0</ele><time>2026-05-03T07:52:40.998Z</time></trkpt><trkpt lat="42.32552516943377" lon="13.604759548534153"><ele>1011.75</ele><time>2026-05-03T07:52:41.998Z</time></trkpt><trkpt lat="42.32545255626281" lon="13.604911776041508"><ele>1011.5</ele><time>2026-05-03T07:52:42.998Z</time></trkpt><trkpt lat="42.32539905098212" lon="13.605057711204799"><ele>1011.25</ele><time>2026-05-03T07:52:43.998Z</time></trkpt><trkpt lat="42.325324744122575" lon="13.605187887512251"><ele>1011.0</ele><time>2026-05-03T07:52:44.998Z</time></trkpt><trkpt lat="42.325251346241586" lon="13.605288697103676"><ele>1009.8</ele><time>2026-05-03T07:52:45.998Z</time></trkpt><trkpt lat="42.32518733328125" lon="13.60541470435969"><ele>1008.5999999999999</ele><time>2026-05-03T07:52:46.998Z</time></trkpt><trkpt lat="42.3251468011186" lon="13.605534580923711"><ele>1007.4</ele><time>2026-05-03T07:52:47.998Z</time></trkpt><trkpt lat="42.32510394629024" lon="13.605666293428333"><ele>1006.2</ele><time>2026-05-03T07:52:48.998Z</time></trkpt><trkpt lat="42.32505659625922" lon="13.60583069452637"><ele>1005.0</ele><time>2026-05-03T07:52:49.998Z</time></trkpt><trkpt lat="42.32499972209997" lon="13.605991090206745"><ele>1005.0</ele><time>2026-05-03T07:52:50.998Z</time></trkpt><trkpt lat="42.32498710236675" lon="13.606122196704181"><ele>1005.0</ele><time>2026-05-03T07:52:51.998Z</time></trkpt><trkpt lat="42.32499377021835" lon="13.606243992389533"><ele>1005.0</ele><time>2026-05-03T07:52:52.998Z</time></trkpt><trkpt lat="42.32498944782489" lon="13.60632899708762"><ele>1005.0</ele><time>2026-05-03T07:52:53.998Z</time></trkpt><trkpt lat="42.32487142258415" lon="13.606442951773094"><ele>1005.0</ele><time>2026-05-03T07:52:55.998Z</time></trkpt><trkpt lat="42.324778624558206" lon="13.606519484804924"><ele>1004.3333333333334</ele><time>2026-05-03T07:52:56.998Z</time></trkpt><trkpt lat="42.32471766928406" lon="13.606585297135922"><ele>1003.6666666666667</ele><time>2026-05-03T07:52:57.998Z</time></trkpt><trkpt lat="42.3246613821085" lon="13.60666341985209"><ele>1003.0</ele><time>2026-05-03T07:52:58.998Z</time></trkpt><trkpt lat="42.324596027131165" lon="13.60676391731689"><ele>1002.3333333333334</ele><time>2026-05-03T07:53:00Z</time></trkpt><trkpt lat="42.32454156056346" lon="13.606821329217405"><ele>1001.6666666666667</ele><time>2026-05-03T07:53:01Z</time></trkpt><trkpt lat="42.32445562170148" lon="13.606858011361203"><ele>1001.0</ele><time>2026-05-03T07:53:02Z</time></trkpt><trkpt lat="42.32436082198581" lon="13.60691308913354"><ele>1001.0</ele><time>2026-05-03T07:53:03Z</time></trkpt><trkpt lat="42.32427344651193" lon="13.606983266832184"><ele>1000.9999999999999</ele><time>2026-05-03T07:53:04Z</time></trkpt><trkpt lat="42.32417135317286" lon="13.607091910503742"><ele>1000.9999999999999</ele><time>2026-05-03T07:53:06Z</time></trkpt><trkpt lat="42.324102030956794" lon="13.607206595091448"><ele>1001.0</ele><time>2026-05-03T07:53:07Z</time></trkpt><trkpt lat="42.32403333361226" lon="13.607303901149189"><ele>1001.0</ele><time>2026-05-03T07:53:08Z</time></trkpt><trkpt lat="42.32397253308586" lon="13.60738654013024"><ele>999.3333333333334</ele><time>2026-05-03T07:53:09Z</time></trkpt><trkpt lat="42.323909699214816" lon="13.607474920171605"><ele>997.6666666666667</ele><time>2026-05-03T07:53:10Z</time></trkpt><trkpt lat="42.32385722128637" lon="13.607577402935517"><ele>996.0</ele><time>2026-05-03T07:53:11Z</time></trkpt><trkpt lat="42.32384324644005" lon="13.607682792503367"><ele>994.3333333333333</ele><time>2026-05-03T07:53:12Z</time></trkpt><trkpt lat="42.32383977168708" lon="13.607790304912246"><ele>992.6666666666666</ele><time>2026-05-03T07:53:13Z</time></trkpt><trkpt lat="42.32381818131544" lon="13.607908132960802"><ele>991.0</ele><time>2026-05-03T07:53:14Z</time></trkpt><trkpt lat="42.32377237186597" lon="13.607998979153534"><ele>990.5999999999999</ele><time>2026-05-03T07:53:15Z</time></trkpt><trkpt lat="42.3237375384874" lon="13.608095376388167"><ele>990.1999999999999</ele><time>2026-05-03T07:53:16Z</time></trkpt><trkpt lat="42.32368379066781" lon="13.608226777071398"><ele>989.8000000000001</ele><time>2026-05-03T07:53:17Z</time></trkpt><trkpt lat="42.323628239804286" lon="13.608347624240249"><ele>989.4000000000001</ele><time>2026-05-03T07:53:18Z</time></trkpt><trkpt lat="42.323588745709465" lon="13.608446931454331"><ele>989.0</ele><time>2026-05-03T07:53:19Z</time></trkpt><trkpt lat="42.32354354305222" lon="13.608547258892019"><ele>989.0000000000001</ele><time>2026-05-03T07:53:20Z</time></trkpt><trkpt lat="42.323516579621405" lon="13.608630124892432"><ele>989.0</ele><time>2026-05-03T07:53:21Z</time></trkpt><trkpt lat="42.3234897372061" lon="13.608729738590183"><ele>989.0</ele><time>2026-05-03T07:53:22Z</time></trkpt><trkpt lat="42.32344445127456" lon="13.608835633474154"><ele>989.0</ele><time>2026-05-03T07:53:23Z</time></trkpt><trkpt lat="42.323392892061335" lon="13.608946238076644"><ele>989.0000000000001</ele><time>2026-05-03T07:53:24Z</time></trkpt><trkpt lat="42.32332303785483" lon="13.609072634521686"><ele>989.0</ele><time>2026-05-03T07:53:25Z</time></trkpt><trkpt lat="42.32323603464848" lon="13.60921423117729"><ele>986.0</ele><time>2026-05-03T07:53:26Z</time></trkpt><trkpt lat="42.323168342611524" lon="13.609362004599665"><ele>983.0</ele><time>2026-05-03T07:53:27Z</time></trkpt><trkpt lat="42.323105763286094" lon="13.609520263098831"><ele>980.0</ele><time>2026-05-03T07:53:28Z</time></trkpt><trkpt lat="42.323035996916374" lon="13.609668825419869"><ele>977.0</ele><time>2026-05-03T07:53:29Z</time></trkpt><trkpt lat="42.32296490495769" lon="13.60978095370135"><ele>976.75</ele><time>2026-05-03T07:53:30Z</time></trkpt><trkpt lat="42.32288608346629" lon="13.609918365137466"><ele>976.5</ele><time>2026-05-03T07:53:31Z</time></trkpt><trkpt lat="42.322800314210454" lon="13.610067586781124"><ele>976.25</ele><time>2026-05-03T07:53:32Z</time></trkpt><trkpt lat="42.32272274691825" lon="13.61019763675291"><ele>976.0</ele><time>2026-05-03T07:53:33Z</time></trkpt><trkpt lat="42.322662001536415" lon="13.610316106727081"><ele>973.8</ele><time>2026-05-03T07:53:34Z</time></trkpt><trkpt lat="42.322613814598746" lon="13.610438017669802"><ele>971.5999999999999</ele><time>2026-05-03T07:53:35Z</time></trkpt><trkpt lat="42.322579484404024" lon="13.610563250645741"><ele>969.4</ele><time>2026-05-03T07:53:36Z</time></trkpt><trkpt lat="42.322525522171574" lon="13.61070585984438"><ele>967.2</ele><time>2026-05-03T07:53:37Z</time></trkpt><trkpt lat="42.3224502758704" lon="13.61080931789922"><ele>965.0</ele><time>2026-05-03T07:53:37.999Z</time></trkpt><trkpt lat="42.32236452263824" lon="13.610898799866373"><ele>965.0</ele><time>2026-05-03T07:53:38.999Z</time></trkpt><trkpt lat="42.322280826572005" lon="13.61099962705874"><ele>965.0</ele><time>2026-05-03T07:53:39.999Z</time></trkpt><trkpt lat="42.32220620577404" lon="13.611090162890973"><ele>965.0</ele><time>2026-05-03T07:53:40.999Z</time></trkpt><trkpt lat="42.32212565351584" lon="13.611202754663397"><ele>965.0</ele><time>2026-05-03T07:53:41.999Z</time></trkpt><trkpt lat="42.32205888433332" lon="13.61130869158425"><ele>965.0</ele><time>2026-05-03T07:53:42.999Z</time></trkpt><trkpt lat="42.321986565511466" lon="13.61137138961249"><ele>963.2</ele><time>2026-05-03T07:53:43.999Z</time></trkpt><trkpt lat="42.32191800880441" lon="13.61138497698814"><ele>961.4</ele><time>2026-05-03T07:53:44.999Z</time></trkpt><trkpt lat="42.32186728035712" lon="13.611449969206365"><ele>959.5999999999999</ele><time>2026-05-03T07:53:45.999Z</time></trkpt><trkpt lat="42.32180171106745" lon="13.611563720001843"><ele>957.8</ele><time>2026-05-03T07:53:46.999Z</time></trkpt><trkpt lat="42.32173096073433" lon="13.61169036651695"><ele>956.0</ele><time>2026-05-03T07:53:47.999Z</time></trkpt><trkpt lat="42.32165404505518" lon="13.61180931067059"><ele>956.0</ele><time>2026-05-03T07:53:48.999Z</time></trkpt><trkpt lat="42.32160060710184" lon="13.611937671975062"><ele>956.0</ele><time>2026-05-03T07:53:49.999Z</time></trkpt><trkpt lat="42.32157675040028" lon="13.612077836405561"><ele>956.0</ele><time>2026-05-03T07:53:50.999Z</time></trkpt><trkpt lat="42.321551747230934" lon="13.612235732628681"><ele>956.0</ele><time>2026-05-03T07:53:51.999Z</time></trkpt><trkpt lat="42.32150042743668" lon="13.61240419005841"><ele>954.75</ele><time>2026-05-03T07:53:52.999Z</time></trkpt><trkpt lat="42.321426272428226" lon="13.612530624738621"><ele>953.5</ele><time>2026-05-03T07:53:53.999Z</time></trkpt><trkpt lat="42.321313016447704" lon="13.612624553660913"><ele>952.25</ele><time>2026-05-03T07:53:54.999Z</time></trkpt><trkpt lat="42.32125076000771" lon="13.61274173065255"><ele>951.0</ele><time>2026-05-03T07:53:55.999Z</time></trkpt><trkpt lat="42.32117719756983" lon="13.61289105876479"><ele>949.75</ele><time>2026-05-03T07:53:56.999Z</time></trkpt><trkpt lat="42.321094938822945" lon="13.61305515826706"><ele>948.5</ele><time>2026-05-03T07:53:57.999Z</time></trkpt><trkpt lat="42.321002955928634" lon="13.61318857741306"><ele>947.25</ele><time>2026-05-03T07:53:58.999Z</time></trkpt><trkpt lat="42.32089631927323" lon="13.61332720419955"><ele>946.0</ele><time>2026-05-03T07:53:59.999Z</time></trkpt><trkpt lat="42.320807311604355" lon="13.613426624487705"><ele>945.9999999999999</ele><time>2026-05-03T07:54:00.999Z</time></trkpt><trkpt lat="42.3207609916694" lon="13.613486000631568"><ele>946.0</ele><time>2026-05-03T07:54:01.999Z</time></trkpt><trkpt lat="42.32069039371663" lon="13.613432218847842"><ele>946.0</ele><time>2026-05-03T07:54:03.999Z</time></trkpt><trkpt lat="42.32064668768903" lon="13.613343497746948"><ele>946.0</ele><time>2026-05-03T07:54:04.999Z</time></trkpt><trkpt lat="42.32058150437624" lon="13.613223956721471"><ele>945.9999999999999</ele><time>2026-05-03T07:54:05.999Z</time></trkpt><trkpt lat="42.320518577753646" lon="13.613137647833252"><ele>946.0</ele><time>2026-05-03T07:54:06.999Z</time></trkpt><trkpt lat="42.32045860024358" lon="13.613179629387027"><ele>946.5999999999999</ele><time>2026-05-03T07:54:16.999Z</time></trkpt><trkpt lat="42.320430332255185" lon="13.613312518851709"><ele>947.1999999999999</ele><time>2026-05-03T07:54:17.999Z</time></trkpt><trkpt lat="42.3204015755804" lon="13.61344076422885"><ele>947.8000000000001</ele><time>2026-05-03T07:54:18.999Z</time></trkpt><trkpt lat="42.32034150274037" lon="13.613532678841755"><ele>948.4000000000001</ele><time>2026-05-03T07:54:19.999Z</time></trkpt><trkpt lat="42.32025990685378" lon="13.613638175864452"><ele>949.0</ele><time>2026-05-03T07:54:20.999Z</time></trkpt><trkpt lat="42.32019836236547" lon="13.613780619934595"><ele>949.0</ele><time>2026-05-03T07:54:21.999Z</time></trkpt><trkpt lat="42.320174604343705" lon="13.6139033808635"><ele>949.0</ele><time>2026-05-03T07:54:22.999Z</time></trkpt><trkpt lat="42.32016442251334" lon="13.614048938155884"><ele>949.0</ele><time>2026-05-03T07:54:23.999Z</time></trkpt><trkpt lat="42.3201365500881" lon="13.614230300064737"><ele>949.0</ele><time>2026-05-03T07:54:24.999Z</time></trkpt><trkpt lat="42.32006926203457" lon="13.61437686149946"><ele>949.0</ele><time>2026-05-03T07:54:25.999Z</time></trkpt><trkpt lat="42.320001541786304" lon="13.614450482837603"><ele>949.0000000000001</ele><time>2026-05-03T07:54:26.999Z</time></trkpt><trkpt lat="42.31994470707875" lon="13.614490439400093"><ele>949.0000000000001</ele><time>2026-05-03T07:54:27.999Z</time></trkpt><trkpt lat="42.31987941553007" lon="13.614587460964392"><ele>949.0</ele><time>2026-05-03T07:54:28.999Z</time></trkpt><trkpt lat="42.31980735097095" lon="13.614725438529264"><ele>949.0</ele><time>2026-05-03T07:54:29.999Z</time></trkpt><trkpt lat="42.319715383149244" lon="13.614897212835706"><ele>950.5</ele><time>2026-05-03T07:54:30.999Z</time></trkpt><trkpt lat="42.31965230325108" lon="13.615047250747747"><ele>952.0</ele><time>2026-05-03T07:54:31.999Z</time></trkpt><trkpt lat="42.31957548409439" lon="13.615188709726791"><ele>953.5</ele><time>2026-05-03T07:54:32.999Z</time></trkpt><trkpt lat="42.319517955508836" lon="13.61534060799646"><ele>955.0</ele><time>2026-05-03T07:54:33.999Z</time></trkpt><trkpt lat="42.31946031083097" lon="13.61545717435294"><ele>955.0</ele><time>2026-05-03T07:54:34.999Z</time></trkpt><trkpt lat="42.319387580061914" lon="13.615541253532522"><ele>955.0</ele><time>2026-05-03T07:54:35.999Z</time></trkpt><trkpt lat="42.3192854348309" lon="13.615653736659473"><ele>955.0</ele><time>2026-05-03T07:54:36.999Z</time></trkpt><trkpt lat="42.31921306050713" lon="13.615755437638835"><ele>955.0</ele><time>2026-05-03T07:54:37.999Z</time></trkpt><trkpt lat="42.31917036622236" lon="13.615838200603315"><ele>955.0</ele><time>2026-05-03T07:54:38.998Z</time></trkpt><trkpt lat="42.31914141005235" lon="13.615919167094622"><ele>954.9999999999999</ele><time>2026-05-03T07:54:39.998Z</time></trkpt><trkpt lat="42.31913098131519" lon="13.616024320237633"><ele>955.0</ele><time>2026-05-03T07:54:40.998Z</time></trkpt><trkpt lat="42.31911849732031" lon="13.616124875475125"><ele>955.0</ele><time>2026-05-03T07:54:41.998Z</time></trkpt><trkpt lat="42.319082929272" lon="13.61621579307878"><ele>955.0</ele><time>2026-05-03T07:54:42.998Z</time></trkpt><trkpt lat="42.3190398546396" lon="13.616295326030116"><ele>954.9999999999999</ele><time>2026-05-03T07:54:43.998Z</time></trkpt><trkpt lat="42.31900149881567" lon="13.616391961920506"><ele>955.0</ele><time>2026-05-03T07:54:44.998Z</time></trkpt><trkpt lat="42.31895830256693" lon="13.616483963862496"><ele>955.6666666666666</ele><time>2026-05-03T07:54:45.998Z</time></trkpt><trkpt lat="42.31889298476699" lon="13.616560904379659"><ele>956.3333333333333</ele><time>2026-05-03T07:54:46.998Z</time></trkpt><trkpt lat="42.31883267409997" lon="13.616649583946836"><ele>957.0</ele><time>2026-05-03T07:54:47.998Z</time></trkpt><trkpt lat="42.31875959213352" lon="13.616743620051928"><ele>957.6666666666667</ele><time>2026-05-03T07:54:48.998Z</time></trkpt><trkpt lat="42.31868200837663" lon="13.61681111816217"><ele>958.3333333333334</ele><time>2026-05-03T07:54:49.998Z</time></trkpt><trkpt lat="42.3186238577899" lon="13.6168509120412"><ele>959.0</ele><time>2026-05-03T07:54:50.998Z</time></trkpt><trkpt lat="42.31853743907265" lon="13.617005768571408"><ele>959.0</ele><time>2026-05-03T07:54:52.998Z</time></trkpt><trkpt lat="42.318476272747134" lon="13.617093417897973"><ele>959.0000000000001</ele><time>2026-05-03T07:54:53.998Z</time></trkpt><trkpt lat="42.318389478143665" lon="13.617177668937833"><ele>959.0000000000001</ele><time>2026-05-03T07:54:54.998Z</time></trkpt><trkpt lat="42.31828930671911" lon="13.61724184938193"><ele>959.0</ele><time>2026-05-03T07:54:55.998Z</time></trkpt><trkpt lat="42.31818710352245" lon="13.617314903331899"><ele>959.0</ele><time>2026-05-03T07:54:56.998Z</time></trkpt><trkpt lat="42.31809821415756" lon="13.617418832442846"><ele>962.0</ele><time>2026-05-03T07:54:57.998Z</time></trkpt><trkpt lat="42.31801790937907" lon="13.617500830638974"><ele>965.0</ele><time>2026-05-03T07:54:58.998Z</time></trkpt><trkpt lat="42.31792070125685" lon="13.61755795436534"><ele>968.0</ele><time>2026-05-03T07:54:59.998Z</time></trkpt><trkpt lat="42.31781500449255" lon="13.61763907415569"><ele>971.0</ele><time>2026-05-03T07:55:00.998Z</time></trkpt><trkpt lat="42.31770880806363" lon="13.61775452218282"><ele>968.75</ele><time>2026-05-03T07:55:01.998Z</time></trkpt><trkpt lat="42.317582788472286" lon="13.617864897731145"><ele>966.5</ele><time>2026-05-03T07:55:02.998Z</time></trkpt><trkpt lat="42.317483902961825" lon="13.617983719000522"><ele>964.25</ele><time>2026-05-03T07:55:03.998Z</time></trkpt><trkpt lat="42.31740678797727" lon="13.618075881585174"><ele>962.0</ele><time>2026-05-03T07:55:04.998Z</time></trkpt><trkpt lat="42.3173088032705" lon="13.618148837881984"><ele>966.0</ele><time>2026-05-03T07:55:06Z</time></trkpt><trkpt lat="42.31720211579607" lon="13.618253355804207"><ele>970.0</ele><time>2026-05-03T07:55:07Z</time></trkpt><trkpt lat="42.31708953591872" lon="13.618369383810618"><ele>974.0</ele><time>2026-05-03T07:55:08Z</time></trkpt><trkpt lat="42.316995716443586" lon="13.6184654099375"><ele>978.0</ele><time>2026-05-03T07:55:09Z</time></trkpt><trkpt lat="42.31692171831555" lon="13.618554879956921"><ele>978.0</ele><time>2026-05-03T07:55:10Z</time></trkpt><trkpt lat="42.31684719139552" lon="13.618645877333485"><ele>978.0</ele><time>2026-05-03T07:55:11Z</time></trkpt><trkpt lat="42.31676608310984" lon="13.618700650732878"><ele>978.0</ele><time>2026-05-03T07:55:12Z</time></trkpt><trkpt lat="42.316670374435745" lon="13.618761439327743"><ele>978.0</ele><time>2026-05-03T07:55:13Z</time></trkpt><trkpt lat="42.316590243792604" lon="13.618842781432546"><ele>978.0</ele><time>2026-05-03T07:55:14Z</time></trkpt><trkpt lat="42.316522054155904" lon="13.618914823975029"><ele>978.5714285714287</ele><time>2026-05-03T07:55:15Z</time></trkpt><trkpt lat="42.3164567679167" lon="13.618969457992652"><ele>979.1428571428572</ele><time>2026-05-03T07:55:16Z</time></trkpt><trkpt lat="42.31639175439128" lon="13.619040789126675"><ele>979.7142857142858</ele><time>2026-05-03T07:55:17Z</time></trkpt><trkpt lat="42.31632791926607" lon="13.619089502434152"><ele>980.2857142857142</ele><time>2026-05-03T07:55:18Z</time></trkpt><trkpt lat="42.31627930858539" lon="13.619154697500308"><ele>980.8571428571428</ele><time>2026-05-03T07:55:19Z</time></trkpt><trkpt lat="42.3162514356488" lon="13.619243861495237"><ele>981.4285714285713</ele><time>2026-05-03T07:55:20Z</time></trkpt><trkpt lat="42.316233586905476" lon="13.619343127191522"><ele>982.0</ele><time>2026-05-03T07:55:21Z</time></trkpt><trkpt lat="42.31622203757424" lon="13.619436469136604"><ele>981.4999999999999</ele><time>2026-05-03T07:55:22Z</time></trkpt><trkpt lat="42.31619722713906" lon="13.619549248597627"><ele>981.0</ele><time>2026-05-03T07:55:23Z</time></trkpt><trkpt lat="42.31619133779151" lon="13.619641004792765"><ele>980.5</ele><time>2026-05-03T07:55:24Z</time></trkpt><trkpt lat="42.31619403479871" lon="13.61975252206276"><ele>980.0</ele><time>2026-05-03T07:55:25Z</time></trkpt><trkpt lat="42.31612504084989" lon="13.619856601977826"><ele>979.4999999999999</ele><time>2026-05-03T07:55:27Z</time></trkpt><trkpt lat="42.31606094427422" lon="13.61987398307351"><ele>979.0</ele><time>2026-05-03T07:55:28Z</time></trkpt><trkpt lat="42.315999588597045" lon="13.619905193641152"><ele>978.9999999999999</ele><time>2026-05-03T07:55:29Z</time></trkpt><trkpt lat="42.31593387458555" lon="13.619991873395872"><ele>979.0</ele><time>2026-05-03T07:55:30Z</time></trkpt><trkpt lat="42.315871946540035" lon="13.620087964386824"><ele>979.0</ele><time>2026-05-03T07:55:31Z</time></trkpt><trkpt lat="42.315812260120104" lon="13.620153458276743"><ele>979.0</ele><time>2026-05-03T07:55:32Z</time></trkpt><trkpt lat="42.31576070217343" lon="13.620232787999559"><ele>978.9999999999999</ele><time>2026-05-03T07:55:33Z</time></trkpt><trkpt lat="42.31572540925553" lon="13.620305878773765"><ele>979.0</ele><time>2026-05-03T07:55:34Z</time></trkpt><trkpt lat="42.315663463859174" lon="13.62042511536917"><ele>979.1666666666666</ele><time>2026-05-03T07:55:35Z</time></trkpt><trkpt lat="42.31560308135287" lon="13.620487678710498"><ele>979.3333333333333</ele><time>2026-05-03T07:55:36Z</time></trkpt><trkpt lat="42.31553238989283" lon="13.620498332177311"><ele>979.5</ele><time>2026-05-03T07:55:37Z</time></trkpt><trkpt lat="42.31545867532051" lon="13.620469073628517"><ele>979.6666666666667</ele><time>2026-05-03T07:55:38Z</time></trkpt><trkpt lat="42.31536277562863" lon="13.620573847514748"><ele>979.8333333333334</ele><time>2026-05-03T07:55:40Z</time></trkpt><trkpt lat="42.31530474026333" lon="13.620674757742782"><ele>980.0</ele><time>2026-05-03T07:55:41Z</time></trkpt><trkpt lat="42.31522293714477" lon="13.620784879531124"><ele>980.0</ele><time>2026-05-03T07:55:42Z</time></trkpt><trkpt lat="42.315135592305" lon="13.620886835523773"><ele>980.0</ele><time>2026-05-03T07:55:43Z</time></trkpt><trkpt lat="42.315029477306865" lon="13.620990107832474"><ele>980.0</ele><time>2026-05-03T07:55:44Z</time></trkpt><trkpt lat="42.314928584131685" lon="13.621048306793806"><ele>980.0</ele><time>2026-05-03T07:55:45Z</time></trkpt><trkpt lat="42.31481096337263" lon="13.621101273471396"><ele>980.25</ele><time>2026-05-03T07:55:46Z</time></trkpt><trkpt lat="42.31468407347552" lon="13.621160514872072"><ele>980.5</ele><time>2026-05-03T07:55:47Z</time></trkpt><trkpt lat="42.31457032559641" lon="13.621236855796504"><ele>980.75</ele><time>2026-05-03T07:55:48Z</time></trkpt><trkpt lat="42.31450565295319" lon="13.62131816486975"><ele>981.0</ele><time>2026-05-03T07:55:48.999Z</time></trkpt><trkpt lat="42.31440644354506" lon="13.621396422978629"><ele>981.0</ele><time>2026-05-03T07:55:49.999Z</time></trkpt><trkpt lat="42.314329807361666" lon="13.621465741697273"><ele>980.9999999999999</ele><time>2026-05-03T07:55:50.999Z</time></trkpt><trkpt lat="42.31423664459663" lon="13.62154404142119"><ele>980.9999999999999</ele><time>2026-05-03T07:55:51.999Z</time></trkpt><trkpt lat="42.314153280972704" lon="13.621606082506993"><ele>981.0</ele><time>2026-05-03T07:55:52.999Z</time></trkpt><trkpt lat="42.31405328380379" lon="13.621693232285331"><ele>981.0</ele><time>2026-05-03T07:55:53.999Z</time></trkpt><trkpt lat="42.313990692151336" lon="13.621751110512164"><ele>981.0</ele><time>2026-05-03T07:55:54.999Z</time></trkpt><trkpt lat="42.31391491386842" lon="13.6217932576432"><ele>980.9999999999999</ele><time>2026-05-03T07:55:56.999Z</time></trkpt><trkpt lat="42.313829101371226" lon="13.621711964112038"><ele>980.9999999999999</ele><time>2026-05-03T07:55:58.999Z</time></trkpt><trkpt lat="42.31373239940059" lon="13.621716710778141"><ele>981.0</ele><time>2026-05-03T07:56:00.999Z</time></trkpt><trkpt lat="42.31362568406012" lon="13.62178221728268"><ele>981.0</ele><time>2026-05-03T07:56:02.999Z</time></trkpt><trkpt lat="42.31356170763214" lon="13.621856887911008"><ele>981.3333333333334</ele><time>2026-05-03T07:56:03.999Z</time></trkpt><trkpt lat="42.313483278103064" lon="13.621919348289001"><ele>981.6666666666667</ele><time>2026-05-03T07:56:04.999Z</time></trkpt><trkpt lat="42.313406553550955" lon="13.621984419549838"><ele>982.0</ele><time>2026-05-03T07:56:05.999Z</time></trkpt><trkpt lat="42.313331514464224" lon="13.622059439205595"><ele>982.3333333333334</ele><time>2026-05-03T07:56:06.999Z</time></trkpt><trkpt lat="42.313285179982174" lon="13.62213917394457"><ele>982.6666666666667</ele><time>2026-05-03T07:56:07.999Z</time></trkpt><trkpt lat="42.31324354036697" lon="13.622208191740137"><ele>983.0</ele><time>2026-05-03T07:56:08.999Z</time></trkpt><trkpt lat="42.31319480600888" lon="13.622301904948014"><ele>983.0</ele><time>2026-05-03T07:56:09.999Z</time></trkpt><trkpt lat="42.31312825960431" lon="13.622402868097643"><ele>983.0</ele><time>2026-05-03T07:56:10.999Z</time></trkpt><trkpt lat="42.313040531298405" lon="13.622512951969737"><ele>983.0</ele><time>2026-05-03T07:56:11.999Z</time></trkpt><trkpt lat="42.31295630842207" lon="13.62261065674588"><ele>983.0</ele><time>2026-05-03T07:56:12.999Z</time></trkpt><trkpt lat="42.31287781258798" lon="13.622703944247933"><ele>983.0</ele><time>2026-05-03T07:56:13.999Z</time></trkpt><trkpt lat="42.3128233487931" lon="13.622777081264418"><ele>984.5999999999999</ele><time>2026-05-03T07:56:14.999Z</time></trkpt><trkpt lat="42.31277036782789" lon="13.62287225696305"><ele>986.1999999999999</ele><time>2026-05-03T07:56:15.999Z</time></trkpt><trkpt lat="42.312704540580384" lon="13.622981501342924"><ele>987.8</ele><time>2026-05-03T07:56:16.999Z</time></trkpt><trkpt lat="42.31265191688413" lon="13.623076067142074"><ele>989.4</ele><time>2026-05-03T07:56:17.999Z</time></trkpt><trkpt lat="42.31261037462513" lon="13.623227256536248"><ele>991.0</ele><time>2026-05-03T07:56:18.999Z</time></trkpt><trkpt lat="42.31256008061759" lon="13.623300897705509"><ele>991.0</ele><time>2026-05-03T07:56:19.999Z</time></trkpt><trkpt lat="42.312477948079454" lon="13.623384480963205"><ele>990.9999999999999</ele><time>2026-05-03T07:56:20.999Z</time></trkpt><trkpt lat="42.312417160424786" lon="13.623444589760677"><ele>990.9999999999999</ele><time>2026-05-03T07:56:21.999Z</time></trkpt><trkpt lat="42.31234760413808" lon="13.623592095297091"><ele>991.0</ele><time>2026-05-03T07:56:23.999Z</time></trkpt><trkpt lat="42.31231277290604" lon="13.623682600455508"><ele>991.0</ele><time>2026-05-03T07:56:24.999Z</time></trkpt><trkpt lat="42.31225207085973" lon="13.623789709402802"><ele>993.3333333333333</ele><time>2026-05-03T07:56:25.999Z</time></trkpt><trkpt lat="42.31219724402484" lon="13.623880428491944"><ele>995.6666666666666</ele><time>2026-05-03T07:56:26.999Z</time></trkpt><trkpt lat="42.31215380338913" lon="13.623970841008095"><ele>998.0</ele><time>2026-05-03T07:56:27.999Z</time></trkpt><trkpt lat="42.31210970776409" lon="13.624043247593152"><ele>1000.3333333333333</ele><time>2026-05-03T07:56:28.999Z</time></trkpt><trkpt lat="42.312063336108466" lon="13.62415421723976"><ele>1002.6666666666666</ele><time>2026-05-03T07:56:29.999Z</time></trkpt><trkpt lat="42.31200551882375" lon="13.624252415323056"><ele>1005.0</ele><time>2026-05-03T07:56:30.999Z</time></trkpt><trkpt lat="42.31194861676419" lon="13.624391024946057"><ele>1002.8</ele><time>2026-05-03T07:56:31.999Z</time></trkpt><trkpt lat="42.31187999065387" lon="13.624514554517983"><ele>1000.6</ele><time>2026-05-03T07:56:32.999Z</time></trkpt><trkpt lat="42.311805499373335" lon="13.624652911693843"><ele>998.4000000000001</ele><time>2026-05-03T07:56:33.999Z</time></trkpt><trkpt lat="42.311739955436494" lon="13.624759327823869"><ele>996.2</ele><time>2026-05-03T07:56:34.999Z</time></trkpt><trkpt lat="42.31168983527165" lon="13.624858287493266"><ele>994.0</ele><time>2026-05-03T07:56:35.999Z</time></trkpt><trkpt lat="42.31162197852245" lon="13.624926301212792"><ele>994.0</ele><time>2026-05-03T07:56:36.999Z</time></trkpt><trkpt lat="42.31154197329549" lon="13.625016463670597"><ele>994.0000000000001</ele><time>2026-05-03T07:56:37.999Z</time></trkpt><trkpt lat="42.31146693939932" lon="13.625110724375633"><ele>994.0000000000001</ele><time>2026-05-03T07:56:38.999Z</time></trkpt><trkpt lat="42.311401829232636" lon="13.62525041845647"><ele>994.0</ele><time>2026-05-03T07:56:39.999Z</time></trkpt><trkpt lat="42.31134232190044" lon="13.625344897412461"><ele>994.0</ele><time>2026-05-03T07:56:40.999Z</time></trkpt><trkpt lat="42.311247971239375" lon="13.625501867220265"><ele>998.5</ele><time>2026-05-03T07:56:41.999Z</time></trkpt><trkpt lat="42.31116663957587" lon="13.625658727805304"><ele>1003.0</ele><time>2026-05-03T07:56:42.999Z</time></trkpt><trkpt lat="42.31110800299858" lon="13.625803271236116"><ele>1007.5</ele><time>2026-05-03T07:56:43.999Z</time></trkpt><trkpt lat="42.311035208178616" lon="13.625922863058417"><ele>1012.0</ele><time>2026-05-03T07:56:44.999Z</time></trkpt><trkpt lat="42.31097680722332" lon="13.626035848423532"><ele>1010.0</ele><time>2026-05-03T07:56:45.999Z</time></trkpt><trkpt lat="42.31095491878272" lon="13.626150863609588"><ele>1008.0</ele><time>2026-05-03T07:56:46.999Z</time></trkpt><trkpt lat="42.31092614429082" lon="13.626269560496452"><ele>1006.0</ele><time>2026-05-03T07:56:47.998Z</time></trkpt><trkpt lat="42.310880029857536" lon="13.626393575379781"><ele>1004.0</ele><time>2026-05-03T07:56:48.998Z</time></trkpt><trkpt lat="42.31083488797419" lon="13.626511794950968"><ele>1002.0</ele><time>2026-05-03T07:56:49.998Z</time></trkpt><trkpt lat="42.31077363474218" lon="13.62662851532046"><ele>1002.0</ele><time>2026-05-03T07:56:50.998Z</time></trkpt><trkpt lat="42.31071091652939" lon="13.626737068829398"><ele>1002.0</ele><time>2026-05-03T07:56:51.998Z</time></trkpt><trkpt lat="42.31063631496486" lon="13.626853734924657"><ele>1002.0</ele><time>2026-05-03T07:56:52.998Z</time></trkpt><trkpt lat="42.3105571687915" lon="13.62696401439611"><ele>1002.0</ele><time>2026-05-03T07:56:53.998Z</time></trkpt><trkpt lat="42.310480306697" lon="13.627087766302449"><ele>1002.0</ele><time>2026-05-03T07:56:54.998Z</time></trkpt><trkpt lat="42.310434828576156" lon="13.627181510674827"><ele>1003.0</ele><time>2026-05-03T07:56:55.998Z</time></trkpt><trkpt lat="42.31038447626352" lon="13.62731629129162"><ele>1004.0</ele><time>2026-05-03T07:56:56.998Z</time></trkpt><trkpt lat="42.310325118552846" lon="13.627454830556589"><ele>1005.0</ele><time>2026-05-03T07:56:57.998Z</time></trkpt><trkpt lat="42.3102722840694" lon="13.627575582037895"><ele>1006.0</ele><time>2026-05-03T07:56:58.998Z</time></trkpt><trkpt lat="42.31020871816598" lon="13.627680200045512"><ele>1007.0</ele><time>2026-05-03T07:56:59.998Z</time></trkpt><trkpt lat="42.310149930188224" lon="13.627724895828802"><ele>1005.0</ele><time>2026-05-03T07:57:00.998Z</time></trkpt><trkpt lat="42.310069678265236" lon="13.627826203517161"><ele>1003.0</ele><time>2026-05-03T07:57:02.998Z</time></trkpt><trkpt lat="42.31000900925335" lon="13.627940634814388"><ele>1001.0</ele><time>2026-05-03T07:57:03.998Z</time></trkpt><trkpt lat="42.309951083030064" lon="13.628099368295956"><ele>999.0</ele><time>2026-05-03T07:57:04.998Z</time></trkpt><trkpt lat="42.309888505949644" lon="13.628246910394193"><ele>999.0</ele><time>2026-05-03T07:57:05.998Z</time></trkpt><trkpt lat="42.30983787436831" lon="13.628366271019665"><ele>999.0000000000001</ele><time>2026-05-03T07:57:06.998Z</time></trkpt><trkpt lat="42.30977891728816" lon="13.62847329207603"><ele>999.0000000000001</ele><time>2026-05-03T07:57:07.998Z</time></trkpt><trkpt lat="42.309722049417196" lon="13.628590725179578"><ele>999.0</ele><time>2026-05-03T07:57:08.998Z</time></trkpt><trkpt lat="42.30965851830271" lon="13.62870773116703"><ele>999.0</ele><time>2026-05-03T07:57:09.998Z</time></trkpt><trkpt lat="42.30959635617243" lon="13.628842498886616"><ele>1001.3333333333334</ele><time>2026-05-03T07:57:10.998Z</time></trkpt><trkpt lat="42.30954626894407" lon="13.628937328281271"><ele>1003.6666666666667</ele><time>2026-05-03T07:57:12Z</time></trkpt><trkpt lat="42.30951903799785" lon="13.629047201791591"><ele>1006.0</ele><time>2026-05-03T07:57:13Z</time></trkpt><trkpt lat="42.30951337823168" lon="13.62914499400514"><ele>1008.3333333333334</ele><time>2026-05-03T07:57:14Z</time></trkpt><trkpt lat="42.309465492830064" lon="13.629255727357691"><ele>1010.6666666666667</ele><time>2026-05-03T07:57:15Z</time></trkpt><trkpt lat="42.30939370822429" lon="13.629335194537896"><ele>1013.0</ele><time>2026-05-03T07:57:16Z</time></trkpt><trkpt lat="42.309323701589705" lon="13.629395890057843"><ele>1012.25</ele><time>2026-05-03T07:57:17Z</time></trkpt><trkpt lat="42.30924523130546" lon="13.62950267074409"><ele>1011.5</ele><time>2026-05-03T07:57:18Z</time></trkpt><trkpt lat="42.30915725924745" lon="13.629629711362355"><ele>1010.75</ele><time>2026-05-03T07:57:19Z</time></trkpt><trkpt lat="42.309069785164915" lon="13.629802578929505"><ele>1010.0</ele><time>2026-05-03T07:57:20Z</time></trkpt><trkpt lat="42.30899218196149" lon="13.629927016437478"><ele>1010.0</ele><time>2026-05-03T07:57:21Z</time></trkpt><trkpt lat="42.30893584942242" lon="13.63002924010799"><ele>1010.0</ele><time>2026-05-03T07:57:22Z</time></trkpt><trkpt lat="42.30892411015392" lon="13.630142542036632"><ele>1010.0</ele><time>2026-05-03T07:57:23Z</time></trkpt><trkpt lat="42.30888957381415" lon="13.63032777618191"><ele>1010.0</ele><time>2026-05-03T07:57:24Z</time></trkpt><trkpt lat="42.30884728446421" lon="13.63053567775512"><ele>1009.8</ele><time>2026-05-03T07:57:25Z</time></trkpt><trkpt lat="42.30881696803505" lon="13.630646430589026"><ele>1009.6</ele><time>2026-05-03T07:57:26Z</time></trkpt><trkpt lat="42.30882698205718" lon="13.630751760670854"><ele>1009.4000000000001</ele><time>2026-05-03T07:57:27Z</time></trkpt><trkpt lat="42.30885654260058" lon="13.630878968233787"><ele>1009.2</ele><time>2026-05-03T07:57:28Z</time></trkpt><trkpt lat="42.30888994620923" lon="13.631019713333057"><ele>1009.0</ele><time>2026-05-03T07:57:29Z</time></trkpt><trkpt lat="42.30892132456813" lon="13.631125355211125"><ele>1009.6666666666666</ele><time>2026-05-03T07:57:30Z</time></trkpt><trkpt lat="42.30893836586105" lon="13.631220975474413"><ele>1010.3333333333333</ele><time>2026-05-03T07:57:31Z</time></trkpt><trkpt lat="42.30890585109908" lon="13.631383148159456"><ele>1011.0</ele><time>2026-05-03T07:57:33Z</time></trkpt><trkpt lat="42.30888305021065" lon="13.63147350113488"><ele>1011.6666666666667</ele><time>2026-05-03T07:57:34Z</time></trkpt><trkpt lat="42.30884653039452" lon="13.631564815952387"><ele>1012.3333333333334</ele><time>2026-05-03T07:57:35Z</time></trkpt><trkpt lat="42.308796491087726" lon="13.631660507901174"><ele>1013.0</ele><time>2026-05-03T07:57:36Z</time></trkpt><trkpt lat="42.30878646986806" lon="13.631781324710191"><ele>1010.2</ele><time>2026-05-03T07:57:37Z</time></trkpt><trkpt lat="42.3087653032881" lon="13.63191215698241"><ele>1007.4</ele><time>2026-05-03T07:57:38Z</time></trkpt><trkpt lat="42.308736179550415" lon="13.632033828219017"><ele>1004.6000000000001</ele><time>2026-05-03T07:57:39Z</time></trkpt><trkpt lat="42.308690190882494" lon="13.632149467615921"><ele>1001.8000000000001</ele><time>2026-05-03T07:57:40Z</time></trkpt><trkpt lat="42.30865669875338" lon="13.63226045214096"><ele>999.0</ele><time>2026-05-03T07:57:41Z</time></trkpt><trkpt lat="42.308602034471804" lon="13.632379171272216"><ele>999.0</ele><time>2026-05-03T07:57:42Z</time></trkpt><trkpt lat="42.30855424650671" lon="13.632513584970056"><ele>999.0</ele><time>2026-05-03T07:57:43Z</time></trkpt><trkpt lat="42.308470320860664" lon="13.632657698242301"><ele>999.0</ele><time>2026-05-03T07:57:44Z</time></trkpt><trkpt lat="42.30838902693697" lon="13.632810243794944"><ele>999.0</ele><time>2026-05-03T07:57:45Z</time></trkpt><trkpt lat="42.30832743414658" lon="13.632951329265198"><ele>999.0</ele><time>2026-05-03T07:57:46Z</time></trkpt><trkpt lat="42.308251865969" lon="13.633094723145026"><ele>999.0</ele><time>2026-05-03T07:57:47Z</time></trkpt><trkpt lat="42.30818600230021" lon="13.633203624845462"><ele>999.0</ele><time>2026-05-03T07:57:48Z</time></trkpt><trkpt lat="42.308115995983066" lon="13.633354577943194"><ele>999.0</ele><time>2026-05-03T07:57:49Z</time></trkpt><trkpt lat="42.30807250019353" lon="13.63349312015069"><ele>997.3333333333334</ele><time>2026-05-03T07:57:50Z</time></trkpt><trkpt lat="42.3079959122271" lon="13.633596031862256"><ele>995.6666666666667</ele><time>2026-05-03T07:57:51Z</time></trkpt><trkpt lat="42.3079478105931" lon="13.633691903490025"><ele>994.0</ele><time>2026-05-03T07:57:52Z</time></trkpt><trkpt lat="42.30791617546463" lon="13.63380102820698"><ele>992.3333333333334</ele><time>2026-05-03T07:57:53Z</time></trkpt><trkpt lat="42.30790032009113" lon="13.633887411905734"><ele>990.6666666666667</ele><time>2026-05-03T07:57:54Z</time></trkpt><trkpt lat="42.307850382439014" lon="13.633956761005802"><ele>989.0</ele><time>2026-05-03T07:57:55Z</time></trkpt><trkpt lat="42.307787732224995" lon="13.633998625592811"><ele>988.8000000000001</ele><time>2026-05-03T07:57:56Z</time></trkpt><trkpt lat="42.307692651295085" lon="13.63403650270789"><ele>988.6000000000001</ele><time>2026-05-03T07:57:57Z</time></trkpt><trkpt lat="42.307603227725146" lon="13.634061478988754"><ele>988.4</ele><time>2026-05-03T07:57:58Z</time></trkpt><trkpt lat="42.30752509484762" lon="13.634134209471988"><ele>988.2</ele><time>2026-05-03T07:57:59Z</time></trkpt><trkpt lat="42.307472403594794" lon="13.63424328627355"><ele>988.0</ele><time>2026-05-03T07:57:59.999Z</time></trkpt><trkpt lat="42.30740537117132" lon="13.634336184267486"><ele>987.25</ele><time>2026-05-03T07:58:00.999Z</time></trkpt><trkpt lat="42.307293395147155" lon="13.634506793177342"><ele>986.5</ele><time>2026-05-03T07:58:01.999Z</time></trkpt><trkpt lat="42.30720852083206" lon="13.634652895712813"><ele>985.75</ele><time>2026-05-03T07:58:02.999Z</time></trkpt><trkpt lat="42.30712261606145" lon="13.634797974314711"><ele>985.0</ele><time>2026-05-03T07:58:03.999Z</time></trkpt><trkpt lat="42.307050902298364" lon="13.634949843825103"><ele>985.0</ele><time>2026-05-03T07:58:04.999Z</time></trkpt><trkpt lat="42.30697971332514" lon="13.63510478452996"><ele>985.0</ele><time>2026-05-03T07:58:05.999Z</time></trkpt><trkpt lat="42.30689156291777" lon="13.63529284657299"><ele>985.0</ele><time>2026-05-03T07:58:06.999Z</time></trkpt><trkpt lat="42.306799008661386" lon="13.635469117862426"><ele>984.0</ele><time>2026-05-03T07:58:07.999Z</time></trkpt><trkpt lat="42.30671239227537" lon="13.63559699965872"><ele>983.0</ele><time>2026-05-03T07:58:08.999Z</time></trkpt><trkpt lat="42.3066328351289" lon="13.63574814675206"><ele>982.0</ele><time>2026-05-03T07:58:09.999Z</time></trkpt><trkpt lat="42.306559295972924" lon="13.635882336581322"><ele>981.0</ele><time>2026-05-03T07:58:10.999Z</time></trkpt><trkpt lat="42.30650373901164" lon="13.636024254890183"><ele>981.75</ele><time>2026-05-03T07:58:11.999Z</time></trkpt><trkpt lat="42.306439063183944" lon="13.636178401364655"><ele>982.5</ele><time>2026-05-03T07:58:12.999Z</time></trkpt><trkpt lat="42.30636213795219" lon="13.636314815036316"><ele>983.25</ele><time>2026-05-03T07:58:13.999Z</time></trkpt><trkpt lat="42.3062864992329" lon="13.636446632530596"><ele>984.0</ele><time>2026-05-03T07:58:14.999Z</time></trkpt><trkpt lat="42.3062353146349" lon="13.636568701815026"><ele>982.5</ele><time>2026-05-03T07:58:15.999Z</time></trkpt><trkpt lat="42.306206596613855" lon="13.63673283798334"><ele>981.0</ele><time>2026-05-03T07:58:16.999Z</time></trkpt><trkpt lat="42.30616792927293" lon="13.636892769890848"><ele>979.5</ele><time>2026-05-03T07:58:17.999Z</time></trkpt><trkpt lat="42.30610980663416" lon="13.637061360664939"><ele>978.0</ele><time>2026-05-03T07:58:18.999Z</time></trkpt><trkpt lat="42.306052064643175" lon="13.637229267376908"><ele>976.75</ele><time>2026-05-03T07:58:19.999Z</time></trkpt><trkpt lat="42.306000826990704" lon="13.637389158046533"><ele>975.5</ele><time>2026-05-03T07:58:20.999Z</time></trkpt><trkpt lat="42.305967414022696" lon="13.637537279274484"><ele>974.25</ele><time>2026-05-03T07:58:21.999Z</time></trkpt><trkpt lat="42.305939258638915" lon="13.637704200820288"><ele>973.0</ele><time>2026-05-03T07:58:22.999Z</time></trkpt><trkpt lat="42.30592252463067" lon="13.637852840056725"><ele>972.2</ele><time>2026-05-03T07:58:23.999Z</time></trkpt><trkpt lat="42.30589711678035" lon="13.637972607581894"><ele>971.4</ele><time>2026-05-03T07:58:24.999Z</time></trkpt><trkpt lat="42.305862095902846" lon="13.638107512089366"><ele>970.6000000000001</ele><time>2026-05-03T07:58:25.999Z</time></trkpt><trkpt lat="42.30583304297333" lon="13.638241958133982"><ele>969.8000000000001</ele><time>2026-05-03T07:58:26.999Z</time></trkpt><trkpt lat="42.30581767229531" lon="13.638372872633393"><ele>969.0</ele><time>2026-05-03T07:58:27.999Z</time></trkpt><trkpt lat="42.30578688265645" lon="13.638482459739027"><ele>969.0</ele><time>2026-05-03T07:58:28.999Z</time></trkpt><trkpt lat="42.30575415450076" lon="13.638569724471994"><ele>969.0</ele><time>2026-05-03T07:58:29.999Z</time></trkpt><trkpt lat="42.30571115211426" lon="13.638632755451027"><ele>969.0</ele><time>2026-05-03T07:58:30.999Z</time></trkpt><trkpt lat="42.305679047485846" lon="13.63870862490396"><ele>969.0</ele><time>2026-05-03T07:58:31.999Z</time></trkpt><trkpt lat="42.30564081795072" lon="13.638913804679337"><ele>969.0</ele><time>2026-05-03T07:58:33.999Z</time></trkpt><trkpt lat="42.30562522308227" lon="13.639024478518792"><ele>969.0</ele><time>2026-05-03T07:58:34.999Z</time></trkpt><trkpt lat="42.30560047632836" lon="13.639136933523725"><ele>968.8000000000001</ele><time>2026-05-03T07:58:35.999Z</time></trkpt><trkpt lat="42.30555469516446" lon="13.639267045280587"><ele>968.6000000000001</ele><time>2026-05-03T07:58:36.999Z</time></trkpt><trkpt lat="42.30548327603853" lon="13.639379999867549"><ele>968.4</ele><time>2026-05-03T07:58:37.999Z</time></trkpt><trkpt lat="42.30542978606365" lon="13.639488402103217"><ele>968.2</ele><time>2026-05-03T07:58:38.999Z</time></trkpt><trkpt lat="42.305399363016214" lon="13.63958698682875"><ele>968.0</ele><time>2026-05-03T07:58:39.999Z</time></trkpt><trkpt lat="42.30536867707738" lon="13.639678140482818"><ele>965.2</ele><time>2026-05-03T07:58:40.999Z</time></trkpt><trkpt lat="42.30532704105411" lon="13.639788537002756"><ele>962.4</ele><time>2026-05-03T07:58:41.999Z</time></trkpt><trkpt lat="42.30530819824794" lon="13.639917618803652"><ele>959.6000000000001</ele><time>2026-05-03T07:58:42.999Z</time></trkpt><trkpt lat="42.30526456915641" lon="13.640072190473553"><ele>956.8000000000001</ele><time>2026-05-03T07:58:43.999Z</time></trkpt><trkpt lat="42.30523278144357" lon="13.640204214083452"><ele>954.0</ele><time>2026-05-03T07:58:44.999Z</time></trkpt><trkpt lat="42.30519675457018" lon="13.640355408189341"><ele>951.6</ele><time>2026-05-03T07:58:45.999Z</time></trkpt><trkpt lat="42.30516164040568" lon="13.640504690187937"><ele>949.2</ele><time>2026-05-03T07:58:46.999Z</time></trkpt><trkpt lat="42.30512932706223" lon="13.640639902198929"><ele>946.8000000000001</ele><time>2026-05-03T07:58:47.999Z</time></trkpt><trkpt lat="42.30506853499685" lon="13.64073324094168"><ele>944.4000000000001</ele><time>2026-05-03T07:58:48.999Z</time></trkpt><trkpt lat="42.3049879446772" lon="13.640838298021235"><ele>942.0</ele><time>2026-05-03T07:58:49.999Z</time></trkpt><trkpt lat="42.304956086975075" lon="13.640925788793032"><ele>942.0</ele><time>2026-05-03T07:58:50.999Z</time></trkpt><trkpt lat="42.30493913839835" lon="13.641028792610797"><ele>942.0</ele><time>2026-05-03T07:58:51.999Z</time></trkpt><trkpt lat="42.30495966612335" lon="13.641162303476298"><ele>942.0</ele><time>2026-05-03T07:58:52.999Z</time></trkpt><trkpt lat="42.30495277991714" lon="13.641299722375672"><ele>942.0</ele><time>2026-05-03T07:58:53.999Z</time></trkpt><trkpt lat="42.30493818972146" lon="13.641397635141544"><ele>942.0</ele><time>2026-05-03T07:58:54.999Z</time></trkpt><trkpt lat="42.304896746216414" lon="13.641498753202942"><ele>942.0</ele><time>2026-05-03T07:58:55.999Z</time></trkpt><trkpt lat="42.304851183053046" lon="13.641595952785899"><ele>940.6</ele><time>2026-05-03T07:58:56.999Z</time></trkpt><trkpt lat="42.304825633417416" lon="13.641726612077097"><ele>939.2</ele><time>2026-05-03T07:58:57.999Z</time></trkpt><trkpt lat="42.30481928602957" lon="13.641837846242254"><ele>937.8</ele><time>2026-05-03T07:58:58.998Z</time></trkpt><trkpt lat="42.30481011293118" lon="13.641948172304517"><ele>936.4</ele><time>2026-05-03T07:58:59.998Z</time></trkpt><trkpt lat="42.304742488593455" lon="13.642090622874456"><ele>935.0</ele><time>2026-05-03T07:59:01.998Z</time></trkpt><trkpt lat="42.30461651018307" lon="13.642199465886623"><ele>931.6</ele><time>2026-05-03T07:59:03.998Z</time></trkpt><trkpt lat="42.304538643488065" lon="13.642283396544178"><ele>928.2</ele><time>2026-05-03T07:59:04.998Z</time></trkpt><trkpt lat="42.304470689440194" lon="13.642382288445798"><ele>924.8</ele><time>2026-05-03T07:59:05.998Z</time></trkpt><trkpt lat="42.30439549869675" lon="13.642502989781327"><ele>921.4</ele><time>2026-05-03T07:59:06.998Z</time></trkpt><trkpt lat="42.304328162388494" lon="13.64259561311263"><ele>918.0</ele><time>2026-05-03T07:59:07.998Z</time></trkpt><trkpt lat="42.30425761405489" lon="13.642688560471047"><ele>918.0</ele><time>2026-05-03T07:59:08.998Z</time></trkpt><trkpt lat="42.30420458211556" lon="13.642762651749157"><ele>918.0</ele><time>2026-05-03T07:59:09.998Z</time></trkpt><trkpt lat="42.304143950655316" lon="13.642845698024878"><ele>918.0</ele><time>2026-05-03T07:59:10.998Z</time></trkpt><trkpt lat="42.30405620333081" lon="13.642864788726438"><ele>918.0</ele><time>2026-05-03T07:59:12.998Z</time></trkpt><trkpt lat="42.303986192627455" lon="13.642879038454108"><ele>918.0</ele><time>2026-05-03T07:59:15.998Z</time></trkpt><trkpt lat="42.30388290890096" lon="13.642914890436774"><ele>918.0</ele><time>2026-05-03T07:59:17.999Z</time></trkpt><trkpt lat="42.30381064739436" lon="13.642947451864604"><ele>915.8</ele><time>2026-05-03T07:59:18.999Z</time></trkpt><trkpt lat="42.30373891318625" lon="13.64297277289549"><ele>913.5999999999999</ele><time>2026-05-03T07:59:19.999Z</time></trkpt><trkpt lat="42.303654996238954" lon="13.64298484247698"><ele>911.4000000000001</ele><time>2026-05-03T07:59:20.999Z</time></trkpt><trkpt lat="42.30355913746868" lon="13.64301916111747"><ele>909.2</ele><time>2026-05-03T07:59:21.999Z</time></trkpt><trkpt lat="42.30346320485431" lon="13.643067505231775"><ele>907.0</ele><time>2026-05-03T07:59:22.999Z</time></trkpt><trkpt lat="42.303331401902206" lon="13.64312047421112"><ele>907.0</ele><time>2026-05-03T07:59:23.999Z</time></trkpt><trkpt lat="42.303249718211745" lon="13.643148916071981"><ele>907.0</ele><time>2026-05-03T07:59:24.999Z</time></trkpt><trkpt lat="42.303157141126796" lon="13.643161259088757"><ele>907.0</ele><time>2026-05-03T07:59:25.999Z</time></trkpt><trkpt lat="42.30308298941469" lon="13.643191806643845"><ele>907.0</ele><time>2026-05-03T07:59:26.999Z</time></trkpt><trkpt lat="42.30298561738363" lon="13.643212143913791"><ele>907.0</ele><time>2026-05-03T07:59:28Z</time></trkpt><trkpt lat="42.30288755851312" lon="13.643244975204476"><ele>903.8</ele><time>2026-05-03T07:59:29Z</time></trkpt><trkpt lat="42.302746246369715" lon="13.64323988772748"><ele>900.6</ele><time>2026-05-03T07:59:31Z</time></trkpt><trkpt lat="42.30265568131573" lon="13.64322556338058"><ele>897.3999999999999</ele><time>2026-05-03T07:59:32Z</time></trkpt><trkpt lat="42.3025732281431" lon="13.643196848854483"><ele>894.1999999999999</ele><time>2026-05-03T07:59:33Z</time></trkpt><trkpt lat="42.30248824385386" lon="13.643144153787231"><ele>891.0</ele><time>2026-05-03T07:59:34Z</time></trkpt><trkpt lat="42.30238939043272" lon="13.643111077088498"><ele>891.0</ele><time>2026-05-03T07:59:35Z</time></trkpt><trkpt lat="42.302307159494546" lon="13.643113236198214"><ele>891.0</ele><time>2026-05-03T07:59:36Z</time></trkpt><trkpt lat="42.302238809784406" lon="13.643137070800282"><ele>891.0</ele><time>2026-05-03T07:59:37Z</time></trkpt><trkpt lat="42.30218067550271" lon="13.643173603253596"><ele>891.0</ele><time>2026-05-03T07:59:38Z</time></trkpt><trkpt lat="42.302116964255255" lon="13.643219744465853"><ele>891.0</ele><time>2026-05-03T07:59:39Z</time></trkpt><trkpt lat="42.30204366317002" lon="13.643295582835998"><ele>891.0</ele><time>2026-05-03T07:59:39.999Z</time></trkpt><trkpt lat="42.30193887601975" lon="13.643354514012858"><ele>888.5</ele><time>2026-05-03T07:59:40.999Z</time></trkpt><trkpt lat="42.30186141182126" lon="13.64335019971361"><ele>886.0</ele><time>2026-05-03T07:59:41.999Z</time></trkpt><trkpt lat="42.30174773383727" lon="13.643361663637497"><ele>883.5</ele><time>2026-05-03T07:59:42.999Z</time></trkpt><trkpt lat="42.30161021796985" lon="13.643390108316257"><ele>881.0</ele><time>2026-05-03T07:59:43.999Z</time></trkpt><trkpt lat="42.30147972600804" lon="13.643421893719236"><ele>879.25</ele><time>2026-05-03T07:59:44.999Z</time></trkpt><trkpt lat="42.30137198228661" lon="13.643465025580431"><ele>877.5</ele><time>2026-05-03T07:59:45.999Z</time></trkpt><trkpt lat="42.30127060170108" lon="13.643521707333743"><ele>875.75</ele><time>2026-05-03T07:59:46.999Z</time></trkpt><trkpt lat="42.30116547666323" lon="13.64357710673137"><ele>874.0</ele><time>2026-05-03T07:59:47.999Z</time></trkpt><trkpt lat="42.30105342561816" lon="13.64361725894645"><ele>873.25</ele><time>2026-05-03T07:59:48.999Z</time></trkpt><trkpt lat="42.300937693018014" lon="13.643637602514207"><ele>872.5</ele><time>2026-05-03T07:59:49.999Z</time></trkpt><trkpt lat="42.30081445085027" lon="13.643701552656344"><ele>871.75</ele><time>2026-05-03T07:59:50.999Z</time></trkpt><trkpt lat="42.30070741059819" lon="13.643746678139799"><ele>871.0</ele><time>2026-05-03T07:59:51.999Z</time></trkpt><trkpt lat="42.30059309476784" lon="13.643805960512898"><ele>869.5</ele><time>2026-05-03T07:59:52.999Z</time></trkpt><trkpt lat="42.30047686787857" lon="13.64386552458565"><ele>868.0</ele><time>2026-05-03T07:59:53.999Z</time></trkpt><trkpt lat="42.30036061771299" lon="13.643889074770469"><ele>866.5</ele><time>2026-05-03T07:59:54.999Z</time></trkpt><trkpt lat="42.30022201863884" lon="13.643912556657085"><ele>865.0</ele><time>2026-05-03T07:59:55.999Z</time></trkpt><trkpt lat="42.30011817038226" lon="13.643924927398846"><ele>865.0</ele><time>2026-05-03T07:59:56.999Z</time></trkpt><trkpt lat="42.300001129208724" lon="13.643932065644744"><ele>865.0</ele><time>2026-05-03T07:59:57.999Z</time></trkpt><trkpt lat="42.29988681932109" lon="13.643923702408546"><ele>865.0</ele><time>2026-05-03T07:59:58.999Z</time></trkpt><trkpt lat="42.29979827915772" lon="13.643900921293552"><ele>865.0</ele><time>2026-05-03T07:59:59.999Z</time></trkpt><trkpt lat="42.29971197794188" lon="13.643879048490595"><ele>865.0</ele><time>2026-05-03T08:00:00.999Z</time></trkpt><trkpt lat="42.29963376964714" lon="13.643840680249204"><ele>864.0</ele><time>2026-05-03T08:00:01.999Z</time></trkpt><trkpt lat="42.299549167987415" lon="13.643759901719225"><ele>863.0</ele><time>2026-05-03T08:00:02.999Z</time></trkpt><trkpt lat="42.299441841491664" lon="13.643646788338184"><ele>862.0</ele><time>2026-05-03T08:00:03.999Z</time></trkpt><trkpt lat="42.29932085384921" lon="13.643524065919744"><ele>861.0</ele><time>2026-05-03T08:00:04.999Z</time></trkpt><trkpt lat="42.299206453265874" lon="13.643419846330573"><ele>859.75</ele><time>2026-05-03T08:00:05.999Z</time></trkpt><trkpt lat="42.29910081497707" lon="13.643319552502263"><ele>858.5</ele><time>2026-05-03T08:00:06.999Z</time></trkpt><trkpt lat="42.29899579580244" lon="13.643221462899266"><ele>857.25</ele><time>2026-05-03T08:00:07.999Z</time></trkpt><trkpt lat="42.29888637514528" lon="13.643117764044208"><ele>856.0</ele><time>2026-05-03T08:00:08.999Z</time></trkpt><trkpt lat="42.29876334598772" lon="13.642997531413364"><ele>853.6666666666666</ele><time>2026-05-03T08:00:09.999Z</time></trkpt><trkpt lat="42.29864172929208" lon="13.642859243404972"><ele>851.3333333333333</ele><time>2026-05-03T08:00:10.999Z</time></trkpt><trkpt lat="42.298532882816176" lon="13.64269430224829"><ele>849.0</ele><time>2026-05-03T08:00:11.999Z</time></trkpt><trkpt lat="42.2984288478995" lon="13.642512248625684"><ele>847.0</ele><time>2026-05-03T08:00:12.999Z</time></trkpt><trkpt lat="42.29832053900018" lon="13.642316644296908"><ele>845.0</ele><time>2026-05-03T08:00:13.999Z</time></trkpt><trkpt lat="42.29820540314525" lon="13.64213954123853"><ele>843.0</ele><time>2026-05-03T08:00:14.999Z</time></trkpt><trkpt lat="42.29807714364201" lon="13.641969600344275"><ele>840.0</ele><time>2026-05-03T08:00:15.999Z</time></trkpt><trkpt lat="42.29796537494019" lon="13.641827268063592"><ele>837.0</ele><time>2026-05-03T08:00:16.999Z</time></trkpt><trkpt lat="42.2978760806538" lon="13.641714820170927"><ele>834.0</ele><time>2026-05-03T08:00:17.999Z</time></trkpt><trkpt lat="42.29781400530379" lon="13.64162712754875"><ele>831.0</ele><time>2026-05-03T08:00:18.999Z</time></trkpt><trkpt lat="42.29774916536174" lon="13.641552809868383"><ele>831.0</ele><time>2026-05-03T08:00:20.999Z</time></trkpt><trkpt lat="42.29764105901085" lon="13.641608492287968"><ele>831.0</ele><time>2026-05-03T08:00:22.999Z</time></trkpt><trkpt lat="42.29754635855393" lon="13.64164364812918"><ele>831.0</ele><time>2026-05-03T08:00:23.999Z</time></trkpt><trkpt lat="42.297435821979164" lon="13.641661519642357"><ele>831.0</ele><time>2026-05-03T08:00:24.999Z</time></trkpt><trkpt lat="42.29731860865438" lon="13.641659825227345"><ele>831.0</ele><time>2026-05-03T08:00:25.999Z</time></trkpt><trkpt lat="42.29717798481432" lon="13.641641886647554"><ele>829.1999999999999</ele><time>2026-05-03T08:00:26.999Z</time></trkpt><trkpt lat="42.29705963496685" lon="13.641611161216007"><ele>827.4</ele><time>2026-05-03T08:00:27.999Z</time></trkpt><trkpt lat="42.29694284335271" lon="13.64158361221961"><ele>825.6</ele><time>2026-05-03T08:00:28.999Z</time></trkpt><trkpt lat="42.29684745285175" lon="13.641560152998988"><ele>823.8</ele><time>2026-05-03T08:00:29.999Z</time></trkpt><trkpt lat="42.29674957348287" lon="13.641534085989145"><ele>822.0</ele><time>2026-05-03T08:00:30.999Z</time></trkpt><trkpt lat="42.29665827691477" lon="13.641530255536342"><ele>822.0</ele><time>2026-05-03T08:00:31.999Z</time></trkpt><trkpt lat="42.29656395924524" lon="13.641552556583479"><ele>822.0</ele><time>2026-05-03T08:00:32.999Z</time></trkpt><trkpt lat="42.296451771413594" lon="13.641588836175996"><ele>822.0</ele><time>2026-05-03T08:00:33.999Z</time></trkpt><trkpt lat="42.296320887956" lon="13.641580193773985"><ele>822.0</ele><time>2026-05-03T08:00:34.999Z</time></trkpt><trkpt lat="42.29618371601373" lon="13.641549939794018"><ele>820.2</ele><time>2026-05-03T08:00:35.999Z</time></trkpt><trkpt lat="42.296066333888966" lon="13.64151776856402"><ele>818.4000000000001</ele><time>2026-05-03T08:00:36.999Z</time></trkpt><trkpt lat="42.29597949891464" lon="13.641467953806313"><ele>816.5999999999999</ele><time>2026-05-03T08:00:37.999Z</time></trkpt><trkpt lat="42.295893776685716" lon="13.641412190765086"><ele>814.8</ele><time>2026-05-03T08:00:38.999Z</time></trkpt><trkpt lat="42.295805745874276" lon="13.641352473571121"><ele>813.0</ele><time>2026-05-03T08:00:39.999Z</time></trkpt><trkpt lat="42.2956921007933" lon="13.64131264989685"><ele>810.75</ele><time>2026-05-03T08:00:40.999Z</time></trkpt><trkpt lat="42.29555289421796" lon="13.641299730896808"><ele>808.5</ele><time>2026-05-03T08:00:41.999Z</time></trkpt><trkpt lat="42.29540985352077" lon="13.64128900583539"><ele>806.25</ele><time>2026-05-03T08:00:42.999Z</time></trkpt><trkpt lat="42.29528235177994" lon="13.641283887829122"><ele>804.0</ele><time>2026-05-03T08:00:43.999Z</time></trkpt><trkpt lat="42.29515887306051" lon="13.64126403856909"><ele>804.0</ele><time>2026-05-03T08:00:44.999Z</time></trkpt><trkpt lat="42.295020135343556" lon="13.641255722585994"><ele>804.0</ele><time>2026-05-03T08:00:45.999Z</time></trkpt><trkpt lat="42.29490058148851" lon="13.641256163246606"><ele>804.0</ele><time>2026-05-03T08:00:46.999Z</time></trkpt><trkpt lat="42.29479747298587" lon="13.641247651064335"><ele>804.0</ele><time>2026-05-03T08:00:47.999Z</time></trkpt><trkpt lat="42.29470352802903" lon="13.641232105600608"><ele>803.0</ele><time>2026-05-03T08:00:48.999Z</time></trkpt><trkpt lat="42.294604223440466" lon="13.641194509330564"><ele>802.0</ele><time>2026-05-03T08:00:49.999Z</time></trkpt><trkpt lat="42.29452314191976" lon="13.64114835726487"><ele>801.0</ele><time>2026-05-03T08:00:50.999Z</time></trkpt><trkpt lat="42.294465029073464" lon="13.641114626635005"><ele>800.0</ele><time>2026-05-03T08:00:51.999Z</time></trkpt><trkpt lat="42.29438394539874" lon="13.641079433041286"><ele>799.0</ele><time>2026-05-03T08:00:53.999Z</time></trkpt><trkpt lat="42.29430929765251" lon="13.641157989356039"><ele>798.0</ele><time>2026-05-03T08:00:56.998Z</time></trkpt><trkpt lat="42.294265225125876" lon="13.641224050291225"><ele>798.0</ele><time>2026-05-03T08:00:57.998Z</time></trkpt><trkpt lat="42.2941992049279" lon="13.641304678546563"><ele>798.0</ele><time>2026-05-03T08:00:58.998Z</time></trkpt><trkpt lat="42.29411135036723" lon="13.64139778358632"><ele>798.0</ele><time>2026-05-03T08:00:59.998Z</time></trkpt><trkpt lat="42.293995523032095" lon="13.641507095954575"><ele>798.0</ele><time>2026-05-03T08:01:00.998Z</time></trkpt><trkpt lat="42.29389226278864" lon="13.641605264280743"><ele>798.0</ele><time>2026-05-03T08:01:01.998Z</time></trkpt><trkpt lat="42.29380705476994" lon="13.64173104252395"><ele>798.0</ele><time>2026-05-03T08:01:02.998Z</time></trkpt><trkpt lat="42.293743266369006" lon="13.641876662309542"><ele>798.0</ele><time>2026-05-03T08:01:03.998Z</time></trkpt><trkpt lat="42.293682525269915" lon="13.64204044943548"><ele>798.0</ele><time>2026-05-03T08:01:04.998Z</time></trkpt><trkpt lat="42.29362629631909" lon="13.642205566396335"><ele>798.0</ele><time>2026-05-03T08:01:05.998Z</time></trkpt><trkpt lat="42.29355958698392" lon="13.64232494804667"><ele>798.0</ele><time>2026-05-03T08:01:06.998Z</time></trkpt><trkpt lat="42.29347212873705" lon="13.64239619164958"><ele>798.0</ele><time>2026-05-03T08:01:07.998Z</time></trkpt><trkpt lat="42.29338033091727" lon="13.642437853404182"><ele>798.0</ele><time>2026-05-03T08:01:08.998Z</time></trkpt><trkpt lat="42.29326495844603" lon="13.642493140103715"><ele>798.0</ele><time>2026-05-03T08:01:09.998Z</time></trkpt><trkpt lat="42.29314476504313" lon="13.642557696785952"><ele>797.75</ele><time>2026-05-03T08:01:10.998Z</time></trkpt><trkpt lat="42.29301619733729" lon="13.64262508791754"><ele>797.5</ele><time>2026-05-03T08:01:11.998Z</time></trkpt><trkpt lat="42.2928822422085" lon="13.642694116883623"><ele>797.25</ele><time>2026-05-03T08:01:12.998Z</time></trkpt><trkpt lat="42.29272900492059" lon="13.642727518288721"><ele>797.0</ele><time>2026-05-03T08:01:13.998Z</time></trkpt><trkpt lat="42.29258484806617" lon="13.64280188628524"><ele>797.0</ele><time>2026-05-03T08:01:14.998Z</time></trkpt><trkpt lat="42.29243962248127" lon="13.642876424555586"><ele>797.0</ele><time>2026-05-03T08:01:15.998Z</time></trkpt><trkpt lat="42.29227972411276" lon="13.642955606471586"><ele>797.0</ele><time>2026-05-03T08:01:16.998Z</time></trkpt><trkpt lat="42.29211992595114" lon="13.64302879186453"><ele>796.3333333333334</ele><time>2026-05-03T08:01:17.998Z</time></trkpt><trkpt lat="42.29196137368487" lon="13.643089442213917"><ele>795.6666666666667</ele><time>2026-05-03T08:01:18.998Z</time></trkpt><trkpt lat="42.29181114331709" lon="13.643136442523499"><ele>795.0</ele><time>2026-05-03T08:01:19.998Z</time></trkpt><trkpt lat="42.291669760546526" lon="13.64316518839543"><ele>795.0</ele><time>2026-05-03T08:01:20.998Z</time></trkpt><trkpt lat="42.291541856229436" lon="13.643165871776851"><ele>795.0</ele><time>2026-05-03T08:01:21.998Z</time></trkpt><trkpt lat="42.2914359947747" lon="13.643113561886762"><ele>795.0</ele><time>2026-05-03T08:01:22.998Z</time></trkpt><trkpt lat="42.29130947463972" lon="13.643040150870576"><ele>795.0</ele><time>2026-05-03T08:01:24Z</time></trkpt><trkpt lat="42.291177581314535" lon="13.643008673416185"><ele>793.6666666666667</ele><time>2026-05-03T08:01:25Z</time></trkpt><trkpt lat="42.29102834956953" lon="13.643048092996962"><ele>792.3333333333334</ele><time>2026-05-03T08:01:26Z</time></trkpt><trkpt lat="42.29086977448723" lon="13.643090953951335"><ele>791.0</ele><time>2026-05-03T08:01:27Z</time></trkpt><trkpt lat="42.29070237814226" lon="13.643135724780365"><ele>789.3333333333334</ele><time>2026-05-03T08:01:28Z</time></trkpt><trkpt lat="42.29052890207747" lon="13.643171959763928"><ele>787.6666666666667</ele><time>2026-05-03T08:01:29Z</time></trkpt><trkpt lat="42.29034620476254" lon="13.643189207926552"><ele>786.0</ele><time>2026-05-03T08:01:30Z</time></trkpt><trkpt lat="42.290174199038916" lon="13.64320476100929"><ele>786.0</ele><time>2026-05-03T08:01:31Z</time></trkpt><trkpt lat="42.290013687962336" lon="13.643225955601949"><ele>786.0</ele><time>2026-05-03T08:01:32Z</time></trkpt><trkpt lat="42.289882272904514" lon="13.643255904628134"><ele>786.0</ele><time>2026-05-03T08:01:33Z</time></trkpt><trkpt lat="42.289778573441566" lon="13.643307862500189"><ele>786.0</ele><time>2026-05-03T08:01:34Z</time></trkpt><trkpt lat="42.28969978271877" lon="13.64336624602821"><ele>787.0</ele><time>2026-05-03T08:01:35Z</time></trkpt><trkpt lat="42.289664270819" lon="13.643490782780624"><ele>788.0</ele><time>2026-05-03T08:01:36Z</time></trkpt><trkpt lat="42.28965998436907" lon="13.643613984588777"><ele>789.0</ele><time>2026-05-03T08:01:37Z</time></trkpt><trkpt lat="42.2897038019419" lon="13.643742517540334"><ele>790.0</ele><time>2026-05-03T08:01:38Z</time></trkpt><trkpt lat="42.28976783681515" lon="13.64388612736283"><ele>791.0</ele><time>2026-05-03T08:01:39Z</time></trkpt><trkpt lat="42.28979269410935" lon="13.644087553341112"><ele>791.0</ele><time>2026-05-03T08:01:40Z</time></trkpt><trkpt lat="42.289818814615174" lon="13.644311806587858"><ele>791.0</ele><time>2026-05-03T08:01:41Z</time></trkpt><trkpt lat="42.2898377444799" lon="13.644557361717583"><ele>791.0</ele><time>2026-05-03T08:01:42Z</time></trkpt><trkpt lat="42.28988486670282" lon="13.644797529052045"><ele>792.3333333333334</ele><time>2026-05-03T08:01:43Z</time></trkpt><trkpt lat="42.289942609542074" lon="13.64502307800073"><ele>793.6666666666667</ele><time>2026-05-03T08:01:44Z</time></trkpt><trkpt lat="42.29001126505914" lon="13.645240295628756"><ele>795.0</ele><time>2026-05-03T08:01:45Z</time></trkpt><trkpt lat="42.290071827307465" lon="13.645427102061507"><ele>795.25</ele><time>2026-05-03T08:01:46Z</time></trkpt><trkpt lat="42.290101998283234" lon="13.645591061020168"><ele>795.5</ele><time>2026-05-03T08:01:47Z</time></trkpt><trkpt lat="42.29008871238766" lon="13.645776451664476"><ele>795.75</ele><time>2026-05-03T08:01:48Z</time></trkpt><trkpt lat="42.29007735895571" lon="13.645959000454127"><ele>796.0</ele><time>2026-05-03T08:01:49Z</time></trkpt><trkpt lat="42.29005248672194" lon="13.646148232058728"><ele>797.5</ele><time>2026-05-03T08:01:50Z</time></trkpt><trkpt lat="42.29000509779591" lon="13.646341117856824"><ele>799.0</ele><time>2026-05-03T08:01:51Z</time></trkpt><trkpt lat="42.289929979120636" lon="13.646500433185892"><ele>800.5</ele><time>2026-05-03T08:01:52Z</time></trkpt><trkpt lat="42.28983083764196" lon="13.64666347151202"><ele>802.0</ele><time>2026-05-03T08:01:53Z</time></trkpt><trkpt lat="42.289727971932855" lon="13.6468510413343"><ele>798.3333333333333</ele><time>2026-05-03T08:01:54Z</time></trkpt><trkpt lat="42.289632272805505" lon="13.647071897646729"><ele>794.6666666666667</ele><time>2026-05-03T08:01:55Z</time></trkpt><trkpt lat="42.2895876490193" lon="13.647275144556032"><ele>791.0</ele><time>2026-05-03T08:01:56Z</time></trkpt><trkpt lat="42.28955080642159" lon="13.647461521190191"><ele>791.0</ele><time>2026-05-03T08:01:57Z</time></trkpt><trkpt lat="42.28949892610581" lon="13.647634675653116"><ele>791.0</ele><time>2026-05-03T08:01:57.999Z</time></trkpt><trkpt lat="42.28943254551636" lon="13.64777734079247"><ele>791.0</ele><time>2026-05-03T08:01:58.999Z</time></trkpt><trkpt lat="42.28933576129911" lon="13.647930302692105"><ele>791.0</ele><time>2026-05-03T08:01:59.999Z</time></trkpt><trkpt lat="42.28922178865003" lon="13.648091868928297"><ele>792.6666666666667</ele><time>2026-05-03T08:02:00.999Z</time></trkpt><trkpt lat="42.28910519211545" lon="13.648254789344444"><ele>794.3333333333333</ele><time>2026-05-03T08:02:01.999Z</time></trkpt><trkpt lat="42.2889912917359" lon="13.648411946506073"><ele>796.0</ele><time>2026-05-03T08:02:02.999Z</time></trkpt><trkpt lat="42.28886779431442" lon="13.648575042292396"><ele>793.3333333333333</ele><time>2026-05-03T08:02:03.999Z</time></trkpt><trkpt lat="42.28872679674704" lon="13.648742680822911"><ele>790.6666666666667</ele><time>2026-05-03T08:02:04.999Z</time></trkpt><trkpt lat="42.28856824892423" lon="13.648899863218718"><ele>788.0</ele><time>2026-05-03T08:02:05.999Z</time></trkpt><trkpt lat="42.288382526835804" lon="13.64908412295351"><ele>788.0</ele><time>2026-05-03T08:02:06.999Z</time></trkpt><trkpt lat="42.2882053255995" lon="13.649258964064243"><ele>788.0</ele><time>2026-05-03T08:02:07.999Z</time></trkpt><trkpt lat="42.288059082604136" lon="13.649416755203879"><ele>788.0</ele><time>2026-05-03T08:02:08.999Z</time></trkpt><trkpt lat="42.287937973176255" lon="13.649590955101587"><ele>785.3333333333334</ele><time>2026-05-03T08:02:09.999Z</time></trkpt><trkpt lat="42.287851676484635" lon="13.64979223705487"><ele>782.6666666666667</ele><time>2026-05-03T08:02:10.999Z</time></trkpt><trkpt lat="42.287765019104256" lon="13.650008128985482"><ele>780.0</ele><time>2026-05-03T08:02:11.999Z</time></trkpt><trkpt lat="42.287669976921784" lon="13.650225234207728"><ele>781.6666666666667</ele><time>2026-05-03T08:02:12.999Z</time></trkpt><trkpt lat="42.28759900773803" lon="13.650447512256175"><ele>783.3333333333334</ele><time>2026-05-03T08:02:13.999Z</time></trkpt><trkpt lat="42.28755548176465" lon="13.650656088495372"><ele>785.0</ele><time>2026-05-03T08:02:14.999Z</time></trkpt><trkpt lat="42.287511282968666" lon="13.650869506966062"><ele>785.0</ele><time>2026-05-03T08:02:15.999Z</time></trkpt><trkpt lat="42.28747765591898" lon="13.651100236237935"><ele>785.0</ele><time>2026-05-03T08:02:16.999Z</time></trkpt><trkpt lat="42.287457533150615" lon="13.651313582437536"><ele>785.0</ele><time>2026-05-03T08:02:17.999Z</time></trkpt><trkpt lat="42.28746341939934" lon="13.651512789178613"><ele>786.0</ele><time>2026-05-03T08:02:18.999Z</time></trkpt><trkpt lat="42.28749163353744" lon="13.651725766594502"><ele>787.0</ele><time>2026-05-03T08:02:19.999Z</time></trkpt><trkpt lat="42.287530499678" lon="13.651948402119515"><ele>788.0</ele><time>2026-05-03T08:02:20.999Z</time></trkpt><trkpt lat="42.28751155868399" lon="13.652122117839072"><ele>789.25</ele><time>2026-05-03T08:02:21.999Z</time></trkpt><trkpt lat="42.28745450568664" lon="13.652223555152954"><ele>790.5</ele><time>2026-05-03T08:02:22.999Z</time></trkpt><trkpt lat="42.28738639905452" lon="13.652332132076097"><ele>791.75</ele><time>2026-05-03T08:02:23.999Z</time></trkpt><trkpt lat="42.28729388385995" lon="13.652486770364217"><ele>793.0</ele><time>2026-05-03T08:02:24.999Z</time></trkpt><trkpt lat="42.2871950193539" lon="13.652666957687794"><ele>788.6666666666666</ele><time>2026-05-03T08:02:25.999Z</time></trkpt><trkpt lat="42.28711866171823" lon="13.652858759846735"><ele>784.3333333333333</ele><time>2026-05-03T08:02:26.999Z</time></trkpt><trkpt lat="42.28707099927473" lon="13.653038962248251"><ele>780.0</ele><time>2026-05-03T08:02:27.999Z</time></trkpt><trkpt lat="42.28704937445294" lon="13.653253617831426"><ele>780.0</ele><time>2026-05-03T08:02:28.999Z</time></trkpt><trkpt lat="42.28700334889187" lon="13.653501777861809"><ele>780.0</ele><time>2026-05-03T08:02:29.999Z</time></trkpt><trkpt lat="42.28696204326355" lon="13.653727489129475"><ele>780.0</ele><time>2026-05-03T08:02:30.999Z</time></trkpt><trkpt lat="42.286919739719195" lon="13.653920244323865"><ele>781.4</ele><time>2026-05-03T08:02:31.999Z</time></trkpt><trkpt lat="42.286869520061835" lon="13.654076545117618"><ele>782.8</ele><time>2026-05-03T08:02:32.999Z</time></trkpt><trkpt lat="42.28680687019335" lon="13.654191823527446"><ele>784.2</ele><time>2026-05-03T08:02:33.999Z</time></trkpt><trkpt lat="42.286755388711626" lon="13.65427295184093"><ele>785.6</ele><time>2026-05-03T08:02:34.999Z</time></trkpt><trkpt lat="42.28667453766784" lon="13.654368241042153"><ele>787.0</ele><time>2026-05-03T08:02:36.999Z</time></trkpt><trkpt lat="42.28660016542643" lon="13.654469672685918"><ele>788.0</ele><time>2026-05-03T08:02:38.999Z</time></trkpt><trkpt lat="42.28654606773597" lon="13.654572830169291"><ele>789.0</ele><time>2026-05-03T08:02:40.999Z</time></trkpt><trkpt lat="42.286451914016006" lon="13.654722793887094"><ele>790.0</ele><time>2026-05-03T08:02:42.999Z</time></trkpt><trkpt lat="42.28637564318909" lon="13.654821994467436"><ele>791.0</ele><time>2026-05-03T08:02:43.999Z</time></trkpt><trkpt lat="42.28630527235909" lon="13.654925148711174"><ele>792.0</ele><time>2026-05-03T08:02:44.999Z</time></trkpt><trkpt lat="42.28624553578708" lon="13.655021019855273"><ele>790.2</ele><time>2026-05-03T08:02:45.999Z</time></trkpt><trkpt lat="42.28621014974775" lon="13.655106023988553"><ele>788.4000000000001</ele><time>2026-05-03T08:02:46.999Z</time></trkpt><trkpt lat="42.28618582486426" lon="13.65520843478994"><ele>786.5999999999999</ele><time>2026-05-03T08:02:53.999Z</time></trkpt><trkpt lat="42.28632467441118" lon="13.655347442983699"><ele>784.8</ele><time>2026-05-03T08:02:55.999Z</time></trkpt><trkpt lat="42.28639261541226" lon="13.655452546248558"><ele>783.0</ele><time>2026-05-03T08:02:57.999Z</time></trkpt><trkpt lat="42.286397936207024" lon="13.65563399275623"><ele>783.0</ele><time>2026-05-03T08:02:59.999Z</time></trkpt><trkpt lat="42.28638420443221" lon="13.65574489730458"><ele>783.0</ele><time>2026-05-03T08:03:00.999Z</time></trkpt><trkpt lat="42.28637603497419" lon="13.65588814605596"><ele>783.0</ele><time>2026-05-03T08:03:01.999Z</time></trkpt><trkpt lat="42.28637104048983" lon="13.656045461595788"><ele>783.0</ele><time>2026-05-03T08:03:02.999Z</time></trkpt><trkpt lat="42.28636074573624" lon="13.656175575999047"><ele>783.0</ele><time>2026-05-03T08:03:03.999Z</time></trkpt><trkpt lat="42.28635636224677" lon="13.656288999619413"><ele>783.6666666666666</ele><time>2026-05-03T08:03:04.999Z</time></trkpt><trkpt lat="42.28635134291016" lon="13.656395105265695"><ele>784.3333333333333</ele><time>2026-05-03T08:03:05.999Z</time></trkpt><trkpt lat="42.28636079613802" lon="13.65649742252528"><ele>785.0</ele><time>2026-05-03T08:03:06.999Z</time></trkpt><trkpt lat="42.2863992117977" lon="13.656609308223599"><ele>785.6666666666666</ele><time>2026-05-03T08:03:07.999Z</time></trkpt><trkpt lat="42.286479746359745" lon="13.656641346321853"><ele>786.3333333333333</ele><time>2026-05-03T08:03:09.998Z</time></trkpt><trkpt lat="42.28655978177985" lon="13.656693645695107"><ele>787.0</ele><time>2026-05-03T08:03:11.998Z</time></trkpt><trkpt lat="42.2866103573417" lon="13.656747093279964"><ele>788.8</ele><time>2026-05-03T08:03:12.998Z</time></trkpt><trkpt lat="42.28667487145586" lon="13.656825566821109"><ele>790.6</ele><time>2026-05-03T08:03:14.998Z</time></trkpt><trkpt lat="42.28659465206058" lon="13.656965136262714"><ele>792.4</ele><time>2026-05-03T08:03:16.998Z</time></trkpt><trkpt lat="42.28652754471363" lon="13.657045027228408"><ele>794.1999999999999</ele><time>2026-05-03T08:03:17.998Z</time></trkpt><trkpt lat="42.28645362398818" lon="13.657124550626996"><ele>796.0</ele><time>2026-05-03T08:03:18.998Z</time></trkpt><trkpt lat="42.28638391772533" lon="13.657223241456002"><ele>796.0</ele><time>2026-05-03T08:03:19.998Z</time></trkpt><trkpt lat="42.286324876168216" lon="13.657345516011478"><ele>796.0</ele><time>2026-05-03T08:03:20.998Z</time></trkpt><trkpt lat="42.28624673194285" lon="13.65743088887999"><ele>796.0</ele><time>2026-05-03T08:03:21.998Z</time></trkpt><trkpt lat="42.286170563775045" lon="13.657510682053722"><ele>796.0</ele><time>2026-05-03T08:03:22.998Z</time></trkpt><trkpt lat="42.28610201229269" lon="13.65762149864311"><ele>796.0</ele><time>2026-05-03T08:03:23.998Z</time></trkpt><trkpt lat="42.28604932913517" lon="13.657697296137819"><ele>796.0</ele><time>2026-05-03T08:03:24.998Z</time></trkpt><trkpt lat="42.2859953387962" lon="13.657774974331959"><ele>796.0</ele><time>2026-05-03T08:03:25.998Z</time></trkpt><trkpt lat="42.285929343972136" lon="13.65787211604861"><ele>796.0</ele><time>2026-05-03T08:03:26.998Z</time></trkpt><trkpt lat="42.285832502685444" lon="13.657983197230925"><ele>796.0</ele><time>2026-05-03T08:03:28.998Z</time></trkpt><trkpt lat="42.28577284938421" lon="13.658074730247533"><ele>796.0</ele><time>2026-05-03T08:03:30Z</time></trkpt><trkpt lat="42.28572479841232" lon="13.658173194421842"><ele>796.4</ele><time>2026-05-03T08:03:31Z</time></trkpt><trkpt lat="42.28568256707981" lon="13.6582713715133"><ele>796.8</ele><time>2026-05-03T08:03:32Z</time></trkpt><trkpt lat="42.285607929626224" lon="13.658404022103273"><ele>797.1999999999999</ele><time>2026-05-03T08:03:34Z</time></trkpt><trkpt lat="42.285558319588446" lon="13.658489038381589"><ele>797.5999999999999</ele><time>2026-05-03T08:03:35Z</time></trkpt><trkpt lat="42.28550035427673" lon="13.658581513947468"><ele>798.0</ele><time>2026-05-03T08:03:36Z</time></trkpt><trkpt lat="42.28545541475261" lon="13.65866732810916"><ele>798.0</ele><time>2026-05-03T08:03:37Z</time></trkpt><trkpt lat="42.28541315178306" lon="13.658747170857716"><ele>798.0</ele><time>2026-05-03T08:03:38Z</time></trkpt><trkpt lat="42.28537842510699" lon="13.658827884772558"><ele>798.0</ele><time>2026-05-03T08:03:39Z</time></trkpt><trkpt lat="42.28531888336112" lon="13.658904724622573"><ele>798.0</ele><time>2026-05-03T08:03:40Z</time></trkpt><trkpt lat="42.28526048575609" lon="13.65897837557107"><ele>798.0</ele><time>2026-05-03T08:03:41Z</time></trkpt><trkpt lat="42.28519915485573" lon="13.659053716038143"><ele>798.0</ele><time>2026-05-03T08:03:42Z</time></trkpt><trkpt lat="42.285137193932336" lon="13.659131047216505"><ele>798.0</ele><time>2026-05-03T08:03:43Z</time></trkpt><trkpt lat="42.28507104732718" lon="13.659216154172766"><ele>798.0</ele><time>2026-05-03T08:03:44Z</time></trkpt><trkpt lat="42.28502177069476" lon="13.659283962269985"><ele>798.0</ele><time>2026-05-03T08:03:45Z</time></trkpt><trkpt lat="42.28497927632439" lon="13.65938228416254"><ele>798.0</ele><time>2026-05-03T08:03:46Z</time></trkpt><trkpt lat="42.28492866839694" lon="13.659474852027927"><ele>798.0</ele><time>2026-05-03T08:03:47Z</time></trkpt><trkpt lat="42.284898040740785" lon="13.659577948397136"><ele>798.0</ele><time>2026-05-03T08:03:48Z</time></trkpt><trkpt lat="42.284841456667294" lon="13.659698180051691"><ele>797.4</ele><time>2026-05-03T08:03:50Z</time></trkpt><trkpt lat="42.28485760119506" lon="13.659808787770078"><ele>796.8</ele><time>2026-05-03T08:03:51Z</time></trkpt><trkpt lat="42.28481108926071" lon="13.659907661733294"><ele>796.2</ele><time>2026-05-03T08:03:52Z</time></trkpt><trkpt lat="42.28474804486383" lon="13.660015844090575"><ele>795.6</ele><time>2026-05-03T08:03:53Z</time></trkpt><trkpt lat="42.284676960931606" lon="13.66009898899843"><ele>795.0</ele><time>2026-05-03T08:03:54Z</time></trkpt><trkpt lat="42.284579485616185" lon="13.66022029470484"><ele>802.0</ele><time>2026-05-03T08:03:55Z</time></trkpt><trkpt lat="42.28445658554365" lon="13.660344104044178"><ele>809.0</ele><time>2026-05-03T08:03:56Z</time></trkpt><trkpt lat="42.28431908970786" lon="13.660454112674111"><ele>816.0</ele><time>2026-05-03T08:03:57Z</time></trkpt><trkpt lat="42.28419863049605" lon="13.660600942577107"><ele>816.0</ele><time>2026-05-03T08:03:58Z</time></trkpt><trkpt lat="42.28410107672479" lon="13.660724364694852"><ele>816.0</ele><time>2026-05-03T08:03:59Z</time></trkpt><trkpt lat="42.28402052517816" lon="13.660876024117066"><ele>816.0</ele><time>2026-05-03T08:04:00Z</time></trkpt><trkpt lat="42.28393032881088" lon="13.661041818284843"><ele>816.0</ele><time>2026-05-03T08:04:01Z</time></trkpt><trkpt lat="42.28384463882934" lon="13.661248377522558"><ele>814.75</ele><time>2026-05-03T08:04:02Z</time></trkpt><trkpt lat="42.28377009506075" lon="13.661429350978763"><ele>813.5</ele><time>2026-05-03T08:04:03Z</time></trkpt><trkpt lat="42.28371094219617" lon="13.661572935019471"><ele>812.25</ele><time>2026-05-03T08:04:04Z</time></trkpt><trkpt lat="42.283650069739345" lon="13.661720706363775"><ele>811.0</ele><time>2026-05-03T08:04:05Z</time></trkpt><trkpt lat="42.283629481411765" lon="13.661924293319116"><ele>817.3333333333333</ele><time>2026-05-03T08:04:06Z</time></trkpt><trkpt lat="42.28357375756237" lon="13.662121765925306"><ele>823.6666666666667</ele><time>2026-05-03T08:04:07Z</time></trkpt><trkpt lat="42.28349774472234" lon="13.662344064684474"><ele>830.0</ele><time>2026-05-03T08:04:08Z</time></trkpt><trkpt lat="42.28340829689977" lon="13.662582545481369"><ele>834.0</ele><time>2026-05-03T08:04:09Z</time></trkpt><trkpt lat="42.28333626132739" lon="13.662786620841828"><ele>838.0</ele><time>2026-05-03T08:04:10Z</time></trkpt><trkpt lat="42.28327926697432" lon="13.662949323382955"><ele>842.0</ele><time>2026-05-03T08:04:11Z</time></trkpt><trkpt lat="42.28321997569672" lon="13.663112574255793"><ele>846.0</ele><time>2026-05-03T08:04:12Z</time></trkpt><trkpt lat="42.283155534843466" lon="13.663273827797251"><ele>840.0</ele><time>2026-05-03T08:04:13Z</time></trkpt><trkpt lat="42.28306500753562" lon="13.663471552806712"><ele>834.0</ele><time>2026-05-03T08:04:14Z</time></trkpt><trkpt lat="42.28297314722133" lon="13.663682709372223"><ele>828.0</ele><time>2026-05-03T08:04:15Z</time></trkpt><trkpt lat="42.282876343550704" lon="13.663904317666557"><ele>828.0</ele><time>2026-05-03T08:04:16Z</time></trkpt><trkpt lat="42.28277104811315" lon="13.664148519450505"><ele>828.0</ele><time>2026-05-03T08:04:17Z</time></trkpt><trkpt lat="42.28267954355583" lon="13.66434464598146"><ele>828.0</ele><time>2026-05-03T08:04:18Z</time></trkpt><trkpt lat="42.28259381603593" lon="13.664541141103543"><ele>833.0</ele><time>2026-05-03T08:04:18.999Z</time></trkpt><trkpt lat="42.282510604090675" lon="13.664749939530939"><ele>838.0</ele><time>2026-05-03T08:04:19.999Z</time></trkpt><trkpt lat="42.28242018096637" lon="13.664978723196146"><ele>843.0</ele><time>2026-05-03T08:04:20.999Z</time></trkpt><trkpt lat="42.282318552890814" lon="13.665202647212077"><ele>837.6666666666667</ele><time>2026-05-03T08:04:21.999Z</time></trkpt><trkpt lat="42.28221481769015" lon="13.66544561107302"><ele>832.3333333333334</ele><time>2026-05-03T08:04:22.999Z</time></trkpt><trkpt lat="42.28210513393469" lon="13.665697149494461"><ele>827.0</ele><time>2026-05-03T08:04:23.999Z</time></trkpt><trkpt lat="42.28200387333779" lon="13.665940647866615"><ele>832.0</ele><time>2026-05-03T08:04:24.999Z</time></trkpt><trkpt lat="42.281890632829246" lon="13.666187665443402"><ele>837.0</ele><time>2026-05-03T08:04:25.999Z</time></trkpt><trkpt lat="42.28179200244129" lon="13.666445145991977"><ele>842.0</ele><time>2026-05-03T08:04:26.999Z</time></trkpt><trkpt lat="42.28168618596507" lon="13.66668382236173"><ele>842.0</ele><time>2026-05-03T08:04:27.999Z</time></trkpt><trkpt lat="42.2815935517898" lon="13.666896615082429"><ele>842.0</ele><time>2026-05-03T08:04:28.999Z</time></trkpt><trkpt lat="42.2814935267079" lon="13.667113866052507"><ele>842.0</ele><time>2026-05-03T08:04:29.999Z</time></trkpt><trkpt lat="42.28139542476154" lon="13.667316500547692"><ele>842.3333333333334</ele><time>2026-05-03T08:04:30.999Z</time></trkpt><trkpt lat="42.28130011448026" lon="13.667549799575669"><ele>842.6666666666667</ele><time>2026-05-03T08:04:31.999Z</time></trkpt><trkpt lat="42.2811472379706" lon="13.667751166411398"><ele>843.0</ele><time>2026-05-03T08:04:32.999Z</time></trkpt><trkpt lat="42.281055964494044" lon="13.667944858128772"><ele>843.0</ele><time>2026-05-03T08:04:33.999Z</time></trkpt><trkpt lat="42.28098852198192" lon="13.668173819131493"><ele>843.0</ele><time>2026-05-03T08:04:34.999Z</time></trkpt><trkpt lat="42.280885742325665" lon="13.668383404375652"><ele>843.0</ele><time>2026-05-03T08:04:35.999Z</time></trkpt><trkpt lat="42.28077649162575" lon="13.66857421223486"><ele>840.3333333333333</ele><time>2026-05-03T08:04:36.999Z</time></trkpt><trkpt lat="42.280655327204414" lon="13.66876864509331"><ele>837.6666666666666</ele><time>2026-05-03T08:04:37.999Z</time></trkpt><trkpt lat="42.28050730626363" lon="13.668981448046145"><ele>835.0</ele><time>2026-05-03T08:04:38.999Z</time></trkpt><trkpt lat="42.280369131569444" lon="13.6691942370127"><ele>835.0</ele><time>2026-05-03T08:04:39.999Z</time></trkpt><trkpt lat="42.28025523562646" lon="13.66935906329213"><ele>835.0</ele><time>2026-05-03T08:04:40.999Z</time></trkpt><trkpt lat="42.280135156987996" lon="13.669536119803587"><ele>835.0</ele><time>2026-05-03T08:04:41.999Z</time></trkpt><trkpt lat="42.28000986167567" lon="13.669740750079812"><ele>832.6666666666666</ele><time>2026-05-03T08:04:42.999Z</time></trkpt><trkpt lat="42.279863283526964" lon="13.669979907249004"><ele>830.3333333333333</ele><time>2026-05-03T08:04:43.999Z</time></trkpt><trkpt lat="42.27972226734086" lon="13.670194885794917"><ele>828.0</ele><time>2026-05-03T08:04:44.999Z</time></trkpt><trkpt lat="42.27958415551505" lon="13.670442267571225"><ele>833.0</ele><time>2026-05-03T08:04:45.999Z</time></trkpt><trkpt lat="42.27947352932473" lon="13.670623019278679"><ele>838.0</ele><time>2026-05-03T08:04:46.999Z</time></trkpt><trkpt lat="42.279341007757026" lon="13.670777225991268"><ele>843.0</ele><time>2026-05-03T08:04:47.999Z</time></trkpt><trkpt lat="42.27920893799463" lon="13.670968192484766"><ele>841.0</ele><time>2026-05-03T08:04:48.999Z</time></trkpt><trkpt lat="42.27905994567054" lon="13.671186810342618"><ele>839.0</ele><time>2026-05-03T08:04:49.999Z</time></trkpt><trkpt lat="42.27890489668239" lon="13.671405696038216"><ele>837.0</ele><time>2026-05-03T08:04:50.999Z</time></trkpt><trkpt lat="42.27876967914829" lon="13.671584183893064"><ele>837.0</ele><time>2026-05-03T08:04:51.999Z</time></trkpt><trkpt lat="42.278651019511585" lon="13.671768983055344"><ele>837.0</ele><time>2026-05-03T08:04:52.999Z</time></trkpt><trkpt lat="42.27851858484565" lon="13.671959079485397"><ele>837.0</ele><time>2026-05-03T08:04:53.999Z</time></trkpt><trkpt lat="42.27837355557458" lon="13.67220067048418"><ele>838.3333333333333</ele><time>2026-05-03T08:04:54.999Z</time></trkpt><trkpt lat="42.27823722662673" lon="13.672425722534786"><ele>839.6666666666666</ele><time>2026-05-03T08:04:55.999Z</time></trkpt><trkpt lat="42.27812300877899" lon="13.672608368687746"><ele>841.0</ele><time>2026-05-03T08:04:56.999Z</time></trkpt><trkpt lat="42.27800929589406" lon="13.672782377959017"><ele>841.0</ele><time>2026-05-03T08:04:57.999Z</time></trkpt><trkpt lat="42.2778650976159" lon="13.672989855807065"><ele>841.0</ele><time>2026-05-03T08:04:58.999Z</time></trkpt><trkpt lat="42.27772580274015" lon="13.673184075449653"><ele>841.0</ele><time>2026-05-03T08:04:59.999Z</time></trkpt><trkpt lat="42.277574661097184" lon="13.673400073748567"><ele>840.0</ele><time>2026-05-03T08:05:00.999Z</time></trkpt><trkpt lat="42.27741676141108" lon="13.67361582168771"><ele>839.0</ele><time>2026-05-03T08:05:01.999Z</time></trkpt><trkpt lat="42.2772600364067" lon="13.673847890041984"><ele>839.0</ele><time>2026-05-03T08:05:02.999Z</time></trkpt><trkpt lat="42.27710176264024" lon="13.674086545312223"><ele>839.0</ele><time>2026-05-03T08:05:03.999Z</time></trkpt><trkpt lat="42.27695744951591" lon="13.674304036914304"><ele>843.3333333333334</ele><time>2026-05-03T08:05:04.999Z</time></trkpt><trkpt lat="42.27683317177276" lon="13.674514232115195"><ele>847.6666666666667</ele><time>2026-05-03T08:05:05.999Z</time></trkpt><trkpt lat="42.276702723292495" lon="13.674696281348588"><ele>852.0</ele><time>2026-05-03T08:05:06.999Z</time></trkpt><trkpt lat="42.27658787638434" lon="13.674853725431651"><ele>852.0</ele><time>2026-05-03T08:05:07.999Z</time></trkpt><trkpt lat="42.27646653644842" lon="13.67501463131987"><ele>852.0</ele><time>2026-05-03T08:05:08.999Z</time></trkpt><trkpt lat="42.27634233347603" lon="13.675168273445085"><ele>852.0</ele><time>2026-05-03T08:05:09.999Z</time></trkpt><trkpt lat="42.27620735453314" lon="13.675361712044483"><ele>850.6666666666667</ele><time>2026-05-03T08:05:10.999Z</time></trkpt><trkpt lat="42.27606074088617" lon="13.675555920283756"><ele>849.3333333333334</ele><time>2026-05-03T08:05:11.999Z</time></trkpt><trkpt lat="42.275920198945926" lon="13.675773689798332"><ele>848.0</ele><time>2026-05-03T08:05:12.999Z</time></trkpt><trkpt lat="42.27575628576436" lon="13.675972206641806"><ele>847.3333333333334</ele><time>2026-05-03T08:05:13.999Z</time></trkpt><trkpt lat="42.2756141693183" lon="13.676126864830186"><ele>846.6666666666667</ele><time>2026-05-03T08:05:14.999Z</time></trkpt><trkpt lat="42.27547954332658" lon="13.676294906001731"><ele>846.0</ele><time>2026-05-03T08:05:15.999Z</time></trkpt><trkpt lat="42.275352907188775" lon="13.676457471615054"><ele>846.0</ele><time>2026-05-03T08:05:16.999Z</time></trkpt><trkpt lat="42.27522578355832" lon="13.676635424433792"><ele>846.0</ele><time>2026-05-03T08:05:17.999Z</time></trkpt><trkpt lat="42.27508732521889" lon="13.67684133741212"><ele>846.0</ele><time>2026-05-03T08:05:18.999Z</time></trkpt><trkpt lat="42.274956342466226" lon="13.67701690604376"><ele>846.75</ele><time>2026-05-03T08:05:19.999Z</time></trkpt><trkpt lat="42.27483406213498" lon="13.677157188389295"><ele>847.5</ele><time>2026-05-03T08:05:20.999Z</time></trkpt><trkpt lat="42.274741876302876" lon="13.677307988716812"><ele>848.25</ele><time>2026-05-03T08:05:21.999Z</time></trkpt><trkpt lat="42.27465194563388" lon="13.677448234331901"><ele>849.0</ele><time>2026-05-03T08:05:22.999Z</time></trkpt><trkpt lat="42.27454837592103" lon="13.677571839666987"><ele>849.0</ele><time>2026-05-03T08:05:23.999Z</time></trkpt><trkpt lat="42.27441869773585" lon="13.677736426939868"><ele>849.0</ele><time>2026-05-03T08:05:24.999Z</time></trkpt><trkpt lat="42.27428447911884" lon="13.677896443604277"><ele>849.0</ele><time>2026-05-03T08:05:25.999Z</time></trkpt><trkpt lat="42.27415122630614" lon="13.67806045285615"><ele>850.0</ele><time>2026-05-03T08:05:26.999Z</time></trkpt><trkpt lat="42.27401614917485" lon="13.678207005041331"><ele>851.0</ele><time>2026-05-03T08:05:27.999Z</time></trkpt><trkpt lat="42.27388525697996" lon="13.678366035674166"><ele>852.0</ele><time>2026-05-03T08:05:28.998Z</time></trkpt><trkpt lat="42.27375839274221" lon="13.678574982278798"><ele>856.3333333333333</ele><time>2026-05-03T08:05:29.998Z</time></trkpt><trkpt lat="42.27366768979022" lon="13.678760736230105"><ele>860.6666666666666</ele><time>2026-05-03T08:05:30.998Z</time></trkpt><trkpt lat="42.27355183413365" lon="13.678952058196343"><ele>865.0</ele><time>2026-05-03T08:05:31.998Z</time></trkpt><trkpt lat="42.27339994374998" lon="13.679123821253606"><ele>865.0</ele><time>2026-05-03T08:05:32.998Z</time></trkpt><trkpt lat="42.27327564705484" lon="13.679299000545592"><ele>865.0</ele><time>2026-05-03T08:05:33.998Z</time></trkpt><trkpt lat="42.273187777022045" lon="13.679493027523646"><ele>865.0</ele><time>2026-05-03T08:05:34.998Z</time></trkpt><trkpt lat="42.27310455947407" lon="13.6796999882993"><ele>864.3333333333333</ele><time>2026-05-03T08:05:36Z</time></trkpt><trkpt lat="42.27304429804368" lon="13.679912387195762"><ele>863.6666666666667</ele><time>2026-05-03T08:05:37Z</time></trkpt><trkpt lat="42.27297262574883" lon="13.680128030613966"><ele>863.0</ele><time>2026-05-03T08:05:38Z</time></trkpt><trkpt lat="42.27288952814312" lon="13.680398350094714"><ele>863.0</ele><time>2026-05-03T08:05:39Z</time></trkpt><trkpt lat="42.2727901458666" lon="13.68062553551361"><ele>863.0</ele><time>2026-05-03T08:05:40Z</time></trkpt><trkpt lat="42.27270270260079" lon="13.680862181625914"><ele>863.0</ele><time>2026-05-03T08:05:41Z</time></trkpt><trkpt lat="42.272619470363175" lon="13.681081719127903"><ele>865.75</ele><time>2026-05-03T08:05:42Z</time></trkpt><trkpt lat="42.27255854381688" lon="13.681281836187658"><ele>868.5</ele><time>2026-05-03T08:05:43Z</time></trkpt><trkpt lat="42.27249568674362" lon="13.68144908114767"><ele>871.25</ele><time>2026-05-03T08:05:44Z</time></trkpt><trkpt lat="42.27241273394137" lon="13.681608670224442"><ele>874.0</ele><time>2026-05-03T08:05:45Z</time></trkpt><trkpt lat="42.27235019420036" lon="13.681760399650802"><ele>870.3333333333333</ele><time>2026-05-03T08:05:46Z</time></trkpt><trkpt lat="42.27227516941717" lon="13.681947566760257"><ele>866.6666666666667</ele><time>2026-05-03T08:05:47Z</time></trkpt><trkpt lat="42.272203640002566" lon="13.682139217862604"><ele>863.0</ele><time>2026-05-03T08:05:48Z</time></trkpt><trkpt lat="42.272135314874845" lon="13.682338595542562"><ele>863.0</ele><time>2026-05-03T08:05:49Z</time></trkpt><trkpt lat="42.27206032861859" lon="13.682493572393572"><ele>863.0</ele><time>2026-05-03T08:05:50Z</time></trkpt><trkpt lat="42.27199901261751" lon="13.68265312950658"><ele>863.0</ele><time>2026-05-03T08:05:51Z</time></trkpt><trkpt lat="42.271940911762165" lon="13.682810103694035"><ele>863.0</ele><time>2026-05-03T08:05:52Z</time></trkpt><trkpt lat="42.27188359383538" lon="13.682960005941075"><ele>865.25</ele><time>2026-05-03T08:05:53Z</time></trkpt><trkpt lat="42.27182309601597" lon="13.68310263167757"><ele>867.5</ele><time>2026-05-03T08:05:54Z</time></trkpt><trkpt lat="42.27178017778939" lon="13.683269969243293"><ele>869.75</ele><time>2026-05-03T08:05:55Z</time></trkpt><trkpt lat="42.271735527045415" lon="13.683444455530033"><ele>872.0</ele><time>2026-05-03T08:05:56Z</time></trkpt><trkpt lat="42.27169562166733" lon="13.68360625520201"><ele>875.4000000000001</ele><time>2026-05-03T08:05:57Z</time></trkpt><trkpt lat="42.27165528963968" lon="13.683752359121204"><ele>878.8000000000001</ele><time>2026-05-03T08:05:58Z</time></trkpt><trkpt lat="42.271608022390794" lon="13.683884550684848"><ele>882.2</ele><time>2026-05-03T08:05:59Z</time></trkpt><trkpt lat="42.27155912745767" lon="13.683996618052985"><ele>885.6</ele><time>2026-05-03T08:06:00Z</time></trkpt><trkpt lat="42.27152784052754" lon="13.684096900512733"><ele>889.0</ele><time>2026-05-03T08:06:01Z</time></trkpt><trkpt lat="42.271482508451605" lon="13.684205462489206"><ele>888.4000000000001</ele><time>2026-05-03T08:06:02Z</time></trkpt><trkpt lat="42.27142296786264" lon="13.684291822742084"><ele>887.8000000000001</ele><time>2026-05-03T08:06:03Z</time></trkpt><trkpt lat="42.271350847730346" lon="13.68439160998118"><ele>887.1999999999999</ele><time>2026-05-03T08:06:04Z</time></trkpt><trkpt lat="42.27128146777132" lon="13.684499017431841"><ele>886.5999999999999</ele><time>2026-05-03T08:06:05Z</time></trkpt><trkpt lat="42.27123128828089" lon="13.684588629228502"><ele>886.0</ele><time>2026-05-03T08:06:06Z</time></trkpt><trkpt lat="42.271180743472286" lon="13.684674140734511"><ele>885.9999999999999</ele><time>2026-05-03T08:06:07Z</time></trkpt><trkpt lat="42.27112565616316" lon="13.684768430664375"><ele>886.0</ele><time>2026-05-03T08:06:08Z</time></trkpt><trkpt lat="42.27108009319018" lon="13.68485086183725"><ele>886.0</ele><time>2026-05-03T08:06:09Z</time></trkpt><trkpt lat="42.27103168113935" lon="13.684927698881413"><ele>886.0</ele><time>2026-05-03T08:06:10Z</time></trkpt><trkpt lat="42.27096888976965" lon="13.685017213402817"><ele>885.9999999999999</ele><time>2026-05-03T08:06:11Z</time></trkpt><trkpt lat="42.270900328445535" lon="13.685133362434284"><ele>886.0</ele><time>2026-05-03T08:06:12Z</time></trkpt><trkpt lat="42.27084894802776" lon="13.685261050230794"><ele>889.4</ele><time>2026-05-03T08:06:13Z</time></trkpt><trkpt lat="42.27081247008015" lon="13.685370702760268"><ele>892.8</ele><time>2026-05-03T08:06:14Z</time></trkpt><trkpt lat="42.270759386054486" lon="13.685474664279669"><ele>896.1999999999999</ele><time>2026-05-03T08:06:15Z</time></trkpt><trkpt lat="42.270708048703845" lon="13.685589263204497"><ele>899.5999999999999</ele><time>2026-05-03T08:06:16Z</time></trkpt><trkpt lat="42.270654119954" lon="13.68573048129244"><ele>903.0</ele><time>2026-05-03T08:06:17Z</time></trkpt><trkpt lat="42.27062443229735" lon="13.685860956215986"><ele>901.5999999999999</ele><time>2026-05-03T08:06:18Z</time></trkpt><trkpt lat="42.27059859055214" lon="13.685955265355343"><ele>900.1999999999999</ele><time>2026-05-03T08:06:19Z</time></trkpt><trkpt lat="42.27059557728378" lon="13.686078511457817"><ele>898.8</ele><time>2026-05-03T08:06:20Z</time></trkpt><trkpt lat="42.270596524333634" lon="13.686205868788822"><ele>897.4</ele><time>2026-05-03T08:06:21Z</time></trkpt><trkpt lat="42.270598956961514" lon="13.686337007401473"><ele>896.0</ele><time>2026-05-03T08:06:22Z</time></trkpt><trkpt lat="42.27061628597651" lon="13.686491550222653"><ele>900.1999999999999</ele><time>2026-05-03T08:06:23Z</time></trkpt><trkpt lat="42.27063435227473" lon="13.686631773709648"><ele>904.3999999999999</ele><time>2026-05-03T08:06:24Z</time></trkpt><trkpt lat="42.27066996589644" lon="13.686761608110684"><ele>908.6</ele><time>2026-05-03T08:06:25Z</time></trkpt><trkpt lat="42.27072345846828" lon="13.686891898652377"><ele>912.8</ele><time>2026-05-03T08:06:26Z</time></trkpt><trkpt lat="42.270768765433665" lon="13.687051192161874"><ele>917.0</ele><time>2026-05-03T08:06:27Z</time></trkpt><trkpt lat="42.27078248875995" lon="13.68722341879351"><ele>917.75</ele><time>2026-05-03T08:06:27.999Z</time></trkpt><trkpt lat="42.27077588002445" lon="13.687390037285507"><ele>918.5</ele><time>2026-05-03T08:06:28.999Z</time></trkpt><trkpt lat="42.27077254166139" lon="13.68753979416753"><ele>919.25</ele><time>2026-05-03T08:06:29.999Z</time></trkpt><trkpt lat="42.27075471291353" lon="13.687677709307362"><ele>920.0</ele><time>2026-05-03T08:06:30.999Z</time></trkpt><trkpt lat="42.27071932324723" lon="13.68783025913968"><ele>920.0000000000001</ele><time>2026-05-03T08:06:31.999Z</time></trkpt><trkpt lat="42.27069976626703" lon="13.688005495651268"><ele>920.0</ele><time>2026-05-03T08:06:32.999Z</time></trkpt><trkpt lat="42.27070127806945" lon="13.68811413160511"><ele>920.0</ele><time>2026-05-03T08:06:33.999Z</time></trkpt><trkpt lat="42.27073982249093" lon="13.688200563955565"><ele>920.0</ele><time>2026-05-03T08:06:34.999Z</time></trkpt><trkpt lat="42.27080180165199" lon="13.688237878591988"><ele>920.0000000000001</ele><time>2026-05-03T08:06:35.999Z</time></trkpt><trkpt lat="42.27088378200874" lon="13.68824049455961"><ele>920.0</ele><time>2026-05-03T08:06:36.999Z</time></trkpt><trkpt lat="42.27094924013317" lon="13.688197565726991"><ele>920.0</ele><time>2026-05-03T08:06:37.999Z</time></trkpt><trkpt lat="42.27100097313331" lon="13.68811200077797"><ele>920.0</ele><time>2026-05-03T08:06:38.999Z</time></trkpt><trkpt lat="42.271020854946215" lon="13.688010485752166"><ele>920.0</ele><time>2026-05-03T08:06:39.999Z</time></trkpt><trkpt lat="42.27103540327202" lon="13.687897371420489"><ele>920.0</ele><time>2026-05-03T08:06:40.999Z</time></trkpt><trkpt lat="42.27104151934961" lon="13.687751275537229"><ele>920.0</ele><time>2026-05-03T08:06:41.999Z</time></trkpt><trkpt lat="42.271057938926056" lon="13.687587620771202"><ele>921.0</ele><time>2026-05-03T08:06:42.999Z</time></trkpt><trkpt lat="42.27109227298584" lon="13.687473699309692"><ele>922.0</ele><time>2026-05-03T08:06:43.999Z</time></trkpt><trkpt lat="42.27113389425252" lon="13.68733867496291"><ele>923.0</ele><time>2026-05-03T08:06:44.999Z</time></trkpt><trkpt lat="42.27119852947107" lon="13.687160284937685"><ele>924.0</ele><time>2026-05-03T08:06:45.999Z</time></trkpt><trkpt lat="42.271239659368206" lon="13.687002371184711"><ele>922.8333333333334</ele><time>2026-05-03T08:06:46.999Z</time></trkpt><trkpt lat="42.271285522053894" lon="13.686907447759076"><ele>921.6666666666667</ele><time>2026-05-03T08:06:47.999Z</time></trkpt><trkpt lat="42.27134614552557" lon="13.68684121364692"><ele>920.5</ele><time>2026-05-03T08:06:48.999Z</time></trkpt><trkpt lat="42.27144733701551" lon="13.68683954875413"><ele>919.3333333333334</ele><time>2026-05-03T08:06:50.999Z</time></trkpt><trkpt lat="42.271471632667456" lon="13.68692411751031"><ele>918.1666666666667</ele><time>2026-05-03T08:06:51.999Z</time></trkpt><trkpt lat="42.2714761255209" lon="13.687013935152713"><ele>917.0</ele><time>2026-05-03T08:06:52.999Z</time></trkpt><trkpt lat="42.27145419016021" lon="13.687109357822571"><ele>917.6</ele><time>2026-05-03T08:06:53.999Z</time></trkpt><trkpt lat="42.271418137585584" lon="13.687190958431477"><ele>918.2</ele><time>2026-05-03T08:06:54.999Z</time></trkpt><trkpt lat="42.271357464350594" lon="13.687326740730867"><ele>918.8</ele><time>2026-05-03T08:06:55.999Z</time></trkpt><trkpt lat="42.271343135561" lon="13.687462393696066"><ele>919.4</ele><time>2026-05-03T08:06:56.999Z</time></trkpt><trkpt lat="42.271355650693266" lon="13.687619521949022"><ele>920.0</ele><time>2026-05-03T08:06:57.999Z</time></trkpt><trkpt lat="42.27136445341199" lon="13.687823855813782"><ele>920.0</ele><time>2026-05-03T08:06:58.999Z</time></trkpt><trkpt lat="42.2714007312684" lon="13.687999227334489"><ele>920.0</ele><time>2026-05-03T08:06:59.999Z</time></trkpt><trkpt lat="42.271459822574826" lon="13.688125488461392"><ele>920.0</ele><time>2026-05-03T08:07:00.999Z</time></trkpt><trkpt lat="42.271520247700536" lon="13.688210570274608"><ele>920.0</ele><time>2026-05-03T08:07:01.999Z</time></trkpt><trkpt lat="42.27160220750714" lon="13.688250212066789"><ele>920.0</ele><time>2026-05-03T08:07:02.999Z</time></trkpt><trkpt lat="42.271672689950485" lon="13.688290872898005"><ele>924.4</ele><time>2026-05-03T08:07:03.999Z</time></trkpt><trkpt lat="42.271761055357295" lon="13.688321651995777"><ele>928.8</ele><time>2026-05-03T08:07:04.999Z</time></trkpt><trkpt lat="42.27186166946025" lon="13.688351278731828"><ele>933.2</ele><time>2026-05-03T08:07:05.999Z</time></trkpt><trkpt lat="42.271962894827915" lon="13.68838259264561"><ele>937.6</ele><time>2026-05-03T08:07:06.999Z</time></trkpt><trkpt lat="42.27206206991035" lon="13.688441281715932"><ele>942.0</ele><time>2026-05-03T08:07:07.999Z</time></trkpt><trkpt lat="42.27220461148393" lon="13.688505259139857"><ele>940.0</ele><time>2026-05-03T08:07:08.999Z</time></trkpt><trkpt lat="42.27236760784457" lon="13.688583105577681"><ele>938.0</ele><time>2026-05-03T08:07:09.999Z</time></trkpt><trkpt lat="42.272543204641394" lon="13.688668779430142"><ele>936.0</ele><time>2026-05-03T08:07:10.999Z</time></trkpt><trkpt lat="42.27268361668192" lon="13.68878568219507"><ele>936.0</ele><time>2026-05-03T08:07:11.999Z</time></trkpt><trkpt lat="42.27280427151152" lon="13.688891574193475"><ele>936.0</ele><time>2026-05-03T08:07:12.999Z</time></trkpt><trkpt lat="42.27291619636196" lon="13.688994696247356"><ele>936.0</ele><time>2026-05-03T08:07:13.999Z</time></trkpt><trkpt lat="42.27301311160673" lon="13.689092984189358"><ele>936.0</ele><time>2026-05-03T08:07:14.999Z</time></trkpt><trkpt lat="42.27312414492551" lon="13.689209907076467"><ele>936.25</ele><time>2026-05-03T08:07:15.999Z</time></trkpt><trkpt lat="42.27323604386157" lon="13.689339441616006"><ele>936.5</ele><time>2026-05-03T08:07:16.999Z</time></trkpt><trkpt lat="42.273331023856485" lon="13.68944755702948"><ele>936.75</ele><time>2026-05-03T08:07:17.999Z</time></trkpt><trkpt lat="42.27343130707284" lon="13.689519747322306"><ele>937.0</ele><time>2026-05-03T08:07:18.999Z</time></trkpt><trkpt lat="42.273523031074085" lon="13.689547035760794"><ele>937.0</ele><time>2026-05-03T08:07:19.999Z</time></trkpt><trkpt lat="42.27363248570161" lon="13.689539702537221"><ele>937.0</ele><time>2026-05-03T08:07:20.999Z</time></trkpt><trkpt lat="42.27375453872975" lon="13.689515123863037"><ele>937.0</ele><time>2026-05-03T08:07:21.999Z</time></trkpt><trkpt lat="42.27386442743965" lon="13.689474431198992"><ele>937.0</ele><time>2026-05-03T08:07:22.999Z</time></trkpt><trkpt lat="42.273944285674396" lon="13.689409185156853"><ele>937.0</ele><time>2026-05-03T08:07:23.999Z</time></trkpt><trkpt lat="42.2740239782918" lon="13.689331120016657"><ele>942.5</ele><time>2026-05-03T08:07:24.999Z</time></trkpt><trkpt lat="42.274132619584705" lon="13.689220343290128"><ele>948.0</ele><time>2026-05-03T08:07:25.999Z</time></trkpt><trkpt lat="42.274231931758806" lon="13.68912223817403"><ele>953.5</ele><time>2026-05-03T08:07:26.999Z</time></trkpt><trkpt lat="42.274337333151216" lon="13.689025683917533"><ele>959.0</ele><time>2026-05-03T08:07:27.999Z</time></trkpt><trkpt lat="42.27446376987286" lon="13.688919187532541"><ele>959.0</ele><time>2026-05-03T08:07:28.999Z</time></trkpt><trkpt lat="42.274595068053074" lon="13.688840814556897"><ele>959.0</ele><time>2026-05-03T08:07:29.999Z</time></trkpt><trkpt lat="42.27473341321519" lon="13.688774497651297"><ele>959.0</ele><time>2026-05-03T08:07:30.999Z</time></trkpt><trkpt lat="42.274887998323884" lon="13.688714934359854"><ele>958.3333333333334</ele><time>2026-05-03T08:07:31.999Z</time></trkpt><trkpt lat="42.275047062530184" lon="13.688631563115688"><ele>957.6666666666667</ele><time>2026-05-03T08:07:32.999Z</time></trkpt><trkpt lat="42.275223590987764" lon="13.68852322331199"><ele>957.0</ele><time>2026-05-03T08:07:33.999Z</time></trkpt><trkpt lat="42.275398513970785" lon="13.688422350587713"><ele>958.6666666666667</ele><time>2026-05-03T08:07:34.998Z</time></trkpt><trkpt lat="42.27555319324459" lon="13.688345573381616"><ele>960.3333333333334</ele><time>2026-05-03T08:07:35.998Z</time></trkpt><trkpt lat="42.27571483105771" lon="13.688293503823239"><ele>962.0</ele><time>2026-05-03T08:07:36.998Z</time></trkpt><trkpt lat="42.27585849644005" lon="13.688233515285978"><ele>962.0</ele><time>2026-05-03T08:07:37.998Z</time></trkpt><trkpt lat="42.276001023274404" lon="13.688139495245526"><ele>962.0</ele><time>2026-05-03T08:07:38.998Z</time></trkpt><trkpt lat="42.276163835519476" lon="13.687995755172963"><ele>962.0</ele><time>2026-05-03T08:07:39.998Z</time></trkpt><trkpt lat="42.27635543913769" lon="13.68785078980519"><ele>965.5</ele><time>2026-05-03T08:07:40.998Z</time></trkpt><trkpt lat="42.27657221425302" lon="13.68768310857242"><ele>969.0</ele><time>2026-05-03T08:07:42Z</time></trkpt><trkpt lat="42.27678542019426" lon="13.687527614420562"><ele>969.0</ele><time>2026-05-03T08:07:43Z</time></trkpt><trkpt lat="42.276974782284434" lon="13.68739068147013"><ele>969.0</ele><time>2026-05-03T08:07:44Z</time></trkpt><trkpt lat="42.277131485640815" lon="13.687295519165119"><ele>969.0</ele><time>2026-05-03T08:07:45Z</time></trkpt><trkpt lat="42.27727233236581" lon="13.6872200703921"><ele>967.75</ele><time>2026-05-03T08:07:46Z</time></trkpt><trkpt lat="42.277399627156576" lon="13.68713217612818"><ele>966.5</ele><time>2026-05-03T08:07:47Z</time></trkpt><trkpt lat="42.27750840350763" lon="13.68704132400524"><ele>965.25</ele><time>2026-05-03T08:07:48Z</time></trkpt><trkpt lat="42.27758539058511" lon="13.686945083421481"><ele>964.0</ele><time>2026-05-03T08:07:49Z</time></trkpt><trkpt lat="42.27764494614746" lon="13.686874995597496"><ele>963.9999999999999</ele><time>2026-05-03T08:07:50Z</time></trkpt><trkpt lat="42.2777122981615" lon="13.686930297523523"><ele>964.0</ele><time>2026-05-03T08:07:53Z</time></trkpt><trkpt lat="42.277714859926654" lon="13.6870396190865"><ele>964.0</ele><time>2026-05-03T08:07:54Z</time></trkpt><trkpt lat="42.277715120686985" lon="13.687180166182454"><ele>964.0</ele><time>2026-05-03T08:07:55Z</time></trkpt><trkpt lat="42.27773329428653" lon="13.687315944210743"><ele>963.9999999999999</ele><time>2026-05-03T08:07:56Z</time></trkpt><trkpt lat="42.277752867194835" lon="13.687424252333797"><ele>964.0</ele><time>2026-05-03T08:07:57Z</time></trkpt><trkpt lat="42.277667293749296" lon="13.687574343791525"><ele>964.0</ele><time>2026-05-03T08:07:59Z</time></trkpt><trkpt lat="42.27762185148084" lon="13.687689074250292"><ele>964.0000000000001</ele><time>2026-05-03T08:08:00Z</time></trkpt><trkpt lat="42.27759145063992" lon="13.687844974858097"><ele>964.0000000000001</ele><time>2026-05-03T08:08:01Z</time></trkpt><trkpt lat="42.27754949135623" lon="13.687968377555457"><ele>964.0</ele><time>2026-05-03T08:08:02Z</time></trkpt><trkpt lat="42.27749703545676" lon="13.688054659312543"><ele>964.0</ele><time>2026-05-03T08:08:03Z</time></trkpt><trkpt lat="42.27743713280988" lon="13.68814415448249"><ele>963.0</ele><time>2026-05-03T08:08:04Z</time></trkpt><trkpt lat="42.27739976519215" lon="13.688238956664264"><ele>962.0000000000001</ele><time>2026-05-03T08:08:05Z</time></trkpt><trkpt lat="42.277412015563165" lon="13.68836263918763"><ele>961.0000000000001</ele><time>2026-05-03T08:08:07Z</time></trkpt><trkpt lat="42.277551731299155" lon="13.688385728864398"><ele>960.0</ele><time>2026-05-03T08:08:09Z</time></trkpt><trkpt lat="42.27764564462754" lon="13.688401554036277"><ele>959.0</ele><time>2026-05-03T08:08:10Z</time></trkpt><trkpt lat="42.27774082753646" lon="13.688410364736947"><ele>959.0</ele><time>2026-05-03T08:08:11Z</time></trkpt><trkpt lat="42.2778208903964" lon="13.688449527172615"><ele>959.0000000000001</ele><time>2026-05-03T08:08:12Z</time></trkpt><trkpt lat="42.27791949758198" lon="13.688523878314092"><ele>959.0000000000001</ele><time>2026-05-03T08:08:13Z</time></trkpt><trkpt lat="42.2780248827328" lon="13.688570943334174"><ele>959.0</ele><time>2026-05-03T08:08:14Z</time></trkpt><trkpt lat="42.27814468977325" lon="13.688609973208795"><ele>959.0</ele><time>2026-05-03T08:08:15Z</time></trkpt><trkpt lat="42.27829455649804" lon="13.688658595243561"><ele>958.0</ele><time>2026-05-03T08:08:16Z</time></trkpt><trkpt lat="42.27840840371174" lon="13.688734846163804"><ele>957.0</ele><time>2026-05-03T08:08:17Z</time></trkpt><trkpt lat="42.278496165688765" lon="13.688797870755126"><ele>956.0</ele><time>2026-05-03T08:08:18Z</time></trkpt><trkpt lat="42.278561132239034" lon="13.688940396076264"><ele>955.0</ele><time>2026-05-03T08:08:19Z</time></trkpt><trkpt lat="42.27866652918252" lon="13.689065114256994"><ele>955.0</ele><time>2026-05-03T08:08:20Z</time></trkpt><trkpt lat="42.27876413708921" lon="13.689211075345263"><ele>955.0</ele><time>2026-05-03T08:08:21Z</time></trkpt><trkpt lat="42.278850606449765" lon="13.689367134553772"><ele>955.0</ele><time>2026-05-03T08:08:22Z</time></trkpt><trkpt lat="42.27896192991834" lon="13.689505140525204"><ele>955.0</ele><time>2026-05-03T08:08:23Z</time></trkpt><trkpt lat="42.27909318565657" lon="13.68964624135921"><ele>956.0</ele><time>2026-05-03T08:08:24Z</time></trkpt><trkpt lat="42.2791909453516" lon="13.689775974117467"><ele>957.0</ele><time>2026-05-03T08:08:25Z</time></trkpt><trkpt lat="42.27928056887822" lon="13.689844276036517"><ele>958.0</ele><time>2026-05-03T08:08:26Z</time></trkpt><trkpt lat="42.27936594858442" lon="13.68986676117183"><ele>959.0</ele><time>2026-05-03T08:08:27Z</time></trkpt><trkpt lat="42.279506243622386" lon="13.689863425066884"><ele>959.0</ele><time>2026-05-03T08:08:29Z</time></trkpt><trkpt lat="42.279621385144075" lon="13.689919339771047"><ele>959.0000000000001</ele><time>2026-05-03T08:08:30.999Z</time></trkpt><trkpt lat="42.279665890294694" lon="13.690011393413362"><ele>959.0000000000001</ele><time>2026-05-03T08:08:31.999Z</time></trkpt><trkpt lat="42.27971940708278" lon="13.69012735429184"><ele>959.0</ele><time>2026-05-03T08:08:32.999Z</time></trkpt><trkpt lat="42.27977937503193" lon="13.69021072093423"><ele>959.0</ele><time>2026-05-03T08:08:33.999Z</time></trkpt><trkpt lat="42.27984769044054" lon="13.690244593121138"><ele>959.6</ele><time>2026-05-03T08:08:34.999Z</time></trkpt><trkpt lat="42.27994568348154" lon="13.69028684535829"><ele>960.2</ele><time>2026-05-03T08:08:35.999Z</time></trkpt><trkpt lat="42.280034710388755" lon="13.690323005468711"><ele>960.8000000000001</ele><time>2026-05-03T08:08:36.999Z</time></trkpt><trkpt lat="42.280112723715185" lon="13.690309957840878"><ele>961.4000000000001</ele><time>2026-05-03T08:08:37.999Z</time></trkpt><trkpt lat="42.28021884626691" lon="13.690313885368681"><ele>962.0</ele><time>2026-05-03T08:08:38.999Z</time></trkpt><trkpt lat="42.280332908412966" lon="13.690341414068694"><ele>962.0</ele><time>2026-05-03T08:08:39.999Z</time></trkpt><trkpt lat="42.280401182160396" lon="13.690380848821878"><ele>962.0</ele><time>2026-05-03T08:08:40.999Z</time></trkpt><trkpt lat="42.28045222243495" lon="13.690467365625468"><ele>962.0</ele><time>2026-05-03T08:08:41.999Z</time></trkpt><trkpt lat="42.280490994309304" lon="13.690586434915728"><ele>962.0</ele><time>2026-05-03T08:08:42.999Z</time></trkpt><trkpt lat="42.28053446545707" lon="13.690712138718519"><ele>962.0</ele><time>2026-05-03T08:08:43.999Z</time></trkpt><trkpt lat="42.28056029174628" lon="13.690869567369043"><ele>962.0</ele><time>2026-05-03T08:08:44.999Z</time></trkpt><trkpt lat="42.28056574787518" lon="13.691043164233417"><ele>962.0</ele><time>2026-05-03T08:08:45.999Z</time></trkpt><trkpt lat="42.28054726830169" lon="13.69124049584519"><ele>962.0</ele><time>2026-05-03T08:08:46.999Z</time></trkpt><trkpt lat="42.28052100352488" lon="13.691436389088375"><ele>962.0</ele><time>2026-05-03T08:08:47.999Z</time></trkpt><trkpt lat="42.28048078982408" lon="13.691608271401964"><ele>963.0</ele><time>2026-05-03T08:08:48.999Z</time></trkpt><trkpt lat="42.28043649055152" lon="13.691758210697405"><ele>964.0</ele><time>2026-05-03T08:08:49.999Z</time></trkpt><trkpt lat="42.28036589434149" lon="13.691924179349872"><ele>965.0</ele><time>2026-05-03T08:08:50.999Z</time></trkpt><trkpt lat="42.28027445676772" lon="13.69215237675215"><ele>969.3333333333334</ele><time>2026-05-03T08:08:51.999Z</time></trkpt><trkpt lat="42.280191553416834" lon="13.6923708747896"><ele>973.6666666666667</ele><time>2026-05-03T08:08:52.999Z</time></trkpt><trkpt lat="42.280128983063435" lon="13.69260475010423"><ele>978.0</ele><time>2026-05-03T08:08:53.999Z</time></trkpt><trkpt lat="42.28005785301804" lon="13.692757459985238"><ele>979.2</ele><time>2026-05-03T08:08:54.999Z</time></trkpt><trkpt lat="42.27996965891127" lon="13.692912860361083"><ele>980.4</ele><time>2026-05-03T08:08:55.999Z</time></trkpt><trkpt lat="42.27997505993941" lon="13.693045388016104"><ele>981.6000000000001</ele><time>2026-05-03T08:08:57.999Z</time></trkpt><trkpt lat="42.27997057023419" lon="13.693149170478994"><ele>982.8000000000001</ele><time>2026-05-03T08:08:58.999Z</time></trkpt><trkpt lat="42.28001853915716" lon="13.693290691160975"><ele>984.0</ele><time>2026-05-03T08:08:59.999Z</time></trkpt><trkpt lat="42.28004134278161" lon="13.69340624000779"><ele>984.0</ele><time>2026-05-03T08:09:00.999Z</time></trkpt><trkpt lat="42.280056731392484" lon="13.693532147219768"><ele>984.0</ele><time>2026-05-03T08:09:01.999Z</time></trkpt><trkpt lat="42.280046662335415" lon="13.693712452425212"><ele>984.0</ele><time>2026-05-03T08:09:02.999Z</time></trkpt><trkpt lat="42.28005058888419" lon="13.693876748188238"><ele>984.0</ele><time>2026-05-03T08:09:03.999Z</time></trkpt><trkpt lat="42.28003886788605" lon="13.69406654959307"><ele>983.5</ele><time>2026-05-03T08:09:04.999Z</time></trkpt><trkpt lat="42.280042822548026" lon="13.694241871205831"><ele>983.0</ele><time>2026-05-03T08:09:05.999Z</time></trkpt><trkpt lat="42.28003791534114" lon="13.694452652961465"><ele>982.5</ele><time>2026-05-03T08:09:06.999Z</time></trkpt><trkpt lat="42.2800241777425" lon="13.694668913993628"><ele>982.0</ele><time>2026-05-03T08:09:07.999Z</time></trkpt><trkpt lat="42.28000636458918" lon="13.694825863168967"><ele>981.0</ele><time>2026-05-03T08:09:08.999Z</time></trkpt><trkpt lat="42.279959465809526" lon="13.694963647776875"><ele>980.0</ele><time>2026-05-03T08:09:09.999Z</time></trkpt><trkpt lat="42.279946710190394" lon="13.695071271514266"><ele>979.0</ele><time>2026-05-03T08:09:10.999Z</time></trkpt><trkpt lat="42.27996037536509" lon="13.695204737429938"><ele>978.0</ele><time>2026-05-03T08:09:11.999Z</time></trkpt><trkpt lat="42.28001054371742" lon="13.695317549523345"><ele>977.0</ele><time>2026-05-03T08:09:12.999Z</time></trkpt><trkpt lat="42.28007561182882" lon="13.695434120778089"><ele>975.6</ele><time>2026-05-03T08:09:13.999Z</time></trkpt><trkpt lat="42.280116038494675" lon="13.69551587536049"><ele>974.2</ele><time>2026-05-03T08:09:14.999Z</time></trkpt><trkpt lat="42.28021011998921" lon="13.695603569291967"><ele>972.8</ele><time>2026-05-03T08:09:16.999Z</time></trkpt><trkpt lat="42.280285905537106" lon="13.695654458694344"><ele>971.4</ele><time>2026-05-03T08:09:17.999Z</time></trkpt><trkpt lat="42.28036943556742" lon="13.695722982204733"><ele>970.0</ele><time>2026-05-03T08:09:18.999Z</time></trkpt><trkpt lat="42.28044071520185" lon="13.69580836562598"><ele>970.0</ele><time>2026-05-03T08:09:19.999Z</time></trkpt><trkpt lat="42.28052129574694" lon="13.6958922948643"><ele>970.0</ele><time>2026-05-03T08:09:20.999Z</time></trkpt><trkpt lat="42.28059513455165" lon="13.695949599925179"><ele>970.0</ele><time>2026-05-03T08:09:21.999Z</time></trkpt><trkpt lat="42.280714968072175" lon="13.695976703113995"><ele>970.0</ele><time>2026-05-03T08:09:23.999Z</time></trkpt><trkpt lat="42.28086742456739" lon="13.695959971950284"><ele>973.2</ele><time>2026-05-03T08:09:25.999Z</time></trkpt><trkpt lat="42.28095494950562" lon="13.69591092610566"><ele>976.4</ele><time>2026-05-03T08:09:26.999Z</time></trkpt><trkpt lat="42.28104923901007" lon="13.695853889547273"><ele>979.5999999999999</ele><time>2026-05-03T08:09:27.999Z</time></trkpt><trkpt lat="42.281131318657" lon="13.695816344357066"><ele>982.8</ele><time>2026-05-03T08:09:28.999Z</time></trkpt><trkpt lat="42.281220442768316" lon="13.695772116241855"><ele>986.0</ele><time>2026-05-03T08:09:29.999Z</time></trkpt><trkpt lat="42.2813138147733" lon="13.695738041969195"><ele>986.0</ele><time>2026-05-03T08:09:30.999Z</time></trkpt><trkpt lat="42.281384742209234" lon="13.695801250067037"><ele>985.9999999999999</ele><time>2026-05-03T08:09:32.999Z</time></trkpt><trkpt lat="42.28141165849784" lon="13.695969656002749"><ele>985.9999999999999</ele><time>2026-05-03T08:09:34.999Z</time></trkpt><trkpt lat="42.28145702097901" lon="13.696076671330227"><ele>986.0</ele><time>2026-05-03T08:09:35.998Z</time></trkpt><trkpt lat="42.28150615841183" lon="13.696167709309423"><ele>986.0</ele><time>2026-05-03T08:09:36.998Z</time></trkpt><trkpt lat="42.281578722077654" lon="13.696301316199673"><ele>986.8</ele><time>2026-05-03T08:09:37.998Z</time></trkpt><trkpt lat="42.2816518429716" lon="13.696419452596297"><ele>987.5999999999999</ele><time>2026-05-03T08:09:38.998Z</time></trkpt><trkpt lat="42.28172152953565" lon="13.696513612436668"><ele>988.4</ele><time>2026-05-03T08:09:39.998Z</time></trkpt><trkpt lat="42.28180159942249" lon="13.69660839167673"><ele>989.2</ele><time>2026-05-03T08:09:40.998Z</time></trkpt><trkpt lat="42.28188649343354" lon="13.696702081444142"><ele>990.0</ele><time>2026-05-03T08:09:41.998Z</time></trkpt><trkpt lat="42.28195539440283" lon="13.696805580543584"><ele>990.0</ele><time>2026-05-03T08:09:42.998Z</time></trkpt><trkpt lat="42.28200992761864" lon="13.696899395864042"><ele>990.0</ele><time>2026-05-03T08:09:43.998Z</time></trkpt><trkpt lat="42.282054225391" lon="13.6969850444567"><ele>990.0</ele><time>2026-05-03T08:09:44.998Z</time></trkpt><trkpt lat="42.28211906150392" lon="13.696878614211096"><ele>990.0</ele><time>2026-05-03T08:09:46.998Z</time></trkpt><trkpt lat="42.28210029960649" lon="13.696710404297795"><ele>990.0</ele><time>2026-05-03T08:09:49Z</time></trkpt><trkpt lat="42.28203158415659" lon="13.69660341392993"><ele>990.0</ele><time>2026-05-03T08:09:51Z</time></trkpt><trkpt lat="42.282013648160564" lon="13.696498040980677"><ele>990.0</ele><time>2026-05-03T08:09:53Z</time></trkpt><trkpt lat="42.282059116414956" lon="13.696384675928662"><ele>990.0</ele><time>2026-05-03T08:09:55Z</time></trkpt><trkpt lat="42.28215381387433" lon="13.69626443380866"><ele>990.0</ele><time>2026-05-03T08:09:57Z</time></trkpt><trkpt lat="42.28220360633566" lon="13.696199883429129"><ele>990.0</ele><time>2026-05-03T08:09:57.999Z</time></trkpt><trkpt lat="42.2822699244306" lon="13.696059748506565"><ele>984.5</ele><time>2026-05-03T08:09:59.999Z</time></trkpt><trkpt lat="42.2822911926566" lon="13.695843747880348"><ele>979.0</ele><time>2026-05-03T08:10:01.999Z</time></trkpt><trkpt lat="42.282300525345086" lon="13.695666868586839"><ele>973.5</ele><time>2026-05-03T08:10:02.999Z</time></trkpt><trkpt lat="42.28230029238536" lon="13.695489778877201"><ele>968.0</ele><time>2026-05-03T08:10:03.999Z</time></trkpt><trkpt lat="42.282315107031884" lon="13.695295029427028"><ele>967.25</ele><time>2026-05-03T08:10:04.999Z</time></trkpt><trkpt lat="42.28233041412453" lon="13.695083062171614"><ele>966.5</ele><time>2026-05-03T08:10:05.999Z</time></trkpt><trkpt lat="42.28233652820201" lon="13.694890576134338"><ele>965.75</ele><time>2026-05-03T08:10:06.999Z</time></trkpt><trkpt lat="42.282329731249355" lon="13.694718439247948"><ele>965.0</ele><time>2026-05-03T08:10:07.999Z</time></trkpt><trkpt lat="42.28230130033603" lon="13.69455926236666"><ele>963.0</ele><time>2026-05-03T08:10:08.999Z</time></trkpt><trkpt lat="42.28227080794657" lon="13.69438970804215"><ele>961.0</ele><time>2026-05-03T08:10:09.999Z</time></trkpt><trkpt lat="42.28223469473589" lon="13.694238483536207"><ele>959.0</ele><time>2026-05-03T08:10:10.999Z</time></trkpt><trkpt lat="42.282209377880456" lon="13.694091058186322"><ele>957.0</ele><time>2026-05-03T08:10:11.999Z</time></trkpt><trkpt lat="42.28222784027307" lon="13.69391020517815"><ele>957.0</ele><time>2026-05-03T08:10:12.999Z</time></trkpt><trkpt lat="42.28227662208693" lon="13.69376301554452"><ele>957.0</ele><time>2026-05-03T08:10:13.999Z</time></trkpt><trkpt lat="42.282340827770525" lon="13.69360723053984"><ele>957.0</ele><time>2026-05-03T08:10:14.999Z</time></trkpt><trkpt lat="42.28237706313449" lon="13.69345477340313"><ele>957.0</ele><time>2026-05-03T08:10:15.999Z</time></trkpt><trkpt lat="42.28237743169159" lon="13.693298890910416"><ele>957.25</ele><time>2026-05-03T08:10:16.999Z</time></trkpt><trkpt lat="42.28239238354647" lon="13.69314268855612"><ele>957.5</ele><time>2026-05-03T08:10:17.999Z</time></trkpt><trkpt lat="42.282413633699335" lon="13.692995108480321"><ele>957.75</ele><time>2026-05-03T08:10:18.999Z</time></trkpt><trkpt lat="42.28246220345472" lon="13.69281400102504"><ele>958.0</ele><time>2026-05-03T08:10:19.999Z</time></trkpt><trkpt lat="42.2825357142782" lon="13.69260321152617"><ele>958.0</ele><time>2026-05-03T08:10:20.999Z</time></trkpt><trkpt lat="42.2826088680927" lon="13.692407429998369"><ele>958.0</ele><time>2026-05-03T08:10:21.999Z</time></trkpt><trkpt lat="42.28267543283546" lon="13.692250192048538"><ele>958.0</ele><time>2026-05-03T08:10:22.999Z</time></trkpt><trkpt lat="42.282758045572514" lon="13.692098361826808"><ele>958.0</ele><time>2026-05-03T08:10:23.999Z</time></trkpt><trkpt lat="42.28287693310842" lon="13.691914815771048"><ele>962.0</ele><time>2026-05-03T08:10:24.999Z</time></trkpt><trkpt lat="42.2829772858936" lon="13.691748622351792"><ele>966.0</ele><time>2026-05-03T08:10:25.999Z</time></trkpt><trkpt lat="42.283052136667166" lon="13.691615267585307"><ele>970.0</ele><time>2026-05-03T08:10:26.999Z</time></trkpt><trkpt lat="42.28316868732255" lon="13.691512974933653"><ele>974.0</ele><time>2026-05-03T08:10:27.999Z</time></trkpt><trkpt lat="42.28332340594643" lon="13.691409849359692"><ele>965.25</ele><time>2026-05-03T08:10:28.999Z</time></trkpt><trkpt lat="42.28348827124275" lon="13.691315299119614"><ele>956.5</ele><time>2026-05-03T08:10:29.999Z</time></trkpt><trkpt lat="42.283621813449926" lon="13.69125391096555"><ele>947.75</ele><time>2026-05-03T08:10:30.999Z</time></trkpt><trkpt lat="42.283714354400814" lon="13.691182124697079"><ele>939.0</ele><time>2026-05-03T08:10:31.999Z</time></trkpt><trkpt lat="42.28382530596193" lon="13.691097500507844"><ele>939.8000000000001</ele><time>2026-05-03T08:10:32.999Z</time></trkpt><trkpt lat="42.283938051231765" lon="13.691026900901564"><ele>940.6000000000001</ele><time>2026-05-03T08:10:33.999Z</time></trkpt><trkpt lat="42.28403165257998" lon="13.690965760591979"><ele>941.4</ele><time>2026-05-03T08:10:34.999Z</time></trkpt><trkpt lat="42.2841216393774" lon="13.690925402575019"><ele>942.2</ele><time>2026-05-03T08:10:35.999Z</time></trkpt><trkpt lat="42.28418764954331" lon="13.690903342918798"><ele>943.0</ele><time>2026-05-03T08:10:36.999Z</time></trkpt><trkpt lat="42.28434158555727" lon="13.690946565745838"><ele>943.0</ele><time>2026-05-03T08:10:38.999Z</time></trkpt><trkpt lat="42.28445351749238" lon="13.69100140066398"><ele>943.0</ele><time>2026-05-03T08:10:39.999Z</time></trkpt><trkpt lat="42.284578479205564" lon="13.691046609247415"><ele>943.0</ele><time>2026-05-03T08:10:40.999Z</time></trkpt><trkpt lat="42.28472777279264" lon="13.691100262382944"><ele>943.0</ele><time>2026-05-03T08:10:41.999Z</time></trkpt><trkpt lat="42.28489575409958" lon="13.691155832735932"><ele>931.6666666666666</ele><time>2026-05-03T08:10:42.999Z</time></trkpt><trkpt lat="42.28507019609043" lon="13.691225045008537"><ele>920.3333333333333</ele><time>2026-05-03T08:10:43.999Z</time></trkpt><trkpt lat="42.285221162213425" lon="13.691268894957341"><ele>909.0</ele><time>2026-05-03T08:10:44.999Z</time></trkpt><trkpt lat="42.28537203850061" lon="13.691301533381932"><ele>909.0</ele><time>2026-05-03T08:10:45.999Z</time></trkpt><trkpt lat="42.285510077385084" lon="13.691309380464316"><ele>909.0</ele><time>2026-05-03T08:10:46.999Z</time></trkpt><trkpt lat="42.28564159498349" lon="13.69129649809133"><ele>909.0</ele><time>2026-05-03T08:10:47.999Z</time></trkpt><trkpt lat="42.28580087839315" lon="13.691261422548994"><ele>909.0</ele><time>2026-05-03T08:10:48.999Z</time></trkpt><trkpt lat="42.285999673535294" lon="13.691217124081291"><ele>909.6666666666667</ele><time>2026-05-03T08:10:49.999Z</time></trkpt><trkpt lat="42.28622127014168" lon="13.691152676955332"><ele>910.3333333333334</ele><time>2026-05-03T08:10:50.999Z</time></trkpt><trkpt lat="42.28641481486693" lon="13.691095061467841"><ele>911.0</ele><time>2026-05-03T08:10:51.999Z</time></trkpt><trkpt lat="42.286593448658266" lon="13.691052718152612"><ele>920.3333333333334</ele><time>2026-05-03T08:10:52.999Z</time></trkpt><trkpt lat="42.28678453146966" lon="13.691009037879668"><ele>929.6666666666667</ele><time>2026-05-03T08:10:53.999Z</time></trkpt><trkpt lat="42.2869636734549" lon="13.690951401009528"><ele>939.0</ele><time>2026-05-03T08:10:54.999Z</time></trkpt><trkpt lat="42.28710568588446" lon="13.690894128774824"><ele>939.0</ele><time>2026-05-03T08:10:55.999Z</time></trkpt><trkpt lat="42.287254568305144" lon="13.69082832112497"><ele>939.0</ele><time>2026-05-03T08:10:56.999Z</time></trkpt><trkpt lat="42.28741391034051" lon="13.690761192868774"><ele>939.0</ele><time>2026-05-03T08:10:57.999Z</time></trkpt><trkpt lat="42.287567859790464" lon="13.690694903387941"><ele>933.6666666666667</ele><time>2026-05-03T08:10:58.999Z</time></trkpt><trkpt lat="42.287733198004254" lon="13.690645965525075"><ele>928.3333333333334</ele><time>2026-05-03T08:10:59.999Z</time></trkpt><trkpt lat="42.28788616409621" lon="13.690601301036846"><ele>923.0</ele><time>2026-05-03T08:11:00.999Z</time></trkpt><trkpt lat="42.28802195555537" lon="13.690546762688351"><ele>917.3333333333334</ele><time>2026-05-03T08:11:01.999Z</time></trkpt><trkpt lat="42.288160828652885" lon="13.690478564794724"><ele>911.6666666666667</ele><time>2026-05-03T08:11:02.999Z</time></trkpt><trkpt lat="42.288333123664245" lon="13.69038831318303"><ele>906.0</ele><time>2026-05-03T08:11:03.999Z</time></trkpt><trkpt lat="42.28846747947355" lon="13.690345390909753"><ele>906.0</ele><time>2026-05-03T08:11:04.999Z</time></trkpt><trkpt lat="42.288571379941054" lon="13.690354005460579"><ele>905.9999999999999</ele><time>2026-05-03T08:11:05.999Z</time></trkpt><trkpt lat="42.28869041893267" lon="13.69038121295922"><ele>905.9999999999999</ele><time>2026-05-03T08:11:06.999Z</time></trkpt><trkpt lat="42.28880133201988" lon="13.690446867713671"><ele>906.0</ele><time>2026-05-03T08:11:07.999Z</time></trkpt><trkpt lat="42.28888757530504" lon="13.69050459350315"><ele>906.0</ele><time>2026-05-03T08:11:08.999Z</time></trkpt><trkpt lat="42.28896162324348" lon="13.690544703472298"><ele>905.0</ele><time>2026-05-03T08:11:09.999Z</time></trkpt><trkpt lat="42.28903675202395" lon="13.690569543542884"><ele>903.9999999999999</ele><time>2026-05-03T08:11:10.999Z</time></trkpt><trkpt lat="42.2891184905541" lon="13.690567972876826"><ele>902.9999999999999</ele><time>2026-05-03T08:11:11.999Z</time></trkpt><trkpt lat="42.2892007222976" lon="13.690551139856419"><ele>902.0</ele><time>2026-05-03T08:11:12.999Z</time></trkpt><trkpt lat="42.28931627983749" lon="13.690534107514667"><ele>901.0</ele><time>2026-05-03T08:11:13.999Z</time></trkpt><trkpt lat="42.28942649590456" lon="13.690497049701182"><ele>901.0</ele><time>2026-05-03T08:11:14.999Z</time></trkpt><trkpt lat="42.28953430701061" lon="13.690495349096658"><ele>901.0</ele><time>2026-05-03T08:11:15.999Z</time></trkpt><trkpt lat="42.28966612976275" lon="13.690521414088119"><ele>901.0</ele><time>2026-05-03T08:11:16.999Z</time></trkpt><trkpt lat="42.289793333218256" lon="13.690569941657044"><ele>901.0</ele><time>2026-05-03T08:11:17.999Z</time></trkpt><trkpt lat="42.28991392225141" lon="13.690625030111423"><ele>900.0</ele><time>2026-05-03T08:11:18.999Z</time></trkpt><trkpt lat="42.29001695580143" lon="13.69065328142638"><ele>899.0</ele><time>2026-05-03T08:11:19.999Z</time></trkpt><trkpt lat="42.29012669320611" lon="13.690651263556965"><ele>898.0</ele><time>2026-05-03T08:11:20.999Z</time></trkpt><trkpt lat="42.29025986150113" lon="13.690639238404474"><ele>897.0</ele><time>2026-05-03T08:11:21.999Z</time></trkpt><trkpt lat="42.29038746139199" lon="13.69059894922399"><ele>897.0</ele><time>2026-05-03T08:11:22.999Z</time></trkpt><trkpt lat="42.29051655491985" lon="13.690549069121436"><ele>897.0</ele><time>2026-05-03T08:11:23.999Z</time></trkpt><trkpt lat="42.29062489510404" lon="13.690520037370366"><ele>897.0</ele><time>2026-05-03T08:11:24.999Z</time></trkpt><trkpt lat="42.29074026668409" lon="13.690523472309126"><ele>897.0</ele><time>2026-05-03T08:11:25.999Z</time></trkpt><trkpt lat="42.290842275599154" lon="13.690535403125978"><ele>895.0</ele><time>2026-05-03T08:11:26.999Z</time></trkpt><trkpt lat="42.29094717408236" lon="13.69054258681442"><ele>893.0</ele><time>2026-05-03T08:11:27.999Z</time></trkpt><trkpt lat="42.29103839841983" lon="13.690526888873874"><ele>891.0</ele><time>2026-05-03T08:11:28.998Z</time></trkpt><trkpt lat="42.291137581219004" lon="13.690506774984275"><ele>889.0</ele><time>2026-05-03T08:11:29.998Z</time></trkpt><trkpt lat="42.29125844617997" lon="13.690439403445987"><ele>887.0</ele><time>2026-05-03T08:11:30.998Z</time></trkpt><trkpt lat="42.2913682219063" lon="13.69034109143582"><ele>884.5</ele><time>2026-05-03T08:11:31.998Z</time></trkpt><trkpt lat="42.29147562093257" lon="13.690230080071787"><ele>882.0</ele><time>2026-05-03T08:11:32.998Z</time></trkpt><trkpt lat="42.29157405984252" lon="13.690106180806925"><ele>879.5</ele><time>2026-05-03T08:11:33.998Z</time></trkpt><trkpt lat="42.291657412289666" lon="13.689987632689183"><ele>877.0</ele><time>2026-05-03T08:11:34.998Z</time></trkpt><trkpt lat="42.29173456742854" lon="13.689885646571103"><ele>877.0</ele><time>2026-05-03T08:11:35.998Z</time></trkpt><trkpt lat="42.291842978441345" lon="13.68981706937477"><ele>877.0</ele><time>2026-05-03T08:11:36.998Z</time></trkpt><trkpt lat="42.29197536013124" lon="13.689753340394146"><ele>877.0</ele><time>2026-05-03T08:11:37.998Z</time></trkpt><trkpt lat="42.29209750812507" lon="13.68969464031637"><ele>877.0</ele><time>2026-05-03T08:11:38.998Z</time></trkpt><trkpt lat="42.29217387209596" lon="13.689619041980459"><ele>877.0</ele><time>2026-05-03T08:11:39.998Z</time></trkpt><trkpt lat="42.29224104337711" lon="13.689492228310977"><ele>877.0</ele><time>2026-05-03T08:11:40.998Z</time></trkpt><trkpt lat="42.29234018788778" lon="13.689332600186505"><ele>877.0</ele><time>2026-05-03T08:11:41.998Z</time></trkpt><trkpt lat="42.29242922311461" lon="13.689203351824421"><ele>877.0</ele><time>2026-05-03T08:11:42.998Z</time></trkpt><trkpt lat="42.29250708425868" lon="13.689097835759583"><ele>875.4000000000001</ele><time>2026-05-03T08:11:43.998Z</time></trkpt><trkpt lat="42.292571079450255" lon="13.689011478904188"><ele>873.8000000000001</ele><time>2026-05-03T08:11:44.998Z</time></trkpt><trkpt lat="42.292654445109044" lon="13.688929364534616"><ele>872.2</ele><time>2026-05-03T08:11:45.998Z</time></trkpt><trkpt lat="42.29272438212083" lon="13.688871047124865"><ele>870.6</ele><time>2026-05-03T08:11:46.998Z</time></trkpt><trkpt lat="42.29280829875356" lon="13.688796529530856"><ele>869.0</ele><time>2026-05-03T08:11:47.998Z</time></trkpt><trkpt lat="42.29291108353293" lon="13.688754152551748"><ele>869.0</ele><time>2026-05-03T08:11:48.998Z</time></trkpt><trkpt lat="42.29300309244805" lon="13.688707339683758"><ele>869.0000000000001</ele><time>2026-05-03T08:11:49.998Z</time></trkpt><trkpt lat="42.293098845314084" lon="13.688636655325565"><ele>869.0000000000001</ele><time>2026-05-03T08:11:50.998Z</time></trkpt><trkpt lat="42.2931801010554" lon="13.688596141597237"><ele>869.0</ele><time>2026-05-03T08:11:51.998Z</time></trkpt><trkpt lat="42.29326810180354" lon="13.688578596286973"><ele>869.0</ele><time>2026-05-03T08:11:52.998Z</time></trkpt><trkpt lat="42.29334209719493" lon="13.688581899085658"><ele>865.6666666666667</ele><time>2026-05-03T08:11:53.999Z</time></trkpt><trkpt lat="42.293422688005236" lon="13.688612811499802"><ele>862.3333333333334</ele><time>2026-05-03T08:11:55.999Z</time></trkpt><trkpt lat="42.293373489832526" lon="13.688743720225798"><ele>859.0</ele><time>2026-05-03T08:11:58.999Z</time></trkpt><trkpt lat="42.293314382093" lon="13.688803907770271"><ele>855.6666666666667</ele><time>2026-05-03T08:11:59.999Z</time></trkpt><trkpt lat="42.29325559895985" lon="13.688867925593316"><ele>852.3333333333334</ele><time>2026-05-03T08:12:00.999Z</time></trkpt><trkpt lat="42.29318256962961" lon="13.688944351752909"><ele>849.0</ele><time>2026-05-03T08:12:01.999Z</time></trkpt><trkpt lat="42.2931165794967" lon="13.689030978230075"><ele>851.0</ele><time>2026-05-03T08:12:02.999Z</time></trkpt><trkpt lat="42.293064513799855" lon="13.689123333958808"><ele>853.0</ele><time>2026-05-03T08:12:03.999Z</time></trkpt><trkpt lat="42.29299949640417" lon="13.689204770127343"><ele>855.0000000000001</ele><time>2026-05-03T08:12:04.999Z</time></trkpt><trkpt lat="42.292948653346585" lon="13.689308125363244"><ele>857.0</ele><time>2026-05-03T08:12:05.999Z</time></trkpt><trkpt lat="42.29289700916307" lon="13.689425077525641"><ele>859.0</ele><time>2026-05-03T08:12:06.999Z</time></trkpt><trkpt lat="42.29284253996747" lon="13.689551572838134"><ele>858.9999999999999</ele><time>2026-05-03T08:12:07.999Z</time></trkpt><trkpt lat="42.292778398735024" lon="13.689654149366792"><ele>859.0</ele><time>2026-05-03T08:12:08.999Z</time></trkpt><trkpt lat="42.29274901939165" lon="13.689759885693398"><ele>859.0</ele><time>2026-05-03T08:12:09.999Z</time></trkpt><trkpt lat="42.29270760348467" lon="13.68983596196028"><ele>859.0</ele><time>2026-05-03T08:12:10.999Z</time></trkpt><trkpt lat="42.292668630368574" lon="13.689957240659384"><ele>858.9999999999999</ele><time>2026-05-03T08:12:18.999Z</time></trkpt><trkpt lat="42.292622940369505" lon="13.690047074439743"><ele>859.0</ele><time>2026-05-03T08:12:19.999Z</time></trkpt><trkpt lat="42.292585143961986" lon="13.69016534423856"><ele>858.4999999999999</ele><time>2026-05-03T08:12:20.999Z</time></trkpt><trkpt lat="42.292543628898564" lon="13.690273200425407"><ele>858.0</ele><time>2026-05-03T08:12:21.999Z</time></trkpt><trkpt lat="42.29249907424761" lon="13.690371064309089"><ele>857.5</ele><time>2026-05-03T08:12:22.999Z</time></trkpt><trkpt lat="42.29246629535243" lon="13.690471687544653"><ele>857.0</ele><time>2026-05-03T08:12:23.999Z</time></trkpt><trkpt lat="42.292449062009744" lon="13.690562983630203"><ele>856.4999999999999</ele><time>2026-05-03T08:12:24.999Z</time></trkpt><trkpt lat="42.292436923827836" lon="13.69065408987257"><ele>856.0</ele><time>2026-05-03T08:12:25.999Z</time></trkpt><trkpt lat="42.29243005460075" lon="13.690750895142806"><ele>855.9999999999999</ele><time>2026-05-03T08:12:26.999Z</time></trkpt><trkpt lat="42.29242912332374" lon="13.690847719048733"><ele>856.0</ele><time>2026-05-03T08:12:27.999Z</time></trkpt><trkpt lat="42.29242895013796" lon="13.69094534057344"><ele>856.0</ele><time>2026-05-03T08:12:28.999Z</time></trkpt><trkpt lat="42.29241014987047" lon="13.691043967095748"><ele>856.0</ele><time>2026-05-03T08:12:29.999Z</time></trkpt><trkpt lat="42.29238815195431" lon="13.691155862828131"><ele>855.9999999999999</ele><time>2026-05-03T08:12:30.999Z</time></trkpt><trkpt lat="42.292358089582756" lon="13.691282727883982"><ele>856.0</ele><time>2026-05-03T08:12:31.999Z</time></trkpt><trkpt lat="42.29231571101551" lon="13.691428734504688"><ele>857.5</ele><time>2026-05-03T08:12:32.999Z</time></trkpt><trkpt lat="42.29225012955531" lon="13.691599063700018"><ele>859.0</ele><time>2026-05-03T08:12:33.999Z</time></trkpt><trkpt lat="42.292170560949536" lon="13.691743039357066"><ele>860.5</ele><time>2026-05-03T08:12:34.999Z</time></trkpt><trkpt lat="42.292079318688124" lon="13.691870978589352"><ele>862.0</ele><time>2026-05-03T08:12:35.999Z</time></trkpt><trkpt lat="42.29195777942294" lon="13.692013572119512"><ele>862.0</ele><time>2026-05-03T08:12:36.999Z</time></trkpt><trkpt lat="42.29182481707402" lon="13.692168404759402"><ele>862.0</ele><time>2026-05-03T08:12:37.999Z</time></trkpt><trkpt lat="42.29170431407409" lon="13.692294528274598"><ele>862.0</ele><time>2026-05-03T08:12:38.999Z</time></trkpt><trkpt lat="42.29158263620716" lon="13.692416376641878"><ele>862.0</ele><time>2026-05-03T08:12:39.999Z</time></trkpt><trkpt lat="42.2914703824321" lon="13.692531875715256"><ele>862.0</ele><time>2026-05-03T08:12:40.999Z</time></trkpt><trkpt lat="42.29134936844078" lon="13.69266106425346"><ele>862.0</ele><time>2026-05-03T08:12:41.999Z</time></trkpt><trkpt lat="42.29125035782442" lon="13.692834199934724"><ele>862.0</ele><time>2026-05-03T08:12:42.999Z</time></trkpt><trkpt lat="42.29117805219459" lon="13.692979729292992"><ele>862.0</ele><time>2026-05-03T08:12:43.999Z</time></trkpt><trkpt lat="42.291120246101435" lon="13.693097686112143"><ele>862.0</ele><time>2026-05-03T08:12:44.999Z</time></trkpt><trkpt lat="42.29105147837226" lon="13.69322438234725"><ele>862.0</ele><time>2026-05-03T08:12:45.999Z</time></trkpt><trkpt lat="42.29096296142767" lon="13.69334761844408"><ele>862.0</ele><time>2026-05-03T08:12:46.999Z</time></trkpt><trkpt lat="42.290874170332046" lon="13.69344723250436"><ele>862.0</ele><time>2026-05-03T08:12:47.999Z</time></trkpt><trkpt lat="42.290814828810724" lon="13.693511449371245"><ele>862.0</ele><time>2026-05-03T08:12:48.999Z</time></trkpt><trkpt lat="42.29074060930838" lon="13.693575537393764"><ele>862.0</ele><time>2026-05-03T08:12:50.999Z</time></trkpt><trkpt lat="42.290811838068024" lon="13.693471584813683"><ele>862.0</ele><time>2026-05-03T08:13:02.999Z</time></trkpt><trkpt lat="42.29092871166532" lon="13.693392934989925"><ele>861.9999999999999</ele><time>2026-05-03T08:13:04.999Z</time></trkpt><trkpt lat="42.290980911382505" lon="13.69331868253862"><ele>862.0</ele><time>2026-05-03T08:13:05.999Z</time></trkpt><trkpt lat="42.29103986451746" lon="13.693234219160166"><ele>862.0</ele><time>2026-05-03T08:13:06.999Z</time></trkpt><trkpt lat="42.291085134176626" lon="13.693157898550856"><ele>862.0</ele><time>2026-05-03T08:13:07.999Z</time></trkpt><trkpt lat="42.29114577929612" lon="13.693053949178077"><ele>861.9999999999999</ele><time>2026-05-03T08:13:09.999Z</time></trkpt><trkpt lat="42.29106904023651" lon="13.692987159601097"><ele>862.0</ele><time>2026-05-03T08:13:13.999Z</time></trkpt><trkpt lat="42.29099685869459" lon="13.692992488217916"><ele>862.0</ele><time>2026-05-03T08:13:14.999Z</time></trkpt><trkpt lat="42.29089723089864" lon="13.69302545753847"><ele>862.0</ele><time>2026-05-03T08:13:15.999Z</time></trkpt><trkpt lat="42.290811035195205" lon="13.69307665552728"><ele>862.0</ele><time>2026-05-03T08:13:16.999Z</time></trkpt><trkpt lat="42.29070509322033" lon="13.693131864443204"><ele>862.0</ele><time>2026-05-03T08:13:17.999Z</time></trkpt><trkpt lat="42.29058712399695" lon="13.693156698264792"><ele>862.0</ele><time>2026-05-03T08:13:18.999Z</time></trkpt><trkpt lat="42.29046382116024" lon="13.69317959032849"><ele>859.3333333333333</ele><time>2026-05-03T08:13:19.999Z</time></trkpt><trkpt lat="42.29035047447579" lon="13.6932395004886"><ele>856.6666666666667</ele><time>2026-05-03T08:13:20.999Z</time></trkpt><trkpt lat="42.29019615143595" lon="13.693347537937544"><ele>854.0</ele><time>2026-05-03T08:13:21.999Z</time></trkpt><trkpt lat="42.29005766933308" lon="13.693452709628504"><ele>854.0</ele><time>2026-05-03T08:13:22.999Z</time></trkpt><trkpt lat="42.28992659293615" lon="13.693558655527658"><ele>854.0</ele><time>2026-05-03T08:13:23.999Z</time></trkpt><trkpt lat="42.28980743589516" lon="13.69365608855736"><ele>854.0</ele><time>2026-05-03T08:13:24.999Z</time></trkpt><trkpt lat="42.28970092246574" lon="13.693742049305264"><ele>854.0</ele><time>2026-05-03T08:13:25.999Z</time></trkpt><trkpt lat="42.289621954446986" lon="13.693825224692807"><ele>850.25</ele><time>2026-05-03T08:13:26.999Z</time></trkpt><trkpt lat="42.28956829316965" lon="13.693926652579684"><ele>846.5</ele><time>2026-05-03T08:13:27.999Z</time></trkpt><trkpt lat="42.289515367819355" lon="13.694077115178391"><ele>842.75</ele><time>2026-05-03T08:13:28.999Z</time></trkpt><trkpt lat="42.28946322524722" lon="13.694268074274765"><ele>839.0</ele><time>2026-05-03T08:13:29.999Z</time></trkpt><trkpt lat="42.28938788664593" lon="13.694459611089648"><ele>837.3333333333334</ele><time>2026-05-03T08:13:30.999Z</time></trkpt><trkpt lat="42.2892815749064" lon="13.694698263775377"><ele>835.6666666666667</ele><time>2026-05-03T08:13:31.999Z</time></trkpt><trkpt lat="42.28918418671382" lon="13.694874703571099"><ele>834.0</ele><time>2026-05-03T08:13:32.999Z</time></trkpt><trkpt lat="42.289101721260344" lon="13.695045505406828"><ele>834.0</ele><time>2026-05-03T08:13:33.999Z</time></trkpt><trkpt lat="42.289012056214766" lon="13.695208866084856"><ele>834.0</ele><time>2026-05-03T08:13:34.999Z</time></trkpt><trkpt lat="42.28893573657036" lon="13.695359915276816"><ele>834.0</ele><time>2026-05-03T08:13:35.999Z</time></trkpt><trkpt lat="42.28886891969517" lon="13.695490446217992"><ele>834.0</ele><time>2026-05-03T08:13:36.999Z</time></trkpt><trkpt lat="42.28881524575534" lon="13.695677463824603"><ele>830.25</ele><time>2026-05-03T08:13:37.999Z</time></trkpt><trkpt lat="42.28873960727104" lon="13.695851966013711"><ele>826.5</ele><time>2026-05-03T08:13:38.999Z</time></trkpt><trkpt lat="42.28865672599223" lon="13.69598637150307"><ele>822.75</ele><time>2026-05-03T08:13:39.999Z</time></trkpt><trkpt lat="42.28855832974702" lon="13.696061006635505"><ele>819.0</ele><time>2026-05-03T08:13:40.999Z</time></trkpt><trkpt lat="42.288435871815445" lon="13.696084060250438"><ele>818.2</ele><time>2026-05-03T08:13:41.999Z</time></trkpt><trkpt lat="42.28832395066853" lon="13.696122774384898"><ele>817.4000000000001</ele><time>2026-05-03T08:13:42.999Z</time></trkpt><trkpt lat="42.288233292564634" lon="13.69617998022518"><ele>816.6</ele><time>2026-05-03T08:13:43.999Z</time></trkpt><trkpt lat="42.28815694487835" lon="13.696255157328244"><ele>815.8</ele><time>2026-05-03T08:13:44.999Z</time></trkpt><trkpt lat="42.2880623254069" lon="13.696366071551923"><ele>815.0</ele><time>2026-05-03T08:13:45.999Z</time></trkpt><trkpt lat="42.28796318610959" lon="13.696493859885127"><ele>812.6</ele><time>2026-05-03T08:13:46.998Z</time></trkpt><trkpt lat="42.287877657405296" lon="13.696595939252495"><ele>810.2</ele><time>2026-05-03T08:13:47.998Z</time></trkpt><trkpt lat="42.28781361936552" lon="13.696688314725424"><ele>807.8</ele><time>2026-05-03T08:13:48.998Z</time></trkpt><trkpt lat="42.287749394522876" lon="13.696765374381568"><ele>805.4</ele><time>2026-05-03T08:13:49.998Z</time></trkpt><trkpt lat="42.28765358246971" lon="13.696843886384942"><ele>803.0</ele><time>2026-05-03T08:13:50.998Z</time></trkpt><trkpt lat="42.287587489173696" lon="13.696944103384942"><ele>802.25</ele><time>2026-05-03T08:13:51.998Z</time></trkpt><trkpt lat="42.287567480192024" lon="13.697084488651072"><ele>801.5</ele><time>2026-05-03T08:13:52.998Z</time></trkpt><trkpt lat="42.287570132128295" lon="13.697279648605853"><ele>800.75</ele><time>2026-05-03T08:13:53.998Z</time></trkpt><trkpt lat="42.28754972672588" lon="13.697479161618377"><ele>800.0</ele><time>2026-05-03T08:13:54.998Z</time></trkpt><trkpt lat="42.287495125777056" lon="13.697625230070365"><ele>799.6666666666667</ele><time>2026-05-03T08:13:55.998Z</time></trkpt><trkpt lat="42.287417106250274" lon="13.697784890623199"><ele>799.3333333333333</ele><time>2026-05-03T08:13:56.998Z</time></trkpt><trkpt lat="42.287327425957585" lon="13.697997464815694"><ele>799.0</ele><time>2026-05-03T08:13:57.998Z</time></trkpt><trkpt lat="42.28726220860578" lon="13.698208188323195"><ele>798.2</ele><time>2026-05-03T08:13:58.998Z</time></trkpt><trkpt lat="42.28724171301452" lon="13.698402888139599"><ele>797.4000000000001</ele><time>2026-05-03T08:14:00Z</time></trkpt><trkpt lat="42.28722451214787" lon="13.698525501325024"><ele>796.6</ele><time>2026-05-03T08:14:01Z</time></trkpt><trkpt lat="42.28719792272417" lon="13.698603074943959"><ele>795.8</ele><time>2026-05-03T08:14:02Z</time></trkpt><trkpt lat="42.28713112857603" lon="13.698733898382946"><ele>795.0</ele><time>2026-05-03T08:14:07Z</time></trkpt><trkpt lat="42.28708868181659" lon="13.698885612467864"><ele>794.25</ele><time>2026-05-03T08:14:08Z</time></trkpt><trkpt lat="42.28703927476435" lon="13.699085352447142"><ele>793.5</ele><time>2026-05-03T08:14:09Z</time></trkpt><trkpt lat="42.28699113947511" lon="13.699243738670361"><ele>792.75</ele><time>2026-05-03T08:14:10Z</time></trkpt><trkpt lat="42.286959181707545" lon="13.699348749186502"><ele>792.0</ele><time>2026-05-03T08:14:11Z</time></trkpt><trkpt lat="42.286931001145106" lon="13.699476827851944"><ele>792.0</ele><time>2026-05-03T08:14:13Z</time></trkpt><trkpt lat="42.286861689039874" lon="13.699446990019693"><ele>792.0</ele><time>2026-05-03T08:14:17Z</time></trkpt><trkpt lat="42.2869283949885" lon="13.699261567126674"><ele>792.0</ele><time>2026-05-03T08:14:19Z</time></trkpt><trkpt lat="42.2870010696675" lon="13.69913606769997"><ele>792.0</ele><time>2026-05-03T08:14:20Z</time></trkpt><trkpt lat="42.28708058694322" lon="13.698980693797775"><ele>792.0</ele><time>2026-05-03T08:14:21Z</time></trkpt><trkpt lat="42.28712892549428" lon="13.69880886961921"><ele>792.0</ele><time>2026-05-03T08:14:22Z</time></trkpt><trkpt lat="42.28715962382342" lon="13.698650684349053"><ele>792.0</ele><time>2026-05-03T08:14:23Z</time></trkpt><trkpt lat="42.28719507931377" lon="13.698541699649352"><ele>792.0</ele><time>2026-05-03T08:14:24Z</time></trkpt><trkpt lat="42.28723386244933" lon="13.698471936916023"><ele>792.0</ele><time>2026-05-03T08:14:25Z</time></trkpt><trkpt lat="42.287300070315744" lon="13.698508628365994"><ele>792.0</ele><time>2026-05-03T08:14:27Z</time></trkpt><trkpt lat="42.287306169762346" lon="13.698593986703342"><ele>792.0</ele><time>2026-05-03T08:14:28Z</time></trkpt><trkpt lat="42.2873113899564" lon="13.698717161203499"><ele>792.0</ele><time>2026-05-03T08:14:29Z</time></trkpt><trkpt lat="42.28729877509509" lon="13.698874992819492"><ele>792.0</ele><time>2026-05-03T08:14:30Z</time></trkpt><trkpt lat="42.28726685426847" lon="13.699036916557693"><ele>792.0</ele><time>2026-05-03T08:14:31Z</time></trkpt><trkpt lat="42.287221576107434" lon="13.69922977287689"><ele>792.0</ele><time>2026-05-03T08:14:32Z</time></trkpt><trkpt lat="42.28719638071077" lon="13.699372481661692"><ele>792.0</ele><time>2026-05-03T08:14:33Z</time></trkpt><trkpt lat="42.2872098821856" lon="13.699460573301005"><ele>792.0</ele><time>2026-05-03T08:14:34Z</time></trkpt><trkpt lat="42.28725345834134" lon="13.699533765776636"><ele>792.0</ele><time>2026-05-03T08:14:35Z</time></trkpt><trkpt lat="42.2873223631887" lon="13.699617186771512"><ele>792.0</ele><time>2026-05-03T08:14:36Z</time></trkpt><trkpt lat="42.287412850863944" lon="13.699720121238494"><ele>792.1666666666666</ele><time>2026-05-03T08:14:37Z</time></trkpt><trkpt lat="42.28740301955311" lon="13.699805879533772"><ele>792.3333333333333</ele><time>2026-05-03T08:14:39Z</time></trkpt><trkpt lat="42.28737070346706" lon="13.69992896132553"><ele>792.5</ele><time>2026-05-03T08:14:41Z</time></trkpt><trkpt lat="42.287367693075346" lon="13.700063196735814"><ele>792.6666666666666</ele><time>2026-05-03T08:14:42Z</time></trkpt><trkpt lat="42.28735998527996" lon="13.700190659792408"><ele>792.8333333333333</ele><time>2026-05-03T08:14:43Z</time></trkpt><trkpt lat="42.28733456753783" lon="13.700293989268634"><ele>793.0</ele><time>2026-05-03T08:14:44Z</time></trkpt><trkpt lat="42.28729473902458" lon="13.700383470847411"><ele>790.25</ele><time>2026-05-03T08:14:45Z</time></trkpt><trkpt lat="42.287236167995445" lon="13.700485512654604"><ele>787.5</ele><time>2026-05-03T08:14:46Z</time></trkpt><trkpt lat="42.287172128251136" lon="13.700627202711523"><ele>784.75</ele><time>2026-05-03T08:14:47Z</time></trkpt><trkpt lat="42.28712349115354" lon="13.700809849912996"><ele>782.0</ele><time>2026-05-03T08:14:48Z</time></trkpt><trkpt lat="42.28710729505166" lon="13.700961374822583"><ele>782.25</ele><time>2026-05-03T08:14:49Z</time></trkpt><trkpt lat="42.287114264494434" lon="13.701109854044903"><ele>782.5</ele><time>2026-05-03T08:14:50Z</time></trkpt><trkpt lat="42.28712376446642" lon="13.701285624833014"><ele>782.75</ele><time>2026-05-03T08:14:51Z</time></trkpt><trkpt lat="42.28711742112613" lon="13.701506342753138"><ele>783.0</ele><time>2026-05-03T08:14:52Z</time></trkpt><trkpt lat="42.28708888822702" lon="13.701679735709297"><ele>783.0</ele><time>2026-05-03T08:14:53Z</time></trkpt><trkpt lat="42.28705220005405" lon="13.701821918628683"><ele>783.0</ele><time>2026-05-03T08:14:54Z</time></trkpt><trkpt lat="42.286990860082426" lon="13.701961198265492"><ele>783.0</ele><time>2026-05-03T08:14:55Z</time></trkpt><trkpt lat="42.28690835343241" lon="13.70212759898966"><ele>783.0</ele><time>2026-05-03T08:14:56Z</time></trkpt><trkpt lat="42.286806493184194" lon="13.702357009373774"><ele>782.6666666666667</ele><time>2026-05-03T08:14:57Z</time></trkpt><trkpt lat="42.28673424465166" lon="13.702569602738052"><ele>782.3333333333334</ele><time>2026-05-03T08:14:58Z</time></trkpt><trkpt lat="42.28666971614636" lon="13.702779445549824"><ele>782.0</ele><time>2026-05-03T08:14:59Z</time></trkpt><trkpt lat="42.286588805924836" lon="13.703000242439474"><ele>783.3333333333334</ele><time>2026-05-03T08:15:00Z</time></trkpt><trkpt lat="42.286501327362444" lon="13.703194741370734"><ele>784.6666666666667</ele><time>2026-05-03T08:15:00.999Z</time></trkpt><trkpt lat="42.286419044401335" lon="13.703400330648318"><ele>786.0</ele><time>2026-05-03T08:15:01.999Z</time></trkpt><trkpt lat="42.28635968964135" lon="13.70360211368263"><ele>784.0</ele><time>2026-05-03T08:15:02.999Z</time></trkpt><trkpt lat="42.286313813624446" lon="13.70377050131956"><ele>782.0</ele><time>2026-05-03T08:15:03.999Z</time></trkpt><trkpt lat="42.28627615703413" lon="13.703877238038894"><ele>780.0</ele><time>2026-05-03T08:15:04.999Z</time></trkpt><trkpt lat="42.28622772810946" lon="13.703945917022251"><ele>778.0</ele><time>2026-05-03T08:15:06.999Z</time></trkpt><trkpt lat="42.28613291409513" lon="13.703866178457469"><ele>776.0</ele><time>2026-05-03T08:15:08.999Z</time></trkpt><trkpt lat="42.28605732300661" lon="13.703838988119706"><ele>776.0</ele><time>2026-05-03T08:15:09.999Z</time></trkpt><trkpt lat="42.28596610126057" lon="13.703825059292736"><ele>776.0</ele><time>2026-05-03T08:15:10.999Z</time></trkpt><trkpt lat="42.28583360782857" lon="13.703804334657471"><ele>776.0</ele><time>2026-05-03T08:15:11.999Z</time></trkpt><trkpt lat="42.28569571487326" lon="13.703786040780297"><ele>776.0</ele><time>2026-05-03T08:15:12.999Z</time></trkpt><trkpt lat="42.28558750041819" lon="13.703786368304746"><ele>780.0</ele><time>2026-05-03T08:15:13.999Z</time></trkpt><trkpt lat="42.28551777355748" lon="13.703833924740618"><ele>784.0</ele><time>2026-05-03T08:15:14.999Z</time></trkpt><trkpt lat="42.2854669538466" lon="13.703912718488034"><ele>788.0</ele><time>2026-05-03T08:15:15.999Z</time></trkpt><trkpt lat="42.285397861550095" lon="13.704024443019355"><ele>792.0</ele><time>2026-05-03T08:15:16.999Z</time></trkpt><trkpt lat="42.28531278408095" lon="13.7041888151837"><ele>796.0</ele><time>2026-05-03T08:15:17.999Z</time></trkpt><trkpt lat="42.28521079928461" lon="13.704376456773607"><ele>794.5</ele><time>2026-05-03T08:15:18.999Z</time></trkpt><trkpt lat="42.285145925406326" lon="13.704542383647485"><ele>793.0</ele><time>2026-05-03T08:15:19.999Z</time></trkpt><trkpt lat="42.28510260365412" lon="13.7047056970471"><ele>791.5</ele><time>2026-05-03T08:15:20.999Z</time></trkpt><trkpt lat="42.285068651266045" lon="13.7048886113011"><ele>790.0</ele><time>2026-05-03T08:15:21.999Z</time></trkpt><trkpt lat="42.285012847928016" lon="13.705118841072961"><ele>788.3333333333333</ele><time>2026-05-03T08:15:22.999Z</time></trkpt><trkpt lat="42.28495612702653" lon="13.705355246501727"><ele>786.6666666666667</ele><time>2026-05-03T08:15:23.999Z</time></trkpt><trkpt lat="42.28489999635423" lon="13.705564544501964"><ele>785.0</ele><time>2026-05-03T08:15:24.999Z</time></trkpt><trkpt lat="42.284826275170374" lon="13.705791768554914"><ele>785.0</ele><time>2026-05-03T08:15:25.999Z</time></trkpt><trkpt lat="42.28476308275067" lon="13.706019684503998"><ele>785.0</ele><time>2026-05-03T08:15:26.999Z</time></trkpt><trkpt lat="42.28470371510064" lon="13.706204792451413"><ele>785.0</ele><time>2026-05-03T08:15:27.999Z</time></trkpt><trkpt lat="42.284643787574836" lon="13.70640188554055"><ele>790.0</ele><time>2026-05-03T08:15:28.999Z</time></trkpt><trkpt lat="42.28456236986022" lon="13.706586814931962"><ele>795.0</ele><time>2026-05-03T08:15:29.999Z</time></trkpt><trkpt lat="42.2844788637251" lon="13.70672607153678"><ele>800.0</ele><time>2026-05-03T08:15:30.999Z</time></trkpt><trkpt lat="42.28438050167901" lon="13.706864973334085"><ele>805.0</ele><time>2026-05-03T08:15:31.999Z</time></trkpt><trkpt lat="42.28425213701387" lon="13.707001091369666"><ele>805.0</ele><time>2026-05-03T08:15:32.999Z</time></trkpt><trkpt lat="42.2841074343453" lon="13.70715620185553"><ele>805.0</ele><time>2026-05-03T08:15:33.999Z</time></trkpt><trkpt lat="42.28396294648097" lon="13.707321558156291"><ele>805.0</ele><time>2026-05-03T08:15:34.999Z</time></trkpt><trkpt lat="42.2838262901329" lon="13.707523831835672"><ele>809.3333333333333</ele><time>2026-05-03T08:15:35.999Z</time></trkpt><trkpt lat="42.28371624301004" lon="13.707691145104949"><ele>813.6666666666667</ele><time>2026-05-03T08:15:36.999Z</time></trkpt><trkpt lat="42.283636305691125" lon="13.70787108261002"><ele>818.0</ele><time>2026-05-03T08:15:37.999Z</time></trkpt><trkpt lat="42.2835614957189" lon="13.708040908633183"><ele>818.0</ele><time>2026-05-03T08:15:38.999Z</time></trkpt><trkpt lat="42.28347235514943" lon="13.708197278977897"><ele>818.0</ele><time>2026-05-03T08:15:39.999Z</time></trkpt><trkpt lat="42.28337887407302" lon="13.70833553502712"><ele>818.0</ele><time>2026-05-03T08:15:40.999Z</time></trkpt><trkpt lat="42.283271216504886" lon="13.708460513328971"><ele>818.0</ele><time>2026-05-03T08:15:41.999Z</time></trkpt><trkpt lat="42.28315570286918" lon="13.708584303496085"><ele>818.5999999999999</ele><time>2026-05-03T08:15:42.999Z</time></trkpt><trkpt lat="42.283038895778475" lon="13.70871438840644"><ele>819.1999999999999</ele><time>2026-05-03T08:15:43.999Z</time></trkpt><trkpt lat="42.2829579414991" lon="13.708802883314313"><ele>819.8</ele><time>2026-05-03T08:15:44.999Z</time></trkpt><trkpt lat="42.282868174463566" lon="13.70885587042397"><ele>820.4</ele><time>2026-05-03T08:15:45.999Z</time></trkpt><trkpt lat="42.282791176302986" lon="13.708868279915604"><ele>821.0</ele><time>2026-05-03T08:15:46.999Z</time></trkpt><trkpt lat="42.28269426183621" lon="13.708897075858504"><ele>821.0</ele><time>2026-05-03T08:15:47.999Z</time></trkpt><trkpt lat="42.28258626810301" lon="13.708954890330194"><ele>821.0</ele><time>2026-05-03T08:15:48.999Z</time></trkpt><trkpt lat="42.282466031422835" lon="13.709044285669057"><ele>821.0</ele><time>2026-05-03T08:15:49.999Z</time></trkpt><trkpt lat="42.282340239207784" lon="13.70914508328533"><ele>821.0</ele><time>2026-05-03T08:15:50.999Z</time></trkpt><trkpt lat="42.28221091369912" lon="13.709233665801722"><ele>821.25</ele><time>2026-05-03T08:15:51.999Z</time></trkpt><trkpt lat="42.28208715276698" lon="13.709322558486098"><ele>821.5</ele><time>2026-05-03T08:15:52.999Z</time></trkpt><trkpt lat="42.28198018929708" lon="13.709392091227873"><ele>821.75</ele><time>2026-05-03T08:15:53.999Z</time></trkpt><trkpt lat="42.28188800212113" lon="13.709473212984369"><ele>822.0</ele><time>2026-05-03T08:15:54.999Z</time></trkpt><trkpt lat="42.28178230317349" lon="13.709543328778834"><ele>822.0</ele><time>2026-05-03T08:15:55.999Z</time></trkpt><trkpt lat="42.2816822468526" lon="13.709600409077288"><ele>822.0</ele><time>2026-05-03T08:15:56.999Z</time></trkpt><trkpt lat="42.28155915136032" lon="13.709650850385733"><ele>822.0</ele><time>2026-05-03T08:15:57.999Z</time></trkpt><trkpt lat="42.28144929788344" lon="13.709751324605115"><ele>822.0</ele><time>2026-05-03T08:15:58.999Z</time></trkpt><trkpt lat="42.2813505206766" lon="13.709847824358604"><ele>827.25</ele><time>2026-05-03T08:15:59.999Z</time></trkpt><trkpt lat="42.28122909152878" lon="13.709924843590853"><ele>832.5</ele><time>2026-05-03T08:16:00.999Z</time></trkpt><trkpt lat="42.281115387288324" lon="13.709962497446364"><ele>837.75</ele><time>2026-05-03T08:16:01.999Z</time></trkpt><trkpt lat="42.28099972547617" lon="13.709981372259534"><ele>843.0</ele><time>2026-05-03T08:16:02.999Z</time></trkpt><trkpt lat="42.280880105688865" lon="13.710019529259274"><ele>843.0</ele><time>2026-05-03T08:16:03.999Z</time></trkpt><trkpt lat="42.28077177351619" lon="13.710080149888498"><ele>843.0</ele><time>2026-05-03T08:16:04.999Z</time></trkpt><trkpt lat="42.28069678170999" lon="13.710120642809496"><ele>843.0</ele><time>2026-05-03T08:16:06.001Z</time></trkpt><trkpt lat="42.2806184628552" lon="13.710126513837587"><ele>843.0</ele><time>2026-05-03T08:16:07.001Z</time></trkpt><trkpt lat="42.280522764382255" lon="13.710129497932984"><ele>843.0</ele><time>2026-05-03T08:16:08Z</time></trkpt><trkpt lat="42.28042830710502" lon="13.710139310965427"><ele>845.2</ele><time>2026-05-03T08:16:09Z</time></trkpt><trkpt lat="42.28033351401407" lon="13.710143411243726"><ele>847.4</ele><time>2026-05-03T08:16:10Z</time></trkpt><trkpt lat="42.28024735988208" lon="13.710149081592732"><ele>849.6000000000001</ele><time>2026-05-03T08:16:11Z</time></trkpt><trkpt lat="42.28013997056043" lon="13.710156417506406"><ele>851.8000000000001</ele><time>2026-05-03T08:16:12Z</time></trkpt><trkpt lat="42.28002279494552" lon="13.71017573541491"><ele>854.0</ele><time>2026-05-03T08:16:13Z</time></trkpt><trkpt lat="42.27990480531232" lon="13.710215973978574"><ele>854.0</ele><time>2026-05-03T08:16:14Z</time></trkpt><trkpt lat="42.27981621264427" lon="13.710227359924074"><ele>854.0</ele><time>2026-05-03T08:16:15Z</time></trkpt><trkpt lat="42.27971072263687" lon="13.710213986816099"><ele>854.0</ele><time>2026-05-03T08:16:16Z</time></trkpt><trkpt lat="42.27958575234089" lon="13.710217883463578"><ele>854.0</ele><time>2026-05-03T08:16:17Z</time></trkpt><trkpt lat="42.27944477601522" lon="13.71020755106453"><ele>855.4000000000001</ele><time>2026-05-03T08:16:18Z</time></trkpt><trkpt lat="42.279287007428195" lon="13.710196353181962"><ele>856.8000000000001</ele><time>2026-05-03T08:16:19Z</time></trkpt><trkpt lat="42.27918079436114" lon="13.71018928566828"><ele>858.1999999999999</ele><time>2026-05-03T08:16:20Z</time></trkpt><trkpt lat="42.27911357087517" lon="13.710148884493558"><ele>859.5999999999999</ele><time>2026-05-03T08:16:21Z</time></trkpt><trkpt lat="42.2790289225085" lon="13.710087503072392"><ele>861.0</ele><time>2026-05-03T08:16:22Z</time></trkpt><trkpt lat="42.278914202506144" lon="13.710067050657903"><ele>864.25</ele><time>2026-05-03T08:16:23Z</time></trkpt><trkpt lat="42.27877282869881" lon="13.710084756737157"><ele>867.5</ele><time>2026-05-03T08:16:24Z</time></trkpt><trkpt lat="42.278611088927555" lon="13.710122662956849"><ele>870.75</ele><time>2026-05-03T08:16:25Z</time></trkpt><trkpt lat="42.27847808973199" lon="13.710153314872915"><ele>874.0</ele><time>2026-05-03T08:16:26Z</time></trkpt><trkpt lat="42.27834034230617" lon="13.710165467594662"><ele>874.0</ele><time>2026-05-03T08:16:27Z</time></trkpt><trkpt lat="42.27819725907667" lon="13.710200481176807"><ele>874.0</ele><time>2026-05-03T08:16:28Z</time></trkpt><trkpt lat="42.278060149034495" lon="13.710262490761322"><ele>874.0</ele><time>2026-05-03T08:16:29Z</time></trkpt><trkpt lat="42.277929154316745" lon="13.71031523494186"><ele>874.0</ele><time>2026-05-03T08:16:30Z</time></trkpt><trkpt lat="42.277804607163425" lon="13.710343920756195"><ele>875.2</ele><time>2026-05-03T08:16:31Z</time></trkpt><trkpt lat="42.27773062812977" lon="13.710332381642559"><ele>876.4000000000001</ele><time>2026-05-03T08:16:32Z</time></trkpt><trkpt lat="42.277589054591836" lon="13.710347704257515"><ele>877.6</ele><time>2026-05-03T08:16:34Z</time></trkpt><trkpt lat="42.27749283584564" lon="13.710366032335351"><ele>878.8</ele><time>2026-05-03T08:16:35Z</time></trkpt><trkpt lat="42.27738890812656" lon="13.710401903643662"><ele>880.0</ele><time>2026-05-03T08:16:36Z</time></trkpt><trkpt lat="42.277331063415566" lon="13.71046126724915"><ele>879.9999999999999</ele><time>2026-05-03T08:16:37Z</time></trkpt><trkpt lat="42.2772885517494" lon="13.710539282822321"><ele>880.0</ele><time>2026-05-03T08:16:38Z</time></trkpt><trkpt lat="42.27720003881485" lon="13.710616038301058"><ele>880.0</ele><time>2026-05-03T08:16:39Z</time></trkpt><trkpt lat="42.2770990171126" lon="13.710643286116252"><ele>880.0</ele><time>2026-05-03T08:16:40Z</time></trkpt><trkpt lat="42.27700224243207" lon="13.710648204836007"><ele>879.9999999999999</ele><time>2026-05-03T08:16:41Z</time></trkpt><trkpt lat="42.27693340343346" lon="13.71066476047465"><ele>880.0</ele><time>2026-05-03T08:16:42Z</time></trkpt><trkpt lat="42.2768476346805" lon="13.710706826552348"><ele>879.0</ele><time>2026-05-03T08:16:43Z</time></trkpt><trkpt lat="42.27674232848861" lon="13.710759854253599"><ele>878.0</ele><time>2026-05-03T08:16:44Z</time></trkpt><trkpt lat="42.276654636268326" lon="13.71078059704008"><ele>877.0</ele><time>2026-05-03T08:16:45Z</time></trkpt><trkpt lat="42.276570177547015" lon="13.710763838912172"><ele>876.0</ele><time>2026-05-03T08:16:46Z</time></trkpt><trkpt lat="42.27648399398921" lon="13.710720230801098"><ele>875.0</ele><time>2026-05-03T08:16:47Z</time></trkpt><trkpt lat="42.276392855206794" lon="13.71069485570755"><ele>873.6666666666667</ele><time>2026-05-03T08:16:48Z</time></trkpt><trkpt lat="42.276302066320895" lon="13.710688374790864"><ele>872.3333333333334</ele><time>2026-05-03T08:16:49Z</time></trkpt><trkpt lat="42.276228984256726" lon="13.710684518124793"><ele>871.0</ele><time>2026-05-03T08:16:50Z</time></trkpt><trkpt lat="42.27615280028879" lon="13.710706136374428"><ele>869.6666666666667</ele><time>2026-05-03T08:16:51Z</time></trkpt><trkpt lat="42.27608902994498" lon="13.71077760336907"><ele>868.3333333333334</ele><time>2026-05-03T08:16:52Z</time></trkpt><trkpt lat="42.27601628535403" lon="13.710869025705927"><ele>867.0</ele><time>2026-05-03T08:16:53Z</time></trkpt><trkpt lat="42.27591345336339" lon="13.710967053218344"><ele>867.0</ele><time>2026-05-03T08:16:54Z</time></trkpt><trkpt lat="42.275791476500004" lon="13.711022570349677"><ele>867.0</ele><time>2026-05-03T08:16:55Z</time></trkpt><trkpt lat="42.27566123903353" lon="13.711055048593089"><ele>867.0</ele><time>2026-05-03T08:16:56Z</time></trkpt><trkpt lat="42.275542110282025" lon="13.71109046199058"><ele>867.0</ele><time>2026-05-03T08:16:57Z</time></trkpt><trkpt lat="42.275447575974816" lon="13.71115034363277"><ele>868.5</ele><time>2026-05-03T08:16:58Z</time></trkpt><trkpt lat="42.275365230465255" lon="13.711225428237011"><ele>870.0</ele><time>2026-05-03T08:16:59Z</time></trkpt><trkpt lat="42.275259854032136" lon="13.711283561774577"><ele>871.5</ele><time>2026-05-03T08:17:00Z</time></trkpt><trkpt lat="42.27515242743383" lon="13.711355190093995"><ele>873.0</ele><time>2026-05-03T08:17:01Z</time></trkpt><trkpt lat="42.27505443875616" lon="13.711456573584096"><ele>873.0</ele><time>2026-05-03T08:17:02Z</time></trkpt><trkpt lat="42.27496378573793" lon="13.711578657024276"><ele>873.0</ele><time>2026-05-03T08:17:03Z</time></trkpt><trkpt lat="42.274872227922536" lon="13.711693831336513"><ele>873.0</ele><time>2026-05-03T08:17:04Z</time></trkpt><trkpt lat="42.27477590389538" lon="13.711809287347313"><ele>873.0</ele><time>2026-05-03T08:17:05Z</time></trkpt><trkpt lat="42.274685727424796" lon="13.711911270910814"><ele>873.2</ele><time>2026-05-03T08:17:06Z</time></trkpt><trkpt lat="42.2745957437244" lon="13.71199373701359"><ele>873.4</ele><time>2026-05-03T08:17:07Z</time></trkpt><trkpt lat="42.27450850718597" lon="13.712065953575284"><ele>873.6000000000001</ele><time>2026-05-03T08:17:08Z</time></trkpt><trkpt lat="42.27440948459929" lon="13.712153834414488"><ele>873.8000000000001</ele><time>2026-05-03T08:17:09Z</time></trkpt><trkpt lat="42.27431528664514" lon="13.71223098355446"><ele>874.0</ele><time>2026-05-03T08:17:10Z</time></trkpt><trkpt lat="42.27423976893138" lon="13.71225630095395"><ele>874.0</ele><time>2026-05-03T08:17:11Z</time></trkpt><trkpt lat="42.274167043593785" lon="13.712193405759045"><ele>874.0000000000001</ele><time>2026-05-03T08:17:14Z</time></trkpt><trkpt lat="42.27407804365585" lon="13.71226393781103"><ele>874.0000000000001</ele><time>2026-05-03T08:17:15.999Z</time></trkpt><trkpt lat="42.274021814836665" lon="13.712352748002031"><ele>874.0</ele><time>2026-05-03T08:17:16.999Z</time></trkpt><trkpt lat="42.27396648906202" lon="13.71247191528428"><ele>874.0</ele><time>2026-05-03T08:17:17.999Z</time></trkpt><trkpt lat="42.27391677873264" lon="13.71257041274347"><ele>876.1666666666666</ele><time>2026-05-03T08:17:18.999Z</time></trkpt><trkpt lat="42.27383509217571" lon="13.712491106986105"><ele>878.3333333333333</ele><time>2026-05-03T08:17:21.999Z</time></trkpt><trkpt lat="42.27384249785536" lon="13.712334972755427"><ele>880.5</ele><time>2026-05-03T08:17:23.999Z</time></trkpt><trkpt lat="42.27383705415295" lon="13.712217902640456"><ele>882.6666666666667</ele><time>2026-05-03T08:17:24.999Z</time></trkpt><trkpt lat="42.27382288406474" lon="13.712130541271511"><ele>884.8333333333334</ele><time>2026-05-03T08:17:25.999Z</time></trkpt><trkpt lat="42.2738055286577" lon="13.71204251200463"><ele>887.0</ele><time>2026-05-03T08:17:26.999Z</time></trkpt><trkpt lat="42.273780379478026" lon="13.711915557026467"><ele>885.25</ele><time>2026-05-03T08:17:27.999Z</time></trkpt><trkpt lat="42.27374196039901" lon="13.711790228234953"><ele>883.5</ele><time>2026-05-03T08:17:28.999Z</time></trkpt><trkpt lat="42.27368643207978" lon="13.711629575312719"><ele>881.75</ele><time>2026-05-03T08:17:29.999Z</time></trkpt><trkpt lat="42.27362482476302" lon="13.711451503026638"><ele>880.0</ele><time>2026-05-03T08:17:30.999Z</time></trkpt><trkpt lat="42.27356535102411" lon="13.71128230674746"><ele>880.0</ele><time>2026-05-03T08:17:31.999Z</time></trkpt><trkpt lat="42.27352155821555" lon="13.711164520041182"><ele>880.0</ele><time>2026-05-03T08:17:32.999Z</time></trkpt><trkpt lat="42.27347048084184" lon="13.711057585927307"><ele>880.0</ele><time>2026-05-03T08:17:33.999Z</time></trkpt><trkpt lat="42.273415822073446" lon="13.710948168361975"><ele>880.0</ele><time>2026-05-03T08:17:34.999Z</time></trkpt><trkpt lat="42.273346324731584" lon="13.710800614983482"><ele>880.0</ele><time>2026-05-03T08:17:35.999Z</time></trkpt><trkpt lat="42.27326971479012" lon="13.710633861970042"><ele>880.4999999999999</ele><time>2026-05-03T08:17:36.999Z</time></trkpt><trkpt lat="42.273212716189114" lon="13.710525710369518"><ele>881.0</ele><time>2026-05-03T08:17:37.999Z</time></trkpt><trkpt lat="42.273143257975576" lon="13.71043721910056"><ele>881.5</ele><time>2026-05-03T08:17:38.999Z</time></trkpt><trkpt lat="42.27308062118276" lon="13.71038590586812"><ele>882.0</ele><time>2026-05-03T08:17:39.999Z</time></trkpt><trkpt lat="42.27301672388753" lon="13.710366039750966"><ele>882.4999999999999</ele><time>2026-05-03T08:17:40.999Z</time></trkpt><trkpt lat="42.272940445405425" lon="13.710361454297757"><ele>883.0</ele><time>2026-05-03T08:17:41.999Z</time></trkpt><trkpt lat="42.27284129005257" lon="13.710368144991364"><ele>883.0</ele><time>2026-05-03T08:17:42.999Z</time></trkpt><trkpt lat="42.2727099874406" lon="13.710400390160334"><ele>883.0</ele><time>2026-05-03T08:17:43.999Z</time></trkpt><trkpt lat="42.27255069636994" lon="13.710432809231987"><ele>883.0</ele><time>2026-05-03T08:17:44.999Z</time></trkpt><trkpt lat="42.27243160819051" lon="13.710442692046714"><ele>883.0</ele><time>2026-05-03T08:17:45.999Z</time></trkpt><trkpt lat="42.27235071527658" lon="13.71038156805667"><ele>883.3333333333333</ele><time>2026-05-03T08:17:47.999Z</time></trkpt><trkpt lat="42.272355438733825" lon="13.710190434553233"><ele>883.6666666666666</ele><time>2026-05-03T08:17:49.999Z</time></trkpt><trkpt lat="42.272324318610835" lon="13.710116028566734"><ele>884.0</ele><time>2026-05-03T08:17:50.999Z</time></trkpt><trkpt lat="42.2722708490251" lon="13.71006733422049"><ele>884.3333333333333</ele><time>2026-05-03T08:17:51.999Z</time></trkpt><trkpt lat="42.272211569536864" lon="13.710037397361786"><ele>884.6666666666666</ele><time>2026-05-03T08:17:52.999Z</time></trkpt><trkpt lat="42.27213462257615" lon="13.710021669949347"><ele>885.0</ele><time>2026-05-03T08:17:53.999Z</time></trkpt><trkpt lat="42.272008287531115" lon="13.70992127553117"><ele>883.5</ele><time>2026-05-03T08:17:55.999Z</time></trkpt><trkpt lat="42.27194286785461" lon="13.709817716331612"><ele>882.0</ele><time>2026-05-03T08:17:56.999Z</time></trkpt><trkpt lat="42.27186004064442" lon="13.709683706837264"><ele>880.5</ele><time>2026-05-03T08:17:57.999Z</time></trkpt><trkpt lat="42.27179269528011" lon="13.709551673595668"><ele>879.0</ele><time>2026-05-03T08:17:58.999Z</time></trkpt><trkpt lat="42.27175343474705" lon="13.709425338088936"><ele>878.75</ele><time>2026-05-03T08:17:59.999Z</time></trkpt><trkpt lat="42.27172054862888" lon="13.709242133975426"><ele>878.5</ele><time>2026-05-03T08:18:00.999Z</time></trkpt><trkpt lat="42.27169832670956" lon="13.7090615135493"><ele>878.25</ele><time>2026-05-03T08:18:01.999Z</time></trkpt><trkpt lat="42.271665472285704" lon="13.708921091753774"><ele>878.0</ele><time>2026-05-03T08:18:02.999Z</time></trkpt><trkpt lat="42.27163380556835" lon="13.708786542063548"><ele>878.0</ele><time>2026-05-03T08:18:03.999Z</time></trkpt><trkpt lat="42.27161011831496" lon="13.708643706907695"><ele>878.0</ele><time>2026-05-03T08:18:04.999Z</time></trkpt><trkpt lat="42.27159530414392" lon="13.708508363001009"><ele>878.0</ele><time>2026-05-03T08:18:05.999Z</time></trkpt><trkpt lat="42.27159048471332" lon="13.708341816598121"><ele>878.0</ele><time>2026-05-03T08:18:06.999Z</time></trkpt><trkpt lat="42.27158836191689" lon="13.708137610826247"><ele>877.25</ele><time>2026-05-03T08:18:07.999Z</time></trkpt><trkpt lat="42.27158126437567" lon="13.707966957257415"><ele>876.5</ele><time>2026-05-03T08:18:08.999Z</time></trkpt><trkpt lat="42.27157001854426" lon="13.707802751219967"><ele>875.75</ele><time>2026-05-03T08:18:09.999Z</time></trkpt><trkpt lat="42.2715560821329" lon="13.707663533685741"><ele>875.0</ele><time>2026-05-03T08:18:10.999Z</time></trkpt><trkpt lat="42.27155014256335" lon="13.70751804678255"><ele>874.0</ele><time>2026-05-03T08:18:12.001Z</time></trkpt><trkpt lat="42.27156885806417" lon="13.7073779824286"><ele>873.0</ele><time>2026-05-03T08:18:13.001Z</time></trkpt><trkpt lat="42.27160591803128" lon="13.707242655295493"><ele>872.0</ele><time>2026-05-03T08:18:14.001Z</time></trkpt><trkpt lat="42.271632744466274" lon="13.707126404751767"><ele>871.0</ele><time>2026-05-03T08:18:15.001Z</time></trkpt><trkpt lat="42.271644002478034" lon="13.706955548384233"><ele>870.0</ele><time>2026-05-03T08:18:16.001Z</time></trkpt><trkpt lat="42.27166705964482" lon="13.706786053727578"><ele>868.2</ele><time>2026-05-03T08:18:17.001Z</time></trkpt><trkpt lat="42.27168422876472" lon="13.706643783256208"><ele>866.4</ele><time>2026-05-03T08:18:18.001Z</time></trkpt><trkpt lat="42.27170000516068" lon="13.706509427107907"><ele>864.5999999999999</ele><time>2026-05-03T08:18:19.001Z</time></trkpt><trkpt lat="42.27171443766244" lon="13.706364514594648"><ele>862.8</ele><time>2026-05-03T08:18:20.001Z</time></trkpt><trkpt lat="42.271717290364805" lon="13.706213820946695"><ele>861.0</ele><time>2026-05-03T08:18:21.001Z</time></trkpt><trkpt lat="42.2717161358069" lon="13.706076699938173"><ele>859.5999999999999</ele><time>2026-05-03T08:18:22.001Z</time></trkpt><trkpt lat="42.27171453467018" lon="13.705953818523067"><ele>858.1999999999999</ele><time>2026-05-03T08:18:23Z</time></trkpt><trkpt lat="42.27171580306408" lon="13.705829472648889"><ele>856.8000000000001</ele><time>2026-05-03T08:18:24Z</time></trkpt><trkpt lat="42.27170775982024" lon="13.705669544010354"><ele>855.4000000000001</ele><time>2026-05-03T08:18:25Z</time></trkpt><trkpt lat="42.271687868757155" lon="13.705504422000619"><ele>854.0</ele><time>2026-05-03T08:18:26Z</time></trkpt><trkpt lat="42.27165307151902" lon="13.705376407110636"><ele>853.0</ele><time>2026-05-03T08:18:27Z</time></trkpt><trkpt lat="42.271605325378545" lon="13.705236671649493"><ele>852.0000000000001</ele><time>2026-05-03T08:18:28Z</time></trkpt><trkpt lat="42.27155426183348" lon="13.705144695485552"><ele>851.0</ele><time>2026-05-03T08:18:29Z</time></trkpt><trkpt lat="42.27148945437778" lon="13.705115944124964"><ele>850.0</ele><time>2026-05-03T08:18:30Z</time></trkpt><trkpt lat="42.27138866238393" lon="13.705081062966041"><ele>849.0</ele><time>2026-05-03T08:18:31Z</time></trkpt><trkpt lat="42.271311529196645" lon="13.70501391164692"><ele>848.1666666666666</ele><time>2026-05-03T08:18:32Z</time></trkpt><trkpt lat="42.2712647822585" lon="13.70494078827234"><ele>847.3333333333333</ele><time>2026-05-03T08:18:33Z</time></trkpt><trkpt lat="42.27120526273817" lon="13.704896537882815"><ele>846.5</ele><time>2026-05-03T08:18:34Z</time></trkpt><trkpt lat="42.2711380283131" lon="13.704818714551289"><ele>845.6666666666666</ele><time>2026-05-03T08:18:35Z</time></trkpt><trkpt lat="42.2710936127177" lon="13.704736881432696"><ele>844.8333333333333</ele><time>2026-05-03T08:18:36Z</time></trkpt><trkpt lat="42.27101747903507" lon="13.704587021351088"><ele>844.0</ele><time>2026-05-03T08:18:38Z</time></trkpt><trkpt lat="42.27098837936952" lon="13.704502184155643"><ele>842.6</ele><time>2026-05-03T08:18:39Z</time></trkpt><trkpt lat="42.270942479692366" lon="13.704389876067205"><ele>841.2</ele><time>2026-05-03T08:18:40Z</time></trkpt><trkpt lat="42.270881203316556" lon="13.704243210701588"><ele>839.8000000000001</ele><time>2026-05-03T08:18:41Z</time></trkpt><trkpt lat="42.270838175497" lon="13.704131999181456"><ele>838.4000000000001</ele><time>2026-05-03T08:18:42Z</time></trkpt><trkpt lat="42.270785592639605" lon="13.704038696209256"><ele>837.0</ele><time>2026-05-03T08:18:43Z</time></trkpt><trkpt lat="42.27072244496995" lon="13.704009117852745"><ele>837.0</ele><time>2026-05-03T08:18:44Z</time></trkpt><trkpt lat="42.27065886217772" lon="13.70400638125753"><ele>837.0</ele><time>2026-05-03T08:18:45Z</time></trkpt><trkpt lat="42.27054450593163" lon="13.703976401017508"><ele>837.0</ele><time>2026-05-03T08:18:47Z</time></trkpt><trkpt lat="42.270450897434536" lon="13.703930989328267"><ele>837.0</ele><time>2026-05-03T08:18:49Z</time></trkpt><trkpt lat="42.270361792896956" lon="13.703937736041775"><ele>837.0</ele><time>2026-05-03T08:18:50Z</time></trkpt><trkpt lat="42.270245970287576" lon="13.703949772603503"><ele>836.6</ele><time>2026-05-03T08:18:51Z</time></trkpt><trkpt lat="42.270124781530676" lon="13.703954663898823"><ele>836.2</ele><time>2026-05-03T08:18:52Z</time></trkpt><trkpt lat="42.270049080466364" lon="13.703950043757194"><ele>835.8</ele><time>2026-05-03T08:18:53Z</time></trkpt><trkpt lat="42.26996269880114" lon="13.703850442310197"><ele>835.4</ele><time>2026-05-03T08:18:55Z</time></trkpt><trkpt lat="42.269932605656294" lon="13.703765542669462"><ele>835.0</ele><time>2026-05-03T08:18:56Z</time></trkpt><trkpt lat="42.26987672563053" lon="13.703700552884078"><ele>835.0</ele><time>2026-05-03T08:18:57Z</time></trkpt><trkpt lat="42.2698017493992" lon="13.70365910186461"><ele>835.0</ele><time>2026-05-03T08:18:58Z</time></trkpt><trkpt lat="42.269692309571624" lon="13.703609347670307"><ele>835.0</ele><time>2026-05-03T08:18:59Z</time></trkpt><trkpt lat="42.26956527991504" lon="13.703551364198777"><ele>835.0</ele><time>2026-05-03T08:19:00Z</time></trkpt><trkpt lat="42.26944387525222" lon="13.703506233213185"><ele>832.5</ele><time>2026-05-03T08:19:01Z</time></trkpt><trkpt lat="42.269329140908674" lon="13.703474652963916"><ele>830.0</ele><time>2026-05-03T08:19:02Z</time></trkpt><trkpt lat="42.26921815400404" lon="13.703435094538063"><ele>827.5</ele><time>2026-05-03T08:19:03Z</time></trkpt><trkpt lat="42.26912413099866" lon="13.703367194117668"><ele>825.0</ele><time>2026-05-03T08:19:04Z</time></trkpt><trkpt lat="42.26901433189808" lon="13.703260439947261"><ele>823.4</ele><time>2026-05-03T08:19:05Z</time></trkpt><trkpt lat="42.26890595721095" lon="13.703179321420363"><ele>821.8</ele><time>2026-05-03T08:19:06Z</time></trkpt><trkpt lat="42.268828958901814" lon="13.703149687323167"><ele>820.2</ele><time>2026-05-03T08:19:07Z</time></trkpt><trkpt lat="42.268749838394506" lon="13.703137050132622"><ele>818.6</ele><time>2026-05-03T08:19:08Z</time></trkpt><trkpt lat="42.268662228963024" lon="13.703140652718204"><ele>817.0</ele><time>2026-05-03T08:19:09Z</time></trkpt><trkpt lat="42.26858314141556" lon="13.703128464842345"><ele>816.9999999999999</ele><time>2026-05-03T08:19:11Z</time></trkpt><trkpt lat="42.26849997625955" lon="13.703142582016632"><ele>817.0</ele><time>2026-05-03T08:19:14Z</time></trkpt><trkpt lat="42.26842985399071" lon="13.703137806281068"><ele>817.0</ele><time>2026-05-03T08:19:16Z</time></trkpt><trkpt lat="42.268380281221546" lon="13.703274470837817"><ele>817.0</ele><time>2026-05-03T08:19:18.999Z</time></trkpt><trkpt lat="42.26836002278706" lon="13.703383265095905"><ele>816.9999999999999</ele><time>2026-05-03T08:19:19.999Z</time></trkpt><trkpt lat="42.26835149707489" lon="13.70348966869156"><ele>817.0</ele><time>2026-05-03T08:19:20.999Z</time></trkpt><trkpt lat="42.26834040152879" lon="13.703588232338749"><ele>817.4999999999999</ele><time>2026-05-03T08:19:21.999Z</time></trkpt><trkpt lat="42.268312797258076" lon="13.703676882357364"><ele>818.0</ele><time>2026-05-03T08:19:22.999Z</time></trkpt><trkpt lat="42.26828566449885" lon="13.70378940291627"><ele>818.5</ele><time>2026-05-03T08:19:23.999Z</time></trkpt><trkpt lat="42.26825551158829" lon="13.70388509154872"><ele>819.0</ele><time>2026-05-03T08:19:24.999Z</time></trkpt><trkpt lat="42.26821735108097" lon="13.70396469673048"><ele>819.4999999999999</ele><time>2026-05-03T08:19:25.999Z</time></trkpt><trkpt lat="42.268168486954046" lon="13.704053696634311"><ele>820.0</ele><time>2026-05-03T08:19:26.999Z</time></trkpt><trkpt lat="42.26812617685843" lon="13.704146379426811"><ele>819.4</ele><time>2026-05-03T08:19:27.999Z</time></trkpt><trkpt lat="42.268092725307525" lon="13.704285188790271"><ele>818.8</ele><time>2026-05-03T08:19:28.999Z</time></trkpt><trkpt lat="42.26805980929409" lon="13.704463680422464"><ele>818.2</ele><time>2026-05-03T08:19:29.999Z</time></trkpt><trkpt lat="42.268015651538754" lon="13.704619159059204"><ele>817.6</ele><time>2026-05-03T08:19:30.999Z</time></trkpt><trkpt lat="42.2679895913204" lon="13.704713709551918"><ele>817.0</ele><time>2026-05-03T08:19:31.999Z</time></trkpt><trkpt lat="42.267977746566075" lon="13.704798575994587"><ele>817.0</ele><time>2026-05-03T08:19:32.999Z</time></trkpt><trkpt lat="42.267963264823855" lon="13.704932629364373"><ele>817.0</ele><time>2026-05-03T08:19:34.999Z</time></trkpt><trkpt lat="42.267917549805794" lon="13.704828836405902"><ele>817.0</ele><time>2026-05-03T08:19:38.999Z</time></trkpt><trkpt lat="42.26792563533011" lon="13.704721337204663"><ele>817.0</ele><time>2026-05-03T08:19:39.999Z</time></trkpt><trkpt lat="42.26790834747405" lon="13.704586794880749"><ele>817.0</ele><time>2026-05-03T08:19:40.999Z</time></trkpt><trkpt lat="42.26788031030942" lon="13.704389184339009"><ele>816.9999999999999</ele><time>2026-05-03T08:19:41.999Z</time></trkpt><trkpt lat="42.267844462985856" lon="13.704234336968133"><ele>817.0</ele><time>2026-05-03T08:19:42.999Z</time></trkpt><trkpt lat="42.267813101940774" lon="13.70415063386436"><ele>817.0</ele><time>2026-05-03T08:19:43.999Z</time></trkpt><trkpt lat="42.26773595645612" lon="13.704127930155824"><ele>817.0</ele><time>2026-05-03T08:19:45.999Z</time></trkpt><trkpt lat="42.267663767662576" lon="13.704144390286547"><ele>816.9999999999999</ele><time>2026-05-03T08:19:46.999Z</time></trkpt><trkpt lat="42.26755693390086" lon="13.704137397657291"><ele>817.0</ele><time>2026-05-03T08:19:47.999Z</time></trkpt><trkpt lat="42.26750314895417" lon="13.704082632784887"><ele>817.0</ele><time>2026-05-03T08:19:48.999Z</time></trkpt><trkpt lat="42.267422370507624" lon="13.703983403735977"><ele>817.0</ele><time>2026-05-03T08:19:49.999Z</time></trkpt><trkpt lat="42.26733786018378" lon="13.703859329332879"><ele>817.0</ele><time>2026-05-03T08:19:50.999Z</time></trkpt><trkpt lat="42.26724531867595" lon="13.703755737670253"><ele>817.0</ele><time>2026-05-03T08:19:51.999Z</time></trkpt><trkpt lat="42.26714734012309" lon="13.703666740658578"><ele>815.75</ele><time>2026-05-03T08:19:52.999Z</time></trkpt><trkpt lat="42.2670328302122" lon="13.703545850268192"><ele>814.5</ele><time>2026-05-03T08:19:53.999Z</time></trkpt><trkpt lat="42.26693288001714" lon="13.703409160138579"><ele>813.25</ele><time>2026-05-03T08:19:54.999Z</time></trkpt><trkpt lat="42.266840304798095" lon="13.703282656052375"><ele>812.0</ele><time>2026-05-03T08:19:55.999Z</time></trkpt><trkpt lat="42.26676467189007" lon="13.703161409052878"><ele>812.0</ele><time>2026-05-03T08:19:56.999Z</time></trkpt><trkpt lat="42.26671730805305" lon="13.703054213888636"><ele>812.0</ele><time>2026-05-03T08:19:57.999Z</time></trkpt><trkpt lat="42.26667622128223" lon="13.702954997579113"><ele>812.0</ele><time>2026-05-03T08:19:58.999Z</time></trkpt><trkpt lat="42.26661039553406" lon="13.702883145874823"><ele>812.0</ele><time>2026-05-03T08:20:00.999Z</time></trkpt><trkpt lat="42.266487985659325" lon="13.702953355767814"><ele>812.0</ele><time>2026-05-03T08:20:02.999Z</time></trkpt><trkpt lat="42.266384340472435" lon="13.703040772073035"><ele>810.0</ele><time>2026-05-03T08:20:03.999Z</time></trkpt><trkpt lat="42.266246413120484" lon="13.70314114827445"><ele>808.0</ele><time>2026-05-03T08:20:04.999Z</time></trkpt><trkpt lat="42.266087146259075" lon="13.7032587991927"><ele>806.0</ele><time>2026-05-03T08:20:05.999Z</time></trkpt><trkpt lat="42.265937812442125" lon="13.703372379683202"><ele>806.0</ele><time>2026-05-03T08:20:06.999Z</time></trkpt><trkpt lat="42.26580849618105" lon="13.703442726827475"><ele>806.0</ele><time>2026-05-03T08:20:07.999Z</time></trkpt><trkpt lat="42.26566327325456" lon="13.703472727798461"><ele>806.0</ele><time>2026-05-03T08:20:08.999Z</time></trkpt><trkpt lat="42.26547830169685" lon="13.703476560657249"><ele>805.6666666666667</ele><time>2026-05-03T08:20:09.999Z</time></trkpt><trkpt lat="42.26527389897301" lon="13.703472178163752"><ele>805.3333333333333</ele><time>2026-05-03T08:20:10.999Z</time></trkpt><trkpt lat="42.26503327073705" lon="13.703482521074143"><ele>805.0</ele><time>2026-05-03T08:20:11.999Z</time></trkpt><trkpt lat="42.26485189314983" lon="13.703488047015417"><ele>805.6666666666666</ele><time>2026-05-03T08:20:12.999Z</time></trkpt><trkpt lat="42.26470018755468" lon="13.703467245478919"><ele>806.3333333333333</ele><time>2026-05-03T08:20:13.999Z</time></trkpt><trkpt lat="42.26452924067222" lon="13.703413165260494"><ele>807.0</ele><time>2026-05-03T08:20:14.999Z</time></trkpt><trkpt lat="42.26434399332043" lon="13.703323335789454"><ele>807.0</ele><time>2026-05-03T08:20:15.999Z</time></trkpt><trkpt lat="42.264202381555734" lon="13.703231419622565"><ele>807.0</ele><time>2026-05-03T08:20:16.999Z</time></trkpt><trkpt lat="42.26409619056419" lon="13.703139058790692"><ele>807.0</ele><time>2026-05-03T08:20:18Z</time></trkpt><trkpt lat="42.26399741146802" lon="13.70303292080736"><ele>807.0</ele><time>2026-05-03T08:20:19Z</time></trkpt><trkpt lat="42.26393183740509" lon="13.702922785765285"><ele>806.5</ele><time>2026-05-03T08:20:20Z</time></trkpt><trkpt lat="42.26389221810502" lon="13.702802923064993"><ele>806.0</ele><time>2026-05-03T08:20:21Z</time></trkpt><trkpt lat="42.26384529199664" lon="13.70263921202856"><ele>805.5</ele><time>2026-05-03T08:20:22Z</time></trkpt><trkpt lat="42.26379679817149" lon="13.702488505536682"><ele>805.0</ele><time>2026-05-03T08:20:23Z</time></trkpt><trkpt lat="42.263753697914304" lon="13.702345337914693"><ele>805.0</ele><time>2026-05-03T08:20:24Z</time></trkpt><trkpt lat="42.26369111490428" lon="13.702167865049619"><ele>805.0</ele><time>2026-05-03T08:20:25Z</time></trkpt><trkpt lat="42.263630132807315" lon="13.702025507653993"><ele>805.0</ele><time>2026-05-03T08:20:26Z</time></trkpt><trkpt lat="42.26355172377882" lon="13.701909989273544"><ele>805.0</ele><time>2026-05-03T08:20:27Z</time></trkpt><trkpt lat="42.26344996528891" lon="13.701767665661494"><ele>804.6666666666666</ele><time>2026-05-03T08:20:28Z</time></trkpt><trkpt lat="42.26336973814332" lon="13.701661126250116"><ele>804.3333333333333</ele><time>2026-05-03T08:20:29Z</time></trkpt><trkpt lat="42.263311491687396" lon="13.701608127424695"><ele>804.0</ele><time>2026-05-03T08:20:30Z</time></trkpt><trkpt lat="42.26323252386474" lon="13.70165867955322"><ele>803.6666666666667</ele><time>2026-05-03T08:20:32Z</time></trkpt><trkpt lat="42.26315337301781" lon="13.701703106537714"><ele>803.3333333333334</ele><time>2026-05-03T08:20:33Z</time></trkpt><trkpt lat="42.26306412835457" lon="13.701711102216967"><ele>803.0</ele><time>2026-05-03T08:20:34Z</time></trkpt><trkpt lat="42.2629615341234" lon="13.701704311190337"><ele>804.25</ele><time>2026-05-03T08:20:35Z</time></trkpt><trkpt lat="42.26286588118923" lon="13.701742387209064"><ele>805.5</ele><time>2026-05-03T08:20:36Z</time></trkpt><trkpt lat="42.26278251480645" lon="13.701809531003722"><ele>806.75</ele><time>2026-05-03T08:20:37Z</time></trkpt><trkpt lat="42.26268447333931" lon="13.701915588392165"><ele>808.0</ele><time>2026-05-03T08:20:38Z</time></trkpt><trkpt lat="42.26256692931859" lon="13.702030904458551"><ele>808.0</ele><time>2026-05-03T08:20:39Z</time></trkpt><trkpt lat="42.262419582304574" lon="13.702132057447464"><ele>808.0</ele><time>2026-05-03T08:20:40Z</time></trkpt><trkpt lat="42.26225930094625" lon="13.70223316274627"><ele>808.0</ele><time>2026-05-03T08:20:41Z</time></trkpt><trkpt lat="42.26212182159269" lon="13.702335951419943"><ele>810.0</ele><time>2026-05-03T08:20:42Z</time></trkpt><trkpt lat="42.261969313483235" lon="13.702465912170876"><ele>812.0</ele><time>2026-05-03T08:20:43Z</time></trkpt><trkpt lat="42.261830426144456" lon="13.702617393858981"><ele>814.0</ele><time>2026-05-03T08:20:44Z</time></trkpt><trkpt lat="42.26168146306425" lon="13.702785689967142"><ele>814.0</ele><time>2026-05-03T08:20:45Z</time></trkpt><trkpt lat="42.26153338021608" lon="13.702918569333873"><ele>814.0</ele><time>2026-05-03T08:20:46Z</time></trkpt><trkpt lat="42.26140292355665" lon="13.703025238807284"><ele>814.0</ele><time>2026-05-03T08:20:47Z</time></trkpt><trkpt lat="42.26126173914742" lon="13.703115045158773"><ele>819.3333333333333</ele><time>2026-05-03T08:20:48Z</time></trkpt><trkpt lat="42.26109556300815" lon="13.703221885278278"><ele>824.6666666666667</ele><time>2026-05-03T08:20:49Z</time></trkpt><trkpt lat="42.260909344528784" lon="13.703325625558199"><ele>830.0</ele><time>2026-05-03T08:20:50Z</time></trkpt><trkpt lat="42.26072936386247" lon="13.703413848071667"><ele>830.0</ele><time>2026-05-03T08:20:51Z</time></trkpt><trkpt lat="42.26057886010347" lon="13.703485597691756"><ele>830.0</ele><time>2026-05-03T08:20:52Z</time></trkpt><trkpt lat="42.260410122651926" lon="13.703525422225312"><ele>830.0</ele><time>2026-05-03T08:20:53Z</time></trkpt><trkpt lat="42.26025343924337" lon="13.703559641388525"><ele>830.0</ele><time>2026-05-03T08:20:54Z</time></trkpt><trkpt lat="42.26012281737421" lon="13.703553013847792"><ele>830.0</ele><time>2026-05-03T08:20:55Z</time></trkpt><trkpt lat="42.26002386615274" lon="13.703555415333632"><ele>830.0</ele><time>2026-05-03T08:20:56Z</time></trkpt><trkpt lat="42.25994164632755" lon="13.703518646252936"><ele>830.0</ele><time>2026-05-03T08:20:58Z</time></trkpt><trkpt lat="42.25990702272862" lon="13.703355212103826"><ele>830.0</ele><time>2026-05-03T08:21:00Z</time></trkpt><trkpt lat="42.259884900172786" lon="13.703197365814365"><ele>830.0</ele><time>2026-05-03T08:21:01Z</time></trkpt><trkpt lat="42.25986440248841" lon="13.70299161024854"><ele>830.0</ele><time>2026-05-03T08:21:02Z</time></trkpt><trkpt lat="42.259853516772765" lon="13.702764279369852"><ele>830.0</ele><time>2026-05-03T08:21:03Z</time></trkpt><trkpt lat="42.25984440850279" lon="13.702539890733526"><ele>831.4</ele><time>2026-05-03T08:21:04Z</time></trkpt><trkpt lat="42.25983521292297" lon="13.702362994200007"><ele>832.8</ele><time>2026-05-03T08:21:05Z</time></trkpt><trkpt lat="42.25984094933178" lon="13.702210129702937"><ele>834.2</ele><time>2026-05-03T08:21:06Z</time></trkpt><trkpt lat="42.25986730695126" lon="13.702082031111248"><ele>835.6</ele><time>2026-05-03T08:21:07Z</time></trkpt><trkpt lat="42.259895935974725" lon="13.701973409453421"><ele>837.0</ele><time>2026-05-03T08:21:08Z</time></trkpt><trkpt lat="42.25990652779081" lon="13.701831384481368"><ele>835.8</ele><time>2026-05-03T08:21:10Z</time></trkpt><trkpt lat="42.25990456064756" lon="13.701709612367612"><ele>834.6</ele><time>2026-05-03T08:21:12Z</time></trkpt><trkpt lat="42.25988143586024" lon="13.701589497684497"><ele>833.4</ele><time>2026-05-03T08:21:13.999Z</time></trkpt><trkpt lat="42.259823895542745" lon="13.701436144752327"><ele>832.1999999999999</ele><time>2026-05-03T08:21:15.999Z</time></trkpt><trkpt lat="42.25976894070977" lon="13.701393577606407"><ele>831.0</ele><time>2026-05-03T08:21:16.999Z</time></trkpt><trkpt lat="42.259696773834406" lon="13.70134605715172"><ele>831.0</ele><time>2026-05-03T08:21:17.999Z</time></trkpt><trkpt lat="42.25962576074258" lon="13.701309573845181"><ele>831.0</ele><time>2026-05-03T08:21:18.999Z</time></trkpt><trkpt lat="42.25956526343828" lon="13.701273829288196"><ele>831.0</ele><time>2026-05-03T08:21:19.999Z</time></trkpt><trkpt lat="42.259484339825725" lon="13.70121003389891"><ele>831.0</ele><time>2026-05-03T08:21:21.999Z</time></trkpt><trkpt lat="42.25937852831694" lon="13.701164850459412"><ele>831.0</ele><time>2026-05-03T08:21:23.999Z</time></trkpt><trkpt lat="42.259304713145106" lon="13.70113656523966"><ele>831.0</ele><time>2026-05-03T08:21:24.999Z</time></trkpt><trkpt lat="42.25923232745797" lon="13.701080576717088"><ele>836.0</ele><time>2026-05-03T08:21:25.999Z</time></trkpt><trkpt lat="42.259151140385384" lon="13.701014372714809"><ele>841.0</ele><time>2026-05-03T08:21:26.999Z</time></trkpt><trkpt lat="42.259042839872336" lon="13.70095617733998"><ele>846.0</ele><time>2026-05-03T08:21:27.999Z</time></trkpt><trkpt lat="42.258916365192974" lon="13.70090991733858"><ele>851.0</ele><time>2026-05-03T08:21:28.999Z</time></trkpt><trkpt lat="42.25878336098781" lon="13.700854633351268"><ele>851.0</ele><time>2026-05-03T08:21:29.999Z</time></trkpt><trkpt lat="42.258643767236094" lon="13.700791161696877"><ele>851.0</ele><time>2026-05-03T08:21:30.999Z</time></trkpt><trkpt lat="42.25850264244931" lon="13.70071661875365"><ele>851.0</ele><time>2026-05-03T08:21:31.999Z</time></trkpt><trkpt lat="42.25836578232643" lon="13.700660187362066"><ele>851.0</ele><time>2026-05-03T08:21:32.999Z</time></trkpt><trkpt lat="42.25823569787657" lon="13.700621769544277"><ele>851.0</ele><time>2026-05-03T08:21:33.999Z</time></trkpt><trkpt lat="42.258124786593214" lon="13.700593972982997"><ele>851.0</ele><time>2026-05-03T08:21:34.999Z</time></trkpt><trkpt lat="42.258020183375166" lon="13.700571338636836"><ele>851.0</ele><time>2026-05-03T08:21:35.999Z</time></trkpt><trkpt lat="42.25790762136788" lon="13.700564697017697"><ele>851.0</ele><time>2026-05-03T08:21:36.999Z</time></trkpt><trkpt lat="42.25777927621977" lon="13.700566072243609"><ele>853.0</ele><time>2026-05-03T08:21:37.999Z</time></trkpt><trkpt lat="42.25764691797651" lon="13.700589590740968"><ele>855.0</ele><time>2026-05-03T08:21:38.999Z</time></trkpt><trkpt lat="42.25751974226868" lon="13.700650423712965"><ele>857.0</ele><time>2026-05-03T08:21:39.999Z</time></trkpt><trkpt lat="42.257388907259646" lon="13.700744044449257"><ele>859.0</ele><time>2026-05-03T08:21:40.999Z</time></trkpt><trkpt lat="42.25725850675577" lon="13.70083046956327"><ele>860.8000000000001</ele><time>2026-05-03T08:21:41.999Z</time></trkpt><trkpt lat="42.25717027171269" lon="13.700875413323038"><ele>862.6000000000001</ele><time>2026-05-03T08:21:42.999Z</time></trkpt><trkpt lat="42.257109649271705" lon="13.700801005770568"><ele>864.4</ele><time>2026-05-03T08:21:44.999Z</time></trkpt><trkpt lat="42.257120523526254" lon="13.70068126982007"><ele>866.2</ele><time>2026-05-03T08:21:45.999Z</time></trkpt><trkpt lat="42.25712169620691" lon="13.700544046912212"><ele>868.0</ele><time>2026-05-03T08:21:46.999Z</time></trkpt><trkpt lat="42.25709649369303" lon="13.700390949717432"><ele>868.0</ele><time>2026-05-03T08:21:47.999Z</time></trkpt><trkpt lat="42.25705615151553" lon="13.700249264426807"><ele>868.0</ele><time>2026-05-03T08:21:48.999Z</time></trkpt><trkpt lat="42.257005408311294" lon="13.700151566011677"><ele>868.0</ele><time>2026-05-03T08:21:49.999Z</time></trkpt><trkpt lat="42.25689116967379" lon="13.70012902575205"><ele>868.0</ele><time>2026-05-03T08:21:51.999Z</time></trkpt><trkpt lat="42.256804878105996" lon="13.700191370280924"><ele>868.0</ele><time>2026-05-03T08:21:52.999Z</time></trkpt><trkpt lat="42.25666709503591" lon="13.700278607637221"><ele>868.0</ele><time>2026-05-03T08:21:53.999Z</time></trkpt><trkpt lat="42.25651736362001" lon="13.700349508085566"><ele>868.0</ele><time>2026-05-03T08:21:54.999Z</time></trkpt><trkpt lat="42.25634104757109" lon="13.700430318749035"><ele>868.0</ele><time>2026-05-03T08:21:55.999Z</time></trkpt><trkpt lat="42.256209341332195" lon="13.700506777646353"><ele>864.0</ele><time>2026-05-03T08:21:56.999Z</time></trkpt><trkpt lat="42.25610653411368" lon="13.700586640870112"><ele>860.0</ele><time>2026-05-03T08:21:57.999Z</time></trkpt><trkpt lat="42.256007546801094" lon="13.700665054193712"><ele>856.0</ele><time>2026-05-03T08:21:58.999Z</time></trkpt><trkpt lat="42.25591294719414" lon="13.700739893354738"><ele>852.0</ele><time>2026-05-03T08:21:59.999Z</time></trkpt><trkpt lat="42.25581809653183" lon="13.700813941897481"><ele>852.0</ele><time>2026-05-03T08:22:00.999Z</time></trkpt><trkpt lat="42.25573534290609" lon="13.700871654730788"><ele>852.0</ele><time>2026-05-03T08:22:01.999Z</time></trkpt><trkpt lat="42.255643369866775" lon="13.700937550842577"><ele>852.0</ele><time>2026-05-03T08:22:02.999Z</time></trkpt><trkpt lat="42.25555265838249" lon="13.70098431903389"><ele>852.0</ele><time>2026-05-03T08:22:03.999Z</time></trkpt><trkpt lat="42.2554642404509" lon="13.701053557621306"><ele>852.0</ele><time>2026-05-03T08:22:04.999Z</time></trkpt><trkpt lat="42.255360898826034" lon="13.701125561628452"><ele>851.5</ele><time>2026-05-03T08:22:05.999Z</time></trkpt><trkpt lat="42.25523644194723" lon="13.701196010259203"><ele>851.0</ele><time>2026-05-03T08:22:06.999Z</time></trkpt><trkpt lat="42.255095065855535" lon="13.701245095121344"><ele>850.5</ele><time>2026-05-03T08:22:07.999Z</time></trkpt><trkpt lat="42.254932142314296" lon="13.701278061613486"><ele>850.0</ele><time>2026-05-03T08:22:08.999Z</time></trkpt><trkpt lat="42.25475894444092" lon="13.701306465722052"><ele>850.0</ele><time>2026-05-03T08:22:09.999Z</time></trkpt><trkpt lat="42.2545983705713" lon="13.701329618194254"><ele>850.0</ele><time>2026-05-03T08:22:10.999Z</time></trkpt><trkpt lat="42.25444930585007" lon="13.701335482249776"><ele>850.0</ele><time>2026-05-03T08:22:11.999Z</time></trkpt><trkpt lat="42.25430693368246" lon="13.701332424951362"><ele>850.0</ele><time>2026-05-03T08:22:12.999Z</time></trkpt><trkpt lat="42.25416879943263" lon="13.701320873070799"><ele>850.0</ele><time>2026-05-03T08:22:13.999Z</time></trkpt><trkpt lat="42.254038614972615" lon="13.701318781475306"><ele>850.0</ele><time>2026-05-03T08:22:14.999Z</time></trkpt><trkpt lat="42.25392876596986" lon="13.70131397710289"><ele>850.0</ele><time>2026-05-03T08:22:15.999Z</time></trkpt><trkpt lat="42.25382663782381" lon="13.701303647483094"><ele>846.0</ele><time>2026-05-03T08:22:16.999Z</time></trkpt><trkpt lat="42.25373547687873" lon="13.70134140608731"><ele>842.0</ele><time>2026-05-03T08:22:17.999Z</time></trkpt><trkpt lat="42.25363510027896" lon="13.701421075735693"><ele>838.0</ele><time>2026-05-03T08:22:18.999Z</time></trkpt><trkpt lat="42.253525357683856" lon="13.701486705190275"><ele>834.0</ele><time>2026-05-03T08:22:19.999Z</time></trkpt><trkpt lat="42.253413593429286" lon="13.701530850876402"><ele>830.0</ele><time>2026-05-03T08:22:20.999Z</time></trkpt><trkpt lat="42.25331122762501" lon="13.70158855356552"><ele>830.0</ele><time>2026-05-03T08:22:21.999Z</time></trkpt><trkpt lat="42.25321138836772" lon="13.70169814117828"><ele>830.0</ele><time>2026-05-03T08:22:22.998Z</time></trkpt><trkpt lat="42.253103501752626" lon="13.701826537782416"><ele>830.0</ele><time>2026-05-03T08:22:24Z</time></trkpt><trkpt lat="42.25297452995757" lon="13.70194117948251"><ele>830.0</ele><time>2026-05-03T08:22:25Z</time></trkpt><trkpt lat="42.2528304555156" lon="13.702067213186673"><ele>827.6666666666667</ele><time>2026-05-03T08:22:26Z</time></trkpt><trkpt lat="42.252676301323554" lon="13.702209497641928"><ele>825.3333333333333</ele><time>2026-05-03T08:22:27Z</time></trkpt><trkpt lat="42.25253737930701" lon="13.702341785532543"><ele>823.0</ele><time>2026-05-03T08:22:28Z</time></trkpt><trkpt lat="42.25240609065283" lon="13.702466039651021"><ele>822.3333333333333</ele><time>2026-05-03T08:22:29Z</time></trkpt><trkpt lat="42.252277204570184" lon="13.702590002621495"><ele>821.6666666666667</ele><time>2026-05-03T08:22:30Z</time></trkpt><trkpt lat="42.252140335505416" lon="13.702721736686472"><ele>821.0</ele><time>2026-05-03T08:22:31Z</time></trkpt><trkpt lat="42.25200983500049" lon="13.702827565042329"><ele>821.0</ele><time>2026-05-03T08:22:32Z</time></trkpt><trkpt lat="42.25187424277332" lon="13.70291424104061"><ele>821.0</ele><time>2026-05-03T08:22:33Z</time></trkpt><trkpt lat="42.25174260239879" lon="13.702964088181195"><ele>821.0</ele><time>2026-05-03T08:22:34Z</time></trkpt><trkpt lat="42.251599165138565" lon="13.702990307461"><ele>821.0</ele><time>2026-05-03T08:22:35Z</time></trkpt><trkpt lat="42.251457880837464" lon="13.70301251845798"><ele>819.0</ele><time>2026-05-03T08:22:36Z</time></trkpt><trkpt lat="42.251327536942775" lon="13.703026497813763"><ele>817.0</ele><time>2026-05-03T08:22:37Z</time></trkpt><trkpt lat="42.2512057356673" lon="13.703023187192464"><ele>815.0</ele><time>2026-05-03T08:22:38Z</time></trkpt><trkpt lat="42.25109138580102" lon="13.703022524145872"><ele>813.0</ele><time>2026-05-03T08:22:39Z</time></trkpt><trkpt lat="42.25099631120909" lon="13.703053680643825"><ele>813.0</ele><time>2026-05-03T08:22:40Z</time></trkpt><trkpt lat="42.250902048393456" lon="13.703121475687428"><ele>813.0</ele><time>2026-05-03T08:22:41Z</time></trkpt><trkpt lat="42.25078088515844" lon="13.70322698438782"><ele>813.0</ele><time>2026-05-03T08:22:42Z</time></trkpt><trkpt lat="42.250645057242785" lon="13.703348638722844"><ele>813.0</ele><time>2026-05-03T08:22:43Z</time></trkpt><trkpt lat="42.2505028276971" lon="13.703467562084851"><ele>811.75</ele><time>2026-05-03T08:22:44Z</time></trkpt><trkpt lat="42.25038478326837" lon="13.703578518671703"><ele>810.5</ele><time>2026-05-03T08:22:45Z</time></trkpt><trkpt lat="42.25029062641414" lon="13.703696263426655"><ele>809.25</ele><time>2026-05-03T08:22:46Z</time></trkpt><trkpt lat="42.250196756734375" lon="13.70384807145718"><ele>808.0</ele><time>2026-05-03T08:22:47Z</time></trkpt><trkpt lat="42.25008593563154" lon="13.703995556828502"><ele>808.0</ele><time>2026-05-03T08:22:48Z</time></trkpt><trkpt lat="42.24997118580246" lon="13.704096528331245"><ele>808.0</ele><time>2026-05-03T08:22:49Z</time></trkpt><trkpt lat="42.24989467987962" lon="13.7041417876532"><ele>808.0</ele><time>2026-05-03T08:22:50Z</time></trkpt><trkpt lat="42.249823090167816" lon="13.704145202255052"><ele>808.0</ele><time>2026-05-03T08:22:53Z</time></trkpt><trkpt lat="42.2498979908846" lon="13.704159471883887"><ele>808.0</ele><time>2026-05-03T08:23:01Z</time></trkpt><trkpt lat="42.24998362554393" lon="13.704170476183068"><ele>808.0</ele><time>2026-05-03T08:23:03Z</time></trkpt><trkpt lat="42.25000268096707" lon="13.704279314658944"><ele>808.0</ele><time>2026-05-03T08:23:05Z</time></trkpt><trkpt lat="42.24992587350339" lon="13.70439352281718"><ele>808.0</ele><time>2026-05-03T08:23:06.999Z</time></trkpt><trkpt lat="42.24987501129834" lon="13.704541143922851"><ele>808.0</ele><time>2026-05-03T08:23:08.999Z</time></trkpt><trkpt lat="42.249855138038484" lon="13.704634224877012"><ele>808.0</ele><time>2026-05-03T08:23:09.999Z</time></trkpt><trkpt lat="42.2498262080691" lon="13.704751645842956"><ele>807.8</ele><time>2026-05-03T08:23:10.999Z</time></trkpt><trkpt lat="42.24979493639486" lon="13.704882069229763"><ele>807.5999999999999</ele><time>2026-05-03T08:23:11.999Z</time></trkpt><trkpt lat="42.24977317018149" lon="13.704973860383443"><ele>807.4000000000001</ele><time>2026-05-03T08:23:12.999Z</time></trkpt><trkpt lat="42.24974779059619" lon="13.705082258404627"><ele>807.2</ele><time>2026-05-03T08:23:13.999Z</time></trkpt><trkpt lat="42.24970417834602" lon="13.705201477997901"><ele>807.0</ele><time>2026-05-03T08:23:14.999Z</time></trkpt><trkpt lat="42.24963043211466" lon="13.705323999479514"><ele>811.0</ele><time>2026-05-03T08:23:15.999Z</time></trkpt><trkpt lat="42.24952746442673" lon="13.705435513806254"><ele>815.0</ele><time>2026-05-03T08:23:16.999Z</time></trkpt><trkpt lat="42.24940474259716" lon="13.705545461907597"><ele>819.0</ele><time>2026-05-03T08:23:17.999Z</time></trkpt><trkpt lat="42.249273561939596" lon="13.705658024241652"><ele>823.0</ele><time>2026-05-03T08:23:18.999Z</time></trkpt><trkpt lat="42.24914065779579" lon="13.705749779361375"><ele>823.0</ele><time>2026-05-03T08:23:19.999Z</time></trkpt><trkpt lat="42.24903668311226" lon="13.705813279339091"><ele>823.0</ele><time>2026-05-03T08:23:20.999Z</time></trkpt><trkpt lat="42.24892878782493" lon="13.70590680771328"><ele>823.0</ele><time>2026-05-03T08:23:21.999Z</time></trkpt><trkpt lat="42.24880526033659" lon="13.706027801782785"><ele>823.0</ele><time>2026-05-03T08:23:22.999Z</time></trkpt><trkpt lat="42.248676635876855" lon="13.70614954919841"><ele>824.8</ele><time>2026-05-03T08:23:23.999Z</time></trkpt><trkpt lat="42.24855450019894" lon="13.70627156160703"><ele>826.5999999999999</ele><time>2026-05-03T08:23:24.999Z</time></trkpt><trkpt lat="42.24847019407985" lon="13.706350571629489"><ele>828.4000000000001</ele><time>2026-05-03T08:23:25.999Z</time></trkpt><trkpt lat="42.2484153722617" lon="13.706401608584313"><ele>830.2</ele><time>2026-05-03T08:23:26.999Z</time></trkpt><trkpt lat="42.24833080261628" lon="13.706519745512166"><ele>832.0</ele><time>2026-05-03T08:23:28.999Z</time></trkpt><trkpt lat="42.24829560948648" lon="13.706600852160465"><ele>831.9999999999999</ele><time>2026-05-03T08:23:29.999Z</time></trkpt><trkpt lat="42.24827052923019" lon="13.706703620004951"><ele>832.0</ele><time>2026-05-03T08:23:30.999Z</time></trkpt><trkpt lat="42.248240582460284" lon="13.70683641060279"><ele>832.0</ele><time>2026-05-03T08:23:31.999Z</time></trkpt><trkpt lat="42.24822942501563" lon="13.706936738966904"><ele>832.0</ele><time>2026-05-03T08:23:32.999Z</time></trkpt><trkpt lat="42.248255750776124" lon="13.70703410980608"><ele>831.9999999999999</ele><time>2026-05-03T08:23:33.999Z</time></trkpt><trkpt lat="42.24828949705489" lon="13.707144818625844"><ele>832.0</ele><time>2026-05-03T08:23:34.999Z</time></trkpt><trkpt lat="42.24830480675058" lon="13.707257225206572"><ele>832.0</ele><time>2026-05-03T08:23:35.999Z</time></trkpt><trkpt lat="42.24829396180515" lon="13.707368167092552"><ele>832.0</ele><time>2026-05-03T08:23:36.999Z</time></trkpt><trkpt lat="42.248272746421364" lon="13.70749413649555"><ele>832.0</ele><time>2026-05-03T08:23:37.999Z</time></trkpt><trkpt lat="42.24824615175475" lon="13.707647240905953"><ele>832.0</ele><time>2026-05-03T08:23:38.999Z</time></trkpt><trkpt lat="42.24821400047313" lon="13.707761941354018"><ele>832.0</ele><time>2026-05-03T08:23:39.999Z</time></trkpt><trkpt lat="42.24816819258871" lon="13.707857996567828"><ele>829.2</ele><time>2026-05-03T08:23:40.999Z</time></trkpt><trkpt lat="42.24812165125705" lon="13.70796322842834"><ele>826.4000000000001</ele><time>2026-05-03T08:23:41.999Z</time></trkpt><trkpt lat="42.24807386042102" lon="13.7080815490336"><ele>823.5999999999999</ele><time>2026-05-03T08:23:42.999Z</time></trkpt><trkpt lat="42.24803587333421" lon="13.708182634603725"><ele>820.8</ele><time>2026-05-03T08:23:43.999Z</time></trkpt><trkpt lat="42.247980567204664" lon="13.708265642556988"><ele>818.0</ele><time>2026-05-03T08:23:44.999Z</time></trkpt><trkpt lat="42.24789490665672" lon="13.708332694112084"><ele>818.0</ele><time>2026-05-03T08:23:45.999Z</time></trkpt><trkpt lat="42.24779805948849" lon="13.708385443592709"><ele>818.0</ele><time>2026-05-03T08:23:46.999Z</time></trkpt><trkpt lat="42.247667271895914" lon="13.708476509241544"><ele>818.0</ele><time>2026-05-03T08:23:47.999Z</time></trkpt><trkpt lat="42.24755112980672" lon="13.708580819457074"><ele>818.0</ele><time>2026-05-03T08:23:48.999Z</time></trkpt><trkpt lat="42.24746581804104" lon="13.708662712768657"><ele>815.5999999999999</ele><time>2026-05-03T08:23:49.999Z</time></trkpt><trkpt lat="42.24739619858341" lon="13.708703423693805"><ele>813.1999999999999</ele><time>2026-05-03T08:23:50.999Z</time></trkpt><trkpt lat="42.24733858678339" lon="13.708741772388773"><ele>810.8</ele><time>2026-05-03T08:23:52.999Z</time></trkpt><trkpt lat="42.24730806884961" lon="13.708606065428741"><ele>808.4</ele><time>2026-05-03T08:23:56.999Z</time></trkpt><trkpt lat="42.24727707435749" lon="13.708480150729537"><ele>806.0</ele><time>2026-05-03T08:23:58.999Z</time></trkpt><trkpt lat="42.247206395785945" lon="13.708326302467405"><ele>806.0</ele><time>2026-05-03T08:24:00.999Z</time></trkpt><trkpt lat="42.24718745788246" lon="13.708226704202314"><ele>806.0</ele><time>2026-05-03T08:24:01.999Z</time></trkpt><trkpt lat="42.247181630429395" lon="13.708116086373616"><ele>806.0</ele><time>2026-05-03T08:24:02.999Z</time></trkpt><trkpt lat="42.24717640959531" lon="13.707957467690056"><ele>806.0</ele><time>2026-05-03T08:24:03.999Z</time></trkpt><trkpt lat="42.247166436861086" lon="13.707798998293152"><ele>806.0</ele><time>2026-05-03T08:24:04.999Z</time></trkpt><trkpt lat="42.24715356483182" lon="13.70763576163785"><ele>806.0</ele><time>2026-05-03T08:24:05.999Z</time></trkpt><trkpt lat="42.247150065032066" lon="13.707488259842124"><ele>806.0</ele><time>2026-05-03T08:24:06.999Z</time></trkpt><trkpt lat="42.2471558376716" lon="13.707375655071907"><ele>806.0</ele><time>2026-05-03T08:24:07.999Z</time></trkpt><trkpt lat="42.247144392466865" lon="13.70726781702647"><ele>806.0</ele><time>2026-05-03T08:24:08.999Z</time></trkpt><trkpt lat="42.247081385569004" lon="13.707148371658759"><ele>806.0</ele><time>2026-05-03T08:24:10.999Z</time></trkpt><trkpt lat="42.24696702386106" lon="13.70715523660178"><ele>806.0000000000001</ele><time>2026-05-03T08:24:12.999Z</time></trkpt><trkpt lat="42.24686801642002" lon="13.707167193927516"><ele>806.0</ele><time>2026-05-03T08:24:13.999Z</time></trkpt><trkpt lat="42.246785598293705" lon="13.70716875764638"><ele>806.0</ele><time>2026-05-03T08:24:14.999Z</time></trkpt><trkpt lat="42.24672210696703" lon="13.707165377880202"><ele>806.0</ele><time>2026-05-03T08:24:15.999Z</time></trkpt><trkpt lat="42.24668193689328" lon="13.70709298388684"><ele>806.0000000000001</ele><time>2026-05-03T08:24:18.998Z</time></trkpt><trkpt lat="42.24664082434394" lon="13.707179100745599"><ele>806.0</ele><time>2026-05-03T08:24:31Z</time></trkpt><trkpt lat="42.24654455159232" lon="13.707131330441106"><ele>803.4</ele><time>2026-05-03T08:24:33Z</time></trkpt><trkpt lat="42.2464608048207" lon="13.707133618174959"><ele>800.8</ele><time>2026-05-03T08:24:35Z</time></trkpt><trkpt lat="42.246354810746496" lon="13.707076636613094"><ele>798.1999999999999</ele><time>2026-05-03T08:24:37Z</time></trkpt><trkpt lat="42.24624184167086" lon="13.707046135583617"><ele>795.5999999999999</ele><time>2026-05-03T08:24:39Z</time></trkpt><trkpt lat="42.24617326651217" lon="13.707024967872721"><ele>793.0</ele><time>2026-05-03T08:24:41Z</time></trkpt><trkpt lat="42.24610564975225" lon="13.70702958621522"><ele>793.0</ele><time>2026-05-03T08:24:44Z</time></trkpt><trkpt lat="42.24611145425439" lon="13.707139388212314"><ele>793.0</ele><time>2026-05-03T08:24:46Z</time></trkpt><trkpt lat="42.24613228815144" lon="13.707271907984577"><ele>793.0</ele><time>2026-05-03T08:24:47Z</time></trkpt><trkpt lat="42.246130581056384" lon="13.70741330794034"><ele>793.0</ele><time>2026-05-03T08:24:48Z</time></trkpt><trkpt lat="42.24612299916586" lon="13.707552479340093"><ele>793.0</ele><time>2026-05-03T08:24:49Z</time></trkpt><trkpt lat="42.246085407013226" lon="13.707689297064363"><ele>792.25</ele><time>2026-05-03T08:24:50Z</time></trkpt><trkpt lat="42.24607791628286" lon="13.70783145424927"><ele>791.5</ele><time>2026-05-03T08:24:51Z</time></trkpt><trkpt lat="42.24606891998117" lon="13.707989040151556"><ele>790.75</ele><time>2026-05-03T08:24:52Z</time></trkpt><trkpt lat="42.24605969081343" lon="13.70814697099941"><ele>790.0</ele><time>2026-05-03T08:24:53Z</time></trkpt><trkpt lat="42.24604711843177" lon="13.708314824735119"><ele>790.0</ele><time>2026-05-03T08:24:54Z</time></trkpt><trkpt lat="42.24603069130333" lon="13.708501984018266"><ele>790.0</ele><time>2026-05-03T08:24:55Z</time></trkpt><trkpt lat="42.246028410976784" lon="13.708681556617263"><ele>790.0</ele><time>2026-05-03T08:24:56Z</time></trkpt><trkpt lat="42.24600615399514" lon="13.708848816997953"><ele>790.0</ele><time>2026-05-03T08:24:57Z</time></trkpt><trkpt lat="42.24599572423738" lon="13.709014528984408"><ele>789.0</ele><time>2026-05-03T08:24:58Z</time></trkpt><trkpt lat="42.24600094999423" lon="13.709182090352531"><ele>788.0</ele><time>2026-05-03T08:24:59Z</time></trkpt><trkpt lat="42.24601681666779" lon="13.70934196138523"><ele>787.0</ele><time>2026-05-03T08:25:00Z</time></trkpt><trkpt lat="42.246055299337094" lon="13.7094937362738"><ele>786.0</ele><time>2026-05-03T08:25:01Z</time></trkpt><trkpt lat="42.24611056685658" lon="13.709626998709908"><ele>785.75</ele><time>2026-05-03T08:25:02Z</time></trkpt><trkpt lat="42.24618918422247" lon="13.70975238041741"><ele>785.5</ele><time>2026-05-03T08:25:03Z</time></trkpt><trkpt lat="42.24628953857224" lon="13.709874568097547"><ele>785.25</ele><time>2026-05-03T08:25:04Z</time></trkpt><trkpt lat="42.246410201442465" lon="13.70998065670113"><ele>785.0</ele><time>2026-05-03T08:25:05Z</time></trkpt><trkpt lat="42.246531309038964" lon="13.710072798858572"><ele>785.75</ele><time>2026-05-03T08:25:06Z</time></trkpt><trkpt lat="42.246651800922024" lon="13.710137924851335"><ele>786.5</ele><time>2026-05-03T08:25:07Z</time></trkpt><trkpt lat="42.24677912019796" lon="13.71016149343394"><ele>787.25</ele><time>2026-05-03T08:25:08Z</time></trkpt><trkpt lat="42.24691906293372" lon="13.710142125487272"><ele>788.0</ele><time>2026-05-03T08:25:09Z</time></trkpt><trkpt lat="42.247090514824656" lon="13.71009029556958"><ele>788.0</ele><time>2026-05-03T08:25:10Z</time></trkpt><trkpt lat="42.24727170596996" lon="13.710006374089875"><ele>788.0</ele><time>2026-05-03T08:25:11Z</time></trkpt><trkpt lat="42.24747350471037" lon="13.709953609040657"><ele>788.0</ele><time>2026-05-03T08:25:12Z</time></trkpt><trkpt lat="42.24766750178507" lon="13.70990383223366"><ele>788.5</ele><time>2026-05-03T08:25:12.999Z</time></trkpt><trkpt lat="42.24783342675034" lon="13.70989525149456"><ele>789.0</ele><time>2026-05-03T08:25:13.999Z</time></trkpt><trkpt lat="42.2479715800947" lon="13.70991188156823"><ele>789.5</ele><time>2026-05-03T08:25:14.999Z</time></trkpt><trkpt lat="42.24806375713031" lon="13.71001941637687"><ele>790.0</ele><time>2026-05-03T08:25:15.999Z</time></trkpt><trkpt lat="42.248135263436495" lon="13.710130359088726"><ele>789.2</ele><time>2026-05-03T08:25:16.999Z</time></trkpt><trkpt lat="42.248183631893085" lon="13.710254159613491"><ele>788.4</ele><time>2026-05-03T08:25:17.999Z</time></trkpt><trkpt lat="42.2481563737869" lon="13.710403507423804"><ele>787.5999999999999</ele><time>2026-05-03T08:25:18.999Z</time></trkpt><trkpt lat="42.248125634913556" lon="13.710533026016158"><ele>786.8</ele><time>2026-05-03T08:25:19.999Z</time></trkpt><trkpt lat="42.248107308950495" lon="13.710646003875855"><ele>786.0</ele><time>2026-05-03T08:25:20.999Z</time></trkpt><trkpt lat="42.24806289523304" lon="13.710787166346226"><ele>779.6666666666666</ele><time>2026-05-03T08:25:21.999Z</time></trkpt><trkpt lat="42.24800250328273" lon="13.710975189583626"><ele>773.3333333333333</ele><time>2026-05-03T08:25:22.999Z</time></trkpt><trkpt lat="42.24793091951275" lon="13.711178907598994"><ele>767.0</ele><time>2026-05-03T08:25:23.999Z</time></trkpt><trkpt lat="42.24786868278568" lon="13.71136564340245"><ele>767.0</ele><time>2026-05-03T08:25:24.999Z</time></trkpt><trkpt lat="42.24781921681348" lon="13.711547895178496"><ele>767.0</ele><time>2026-05-03T08:25:25.999Z</time></trkpt><trkpt lat="42.24777304855469" lon="13.71172169199616"><ele>767.0</ele><time>2026-05-03T08:25:26.999Z</time></trkpt><trkpt lat="42.24773154921106" lon="13.711883578587013"><ele>767.0</ele><time>2026-05-03T08:25:27.999Z</time></trkpt><trkpt lat="42.247704645659866" lon="13.712032604320354"><ele>767.0</ele><time>2026-05-03T08:25:28.999Z</time></trkpt><trkpt lat="42.24765335891778" lon="13.712147700073636"><ele>767.0</ele><time>2026-05-03T08:25:29.999Z</time></trkpt><trkpt lat="42.24772707160784" lon="13.712334402969738"><ele>767.0</ele><time>2026-05-03T08:25:30.999Z</time></trkpt><trkpt lat="42.24769278656843" lon="13.71252822644633"><ele>767.0</ele><time>2026-05-03T08:25:31.999Z</time></trkpt><trkpt lat="42.24771307634577" lon="13.712738335030272"><ele>767.3333333333333</ele><time>2026-05-03T08:25:32.999Z</time></trkpt><trkpt lat="42.24769869163747" lon="13.712954464860449"><ele>767.6666666666666</ele><time>2026-05-03T08:25:33.999Z</time></trkpt><trkpt lat="42.24768394591817" lon="13.713202354191381"><ele>768.0</ele><time>2026-05-03T08:25:34.999Z</time></trkpt><trkpt lat="42.24765837243474" lon="13.713451903050318"><ele>767.5</ele><time>2026-05-03T08:25:35.999Z</time></trkpt><trkpt lat="42.247634418388955" lon="13.713657565706704"><ele>767.0</ele><time>2026-05-03T08:25:36.999Z</time></trkpt><trkpt lat="42.24762924496901" lon="13.713855398179097"><ele>766.5</ele><time>2026-05-03T08:25:37.999Z</time></trkpt><trkpt lat="42.24765049063713" lon="13.714052532991758"><ele>766.0</ele><time>2026-05-03T08:25:38.999Z</time></trkpt><trkpt lat="42.2476888146" lon="13.714274573645875"><ele>763.3333333333334</ele><time>2026-05-03T08:25:39.999Z</time></trkpt><trkpt lat="42.247747375299866" lon="13.714493862264847"><ele>760.6666666666666</ele><time>2026-05-03T08:25:40.999Z</time></trkpt><trkpt lat="42.2478171902368" lon="13.714715524416162"><ele>758.0</ele><time>2026-05-03T08:25:41.999Z</time></trkpt><trkpt lat="42.24790845379774" lon="13.714936005214861"><ele>758.0</ele><time>2026-05-03T08:25:42.999Z</time></trkpt><trkpt lat="42.24801168608534" lon="13.715154376062396"><ele>758.0</ele><time>2026-05-03T08:25:43.999Z</time></trkpt><trkpt lat="42.248108915417674" lon="13.715332903817579"><ele>758.0</ele><time>2026-05-03T08:25:44.999Z</time></trkpt><trkpt lat="42.24820386384855" lon="13.715477059154265"><ele>761.3333333333333</ele><time>2026-05-03T08:25:45.999Z</time></trkpt><trkpt lat="42.248304187441214" lon="13.715582901332859"><ele>764.6666666666666</ele><time>2026-05-03T08:25:46.999Z</time></trkpt><trkpt lat="42.24844328127011" lon="13.715706342272673"><ele>768.0</ele><time>2026-05-03T08:25:47.999Z</time></trkpt><trkpt lat="42.248590842275576" lon="13.715836120193462"><ele>768.0</ele><time>2026-05-03T08:25:48.999Z</time></trkpt><trkpt lat="42.24874887632093" lon="13.715982588951563"><ele>768.0</ele><time>2026-05-03T08:25:49.999Z</time></trkpt><trkpt lat="42.2489091310852" lon="13.716128206410039"><ele>768.0</ele><time>2026-05-03T08:25:50.999Z</time></trkpt><trkpt lat="42.2490616194141" lon="13.716247497376024"><ele>767.25</ele><time>2026-05-03T08:25:51.999Z</time></trkpt><trkpt lat="42.249200660689745" lon="13.716341389476822"><ele>766.5</ele><time>2026-05-03T08:25:52.999Z</time></trkpt><trkpt lat="42.24931094612939" lon="13.716420136467633"><ele>765.75</ele><time>2026-05-03T08:25:53.999Z</time></trkpt><trkpt lat="42.249380667562576" lon="13.716497852951713"><ele>765.0</ele><time>2026-05-03T08:25:54.999Z</time></trkpt><trkpt lat="42.24939633385522" lon="13.716609348746706"><ele>765.0</ele><time>2026-05-03T08:25:55.999Z</time></trkpt><trkpt lat="42.249356996709494" lon="13.716706407640881"><ele>765.0</ele><time>2026-05-03T08:25:56.999Z</time></trkpt><trkpt lat="42.24941761335924" lon="13.716898431555398"><ele>765.0</ele><time>2026-05-03T08:25:58.999Z</time></trkpt><trkpt lat="42.2494759623472" lon="13.717049465188342"><ele>765.0</ele><time>2026-05-03T08:25:59.999Z</time></trkpt><trkpt lat="42.24956666878503" lon="13.717207640817131"><ele>764.0</ele><time>2026-05-03T08:26:00.999Z</time></trkpt><trkpt lat="42.24968711112664" lon="13.717335981404393"><ele>763.0</ele><time>2026-05-03T08:26:01.999Z</time></trkpt><trkpt lat="42.24980789826395" lon="13.717452910359844"><ele>762.0</ele><time>2026-05-03T08:26:02.999Z</time></trkpt><trkpt lat="42.24989606500232" lon="13.717594254453875"><ele>761.0</ele><time>2026-05-03T08:26:03.999Z</time></trkpt><trkpt lat="42.24993035195775" lon="13.717793182475658"><ele>764.0</ele><time>2026-05-03T08:26:04.999Z</time></trkpt><trkpt lat="42.249991395565196" lon="13.717951763731008"><ele>767.0</ele><time>2026-05-03T08:26:05.999Z</time></trkpt><trkpt lat="42.25005693385862" lon="13.718087491647985"><ele>770.0</ele><time>2026-05-03T08:26:06.999Z</time></trkpt><trkpt lat="42.25015219981656" lon="13.718207123004596"><ele>773.0</ele><time>2026-05-03T08:26:07.999Z</time></trkpt><trkpt lat="42.250259130586045" lon="13.718355362284488"><ele>773.0</ele><time>2026-05-03T08:26:08.999Z</time></trkpt><trkpt lat="42.25036887186719" lon="13.718518758503622"><ele>773.0</ele><time>2026-05-03T08:26:09.999Z</time></trkpt><trkpt lat="42.25049114623737" lon="13.718646375209127"><ele>773.0</ele><time>2026-05-03T08:26:10.999Z</time></trkpt><trkpt lat="42.25061866382349" lon="13.718755610814188"><ele>773.0</ele><time>2026-05-03T08:26:11.999Z</time></trkpt><trkpt lat="42.250741309731275" lon="13.718821838327994"><ele>773.0</ele><time>2026-05-03T08:26:12.999Z</time></trkpt><trkpt lat="42.25087272092944" lon="13.718859659051997"><ele>773.0</ele><time>2026-05-03T08:26:13.999Z</time></trkpt><trkpt lat="42.25102508416234" lon="13.718917680732172"><ele>773.0</ele><time>2026-05-03T08:26:14.999Z</time></trkpt><trkpt lat="42.25116481400326" lon="13.719007923604982"><ele>773.0</ele><time>2026-05-03T08:26:15.999Z</time></trkpt><trkpt lat="42.25128036905635" lon="13.719113306053806"><ele>773.0</ele><time>2026-05-03T08:26:16.999Z</time></trkpt><trkpt lat="42.25137969424763" lon="13.71925497460001"><ele>773.0</ele><time>2026-05-03T08:26:17.999Z</time></trkpt><trkpt lat="42.25146751411367" lon="13.71941219137354"><ele>773.0</ele><time>2026-05-03T08:26:18.999Z</time></trkpt><trkpt lat="42.25155660599898" lon="13.719548801161979"><ele>775.3333333333334</ele><time>2026-05-03T08:26:19.999Z</time></trkpt><trkpt lat="42.251667637587545" lon="13.719659933421996"><ele>777.6666666666667</ele><time>2026-05-03T08:26:20.999Z</time></trkpt><trkpt lat="42.25181441653212" lon="13.719772603941193"><ele>780.0</ele><time>2026-05-03T08:26:21.999Z</time></trkpt><trkpt lat="42.25196735977222" lon="13.719890116657666"><ele>780.0</ele><time>2026-05-03T08:26:22.999Z</time></trkpt><trkpt lat="42.25209157152466" lon="13.72001072568513"><ele>780.0</ele><time>2026-05-03T08:26:23.999Z</time></trkpt><trkpt lat="42.252224936870384" lon="13.7201396993385"><ele>780.0</ele><time>2026-05-03T08:26:24.999Z</time></trkpt><trkpt lat="42.25236203363665" lon="13.720277644912958"><ele>779.0</ele><time>2026-05-03T08:26:25.999Z</time></trkpt><trkpt lat="42.252494084285836" lon="13.72041222429602"><ele>778.0</ele><time>2026-05-03T08:26:26.998Z</time></trkpt><trkpt lat="42.25262341227869" lon="13.720530212177648"><ele>777.0</ele><time>2026-05-03T08:26:27.998Z</time></trkpt><trkpt lat="42.25275726969171" lon="13.720617061642944"><ele>777.0</ele><time>2026-05-03T08:26:28.998Z</time></trkpt><trkpt lat="42.25291531354524" lon="13.72070649917456"><ele>777.0</ele><time>2026-05-03T08:26:29.998Z</time></trkpt><trkpt lat="42.25307316100383" lon="13.720783582342566"><ele>777.0</ele><time>2026-05-03T08:26:30.998Z</time></trkpt><trkpt lat="42.25323438413144" lon="13.720859572767651"><ele>777.6</ele><time>2026-05-03T08:26:31.998Z</time></trkpt><trkpt lat="42.25337693930129" lon="13.720925429166975"><ele>778.2</ele><time>2026-05-03T08:26:32.998Z</time></trkpt><trkpt lat="42.25349145859364" lon="13.720962577191791"><ele>778.8</ele><time>2026-05-03T08:26:33.998Z</time></trkpt><trkpt lat="42.25356972890876" lon="13.720997745552145"><ele>779.4</ele><time>2026-05-03T08:26:34.998Z</time></trkpt><trkpt lat="42.25361142270662" lon="13.721089992066315"><ele>780.0</ele><time>2026-05-03T08:26:36Z</time></trkpt><trkpt lat="42.25362521445654" lon="13.721212426790967"><ele>780.0</ele><time>2026-05-03T08:26:37Z</time></trkpt><trkpt lat="42.25367431448979" lon="13.72136813864304"><ele>780.0</ele><time>2026-05-03T08:26:38Z</time></trkpt><trkpt lat="42.25369333927957" lon="13.721510444499724"><ele>780.0</ele><time>2026-05-03T08:26:39Z</time></trkpt><trkpt lat="42.253687121551394" lon="13.721629216353644"><ele>780.0</ele><time>2026-05-03T08:26:40Z</time></trkpt><trkpt lat="42.25361392669234" lon="13.721697207939064"><ele>780.0</ele><time>2026-05-03T08:26:41Z</time></trkpt><trkpt lat="42.25352065081815" lon="13.721840511711985"><ele>781.25</ele><time>2026-05-03T08:26:42Z</time></trkpt><trkpt lat="42.25341085377002" lon="13.722071230141314"><ele>782.5</ele><time>2026-05-03T08:26:43Z</time></trkpt><trkpt lat="42.253342230019186" lon="13.722244139127994"><ele>783.75</ele><time>2026-05-03T08:26:44Z</time></trkpt><trkpt lat="42.253345554793185" lon="13.722365488786572"><ele>785.0</ele><time>2026-05-03T08:26:45Z</time></trkpt><trkpt lat="42.25336325107176" lon="13.722456621653002"><ele>785.0</ele><time>2026-05-03T08:26:46Z</time></trkpt><trkpt lat="42.25340702705322" lon="13.722572165190249"><ele>785.0</ele><time>2026-05-03T08:26:47Z</time></trkpt><trkpt lat="42.2534636221656" lon="13.722729493443058"><ele>785.0</ele><time>2026-05-03T08:26:48Z</time></trkpt><trkpt lat="42.253528484901366" lon="13.722891553332518"><ele>785.0</ele><time>2026-05-03T08:26:49Z</time></trkpt><trkpt lat="42.25359006573647" lon="13.723052732784971"><ele>786.25</ele><time>2026-05-03T08:26:50Z</time></trkpt><trkpt lat="42.253646520022095" lon="13.723167534116067"><ele>787.5</ele><time>2026-05-03T08:26:51Z</time></trkpt><trkpt lat="42.25369214666859" lon="13.723321742779213"><ele>788.75</ele><time>2026-05-03T08:26:52Z</time></trkpt><trkpt lat="42.253756030738224" lon="13.723496158473045"><ele>790.0</ele><time>2026-05-03T08:26:53Z</time></trkpt><trkpt lat="42.25382165073035" lon="13.723699109379664"><ele>790.6</ele><time>2026-05-03T08:26:54Z</time></trkpt><trkpt lat="42.25387021936898" lon="13.72386613003117"><ele>791.2</ele><time>2026-05-03T08:26:55Z</time></trkpt><trkpt lat="42.25392355283607" lon="13.7239872345897"><ele>791.8</ele><time>2026-05-03T08:26:56Z</time></trkpt><trkpt lat="42.25396386430905" lon="13.724095485607682"><ele>792.4</ele><time>2026-05-03T08:26:57Z</time></trkpt><trkpt lat="42.2540312473103" lon="13.724171226128762"><ele>793.0</ele><time>2026-05-03T08:26:58Z</time></trkpt><trkpt lat="42.25411642397449" lon="13.72422972326925"><ele>791.4999999999999</ele><time>2026-05-03T08:26:59Z</time></trkpt><trkpt lat="42.25419830140937" lon="13.724199081705104"><ele>790.0</ele><time>2026-05-03T08:27:00Z</time></trkpt><trkpt lat="42.254273614761466" lon="13.724183801921487"><ele>788.5</ele><time>2026-05-03T08:27:06Z</time></trkpt><trkpt lat="42.25435093105334" lon="13.724187086802523"><ele>787.0</ele><time>2026-05-03T08:27:07Z</time></trkpt><trkpt lat="42.254439614839" lon="13.724186203288015"><ele>785.4999999999999</ele><time>2026-05-03T08:27:08Z</time></trkpt><trkpt lat="42.254556233516126" lon="13.724175457572358"><ele>784.0</ele><time>2026-05-03T08:27:09Z</time></trkpt><trkpt lat="42.254671173287974" lon="13.724154751758961"><ele>784.3333333333333</ele><time>2026-05-03T08:27:10Z</time></trkpt><trkpt lat="42.25480591626699" lon="13.724140862119333"><ele>784.6666666666667</ele><time>2026-05-03T08:27:11Z</time></trkpt><trkpt lat="42.254944788416154" lon="13.724136805205712"><ele>785.0</ele><time>2026-05-03T08:27:12Z</time></trkpt><trkpt lat="42.255341813395546" lon="13.725173068826635"><ele>774.3333333333334</ele><time>2026-05-03T08:27:18Z</time></trkpt><trkpt lat="42.25538655185031" lon="13.725400037547255"><ele>763.6666666666667</ele><time>2026-05-03T08:27:19Z</time></trkpt><trkpt lat="42.25544814318689" lon="13.725602577561608"><ele>753.0</ele><time>2026-05-03T08:27:20Z</time></trkpt><trkpt lat="42.25551368293276" lon="13.725818246381367"><ele>753.0</ele><time>2026-05-03T08:27:21Z</time></trkpt><trkpt lat="42.25558074288011" lon="13.726016392869841"><ele>753.0</ele><time>2026-05-03T08:27:22Z</time></trkpt><trkpt lat="42.25564656615123" lon="13.726188807772754"><ele>753.0</ele><time>2026-05-03T08:27:22.999Z</time></trkpt><trkpt lat="42.25569763836531" lon="13.726343228140516"><ele>753.0</ele><time>2026-05-03T08:27:23.999Z</time></trkpt><trkpt lat="42.25573493595906" lon="13.726490844987493"><ele>752.8333333333334</ele><time>2026-05-03T08:27:24.999Z</time></trkpt><trkpt lat="42.255741809731255" lon="13.726607323996655"><ele>752.6666666666666</ele><time>2026-05-03T08:27:25.999Z</time></trkpt><trkpt lat="42.25567988063197" lon="13.726700482038428"><ele>752.5</ele><time>2026-05-03T08:27:27.999Z</time></trkpt><trkpt lat="42.25559932412205" lon="13.726756010954055"><ele>752.3333333333333</ele><time>2026-05-03T08:27:28.999Z</time></trkpt><trkpt lat="42.25553309299463" lon="13.726797857729268"><ele>752.1666666666666</ele><time>2026-05-03T08:27:29.999Z</time></trkpt><trkpt lat="42.25548191454187" lon="13.7268556282824"><ele>752.0</ele><time>2026-05-03T08:27:30.999Z</time></trkpt><trkpt lat="42.25546513610099" lon="13.727005107440677"><ele>751.5</ele><time>2026-05-03T08:27:32.999Z</time></trkpt><trkpt lat="42.25547269024072" lon="13.727121307380598"><ele>751.0</ele><time>2026-05-03T08:27:33.999Z</time></trkpt><trkpt lat="42.25547132724923" lon="13.727232266156989"><ele>750.5</ele><time>2026-05-03T08:27:34.999Z</time></trkpt><trkpt lat="42.2554525317472" lon="13.727347545090417"><ele>750.0</ele><time>2026-05-03T08:27:35.999Z</time></trkpt><trkpt lat="42.255436986456864" lon="13.727440667063764"><ele>749.5</ele><time>2026-05-03T08:27:36.999Z</time></trkpt><trkpt lat="42.25544342256712" lon="13.727538159078886"><ele>749.0</ele><time>2026-05-03T08:27:37.999Z</time></trkpt><trkpt lat="42.255516442325806" lon="13.727625578084668"><ele>749.0</ele><time>2026-05-03T08:27:39.999Z</time></trkpt><trkpt lat="42.2556057786343" lon="13.727573113086349"><ele>749.0</ele><time>2026-05-03T08:27:41.999Z</time></trkpt><trkpt lat="42.25567124537125" lon="13.72754426974449"><ele>749.0</ele><time>2026-05-03T08:27:42.999Z</time></trkpt><trkpt lat="42.25576077640739" lon="13.72752865144736"><ele>749.0</ele><time>2026-05-03T08:27:43.999Z</time></trkpt><trkpt lat="42.255847997939846" lon="13.727546727340329"><ele>749.0</ele><time>2026-05-03T08:27:44.999Z</time></trkpt><trkpt lat="42.25592281897521" lon="13.727598344294803"><ele>749.0</ele><time>2026-05-03T08:27:45.999Z</time></trkpt><trkpt lat="42.25600875667491" lon="13.727657245459485"><ele>750.0</ele><time>2026-05-03T08:27:46.999Z</time></trkpt><trkpt lat="42.25610075549896" lon="13.727722461495674"><ele>751.0</ele><time>2026-05-03T08:27:47.999Z</time></trkpt><trkpt lat="42.25619215838293" lon="13.72779481764541"><ele>752.0</ele><time>2026-05-03T08:27:48.999Z</time></trkpt><trkpt lat="42.25627453347348" lon="13.727874407585247"><ele>753.0</ele><time>2026-05-03T08:27:49.999Z</time></trkpt><trkpt lat="42.25637765396546" lon="13.727966359103673"><ele>754.0</ele><time>2026-05-03T08:27:50.999Z</time></trkpt><trkpt lat="42.25649049363285" lon="13.728061049687525"><ele>748.75</ele><time>2026-05-03T08:27:51.999Z</time></trkpt><trkpt lat="42.25659503950265" lon="13.728147620046867"><ele>743.5</ele><time>2026-05-03T08:27:52.999Z</time></trkpt><trkpt lat="42.25669479289061" lon="13.728233713262938"><ele>738.25</ele><time>2026-05-03T08:27:53.999Z</time></trkpt><trkpt lat="42.256786885584745" lon="13.728314032849175"><ele>733.0</ele><time>2026-05-03T08:27:54.999Z</time></trkpt><trkpt lat="42.25686428590781" lon="13.728406012169996"><ele>733.0</ele><time>2026-05-03T08:27:55.999Z</time></trkpt><trkpt lat="42.25693064965394" lon="13.72849907347785"><ele>733.0</ele><time>2026-05-03T08:27:56.999Z</time></trkpt><trkpt lat="42.25701006964627" lon="13.728603953124985"><ele>733.0</ele><time>2026-05-03T08:27:57.999Z</time></trkpt><trkpt lat="42.25707711463988" lon="13.728681952741143"><ele>733.0</ele><time>2026-05-03T08:27:58.999Z</time></trkpt><trkpt lat="42.25714196733931" lon="13.728741644291668"><ele>733.0</ele><time>2026-05-03T08:27:59.999Z</time></trkpt><trkpt lat="42.257189556623956" lon="13.728828537223826"><ele>730.6666666666667</ele><time>2026-05-03T08:28:00.999Z</time></trkpt><trkpt lat="42.2572419999924" lon="13.728943163019508"><ele>728.3333333333334</ele><time>2026-05-03T08:28:01.999Z</time></trkpt><trkpt lat="42.257275321236094" lon="13.729035546530755"><ele>726.0</ele><time>2026-05-03T08:28:02.999Z</time></trkpt><trkpt lat="42.25729881495923" lon="13.729136823303072"><ele>723.6666666666666</ele><time>2026-05-03T08:28:03.999Z</time></trkpt><trkpt lat="42.257330040092306" lon="13.729248866522502"><ele>721.3333333333333</ele><time>2026-05-03T08:28:04.999Z</time></trkpt><trkpt lat="42.25738058415763" lon="13.729359510508434"><ele>719.0</ele><time>2026-05-03T08:28:05.999Z</time></trkpt><trkpt lat="42.257428050120865" lon="13.729417096526452"><ele>712.2</ele><time>2026-05-03T08:28:06.999Z</time></trkpt><trkpt lat="42.2574889026529" lon="13.729461488083883"><ele>705.4000000000001</ele><time>2026-05-03T08:28:07.999Z</time></trkpt><trkpt lat="42.25756564219505" lon="13.72949442913661"><ele>698.6</ele><time>2026-05-03T08:28:08.999Z</time></trkpt><trkpt lat="42.25766961672494" lon="13.729525133724763"><ele>691.8</ele><time>2026-05-03T08:28:09.999Z</time></trkpt><trkpt lat="42.257777328871164" lon="13.729554579494563"><ele>685.0</ele><time>2026-05-03T08:28:10.999Z</time></trkpt><trkpt lat="42.2578990936076" lon="13.729577585099223"><ele>685.0</ele><time>2026-05-03T08:28:11.999Z</time></trkpt><trkpt lat="42.2580270997769" lon="13.729600963123351"><ele>685.0</ele><time>2026-05-03T08:28:12.999Z</time></trkpt><trkpt lat="42.25813370461827" lon="13.729632170845113"><ele>685.0</ele><time>2026-05-03T08:28:13.999Z</time></trkpt><trkpt lat="42.25824439815912" lon="13.729668266597795"><ele>685.0</ele><time>2026-05-03T08:28:14.999Z</time></trkpt><trkpt lat="42.25834249839999" lon="13.72972731201487"><ele>686.5</ele><time>2026-05-03T08:28:15.999Z</time></trkpt><trkpt lat="42.25844296773843" lon="13.729798020373417"><ele>688.0</ele><time>2026-05-03T08:28:16.999Z</time></trkpt><trkpt lat="42.25854931732904" lon="13.729882409472816"><ele>689.5</ele><time>2026-05-03T08:28:17.999Z</time></trkpt><trkpt lat="42.25866362505407" lon="13.729958950430408"><ele>691.0</ele><time>2026-05-03T08:28:18.999Z</time></trkpt><trkpt lat="42.258783774745105" lon="13.730022921684716"><ele>691.0</ele><time>2026-05-03T08:28:19.999Z</time></trkpt><trkpt lat="42.258917714406785" lon="13.730086981920532"><ele>691.0</ele><time>2026-05-03T08:28:20.999Z</time></trkpt><trkpt lat="42.25905432624164" lon="13.73014247554727"><ele>691.0</ele><time>2026-05-03T08:28:21.999Z</time></trkpt><trkpt lat="42.25919525696957" lon="13.73019971583224"><ele>691.0</ele><time>2026-05-03T08:28:22.999Z</time></trkpt><trkpt lat="42.25933454573907" lon="13.730252766303023"><ele>685.75</ele><time>2026-05-03T08:28:23.999Z</time></trkpt><trkpt lat="42.259471190016924" lon="13.730310897166607"><ele>680.5</ele><time>2026-05-03T08:28:24.999Z</time></trkpt><trkpt lat="42.259598987335515" lon="13.730373598377911"><ele>675.25</ele><time>2026-05-03T08:28:25.999Z</time></trkpt><trkpt lat="42.25971888783775" lon="13.730437460277509"><ele>670.0</ele><time>2026-05-03T08:28:26.999Z</time></trkpt><trkpt lat="42.25983786573875" lon="13.730486482528754"><ele>670.0</ele><time>2026-05-03T08:28:27.999Z</time></trkpt><trkpt lat="42.259942882905456" lon="13.730542799441729"><ele>670.0</ele><time>2026-05-03T08:28:28.999Z</time></trkpt><trkpt lat="42.260050158934426" lon="13.730594915313644"><ele>670.0</ele><time>2026-05-03T08:28:29.999Z</time></trkpt><trkpt lat="42.26014228807042" lon="13.730652778230823"><ele>670.0</ele><time>2026-05-03T08:28:30.999Z</time></trkpt><trkpt lat="42.26021701370693" lon="13.73070114446704"><ele>670.0</ele><time>2026-05-03T08:28:31.999Z</time></trkpt><trkpt lat="42.26030907400591" lon="13.730779499236332"><ele>670.0</ele><time>2026-05-03T08:28:32.999Z</time></trkpt><trkpt lat="42.26041273048563" lon="13.730862106381888"><ele>670.0</ele><time>2026-05-03T08:28:33.999Z</time></trkpt><trkpt lat="42.260516510762265" lon="13.73094665911168"><ele>670.0</ele><time>2026-05-03T08:28:34.999Z</time></trkpt><trkpt lat="42.26063169311632" lon="13.731046416621878"><ele>670.0</ele><time>2026-05-03T08:28:35.999Z</time></trkpt><trkpt lat="42.260742776757375" lon="13.731160490299578"><ele>666.4</ele><time>2026-05-03T08:28:36.999Z</time></trkpt><trkpt lat="42.260839005252265" lon="13.731261210968995"><ele>662.8</ele><time>2026-05-03T08:28:37.999Z</time></trkpt><trkpt lat="42.2608993166707" lon="13.731356142335104"><ele>659.2</ele><time>2026-05-03T08:28:38.999Z</time></trkpt><trkpt lat="42.260939260502425" lon="13.731456479945706"><ele>655.6</ele><time>2026-05-03T08:28:39.999Z</time></trkpt><trkpt lat="42.26096551340161" lon="13.731569867641726"><ele>652.0</ele><time>2026-05-03T08:28:40.999Z</time></trkpt><trkpt lat="42.26099270490424" lon="13.73168115693147"><ele>652.0</ele><time>2026-05-03T08:28:42Z</time></trkpt><trkpt lat="42.26103851353078" lon="13.731771985876467"><ele>652.0</ele><time>2026-05-03T08:28:43Z</time></trkpt><trkpt lat="42.26109976597657" lon="13.731850771926624"><ele>652.0</ele><time>2026-05-03T08:28:44Z</time></trkpt><trkpt lat="42.26116648898248" lon="13.731922397685484"><ele>652.0</ele><time>2026-05-03T08:28:45Z</time></trkpt><trkpt lat="42.261224721178465" lon="13.731980271021142"><ele>652.0</ele><time>2026-05-03T08:28:46Z</time></trkpt><trkpt lat="42.26134826643181" lon="13.731988774323275"><ele>652.0</ele><time>2026-05-03T08:28:48Z</time></trkpt><trkpt lat="42.261441751706855" lon="13.73200385811894"><ele>651.4000000000001</ele><time>2026-05-03T08:28:49Z</time></trkpt><trkpt lat="42.261523179578305" lon="13.7320504251987"><ele>650.8000000000001</ele><time>2026-05-03T08:28:50Z</time></trkpt><trkpt lat="42.26157562443775" lon="13.732142096168793"><ele>650.2</ele><time>2026-05-03T08:28:51Z</time></trkpt><trkpt lat="42.261603447746076" lon="13.732256854553484"><ele>649.6</ele><time>2026-05-03T08:28:52Z</time></trkpt><trkpt lat="42.26162150948756" lon="13.732392530336018"><ele>649.0</ele><time>2026-05-03T08:28:53Z</time></trkpt><trkpt lat="42.261600152152" lon="13.732515980119313"><ele>649.0</ele><time>2026-05-03T08:28:54Z</time></trkpt><trkpt lat="42.26158626813055" lon="13.732625979265618"><ele>649.0</ele><time>2026-05-03T08:28:55Z</time></trkpt><trkpt lat="42.26157920858552" lon="13.732735363802288"><ele>649.0</ele><time>2026-05-03T08:28:56Z</time></trkpt><trkpt lat="42.261584241643085" lon="13.73285912875796"><ele>649.0</ele><time>2026-05-03T08:28:57Z</time></trkpt><trkpt lat="42.26160469010433" lon="13.732998029239798"><ele>649.0</ele><time>2026-05-03T08:28:58Z</time></trkpt><trkpt lat="42.261626651547246" lon="13.733134199188031"><ele>646.0</ele><time>2026-05-03T08:28:59Z</time></trkpt><trkpt lat="42.26164483242138" lon="13.733244648187254"><ele>643.0</ele><time>2026-05-03T08:29:00Z</time></trkpt><trkpt lat="42.261657503333105" lon="13.733366601706402"><ele>640.0</ele><time>2026-05-03T08:29:01Z</time></trkpt><trkpt lat="42.26167667389531" lon="13.733497894013436"><ele>637.0</ele><time>2026-05-03T08:29:02Z</time></trkpt><trkpt lat="42.26170831793919" lon="13.733635577149977"><ele>634.0</ele><time>2026-05-03T08:29:03Z</time></trkpt><trkpt lat="42.26173960744856" lon="13.733749598868533"><ele>633.1666666666667</ele><time>2026-05-03T08:29:04Z</time></trkpt><trkpt lat="42.26176274742152" lon="13.733866894676789"><ele>632.3333333333334</ele><time>2026-05-03T08:29:05Z</time></trkpt><trkpt lat="42.26176981777245" lon="13.733980507679917"><ele>631.5</ele><time>2026-05-03T08:29:06Z</time></trkpt><trkpt lat="42.26175876584696" lon="13.734085296738035"><ele>630.6666666666666</ele><time>2026-05-03T08:29:07Z</time></trkpt><trkpt lat="42.26174845363933" lon="13.734195578162915"><ele>629.8333333333333</ele><time>2026-05-03T08:29:08Z</time></trkpt><trkpt lat="42.26172974297641" lon="13.734302159740722"><ele>629.0</ele><time>2026-05-03T08:29:09Z</time></trkpt><trkpt lat="42.26169298464041" lon="13.73442059181526"><ele>629.0</ele><time>2026-05-03T08:29:10Z</time></trkpt><trkpt lat="42.26165226417106" lon="13.734522237474538"><ele>629.0</ele><time>2026-05-03T08:29:11Z</time></trkpt><trkpt lat="42.261606828360655" lon="13.734646506394174"><ele>629.0</ele><time>2026-05-03T08:29:12Z</time></trkpt><trkpt lat="42.261549407380386" lon="13.734766452057778"><ele>629.0</ele><time>2026-05-03T08:29:13Z</time></trkpt><trkpt lat="42.26147504848191" lon="13.734875733390462"><ele>629.0</ele><time>2026-05-03T08:29:14Z</time></trkpt><trkpt lat="42.26139218242784" lon="13.734965799948412"><ele>625.3333333333333</ele><time>2026-05-03T08:29:15Z</time></trkpt><trkpt lat="42.26131239399732" lon="13.73505924390967"><ele>621.6666666666666</ele><time>2026-05-03T08:29:16Z</time></trkpt><trkpt lat="42.261251156633456" lon="13.735147361254961"><ele>618.0</ele><time>2026-05-03T08:29:17Z</time></trkpt><trkpt lat="42.26120381493315" lon="13.735227001203238"><ele>614.3333333333334</ele><time>2026-05-03T08:29:18Z</time></trkpt><trkpt lat="42.261165872728725" lon="13.73531926938266"><ele>610.6666666666667</ele><time>2026-05-03T08:29:19Z</time></trkpt><trkpt lat="42.26115258899008" lon="13.73540567317349"><ele>607.0</ele><time>2026-05-03T08:29:20Z</time></trkpt><trkpt lat="42.261132462465724" lon="13.735521116435828"><ele>606.5</ele><time>2026-05-03T08:29:21Z</time></trkpt><trkpt lat="42.26110910565617" lon="13.735613579532313"><ele>606.0</ele><time>2026-05-03T08:29:22Z</time></trkpt><trkpt lat="42.261077869915276" lon="13.735732277830454"><ele>605.5</ele><time>2026-05-03T08:29:23Z</time></trkpt><trkpt lat="42.26105665188489" lon="13.735855050959975"><ele>605.0</ele><time>2026-05-03T08:29:24Z</time></trkpt><trkpt lat="42.261040557766016" lon="13.735942039415306"><ele>604.5</ele><time>2026-05-03T08:29:25Z</time></trkpt><trkpt lat="42.261020624097455" lon="13.736074080042362"><ele>604.0</ele><time>2026-05-03T08:29:26Z</time></trkpt><trkpt lat="42.26100666139326" lon="13.736171790606043"><ele>602.6666666666667</ele><time>2026-05-03T08:29:27Z</time></trkpt><trkpt lat="42.26098110783562" lon="13.73627336775527"><ele>601.3333333333334</ele><time>2026-05-03T08:29:28Z</time></trkpt><trkpt lat="42.26095012272767" lon="13.736396113265823"><ele>600.0</ele><time>2026-05-03T08:29:30Z</time></trkpt><trkpt lat="42.26100086282595" lon="13.736455728432754"><ele>598.6666666666666</ele><time>2026-05-03T08:29:32Z</time></trkpt><trkpt lat="42.26108238446175" lon="13.736531457270605"><ele>597.3333333333333</ele><time>2026-05-03T08:29:34Z</time></trkpt><trkpt lat="42.26113448877492" lon="13.736582433103314"><ele>596.0</ele><time>2026-05-03T08:29:35Z</time></trkpt><trkpt lat="42.261236434822514" lon="13.736701995695029"><ele>596.0</ele><time>2026-05-03T08:29:37Z</time></trkpt><trkpt lat="42.26130622346197" lon="13.736781982222551"><ele>596.0</ele><time>2026-05-03T08:29:37.999Z</time></trkpt><trkpt lat="42.26138043748449" lon="13.736860356432967"><ele>596.0</ele><time>2026-05-03T08:29:38.999Z</time></trkpt><trkpt lat="42.26145110923859" lon="13.73691451828836"><ele>596.0</ele><time>2026-05-03T08:29:39.999Z</time></trkpt><trkpt lat="42.261528777702274" lon="13.73695756936412"><ele>596.0</ele><time>2026-05-03T08:29:40.999Z</time></trkpt><trkpt lat="42.26160761844187" lon="13.736981989610884"><ele>596.0</ele><time>2026-05-03T08:29:41.999Z</time></trkpt><trkpt lat="42.26168550709933" lon="13.736996680033096"><ele>593.0</ele><time>2026-05-03T08:29:42.999Z</time></trkpt><trkpt lat="42.261769040579914" lon="13.737019177061859"><ele>590.0</ele><time>2026-05-03T08:29:43.999Z</time></trkpt><trkpt lat="42.261861839668306" lon="13.737046660280237"><ele>587.0</ele><time>2026-05-03T08:29:44.999Z</time></trkpt><trkpt lat="42.26196216651041" lon="13.737092008223792"><ele>584.0</ele><time>2026-05-03T08:29:45.999Z</time></trkpt><trkpt lat="42.262042548660745" lon="13.737146475852924"><ele>581.0</ele><time>2026-05-03T08:29:46.999Z</time></trkpt><trkpt lat="42.26211771977341" lon="13.737208159461165"><ele>581.0</ele><time>2026-05-03T08:29:47.999Z</time></trkpt><trkpt lat="42.262182298578196" lon="13.737263937261991"><ele>581.0</ele><time>2026-05-03T08:29:48.999Z</time></trkpt><trkpt lat="42.262304075620015" lon="13.737353973087094"><ele>581.0</ele><time>2026-05-03T08:29:50.999Z</time></trkpt><trkpt lat="42.26237380511267" lon="13.737408839522011"><ele>581.0</ele><time>2026-05-03T08:29:51.999Z</time></trkpt><trkpt lat="42.26245285794042" lon="13.7374679083189"><ele>581.0</ele><time>2026-05-03T08:29:52.999Z</time></trkpt><trkpt lat="42.262530331865385" lon="13.73751477901526"><ele>582.0</ele><time>2026-05-03T08:29:53.999Z</time></trkpt><trkpt lat="42.26260086197599" lon="13.737548689466097"><ele>583.0</ele><time>2026-05-03T08:29:54.999Z</time></trkpt><trkpt lat="42.26268222636149" lon="13.7375612505456"><ele>584.0</ele><time>2026-05-03T08:29:55.999Z</time></trkpt><trkpt lat="42.26279150538099" lon="13.737576284821259"><ele>585.0</ele><time>2026-05-03T08:29:56.999Z</time></trkpt><trkpt lat="42.26291068577875" lon="13.737598124655083"><ele>586.0</ele><time>2026-05-03T08:29:57.999Z</time></trkpt><trkpt lat="42.26304566046224" lon="13.737635285061591"><ele>586.75</ele><time>2026-05-03T08:29:58.999Z</time></trkpt><trkpt lat="42.263182067047595" lon="13.73767127646536"><ele>587.5</ele><time>2026-05-03T08:29:59.999Z</time></trkpt><trkpt lat="42.26330086316412" lon="13.737704032362437"><ele>588.25</ele><time>2026-05-03T08:30:00.999Z</time></trkpt><trkpt lat="42.26339002913445" lon="13.737728723228063"><ele>589.0</ele><time>2026-05-03T08:30:01.999Z</time></trkpt><trkpt lat="42.263503890381685" lon="13.737765116192147"><ele>589.0</ele><time>2026-05-03T08:30:03.999Z</time></trkpt><trkpt lat="42.26356639398316" lon="13.73771942802502"><ele>589.0</ele><time>2026-05-03T08:30:15.999Z</time></trkpt><trkpt lat="42.263646498823775" lon="13.73765906206604"><ele>589.0</ele><time>2026-05-03T08:30:17.999Z</time></trkpt><trkpt lat="42.26377820974607" lon="13.737625342805533"><ele>589.0</ele><time>2026-05-03T08:30:19.999Z</time></trkpt><trkpt lat="42.26386388342168" lon="13.737589313210375"><ele>589.0</ele><time>2026-05-03T08:30:20.999Z</time></trkpt><trkpt lat="42.26396425683579" lon="13.737544694141741"><ele>588.5</ele><time>2026-05-03T08:30:21.999Z</time></trkpt><trkpt lat="42.2640676345653" lon="13.73750821359223"><ele>588.0</ele><time>2026-05-03T08:30:22.999Z</time></trkpt><trkpt lat="42.26415400243735" lon="13.737488087163328"><ele>587.5</ele><time>2026-05-03T08:30:23.999Z</time></trkpt><trkpt lat="42.26423386557705" lon="13.737503188650493"><ele>587.0</ele><time>2026-05-03T08:30:24.999Z</time></trkpt><trkpt lat="42.264319446772994" lon="13.737514146959132"><ele>586.5</ele><time>2026-05-03T08:30:25.999Z</time></trkpt><trkpt lat="42.26439965141241" lon="13.737510002992414"><ele>586.0</ele><time>2026-05-03T08:30:26.999Z</time></trkpt><trkpt lat="42.26448209035433" lon="13.737499672969689"><ele>586.0</ele><time>2026-05-03T08:30:27.999Z</time></trkpt><trkpt lat="42.264563606057656" lon="13.737475960997921"><ele>586.0</ele><time>2026-05-03T08:30:28.999Z</time></trkpt><trkpt lat="42.26464415702119" lon="13.73743338716013"><ele>586.0</ele><time>2026-05-03T08:30:29.999Z</time></trkpt><trkpt lat="42.264714868855336" lon="13.737382061421922"><ele>586.0</ele><time>2026-05-03T08:30:30.999Z</time></trkpt><trkpt lat="42.264782624176775" lon="13.737348941172224"><ele>586.0</ele><time>2026-05-03T08:30:31.999Z</time></trkpt><trkpt lat="42.26486287498241" lon="13.737349305769605"><ele>586.0</ele><time>2026-05-03T08:30:32.999Z</time></trkpt><trkpt lat="42.264958700188686" lon="13.73735302139238"><ele>585.2</ele><time>2026-05-03T08:30:33.999Z</time></trkpt><trkpt lat="42.26504231327862" lon="13.737385955719986"><ele>584.4000000000001</ele><time>2026-05-03T08:30:34.999Z</time></trkpt><trkpt lat="42.26511525716486" lon="13.73744312303132"><ele>583.6</ele><time>2026-05-03T08:30:35.999Z</time></trkpt><trkpt lat="42.26518613318382" lon="13.737475131270296"><ele>582.8000000000001</ele><time>2026-05-03T08:30:36.999Z</time></trkpt><trkpt lat="42.265314404089274" lon="13.737408987633295"><ele>582.0</ele><time>2026-05-03T08:30:38.999Z</time></trkpt><trkpt lat="42.265388559085345" lon="13.737371379914817"><ele>582.0</ele><time>2026-05-03T08:30:39.999Z</time></trkpt><trkpt lat="42.2654732470018" lon="13.737350234742674"><ele>582.0</ele><time>2026-05-03T08:30:40.999Z</time></trkpt><trkpt lat="42.26556575373212" lon="13.737341380660412"><ele>582.0</ele><time>2026-05-03T08:30:41.999Z</time></trkpt><trkpt lat="42.265660627394205" lon="13.737342313520669"><ele>582.0</ele><time>2026-05-03T08:30:42.999Z</time></trkpt><trkpt lat="42.26575437308354" lon="13.737347404802184"><ele>582.0</ele><time>2026-05-03T08:30:43.999Z</time></trkpt><trkpt lat="42.265830499617465" lon="13.737359762279805"><ele>582.0</ele><time>2026-05-03T08:30:44.999Z</time></trkpt><trkpt lat="42.26590637817943" lon="13.737344520720624"><ele>582.2</ele><time>2026-05-03T08:30:45.999Z</time></trkpt><trkpt lat="42.265989428083074" lon="13.737333841055328"><ele>582.4000000000001</ele><time>2026-05-03T08:30:46.999Z</time></trkpt><trkpt lat="42.26608570028165" lon="13.737354361776749"><ele>582.5999999999999</ele><time>2026-05-03T08:30:48Z</time></trkpt><trkpt lat="42.26618122765569" lon="13.737369151583804"><ele>582.8</ele><time>2026-05-03T08:30:49Z</time></trkpt><trkpt lat="42.26627507817371" lon="13.737351688853781"><ele>583.0</ele><time>2026-05-03T08:30:50Z</time></trkpt><trkpt lat="42.266365427977" lon="13.73729877142024"><ele>581.75</ele><time>2026-05-03T08:30:51Z</time></trkpt><trkpt lat="42.26646600931994" lon="13.737231161696622"><ele>580.5</ele><time>2026-05-03T08:30:52Z</time></trkpt><trkpt lat="42.26658881201214" lon="13.737154263487076"><ele>579.25</ele><time>2026-05-03T08:30:53Z</time></trkpt><trkpt lat="42.266724964751255" lon="13.737080706378109"><ele>578.0</ele><time>2026-05-03T08:30:54Z</time></trkpt><trkpt lat="42.266862623495754" lon="13.736999085363975"><ele>578.0</ele><time>2026-05-03T08:30:55Z</time></trkpt><trkpt lat="42.2669680555934" lon="13.736933835618133"><ele>578.0</ele><time>2026-05-03T08:30:56Z</time></trkpt><trkpt lat="42.26706447642447" lon="13.736903694523997"><ele>578.0</ele><time>2026-05-03T08:30:57Z</time></trkpt><trkpt lat="42.2671701825448" lon="13.73688192277448"><ele>578.0</ele><time>2026-05-03T08:30:58Z</time></trkpt><trkpt lat="42.26727628531851" lon="13.736850098178696"><ele>578.0</ele><time>2026-05-03T08:30:59Z</time></trkpt><trkpt lat="42.26737406711731" lon="13.736805045991744"><ele>582.4</ele><time>2026-05-03T08:31:00Z</time></trkpt><trkpt lat="42.26747417141676" lon="13.736755194727746"><ele>586.8</ele><time>2026-05-03T08:31:01Z</time></trkpt><trkpt lat="42.26755235046582" lon="13.736723944368887"><ele>591.2</ele><time>2026-05-03T08:31:02Z</time></trkpt><trkpt lat="42.26770140743837" lon="13.736754684929025"><ele>595.6</ele><time>2026-05-03T08:31:04Z</time></trkpt><trkpt lat="42.2677814821133" lon="13.736768948683617"><ele>600.0</ele><time>2026-05-03T08:31:05Z</time></trkpt><trkpt lat="42.267863977580255" lon="13.736740209407099"><ele>600.0</ele><time>2026-05-03T08:31:06Z</time></trkpt><trkpt lat="42.267927744441266" lon="13.736695378347964"><ele>600.0</ele><time>2026-05-03T08:31:07Z</time></trkpt><trkpt lat="42.267983176982035" lon="13.736650840252436"><ele>600.0</ele><time>2026-05-03T08:31:08Z</time></trkpt><trkpt lat="42.268053746241435" lon="13.736598152412823"><ele>600.0</ele><time>2026-05-03T08:31:09Z</time></trkpt><trkpt lat="42.268142647480616" lon="13.736553663845264"><ele>600.0</ele><time>2026-05-03T08:31:10Z</time></trkpt><trkpt lat="42.26825888983273" lon="13.736496060283768"><ele>600.0</ele><time>2026-05-03T08:31:11Z</time></trkpt><trkpt lat="42.26837464824286" lon="13.736429831270543"><ele>598.6</ele><time>2026-05-03T08:31:12Z</time></trkpt><trkpt lat="42.26848163621863" lon="13.736379363188417"><ele>597.2</ele><time>2026-05-03T08:31:13Z</time></trkpt><trkpt lat="42.26857527491896" lon="13.736308852324033"><ele>595.8</ele><time>2026-05-03T08:31:14Z</time></trkpt><trkpt lat="42.26865140285741" lon="13.736264581448378"><ele>594.4</ele><time>2026-05-03T08:31:15Z</time></trkpt><trkpt lat="42.26872948266513" lon="13.73623266989088"><ele>593.0</ele><time>2026-05-03T08:31:16Z</time></trkpt><trkpt lat="42.26880550337711" lon="13.73622287964724"><ele>593.0</ele><time>2026-05-03T08:31:17Z</time></trkpt><trkpt lat="42.26888657803557" lon="13.73620195400892"><ele>593.0</ele><time>2026-05-03T08:31:18Z</time></trkpt><trkpt lat="42.26895694013475" lon="13.73615551197851"><ele>593.0</ele><time>2026-05-03T08:31:19Z</time></trkpt><trkpt lat="42.26901488556362" lon="13.736088396440097"><ele>593.0</ele><time>2026-05-03T08:31:20Z</time></trkpt><trkpt lat="42.26910223079644" lon="13.736038959987884"><ele>593.0</ele><time>2026-05-03T08:31:21Z</time></trkpt><trkpt lat="42.26918408768834" lon="13.736015013865103"><ele>593.0</ele><time>2026-05-03T08:31:22Z</time></trkpt><trkpt lat="42.269258558779725" lon="13.73599783368907"><ele>595.1666666666666</ele><time>2026-05-03T08:31:23Z</time></trkpt><trkpt lat="42.269334724072884" lon="13.735980718280382"><ele>597.3333333333333</ele><time>2026-05-03T08:31:24Z</time></trkpt><trkpt lat="42.26940260282992" lon="13.736000339323084"><ele>599.5</ele><time>2026-05-03T08:31:25Z</time></trkpt><trkpt lat="42.269475254818026" lon="13.736040099782711"><ele>601.6666666666666</ele><time>2026-05-03T08:31:26Z</time></trkpt><trkpt lat="42.26954269463177" lon="13.736063128601607"><ele>603.8333333333334</ele><time>2026-05-03T08:31:27Z</time></trkpt><trkpt lat="42.26962304889926" lon="13.73601565729205"><ele>606.0</ele><time>2026-05-03T08:31:29Z</time></trkpt><trkpt lat="42.26968510557762" lon="13.735964046733365"><ele>606.0</ele><time>2026-05-03T08:31:30Z</time></trkpt><trkpt lat="42.26974706615638" lon="13.735908375718488"><ele>606.0</ele><time>2026-05-03T08:31:31Z</time></trkpt><trkpt lat="42.26982977162746" lon="13.73586407045536"><ele>606.0</ele><time>2026-05-03T08:31:32Z</time></trkpt><trkpt lat="42.26990092741515" lon="13.73580955584812"><ele>606.0</ele><time>2026-05-03T08:31:33Z</time></trkpt><trkpt lat="42.26998087150115" lon="13.735741628436864"><ele>606.0</ele><time>2026-05-03T08:31:34Z</time></trkpt><trkpt lat="42.27007008093839" lon="13.735660693772688"><ele>606.0</ele><time>2026-05-03T08:31:35Z</time></trkpt><trkpt lat="42.27017157189855" lon="13.735560757900057"><ele>602.75</ele><time>2026-05-03T08:31:36Z</time></trkpt><trkpt lat="42.27028602042972" lon="13.735453618032997"><ele>599.5</ele><time>2026-05-03T08:31:37Z</time></trkpt><trkpt lat="42.270381538722624" lon="13.735356019256379"><ele>596.25</ele><time>2026-05-03T08:31:37.999Z</time></trkpt><trkpt lat="42.27045856150819" lon="13.7352778426393"><ele>593.0</ele><time>2026-05-03T08:31:38.999Z</time></trkpt><trkpt lat="42.2705536124288" lon="13.735205573318726"><ele>596.0</ele><time>2026-05-03T08:31:39.999Z</time></trkpt><trkpt lat="42.27067937473937" lon="13.735133307824908"><ele>599.0</ele><time>2026-05-03T08:31:40.999Z</time></trkpt><trkpt lat="42.27080634856131" lon="13.735036138994143"><ele>602.0</ele><time>2026-05-03T08:31:41.999Z</time></trkpt><trkpt lat="42.27095196662147" lon="13.734924677727838"><ele>602.0</ele><time>2026-05-03T08:31:42.999Z</time></trkpt><trkpt lat="42.27109229936712" lon="13.734831002817424"><ele>602.0</ele><time>2026-05-03T08:31:43.999Z</time></trkpt><trkpt lat="42.27120152899346" lon="13.734777097691573"><ele>602.0</ele><time>2026-05-03T08:31:44.999Z</time></trkpt><trkpt lat="42.271315361583305" lon="13.734725142668447"><ele>602.0</ele><time>2026-05-03T08:31:45.999Z</time></trkpt><trkpt lat="42.27143135641165" lon="13.734685742059135"><ele>598.8000000000001</ele><time>2026-05-03T08:31:46.999Z</time></trkpt><trkpt lat="42.27154099764417" lon="13.734647105846264"><ele>595.6</ele><time>2026-05-03T08:31:47.999Z</time></trkpt><trkpt lat="42.27163446312903" lon="13.734599211305634"><ele>592.4000000000001</ele><time>2026-05-03T08:31:48.999Z</time></trkpt><trkpt lat="42.27171767613345" lon="13.734539793945645"><ele>589.2</ele><time>2026-05-03T08:31:49.999Z</time></trkpt><trkpt lat="42.271803674047696" lon="13.734498051359036"><ele>586.0</ele><time>2026-05-03T08:31:50.999Z</time></trkpt><trkpt lat="42.271888025059035" lon="13.73448652623659"><ele>586.0</ele><time>2026-05-03T08:31:51.999Z</time></trkpt><trkpt lat="42.27196921394629" lon="13.734490153790242"><ele>586.0</ele><time>2026-05-03T08:31:52.999Z</time></trkpt><trkpt lat="42.27204720828052" lon="13.734477300401691"><ele>586.0</ele><time>2026-05-03T08:31:53.999Z</time></trkpt><trkpt lat="42.272115339652025" lon="13.73446599353383"><ele>586.0</ele><time>2026-05-03T08:31:54.999Z</time></trkpt><trkpt lat="42.27219276454393" lon="13.734458649903694"><ele>586.0</ele><time>2026-05-03T08:31:55.999Z</time></trkpt><trkpt lat="42.27226818223426" lon="13.734451943791905"><ele>586.0</ele><time>2026-05-03T08:31:56.999Z</time></trkpt><trkpt lat="42.272349860694014" lon="13.734438715435854"><ele>586.6</ele><time>2026-05-03T08:31:57.999Z</time></trkpt><trkpt lat="42.27243507910832" lon="13.734410845681106"><ele>587.2</ele><time>2026-05-03T08:31:58.999Z</time></trkpt><trkpt lat="42.272514846175845" lon="13.734359783066408"><ele>587.8</ele><time>2026-05-03T08:31:59.999Z</time></trkpt><trkpt lat="42.27260553804314" lon="13.734295921356084"><ele>588.4</ele><time>2026-05-03T08:32:00.999Z</time></trkpt><trkpt lat="42.27266659824902" lon="13.734244112794839"><ele>589.0</ele><time>2026-05-03T08:32:01.999Z</time></trkpt><trkpt lat="42.272779662502195" lon="13.734208962632817"><ele>589.0</ele><time>2026-05-03T08:32:03.999Z</time></trkpt><trkpt lat="42.272859672499706" lon="13.734167431669594"><ele>589.0</ele><time>2026-05-03T08:32:05.999Z</time></trkpt><trkpt lat="42.27284706886938" lon="13.734289689590579"><ele>589.0</ele><time>2026-05-03T08:32:09.999Z</time></trkpt><trkpt lat="42.27278940368811" lon="13.734328380488353"><ele>589.0</ele><time>2026-05-03T08:32:10.999Z</time></trkpt><trkpt lat="42.27272567715491" lon="13.734352215376415"><ele>589.0</ele><time>2026-05-03T08:32:11.999Z</time></trkpt><trkpt lat="42.2726440702531" lon="13.734443713503097"><ele>589.0</ele><time>2026-05-03T08:32:13.999Z</time></trkpt><trkpt lat="42.27255663222992" lon="13.734526660454947"><ele>588.5</ele><time>2026-05-03T08:32:15.999Z</time></trkpt><trkpt lat="42.27248778103319" lon="13.734587394793616"><ele>588.0</ele><time>2026-05-03T08:32:16.999Z</time></trkpt><trkpt lat="42.272423316450094" lon="13.734672583855737"><ele>587.5</ele><time>2026-05-03T08:32:17.999Z</time></trkpt><trkpt lat="42.27236205040913" lon="13.73475643582627"><ele>587.0</ele><time>2026-05-03T08:32:18.999Z</time></trkpt><trkpt lat="42.2722931171233" lon="13.734810898177793"><ele>586.5</ele><time>2026-05-03T08:32:19.999Z</time></trkpt><trkpt lat="42.272212724730295" lon="13.734848406751944"><ele>586.0</ele><time>2026-05-03T08:32:20.999Z</time></trkpt><trkpt lat="42.27211436296273" lon="13.734896868448205"><ele>586.0</ele><time>2026-05-03T08:32:21.999Z</time></trkpt><trkpt lat="42.272005346457114" lon="13.734960141101613"><ele>586.0</ele><time>2026-05-03T08:32:22.999Z</time></trkpt><trkpt lat="42.271909753965396" lon="13.735016469960302"><ele>586.0</ele><time>2026-05-03T08:32:23.999Z</time></trkpt><trkpt lat="42.271822990188554" lon="13.735091911290255"><ele>586.0</ele><time>2026-05-03T08:32:24.999Z</time></trkpt><trkpt lat="42.27175616514168" lon="13.73516256903834"><ele>586.0</ele><time>2026-05-03T08:32:25.999Z</time></trkpt><trkpt lat="42.2716535503614" lon="13.735238310579676"><ele>583.0</ele><time>2026-05-03T08:32:26.999Z</time></trkpt><trkpt lat="42.271516525545806" lon="13.735340910388405"><ele>580.0</ele><time>2026-05-03T08:32:27.999Z</time></trkpt><trkpt lat="42.2713631537381" lon="13.735466023267128"><ele>577.0</ele><time>2026-05-03T08:32:28.999Z</time></trkpt><trkpt lat="42.27123042830579" lon="13.73557950949495"><ele>577.0</ele><time>2026-05-03T08:32:29.999Z</time></trkpt><trkpt lat="42.27111681688471" lon="13.735660354655018"><ele>577.0</ele><time>2026-05-03T08:32:30.999Z</time></trkpt><trkpt lat="42.271015807380486" lon="13.735732397882401"><ele>577.0</ele><time>2026-05-03T08:32:31.999Z</time></trkpt><trkpt lat="42.2709372416616" lon="13.735809303477147"><ele>577.0</ele><time>2026-05-03T08:32:32.999Z</time></trkpt><trkpt lat="42.270855665428684" lon="13.735926637819981"><ele>577.0</ele><time>2026-05-03T08:32:33.999Z</time></trkpt><trkpt lat="42.270737616949816" lon="13.736032704140587"><ele>577.0</ele><time>2026-05-03T08:32:34.999Z</time></trkpt><trkpt lat="42.27057030783096" lon="13.736178222813805"><ele>577.0</ele><time>2026-05-03T08:32:35.999Z</time></trkpt><trkpt lat="42.270415375233384" lon="13.736303151183398"><ele>576.0</ele><time>2026-05-03T08:32:36.999Z</time></trkpt><trkpt lat="42.27030361286901" lon="13.73640156964266"><ele>575.0</ele><time>2026-05-03T08:32:37.999Z</time></trkpt><trkpt lat="42.27016826150683" lon="13.736526703113862"><ele>574.0</ele><time>2026-05-03T08:32:38.999Z</time></trkpt><trkpt lat="42.27002555326656" lon="13.736676574970227"><ele>574.0</ele><time>2026-05-03T08:32:39.999Z</time></trkpt><trkpt lat="42.26992666112753" lon="13.73677889621035"><ele>574.0</ele><time>2026-05-03T08:32:40.999Z</time></trkpt><trkpt lat="42.2698493831486" lon="13.736861486714261"><ele>574.0</ele><time>2026-05-03T08:32:41.999Z</time></trkpt><trkpt lat="42.269782740652204" lon="13.736931531377147"><ele>574.0</ele><time>2026-05-03T08:32:42.999Z</time></trkpt><trkpt lat="42.26970908476303" lon="13.736999034742539"><ele>574.0</ele><time>2026-05-03T08:32:43.999Z</time></trkpt><trkpt lat="42.26963067585446" lon="13.737049817551839"><ele>569.75</ele><time>2026-05-03T08:32:44.999Z</time></trkpt><trkpt lat="42.26952556945436" lon="13.737119775247466"><ele>565.5</ele><time>2026-05-03T08:32:45.999Z</time></trkpt><trkpt lat="42.2694171032286" lon="13.737186198844952"><ele>561.25</ele><time>2026-05-03T08:32:46.999Z</time></trkpt><trkpt lat="42.269295801608656" lon="13.73723727367839"><ele>557.0</ele><time>2026-05-03T08:32:47.999Z</time></trkpt><trkpt lat="42.26918024858567" lon="13.737298728492892"><ele>557.0</ele><time>2026-05-03T08:32:48.999Z</time></trkpt><trkpt lat="42.26908613968234" lon="13.737335912096503"><ele>557.0</ele><time>2026-05-03T08:32:49.999Z</time></trkpt><trkpt lat="42.26896104081016" lon="13.737354039235177"><ele>557.0</ele><time>2026-05-03T08:32:50.999Z</time></trkpt><trkpt lat="42.268809184714826" lon="13.73736692975623"><ele>557.0</ele><time>2026-05-03T08:32:51.999Z</time></trkpt><trkpt lat="42.26865106286619" lon="13.737381716184352"><ele>558.6666666666666</ele><time>2026-05-03T08:32:52.999Z</time></trkpt><trkpt lat="42.268497871632974" lon="13.737412507858735"><ele>560.3333333333334</ele><time>2026-05-03T08:32:53.999Z</time></trkpt><trkpt lat="42.268348372576874" lon="13.737454576897703"><ele>562.0</ele><time>2026-05-03T08:32:54.999Z</time></trkpt><trkpt lat="42.2682118496262" lon="13.737514409426923"><ele>564.25</ele><time>2026-05-03T08:32:55.999Z</time></trkpt><trkpt lat="42.26807488520169" lon="13.737559962107126"><ele>566.5</ele><time>2026-05-03T08:32:56.999Z</time></trkpt><trkpt lat="42.267931291710646" lon="13.737600619726722"><ele>568.75</ele><time>2026-05-03T08:32:57.999Z</time></trkpt><trkpt lat="42.26783185835839" lon="13.737638464816316"><ele>571.0</ele><time>2026-05-03T08:32:58.999Z</time></trkpt><trkpt lat="42.267763025615594" lon="13.737653405905082"><ele>571.0</ele><time>2026-05-03T08:32:59.999Z</time></trkpt><trkpt lat="42.26768852089406" lon="13.737643726149537"><ele>571.0</ele><time>2026-05-03T08:33:00.999Z</time></trkpt><trkpt lat="42.26761122605452" lon="13.737629355660728"><ele>571.0</ele><time>2026-05-03T08:33:01.999Z</time></trkpt><trkpt lat="42.26754613548534" lon="13.737675100697947"><ele>571.0</ele><time>2026-05-03T08:33:04Z</time></trkpt><trkpt lat="42.267476087388715" lon="13.737774836524329"><ele>571.0</ele><time>2026-05-03T08:33:06Z</time></trkpt><trkpt lat="42.26738628034979" lon="13.737872068398557"><ele>571.0</ele><time>2026-05-03T08:33:08Z</time></trkpt><trkpt lat="42.267309041362424" lon="13.737928870069691"><ele>567.0</ele><time>2026-05-03T08:33:09Z</time></trkpt><trkpt lat="42.267228789679805" lon="13.737978418665197"><ele>563.0</ele><time>2026-05-03T08:33:10Z</time></trkpt><trkpt lat="42.26714751671895" lon="13.738022913801158"><ele>559.0</ele><time>2026-05-03T08:33:11Z</time></trkpt><trkpt lat="42.267050267796265" lon="13.738076345145213"><ele>555.0</ele><time>2026-05-03T08:33:13Z</time></trkpt><trkpt lat="42.26699415603466" lon="13.738151873399822"><ele>551.0</ele><time>2026-05-03T08:33:29.999Z</time></trkpt><trkpt lat="42.26705921577609" lon="13.73822772985369"><ele>547.0</ele><time>2026-05-03T08:33:32.999Z</time></trkpt><trkpt lat="42.26714417584805" lon="13.738222118431187"><ele>547.0</ele><time>2026-05-03T08:33:33.999Z</time></trkpt><trkpt lat="42.26725009539208" lon="13.73822089427321"><ele>547.0</ele><time>2026-05-03T08:33:34.999Z</time></trkpt><trkpt lat="42.267373959735544" lon="13.738229900509962"><ele>547.0</ele><time>2026-05-03T08:33:35.999Z</time></trkpt><trkpt lat="42.267511645659525" lon="13.738239056891338"><ele>547.0</ele><time>2026-05-03T08:33:36.999Z</time></trkpt><trkpt lat="42.26765875118486" lon="13.73824776599943"><ele>546.0</ele><time>2026-05-03T08:33:37.999Z</time></trkpt><trkpt lat="42.26780067965905" lon="13.738254982741108"><ele>545.0</ele><time>2026-05-03T08:33:38.999Z</time></trkpt><trkpt lat="42.26793050075399" lon="13.73825858758636"><ele>544.0</ele><time>2026-05-03T08:33:39.999Z</time></trkpt><trkpt lat="42.26805480919603" lon="13.738261523395373"><ele>543.0</ele><time>2026-05-03T08:33:40.999Z</time></trkpt><trkpt lat="42.26817346995254" lon="13.738267345465369"><ele>542.0</ele><time>2026-05-03T08:33:41.999Z</time></trkpt><trkpt lat="42.26828727160241" lon="13.738268756173898"><ele>541.0</ele><time>2026-05-03T08:33:42.999Z</time></trkpt><trkpt lat="42.26839501845047" lon="13.738276254604836"><ele>540.0</ele><time>2026-05-03T08:33:43.999Z</time></trkpt><trkpt lat="42.2684945806926" lon="13.738292270441221"><ele>539.0</ele><time>2026-05-03T08:33:44.999Z</time></trkpt><trkpt lat="42.26858662337416" lon="13.738325255112422"><ele>538.0</ele><time>2026-05-03T08:33:45.999Z</time></trkpt><trkpt lat="42.268676795963" lon="13.738357705605555"><ele>538.0</ele><time>2026-05-03T08:33:46.999Z</time></trkpt><trkpt lat="42.26879007109089" lon="13.738360825499996"><ele>538.0</ele><time>2026-05-03T08:33:47.999Z</time></trkpt><trkpt lat="42.26890181514145" lon="13.738365516644802"><ele>538.0</ele><time>2026-05-03T08:33:48.999Z</time></trkpt><trkpt lat="42.2690332975206" lon="13.73837103641822"><ele>538.0</ele><time>2026-05-03T08:33:49.999Z</time></trkpt><trkpt lat="42.269151228160894" lon="13.738375987261689"><ele>538.5</ele><time>2026-05-03T08:33:50.999Z</time></trkpt><trkpt lat="42.26924594203255" lon="13.738379968848376"><ele>539.0</ele><time>2026-05-03T08:33:51.999Z</time></trkpt><trkpt lat="42.269331876806945" lon="13.738383583209593"><ele>539.5</ele><time>2026-05-03T08:33:52.999Z</time></trkpt><trkpt lat="42.269415804021726" lon="13.738387113129283"><ele>540.0</ele><time>2026-05-03T08:33:54.999Z</time></trkpt><trkpt lat="42.26941955013244" lon="13.738884280965605"><ele>536.5</ele><time>2026-05-03T08:33:56.999Z</time></trkpt><trkpt lat="42.26938637255199" lon="13.739046617843039"><ele>533.0</ele><time>2026-05-03T08:33:58.999Z</time></trkpt><trkpt lat="42.2693646623807" lon="13.739193470662439"><ele>529.5</ele><time>2026-05-03T08:33:59.999Z</time></trkpt><trkpt lat="42.26933848825541" lon="13.739375382305"><ele>526.0</ele><time>2026-05-03T08:34:00.999Z</time></trkpt><trkpt lat="42.26930805738746" lon="13.739578180050836"><ele>524.0</ele><time>2026-05-03T08:34:01.999Z</time></trkpt><trkpt lat="42.269267824263984" lon="13.739763504082436"><ele>522.0</ele><time>2026-05-03T08:34:02.999Z</time></trkpt><trkpt lat="42.26923103810083" lon="13.739915372558132"><ele>520.0</ele><time>2026-05-03T08:34:03.999Z</time></trkpt><trkpt lat="42.269207216859286" lon="13.740046483380013"><ele>518.0</ele><time>2026-05-03T08:34:04.999Z</time></trkpt><trkpt lat="42.26919744575584" lon="13.740168108736322"><ele>515.1666666666666</ele><time>2026-05-03T08:34:05.999Z</time></trkpt><trkpt lat="42.26916639050556" lon="13.740311005452504"><ele>512.3333333333333</ele><time>2026-05-03T08:34:07.999Z</time></trkpt><trkpt lat="42.26911296037753" lon="13.74036637408005"><ele>509.5</ele><time>2026-05-03T08:34:08.999Z</time></trkpt><trkpt lat="42.26903261106163" lon="13.740430527855139"><ele>506.66666666666663</ele><time>2026-05-03T08:34:09.999Z</time></trkpt><trkpt lat="42.26896641100029" lon="13.74046869534403"><ele>503.8333333333333</ele><time>2026-05-03T08:34:10.999Z</time></trkpt><trkpt lat="42.268892426382585" lon="13.74050443389258"><ele>501.0</ele><time>2026-05-03T08:34:11.999Z</time></trkpt><trkpt lat="42.26882318577013" lon="13.740541788391129"><ele>501.0</ele><time>2026-05-03T08:34:12.999Z</time></trkpt><trkpt lat="42.26876213486448" lon="13.74058251409796"><ele>501.0</ele><time>2026-05-03T08:34:13.999Z</time></trkpt><trkpt lat="42.26864224203986" lon="13.740607183953665"><ele>501.0</ele><time>2026-05-03T08:34:15.999Z</time></trkpt><trkpt lat="42.26858244712621" lon="13.740540717248823"><ele>501.0</ele><time>2026-05-03T08:34:17.999Z</time></trkpt><trkpt lat="42.26856330546834" lon="13.740400350829434"><ele>501.0</ele><time>2026-05-03T08:34:19.999Z</time></trkpt><trkpt lat="42.26855771558931" lon="13.740285871466481"><ele>501.0</ele><time>2026-05-03T08:34:20.999Z</time></trkpt><trkpt lat="42.268541227262936" lon="13.740147764838293"><ele>501.0</ele><time>2026-05-03T08:34:21.999Z</time></trkpt><trkpt lat="42.268519335600104" lon="13.740065601940566"><ele>501.0</ele><time>2026-05-03T08:34:22.999Z</time></trkpt><trkpt lat="42.268422231555775" lon="13.740040206936694"><ele>501.0</ele><time>2026-05-03T08:34:24.999Z</time></trkpt><trkpt lat="42.26835588069391" lon="13.740080748098766"><ele>501.0</ele><time>2026-05-03T08:34:25.999Z</time></trkpt><trkpt lat="42.26831763513233" lon="13.74016148581561"><ele>501.0</ele><time>2026-05-03T08:34:26.999Z</time></trkpt><trkpt lat="42.26826254923295" lon="13.740278739031826"><ele>501.0</ele><time>2026-05-03T08:34:27.999Z</time></trkpt><trkpt lat="42.26820734515956" lon="13.740360899852348"><ele>501.0</ele><time>2026-05-03T08:34:28.999Z</time></trkpt><trkpt lat="42.26813661230745" lon="13.74040319813079"><ele>501.0</ele><time>2026-05-03T08:34:29.999Z</time></trkpt><trkpt lat="42.26802882798412" lon="13.740449605357872"><ele>501.0</ele><time>2026-05-03T08:34:30.999Z</time></trkpt><trkpt lat="42.26791314904083" lon="13.740490056391591"><ele>501.0</ele><time>2026-05-03T08:34:31.999Z</time></trkpt><trkpt lat="42.267826751629386" lon="13.740518431043128"><ele>499.6666666666667</ele><time>2026-05-03T08:34:32.999Z</time></trkpt><trkpt lat="42.26776020913509" lon="13.740529011534566"><ele>498.33333333333337</ele><time>2026-05-03T08:34:33.999Z</time></trkpt><trkpt lat="42.26769452433142" lon="13.740521639618109"><ele>497.0</ele><time>2026-05-03T08:34:34.999Z</time></trkpt><trkpt lat="42.26760124684046" lon="13.740498004684643"><ele>495.6666666666667</ele><time>2026-05-03T08:34:35.999Z</time></trkpt><trkpt lat="42.26753343509343" lon="13.740464142033922"><ele>494.33333333333337</ele><time>2026-05-03T08:34:36.999Z</time></trkpt><trkpt lat="42.267461897276426" lon="13.740420572682146"><ele>493.0</ele><time>2026-05-03T08:34:37.999Z</time></trkpt><trkpt lat="42.26737303918694" lon="13.740346902710217"><ele>491.59999999999997</ele><time>2026-05-03T08:34:38.999Z</time></trkpt><trkpt lat="42.26726077735102" lon="13.740257169225703"><ele>490.19999999999993</ele><time>2026-05-03T08:34:39.999Z</time></trkpt><trkpt lat="42.26716522047077" lon="13.74020987969172"><ele>488.8</ele><time>2026-05-03T08:34:40.999Z</time></trkpt><trkpt lat="42.26708295257365" lon="13.740203309614406"><ele>487.4</ele><time>2026-05-03T08:34:41.999Z</time></trkpt><trkpt lat="42.2669937292912" lon="13.740215572659677"><ele>486.0</ele><time>2026-05-03T08:34:42.999Z</time></trkpt><trkpt lat="42.2668943698673" lon="13.740203800353115"><ele>486.0</ele><time>2026-05-03T08:34:43.999Z</time></trkpt><trkpt lat="42.266787226511745" lon="13.740173189447114"><ele>486.0</ele><time>2026-05-03T08:34:44.999Z</time></trkpt><trkpt lat="42.26668690756234" lon="13.740181944235232"><ele>486.0</ele><time>2026-05-03T08:34:45.999Z</time></trkpt><trkpt lat="42.26657632936984" lon="13.74020575460903"><ele>486.0</ele><time>2026-05-03T08:34:46.999Z</time></trkpt><trkpt lat="42.26645162023339" lon="13.740238403421534"><ele>486.0</ele><time>2026-05-03T08:34:47.999Z</time></trkpt><trkpt lat="42.266356766302096" lon="13.74026783201048"><ele>486.1666666666667</ele><time>2026-05-03T08:34:48.999Z</time></trkpt><trkpt lat="42.2662811070116" lon="13.740297284029952"><ele>486.33333333333337</ele><time>2026-05-03T08:34:49.999Z</time></trkpt><trkpt lat="42.26622281787082" lon="13.740334024091547"><ele>486.5</ele><time>2026-05-03T08:34:50.999Z</time></trkpt><trkpt lat="42.26615732432508" lon="13.740400668969484"><ele>486.6666666666667</ele><time>2026-05-03T08:34:51.999Z</time></trkpt><trkpt lat="42.26609271986808" lon="13.740501621423991"><ele>486.83333333333337</ele><time>2026-05-03T08:34:52.999Z</time></trkpt><trkpt lat="42.265999201335944" lon="13.74061166635109"><ele>487.0</ele><time>2026-05-03T08:34:53.999Z</time></trkpt><trkpt lat="42.265895971486266" lon="13.740725149497413"><ele>487.0</ele><time>2026-05-03T08:34:54.998Z</time></trkpt><trkpt lat="42.265811988431786" lon="13.74082377899777"><ele>487.00000000000006</ele><time>2026-05-03T08:34:55.998Z</time></trkpt><trkpt lat="42.265718712733324" lon="13.740916511438769"><ele>487.00000000000006</ele><time>2026-05-03T08:34:56.998Z</time></trkpt><trkpt lat="42.265633288233246" lon="13.74097105093783"><ele>487.0</ele><time>2026-05-03T08:34:57.998Z</time></trkpt><trkpt lat="42.26552465554362" lon="13.74100115057051"><ele>487.0</ele><time>2026-05-03T08:34:58.998Z</time></trkpt><trkpt lat="42.26540875829073" lon="13.741019770094104"><ele>487.0</ele><time>2026-05-03T08:35:00Z</time></trkpt><trkpt lat="42.26530798266969" lon="13.741026932345946"><ele>487.0</ele><time>2026-05-03T08:35:01Z</time></trkpt><trkpt lat="42.26521334388461" lon="13.741023753258487"><ele>487.0</ele><time>2026-05-03T08:35:02Z</time></trkpt><trkpt lat="42.265088769431316" lon="13.740991777853518"><ele>487.0</ele><time>2026-05-03T08:35:03Z</time></trkpt><trkpt lat="42.26494603593724" lon="13.740960265054873"><ele>487.0</ele><time>2026-05-03T08:35:04Z</time></trkpt><trkpt lat="42.26480837977701" lon="13.740963554179967"><ele>487.0</ele><time>2026-05-03T08:35:05Z</time></trkpt><trkpt lat="42.2646741253499" lon="13.741015967456608"><ele>487.0</ele><time>2026-05-03T08:35:06Z</time></trkpt><trkpt lat="42.26452617472236" lon="13.741110144517327"><ele>487.0</ele><time>2026-05-03T08:35:07Z</time></trkpt><trkpt lat="42.26440494256601" lon="13.741191926846504"><ele>484.40000000000003</ele><time>2026-05-03T08:35:08Z</time></trkpt><trkpt lat="42.26430525616278" lon="13.741227921021562"><ele>481.80000000000007</ele><time>2026-05-03T08:35:09Z</time></trkpt><trkpt lat="42.26421097151545" lon="13.74124765106841"><ele>479.2</ele><time>2026-05-03T08:35:10Z</time></trkpt><trkpt lat="42.264111685140236" lon="13.741260076888295"><ele>476.6</ele><time>2026-05-03T08:35:11Z</time></trkpt><trkpt lat="42.26400429591843" lon="13.741255236579466"><ele>474.0</ele><time>2026-05-03T08:35:12Z</time></trkpt><trkpt lat="42.263849858717556" lon="13.741244791545741"><ele>474.0</ele><time>2026-05-03T08:35:13Z</time></trkpt><trkpt lat="42.263705484170345" lon="13.741240675438618"><ele>474.0</ele><time>2026-05-03T08:35:14Z</time></trkpt><trkpt lat="42.263612812273564" lon="13.741240980744916"><ele>474.0</ele><time>2026-05-03T08:35:15Z</time></trkpt><trkpt lat="42.263547740289695" lon="13.741249799066415"><ele>474.0</ele><time>2026-05-03T08:35:16Z</time></trkpt><trkpt lat="42.26349382886795" lon="13.741337778377353"><ele>474.0</ele><time>2026-05-03T08:35:18Z</time></trkpt><trkpt lat="42.26343391252584" lon="13.741459561031558"><ele>474.0</ele><time>2026-05-03T08:35:20Z</time></trkpt><trkpt lat="42.26335584372354" lon="13.741561081160151"><ele>474.0</ele><time>2026-05-03T08:35:22Z</time></trkpt><trkpt lat="42.26333652090292" lon="13.741697442651114"><ele>474.0</ele><time>2026-05-03T08:35:24Z</time></trkpt><trkpt lat="42.26323330222886" lon="13.741750384686744"><ele>474.0</ele><time>2026-05-03T08:35:26Z</time></trkpt><trkpt lat="42.263135607477786" lon="13.74179389013692"><ele>474.0</ele><time>2026-05-03T08:35:27Z</time></trkpt><trkpt lat="42.26311102935621" lon="13.741883662384524"><ele>472.0</ele><time>2026-05-03T08:35:29Z</time></trkpt><trkpt lat="42.26315203856613" lon="13.741976437164624"><ele>470.0</ele><time>2026-05-03T08:35:30Z</time></trkpt><trkpt lat="42.263175560171895" lon="13.742086589431898"><ele>468.0</ele><time>2026-05-03T08:35:31Z</time></trkpt><trkpt lat="42.26313567809085" lon="13.74219698688029"><ele>466.0</ele><time>2026-05-03T08:35:33Z</time></trkpt><trkpt lat="42.26301940128046" lon="13.742231373842271"><ele>464.0</ele><time>2026-05-03T08:35:35Z</time></trkpt><trkpt lat="42.263013012225734" lon="13.742401288887667"><ele>463.99999999999994</ele><time>2026-05-03T08:35:37Z</time></trkpt><trkpt lat="42.26304657953229" lon="13.742538557423801"><ele>464.0</ele><time>2026-05-03T08:35:38Z</time></trkpt><trkpt lat="42.26305901341475" lon="13.742665410058871"><ele>464.0</ele><time>2026-05-03T08:35:39Z</time></trkpt><trkpt lat="42.26302510416643" lon="13.742779938375888"><ele>464.0</ele><time>2026-05-03T08:35:41Z</time></trkpt><trkpt lat="42.2629630288333" lon="13.742801272352162"><ele>463.99999999999994</ele><time>2026-05-03T08:35:42Z</time></trkpt><trkpt lat="42.26287812347368" lon="13.742818109042886"><ele>464.0</ele><time>2026-05-03T08:35:43Z</time></trkpt><trkpt lat="42.26279879032894" lon="13.742839566736617"><ele>462.6</ele><time>2026-05-03T08:35:44Z</time></trkpt><trkpt lat="42.26271359248739" lon="13.742904836467911"><ele>461.2</ele><time>2026-05-03T08:35:45Z</time></trkpt><trkpt lat="42.26261162757571" lon="13.743000895473488"><ele>459.80000000000007</ele><time>2026-05-03T08:35:46Z</time></trkpt><trkpt lat="42.26251536547314" lon="13.743084035875283"><ele>458.40000000000003</ele><time>2026-05-03T08:35:47Z</time></trkpt><trkpt lat="42.262435621275266" lon="13.743126944359686"><ele>457.0</ele><time>2026-05-03T08:35:48Z</time></trkpt><trkpt lat="42.26236367316351" lon="13.743132152868672"><ele>457.00000000000006</ele><time>2026-05-03T08:35:49Z</time></trkpt><trkpt lat="42.262300806901564" lon="13.74316769597889"><ele>457.0</ele><time>2026-05-03T08:35:50Z</time></trkpt><trkpt lat="42.26226088188228" lon="13.74325054819317"><ele>457.0</ele><time>2026-05-03T08:35:50.999Z</time></trkpt><trkpt lat="42.26222589512301" lon="13.743357725810673"><ele>457.0</ele><time>2026-05-03T08:35:51.999Z</time></trkpt><trkpt lat="42.26218479887336" lon="13.743475631771569"><ele>457.00000000000006</ele><time>2026-05-03T08:35:52.999Z</time></trkpt><trkpt lat="42.262163623947565" lon="13.743567147234282"><ele>457.0</ele><time>2026-05-03T08:35:53.999Z</time></trkpt><trkpt lat="42.26212550433207" lon="13.74364158119067"><ele>457.00000000000006</ele><time>2026-05-03T08:35:54.999Z</time></trkpt><trkpt lat="42.262122040413544" lon="13.743748399671146"><ele>457.0</ele><time>2026-05-03T08:35:57.999Z</time></trkpt><trkpt lat="42.2621719047053" lon="13.743827010907928"><ele>457.0</ele><time>2026-05-03T08:35:58.999Z</time></trkpt><trkpt lat="42.2622457121809" lon="13.743934031390573"><ele>457.0</ele><time>2026-05-03T08:35:59.999Z</time></trkpt><trkpt lat="42.26231257906099" lon="13.744002973853913"><ele>457.00000000000006</ele><time>2026-05-03T08:36:00.999Z</time></trkpt><trkpt lat="42.26238115628152" lon="13.744020438487384"><ele>457.0</ele><time>2026-05-03T08:36:01.999Z</time></trkpt><trkpt lat="42.26248748141119" lon="13.744010500590063"><ele>455.6666666666667</ele><time>2026-05-03T08:36:02.999Z</time></trkpt><trkpt lat="42.26264591257363" lon="13.743985337764702"><ele>454.33333333333337</ele><time>2026-05-03T08:36:03.999Z</time></trkpt><trkpt lat="42.26281797243634" lon="13.743954545224526"><ele>453.0</ele><time>2026-05-03T08:36:04.999Z</time></trkpt><trkpt lat="42.262955368327184" lon="13.743941691414319"><ele>453.0</ele><time>2026-05-03T08:36:05.999Z</time></trkpt><trkpt lat="42.263089852987335" lon="13.74394143288993"><ele>453.0</ele><time>2026-05-03T08:36:06.999Z</time></trkpt><trkpt lat="42.263236346574196" lon="13.743930249678758"><ele>453.0</ele><time>2026-05-03T08:36:07.999Z</time></trkpt><trkpt lat="42.263388857720095" lon="13.743919716978647"><ele>453.0</ele><time>2026-05-03T08:36:08.999Z</time></trkpt><trkpt lat="42.26354977907927" lon="13.743925211088458"><ele>452.0</ele><time>2026-05-03T08:36:09.999Z</time></trkpt><trkpt lat="42.2637079871427" lon="13.743956673980964"><ele>451.0</ele><time>2026-05-03T08:36:10.999Z</time></trkpt><trkpt lat="42.26384942780582" lon="13.744002247637649"><ele>450.0</ele><time>2026-05-03T08:36:11.999Z</time></trkpt><trkpt lat="42.26399456347218" lon="13.744038597785336"><ele>449.5</ele><time>2026-05-03T08:36:12.999Z</time></trkpt><trkpt lat="42.26415833886223" lon="13.744065367639173"><ele>449.0</ele><time>2026-05-03T08:36:13.999Z</time></trkpt><trkpt lat="42.26430278692712" lon="13.744091621160898"><ele>448.5</ele><time>2026-05-03T08:36:14.999Z</time></trkpt><trkpt lat="42.26443660212096" lon="13.744112668124963"><ele>448.0</ele><time>2026-05-03T08:36:15.999Z</time></trkpt><trkpt lat="42.26455878685351" lon="13.744114717291323"><ele>448.0</ele><time>2026-05-03T08:36:16.999Z</time></trkpt><trkpt lat="42.26466174601728" lon="13.744084025468258"><ele>448.0</ele><time>2026-05-03T08:36:17.999Z</time></trkpt><trkpt lat="42.264769015275284" lon="13.744024562137104"><ele>448.0</ele><time>2026-05-03T08:36:18.999Z</time></trkpt><trkpt lat="42.264875868801695" lon="13.743949110611045"><ele>448.0</ele><time>2026-05-03T08:36:19.999Z</time></trkpt><trkpt lat="42.264982126152304" lon="13.743850766572278"><ele>448.0</ele><time>2026-05-03T08:36:20.999Z</time></trkpt><trkpt lat="42.26508783715149" lon="13.74374437006641"><ele>448.0</ele><time>2026-05-03T08:36:21.999Z</time></trkpt><trkpt lat="42.26520023707997" lon="13.74366024820129"><ele>448.0</ele><time>2026-05-03T08:36:22.999Z</time></trkpt><trkpt lat="42.26530906870122" lon="13.743599509762252"><ele>448.0</ele><time>2026-05-03T08:36:23.999Z</time></trkpt><trkpt lat="42.26540993523239" lon="13.743546187476019"><ele>448.0</ele><time>2026-05-03T08:36:24.999Z</time></trkpt><trkpt lat="42.26550737090809" lon="13.743514397683073"><ele>447.99999999999994</ele><time>2026-05-03T08:36:25.999Z</time></trkpt><trkpt lat="42.26561104638163" lon="13.743510311334697"><ele>447.99999999999994</ele><time>2026-05-03T08:36:26.999Z</time></trkpt><trkpt lat="42.26571272107408" lon="13.743512600731924"><ele>448.0</ele><time>2026-05-03T08:36:27.999Z</time></trkpt><trkpt lat="42.265811446544596" lon="13.743532352190348"><ele>448.0</ele><time>2026-05-03T08:36:28.999Z</time></trkpt><trkpt lat="42.26592811068746" lon="13.74353407020449"><ele>448.0</ele><time>2026-05-03T08:36:29.999Z</time></trkpt><trkpt lat="42.26604694401516" lon="13.743517103314726"><ele>448.0</ele><time>2026-05-03T08:36:30.999Z</time></trkpt><trkpt lat="42.26616436912042" lon="13.743505573515305"><ele>448.0</ele><time>2026-05-03T08:36:31.999Z</time></trkpt><trkpt lat="42.26628440127932" lon="13.743521644779202"><ele>448.0</ele><time>2026-05-03T08:36:32.999Z</time></trkpt><trkpt lat="42.266413320580895" lon="13.743567136346378"><ele>449.75</ele><time>2026-05-03T08:36:33.999Z</time></trkpt><trkpt lat="42.26656262972257" lon="13.743609930923466"><ele>451.5</ele><time>2026-05-03T08:36:34.999Z</time></trkpt><trkpt lat="42.266696533186696" lon="13.74361522471714"><ele>453.25</ele><time>2026-05-03T08:36:35.999Z</time></trkpt><trkpt lat="42.2668013051551" lon="13.743610352426558"><ele>455.0</ele><time>2026-05-03T08:36:36.999Z</time></trkpt><trkpt lat="42.266883550008515" lon="13.743584175197293"><ele>452.75</ele><time>2026-05-03T08:36:37.999Z</time></trkpt><trkpt lat="42.26697675641674" lon="13.743540099713323"><ele>450.5</ele><time>2026-05-03T08:36:38.999Z</time></trkpt><trkpt lat="42.26709108104197" lon="13.743479906760825"><ele>448.25</ele><time>2026-05-03T08:36:39.999Z</time></trkpt><trkpt lat="42.2672150543719" lon="13.74341518551241"><ele>446.0</ele><time>2026-05-03T08:36:40.999Z</time></trkpt><trkpt lat="42.26732162895469" lon="13.743382112365515"><ele>444.8333333333333</ele><time>2026-05-03T08:36:41.999Z</time></trkpt><trkpt lat="42.26740977506227" lon="13.743383557114857"><ele>443.66666666666663</ele><time>2026-05-03T08:36:42.999Z</time></trkpt><trkpt lat="42.26749405234692" lon="13.743379089732759"><ele>442.5</ele><time>2026-05-03T08:36:43.999Z</time></trkpt><trkpt lat="42.26757041288097" lon="13.743364640242703"><ele>441.33333333333337</ele><time>2026-05-03T08:36:44.999Z</time></trkpt><trkpt lat="42.26764296152268" lon="13.743360232990243"><ele>440.1666666666667</ele><time>2026-05-03T08:36:45.999Z</time></trkpt><trkpt lat="42.267746231930566" lon="13.743388530928296"><ele>439.0</ele><time>2026-05-03T08:36:46.999Z</time></trkpt><trkpt lat="42.267843988268645" lon="13.743436771621031"><ele>439.0</ele><time>2026-05-03T08:36:47.999Z</time></trkpt><trkpt lat="42.267961783197556" lon="13.743501327249513"><ele>439.0</ele><time>2026-05-03T08:36:48.999Z</time></trkpt><trkpt lat="42.26806291019674" lon="13.74357112170679"><ele>439.0</ele><time>2026-05-03T08:36:49.999Z</time></trkpt><trkpt lat="42.268152469259945" lon="13.743644541150696"><ele>439.0</ele><time>2026-05-03T08:36:50.999Z</time></trkpt><trkpt lat="42.26825328518882" lon="13.743710534614689"><ele>440.0</ele><time>2026-05-03T08:36:51.999Z</time></trkpt><trkpt lat="42.26835114920061" lon="13.743746875983957"><ele>441.0</ele><time>2026-05-03T08:36:52.999Z</time></trkpt><trkpt lat="42.26845112356949" lon="13.743736206425016"><ele>442.0</ele><time>2026-05-03T08:36:53.999Z</time></trkpt><trkpt lat="42.26855707303118" lon="13.743760940846643"><ele>443.0</ele><time>2026-05-03T08:36:54.999Z</time></trkpt><trkpt lat="42.26865128752713" lon="13.74378817523711"><ele>444.0</ele><time>2026-05-03T08:36:55.999Z</time></trkpt><trkpt lat="42.26872902036909" lon="13.743790055064157"><ele>444.0</ele><time>2026-05-03T08:36:56.999Z</time></trkpt><trkpt lat="42.26879935684282" lon="13.743748217784162"><ele>444.0</ele><time>2026-05-03T08:36:57.999Z</time></trkpt><trkpt lat="42.26887359307631" lon="13.743675997266319"><ele>444.0</ele><time>2026-05-03T08:36:58.999Z</time></trkpt><trkpt lat="42.26893446180833" lon="13.743593163718403"><ele>444.0</ele><time>2026-05-03T08:36:59.999Z</time></trkpt><trkpt lat="42.268994338725065" lon="13.743524437998975"><ele>444.0</ele><time>2026-05-03T08:37:00.999Z</time></trkpt><trkpt lat="42.26903702555143" lon="13.74345918352443"><ele>444.0</ele><time>2026-05-03T08:37:01.999Z</time></trkpt><trkpt lat="42.26906151481885" lon="13.743362795100136"><ele>442.2</ele><time>2026-05-03T08:37:02.999Z</time></trkpt><trkpt lat="42.26909205934972" lon="13.743268539610545"><ele>440.4</ele><time>2026-05-03T08:37:03.999Z</time></trkpt><trkpt lat="42.269154249341526" lon="13.743224732066748"><ele>438.6</ele><time>2026-05-03T08:37:04.999Z</time></trkpt><trkpt lat="42.269249349129346" lon="13.743202733155233"><ele>436.8</ele><time>2026-05-03T08:37:06Z</time></trkpt><trkpt lat="42.26937930548412" lon="13.743190035619099"><ele>435.0</ele><time>2026-05-03T08:37:07Z</time></trkpt><trkpt lat="42.26948399641813" lon="13.743196194562946"><ele>435.0</ele><time>2026-05-03T08:37:08Z</time></trkpt><trkpt lat="42.26960397826242" lon="13.743231561928118"><ele>435.0</ele><time>2026-05-03T08:37:09Z</time></trkpt><trkpt lat="42.26973224889185" lon="13.743295026993417"><ele>435.0</ele><time>2026-05-03T08:37:10Z</time></trkpt><trkpt lat="42.269851818192336" lon="13.743376625698252"><ele>435.0</ele><time>2026-05-03T08:37:11Z</time></trkpt><trkpt lat="42.26995538225772" lon="13.743457044069814"><ele>433.25</ele><time>2026-05-03T08:37:12Z</time></trkpt><trkpt lat="42.270037448442004" lon="13.743548589191388"><ele>431.5</ele><time>2026-05-03T08:37:13Z</time></trkpt><trkpt lat="42.27012496855724" lon="13.743640870374506"><ele>429.75</ele><time>2026-05-03T08:37:14Z</time></trkpt><trkpt lat="42.27023999105662" lon="13.743707640853582"><ele>428.0</ele><time>2026-05-03T08:37:15Z</time></trkpt><trkpt lat="42.270364165065224" lon="13.74378699082745"><ele>428.0</ele><time>2026-05-03T08:37:16Z</time></trkpt><trkpt lat="42.27043894330248" lon="13.74384648839831"><ele>427.99999999999994</ele><time>2026-05-03T08:37:17Z</time></trkpt><trkpt lat="42.27055279763342" lon="13.743879087494705"><ele>427.99999999999994</ele><time>2026-05-03T08:37:19Z</time></trkpt><trkpt lat="42.27065724914752" lon="13.743917128938836"><ele>428.0</ele><time>2026-05-03T08:37:20Z</time></trkpt><trkpt lat="42.270785299754294" lon="13.743981306581025"><ele>428.0</ele><time>2026-05-03T08:37:21Z</time></trkpt><trkpt lat="42.27087600647382" lon="13.744036676976732"><ele>427.8333333333333</ele><time>2026-05-03T08:37:22Z</time></trkpt><trkpt lat="42.270922355183686" lon="13.744107391598499"><ele>427.66666666666663</ele><time>2026-05-03T08:37:23Z</time></trkpt><trkpt lat="42.270932587345605" lon="13.744198751119642"><ele>427.5</ele><time>2026-05-03T08:37:26Z</time></trkpt><trkpt lat="42.270940087208274" lon="13.744347098654071"><ele>427.33333333333337</ele><time>2026-05-03T08:37:30Z</time></trkpt><trkpt lat="42.27095326840511" lon="13.744445754415441"><ele>427.1666666666667</ele><time>2026-05-03T08:37:31Z</time></trkpt><trkpt lat="42.27099107096112" lon="13.744552771004697"><ele>427.0</ele><time>2026-05-03T08:37:32Z</time></trkpt><trkpt lat="42.271046053777944" lon="13.744664207629157"><ele>426.25</ele><time>2026-05-03T08:37:33Z</time></trkpt><trkpt lat="42.27110451502114" lon="13.744791381475459"><ele>425.5</ele><time>2026-05-03T08:37:34Z</time></trkpt><trkpt lat="42.2711704509795" lon="13.744925496586363"><ele>424.75</ele><time>2026-05-03T08:37:35Z</time></trkpt><trkpt lat="42.2712213826067" lon="13.745087554077118"><ele>424.0</ele><time>2026-05-03T08:37:36Z</time></trkpt><trkpt lat="42.27131158235366" lon="13.745267669501546"><ele>427.5</ele><time>2026-05-03T08:37:37Z</time></trkpt><trkpt lat="42.27140666846363" lon="13.74540507671756"><ele>431.0</ele><time>2026-05-03T08:37:38Z</time></trkpt><trkpt lat="42.27141190890962" lon="13.745567294715551"><ele>434.5</ele><time>2026-05-03T08:37:39Z</time></trkpt><trkpt lat="42.27142535497931" lon="13.74570027282831"><ele>438.0</ele><time>2026-05-03T08:37:40Z</time></trkpt><trkpt lat="42.27143341428263" lon="13.745827580623672"><ele>434.25</ele><time>2026-05-03T08:37:41Z</time></trkpt><trkpt lat="42.27145448563673" lon="13.745983061050241"><ele>430.5</ele><time>2026-05-03T08:37:42Z</time></trkpt><trkpt lat="42.2714849681069" lon="13.746143518412694"><ele>426.75</ele><time>2026-05-03T08:37:43Z</time></trkpt><trkpt lat="42.27153229920333" lon="13.74630731510953"><ele>423.0</ele><time>2026-05-03T08:37:44Z</time></trkpt><trkpt lat="42.271593520552024" lon="13.74648419392624"><ele>423.0</ele><time>2026-05-03T08:37:45Z</time></trkpt><trkpt lat="42.27166476881903" lon="13.746653400216532"><ele>423.0</ele><time>2026-05-03T08:37:46Z</time></trkpt><trkpt lat="42.271749628044795" lon="13.746820311025502"><ele>423.0</ele><time>2026-05-03T08:37:47Z</time></trkpt><trkpt lat="42.271832571759106" lon="13.746977898066083"><ele>423.0</ele><time>2026-05-03T08:37:48Z</time></trkpt><trkpt lat="42.27191721069039" lon="13.747134431312166"><ele>425.66666666666663</ele><time>2026-05-03T08:37:49Z</time></trkpt><trkpt lat="42.27200366463519" lon="13.747294034880383"><ele>428.3333333333333</ele><time>2026-05-03T08:37:50Z</time></trkpt><trkpt lat="42.27210524564" lon="13.747446409429877"><ele>431.0</ele><time>2026-05-03T08:37:51Z</time></trkpt><trkpt lat="42.2722049154587" lon="13.747626175268007"><ele>430.0</ele><time>2026-05-03T08:37:52Z</time></trkpt><trkpt lat="42.272290519914236" lon="13.747779944453958"><ele>429.0</ele><time>2026-05-03T08:37:53Z</time></trkpt><trkpt lat="42.27235500695118" lon="13.747864660684137"><ele>428.0</ele><time>2026-05-03T08:37:54Z</time></trkpt><trkpt lat="42.27242170331078" lon="13.747914922819998"><ele>427.0</ele><time>2026-05-03T08:37:55Z</time></trkpt><trkpt lat="42.272500210915425" lon="13.747946707111838"><ele>426.0</ele><time>2026-05-03T08:37:56Z</time></trkpt><trkpt lat="42.272605197635116" lon="13.748023644625428"><ele>426.0</ele><time>2026-05-03T08:37:57Z</time></trkpt><trkpt lat="42.272692116670875" lon="13.748144255164382"><ele>426.0</ele><time>2026-05-03T08:37:58Z</time></trkpt><trkpt lat="42.27279298553068" lon="13.748263333578615"><ele>426.0</ele><time>2026-05-03T08:37:59Z</time></trkpt><trkpt lat="42.27289167068923" lon="13.74839647036696"><ele>426.0</ele><time>2026-05-03T08:38:00Z</time></trkpt><trkpt lat="42.27299901383423" lon="13.74856266370702"><ele>423.66666666666663</ele><time>2026-05-03T08:38:01Z</time></trkpt><trkpt lat="42.273127132451236" lon="13.748727607799884"><ele>421.3333333333333</ele><time>2026-05-03T08:38:02Z</time></trkpt><trkpt lat="42.27324907567865" lon="13.748917538463326"><ele>419.0</ele><time>2026-05-03T08:38:03Z</time></trkpt><trkpt lat="42.27337995820161" lon="13.749040466268514"><ele>419.0</ele><time>2026-05-03T08:38:04Z</time></trkpt><trkpt lat="42.27350541425276" lon="13.74916422512033"><ele>419.0</ele><time>2026-05-03T08:38:05Z</time></trkpt><trkpt lat="42.2736225162294" lon="13.749271877457893"><ele>419.0</ele><time>2026-05-03T08:38:06Z</time></trkpt><trkpt lat="42.27374747249596" lon="13.749354341751475"><ele>419.0</ele><time>2026-05-03T08:38:07Z</time></trkpt><trkpt lat="42.273862415090065" lon="13.749423088479581"><ele>419.0</ele><time>2026-05-03T08:38:08Z</time></trkpt><trkpt lat="42.2739148975922" lon="13.749512836742053"><ele>419.0</ele><time>2026-05-03T08:38:08.999Z</time></trkpt><trkpt lat="42.27394020712738" lon="13.749595814662795"><ele>419.0</ele><time>2026-05-03T08:38:09.999Z</time></trkpt><trkpt lat="42.27391620186826" lon="13.749754425167772"><ele>419.0</ele><time>2026-05-03T08:38:11.999Z</time></trkpt><trkpt lat="42.27385899472897" lon="13.74988180866081"><ele>419.0</ele><time>2026-05-03T08:38:12.999Z</time></trkpt><trkpt lat="42.273791177901415" lon="13.750052103976476"><ele>419.0</ele><time>2026-05-03T08:38:13.999Z</time></trkpt><trkpt lat="42.27370257306122" lon="13.750268502168128"><ele>419.0</ele><time>2026-05-03T08:38:14.999Z</time></trkpt><trkpt lat="42.27362853058574" lon="13.750454500183938"><ele>419.0</ele><time>2026-05-03T08:38:15.999Z</time></trkpt><trkpt lat="42.27360127816504" lon="13.750574638940316"><ele>419.0</ele><time>2026-05-03T08:38:16.999Z</time></trkpt><trkpt lat="42.27361781979614" lon="13.750717521200553"><ele>419.0</ele><time>2026-05-03T08:38:18.999Z</time></trkpt><trkpt lat="42.27364698659396" lon="13.750814701414843"><ele>419.0</ele><time>2026-05-03T08:38:19.999Z</time></trkpt><trkpt lat="42.27369650827099" lon="13.750950345806"><ele>419.0</ele><time>2026-05-03T08:38:20.999Z</time></trkpt><trkpt lat="42.27376358075205" lon="13.751092675850817"><ele>419.0</ele><time>2026-05-03T08:38:21.999Z</time></trkpt><trkpt lat="42.2738314763338" lon="13.751191006597724"><ele>419.0</ele><time>2026-05-03T08:38:22.999Z</time></trkpt><trkpt lat="42.27388475276025" lon="13.751239681569144"><ele>418.0</ele><time>2026-05-03T08:38:23.999Z</time></trkpt><trkpt lat="42.27395007096965" lon="13.751255917663814"><ele>417.0</ele><time>2026-05-03T08:38:24.999Z</time></trkpt><trkpt lat="42.2740284754933" lon="13.751233051039485"><ele>416.0</ele><time>2026-05-03T08:38:25.999Z</time></trkpt><trkpt lat="42.27412761840846" lon="13.75115525204219"><ele>415.0</ele><time>2026-05-03T08:38:26.999Z</time></trkpt><trkpt lat="42.2742599760839" lon="13.751111891867332"><ele>414.0</ele><time>2026-05-03T08:38:27.999Z</time></trkpt><trkpt lat="42.27440879327214" lon="13.751045202603672"><ele>414.66666666666663</ele><time>2026-05-03T08:38:28.999Z</time></trkpt><trkpt lat="42.27458169853871" lon="13.750989509455724"><ele>415.3333333333333</ele><time>2026-05-03T08:38:29.999Z</time></trkpt><trkpt lat="42.27475814020073" lon="13.75095359606986"><ele>416.0</ele><time>2026-05-03T08:38:30.999Z</time></trkpt><trkpt lat="42.27492302014423" lon="13.750968692992876"><ele>414.66666666666663</ele><time>2026-05-03T08:38:31.999Z</time></trkpt><trkpt lat="42.275108904236355" lon="13.750977210726901"><ele>413.33333333333337</ele><time>2026-05-03T08:38:32.999Z</time></trkpt><trkpt lat="42.27530553276368" lon="13.750991479600835"><ele>412.0</ele><time>2026-05-03T08:38:33.999Z</time></trkpt><trkpt lat="42.27549526078518" lon="13.750990528601752"><ele>411.0</ele><time>2026-05-03T08:38:34.999Z</time></trkpt><trkpt lat="42.27566196725803" lon="13.751006020579975"><ele>410.0</ele><time>2026-05-03T08:38:35.999Z</time></trkpt><trkpt lat="42.27582580078784" lon="13.751020785649303"><ele>409.0</ele><time>2026-05-03T08:38:36.999Z</time></trkpt><trkpt lat="42.27597314549519" lon="13.75103927994796"><ele>408.0</ele><time>2026-05-03T08:38:37.999Z</time></trkpt><trkpt lat="42.27609353205729" lon="13.751111696906584"><ele>407.0</ele><time>2026-05-03T08:38:38.999Z</time></trkpt><trkpt lat="42.276176113619776" lon="13.751205523403296"><ele>406.0</ele><time>2026-05-03T08:38:39.999Z</time></trkpt><trkpt lat="42.27624992276739" lon="13.751320767781834"><ele>405.0</ele><time>2026-05-03T08:38:40.999Z</time></trkpt><trkpt lat="42.276355933171736" lon="13.751461826615504"><ele>404.25</ele><time>2026-05-03T08:38:41.999Z</time></trkpt><trkpt lat="42.27647528457145" lon="13.751577756496753"><ele>403.5</ele><time>2026-05-03T08:38:42.999Z</time></trkpt><trkpt lat="42.27658110097743" lon="13.75164228902705"><ele>402.75</ele><time>2026-05-03T08:38:43.999Z</time></trkpt><trkpt lat="42.27670430653522" lon="13.751685145172322"><ele>402.0</ele><time>2026-05-03T08:38:44.999Z</time></trkpt><trkpt lat="42.276877933784675" lon="13.751725543578443"><ele>402.0</ele><time>2026-05-03T08:38:45.999Z</time></trkpt><trkpt lat="42.27705735901378" lon="13.751775129273119"><ele>402.0</ele><time>2026-05-03T08:38:46.999Z</time></trkpt><trkpt lat="42.277208660877115" lon="13.75180534598425"><ele>402.0</ele><time>2026-05-03T08:38:47.999Z</time></trkpt><trkpt lat="42.277313127095496" lon="13.751827064502383"><ele>402.0</ele><time>2026-05-03T08:38:48.999Z</time></trkpt><trkpt lat="42.27740779742216" lon="13.751839350632642"><ele>401.8</ele><time>2026-05-03T08:38:49.999Z</time></trkpt><trkpt lat="42.27748078951987" lon="13.751864403906287"><ele>401.6</ele><time>2026-05-03T08:38:50.999Z</time></trkpt><trkpt lat="42.27756969347607" lon="13.751948081063752"><ele>401.40000000000003</ele><time>2026-05-03T08:38:52.999Z</time></trkpt><trkpt lat="42.27765800292387" lon="13.752000280416807"><ele>401.20000000000005</ele><time>2026-05-03T08:38:53.999Z</time></trkpt><trkpt lat="42.277789010774704" lon="13.752045376572926"><ele>401.0</ele><time>2026-05-03T08:38:54.999Z</time></trkpt><trkpt lat="42.27793149445882" lon="13.752087446229991"><ele>401.3333333333333</ele><time>2026-05-03T08:38:55.999Z</time></trkpt><trkpt lat="42.278079469362716" lon="13.752140294570662"><ele>401.66666666666663</ele><time>2026-05-03T08:38:56.999Z</time></trkpt><trkpt lat="42.27824481314185" lon="13.752190679226874"><ele>402.0</ele><time>2026-05-03T08:38:57.999Z</time></trkpt><trkpt lat="42.27844112536412" lon="13.752214337464018"><ele>402.0</ele><time>2026-05-03T08:38:58.999Z</time></trkpt><trkpt lat="42.278623165701276" lon="13.752211769899404"><ele>402.0</ele><time>2026-05-03T08:38:59.999Z</time></trkpt><trkpt lat="42.27878983643706" lon="13.752205413706356"><ele>402.0</ele><time>2026-05-03T08:39:00.999Z</time></trkpt><trkpt lat="42.27895608065418" lon="13.752206331452292"><ele>400.66666666666663</ele><time>2026-05-03T08:39:01.999Z</time></trkpt><trkpt lat="42.27913184858309" lon="13.75220783543279"><ele>399.3333333333333</ele><time>2026-05-03T08:39:02.999Z</time></trkpt><trkpt lat="42.27930711652332" lon="13.75221323226205"><ele>398.0</ele><time>2026-05-03T08:39:03.999Z</time></trkpt><trkpt lat="42.27949951737914" lon="13.75220275222795"><ele>398.0</ele><time>2026-05-03T08:39:04.999Z</time></trkpt><trkpt lat="42.27969303440185" lon="13.752183985319585"><ele>398.0</ele><time>2026-05-03T08:39:05.999Z</time></trkpt><trkpt lat="42.27989263181269" lon="13.752168734028142"><ele>398.0</ele><time>2026-05-03T08:39:06.999Z</time></trkpt><trkpt lat="42.2801001606797" lon="13.752167510482705"><ele>395.66666666666663</ele><time>2026-05-03T08:39:07.999Z</time></trkpt><trkpt lat="42.28029038615782" lon="13.752190120887875"><ele>393.33333333333337</ele><time>2026-05-03T08:39:08.999Z</time></trkpt><trkpt lat="42.28046755927985" lon="13.752237606102662"><ele>391.0</ele><time>2026-05-03T08:39:09.999Z</time></trkpt><trkpt lat="42.28064240725829" lon="13.752313081967879"><ele>390.33333333333337</ele><time>2026-05-03T08:39:10.999Z</time></trkpt><trkpt lat="42.28080654647843" lon="13.752413125067784"><ele>389.66666666666663</ele><time>2026-05-03T08:39:12Z</time></trkpt><trkpt lat="42.28096398640132" lon="13.752566140006175"><ele>389.0</ele><time>2026-05-03T08:39:13Z</time></trkpt><trkpt lat="42.28111844013551" lon="13.752684397058845"><ele>389.0</ele><time>2026-05-03T08:39:14Z</time></trkpt><trkpt lat="42.28126024935526" lon="13.752842631959567"><ele>389.0</ele><time>2026-05-03T08:39:15Z</time></trkpt><trkpt lat="42.28140674896835" lon="13.75301583680456"><ele>389.0</ele><time>2026-05-03T08:39:16Z</time></trkpt><trkpt lat="42.281574277391655" lon="13.7532103751818"><ele>389.0</ele><time>2026-05-03T08:39:17Z</time></trkpt><trkpt lat="42.28175181158392" lon="13.753406404033482"><ele>389.0</ele><time>2026-05-03T08:39:18Z</time></trkpt><trkpt lat="42.28189946723899" lon="13.753578682786863"><ele>389.0</ele><time>2026-05-03T08:39:19Z</time></trkpt><trkpt lat="42.28204210703252" lon="13.753732667598324"><ele>389.66666666666663</ele><time>2026-05-03T08:39:20Z</time></trkpt><trkpt lat="42.28221029420392" lon="13.753870391766979"><ele>390.33333333333337</ele><time>2026-05-03T08:39:21Z</time></trkpt><trkpt lat="42.282404293810025" lon="13.753996492062623"><ele>391.0</ele><time>2026-05-03T08:39:22Z</time></trkpt><trkpt lat="42.282605557647535" lon="13.754116461927065"><ele>391.0</ele><time>2026-05-03T08:39:23Z</time></trkpt><trkpt lat="42.282805140272814" lon="13.754229075941835"><ele>391.0</ele><time>2026-05-03T08:39:24Z</time></trkpt><trkpt lat="42.28300012851665" lon="13.754331412851808"><ele>391.0</ele><time>2026-05-03T08:39:25Z</time></trkpt><trkpt lat="42.283175320459186" lon="13.754424321956009"><ele>390.20000000000005</ele><time>2026-05-03T08:39:26Z</time></trkpt><trkpt lat="42.28331317932088" lon="13.754502136259475"><ele>389.40000000000003</ele><time>2026-05-03T08:39:27Z</time></trkpt><trkpt lat="42.28341903576579" lon="13.754555318656474"><ele>388.6</ele><time>2026-05-03T08:39:28Z</time></trkpt><trkpt lat="42.283501404940104" lon="13.754589066406371"><ele>387.8</ele><time>2026-05-03T08:39:29Z</time></trkpt><trkpt lat="42.283599406114405" lon="13.754589964872341"><ele>387.0</ele><time>2026-05-03T08:39:31Z</time></trkpt><trkpt lat="42.28359310968555" lon="13.754320477850188"><ele>386.0</ele><time>2026-05-03T08:39:35Z</time></trkpt><trkpt lat="42.283559976500015" lon="13.754169544032315"><ele>385.0</ele><time>2026-05-03T08:39:36Z</time></trkpt><trkpt lat="42.28352699813966" lon="13.753989176882811"><ele>384.0</ele><time>2026-05-03T08:39:37Z</time></trkpt><trkpt lat="42.28349313364508" lon="13.753781927696231"><ele>383.0</ele><time>2026-05-03T08:39:38Z</time></trkpt><trkpt lat="42.283467676715304" lon="13.75358224453985"><ele>383.5</ele><time>2026-05-03T08:39:39Z</time></trkpt><trkpt lat="42.283445968519196" lon="13.753397469839017"><ele>384.0</ele><time>2026-05-03T08:39:40Z</time></trkpt><trkpt lat="42.28342855271745" lon="13.753224548592172"><ele>384.5</ele><time>2026-05-03T08:39:41Z</time></trkpt><trkpt lat="42.28341160743548" lon="13.753064633685112"><ele>385.0</ele><time>2026-05-03T08:39:42Z</time></trkpt><trkpt lat="42.283401700554805" lon="13.752897192186843"><ele>385.0</ele><time>2026-05-03T08:39:43Z</time></trkpt><trkpt lat="42.28339655720789" lon="13.752739334004133"><ele>385.0</ele><time>2026-05-03T08:39:44Z</time></trkpt><trkpt lat="42.283396242129804" lon="13.752584424631742"><ele>385.0</ele><time>2026-05-03T08:39:45Z</time></trkpt><trkpt lat="42.283400862649906" lon="13.752447589864715"><ele>385.0</ele><time>2026-05-03T08:39:46Z</time></trkpt><trkpt lat="42.283403983187874" lon="13.752318828864565"><ele>385.0</ele><time>2026-05-03T08:39:47Z</time></trkpt><trkpt lat="42.283405689415005" lon="13.752212204713064"><ele>385.25</ele><time>2026-05-03T08:39:49Z</time></trkpt><trkpt lat="42.28354563721543" lon="13.7522379088427"><ele>385.5</ele><time>2026-05-03T08:39:50Z</time></trkpt><trkpt lat="42.283647203448425" lon="13.752253034728113"><ele>385.75</ele><time>2026-05-03T08:39:51Z</time></trkpt><trkpt lat="42.28377640991002" lon="13.75226609331271"><ele>386.0</ele><time>2026-05-03T08:39:52Z</time></trkpt><trkpt lat="42.28392994484609" lon="13.752319340801652"><ele>385.3333333333333</ele><time>2026-05-03T08:39:53Z</time></trkpt><trkpt lat="42.284098893265174" lon="13.752354287982351"><ele>384.66666666666663</ele><time>2026-05-03T08:39:54Z</time></trkpt><trkpt lat="42.28426620834992" lon="13.752392590349768"><ele>384.0</ele><time>2026-05-03T08:39:55Z</time></trkpt><trkpt lat="42.28443659569825" lon="13.75244930183419"><ele>384.0</ele><time>2026-05-03T08:39:56Z</time></trkpt><trkpt lat="42.28460993197032" lon="13.752514379074137"><ele>384.0</ele><time>2026-05-03T08:39:57Z</time></trkpt><trkpt lat="42.284763481749586" lon="13.75257903879709"><ele>384.0</ele><time>2026-05-03T08:39:58Z</time></trkpt><trkpt lat="42.284907678434095" lon="13.752640229054096"><ele>383.5</ele><time>2026-05-03T08:39:59Z</time></trkpt><trkpt lat="42.28503894281079" lon="13.75271189735324"><ele>383.0</ele><time>2026-05-03T08:40:00Z</time></trkpt><trkpt lat="42.285160454324604" lon="13.752784617282149"><ele>382.5</ele><time>2026-05-03T08:40:01Z</time></trkpt><trkpt lat="42.28528197771652" lon="13.752850282685452"><ele>382.0</ele><time>2026-05-03T08:40:02Z</time></trkpt><trkpt lat="42.28540845295288" lon="13.752902113478983"><ele>382.0</ele><time>2026-05-03T08:40:03Z</time></trkpt><trkpt lat="42.28553938609567" lon="13.752946833717258"><ele>382.0</ele><time>2026-05-03T08:40:04Z</time></trkpt><trkpt lat="42.28566903238614" lon="13.752991542622178"><ele>382.0</ele><time>2026-05-03T08:40:05Z</time></trkpt><trkpt lat="42.285791417526816" lon="13.753036084564018"><ele>382.0</ele><time>2026-05-03T08:40:06Z</time></trkpt><trkpt lat="42.285903862933786" lon="13.753072582641726"><ele>381.66666666666663</ele><time>2026-05-03T08:40:07Z</time></trkpt><trkpt lat="42.28599625195448" lon="13.753102052767748"><ele>381.3333333333333</ele><time>2026-05-03T08:40:08Z</time></trkpt><trkpt lat="42.28606685940217" lon="13.753122758336046"><ele>381.0</ele><time>2026-05-03T08:40:09Z</time></trkpt><trkpt lat="42.28614979608631" lon="13.753166146822991"><ele>380.6666666666667</ele><time>2026-05-03T08:40:11Z</time></trkpt><trkpt lat="42.286226997236554" lon="13.753169604625901"><ele>380.33333333333337</ele><time>2026-05-03T08:40:14Z</time></trkpt><trkpt lat="42.28633365781038" lon="13.753175833310802"><ele>380.0</ele><time>2026-05-03T08:40:15Z</time></trkpt><trkpt lat="42.286452672182726" lon="13.75320932016273"><ele>379.5</ele><time>2026-05-03T08:40:16Z</time></trkpt><trkpt lat="42.28657855243185" lon="13.7532479681768"><ele>379.0</ele><time>2026-05-03T08:40:16.999Z</time></trkpt><trkpt lat="42.28669978490979" lon="13.753290559707494"><ele>378.5</ele><time>2026-05-03T08:40:17.999Z</time></trkpt><trkpt lat="42.28683123596794" lon="13.753322928823016"><ele>378.0</ele><time>2026-05-03T08:40:18.999Z</time></trkpt><trkpt lat="42.28696316749702" lon="13.753337664112525"><ele>378.0</ele><time>2026-05-03T08:40:19.999Z</time></trkpt><trkpt lat="42.2870857008175" lon="13.753402110794628"><ele>378.0</ele><time>2026-05-03T08:40:20.999Z</time></trkpt><trkpt lat="42.28720407209181" lon="13.753460191355847"><ele>378.0</ele><time>2026-05-03T08:40:21.999Z</time></trkpt><trkpt lat="42.28731262421032" lon="13.753509899246428"><ele>378.0</ele><time>2026-05-03T08:40:22.999Z</time></trkpt><trkpt lat="42.28741896227208" lon="13.753583163659364"><ele>377.4</ele><time>2026-05-03T08:40:23.999Z</time></trkpt><trkpt lat="42.287521536659575" lon="13.753648852298891"><ele>376.79999999999995</ele><time>2026-05-03T08:40:24.999Z</time></trkpt><trkpt lat="42.28761963226984" lon="13.753709263720129"><ele>376.2</ele><time>2026-05-03T08:40:25.999Z</time></trkpt><trkpt lat="42.287703800518656" lon="13.753767115498118"><ele>375.6</ele><time>2026-05-03T08:40:26.999Z</time></trkpt><trkpt lat="42.28775873167927" lon="13.753811920970302"><ele>375.0</ele><time>2026-05-03T08:40:27.999Z</time></trkpt><trkpt lat="42.2878453560913" lon="13.753827254880656"><ele>375.0</ele><time>2026-05-03T08:40:29.999Z</time></trkpt><trkpt lat="42.2878903542437" lon="13.753756370586581"><ele>375.0</ele><time>2026-05-03T08:40:30.999Z</time></trkpt><trkpt lat="42.287936898824704" lon="13.753669192629605"><ele>375.0</ele><time>2026-05-03T08:40:31.999Z</time></trkpt><trkpt lat="42.28800127735789" lon="13.753585116533095"><ele>375.0</ele><time>2026-05-03T08:40:32.999Z</time></trkpt><trkpt lat="42.28806780174371" lon="13.753492197632866"><ele>375.0</ele><time>2026-05-03T08:40:33.999Z</time></trkpt><trkpt lat="42.28813288706163" lon="13.753376045933091"><ele>375.0</ele><time>2026-05-03T08:40:34.999Z</time></trkpt><trkpt lat="42.288240163491395" lon="13.753260182597469"><ele>374.6666666666667</ele><time>2026-05-03T08:40:35.999Z</time></trkpt><trkpt lat="42.28834936599543" lon="13.753129260289777"><ele>374.33333333333337</ele><time>2026-05-03T08:40:36.999Z</time></trkpt><trkpt lat="42.2884540842959" lon="13.75296583082184"><ele>374.0</ele><time>2026-05-03T08:40:37.999Z</time></trkpt><trkpt lat="42.28855089207543" lon="13.75279443052735"><ele>375.0</ele><time>2026-05-03T08:40:38.999Z</time></trkpt><trkpt lat="42.28865686097004" lon="13.752607623886222"><ele>376.0</ele><time>2026-05-03T08:40:39.999Z</time></trkpt><trkpt lat="42.28876036364847" lon="13.752433941311494"><ele>377.0</ele><time>2026-05-03T08:40:40.999Z</time></trkpt><trkpt lat="42.28885365866447" lon="13.752264600060256"><ele>377.0</ele><time>2026-05-03T08:40:41.999Z</time></trkpt><trkpt lat="42.28893577680446" lon="13.752085123157368"><ele>377.0</ele><time>2026-05-03T08:40:42.999Z</time></trkpt><trkpt lat="42.28901738632247" lon="13.751917389703102"><ele>377.0</ele><time>2026-05-03T08:40:43.999Z</time></trkpt><trkpt lat="42.28909537860286" lon="13.751742942529274"><ele>378.6666666666667</ele><time>2026-05-03T08:40:44.999Z</time></trkpt><trkpt lat="42.289178329005075" lon="13.751546600235791"><ele>380.3333333333333</ele><time>2026-05-03T08:40:45.999Z</time></trkpt><trkpt lat="42.289273694911174" lon="13.751298793912786"><ele>382.0</ele><time>2026-05-03T08:40:46.999Z</time></trkpt><trkpt lat="42.28936350963175" lon="13.751050268985233"><ele>382.0</ele><time>2026-05-03T08:40:47.999Z</time></trkpt><trkpt lat="42.28943843077542" lon="13.750864649894122"><ele>382.0</ele><time>2026-05-03T08:40:48.999Z</time></trkpt><trkpt lat="42.28949857185484" lon="13.750713909314689"><ele>382.0</ele><time>2026-05-03T08:40:49.999Z</time></trkpt><trkpt lat="42.28956950701563" lon="13.750549127525659"><ele>382.0</ele><time>2026-05-03T08:40:50.999Z</time></trkpt><trkpt lat="42.28966870388573" lon="13.750388451566039"><ele>381.66666666666663</ele><time>2026-05-03T08:40:51.999Z</time></trkpt><trkpt lat="42.28978722385063" lon="13.750226122224458"><ele>381.3333333333333</ele><time>2026-05-03T08:40:52.999Z</time></trkpt><trkpt lat="42.289905927278745" lon="13.750036357086447"><ele>381.0</ele><time>2026-05-03T08:40:53.999Z</time></trkpt><trkpt lat="42.2900040433173" lon="13.749820018550201"><ele>381.0</ele><time>2026-05-03T08:40:54.999Z</time></trkpt><trkpt lat="42.29009636745612" lon="13.749608574065736"><ele>381.0</ele><time>2026-05-03T08:40:55.999Z</time></trkpt><trkpt lat="42.29015420073094" lon="13.7494469211358"><ele>381.0</ele><time>2026-05-03T08:40:56.999Z</time></trkpt><trkpt lat="42.29020786678766" lon="13.749301040814347"><ele>381.0</ele><time>2026-05-03T08:40:57.999Z</time></trkpt><trkpt lat="42.29028363474224" lon="13.749170148068819"><ele>381.0</ele><time>2026-05-03T08:40:58.999Z</time></trkpt><trkpt lat="42.29040086105052" lon="13.748997564055838"><ele>381.0</ele><time>2026-05-03T08:40:59.999Z</time></trkpt><trkpt lat="42.29053265214414" lon="13.748801050578956"><ele>381.0</ele><time>2026-05-03T08:41:00.999Z</time></trkpt><trkpt lat="42.29064785108451" lon="13.74860330083867"><ele>381.3333333333333</ele><time>2026-05-03T08:41:01.999Z</time></trkpt><trkpt lat="42.29075794305809" lon="13.748400687198096"><ele>381.66666666666663</ele><time>2026-05-03T08:41:02.999Z</time></trkpt><trkpt lat="42.29087741583708" lon="13.748194838746414"><ele>382.0</ele><time>2026-05-03T08:41:03.999Z</time></trkpt><trkpt lat="42.29099199916003" lon="13.748010426080185"><ele>382.0</ele><time>2026-05-03T08:41:04.999Z</time></trkpt><trkpt lat="42.29111050015864" lon="13.747809219947886"><ele>382.0</ele><time>2026-05-03T08:41:05.999Z</time></trkpt><trkpt lat="42.29122462787002" lon="13.747613848084246"><ele>382.0</ele><time>2026-05-03T08:41:06.999Z</time></trkpt><trkpt lat="42.291321848573986" lon="13.747434467761668"><ele>382.5</ele><time>2026-05-03T08:41:07.999Z</time></trkpt><trkpt lat="42.29140788689722" lon="13.747273244736869"><ele>383.0</ele><time>2026-05-03T08:41:08.999Z</time></trkpt><trkpt lat="42.291488576002976" lon="13.747138956664005"><ele>383.5</ele><time>2026-05-03T08:41:09.999Z</time></trkpt><trkpt lat="42.29158030060163" lon="13.747008546998373"><ele>384.0</ele><time>2026-05-03T08:41:10.999Z</time></trkpt><trkpt lat="42.29166097837887" lon="13.746881164114338"><ele>384.5</ele><time>2026-05-03T08:41:11.999Z</time></trkpt><trkpt lat="42.29171920149396" lon="13.74675432783899"><ele>385.0</ele><time>2026-05-03T08:41:12.999Z</time></trkpt><trkpt lat="42.29176921840737" lon="13.746652652466857"><ele>385.5</ele><time>2026-05-03T08:41:13.999Z</time></trkpt><trkpt lat="42.29181760101881" lon="13.746593370685568"><ele>386.0</ele><time>2026-05-03T08:41:14.999Z</time></trkpt><trkpt lat="42.291864881702885" lon="13.746526083214883"><ele>386.5</ele><time>2026-05-03T08:41:16.999Z</time></trkpt><trkpt lat="42.29192154785482" lon="13.746651970960308"><ele>387.0</ele><time>2026-05-03T08:41:18Z</time></trkpt><trkpt lat="42.2919849080395" lon="13.746675413829553"><ele>387.0</ele><time>2026-05-03T08:41:19Z</time></trkpt><trkpt lat="42.29207582587027" lon="13.746773262032304"><ele>387.0</ele><time>2026-05-03T08:41:20Z</time></trkpt><trkpt lat="42.292207779122215" lon="13.746879246516368"><ele>387.0</ele><time>2026-05-03T08:41:21Z</time></trkpt><trkpt lat="42.29236677017996" lon="13.746982022875871"><ele>387.0</ele><time>2026-05-03T08:41:22Z</time></trkpt><trkpt lat="42.29251227279264" lon="13.747072495303911"><ele>385.75</ele><time>2026-05-03T08:41:23Z</time></trkpt><trkpt lat="42.29263162378714" lon="13.747146887185428"><ele>384.5</ele><time>2026-05-03T08:41:24Z</time></trkpt><trkpt lat="42.29274382411237" lon="13.74721022267777"><ele>383.25</ele><time>2026-05-03T08:41:25Z</time></trkpt><trkpt lat="42.292861199014744" lon="13.747260213092593"><ele>382.0</ele><time>2026-05-03T08:41:26Z</time></trkpt><trkpt lat="42.292997067373975" lon="13.747307601926288"><ele>383.25</ele><time>2026-05-03T08:41:27Z</time></trkpt><trkpt lat="42.29314098942931" lon="13.747374762348766"><ele>384.5</ele><time>2026-05-03T08:41:28Z</time></trkpt><trkpt lat="42.293265325780894" lon="13.747447445341713"><ele>385.75</ele><time>2026-05-03T08:41:29Z</time></trkpt><trkpt lat="42.2933916019705" lon="13.74754347357548"><ele>387.0</ele><time>2026-05-03T08:41:30Z</time></trkpt><trkpt lat="42.293560094820585" lon="13.747661410690858"><ele>387.0</ele><time>2026-05-03T08:41:31Z</time></trkpt><trkpt lat="42.29375747154453" lon="13.747779183357874"><ele>387.0</ele><time>2026-05-03T08:41:32Z</time></trkpt><trkpt lat="42.2939389221807" lon="13.74787885606434"><ele>387.0</ele><time>2026-05-03T08:41:33Z</time></trkpt><trkpt lat="42.29412014065185" lon="13.747961147867102"><ele>387.0</ele><time>2026-05-03T08:41:34Z</time></trkpt><trkpt lat="42.29430372588584" lon="13.748048063902361"><ele>387.0</ele><time>2026-05-03T08:41:35Z</time></trkpt><trkpt lat="42.29447715121151" lon="13.748146317247706"><ele>387.0</ele><time>2026-05-03T08:41:36Z</time></trkpt><trkpt lat="42.29465049013883" lon="13.748280538894779"><ele>389.66666666666663</ele><time>2026-05-03T08:41:37Z</time></trkpt><trkpt lat="42.294839506299724" lon="13.748378216076464"><ele>392.3333333333333</ele><time>2026-05-03T08:41:38Z</time></trkpt><trkpt lat="42.294981212992504" lon="13.748472314471009"><ele>395.0</ele><time>2026-05-03T08:41:39Z</time></trkpt><trkpt lat="42.295074309093195" lon="13.748538406946823"><ele>395.4</ele><time>2026-05-03T08:41:40Z</time></trkpt><trkpt lat="42.29512059679136" lon="13.74860863021715"><ele>395.8</ele><time>2026-05-03T08:41:41Z</time></trkpt><trkpt lat="42.2951928797319" lon="13.748693880686117"><ele>396.20000000000005</ele><time>2026-05-03T08:41:45Z</time></trkpt><trkpt lat="42.29525849036414" lon="13.748740236436628"><ele>396.6</ele><time>2026-05-03T08:41:46Z</time></trkpt><trkpt lat="42.295358321252415" lon="13.74878171056922"><ele>397.0</ele><time>2026-05-03T08:41:47Z</time></trkpt><trkpt lat="42.29547095891222" lon="13.748829609522438"><ele>400.0</ele><time>2026-05-03T08:41:48Z</time></trkpt><trkpt lat="42.29562593004658" lon="13.748891680851647"><ele>403.0</ele><time>2026-05-03T08:41:49Z</time></trkpt><trkpt lat="42.29576307006207" lon="13.7489556633404"><ele>406.0</ele><time>2026-05-03T08:41:50Z</time></trkpt><trkpt lat="42.29587069840228" lon="13.74905025910976"><ele>409.0</ele><time>2026-05-03T08:41:51Z</time></trkpt><trkpt lat="42.295971371088314" lon="13.749146901488517"><ele>409.0</ele><time>2026-05-03T08:41:52Z</time></trkpt><trkpt lat="42.29607741710352" lon="13.749252617282737"><ele>409.0</ele><time>2026-05-03T08:41:53Z</time></trkpt><trkpt lat="42.29615607885908" lon="13.749399580400112"><ele>409.0</ele><time>2026-05-03T08:41:54Z</time></trkpt><trkpt lat="42.29625719486237" lon="13.74951251811494"><ele>409.0</ele><time>2026-05-03T08:41:55Z</time></trkpt><trkpt lat="42.29635474478717" lon="13.749620460137407"><ele>412.75</ele><time>2026-05-03T08:41:56Z</time></trkpt><trkpt lat="42.29648700588152" lon="13.749687822700517"><ele>416.5</ele><time>2026-05-03T08:41:57Z</time></trkpt><trkpt lat="42.29661601525767" lon="13.74975701096826"><ele>420.25</ele><time>2026-05-03T08:41:58Z</time></trkpt><trkpt lat="42.296730790887935" lon="13.749847566718019"><ele>424.0</ele><time>2026-05-03T08:41:59Z</time></trkpt><trkpt lat="42.29682956014052" lon="13.749955644798025"><ele>424.0</ele><time>2026-05-03T08:42:00Z</time></trkpt><trkpt lat="42.29691032817968" lon="13.750066935315147"><ele>424.0</ele><time>2026-05-03T08:42:01Z</time></trkpt><trkpt lat="42.29697363067225" lon="13.750160090281309"><ele>424.0</ele><time>2026-05-03T08:42:02Z</time></trkpt><trkpt lat="42.29702176917128" lon="13.750236427395116"><ele>424.0</ele><time>2026-05-03T08:42:03Z</time></trkpt><trkpt lat="42.29706781390295" lon="13.75030007221739"><ele>424.0</ele><time>2026-05-03T08:42:04Z</time></trkpt><trkpt lat="42.29720140094582" lon="13.750369172770494"><ele>424.1666666666667</ele><time>2026-05-03T08:42:06Z</time></trkpt><trkpt lat="42.29728779172798" lon="13.750411767570416"><ele>424.33333333333337</ele><time>2026-05-03T08:42:07Z</time></trkpt><trkpt lat="42.29736537119672" lon="13.750451557666775"><ele>424.5</ele><time>2026-05-03T08:42:08Z</time></trkpt><trkpt lat="42.297435476629786" lon="13.750488334883173"><ele>424.66666666666663</ele><time>2026-05-03T08:42:09Z</time></trkpt><trkpt lat="42.29751707373052" lon="13.75041864193037"><ele>424.8333333333333</ele><time>2026-05-03T08:42:13Z</time></trkpt><trkpt lat="42.29756720169115" lon="13.750310968196198"><ele>425.0</ele><time>2026-05-03T08:42:14Z</time></trkpt><trkpt lat="42.29762751066698" lon="13.750191902917411"><ele>425.6</ele><time>2026-05-03T08:42:15Z</time></trkpt><trkpt lat="42.29770176213897" lon="13.750106933273809"><ele>426.2</ele><time>2026-05-03T08:42:16Z</time></trkpt><trkpt lat="42.29779622618018" lon="13.75006116122464"><ele>426.79999999999995</ele><time>2026-05-03T08:42:17Z</time></trkpt><trkpt lat="42.29792376482742" lon="13.750012919439447"><ele>427.4</ele><time>2026-05-03T08:42:18Z</time></trkpt><trkpt lat="42.29801339806836" lon="13.750002952962014"><ele>428.0</ele><time>2026-05-03T08:42:18.999Z</time></trkpt><trkpt lat="42.29810698108858" lon="13.74999854107066"><ele>428.5</ele><time>2026-05-03T08:42:19.999Z</time></trkpt><trkpt lat="42.298244110837885" lon="13.750012671329221"><ele>429.0</ele><time>2026-05-03T08:42:20.999Z</time></trkpt><trkpt lat="42.298407427071346" lon="13.75002653076794"><ele>429.5</ele><time>2026-05-03T08:42:21.999Z</time></trkpt><trkpt lat="42.298536096552866" lon="13.750032215360696"><ele>430.0</ele><time>2026-05-03T08:42:22.999Z</time></trkpt><trkpt lat="42.29868721469886" lon="13.750005141803884"><ele>430.0</ele><time>2026-05-03T08:42:23.999Z</time></trkpt><trkpt lat="42.29884982115283" lon="13.749957977607071"><ele>430.0</ele><time>2026-05-03T08:42:24.999Z</time></trkpt><trkpt lat="42.29904464198215" lon="13.749917709741458"><ele>430.0</ele><time>2026-05-03T08:42:25.999Z</time></trkpt><trkpt lat="42.29923561306489" lon="13.74987534368366"><ele>429.25</ele><time>2026-05-03T08:42:26.999Z</time></trkpt><trkpt lat="42.29940228363064" lon="13.749855524774674"><ele>428.5</ele><time>2026-05-03T08:42:27.999Z</time></trkpt><trkpt lat="42.29952187160084" lon="13.749851947857636"><ele>427.75</ele><time>2026-05-03T08:42:28.999Z</time></trkpt><trkpt lat="42.299622806182064" lon="13.749838334340634"><ele>427.0</ele><time>2026-05-03T08:42:29.999Z</time></trkpt><trkpt lat="42.299731123410965" lon="13.749792712688887"><ele>425.6666666666667</ele><time>2026-05-03T08:42:30.999Z</time></trkpt><trkpt lat="42.299863065430735" lon="13.749722596667292"><ele>424.33333333333337</ele><time>2026-05-03T08:42:31.999Z</time></trkpt><trkpt lat="42.30003734835591" lon="13.749642916607513"><ele>423.0</ele><time>2026-05-03T08:42:32.999Z</time></trkpt><trkpt lat="42.300222626110425" lon="13.749576972600487"><ele>423.0</ele><time>2026-05-03T08:42:33.999Z</time></trkpt><trkpt lat="42.300371014601915" lon="13.749537393489282"><ele>423.0</ele><time>2026-05-03T08:42:34.999Z</time></trkpt><trkpt lat="42.30052026168178" lon="13.749484302525866"><ele>423.0</ele><time>2026-05-03T08:42:35.999Z</time></trkpt><trkpt lat="42.30070418941412" lon="13.749411407941139"><ele>429.66666666666663</ele><time>2026-05-03T08:42:36.999Z</time></trkpt><trkpt lat="42.300886309906055" lon="13.749360391643574"><ele>436.3333333333333</ele><time>2026-05-03T08:42:37.999Z</time></trkpt><trkpt lat="42.301045903199764" lon="13.749340126019264"><ele>443.0</ele><time>2026-05-03T08:42:38.999Z</time></trkpt><trkpt lat="42.30117415676679" lon="13.749312032371652"><ele>443.0</ele><time>2026-05-03T08:42:39.999Z</time></trkpt><trkpt lat="42.301283347582654" lon="13.749262166795933"><ele>442.99999999999994</ele><time>2026-05-03T08:42:40.999Z</time></trkpt><trkpt lat="42.30137447068945" lon="13.749195739391478"><ele>442.99999999999994</ele><time>2026-05-03T08:42:41.999Z</time></trkpt><trkpt lat="42.301433962525316" lon="13.749125124003626"><ele>443.0</ele><time>2026-05-03T08:42:42.999Z</time></trkpt><trkpt lat="42.30148795887423" lon="13.749027239044985"><ele>443.0</ele><time>2026-05-03T08:42:43.999Z</time></trkpt><trkpt lat="42.30154749072609" lon="13.748895448457844"><ele>439.0</ele><time>2026-05-03T08:42:44.999Z</time></trkpt><trkpt lat="42.30163176782896" lon="13.748750442414178"><ele>435.0</ele><time>2026-05-03T08:42:45.999Z</time></trkpt><trkpt lat="42.30174079370165" lon="13.748610485304253"><ele>431.0</ele><time>2026-05-03T08:42:46.999Z</time></trkpt><trkpt lat="42.301862649299686" lon="13.74846172123099"><ele>435.75</ele><time>2026-05-03T08:42:47.999Z</time></trkpt><trkpt lat="42.301963047762285" lon="13.748363956626548"><ele>440.5</ele><time>2026-05-03T08:42:48.999Z</time></trkpt><trkpt lat="42.30209063814813" lon="13.748275255526304"><ele>445.25</ele><time>2026-05-03T08:42:49.999Z</time></trkpt><trkpt lat="42.30223729590894" lon="13.748184461142783"><ele>450.0</ele><time>2026-05-03T08:42:50.999Z</time></trkpt><trkpt lat="42.302380255590535" lon="13.748061098299521"><ele>450.0</ele><time>2026-05-03T08:42:51.999Z</time></trkpt><trkpt lat="42.30252123046724" lon="13.747957018450105"><ele>450.0</ele><time>2026-05-03T08:42:52.999Z</time></trkpt><trkpt lat="42.30264973256129" lon="13.747899957915434"><ele>450.0</ele><time>2026-05-03T08:42:53.999Z</time></trkpt><trkpt lat="42.302785741444985" lon="13.747847828210627"><ele>450.0</ele><time>2026-05-03T08:42:54.999Z</time></trkpt><trkpt lat="42.30292881060329" lon="13.747843758439577"><ele>452.0</ele><time>2026-05-03T08:42:55.999Z</time></trkpt><trkpt lat="42.30309610938123" lon="13.747873411379457"><ele>454.0</ele><time>2026-05-03T08:42:56.999Z</time></trkpt><trkpt lat="42.303265017087504" lon="13.747910947737092"><ele>456.0</ele><time>2026-05-03T08:42:57.999Z</time></trkpt><trkpt lat="42.303432908836804" lon="13.747956299223619"><ele>456.0</ele><time>2026-05-03T08:42:58.999Z</time></trkpt><trkpt lat="42.30361314336166" lon="13.747997239420329"><ele>456.0</ele><time>2026-05-03T08:42:59.999Z</time></trkpt><trkpt lat="42.30377148237302" lon="13.74802936720176"><ele>456.0</ele><time>2026-05-03T08:43:00.999Z</time></trkpt><trkpt lat="42.303911927060966" lon="13.748065873377817"><ele>461.33333333333337</ele><time>2026-05-03T08:43:01.999Z</time></trkpt><trkpt lat="42.30406189060173" lon="13.74811070226144"><ele>466.6666666666667</ele><time>2026-05-03T08:43:02.999Z</time></trkpt><trkpt lat="42.30418223250193" lon="13.748170561426617"><ele>472.0</ele><time>2026-05-03T08:43:03.999Z</time></trkpt><trkpt lat="42.304334273516176" lon="13.748268101945682"><ele>472.0</ele><time>2026-05-03T08:43:04.999Z</time></trkpt><trkpt lat="42.30449731144673" lon="13.748356612980693"><ele>472.00000000000006</ele><time>2026-05-03T08:43:05.999Z</time></trkpt><trkpt lat="42.30459986829363" lon="13.748396676000304"><ele>472.00000000000006</ele><time>2026-05-03T08:43:06.999Z</time></trkpt><trkpt lat="42.30466858265327" lon="13.748408603224828"><ele>472.0</ele><time>2026-05-03T08:43:07.999Z</time></trkpt><trkpt lat="42.304761692730814" lon="13.74840080180624"><ele>472.0</ele><time>2026-05-03T08:43:08.999Z</time></trkpt><trkpt lat="42.304865155710544" lon="13.748372741887428"><ele>475.0</ele><time>2026-05-03T08:43:09.999Z</time></trkpt><trkpt lat="42.304991147286" lon="13.748334989235554"><ele>478.00000000000006</ele><time>2026-05-03T08:43:10.999Z</time></trkpt><trkpt lat="42.30509793450226" lon="13.748326454680745"><ele>481.00000000000006</ele><time>2026-05-03T08:43:11.999Z</time></trkpt><trkpt lat="42.30516590514914" lon="13.748352867378694"><ele>484.0</ele><time>2026-05-03T08:43:12.999Z</time></trkpt><trkpt lat="42.30526333113268" lon="13.748481887673163"><ele>487.0</ele><time>2026-05-03T08:43:14.999Z</time></trkpt><trkpt lat="42.305349582950086" lon="13.74850879012043"><ele>487.0</ele><time>2026-05-03T08:43:15.999Z</time></trkpt><trkpt lat="42.30544877917825" lon="13.748503238089457"><ele>487.00000000000006</ele><time>2026-05-03T08:43:16.999Z</time></trkpt><trkpt lat="42.30556561178234" lon="13.74849719596026"><ele>487.00000000000006</ele><time>2026-05-03T08:43:18.999Z</time></trkpt><trkpt lat="42.305655237178684" lon="13.748487556768534"><ele>487.0</ele><time>2026-05-03T08:43:19.999Z</time></trkpt><trkpt lat="42.30576205412199" lon="13.748460967136328"><ele>487.0</ele><time>2026-05-03T08:43:20.999Z</time></trkpt><trkpt lat="42.30587021748427" lon="13.748411533900526"><ele>489.0</ele><time>2026-05-03T08:43:21.999Z</time></trkpt><trkpt lat="42.305995376079764" lon="13.748322416112533"><ele>491.0</ele><time>2026-05-03T08:43:22.999Z</time></trkpt><trkpt lat="42.306148737522456" lon="13.74823603979631"><ele>493.0</ele><time>2026-05-03T08:43:24Z</time></trkpt><trkpt lat="42.306327183865974" lon="13.748161271304665"><ele>492.0</ele><time>2026-05-03T08:43:25Z</time></trkpt><trkpt lat="42.30652191324751" lon="13.74807622137796"><ele>491.0</ele><time>2026-05-03T08:43:26Z</time></trkpt><trkpt lat="42.30667161663118" lon="13.7479990742336"><ele>490.0</ele><time>2026-05-03T08:43:27Z</time></trkpt><trkpt lat="42.30677059121879" lon="13.747953604098237"><ele>490.0</ele><time>2026-05-03T08:43:28Z</time></trkpt><trkpt lat="42.30686586815841" lon="13.747928166197422"><ele>490.0</ele><time>2026-05-03T08:43:29Z</time></trkpt><trkpt lat="42.3069847635621" lon="13.74791443411254"><ele>490.0</ele><time>2026-05-03T08:43:30Z</time></trkpt><trkpt lat="42.30711833503131" lon="13.747906079280684"><ele>490.0</ele><time>2026-05-03T08:43:31Z</time></trkpt><trkpt lat="42.30724980555128" lon="13.747905482424756"><ele>489.33333333333337</ele><time>2026-05-03T08:43:32Z</time></trkpt><trkpt lat="42.30737302725957" lon="13.747922488695156"><ele>488.6666666666667</ele><time>2026-05-03T08:43:33Z</time></trkpt><trkpt lat="42.30746139268882" lon="13.747932012846533"><ele>488.0</ele><time>2026-05-03T08:43:34Z</time></trkpt><trkpt lat="42.30753407382484" lon="13.747928551593446"><ele>487.33333333333337</ele><time>2026-05-03T08:43:35Z</time></trkpt><trkpt lat="42.30760165004443" lon="13.747919360824424"><ele>486.6666666666667</ele><time>2026-05-03T08:43:36Z</time></trkpt><trkpt lat="42.30768011521075" lon="13.747912525254472"><ele>486.0</ele><time>2026-05-03T08:43:37Z</time></trkpt><trkpt lat="42.30774997181282" lon="13.74791034024538"><ele>486.0</ele><time>2026-05-03T08:43:38Z</time></trkpt><trkpt lat="42.30784775163544" lon="13.747905361991625"><ele>486.0</ele><time>2026-05-03T08:43:39Z</time></trkpt><trkpt lat="42.30793830543472" lon="13.7478956226067"><ele>486.0</ele><time>2026-05-03T08:43:40Z</time></trkpt><trkpt lat="42.308047354890746" lon="13.747885390933742"><ele>486.0</ele><time>2026-05-03T08:43:41Z</time></trkpt><trkpt lat="42.308140205068305" lon="13.74787794182083"><ele>486.0</ele><time>2026-05-03T08:43:42Z</time></trkpt><trkpt lat="42.30824404881245" lon="13.74786466828076"><ele>486.1666666666667</ele><time>2026-05-03T08:43:43Z</time></trkpt><trkpt lat="42.308345376882144" lon="13.747836635067506"><ele>486.33333333333337</ele><time>2026-05-03T08:43:44Z</time></trkpt><trkpt lat="42.308435163031895" lon="13.747793172606293"><ele>486.5</ele><time>2026-05-03T08:43:45Z</time></trkpt><trkpt lat="42.30850456856609" lon="13.747776794965676"><ele>486.6666666666667</ele><time>2026-05-03T08:43:46Z</time></trkpt><trkpt lat="42.308583001157125" lon="13.747788462247138"><ele>486.83333333333337</ele><time>2026-05-03T08:43:48Z</time></trkpt><trkpt lat="42.30867891472424" lon="13.747787467163796"><ele>487.0</ele><time>2026-05-03T08:43:50.999Z</time></trkpt><trkpt lat="42.308767391104396" lon="13.747787678781012"><ele>487.00000000000006</ele><time>2026-05-03T08:43:51.999Z</time></trkpt><trkpt lat="42.30884889914396" lon="13.747776980226377"><ele>487.0</ele><time>2026-05-03T08:43:52.999Z</time></trkpt><trkpt lat="42.30891309737893" lon="13.747750915952404"><ele>487.0</ele><time>2026-05-03T08:43:53.999Z</time></trkpt><trkpt lat="42.30896590230657" lon="13.747620938566088"><ele>487.0</ele><time>2026-05-03T08:43:55.999Z</time></trkpt><trkpt lat="42.308970753164424" lon="13.747517197752511"><ele>487.00000000000006</ele><time>2026-05-03T08:43:56.999Z</time></trkpt><trkpt lat="42.30898422313582" lon="13.747407738665215"><ele>487.0</ele><time>2026-05-03T08:43:57.999Z</time></trkpt><trkpt lat="42.30901296870807" lon="13.747312517058713"><ele>489.0</ele><time>2026-05-03T08:43:58.999Z</time></trkpt><trkpt lat="42.30905711430572" lon="13.747219362952928"><ele>491.0</ele><time>2026-05-03T08:43:59.999Z</time></trkpt><trkpt lat="42.30912611679334" lon="13.747105623063023"><ele>493.0</ele><time>2026-05-03T08:44:00.999Z</time></trkpt><trkpt lat="42.309216623059775" lon="13.74696386882769"><ele>495.0</ele><time>2026-05-03T08:44:01.999Z</time></trkpt><trkpt lat="42.30931397117616" lon="13.746813737003986"><ele>499.4</ele><time>2026-05-03T08:44:02.999Z</time></trkpt><trkpt lat="42.30940385369779" lon="13.746675160776228"><ele>503.8</ele><time>2026-05-03T08:44:03.999Z</time></trkpt><trkpt lat="42.30947708296483" lon="13.746566657879985"><ele>508.20000000000005</ele><time>2026-05-03T08:44:04.999Z</time></trkpt><trkpt lat="42.30954091570006" lon="13.746489552813395"><ele>512.6</ele><time>2026-05-03T08:44:05.999Z</time></trkpt><trkpt lat="42.30960223250752" lon="13.746436864459232"><ele>517.0</ele><time>2026-05-03T08:44:06.999Z</time></trkpt><trkpt lat="42.30967916144442" lon="13.74639046620003"><ele>516.8333333333334</ele><time>2026-05-03T08:44:08.999Z</time></trkpt><trkpt lat="42.30976330863415" lon="13.746491414446572"><ele>516.6666666666667</ele><time>2026-05-03T08:44:12.999Z</time></trkpt><trkpt lat="42.30981838826394" lon="13.746536015220123"><ele>516.5</ele><time>2026-05-03T08:44:13.999Z</time></trkpt><trkpt lat="42.309870050158636" lon="13.746589007602271"><ele>516.3333333333334</ele><time>2026-05-03T08:44:14.999Z</time></trkpt><trkpt lat="42.30993317391894" lon="13.746635173281426"><ele>516.1666666666666</ele><time>2026-05-03T08:44:15.999Z</time></trkpt><trkpt lat="42.31000157339914" lon="13.74667783150506"><ele>516.0</ele><time>2026-05-03T08:44:16.999Z</time></trkpt><trkpt lat="42.31006227651781" lon="13.746725510296823"><ele>516.0</ele><time>2026-05-03T08:44:17.999Z</time></trkpt><trkpt lat="42.310128586830686" lon="13.746780473844888"><ele>516.0</ele><time>2026-05-03T08:44:18.999Z</time></trkpt><trkpt lat="42.31020030430489" lon="13.746830667138502"><ele>516.0</ele><time>2026-05-03T08:44:19.999Z</time></trkpt><trkpt lat="42.31026478518478" lon="13.746857279116838"><ele>516.0</ele><time>2026-05-03T08:44:20.999Z</time></trkpt><trkpt lat="42.310394215355444" lon="13.746926210012935"><ele>516.0</ele><time>2026-05-03T08:44:22.999Z</time></trkpt><trkpt lat="42.31048965450731" lon="13.746975923983186"><ele>510.75</ele><time>2026-05-03T08:44:23.999Z</time></trkpt><trkpt lat="42.31059034012647" lon="13.747034055135286"><ele>505.5</ele><time>2026-05-03T08:44:24.999Z</time></trkpt><trkpt lat="42.31072643785895" lon="13.747101516017635"><ele>500.25</ele><time>2026-05-03T08:44:25.999Z</time></trkpt><trkpt lat="42.310844719776725" lon="13.747163699032152"><ele>495.0</ele><time>2026-05-03T08:44:26.999Z</time></trkpt><trkpt lat="42.31095309800535" lon="13.747213483780445"><ele>495.0</ele><time>2026-05-03T08:44:27.999Z</time></trkpt><trkpt lat="42.311057386495555" lon="13.747268428162927"><ele>495.0</ele><time>2026-05-03T08:44:28.999Z</time></trkpt><trkpt lat="42.31115791078128" lon="13.747319531658906"><ele>495.0</ele><time>2026-05-03T08:44:29.999Z</time></trkpt><trkpt lat="42.31125073030965" lon="13.747362592999165"><ele>495.0</ele><time>2026-05-03T08:44:30.999Z</time></trkpt><trkpt lat="42.31133423453335" lon="13.747405435856122"><ele>495.0</ele><time>2026-05-03T08:44:31.999Z</time></trkpt><trkpt lat="42.3114331356329" lon="13.747454965684392"><ele>497.5</ele><time>2026-05-03T08:44:32.999Z</time></trkpt><trkpt lat="42.31154118342164" lon="13.747516261511748"><ele>500.0</ele><time>2026-05-03T08:44:33.999Z</time></trkpt><trkpt lat="42.31166375247721" lon="13.747579206447528"><ele>502.5</ele><time>2026-05-03T08:44:34.999Z</time></trkpt><trkpt lat="42.31179700249159" lon="13.747649412484092"><ele>505.0</ele><time>2026-05-03T08:44:35.999Z</time></trkpt><trkpt lat="42.31193190383059" lon="13.747728332331244"><ele>495.33333333333337</ele><time>2026-05-03T08:44:36.999Z</time></trkpt><trkpt lat="42.31206976139783" lon="13.747797505009686"><ele>485.66666666666663</ele><time>2026-05-03T08:44:37.999Z</time></trkpt><trkpt lat="42.31221284899619" lon="13.747858133654994"><ele>476.0</ele><time>2026-05-03T08:44:38.999Z</time></trkpt><trkpt lat="42.31236197139138" lon="13.747923978581126"><ele>475.3333333333333</ele><time>2026-05-03T08:44:39.999Z</time></trkpt><trkpt lat="42.31253441585651" lon="13.747998976142439"><ele>474.66666666666663</ele><time>2026-05-03T08:44:40.999Z</time></trkpt><trkpt lat="42.312671125089665" lon="13.74807094362306"><ele>474.0</ele><time>2026-05-03T08:44:41.999Z</time></trkpt><trkpt lat="42.31282296251518" lon="13.74816045225349"><ele>474.0</ele><time>2026-05-03T08:44:42.999Z</time></trkpt><trkpt lat="42.31297408438159" lon="13.748246895275434"><ele>474.0</ele><time>2026-05-03T08:44:43.999Z</time></trkpt><trkpt lat="42.31311169482349" lon="13.748327868375068"><ele>474.0</ele><time>2026-05-03T08:44:44.999Z</time></trkpt><trkpt lat="42.31325421014394" lon="13.748400720134045"><ele>473.5</ele><time>2026-05-03T08:44:45.999Z</time></trkpt><trkpt lat="42.31339021184382" lon="13.748462054970467"><ele>473.0</ele><time>2026-05-03T08:44:46.999Z</time></trkpt><trkpt lat="42.313515515268456" lon="13.748529458466008"><ele>472.5</ele><time>2026-05-03T08:44:47.999Z</time></trkpt><trkpt lat="42.313633460524365" lon="13.748588143485103"><ele>472.0</ele><time>2026-05-03T08:44:48.999Z</time></trkpt><trkpt lat="42.31373222925916" lon="13.748615514697207"><ele>466.25</ele><time>2026-05-03T08:44:49.999Z</time></trkpt><trkpt lat="42.31385654930126" lon="13.748615563895765"><ele>460.5</ele><time>2026-05-03T08:44:50.999Z</time></trkpt><trkpt lat="42.31401312493682" lon="13.7486009703382"><ele>454.75</ele><time>2026-05-03T08:44:51.999Z</time></trkpt><trkpt lat="42.314168482435036" lon="13.748591825049727"><ele>449.0</ele><time>2026-05-03T08:44:52.999Z</time></trkpt><trkpt lat="42.3143235420561" lon="13.748592944813847"><ele>449.0</ele><time>2026-05-03T08:44:53.999Z</time></trkpt><trkpt lat="42.314468369291156" lon="13.748603149735672"><ele>449.0</ele><time>2026-05-03T08:44:54.999Z</time></trkpt><trkpt lat="42.314611727458995" lon="13.74860195325785"><ele>449.0</ele><time>2026-05-03T08:44:55.999Z</time></trkpt><trkpt lat="42.31472995113106" lon="13.748600342252935"><ele>449.0</ele><time>2026-05-03T08:44:56.999Z</time></trkpt><trkpt lat="42.31485483970517" lon="13.748604107559832"><ele>448.75</ele><time>2026-05-03T08:44:57.999Z</time></trkpt><trkpt lat="42.315007656937844" lon="13.748616372685905"><ele>448.5</ele><time>2026-05-03T08:44:58.999Z</time></trkpt><trkpt lat="42.315153746655696" lon="13.748618462599405"><ele>448.25</ele><time>2026-05-03T08:44:59.999Z</time></trkpt><trkpt lat="42.31528458835997" lon="13.748629568661249"><ele>448.0</ele><time>2026-05-03T08:45:00.999Z</time></trkpt><trkpt lat="42.31539807576964" lon="13.748634804356614"><ele>448.0</ele><time>2026-05-03T08:45:01.999Z</time></trkpt><trkpt lat="42.31552188575542" lon="13.748625069691123"><ele>448.0</ele><time>2026-05-03T08:45:02.999Z</time></trkpt><trkpt lat="42.31565520481008" lon="13.74861140286894"><ele>448.0</ele><time>2026-05-03T08:45:03.999Z</time></trkpt><trkpt lat="42.31577676774663" lon="13.748599408393988"><ele>448.0</ele><time>2026-05-03T08:45:04.999Z</time></trkpt><trkpt lat="42.31590373531339" lon="13.748603679656787"><ele>448.75</ele><time>2026-05-03T08:45:05.999Z</time></trkpt><trkpt lat="42.31604931787486" lon="13.748632118501828"><ele>449.5</ele><time>2026-05-03T08:45:06.999Z</time></trkpt><trkpt lat="42.3161722486312" lon="13.748648892819446"><ele>450.25</ele><time>2026-05-03T08:45:07.999Z</time></trkpt><trkpt lat="42.31627864276245" lon="13.74866034275541"><ele>451.0</ele><time>2026-05-03T08:45:08.999Z</time></trkpt><trkpt lat="42.31637315973829" lon="13.748674984529345"><ele>452.00000000000006</ele><time>2026-05-03T08:45:10.999Z</time></trkpt><trkpt lat="42.31643304993492" lon="13.748704390573586"><ele>453.0</ele><time>2026-05-03T08:45:11.998Z</time></trkpt><trkpt lat="42.31648808515963" lon="13.74875057637071"><ele>454.0</ele><time>2026-05-03T08:45:12.998Z</time></trkpt><trkpt lat="42.31656974877042" lon="13.748799677844373"><ele>455.0</ele><time>2026-05-03T08:45:48Z</time></trkpt><trkpt lat="42.31661894025457" lon="13.74886921996104"><ele>456.00000000000006</ele><time>2026-05-03T08:45:49Z</time></trkpt><trkpt lat="42.31669417286204" lon="13.74898703492868"><ele>457.0</ele><time>2026-05-03T08:45:50Z</time></trkpt><trkpt lat="42.31677223931756" lon="13.749098209017506"><ele>457.0</ele><time>2026-05-03T08:45:51Z</time></trkpt><trkpt lat="42.31683479351258" lon="13.749181759271874"><ele>457.0</ele><time>2026-05-03T08:45:52Z</time></trkpt><trkpt lat="42.31688934337999" lon="13.749248721083296"><ele>457.0</ele><time>2026-05-03T08:45:53Z</time></trkpt><trkpt lat="42.31696176571603" lon="13.74934454297871"><ele>457.0</ele><time>2026-05-03T08:45:55Z</time></trkpt><trkpt lat="42.31714471301083" lon="13.74942649276316"><ele>456.20000000000005</ele><time>2026-05-03T08:52:28Z</time></trkpt><trkpt lat="42.31722108338847" lon="13.749477252083008"><ele>455.40000000000003</ele><time>2026-05-03T08:52:29Z</time></trkpt><trkpt lat="42.31730649351699" lon="13.749540010541274"><ele>454.59999999999997</ele><time>2026-05-03T08:52:30Z</time></trkpt><trkpt lat="42.31739086985259" lon="13.749618907444427"><ele>453.79999999999995</ele><time>2026-05-03T08:52:31Z</time></trkpt><trkpt lat="42.3174784997587" lon="13.74970208699902"><ele>453.0</ele><time>2026-05-03T08:52:32Z</time></trkpt><trkpt lat="42.31755702794025" lon="13.749756287938157"><ele>452.99999999999994</ele><time>2026-05-03T08:52:33Z</time></trkpt><trkpt lat="42.317630923412736" lon="13.74978770942791"><ele>453.0</ele><time>2026-05-03T08:52:34Z</time></trkpt><trkpt lat="42.317695859371206" lon="13.749800615249963"><ele>452.99999999999994</ele><time>2026-05-03T08:52:35Z</time></trkpt><trkpt lat="42.31774534222813" lon="13.74985336808157"><ele>452.99999999999994</ele><time>2026-05-03T08:52:36Z</time></trkpt><trkpt lat="42.3177847908737" lon="13.749923159336623"><ele>453.0</ele><time>2026-05-03T08:52:37Z</time></trkpt><trkpt lat="42.31784341203243" lon="13.749977678111975"><ele>452.99999999999994</ele><time>2026-05-03T08:52:38Z</time></trkpt><trkpt lat="42.31791841476095" lon="13.750022152645299"><ele>452.99999999999994</ele><time>2026-05-03T08:52:39Z</time></trkpt><trkpt lat="42.31802874920159" lon="13.750090781602939"><ele>452.6666666666667</ele><time>2026-05-03T08:52:41Z</time></trkpt><trkpt lat="42.31809522792697" lon="13.750134329494287"><ele>452.33333333333337</ele><time>2026-05-03T08:52:42Z</time></trkpt><trkpt lat="42.3181706062675" lon="13.750181299317562"><ele>452.0</ele><time>2026-05-03T08:52:43Z</time></trkpt><trkpt lat="42.3182142545603" lon="13.750246206261577"><ele>451.6666666666667</ele><time>2026-05-03T08:52:45Z</time></trkpt><trkpt lat="42.31816845845772" lon="13.750337617471931"><ele>451.33333333333337</ele><time>2026-05-03T08:52:47Z</time></trkpt><trkpt lat="42.31811708944799" lon="13.75040969189031"><ele>451.0</ele><time>2026-05-03T08:52:48Z</time></trkpt><trkpt lat="42.31804693296011" lon="13.750508860722828"><ele>449.0</ele><time>2026-05-03T08:52:49Z</time></trkpt><trkpt lat="42.31795836660802" lon="13.750660610228126"><ele>447.0</ele><time>2026-05-03T08:52:50Z</time></trkpt><trkpt lat="42.31789326486659" lon="13.750813836532556"><ele>445.0</ele><time>2026-05-03T08:52:51Z</time></trkpt><trkpt lat="42.31783530048452" lon="13.75095018090863"><ele>443.0</ele><time>2026-05-03T08:52:52Z</time></trkpt><trkpt lat="42.31777380455745" lon="13.75108200680904"><ele>441.99999999999994</ele><time>2026-05-03T08:52:53Z</time></trkpt><trkpt lat="42.31772358399404" lon="13.751203246340085"><ele>441.0</ele><time>2026-05-03T08:52:54Z</time></trkpt><trkpt lat="42.31769126316599" lon="13.751310732145035"><ele>440.0</ele><time>2026-05-03T08:52:55Z</time></trkpt><trkpt lat="42.3176647790762" lon="13.751401933315643"><ele>439.0</ele><time>2026-05-03T08:52:56Z</time></trkpt><trkpt lat="42.3176336010245" lon="13.75151076135992"><ele>437.99999999999994</ele><time>2026-05-03T08:52:58Z</time></trkpt><trkpt lat="42.31770118988448" lon="13.751587130250844"><ele>437.0</ele><time>2026-05-03T08:53:02.999Z</time></trkpt><trkpt lat="42.31781789884926" lon="13.751585799716818"><ele>437.0</ele><time>2026-05-03T08:53:03.999Z</time></trkpt><trkpt lat="42.31794066485422" lon="13.751553517332926"><ele>437.0</ele><time>2026-05-03T08:53:04.999Z</time></trkpt><trkpt lat="42.31806668828796" lon="13.751512890113613"><ele>437.0</ele><time>2026-05-03T08:53:05.999Z</time></trkpt><trkpt lat="42.318204557238026" lon="13.751442132671796"><ele>437.0</ele><time>2026-05-03T08:53:06.999Z</time></trkpt><trkpt lat="42.31836444013614" lon="13.75135186441192"><ele>438.0</ele><time>2026-05-03T08:53:07.999Z</time></trkpt><trkpt lat="42.318552700570955" lon="13.751280319344149"><ele>439.0</ele><time>2026-05-03T08:53:08.999Z</time></trkpt><trkpt lat="42.318737409323205" lon="13.75124110787136"><ele>440.0</ele><time>2026-05-03T08:53:09.999Z</time></trkpt><trkpt lat="42.31889611448923" lon="13.751221678575686"><ele>441.5</ele><time>2026-05-03T08:53:10.999Z</time></trkpt><trkpt lat="42.31902877216616" lon="13.75120936332296"><ele>443.0</ele><time>2026-05-03T08:53:11.999Z</time></trkpt><trkpt lat="42.31915302864837" lon="13.751226455586586"><ele>444.5</ele><time>2026-05-03T08:53:12.999Z</time></trkpt><trkpt lat="42.31927220763127" lon="13.751277875251692"><ele>446.0</ele><time>2026-05-03T08:53:13.999Z</time></trkpt><trkpt lat="42.319387624051366" lon="13.751355471554687"><ele>446.0</ele><time>2026-05-03T08:53:14.999Z</time></trkpt><trkpt lat="42.31949677657411" lon="13.751458366057948"><ele>446.0</ele><time>2026-05-03T08:53:15.999Z</time></trkpt><trkpt lat="42.319597110936016" lon="13.751573240625637"><ele>446.0</ele><time>2026-05-03T08:53:16.999Z</time></trkpt><trkpt lat="42.319698434257084" lon="13.751680690267014"><ele>446.0</ele><time>2026-05-03T08:53:17.999Z</time></trkpt><trkpt lat="42.31977549268593" lon="13.751755542548402"><ele>446.0</ele><time>2026-05-03T08:53:18.999Z</time></trkpt><trkpt lat="42.31982485675712" lon="13.751823227582513"><ele>446.0</ele><time>2026-05-03T08:53:19.999Z</time></trkpt><trkpt lat="42.31975233932298" lon="13.751736538962781"><ele>446.0</ele><time>2026-05-03T08:53:25.999Z</time></trkpt><trkpt lat="42.319640717437444" lon="13.751624855151722"><ele>446.0</ele><time>2026-05-03T08:53:26.999Z</time></trkpt><trkpt lat="42.31952060259629" lon="13.751505040148206"><ele>446.0</ele><time>2026-05-03T08:53:27.999Z</time></trkpt><trkpt lat="42.319407080948466" lon="13.751401695748767"><ele>446.0</ele><time>2026-05-03T08:53:28.999Z</time></trkpt><trkpt lat="42.319296504658126" lon="13.751301115030328"><ele>446.0</ele><time>2026-05-03T08:53:29.999Z</time></trkpt><trkpt lat="42.319172148745615" lon="13.751212092806385"><ele>446.0</ele><time>2026-05-03T08:53:30.999Z</time></trkpt><trkpt lat="42.319008864887216" lon="13.751172914869171"><ele>444.8</ele><time>2026-05-03T08:53:31.999Z</time></trkpt><trkpt lat="42.31886355829967" lon="13.751183013004535"><ele>443.6</ele><time>2026-05-03T08:53:32.999Z</time></trkpt><trkpt lat="42.31873650675688" lon="13.751213541182036"><ele>442.4</ele><time>2026-05-03T08:53:33.999Z</time></trkpt><trkpt lat="42.31865752987401" lon="13.751249740443567"><ele>441.2</ele><time>2026-05-03T08:53:34.999Z</time></trkpt><trkpt lat="42.31861684234527" lon="13.751319093238882"><ele>440.0</ele><time>2026-05-03T08:53:36.999Z</time></trkpt><trkpt lat="42.318722304007025" lon="13.751346168684004"><ele>440.0</ele><time>2026-05-03T08:53:39.999Z</time></trkpt><trkpt lat="42.3188057979611" lon="13.751350005368133"><ele>440.0</ele><time>2026-05-03T08:53:40.999Z</time></trkpt><trkpt lat="42.318915133394206" lon="13.751357647336437"><ele>440.0</ele><time>2026-05-03T08:53:41.999Z</time></trkpt><trkpt lat="42.31904810682862" lon="13.751373044841406"><ele>440.0</ele><time>2026-05-03T08:53:42.999Z</time></trkpt><trkpt lat="42.31914146590373" lon="13.751390443225278"><ele>440.0</ele><time>2026-05-03T08:53:43.999Z</time></trkpt><trkpt lat="42.319196926291816" lon="13.751451467896644"><ele>441.2</ele><time>2026-05-03T08:53:45.999Z</time></trkpt><trkpt lat="42.319181153602685" lon="13.751553677373552"><ele>442.4</ele><time>2026-05-03T08:53:46.999Z</time></trkpt><trkpt lat="42.31922019809745" lon="13.751661002556533"><ele>443.6</ele><time>2026-05-03T08:53:47.999Z</time></trkpt><trkpt lat="42.319262974422706" lon="13.751793734719937"><ele>444.8</ele><time>2026-05-03T08:53:48.999Z</time></trkpt><trkpt lat="42.31932432538072" lon="13.751939118769977"><ele>446.0</ele><time>2026-05-03T08:53:49.999Z</time></trkpt><trkpt lat="42.319409240785156" lon="13.752102758000254"><ele>442.75</ele><time>2026-05-03T08:53:50.999Z</time></trkpt><trkpt lat="42.319485236176604" lon="13.752253297920424"><ele>439.5</ele><time>2026-05-03T08:53:51.999Z</time></trkpt><trkpt lat="42.31954324208996" lon="13.752398042534288"><ele>436.25</ele><time>2026-05-03T08:53:52.999Z</time></trkpt><trkpt lat="42.31957486139904" lon="13.752529023258349"><ele>433.0</ele><time>2026-05-03T08:53:54Z</time></trkpt><trkpt lat="42.319629360382955" lon="13.752660044128236"><ele>434.0</ele><time>2026-05-03T08:53:55Z</time></trkpt><trkpt lat="42.31966011865443" lon="13.75280070745713"><ele>435.0</ele><time>2026-05-03T08:53:56Z</time></trkpt><trkpt lat="42.31969194480845" lon="13.752923374811967"><ele>436.0</ele><time>2026-05-03T08:53:57Z</time></trkpt><trkpt lat="42.3197215974836" lon="13.753076153053874"><ele>437.0</ele><time>2026-05-03T08:53:58Z</time></trkpt><trkpt lat="42.319782220464006" lon="13.753230516134797"><ele>437.0</ele><time>2026-05-03T08:53:59Z</time></trkpt><trkpt lat="42.31981776229242" lon="13.753421435669438"><ele>437.0</ele><time>2026-05-03T08:54:00Z</time></trkpt><trkpt lat="42.31986813521336" lon="13.753615547995803"><ele>437.0</ele><time>2026-05-03T08:54:01Z</time></trkpt><trkpt lat="42.31993334434663" lon="13.753799143993945"><ele>437.0</ele><time>2026-05-03T08:54:02Z</time></trkpt><trkpt lat="42.319977134229795" lon="13.753978633794343"><ele>435.5</ele><time>2026-05-03T08:54:03Z</time></trkpt><trkpt lat="42.32002012576124" lon="13.754129130601447"><ele>434.0</ele><time>2026-05-03T08:54:04Z</time></trkpt><trkpt lat="42.32005654887294" lon="13.754270821977029"><ele>432.5</ele><time>2026-05-03T08:54:05Z</time></trkpt><trkpt lat="42.32013162128876" lon="13.754374472299409"><ele>431.0</ele><time>2026-05-03T08:54:06Z</time></trkpt><trkpt lat="42.320204012536266" lon="13.754519615465075"><ele>430.5</ele><time>2026-05-03T08:54:07Z</time></trkpt><trkpt lat="42.320274065702385" lon="13.754658891495207"><ele>430.0</ele><time>2026-05-03T08:54:08Z</time></trkpt><trkpt lat="42.32030578174894" lon="13.754816988042144"><ele>429.5</ele><time>2026-05-03T08:54:09Z</time></trkpt><trkpt lat="42.32035518922241" lon="13.754958271451951"><ele>429.0</ele><time>2026-05-03T08:54:10Z</time></trkpt><trkpt lat="42.320402500360714" lon="13.755099858040008"><ele>429.0</ele><time>2026-05-03T08:54:11Z</time></trkpt><trkpt lat="42.32042741780658" lon="13.75518625524399"><ele>429.0</ele><time>2026-05-03T08:54:12Z</time></trkpt><trkpt lat="42.32045824260287" lon="13.755273411632354"><ele>429.0</ele><time>2026-05-03T08:54:24Z</time></trkpt><trkpt lat="42.32046054692464" lon="13.75537097580325"><ele>429.0</ele><time>2026-05-03T08:54:28Z</time></trkpt><trkpt lat="42.320466426304115" lon="13.75548879569958"><ele>429.0</ele><time>2026-05-03T08:54:39.999Z</time></trkpt><trkpt lat="42.32069195066192" lon="13.75519814738417"><ele>437.0</ele><time>2026-05-03T08:54:41.999Z</time></trkpt><trkpt lat="42.32108895351706" lon="13.755908527024584"><ele>437.0</ele><time>2026-05-03T08:54:45.999Z</time></trkpt><trkpt lat="42.32115881384981" lon="13.755986755260269"><ele>437.00000000000006</ele><time>2026-05-03T08:54:46.999Z</time></trkpt><trkpt lat="42.3212155272959" lon="13.756098843308575"><ele>437.00000000000006</ele><time>2026-05-03T08:54:47.999Z</time></trkpt><trkpt lat="42.32128827695538" lon="13.756237131901646"><ele>437.0</ele><time>2026-05-03T08:54:48.999Z</time></trkpt><trkpt lat="42.32137645704055" lon="13.756358002124369"><ele>437.0</ele><time>2026-05-03T08:54:49.999Z</time></trkpt><trkpt lat="42.32146967891201" lon="13.756453059213714"><ele>439.5</ele><time>2026-05-03T08:54:50.999Z</time></trkpt><trkpt lat="42.32157713699771" lon="13.75655310871605"><ele>442.0</ele><time>2026-05-03T08:54:51.999Z</time></trkpt><trkpt lat="42.32170137040481" lon="13.756675851791499"><ele>444.5</ele><time>2026-05-03T08:54:52.999Z</time></trkpt><trkpt lat="42.321821418174444" lon="13.756800552393859"><ele>447.0</ele><time>2026-05-03T08:54:53.999Z</time></trkpt><trkpt lat="42.32191608389057" lon="13.756875614549584"><ele>447.8</ele><time>2026-05-03T08:54:54.999Z</time></trkpt><trkpt lat="42.32201561834735" lon="13.7569309011606"><ele>448.6</ele><time>2026-05-03T08:54:55.999Z</time></trkpt><trkpt lat="42.32212344075591" lon="13.75697380299422"><ele>449.40000000000003</ele><time>2026-05-03T08:54:56.999Z</time></trkpt><trkpt lat="42.32222517670837" lon="13.757026555926764"><ele>450.20000000000005</ele><time>2026-05-03T08:54:57.999Z</time></trkpt><trkpt lat="42.32228474486125" lon="13.75710995162774"><ele>451.0</ele><time>2026-05-03T08:54:58.999Z</time></trkpt><trkpt lat="42.32235913130571" lon="13.757221813594807"><ele>452.75</ele><time>2026-05-03T08:54:59.999Z</time></trkpt><trkpt lat="42.322443861343814" lon="13.757341364498107"><ele>454.5</ele><time>2026-05-03T08:55:00.999Z</time></trkpt><trkpt lat="42.322510725401926" lon="13.75745271171626"><ele>456.25</ele><time>2026-05-03T08:55:01.999Z</time></trkpt><trkpt lat="42.32256132644635" lon="13.757582687603897"><ele>458.0</ele><time>2026-05-03T08:55:02.999Z</time></trkpt><trkpt lat="42.32260505189722" lon="13.75773333401908"><ele>458.59999999999997</ele><time>2026-05-03T08:55:03.999Z</time></trkpt><trkpt lat="42.32265555357184" lon="13.757909924515136"><ele>459.19999999999993</ele><time>2026-05-03T08:55:04.999Z</time></trkpt><trkpt lat="42.32269507276675" lon="13.758046058397086"><ele>459.8</ele><time>2026-05-03T08:55:05.999Z</time></trkpt><trkpt lat="42.32272637952134" lon="13.758139904657403"><ele>460.4</ele><time>2026-05-03T08:55:06.999Z</time></trkpt><trkpt lat="42.322775127330644" lon="13.758213159359665"><ele>461.0</ele><time>2026-05-03T08:55:08.999Z</time></trkpt><trkpt lat="42.32288293628933" lon="13.75822757899735"><ele>461.0</ele><time>2026-05-03T08:55:10.999Z</time></trkpt><trkpt lat="42.32299713365428" lon="13.75824480166201"><ele>461.0</ele><time>2026-05-03T08:55:11.999Z</time></trkpt><trkpt lat="42.32313933218476" lon="13.75828313211595"><ele>461.0</ele><time>2026-05-03T08:55:12.999Z</time></trkpt><trkpt lat="42.323287982280206" lon="13.758356072794816"><ele>461.0</ele><time>2026-05-03T08:55:13.999Z</time></trkpt><trkpt lat="42.32344322640808" lon="13.758444353268073"><ele>463.5</ele><time>2026-05-03T08:55:14.999Z</time></trkpt><trkpt lat="42.32357686139314" lon="13.75850884381211"><ele>466.0</ele><time>2026-05-03T08:55:15.999Z</time></trkpt><trkpt lat="42.32367610830371" lon="13.758570310348405"><ele>468.5</ele><time>2026-05-03T08:55:16.999Z</time></trkpt><trkpt lat="42.32377125222257" lon="13.758656638167663"><ele>471.0</ele><time>2026-05-03T08:55:17.999Z</time></trkpt><trkpt lat="42.32384995855807" lon="13.75878374914461"><ele>473.25</ele><time>2026-05-03T08:55:18.999Z</time></trkpt><trkpt lat="42.32390244427129" lon="13.758928753939577"><ele>475.5</ele><time>2026-05-03T08:55:19.999Z</time></trkpt><trkpt lat="42.323950524074505" lon="13.759081865237404"><ele>477.75</ele><time>2026-05-03T08:55:20.999Z</time></trkpt><trkpt lat="42.32396710805732" lon="13.759235858442171"><ele>480.0</ele><time>2026-05-03T08:55:21.999Z</time></trkpt><trkpt lat="42.32396481330416" lon="13.759366227038742"><ele>481.4</ele><time>2026-05-03T08:55:22.999Z</time></trkpt><trkpt lat="42.323971784591535" lon="13.759465813073813"><ele>482.8</ele><time>2026-05-03T08:55:23.999Z</time></trkpt><trkpt lat="42.324012608062176" lon="13.759551232150173"><ele>484.20000000000005</ele><time>2026-05-03T08:55:24.999Z</time></trkpt><trkpt lat="42.324149497477855" lon="13.7595474689876"><ele>485.6</ele><time>2026-05-03T08:55:26.999Z</time></trkpt><trkpt lat="42.324244067346854" lon="13.759559027839405"><ele>487.0</ele><time>2026-05-03T08:55:27.999Z</time></trkpt><trkpt lat="42.3243683978563" lon="13.759551451797353"><ele>487.0</ele><time>2026-05-03T08:55:28.999Z</time></trkpt><trkpt lat="42.32447992714946" lon="13.759559932361704"><ele>487.00000000000006</ele><time>2026-05-03T08:55:29.999Z</time></trkpt><trkpt lat="42.32458228165851" lon="13.759562369719502"><ele>487.00000000000006</ele><time>2026-05-03T08:55:30.999Z</time></trkpt><trkpt lat="42.324660902046624" lon="13.759527815859514"><ele>487.0</ele><time>2026-05-03T08:55:31.999Z</time></trkpt><trkpt lat="42.32474425934849" lon="13.759443440051237"><ele>487.0</ele><time>2026-05-03T08:55:32.999Z</time></trkpt><trkpt lat="42.32483356974434" lon="13.759309931094036"><ele>487.8</ele><time>2026-05-03T08:55:33.999Z</time></trkpt><trkpt lat="42.324902441793434" lon="13.759157468366679"><ele>488.6</ele><time>2026-05-03T08:55:34.999Z</time></trkpt><trkpt lat="42.324925936283606" lon="13.759009203615403"><ele>489.40000000000003</ele><time>2026-05-03T08:55:35.998Z</time></trkpt><trkpt lat="42.32494606894378" lon="13.758909303253237"><ele>490.20000000000005</ele><time>2026-05-03T08:55:36.998Z</time></trkpt><trkpt lat="42.324969340981056" lon="13.758805618558275"><ele>491.0</ele><time>2026-05-03T08:55:38.998Z</time></trkpt><trkpt lat="42.32497726248152" lon="13.759029596918955"><ele>491.0</ele><time>2026-05-03T08:55:42.998Z</time></trkpt><trkpt lat="42.32495748874929" lon="13.759168374700087"><ele>491.0</ele><time>2026-05-03T08:55:43.998Z</time></trkpt><trkpt lat="42.324954341514925" lon="13.759297891880964"><ele>491.0</ele><time>2026-05-03T08:55:44.998Z</time></trkpt><trkpt lat="42.324949357602456" lon="13.759417906245673"><ele>491.0</ele><time>2026-05-03T08:55:45.998Z</time></trkpt><trkpt lat="42.32496987090564" lon="13.759534198775754"><ele>491.0</ele><time>2026-05-03T08:55:46.998Z</time></trkpt><trkpt lat="42.32500804921022" lon="13.759617900069768"><ele>491.8</ele><time>2026-05-03T08:55:47.998Z</time></trkpt><trkpt lat="42.32507326111763" lon="13.759699184460292"><ele>492.6</ele><time>2026-05-03T08:55:49.998Z</time></trkpt><trkpt lat="42.32501838632255" lon="13.759782133026874"><ele>493.4</ele><time>2026-05-03T08:55:54.998Z</time></trkpt><trkpt lat="42.324879005442476" lon="13.759782034310712"><ele>494.2</ele><time>2026-05-03T08:55:58.998Z</time></trkpt><trkpt lat="42.324971066427544" lon="13.759859541736507"><ele>495.0</ele><time>2026-05-03T08:55:59.999Z</time></trkpt><trkpt lat="42.3248760080387" lon="13.759814083489776"><ele>495.0</ele><time>2026-05-03T08:56:02.999Z</time></trkpt><trkpt lat="42.324990656409604" lon="13.75978995068621"><ele>495.0</ele><time>2026-05-03T08:56:44.999Z</time></trkpt><trkpt lat="42.3250728748182" lon="13.759862178462914"><ele>495.0</ele><time>2026-05-03T08:57:56.998Z</time></trkpt><trkpt lat="42.32509167380461" lon="13.759763156009233"><ele>495.0</ele><time>2026-05-03T09:02:37.001Z</time></trkpt><trkpt lat="42.32507058186627" lon="13.759678878335789"><ele>495.0</ele><time>2026-05-03T09:03:09Z</time></trkpt><trkpt lat="42.32506163327913" lon="13.75976728273085"><ele>495.0</ele><time>2026-05-03T09:03:43.999Z</time></trkpt><trkpt lat="42.325051667771184" lon="13.759858562809894"><ele>494.99999999999994</ele><time>2026-05-03T09:04:20.999Z</time></trkpt><trkpt lat="42.32498277098561" lon="13.759869072133581"><ele>495.0</ele><time>2026-05-03T09:04:25.001Z</time></trkpt><trkpt lat="42.324915300418596" lon="13.75985115223817"><ele>494.99999999999994</ele><time>2026-05-03T09:04:30.001Z</time></trkpt><trkpt lat="42.324880509594266" lon="13.759776397398003"><ele>494.99999999999994</ele><time>2026-05-03T09:04:36.001Z</time></trkpt><trkpt lat="42.324944902257705" lon="13.75970962729184"><ele>495.0</ele><time>2026-05-03T09:08:05.998Z</time></trkpt><trkpt lat="42.32502565317131" lon="13.759718104667634"><ele>494.99999999999994</ele><time>2026-05-03T09:08:07.998Z</time></trkpt><trkpt lat="42.32509622527983" lon="13.759716411873866"><ele>494.99999999999994</ele><time>2026-05-03T09:08:10.998Z</time></trkpt><trkpt lat="42.32512912267447" lon="13.759629184178367"><ele>495.0</ele><time>2026-05-03T09:08:50Z</time></trkpt><trkpt lat="42.32518386174451" lon="13.75958071060745"><ele>495.0</ele><time>2026-05-03T09:08:52Z</time></trkpt><trkpt lat="42.325090326071965" lon="13.759565258413634"><ele>495.0</ele><time>2026-05-03T09:08:55Z</time></trkpt><trkpt lat="42.32506174139212" lon="13.759711031119116"><ele>495.0</ele><time>2026-05-03T09:08:57Z</time></trkpt><trkpt lat="42.32499946367918" lon="13.759821876991436"><ele>495.0</ele><time>2026-05-03T09:08:59Z</time></trkpt><trkpt lat="42.32486695594119" lon="13.759828021297265"><ele>495.0</ele><time>2026-05-03T09:09:00Z</time></trkpt><trkpt lat="42.32497988406727" lon="13.759998599686638"><ele>495.0</ele><time>2026-05-03T09:09:01.999Z</time></trkpt><trkpt lat="42.32498274656344" lon="13.76011775554104"><ele>495.0</ele><time>2026-05-03T09:09:04.999Z</time></trkpt><trkpt lat="42.32496391143723" lon="13.760235163971764"><ele>495.0</ele><time>2026-05-03T09:09:06.999Z</time></trkpt><trkpt lat="42.3249518650057" lon="13.760338615307095"><ele>495.0</ele><time>2026-05-03T09:09:08.999Z</time></trkpt><trkpt lat="42.32494022918443" lon="13.760438540476668"><ele>495.8333333333333</ele><time>2026-05-03T09:09:11.999Z</time></trkpt><trkpt lat="42.3249266429175" lon="13.76055239073459"><ele>496.66666666666663</ele><time>2026-05-03T09:09:13.999Z</time></trkpt><trkpt lat="42.32488303269962" lon="13.760625693554678"><ele>497.5</ele><time>2026-05-03T09:09:14.999Z</time></trkpt><trkpt lat="42.324833255203394" lon="13.760695378937644"><ele>498.3333333333333</ele><time>2026-05-03T09:09:15.999Z</time></trkpt><trkpt lat="42.324771226953175" lon="13.760769527522694"><ele>499.16666666666663</ele><time>2026-05-03T09:09:16.999Z</time></trkpt><trkpt lat="42.32469605138084" lon="13.760814845531906"><ele>500.0</ele><time>2026-05-03T09:09:17.999Z</time></trkpt><trkpt lat="42.32460441146313" lon="13.760848776257642"><ele>500.0</ele><time>2026-05-03T09:09:18.999Z</time></trkpt><trkpt lat="42.32450898598417" lon="13.760850229486802"><ele>500.0</ele><time>2026-05-03T09:09:19.999Z</time></trkpt><trkpt lat="42.32441565202463" lon="13.760844337168194"><ele>500.0</ele><time>2026-05-03T09:09:20.999Z</time></trkpt><trkpt lat="42.3243154938816" lon="13.760834268907699"><ele>500.0</ele><time>2026-05-03T09:09:21.999Z</time></trkpt><trkpt lat="42.32423648543985" lon="13.760820227756309"><ele>500.0</ele><time>2026-05-03T09:09:22.999Z</time></trkpt><trkpt lat="42.32415600924621" lon="13.760805037076048"><ele>500.0</ele><time>2026-05-03T09:09:23.999Z</time></trkpt><trkpt lat="42.324068314994186" lon="13.760791454275342"><ele>500.0</ele><time>2026-05-03T09:09:24.999Z</time></trkpt><trkpt lat="42.323969175805765" lon="13.760785819523223"><ele>500.0</ele><time>2026-05-03T09:09:25.999Z</time></trkpt><trkpt lat="42.32389371142558" lon="13.760792118436608"><ele>500.0</ele><time>2026-05-03T09:09:26.999Z</time></trkpt><trkpt lat="42.32382454222034" lon="13.76079873951795"><ele>500.0</ele><time>2026-05-03T09:09:27.999Z</time></trkpt><trkpt lat="42.323706490415184" lon="13.760821478475679"><ele>499.75</ele><time>2026-05-03T09:09:29.999Z</time></trkpt><trkpt lat="42.32356682022818" lon="13.760818435513201"><ele>499.5</ele><time>2026-05-03T09:09:31.999Z</time></trkpt><trkpt lat="42.323457525419016" lon="13.760817421944846"><ele>499.25</ele><time>2026-05-03T09:09:32.999Z</time></trkpt><trkpt lat="42.323336445624605" lon="13.760822064746002"><ele>499.0</ele><time>2026-05-03T09:09:33.999Z</time></trkpt><trkpt lat="42.32319051395752" lon="13.76083208485414"><ele>498.33333333333337</ele><time>2026-05-03T09:09:34.999Z</time></trkpt><trkpt lat="42.32304646842862" lon="13.760885195585336"><ele>497.66666666666663</ele><time>2026-05-03T09:09:35.999Z</time></trkpt><trkpt lat="42.32291689127489" lon="13.760980560979347"><ele>497.0</ele><time>2026-05-03T09:09:36.999Z</time></trkpt><trkpt lat="42.32277454410786" lon="13.761060194467419"><ele>497.0</ele><time>2026-05-03T09:09:37.999Z</time></trkpt><trkpt lat="42.32264026500458" lon="13.761166436869313"><ele>497.0</ele><time>2026-05-03T09:09:38.999Z</time></trkpt><trkpt lat="42.3225203211463" lon="13.761258134801361"><ele>497.0</ele><time>2026-05-03T09:09:39.999Z</time></trkpt><trkpt lat="42.32239499104319" lon="13.761342817855647"><ele>497.0</ele><time>2026-05-03T09:09:40.999Z</time></trkpt><trkpt lat="42.3222649572176" lon="13.761425442349873"><ele>494.25</ele><time>2026-05-03T09:09:41.999Z</time></trkpt><trkpt lat="42.32214079623215" lon="13.761502757883747"><ele>491.5</ele><time>2026-05-03T09:09:42.999Z</time></trkpt><trkpt lat="42.32203282947597" lon="13.761572197729334"><ele>488.75</ele><time>2026-05-03T09:09:43.999Z</time></trkpt><trkpt lat="42.321934861541315" lon="13.761636308381489"><ele>486.0</ele><time>2026-05-03T09:09:44.999Z</time></trkpt><trkpt lat="42.3218530322261" lon="13.761691916084239"><ele>486.0</ele><time>2026-05-03T09:09:45.999Z</time></trkpt><trkpt lat="42.32178314427442" lon="13.761740591034057"><ele>486.0</ele><time>2026-05-03T09:09:46.999Z</time></trkpt><trkpt lat="42.32167420374828" lon="13.761802666402824"><ele>486.0</ele><time>2026-05-03T09:09:48.999Z</time></trkpt><trkpt lat="42.321587975067374" lon="13.761688643099621"><ele>486.0</ele><time>2026-05-03T09:09:50.998Z</time></trkpt><trkpt lat="42.32152475709205" lon="13.76161333978254"><ele>486.0</ele><time>2026-05-03T09:09:51.998Z</time></trkpt><trkpt lat="42.321474940552115" lon="13.761539335946633"><ele>486.0</ele><time>2026-05-03T09:09:52.998Z</time></trkpt><trkpt lat="42.32144257749717" lon="13.76145951817003"><ele>486.0</ele><time>2026-05-03T09:09:53.998Z</time></trkpt><trkpt lat="42.321413249282415" lon="13.761286950748824"><ele>486.0</ele><time>2026-05-03T09:09:55.998Z</time></trkpt><trkpt lat="42.32141511391173" lon="13.761186338296756"><ele>486.0</ele><time>2026-05-03T09:09:56.998Z</time></trkpt><trkpt lat="42.32141675047388" lon="13.761091778356146"><ele>486.0</ele><time>2026-05-03T09:09:57.998Z</time></trkpt><trkpt lat="42.32140345324342" lon="13.7610001992039"><ele>486.0</ele><time>2026-05-03T09:09:58.998Z</time></trkpt><trkpt lat="42.32137146448221" lon="13.76092306632999"><ele>482.8</ele><time>2026-05-03T09:09:59.998Z</time></trkpt><trkpt lat="42.32133039401232" lon="13.760784351473578"><ele>479.6</ele><time>2026-05-03T09:10:01.998Z</time></trkpt><trkpt lat="42.321296419219074" lon="13.760697373540665"><ele>476.4</ele><time>2026-05-03T09:10:03.998Z</time></trkpt><trkpt lat="42.32124674346711" lon="13.760569586532863"><ele>473.2</ele><time>2026-05-03T09:10:08.998Z</time></trkpt><trkpt lat="42.32125229180778" lon="13.760473253301317"><ele>470.0</ele><time>2026-05-03T09:10:09.998Z</time></trkpt><trkpt lat="42.32104725517803" lon="13.760452597017819"><ele>469.99999999999994</ele><time>2026-05-03T09:10:15.998Z</time></trkpt><trkpt lat="42.32096337283183" lon="13.760502092282929"><ele>470.0</ele><time>2026-05-03T09:10:16.998Z</time></trkpt><trkpt lat="42.32088804615183" lon="13.76055211943051"><ele>470.0</ele><time>2026-05-03T09:10:17.998Z</time></trkpt><trkpt lat="42.320795197877246" lon="13.760616377055294"><ele>470.0</ele><time>2026-05-03T09:10:18.998Z</time></trkpt><trkpt lat="42.32072162381605" lon="13.760668439809413"><ele>469.99999999999994</ele><time>2026-05-03T09:10:19.998Z</time></trkpt><trkpt lat="42.32065469960566" lon="13.760715797289613"><ele>470.0</ele><time>2026-05-03T09:10:20.998Z</time></trkpt><trkpt lat="42.32058018372253" lon="13.760768526513527"><ele>469.3333333333333</ele><time>2026-05-03T09:10:21.998Z</time></trkpt><trkpt lat="42.32051890646019" lon="13.760811889374638"><ele>468.66666666666663</ele><time>2026-05-03T09:10:22.998Z</time></trkpt><trkpt lat="42.320453605087934" lon="13.760856444446675"><ele>468.0</ele><time>2026-05-03T09:10:23.998Z</time></trkpt><trkpt lat="42.3203757220968" lon="13.760921192349665"><ele>467.33333333333337</ele><time>2026-05-03T09:10:24.998Z</time></trkpt><trkpt lat="42.32031204469107" lon="13.760980447166498"><ele>466.6666666666667</ele><time>2026-05-03T09:10:25.998Z</time></trkpt><trkpt lat="42.320249353073095" lon="13.761047887148715"><ele>466.0</ele><time>2026-05-03T09:10:26.998Z</time></trkpt><trkpt lat="42.32019022950693" lon="13.76112021903955"><ele>466.0</ele><time>2026-05-03T09:10:27.998Z</time></trkpt><trkpt lat="42.320112810761756" lon="13.76123699393597"><ele>466.0</ele><time>2026-05-03T09:10:29.998Z</time></trkpt><trkpt lat="42.320043865362805" lon="13.761332744560399"><ele>466.0</ele><time>2026-05-03T09:10:31.998Z</time></trkpt><trkpt lat="42.31997094656419" lon="13.761414515281402"><ele>466.0</ele><time>2026-05-03T09:10:33.998Z</time></trkpt><trkpt lat="42.319889859288764" lon="13.761487112862193"><ele>466.0</ele><time>2026-05-03T09:10:35.998Z</time></trkpt><trkpt lat="42.31982549317901" lon="13.761539904462763"><ele>466.0</ele><time>2026-05-03T09:10:36.998Z</time></trkpt><trkpt lat="42.319743232444644" lon="13.761604242894338"><ele>466.0</ele><time>2026-05-03T09:10:37.997Z</time></trkpt><trkpt lat="42.319663223490814" lon="13.761666820060315"><ele>466.0</ele><time>2026-05-03T09:10:38.997Z</time></trkpt><trkpt lat="42.31956908144171" lon="13.761741111873052"><ele>466.0</ele><time>2026-05-03T09:10:39.997Z</time></trkpt><trkpt lat="42.31948567956213" lon="13.761808457391306"><ele>466.0</ele><time>2026-05-03T09:10:40.998Z</time></trkpt><trkpt lat="42.319395272203444" lon="13.761881459637978"><ele>465.6</ele><time>2026-05-03T09:10:41.998Z</time></trkpt><trkpt lat="42.319303501667406" lon="13.761954414795948"><ele>465.20000000000005</ele><time>2026-05-03T09:10:42.998Z</time></trkpt><trkpt lat="42.319212973425266" lon="13.762041682293393"><ele>464.79999999999995</ele><time>2026-05-03T09:10:43.998Z</time></trkpt><trkpt lat="42.31910700700458" lon="13.762095021839103"><ele>464.4</ele><time>2026-05-03T09:10:44.998Z</time></trkpt><trkpt lat="42.319011901178534" lon="13.762157105509084"><ele>464.0</ele><time>2026-05-03T09:10:45.998Z</time></trkpt><trkpt lat="42.318902609241086" lon="13.762230834432703"><ele>461.5</ele><time>2026-05-03T09:10:46.998Z</time></trkpt><trkpt lat="42.31878653473532" lon="13.762316913350121"><ele>459.0</ele><time>2026-05-03T09:10:47.998Z</time></trkpt><trkpt lat="42.318656103159185" lon="13.762420372167064"><ele>456.5</ele><time>2026-05-03T09:10:48.998Z</time></trkpt><trkpt lat="42.318517183219264" lon="13.762542050977105"><ele>454.0</ele><time>2026-05-03T09:10:49.998Z</time></trkpt><trkpt lat="42.3183897896807" lon="13.762691381385926"><ele>455.0</ele><time>2026-05-03T09:10:50.998Z</time></trkpt><trkpt lat="42.31825442968636" lon="13.762829302389314"><ele>456.0</ele><time>2026-05-03T09:10:51.998Z</time></trkpt><trkpt lat="42.31811288609117" lon="13.762957699682149"><ele>457.0</ele><time>2026-05-03T09:10:52.998Z</time></trkpt><trkpt lat="42.31794498343908" lon="13.7631024745339"><ele>457.0</ele><time>2026-05-03T09:10:53.998Z</time></trkpt><trkpt lat="42.31779138200496" lon="13.763241182586652"><ele>457.0</ele><time>2026-05-03T09:10:54.999Z</time></trkpt><trkpt lat="42.317682840827224" lon="13.76335380903609"><ele>457.0</ele><time>2026-05-03T09:10:55.999Z</time></trkpt><trkpt lat="42.31761486299905" lon="13.763459827970966"><ele>457.0</ele><time>2026-05-03T09:10:56.999Z</time></trkpt><trkpt lat="42.31752285225585" lon="13.763585453480003"><ele>457.6666666666667</ele><time>2026-05-03T09:10:57.999Z</time></trkpt><trkpt lat="42.317432959305826" lon="13.763774301916648"><ele>458.33333333333337</ele><time>2026-05-03T09:10:58.999Z</time></trkpt><trkpt lat="42.317307739997865" lon="13.763999428232061"><ele>459.0</ele><time>2026-05-03T09:10:59.999Z</time></trkpt><trkpt lat="42.31717906847838" lon="13.764212016113143"><ele>457.33333333333337</ele><time>2026-05-03T09:11:00.999Z</time></trkpt><trkpt lat="42.31706752963589" lon="13.764394484749225"><ele>455.6666666666667</ele><time>2026-05-03T09:11:01.999Z</time></trkpt><trkpt lat="42.31696385112815" lon="13.764561683847852"><ele>454.0</ele><time>2026-05-03T09:11:02.999Z</time></trkpt><trkpt lat="42.3168565790686" lon="13.764720052098895"><ele>454.0</ele><time>2026-05-03T09:11:03.999Z</time></trkpt><trkpt lat="42.31674194273872" lon="13.764863504296748"><ele>454.0</ele><time>2026-05-03T09:11:04.999Z</time></trkpt><trkpt lat="42.3166130780921" lon="13.765001733596154"><ele>454.0</ele><time>2026-05-03T09:11:05.999Z</time></trkpt><trkpt lat="42.316487554489946" lon="13.765112034288423"><ele>454.75</ele><time>2026-05-03T09:11:06.999Z</time></trkpt><trkpt lat="42.31634842562074" lon="13.765189694473872"><ele>455.5</ele><time>2026-05-03T09:11:07.999Z</time></trkpt><trkpt lat="42.31620956970575" lon="13.765284331711168"><ele>456.25</ele><time>2026-05-03T09:11:08.999Z</time></trkpt><trkpt lat="42.31610042661351" lon="13.76540746102031"><ele>457.0</ele><time>2026-05-03T09:11:09.999Z</time></trkpt><trkpt lat="42.31598188881665" lon="13.765507708693642"><ele>457.0</ele><time>2026-05-03T09:11:10.999Z</time></trkpt><trkpt lat="42.315889058125016" lon="13.765622090242765"><ele>457.0</ele><time>2026-05-03T09:11:11.999Z</time></trkpt><trkpt lat="42.31581090181051" lon="13.765765645245256"><ele>457.0</ele><time>2026-05-03T09:11:12.999Z</time></trkpt><trkpt lat="42.31574326954153" lon="13.765927133564542"><ele>457.0</ele><time>2026-05-03T09:11:13.999Z</time></trkpt><trkpt lat="42.31568010853903" lon="13.766093738370015"><ele>458.0</ele><time>2026-05-03T09:11:14.999Z</time></trkpt><trkpt lat="42.31559079607245" lon="13.766252670975602"><ele>459.0</ele><time>2026-05-03T09:11:15.999Z</time></trkpt><trkpt lat="42.31551861155237" lon="13.766428317368968"><ele>460.0</ele><time>2026-05-03T09:11:16.999Z</time></trkpt><trkpt lat="42.31540914706719" lon="13.766558733110573"><ele>461.0</ele><time>2026-05-03T09:11:17.999Z</time></trkpt><trkpt lat="42.31529534962546" lon="13.766670713791278"><ele>461.0</ele><time>2026-05-03T09:11:18.999Z</time></trkpt><trkpt lat="42.31518035842764" lon="13.766766282185717"><ele>461.0</ele><time>2026-05-03T09:11:19.999Z</time></trkpt><trkpt lat="42.31506628052193" lon="13.766888679968245"><ele>461.0</ele><time>2026-05-03T09:11:20.999Z</time></trkpt><trkpt lat="42.31494752789285" lon="13.766997169271555"><ele>461.0</ele><time>2026-05-03T09:11:21.999Z</time></trkpt><trkpt lat="42.31483902356064" lon="13.76710991712233"><ele>461.75</ele><time>2026-05-03T09:11:22.999Z</time></trkpt><trkpt lat="42.31473793372453" lon="13.76724100264694"><ele>462.5</ele><time>2026-05-03T09:11:23.999Z</time></trkpt><trkpt lat="42.31464108865058" lon="13.767384391737894"><ele>463.25</ele><time>2026-05-03T09:11:24.999Z</time></trkpt><trkpt lat="42.31454893832077" lon="13.76749469359614"><ele>464.0</ele><time>2026-05-03T09:11:25.999Z</time></trkpt><trkpt lat="42.31446728137803" lon="13.767573582194713"><ele>463.99999999999994</ele><time>2026-05-03T09:11:26.999Z</time></trkpt><trkpt lat="42.31439624970923" lon="13.767625007100591"><ele>464.0</ele><time>2026-05-03T09:11:29.999Z</time></trkpt><trkpt lat="42.31429306782029" lon="13.767690736310557"><ele>464.0</ele><time>2026-05-03T09:11:31.999Z</time></trkpt><trkpt lat="42.31421822631929" lon="13.76771829635402"><ele>464.0</ele><time>2026-05-03T09:11:32.999Z</time></trkpt><trkpt lat="42.314142679493294" lon="13.767756962798538"><ele>463.99999999999994</ele><time>2026-05-03T09:11:33.999Z</time></trkpt><trkpt lat="42.31406998501054" lon="13.76782881761253"><ele>464.0</ele><time>2026-05-03T09:11:34.999Z</time></trkpt><trkpt lat="42.313986519349385" lon="13.767909989243213"><ele>465.0</ele><time>2026-05-03T09:11:35.998Z</time></trkpt><trkpt lat="42.31393964258033" lon="13.768033877591622"><ele>466.0</ele><time>2026-05-03T09:11:36.998Z</time></trkpt><trkpt lat="42.31389138092633" lon="13.768150583747111"><ele>467.0</ele><time>2026-05-03T09:11:37.998Z</time></trkpt><trkpt lat="42.313853329247436" lon="13.768278811222045"><ele>468.0</ele><time>2026-05-03T09:11:38.998Z</time></trkpt><trkpt lat="42.31379501385918" lon="13.768381724694803"><ele>469.0</ele><time>2026-05-03T09:11:39.998Z</time></trkpt><trkpt lat="42.31373611745852" lon="13.768508612422252"><ele>464.2</ele><time>2026-05-03T09:11:40.998Z</time></trkpt><trkpt lat="42.31368201497057" lon="13.768628780597602"><ele>459.4</ele><time>2026-05-03T09:11:41.998Z</time></trkpt><trkpt lat="42.31362837266611" lon="13.768758835014822"><ele>454.6</ele><time>2026-05-03T09:11:42.998Z</time></trkpt><trkpt lat="42.31357078874803" lon="13.768888561192089"><ele>449.8</ele><time>2026-05-03T09:11:43.998Z</time></trkpt><trkpt lat="42.31352746824225" lon="13.769034756051898"><ele>445.0</ele><time>2026-05-03T09:11:44.998Z</time></trkpt><trkpt lat="42.31347523877284" lon="13.769174472468835"><ele>445.0</ele><time>2026-05-03T09:11:45.998Z</time></trkpt><trkpt lat="42.313414320641385" lon="13.769308962966472"><ele>445.0</ele><time>2026-05-03T09:11:46.998Z</time></trkpt><trkpt lat="42.313331328043574" lon="13.76942652787184"><ele>445.0</ele><time>2026-05-03T09:11:47.998Z</time></trkpt><trkpt lat="42.3132550230205" lon="13.769554578437427"><ele>445.0</ele><time>2026-05-03T09:11:48.998Z</time></trkpt><trkpt lat="42.31316721030578" lon="13.76967792903443"><ele>441.75</ele><time>2026-05-03T09:11:49.998Z</time></trkpt><trkpt lat="42.31307084469938" lon="13.769793614177877"><ele>438.5</ele><time>2026-05-03T09:11:50.998Z</time></trkpt><trkpt lat="42.3129678654742" lon="13.769891919248922"><ele>435.25</ele><time>2026-05-03T09:11:51.998Z</time></trkpt><trkpt lat="42.3128603898792" lon="13.769990219072318"><ele>432.0</ele><time>2026-05-03T09:11:52.998Z</time></trkpt><trkpt lat="42.31273426244552" lon="13.770051613930558"><ele>432.0</ele><time>2026-05-03T09:11:53.998Z</time></trkpt><trkpt lat="42.3126106202291" lon="13.770114431099088"><ele>432.0</ele><time>2026-05-03T09:11:54.998Z</time></trkpt><trkpt lat="42.3124748275614" lon="13.770145628422489"><ele>432.0</ele><time>2026-05-03T09:11:55.998Z</time></trkpt><trkpt lat="42.312332696223685" lon="13.770166760009532"><ele>432.0</ele><time>2026-05-03T09:11:56.998Z</time></trkpt><trkpt lat="42.31215515163923" lon="13.770210776268783"><ele>434.25</ele><time>2026-05-03T09:11:57.998Z</time></trkpt><trkpt lat="42.311993622570064" lon="13.770230534837134"><ele>436.5</ele><time>2026-05-03T09:11:58.998Z</time></trkpt><trkpt lat="42.31187722384729" lon="13.770258579485676"><ele>438.75</ele><time>2026-05-03T09:11:59.998Z</time></trkpt><trkpt lat="42.31177487058722" lon="13.770294388998904"><ele>441.0</ele><time>2026-05-03T09:12:00.998Z</time></trkpt><trkpt lat="42.31167992453985" lon="13.770314514549773"><ele>441.0</ele><time>2026-05-03T09:12:01.998Z</time></trkpt><trkpt lat="42.311604068834065" lon="13.770327278455783"><ele>441.0</ele><time>2026-05-03T09:12:02.998Z</time></trkpt><trkpt lat="42.31153487781428" lon="13.770371262631583"><ele>441.0</ele><time>2026-05-03T09:12:03.998Z</time></trkpt><trkpt lat="42.311460662882745" lon="13.770443033194688"><ele>441.0</ele><time>2026-05-03T09:12:04.998Z</time></trkpt><trkpt lat="42.311385466709325" lon="13.770513339742726"><ele>441.0</ele><time>2026-05-03T09:12:05.998Z</time></trkpt><trkpt lat="42.311297469048036" lon="13.770577080340942"><ele>441.0</ele><time>2026-05-03T09:12:06.998Z</time></trkpt><trkpt lat="42.311208942755144" lon="13.770662200778085"><ele>440.20000000000005</ele><time>2026-05-03T09:12:07.998Z</time></trkpt><trkpt lat="42.31110637652764" lon="13.770716284275267"><ele>439.40000000000003</ele><time>2026-05-03T09:12:08.998Z</time></trkpt><trkpt lat="42.31100967835662" lon="13.770783485550586"><ele>438.6</ele><time>2026-05-03T09:12:09.998Z</time></trkpt><trkpt lat="42.3109219075091" lon="13.77082008013929"><ele>437.8</ele><time>2026-05-03T09:12:10.998Z</time></trkpt><trkpt lat="42.310844144752544" lon="13.77082735115287"><ele>437.0</ele><time>2026-05-03T09:12:11.998Z</time></trkpt><trkpt lat="42.31076494543214" lon="13.770815478444728"><ele>437.0</ele><time>2026-05-03T09:12:12.998Z</time></trkpt><trkpt lat="42.31068097176884" lon="13.770801064228806"><ele>437.00000000000006</ele><time>2026-05-03T09:12:13.998Z</time></trkpt><trkpt lat="42.31060513630138" lon="13.77079248578726"><ele>437.00000000000006</ele><time>2026-05-03T09:12:14.998Z</time></trkpt><trkpt lat="42.31052564617225" lon="13.770809217380606"><ele>437.0</ele><time>2026-05-03T09:12:15.998Z</time></trkpt><trkpt lat="42.31042190175673" lon="13.770819713962256"><ele>437.0</ele><time>2026-05-03T09:12:16.998Z</time></trkpt><trkpt lat="42.310308102322395" lon="13.770832927220333"><ele>436.49999999999994</ele><time>2026-05-03T09:12:17.998Z</time></trkpt><trkpt lat="42.31020566054292" lon="13.770849216087315"><ele>436.0</ele><time>2026-05-03T09:12:18.998Z</time></trkpt><trkpt lat="42.310116528369434" lon="13.77086993560041"><ele>435.5</ele><time>2026-05-03T09:12:19.998Z</time></trkpt><trkpt lat="42.31004228030573" lon="13.770892846575528"><ele>435.0</ele><time>2026-05-03T09:12:20.998Z</time></trkpt><trkpt lat="42.309977156968614" lon="13.770939445373475"><ele>434.49999999999994</ele><time>2026-05-03T09:12:21.998Z</time></trkpt><trkpt lat="42.309903466204126" lon="13.770964584861915"><ele>434.0</ele><time>2026-05-03T09:12:22.998Z</time></trkpt><trkpt lat="42.309838400386035" lon="13.771006303624961"><ele>435.66666666666663</ele><time>2026-05-03T09:12:23.998Z</time></trkpt><trkpt lat="42.309777670924106" lon="13.771071725390343"><ele>437.3333333333333</ele><time>2026-05-03T09:12:24.998Z</time></trkpt><trkpt lat="42.3096966944549" lon="13.771120834627785"><ele>439.0</ele><time>2026-05-03T09:12:25.998Z</time></trkpt><trkpt lat="42.309648402172705" lon="13.771193731955883"><ele>440.66666666666663</ele><time>2026-05-03T09:12:26.998Z</time></trkpt><trkpt lat="42.309566218310756" lon="13.771270575901301"><ele>442.3333333333333</ele><time>2026-05-03T09:12:28.998Z</time></trkpt><trkpt lat="42.309467971932555" lon="13.771336488063463"><ele>444.0</ele><time>2026-05-03T09:12:30.998Z</time></trkpt><trkpt lat="42.309399903154905" lon="13.77138171933062"><ele>444.0</ele><time>2026-05-03T09:12:31.998Z</time></trkpt><trkpt lat="42.30933704300109" lon="13.771423489512276"><ele>444.0</ele><time>2026-05-03T09:12:32.998Z</time></trkpt><trkpt lat="42.30928048062969" lon="13.771462607290658"><ele>444.0</ele><time>2026-05-03T09:12:33.998Z</time></trkpt><trkpt lat="42.30920731595733" lon="13.771514680443904"><ele>444.0</ele><time>2026-05-03T09:12:35.998Z</time></trkpt><trkpt lat="42.30914871338111" lon="13.771556389220295"><ele>444.0</ele><time>2026-05-03T09:12:37.998Z</time></trkpt><trkpt lat="42.30905621089812" lon="13.771634700014292"><ele>444.0</ele><time>2026-05-03T09:12:40.997Z</time></trkpt><trkpt lat="42.3089619103345" lon="13.771727423657845"><ele>443.8333333333333</ele><time>2026-05-03T09:12:42.997Z</time></trkpt><trkpt lat="42.30890258846991" lon="13.771794690517881"><ele>443.66666666666663</ele><time>2026-05-03T09:12:43.997Z</time></trkpt><trkpt lat="42.308835183892676" lon="13.771877458729131"><ele>443.5</ele><time>2026-05-03T09:12:44.997Z</time></trkpt><trkpt lat="42.30877630190911" lon="13.77195645472184"><ele>443.3333333333333</ele><time>2026-05-03T09:12:45.997Z</time></trkpt><trkpt lat="42.308724889045536" lon="13.772025430242014"><ele>443.16666666666663</ele><time>2026-05-03T09:12:46.998Z</time></trkpt><trkpt lat="42.308648344371484" lon="13.7721270291716"><ele>443.0</ele><time>2026-05-03T09:12:48.998Z</time></trkpt><trkpt lat="42.308602724355666" lon="13.772185735592428"><ele>443.0</ele><time>2026-05-03T09:12:49.998Z</time></trkpt><trkpt lat="42.3085311514208" lon="13.772270644947453"><ele>443.0</ele><time>2026-05-03T09:12:50.998Z</time></trkpt><trkpt lat="42.30843640940954" lon="13.772347270606156"><ele>443.0</ele><time>2026-05-03T09:12:51.998Z</time></trkpt><trkpt lat="42.308322477530886" lon="13.772391569949194"><ele>443.0</ele><time>2026-05-03T09:12:52.998Z</time></trkpt><trkpt lat="42.30819475137049" lon="13.77250086942601"><ele>443.0</ele><time>2026-05-03T09:12:53.998Z</time></trkpt><trkpt lat="42.30811453103848" lon="13.772611285706361"><ele>442.99999999999994</ele><time>2026-05-03T09:12:54.998Z</time></trkpt><trkpt lat="42.30804334098971" lon="13.772719009692906"><ele>442.99999999999994</ele><time>2026-05-03T09:12:55.998Z</time></trkpt><trkpt lat="42.307980223099804" lon="13.772814668058727"><ele>443.0</ele><time>2026-05-03T09:12:56.998Z</time></trkpt><trkpt lat="42.30793132609852" lon="13.77288279659466"><ele>443.0</ele><time>2026-05-03T09:12:57.998Z</time></trkpt><trkpt lat="42.30788019797894" lon="13.772947396616702"><ele>441.2857142857143</ele><time>2026-05-03T09:12:59.998Z</time></trkpt><trkpt lat="42.30782486486915" lon="13.773014928170438"><ele>439.57142857142856</ele><time>2026-05-03T09:13:12.999Z</time></trkpt><trkpt lat="42.30777625607295" lon="13.773072992308094"><ele>437.8571428571429</ele><time>2026-05-03T09:13:13.999Z</time></trkpt><trkpt lat="42.307727828195596" lon="13.77312924121737"><ele>436.1428571428571</ele><time>2026-05-03T09:13:14.999Z</time></trkpt><trkpt lat="42.307678595992044" lon="13.773185729191363"><ele>434.4285714285714</ele><time>2026-05-03T09:13:15.999Z</time></trkpt><trkpt lat="42.30762174100072" lon="13.773251611574475"><ele>432.7142857142857</ele><time>2026-05-03T09:13:16.999Z</time></trkpt><trkpt lat="42.30755739048649" lon="13.773320927577764"><ele>431.0</ele><time>2026-05-03T09:13:17.999Z</time></trkpt><trkpt lat="42.30747927724328" lon="13.773405068450428"><ele>431.0</ele><time>2026-05-03T09:13:18.999Z</time></trkpt><trkpt lat="42.3074107959816" lon="13.773474008154897"><ele>431.0</ele><time>2026-05-03T09:13:19.999Z</time></trkpt><trkpt lat="42.307327956443494" lon="13.773549825686947"><ele>431.0</ele><time>2026-05-03T09:13:20.999Z</time></trkpt><trkpt lat="42.30723984548139" lon="13.773609002489643"><ele>431.0</ele><time>2026-05-03T09:13:21.999Z</time></trkpt><trkpt lat="42.30710087747692" lon="13.77371403265339"><ele>431.0</ele><time>2026-05-03T09:13:22.999Z</time></trkpt><trkpt lat="42.3070053009805" lon="13.773819284423697"><ele>429.5</ele><time>2026-05-03T09:13:23.999Z</time></trkpt><trkpt lat="42.30695839663831" lon="13.773986603155931"><ele>428.0</ele><time>2026-05-03T09:13:24.999Z</time></trkpt><trkpt lat="42.30692792515839" lon="13.774070628867271"><ele>426.5</ele><time>2026-05-03T09:13:25.999Z</time></trkpt><trkpt lat="42.30684590719925" lon="13.774203404933779"><ele>425.0</ele><time>2026-05-03T09:13:26.999Z</time></trkpt><trkpt lat="42.30675214815655" lon="13.774315846586138"><ele>425.75</ele><time>2026-05-03T09:13:27.999Z</time></trkpt><trkpt lat="42.306649869838246" lon="13.77443314100531"><ele>426.5</ele><time>2026-05-03T09:13:28.999Z</time></trkpt><trkpt lat="42.30653451908062" lon="13.774580271998563"><ele>427.25</ele><time>2026-05-03T09:13:29.999Z</time></trkpt><trkpt lat="42.30644333671689" lon="13.77474518266328"><ele>428.0</ele><time>2026-05-03T09:13:30.999Z</time></trkpt><trkpt lat="42.30635472828459" lon="13.774987760294344"><ele>426.66666666666663</ele><time>2026-05-03T09:13:31.999Z</time></trkpt><trkpt lat="42.30629424453555" lon="13.775203465879823"><ele>425.33333333333337</ele><time>2026-05-03T09:13:32.999Z</time></trkpt><trkpt lat="42.30623378804637" lon="13.775437136520443"><ele>424.0</ele><time>2026-05-03T09:13:33.999Z</time></trkpt><trkpt lat="42.30618843026439" lon="13.77563937931598"><ele>424.0</ele><time>2026-05-03T09:13:34.999Z</time></trkpt><trkpt lat="42.30614435450287" lon="13.775849483438135"><ele>424.0</ele><time>2026-05-03T09:13:35.999Z</time></trkpt><trkpt lat="42.30609551782718" lon="13.776078058549924"><ele>424.0</ele><time>2026-05-03T09:13:36.999Z</time></trkpt><trkpt lat="42.306040703151126" lon="13.7762992665542"><ele>423.79999999999995</ele><time>2026-05-03T09:13:37.999Z</time></trkpt><trkpt lat="42.305998301443424" lon="13.776441203503548"><ele>423.59999999999997</ele><time>2026-05-03T09:13:38.999Z</time></trkpt><trkpt lat="42.30595432904286" lon="13.776539272358116"><ele>423.4</ele><time>2026-05-03T09:13:39.999Z</time></trkpt><trkpt lat="42.30590825914414" lon="13.776622263252035"><ele>423.2</ele><time>2026-05-03T09:13:41.999Z</time></trkpt><trkpt lat="42.305800413519385" lon="13.776799582837773"><ele>423.0</ele><time>2026-05-03T09:13:43.999Z</time></trkpt><trkpt lat="42.30576423459516" lon="13.776923021237634"><ele>422.0</ele><time>2026-05-03T09:13:44.999Z</time></trkpt><trkpt lat="42.30617808770713" lon="13.777313304431118"><ele>422.0</ele><time>2026-05-03T09:13:45.999Z</time></trkpt><trkpt lat="42.30611913868969" lon="13.77750345805052"><ele>422.0</ele><time>2026-05-03T09:13:47.999Z</time></trkpt><trkpt lat="42.306041708352325" lon="13.777644471376847"><ele>422.0</ele><time>2026-05-03T09:13:48.999Z</time></trkpt><trkpt lat="42.3059612969372" lon="13.777771007226864"><ele>422.0</ele><time>2026-05-03T09:13:49.999Z</time></trkpt><trkpt lat="42.30586704795727" lon="13.777854068272408"><ele>421.75</ele><time>2026-05-03T09:13:50.999Z</time></trkpt><trkpt lat="42.30576502698172" lon="13.777933330666924"><ele>421.5</ele><time>2026-05-03T09:13:51.999Z</time></trkpt><trkpt lat="42.305697988207825" lon="13.778020642035859"><ele>421.25</ele><time>2026-05-03T09:13:52.999Z</time></trkpt><trkpt lat="42.305613364302125" lon="13.778136503986204"><ele>421.0</ele><time>2026-05-03T09:13:53.999Z</time></trkpt><trkpt lat="42.30550444674775" lon="13.778229697797542"><ele>419.6</ele><time>2026-05-03T09:13:54.999Z</time></trkpt><trkpt lat="42.30541222066508" lon="13.77827032738355"><ele>418.20000000000005</ele><time>2026-05-03T09:13:55.999Z</time></trkpt><trkpt lat="42.30534850240842" lon="13.778335758516"><ele>416.79999999999995</ele><time>2026-05-03T09:13:56.999Z</time></trkpt><trkpt lat="42.305263368075515" lon="13.778436678608998"><ele>415.4</ele><time>2026-05-03T09:13:57.999Z</time></trkpt><trkpt lat="42.30519177378352" lon="13.778564984860978"><ele>414.0</ele><time>2026-05-03T09:13:58.998Z</time></trkpt><trkpt lat="42.30512405191205" lon="13.77869503526823"><ele>414.0</ele><time>2026-05-03T09:13:59.998Z</time></trkpt><trkpt lat="42.30499811463848" lon="13.778838483600925"><ele>414.0</ele><time>2026-05-03T09:14:00.998Z</time></trkpt><trkpt lat="42.304884737459396" lon="13.779012203897159"><ele>414.0</ele><time>2026-05-03T09:14:01.998Z</time></trkpt><trkpt lat="42.30475633135274" lon="13.779185192123379"><ele>412.0</ele><time>2026-05-03T09:14:02.998Z</time></trkpt><trkpt lat="42.304652375078646" lon="13.77932122293648"><ele>410.0</ele><time>2026-05-03T09:14:03.998Z</time></trkpt><trkpt lat="42.304561176357865" lon="13.779390266778307"><ele>408.0</ele><time>2026-05-03T09:14:04.998Z</time></trkpt><trkpt lat="42.30445570801832" lon="13.779467736115189"><ele>406.0</ele><time>2026-05-03T09:14:05.998Z</time></trkpt><trkpt lat="42.304283055401314" lon="13.7795164358031"><ele>406.0</ele><time>2026-05-03T09:14:06.998Z</time></trkpt><trkpt lat="42.30416504685059" lon="13.77969039557962"><ele>406.0</ele><time>2026-05-03T09:14:07.998Z</time></trkpt><trkpt lat="42.304111784282235" lon="13.779782605415686"><ele>406.0</ele><time>2026-05-03T09:14:08.998Z</time></trkpt><trkpt lat="42.304039260557175" lon="13.7798815305928"><ele>406.0</ele><time>2026-05-03T09:14:09.998Z</time></trkpt><trkpt lat="42.30391060708599" lon="13.78004595891072"><ele>405.4</ele><time>2026-05-03T09:14:10.998Z</time></trkpt><trkpt lat="42.30380106448582" lon="13.78020995827698"><ele>404.8</ele><time>2026-05-03T09:14:11.998Z</time></trkpt><trkpt lat="42.303758864286195" lon="13.780290536741106"><ele>404.2</ele><time>2026-05-03T09:14:13.998Z</time></trkpt><trkpt lat="42.30371370376175" lon="13.780400156136528"><ele>403.59999999999997</ele><time>2026-05-03T09:14:27.998Z</time></trkpt><trkpt lat="42.30366855507369" lon="13.78052178445862"><ele>403.0</ele><time>2026-05-03T09:14:30.998Z</time></trkpt><trkpt lat="42.303636741362986" lon="13.780637089412389"><ele>403.0</ele><time>2026-05-03T09:14:32.998Z</time></trkpt><trkpt lat="42.303588019995516" lon="13.780774988128561"><ele>403.0</ele><time>2026-05-03T09:14:34.998Z</time></trkpt><trkpt lat="42.303507869750725" lon="13.780887485994159"><ele>403.0</ele><time>2026-05-03T09:14:36.998Z</time></trkpt><trkpt lat="42.30341863249423" lon="13.780988275198263"><ele>403.0</ele><time>2026-05-03T09:14:38.998Z</time></trkpt><trkpt lat="42.30335442879209" lon="13.781053897680364"><ele>403.0</ele><time>2026-05-03T09:14:39.998Z</time></trkpt><trkpt lat="42.30327620565074" lon="13.781136857068416"><ele>404.0</ele><time>2026-05-03T09:14:40.998Z</time></trkpt><trkpt lat="42.30318892607438" lon="13.781215050530568"><ele>405.0</ele><time>2026-05-03T09:14:41.998Z</time></trkpt><trkpt lat="42.30311128846358" lon="13.781314275442373"><ele>406.0</ele><time>2026-05-03T09:14:42.998Z</time></trkpt><trkpt lat="42.303027906769145" lon="13.78143208714799"><ele>407.0</ele><time>2026-05-03T09:14:43.998Z</time></trkpt><trkpt lat="42.30292742182498" lon="13.78155154661766"><ele>405.40000000000003</ele><time>2026-05-03T09:14:44.998Z</time></trkpt><trkpt lat="42.302843174240394" lon="13.781679507942815"><ele>403.8</ele><time>2026-05-03T09:14:45.998Z</time></trkpt><trkpt lat="42.30276913267535" lon="13.781791659604366"><ele>402.2</ele><time>2026-05-03T09:14:46.998Z</time></trkpt><trkpt lat="42.30269990978234" lon="13.781892554124086"><ele>400.6</ele><time>2026-05-03T09:14:47.998Z</time></trkpt><trkpt lat="42.30263119161306" lon="13.781987011681824"><ele>399.0</ele><time>2026-05-03T09:14:48.998Z</time></trkpt><trkpt lat="42.30256053392453" lon="13.782074518001801"><ele>399.0</ele><time>2026-05-03T09:14:49.998Z</time></trkpt><trkpt lat="42.302489382542525" lon="13.78215865523269"><ele>399.0</ele><time>2026-05-03T09:14:50.998Z</time></trkpt><trkpt lat="42.302417245692844" lon="13.78223734906922"><ele>399.0</ele><time>2026-05-03T09:14:51.998Z</time></trkpt><trkpt lat="42.30234743292401" lon="13.782306351807021"><ele>399.0</ele><time>2026-05-03T09:14:52.999Z</time></trkpt><trkpt lat="42.30227713912769" lon="13.782372507339709"><ele>399.0</ele><time>2026-05-03T09:14:53.999Z</time></trkpt><trkpt lat="42.30221614453226" lon="13.782423862244535"><ele>399.0</ele><time>2026-05-03T09:14:54.999Z</time></trkpt><trkpt lat="42.30213629834403" lon="13.782477418258031"><ele>397.5</ele><time>2026-05-03T09:14:56.999Z</time></trkpt><trkpt lat="42.30211789988964" lon="13.782344372328467"><ele>396.0</ele><time>2026-05-03T09:14:58.999Z</time></trkpt><trkpt lat="42.30212625695278" lon="13.782242980072123"><ele>394.5</ele><time>2026-05-03T09:14:59.999Z</time></trkpt><trkpt lat="42.30212010833423" lon="13.782139096682355"><ele>393.0</ele><time>2026-05-03T09:15:00.999Z</time></trkpt><trkpt lat="42.30209486936738" lon="13.78202598881783"><ele>391.5</ele><time>2026-05-03T09:15:01.999Z</time></trkpt><trkpt lat="42.30206943077112" lon="13.781906135455117"><ele>390.0</ele><time>2026-05-03T09:15:02.999Z</time></trkpt><trkpt lat="42.302048106724044" lon="13.78176898795896"><ele>388.8</ele><time>2026-05-03T09:15:03.999Z</time></trkpt><trkpt lat="42.302031562532605" lon="13.781631879360424"><ele>387.6</ele><time>2026-05-03T09:15:04.999Z</time></trkpt><trkpt lat="42.302019144546584" lon="13.781474703054668"><ele>386.4</ele><time>2026-05-03T09:15:05.999Z</time></trkpt><trkpt lat="42.301983156153206" lon="13.781331651808289"><ele>385.2</ele><time>2026-05-03T09:15:06.999Z</time></trkpt><trkpt lat="42.30196739956733" lon="13.781191027381528"><ele>384.0</ele><time>2026-05-03T09:15:07.999Z</time></trkpt><trkpt lat="42.301949501534715" lon="13.781054315815508"><ele>384.0</ele><time>2026-05-03T09:15:08.999Z</time></trkpt><trkpt lat="42.30194102360586" lon="13.780927900320563"><ele>384.0</ele><time>2026-05-03T09:15:09.999Z</time></trkpt><trkpt lat="42.301937818830275" lon="13.780809132587814"><ele>384.0</ele><time>2026-05-03T09:15:10.999Z</time></trkpt><trkpt lat="42.301926233901604" lon="13.780695987816987"><ele>384.0</ele><time>2026-05-03T09:15:11.999Z</time></trkpt><trkpt lat="42.30190464232412" lon="13.7805881820368"><ele>384.0</ele><time>2026-05-03T09:15:12.999Z</time></trkpt><trkpt lat="42.30190230097277" lon="13.780474884398668"><ele>384.0</ele><time>2026-05-03T09:15:13.999Z</time></trkpt><trkpt lat="42.3019187719013" lon="13.780384158674467"><ele>384.0</ele><time>2026-05-03T09:15:14.999Z</time></trkpt><trkpt lat="42.301963011548715" lon="13.78025607883596"><ele>384.0</ele><time>2026-05-03T09:15:17.999Z</time></trkpt><trkpt lat="42.30198019165845" lon="13.780168928535328"><ele>384.0</ele><time>2026-05-03T09:15:18.999Z</time></trkpt><trkpt lat="42.30198021858763" lon="13.780081521100483"><ele>384.0</ele><time>2026-05-03T09:15:19.999Z</time></trkpt><trkpt lat="42.30195309829921" lon="13.780002827210097"><ele>384.0</ele><time>2026-05-03T09:15:20.999Z</time></trkpt><trkpt lat="42.30191295624481" lon="13.779873438627693"><ele>384.0</ele><time>2026-05-03T09:15:21.999Z</time></trkpt><trkpt lat="42.30186474553051" lon="13.779749453109199"><ele>383.5</ele><time>2026-05-03T09:15:22.999Z</time></trkpt><trkpt lat="42.30181252895044" lon="13.779606788042463"><ele>383.0</ele><time>2026-05-03T09:15:23.999Z</time></trkpt><trkpt lat="42.3017631907487" lon="13.779469177750876"><ele>382.5</ele><time>2026-05-03T09:15:24.999Z</time></trkpt><trkpt lat="42.301715818289416" lon="13.77932747983188"><ele>382.0</ele><time>2026-05-03T09:15:25.999Z</time></trkpt><trkpt lat="42.30167259970492" lon="13.77918073182492"><ele>381.40000000000003</ele><time>2026-05-03T09:15:26.999Z</time></trkpt><trkpt lat="42.30163508190593" lon="13.779030418695596"><ele>380.8</ele><time>2026-05-03T09:15:27.999Z</time></trkpt><trkpt lat="42.301595131298356" lon="13.778890223331011"><ele>380.2</ele><time>2026-05-03T09:15:28.999Z</time></trkpt><trkpt lat="42.30156202980741" lon="13.778751199863372"><ele>379.6</ele><time>2026-05-03T09:15:29.999Z</time></trkpt><trkpt lat="42.30152604084858" lon="13.778618313074784"><ele>379.0</ele><time>2026-05-03T09:15:30.999Z</time></trkpt><trkpt lat="42.30149345104239" lon="13.778485899586896"><ele>378.2</ele><time>2026-05-03T09:15:31.999Z</time></trkpt><trkpt lat="42.30146493498003" lon="13.778351623660216"><ele>377.4</ele><time>2026-05-03T09:15:32.999Z</time></trkpt><trkpt lat="42.30143080187064" lon="13.778222856294704"><ele>376.6</ele><time>2026-05-03T09:15:33.999Z</time></trkpt><trkpt lat="42.30139015725681" lon="13.77809857519302"><ele>375.8</ele><time>2026-05-03T09:15:34.999Z</time></trkpt><trkpt lat="42.30134187167971" lon="13.777962759729338"><ele>375.0</ele><time>2026-05-03T09:15:35.999Z</time></trkpt><trkpt lat="42.30131651206471" lon="13.777821598296173"><ele>373.8</ele><time>2026-05-03T09:15:36.999Z</time></trkpt><trkpt lat="42.30129785907748" lon="13.777686867261945"><ele>372.6</ele><time>2026-05-03T09:15:37.999Z</time></trkpt><trkpt lat="42.30128245426522" lon="13.777548652019936"><ele>371.4</ele><time>2026-05-03T09:15:38.999Z</time></trkpt><trkpt lat="42.30127126676714" lon="13.777402036922792"><ele>370.2</ele><time>2026-05-03T09:15:39.999Z</time></trkpt><trkpt lat="42.30126775275227" lon="13.77724990416805"><ele>369.0</ele><time>2026-05-03T09:15:40.999Z</time></trkpt><trkpt lat="42.30130246719196" lon="13.777104788238224"><ele>368.6666666666667</ele><time>2026-05-03T09:15:41.999Z</time></trkpt><trkpt lat="42.30131318731701" lon="13.77697078674773"><ele>368.3333333333333</ele><time>2026-05-03T09:15:42.999Z</time></trkpt><trkpt lat="42.30130748649326" lon="13.77685195188405"><ele>368.0</ele><time>2026-05-03T09:15:43.999Z</time></trkpt><trkpt lat="42.30126602582222" lon="13.776770862530084"><ele>367.66666666666663</ele><time>2026-05-03T09:15:44.999Z</time></trkpt><trkpt lat="42.30122597223597" lon="13.776681835063641"><ele>367.3333333333333</ele><time>2026-05-03T09:15:45.999Z</time></trkpt><trkpt lat="42.301167929174326" lon="13.776576066366978"><ele>367.0</ele><time>2026-05-03T09:15:46.999Z</time></trkpt><trkpt lat="42.30110932825068" lon="13.77646563767742"><ele>367.0</ele><time>2026-05-03T09:15:47.999Z</time></trkpt><trkpt lat="42.30104971018087" lon="13.776356122282959"><ele>367.0</ele><time>2026-05-03T09:15:48.999Z</time></trkpt><trkpt lat="42.3009736838793" lon="13.776268850270782"><ele>367.0</ele><time>2026-05-03T09:15:49.999Z</time></trkpt><trkpt lat="42.30089946996593" lon="13.7761836263077"><ele>367.0</ele><time>2026-05-03T09:15:50.999Z</time></trkpt><trkpt lat="42.30085348059456" lon="13.776116065638345"><ele>367.0</ele><time>2026-05-03T09:15:51.999Z</time></trkpt><trkpt lat="42.30088194050445" lon="13.776004901646667"><ele>367.5</ele><time>2026-05-03T09:15:54.999Z</time></trkpt><trkpt lat="42.3009088130666" lon="13.775926913360664"><ele>368.0</ele><time>2026-05-03T09:15:55.999Z</time></trkpt><trkpt lat="42.300923025734" lon="13.775828252806939"><ele>368.5</ele><time>2026-05-03T09:15:56.999Z</time></trkpt><trkpt lat="42.30089499663102" lon="13.77575190855292"><ele>369.0</ele><time>2026-05-03T09:15:57.999Z</time></trkpt><trkpt lat="42.30080196794164" lon="13.775712552842606"><ele>369.5</ele><time>2026-05-03T09:15:58.999Z</time></trkpt><trkpt lat="42.300730657012345" lon="13.775657095008972"><ele>370.0</ele><time>2026-05-03T09:15:59.999Z</time></trkpt><trkpt lat="42.30066460877419" lon="13.775610142941265"><ele>370.0</ele><time>2026-05-03T09:16:00.999Z</time></trkpt><trkpt lat="42.300604355268455" lon="13.775573426990098"><ele>370.0</ele><time>2026-05-03T09:16:01.999Z</time></trkpt><trkpt lat="42.30047804851325" lon="13.775549542604224"><ele>370.0</ele><time>2026-05-03T09:16:03.999Z</time></trkpt><trkpt lat="42.300444566306375" lon="13.775471163618885"><ele>370.0</ele><time>2026-05-03T09:16:04.999Z</time></trkpt><trkpt lat="42.30039889192486" lon="13.775401806069231"><ele>370.0</ele><time>2026-05-03T09:16:05.999Z</time></trkpt><trkpt lat="42.30035799962726" lon="13.775304744740273"><ele>370.0</ele><time>2026-05-03T09:16:06.999Z</time></trkpt><trkpt lat="42.30030362600865" lon="13.775225544523185"><ele>368.0</ele><time>2026-05-03T09:16:07.999Z</time></trkpt><trkpt lat="42.30022914497451" lon="13.775143104745721"><ele>366.0</ele><time>2026-05-03T09:16:08.999Z</time></trkpt><trkpt lat="42.300170856500614" lon="13.775059154972267"><ele>364.0</ele><time>2026-05-03T09:16:09.999Z</time></trkpt><trkpt lat="42.30009542405167" lon="13.775018348003442"><ele>362.0</ele><time>2026-05-03T09:16:10.999Z</time></trkpt><trkpt lat="42.29999316842366" lon="13.774988928744046"><ele>360.0</ele><time>2026-05-03T09:16:12.999Z</time></trkpt><trkpt lat="42.29993835246435" lon="13.775076169061887"><ele>360.0</ele><time>2026-05-03T09:16:13.999Z</time></trkpt><trkpt lat="42.29988608678905" lon="13.775157050833952"><ele>360.0</ele><time>2026-05-03T09:16:14.999Z</time></trkpt><trkpt lat="42.29979458735438" lon="13.775236328050523"><ele>360.0</ele><time>2026-05-03T09:16:16.999Z</time></trkpt><trkpt lat="42.299720749363324" lon="13.775305043377221"><ele>360.0</ele><time>2026-05-03T09:16:17.999Z</time></trkpt><trkpt lat="42.299630863557006" lon="13.775389538423147"><ele>360.0</ele><time>2026-05-03T09:16:18.999Z</time></trkpt><trkpt lat="42.29953367346569" lon="13.775472795589415"><ele>359.6</ele><time>2026-05-03T09:16:19.999Z</time></trkpt><trkpt lat="42.299469569789125" lon="13.775504938769712"><ele>359.2</ele><time>2026-05-03T09:16:20.999Z</time></trkpt><trkpt lat="42.29936419896142" lon="13.775465018911126"><ele>358.79999999999995</ele><time>2026-05-03T09:16:24.999Z</time></trkpt><trkpt lat="42.29928639629388" lon="13.775408652562799"><ele>358.4</ele><time>2026-05-03T09:16:25.999Z</time></trkpt><trkpt lat="42.29919284204224" lon="13.775348344778244"><ele>358.0</ele><time>2026-05-03T09:16:26.999Z</time></trkpt><trkpt lat="42.29911556786877" lon="13.775263367087897"><ele>358.0</ele><time>2026-05-03T09:16:27.999Z</time></trkpt><trkpt lat="42.29905493571046" lon="13.775219699032332"><ele>358.0</ele><time>2026-05-03T09:16:28.999Z</time></trkpt><trkpt lat="42.29893110920297" lon="13.775391393753921"><ele>358.0</ele><time>2026-05-03T09:16:31.999Z</time></trkpt><trkpt lat="42.298893677389906" lon="13.775507645974725"><ele>358.0</ele><time>2026-05-03T09:16:32.999Z</time></trkpt><trkpt lat="42.298851413490375" lon="13.775651337498095"><ele>357.5</ele><time>2026-05-03T09:16:33.999Z</time></trkpt><trkpt lat="42.298817639828464" lon="13.775829278462385"><ele>357.0</ele><time>2026-05-03T09:16:34.999Z</time></trkpt><trkpt lat="42.29877710146136" lon="13.776017222765162"><ele>356.5</ele><time>2026-05-03T09:16:35.999Z</time></trkpt><trkpt lat="42.29871931668264" lon="13.776225988327873"><ele>356.0</ele><time>2026-05-03T09:16:36.999Z</time></trkpt><trkpt lat="42.2986632819909" lon="13.776470019686784"><ele>356.0</ele><time>2026-05-03T09:16:37.999Z</time></trkpt><trkpt lat="42.298607654576735" lon="13.776712277229478"><ele>356.0</ele><time>2026-05-03T09:16:38.999Z</time></trkpt><trkpt lat="42.29855382366402" lon="13.776941846317785"><ele>356.0</ele><time>2026-05-03T09:16:39.999Z</time></trkpt><trkpt lat="42.29849209034383" lon="13.777197349161984"><ele>356.25</ele><time>2026-05-03T09:16:40.999Z</time></trkpt><trkpt lat="42.29843660400626" lon="13.77743284119454"><ele>356.5</ele><time>2026-05-03T09:16:41.999Z</time></trkpt><trkpt lat="42.29839298643846" lon="13.777590529935702"><ele>356.75</ele><time>2026-05-03T09:16:42.999Z</time></trkpt><trkpt lat="42.29834752978324" lon="13.777689347887174"><ele>357.0</ele><time>2026-05-03T09:16:43.999Z</time></trkpt><trkpt lat="42.29827706175382" lon="13.777770166233635"><ele>357.0</ele><time>2026-05-03T09:16:45.999Z</time></trkpt><trkpt lat="42.298143956929884" lon="13.777801348372739"><ele>357.0</ele><time>2026-05-03T09:16:47.999Z</time></trkpt><trkpt lat="42.29805444981205" lon="13.777914487945434"><ele>357.0</ele><time>2026-05-03T09:16:48.999Z</time></trkpt><trkpt lat="42.29796296114008" lon="13.778028942062697"><ele>357.0</ele><time>2026-05-03T09:16:49.999Z</time></trkpt><trkpt lat="42.29786285881038" lon="13.778157816179558"><ele>356.0</ele><time>2026-05-03T09:16:50.999Z</time></trkpt><trkpt lat="42.29774949633529" lon="13.778304514327251"><ele>355.0</ele><time>2026-05-03T09:16:51.999Z</time></trkpt><trkpt lat="42.297630664006725" lon="13.778458290897074"><ele>354.0</ele><time>2026-05-03T09:16:52.999Z</time></trkpt><trkpt lat="42.29750906933105" lon="13.778619762140906"><ele>353.3333333333333</ele><time>2026-05-03T09:16:53.999Z</time></trkpt><trkpt lat="42.29739296304257" lon="13.77876480325939"><ele>352.66666666666663</ele><time>2026-05-03T09:16:54.999Z</time></trkpt><trkpt lat="42.29726664398385" lon="13.778890454225785"><ele>352.0</ele><time>2026-05-03T09:16:55.999Z</time></trkpt><trkpt lat="42.29714550650391" lon="13.778991685778744"><ele>351.75</ele><time>2026-05-03T09:16:56.999Z</time></trkpt><trkpt lat="42.29701400270048" lon="13.779108645728966"><ele>351.5</ele><time>2026-05-03T09:16:57.999Z</time></trkpt><trkpt lat="42.29692175902675" lon="13.77921340042627"><ele>351.25</ele><time>2026-05-03T09:16:58.999Z</time></trkpt><trkpt lat="42.29683501792675" lon="13.779322001683106"><ele>351.0</ele><time>2026-05-03T09:16:59.999Z</time></trkpt><trkpt lat="42.29674786505851" lon="13.779439951906944"><ele>351.0</ele><time>2026-05-03T09:17:00.999Z</time></trkpt><trkpt lat="42.29665487643767" lon="13.77957754043293"><ele>351.0</ele><time>2026-05-03T09:17:01.999Z</time></trkpt><trkpt lat="42.296559677634214" lon="13.77974437108888"><ele>351.0</ele><time>2026-05-03T09:17:02.999Z</time></trkpt><trkpt lat="42.29645754684584" lon="13.779945352632742"><ele>351.0</ele><time>2026-05-03T09:17:03.999Z</time></trkpt><trkpt lat="42.29637379200228" lon="13.78012393322438"><ele>351.0</ele><time>2026-05-03T09:17:04.999Z</time></trkpt><trkpt lat="42.296265017014115" lon="13.780293066214753"><ele>351.0</ele><time>2026-05-03T09:17:06Z</time></trkpt><trkpt lat="42.29616751895055" lon="13.780458869797487"><ele>351.6666666666667</ele><time>2026-05-03T09:17:07Z</time></trkpt><trkpt lat="42.29609489409452" lon="13.780644697732292"><ele>352.33333333333337</ele><time>2026-05-03T09:17:08Z</time></trkpt><trkpt lat="42.295982153643266" lon="13.780790166451624"><ele>353.0</ele><time>2026-05-03T09:17:09Z</time></trkpt><trkpt lat="42.295882252068694" lon="13.780949364640744"><ele>352.6666666666667</ele><time>2026-05-03T09:17:10Z</time></trkpt><trkpt lat="42.295783306006186" lon="13.781126292685965"><ele>352.3333333333333</ele><time>2026-05-03T09:17:11Z</time></trkpt><trkpt lat="42.29569342258996" lon="13.781339294251781"><ele>352.0</ele><time>2026-05-03T09:17:12Z</time></trkpt><trkpt lat="42.295581398467874" lon="13.781514376033874"><ele>352.0</ele><time>2026-05-03T09:17:13Z</time></trkpt><trkpt lat="42.29545782317518" lon="13.781604100477985"><ele>352.0</ele><time>2026-05-03T09:17:14Z</time></trkpt><trkpt lat="42.29532016412438" lon="13.78172678218625"><ele>352.0</ele><time>2026-05-03T09:17:15Z</time></trkpt><trkpt lat="42.29518348553175" lon="13.781869967312298"><ele>352.0</ele><time>2026-05-03T09:17:16Z</time></trkpt><trkpt lat="42.29504574365535" lon="13.782038491385496"><ele>352.0</ele><time>2026-05-03T09:17:17Z</time></trkpt><trkpt lat="42.29490575553248" lon="13.782182691360758"><ele>352.0</ele><time>2026-05-03T09:17:18Z</time></trkpt><trkpt lat="42.294779568355246" lon="13.782335648811557"><ele>351.3333333333333</ele><time>2026-05-03T09:17:19Z</time></trkpt><trkpt lat="42.2946532360484" lon="13.78248266668489"><ele>350.6666666666667</ele><time>2026-05-03T09:17:20Z</time></trkpt><trkpt lat="42.29451838359852" lon="13.782653212360579"><ele>350.0</ele><time>2026-05-03T09:17:21Z</time></trkpt><trkpt lat="42.29437126658649" lon="13.78282829427755"><ele>350.0</ele><time>2026-05-03T09:17:22Z</time></trkpt><trkpt lat="42.29423982339814" lon="13.783001591606968"><ele>350.0</ele><time>2026-05-03T09:17:23Z</time></trkpt><trkpt lat="42.29413026230696" lon="13.783180050072783"><ele>350.0</ele><time>2026-05-03T09:17:24Z</time></trkpt><trkpt lat="42.29400611444848" lon="13.783340199111551"><ele>350.0</ele><time>2026-05-03T09:17:25Z</time></trkpt><trkpt lat="42.29387325794266" lon="13.783504256763589"><ele>350.0</ele><time>2026-05-03T09:17:26Z</time></trkpt><trkpt lat="42.29376085483446" lon="13.783655011654794"><ele>350.0</ele><time>2026-05-03T09:17:27Z</time></trkpt><trkpt lat="42.29364978133957" lon="13.783807364511839"><ele>350.33333333333337</ele><time>2026-05-03T09:17:28Z</time></trkpt><trkpt lat="42.29353222556729" lon="13.78396429180684"><ele>350.6666666666667</ele><time>2026-05-03T09:17:29Z</time></trkpt><trkpt lat="42.293402522067574" lon="13.784120001210871"><ele>351.0</ele><time>2026-05-03T09:17:30Z</time></trkpt><trkpt lat="42.29327393544164" lon="13.784253139933284"><ele>351.3333333333333</ele><time>2026-05-03T09:17:31Z</time></trkpt><trkpt lat="42.29313044636148" lon="13.784378473397316"><ele>351.66666666666663</ele><time>2026-05-03T09:17:32Z</time></trkpt><trkpt lat="42.29299002921697" lon="13.784487406079178"><ele>352.0</ele><time>2026-05-03T09:17:33Z</time></trkpt><trkpt lat="42.2928468097914" lon="13.784590220559297"><ele>352.0</ele><time>2026-05-03T09:17:34Z</time></trkpt><trkpt lat="42.29267975233889" lon="13.784701928721118"><ele>352.0</ele><time>2026-05-03T09:17:35Z</time></trkpt><trkpt lat="42.29251237783174" lon="13.784807742902908"><ele>352.0</ele><time>2026-05-03T09:17:36Z</time></trkpt><trkpt lat="42.292351428528164" lon="13.784901629159696"><ele>351.5</ele><time>2026-05-03T09:17:37Z</time></trkpt><trkpt lat="42.29221521182584" lon="13.784965562567182"><ele>351.0</ele><time>2026-05-03T09:17:38Z</time></trkpt><trkpt lat="42.29208429508586" lon="13.78501384868529"><ele>350.5</ele><time>2026-05-03T09:17:39Z</time></trkpt><trkpt lat="42.2919660550752" lon="13.785056606237198"><ele>350.0</ele><time>2026-05-03T09:17:40Z</time></trkpt><trkpt lat="42.29185333652822" lon="13.785104944170298"><ele>350.0</ele><time>2026-05-03T09:17:41Z</time></trkpt><trkpt lat="42.29174381082375" lon="13.785164591817741"><ele>350.0</ele><time>2026-05-03T09:17:42Z</time></trkpt><trkpt lat="42.29162306594093" lon="13.785236464463086"><ele>350.0</ele><time>2026-05-03T09:17:43Z</time></trkpt><trkpt lat="42.29149565882333" lon="13.785321707586553"><ele>350.0</ele><time>2026-05-03T09:17:44Z</time></trkpt><trkpt lat="42.291365567560504" lon="13.785414618110563"><ele>350.33333333333337</ele><time>2026-05-03T09:17:45Z</time></trkpt><trkpt lat="42.291238287893016" lon="13.78550969603464"><ele>350.6666666666667</ele><time>2026-05-03T09:17:46Z</time></trkpt><trkpt lat="42.29110370654851" lon="13.785628943478503"><ele>351.0</ele><time>2026-05-03T09:17:47Z</time></trkpt><trkpt lat="42.2909746180972" lon="13.785716138340199"><ele>351.0</ele><time>2026-05-03T09:17:48Z</time></trkpt><trkpt lat="42.290849080766826" lon="13.785808979758771"><ele>351.0</ele><time>2026-05-03T09:17:49Z</time></trkpt><trkpt lat="42.29071337838876" lon="13.78593492642071"><ele>351.0</ele><time>2026-05-03T09:17:50Z</time></trkpt><trkpt lat="42.29054312416769" lon="13.786050460654511"><ele>351.3333333333333</ele><time>2026-05-03T09:17:51Z</time></trkpt><trkpt lat="42.29039569164493" lon="13.786167473567547"><ele>351.66666666666663</ele><time>2026-05-03T09:17:51.999Z</time></trkpt><trkpt lat="42.29023683231882" lon="13.786293555563603"><ele>352.0</ele><time>2026-05-03T09:17:52.999Z</time></trkpt><trkpt lat="42.29010880868031" lon="13.786395164416367"><ele>352.0</ele><time>2026-05-03T09:17:53.999Z</time></trkpt><trkpt lat="42.28998146584081" lon="13.786494673147725"><ele>352.0</ele><time>2026-05-03T09:17:54.999Z</time></trkpt><trkpt lat="42.28985483281538" lon="13.786593665235987"><ele>352.0</ele><time>2026-05-03T09:17:55.999Z</time></trkpt><trkpt lat="42.2897110624866" lon="13.78670379907795"><ele>351.3333333333333</ele><time>2026-05-03T09:17:56.999Z</time></trkpt><trkpt lat="42.28955635519352" lon="13.78681941760844"><ele>350.6666666666667</ele><time>2026-05-03T09:17:57.999Z</time></trkpt><trkpt lat="42.28939907878118" lon="13.786935862645185"><ele>350.0</ele><time>2026-05-03T09:17:58.999Z</time></trkpt><trkpt lat="42.289239210293864" lon="13.787055947549801"><ele>351.6666666666667</ele><time>2026-05-03T09:17:59.999Z</time></trkpt><trkpt lat="42.28908903092107" lon="13.78717911295281"><ele>353.3333333333333</ele><time>2026-05-03T09:18:00.999Z</time></trkpt><trkpt lat="42.288930828745784" lon="13.787317880125059"><ele>355.0</ele><time>2026-05-03T09:18:01.999Z</time></trkpt><trkpt lat="42.28878055267727" lon="13.787453158351864"><ele>355.0</ele><time>2026-05-03T09:18:02.999Z</time></trkpt><trkpt lat="42.28861808540741" lon="13.787599411047568"><ele>355.0</ele><time>2026-05-03T09:18:03.999Z</time></trkpt><trkpt lat="42.28845240971203" lon="13.787741012657728"><ele>355.0</ele><time>2026-05-03T09:18:04.999Z</time></trkpt><trkpt lat="42.2882998137195" lon="13.787866060299404"><ele>356.25</ele><time>2026-05-03T09:18:05.999Z</time></trkpt><trkpt lat="42.28817795701745" lon="13.787952065587511"><ele>357.5</ele><time>2026-05-03T09:18:06.999Z</time></trkpt><trkpt lat="42.288076624050944" lon="13.788007849379165"><ele>358.75</ele><time>2026-05-03T09:18:07.999Z</time></trkpt><trkpt lat="42.28798421401872" lon="13.788037371355461"><ele>360.0</ele><time>2026-05-03T09:18:08.999Z</time></trkpt><trkpt lat="42.287870118350284" lon="13.788052443854001"><ele>360.5</ele><time>2026-05-03T09:18:09.999Z</time></trkpt><trkpt lat="42.287745655579535" lon="13.788092907374697"><ele>361.0</ele><time>2026-05-03T09:18:10.999Z</time></trkpt><trkpt lat="42.287621151425974" lon="13.78814589510128"><ele>361.5</ele><time>2026-05-03T09:18:11.999Z</time></trkpt><trkpt lat="42.287516398737175" lon="13.788196777188915"><ele>362.0</ele><time>2026-05-03T09:18:12.999Z</time></trkpt><trkpt lat="42.28742040157383" lon="13.788247187544206"><ele>362.0</ele><time>2026-05-03T09:18:13.999Z</time></trkpt><trkpt lat="42.28732979951121" lon="13.788297610221598"><ele>362.0</ele><time>2026-05-03T09:18:14.999Z</time></trkpt><trkpt lat="42.28723021914935" lon="13.788355684127385"><ele>362.0</ele><time>2026-05-03T09:18:15.999Z</time></trkpt><trkpt lat="42.28714411182372" lon="13.788407547208793"><ele>362.0</ele><time>2026-05-03T09:18:16.999Z</time></trkpt><trkpt lat="42.287068790076184" lon="13.788453744316959"><ele>362.0</ele><time>2026-05-03T09:18:17.999Z</time></trkpt><trkpt lat="42.28698183743687" lon="13.78850774913573"><ele>362.0</ele><time>2026-05-03T09:18:18.999Z</time></trkpt><trkpt lat="42.28685937747627" lon="13.788583806718924"><ele>362.0</ele><time>2026-05-03T09:18:19.999Z</time></trkpt><trkpt lat="42.28674344838698" lon="13.788659271408267"><ele>362.0</ele><time>2026-05-03T09:18:20.999Z</time></trkpt><trkpt lat="42.286656139907755" lon="13.788718239575768"><ele>362.0</ele><time>2026-05-03T09:18:21.999Z</time></trkpt><trkpt lat="42.28657310383501" lon="13.788780902413674"><ele>362.0</ele><time>2026-05-03T09:18:23.999Z</time></trkpt><trkpt lat="42.28655857569139" lon="13.788685913866766"><ele>362.0</ele><time>2026-05-03T09:18:26.999Z</time></trkpt><trkpt lat="42.28657192017" lon="13.78856569965933"><ele>362.0</ele><time>2026-05-03T09:18:27.999Z</time></trkpt><trkpt lat="42.286581539115105" lon="13.78841233775253"><ele>362.0</ele><time>2026-05-03T09:18:28.999Z</time></trkpt><trkpt lat="42.28657193918766" lon="13.7882372706758"><ele>362.0</ele><time>2026-05-03T09:18:29.999Z</time></trkpt><trkpt lat="42.28654704160396" lon="13.788027103580086"><ele>360.6666666666667</ele><time>2026-05-03T09:18:30.999Z</time></trkpt><trkpt lat="42.286516929032686" lon="13.787784504163556"><ele>359.3333333333333</ele><time>2026-05-03T09:18:31.999Z</time></trkpt><trkpt lat="42.28648669428114" lon="13.787519452702833"><ele>358.0</ele><time>2026-05-03T09:18:32.999Z</time></trkpt><trkpt lat="42.286450731274215" lon="13.787230410873885"><ele>355.3333333333333</ele><time>2026-05-03T09:18:33.999Z</time></trkpt><trkpt lat="42.286416147106266" lon="13.786938374713403"><ele>352.6666666666667</ele><time>2026-05-03T09:18:34.999Z</time></trkpt><trkpt lat="42.286372684668926" lon="13.786638633251947"><ele>350.0</ele><time>2026-05-03T09:18:35.999Z</time></trkpt><trkpt lat="42.28632947092199" lon="13.7863454693564"><ele>348.0</ele><time>2026-05-03T09:18:36.999Z</time></trkpt><trkpt lat="42.286286635592894" lon="13.786072082737604"><ele>346.0</ele><time>2026-05-03T09:18:37.999Z</time></trkpt><trkpt lat="42.286248944140176" lon="13.785810362466018"><ele>344.0</ele><time>2026-05-03T09:18:38.999Z</time></trkpt><trkpt lat="42.286214781253925" lon="13.785557214492542"><ele>343.6666666666667</ele><time>2026-05-03T09:18:39.999Z</time></trkpt><trkpt lat="42.28618144257122" lon="13.78528311111672"><ele>343.3333333333333</ele><time>2026-05-03T09:18:40.999Z</time></trkpt><trkpt lat="42.286147032072655" lon="13.784993119777525"><ele>343.0</ele><time>2026-05-03T09:18:41.999Z</time></trkpt><trkpt lat="42.286125587974475" lon="13.78466685152997"><ele>344.0</ele><time>2026-05-03T09:18:42.999Z</time></trkpt><trkpt lat="42.28606957785823" lon="13.784326702755873"><ele>345.0</ele><time>2026-05-03T09:18:43.999Z</time></trkpt><trkpt lat="42.28602334070843" lon="13.78393608355643"><ele>345.0</ele><time>2026-05-03T09:18:44.999Z</time></trkpt><trkpt lat="42.28599720961053" lon="13.783553595188136"><ele>345.0</ele><time>2026-05-03T09:18:45.999Z</time></trkpt><trkpt lat="42.28594456300542" lon="13.783207159349292"><ele>345.5</ele><time>2026-05-03T09:18:46.999Z</time></trkpt><trkpt lat="42.28590832788672" lon="13.782875243306151"><ele>346.0</ele><time>2026-05-03T09:18:47.999Z</time></trkpt><trkpt lat="42.285866827821415" lon="13.782568681253633"><ele>345.0</ele><time>2026-05-03T09:18:48.999Z</time></trkpt><trkpt lat="42.28580460398672" lon="13.782292444476925"><ele>344.0</ele><time>2026-05-03T09:18:49.999Z</time></trkpt><trkpt lat="42.28571826107316" lon="13.782015293322795"><ele>343.0</ele><time>2026-05-03T09:18:50.999Z</time></trkpt><trkpt lat="42.2856054666857" lon="13.781736497204337"><ele>343.5</ele><time>2026-05-03T09:18:51.999Z</time></trkpt><trkpt lat="42.285486373143925" lon="13.781466773311113"><ele>344.0</ele><time>2026-05-03T09:18:52.999Z</time></trkpt><trkpt lat="42.285364970552344" lon="13.781190696108832"><ele>343.5</ele><time>2026-05-03T09:18:53.999Z</time></trkpt><trkpt lat="42.2852640602993" lon="13.7809016284792"><ele>343.0</ele><time>2026-05-03T09:18:54.999Z</time></trkpt><trkpt lat="42.28515011291205" lon="13.780623024499993"><ele>343.0</ele><time>2026-05-03T09:18:55.999Z</time></trkpt><trkpt lat="42.28503527253888" lon="13.780341762168787"><ele>343.0</ele><time>2026-05-03T09:18:56.999Z</time></trkpt><trkpt lat="42.28490404885778" lon="13.78006597511152"><ele>343.0</ele><time>2026-05-03T09:18:57.999Z</time></trkpt><trkpt lat="42.28478957453537" lon="13.77978383978812"><ele>343.0</ele><time>2026-05-03T09:18:58.999Z</time></trkpt><trkpt lat="42.28467189360289" lon="13.7794948715031"><ele>343.0</ele><time>2026-05-03T09:18:59.999Z</time></trkpt><trkpt lat="42.28455164549985" lon="13.77919411314677"><ele>343.0</ele><time>2026-05-03T09:19:00.999Z</time></trkpt><trkpt lat="42.28442348202236" lon="13.778881600676993"><ele>343.0</ele><time>2026-05-03T09:19:01.999Z</time></trkpt><trkpt lat="42.28428715555992" lon="13.778547947773061"><ele>343.0</ele><time>2026-05-03T09:19:02.999Z</time></trkpt><trkpt lat="42.28414675391133" lon="13.778201675230536"><ele>343.5</ele><time>2026-05-03T09:19:03.999Z</time></trkpt><trkpt lat="42.284002381505694" lon="13.777841976391063"><ele>344.0</ele><time>2026-05-03T09:19:05Z</time></trkpt><trkpt lat="42.28385496482876" lon="13.77748195917484"><ele>344.5</ele><time>2026-05-03T09:19:06Z</time></trkpt><trkpt lat="42.28371293791427" lon="13.777133286882144"><ele>345.0</ele><time>2026-05-03T09:19:07Z</time></trkpt><trkpt lat="42.28357855814994" lon="13.776813395764957"><ele>345.0</ele><time>2026-05-03T09:19:08Z</time></trkpt><trkpt lat="42.28345516078436" lon="13.776507709727754"><ele>345.0</ele><time>2026-05-03T09:19:09Z</time></trkpt><trkpt lat="42.2833385943504" lon="13.776223009771016"><ele>345.0</ele><time>2026-05-03T09:19:10Z</time></trkpt><trkpt lat="42.28322817833186" lon="13.775954973915832"><ele>345.0</ele><time>2026-05-03T09:19:11Z</time></trkpt><trkpt lat="42.28312960881063" lon="13.775705961032536"><ele>345.0</ele><time>2026-05-03T09:19:12Z</time></trkpt><trkpt lat="42.28303451480353" lon="13.775466024984391"><ele>345.0</ele><time>2026-05-03T09:19:13Z</time></trkpt><trkpt lat="42.28294351835568" lon="13.775252286055638"><ele>345.0</ele><time>2026-05-03T09:19:14Z</time></trkpt><trkpt lat="42.28285145005404" lon="13.775066429892881"><ele>345.0</ele><time>2026-05-03T09:19:15Z</time></trkpt><trkpt lat="42.28275913481204" lon="13.774923647739177"><ele>345.75</ele><time>2026-05-03T09:19:16Z</time></trkpt><trkpt lat="42.28267228033586" lon="13.774820649922185"><ele>346.5</ele><time>2026-05-03T09:19:17Z</time></trkpt><trkpt lat="42.28256696090184" lon="13.774729773324557"><ele>347.25</ele><time>2026-05-03T09:19:18Z</time></trkpt><trkpt lat="42.28243870331317" lon="13.774657300150324"><ele>348.0</ele><time>2026-05-03T09:19:19Z</time></trkpt><trkpt lat="42.282295012126696" lon="13.774612866001112"><ele>348.3333333333333</ele><time>2026-05-03T09:19:20Z</time></trkpt><trkpt lat="42.28213047377163" lon="13.77459119357617"><ele>348.66666666666663</ele><time>2026-05-03T09:19:21Z</time></trkpt><trkpt lat="42.28196101085337" lon="13.774568854136445"><ele>349.0</ele><time>2026-05-03T09:19:22Z</time></trkpt><trkpt lat="42.28182627974418" lon="13.774535934822627"><ele>349.0</ele><time>2026-05-03T09:19:23Z</time></trkpt><trkpt lat="42.281705345211186" lon="13.774455739231902"><ele>349.0</ele><time>2026-05-03T09:19:24Z</time></trkpt><trkpt lat="42.2815972490178" lon="13.774359147300295"><ele>349.0</ele><time>2026-05-03T09:19:25Z</time></trkpt><trkpt lat="42.281505303100644" lon="13.774242022142989"><ele>349.0</ele><time>2026-05-03T09:19:26Z</time></trkpt><trkpt lat="42.281397366265644" lon="13.774094716067662"><ele>349.66666666666663</ele><time>2026-05-03T09:19:27Z</time></trkpt><trkpt lat="42.28126758644229" lon="13.773936438123677"><ele>350.3333333333333</ele><time>2026-05-03T09:19:28Z</time></trkpt><trkpt lat="42.28111261279374" lon="13.773761464361366"><ele>351.0</ele><time>2026-05-03T09:19:29Z</time></trkpt><trkpt lat="42.2809725990635" lon="13.773562474988577"><ele>353.3333333333333</ele><time>2026-05-03T09:19:30Z</time></trkpt><trkpt lat="42.28084597535424" lon="13.773377595785727"><ele>355.66666666666663</ele><time>2026-05-03T09:19:31Z</time></trkpt><trkpt lat="42.280758954233875" lon="13.77316508838105"><ele>358.0</ele><time>2026-05-03T09:19:32Z</time></trkpt><trkpt lat="42.2806441598062" lon="13.772976860243688"><ele>357.0</ele><time>2026-05-03T09:19:33Z</time></trkpt><trkpt lat="42.28054826382465" lon="13.772785813945026"><ele>356.0</ele><time>2026-05-03T09:19:34Z</time></trkpt><trkpt lat="42.28045919154793" lon="13.772613047940434"><ele>355.0</ele><time>2026-05-03T09:19:35Z</time></trkpt><trkpt lat="42.280384492394546" lon="13.772465890352391"><ele>355.0</ele><time>2026-05-03T09:19:36Z</time></trkpt><trkpt lat="42.2803066941812" lon="13.772317490407806"><ele>355.0</ele><time>2026-05-03T09:19:37Z</time></trkpt><trkpt lat="42.28022218558145" lon="13.772192599463732"><ele>355.0</ele><time>2026-05-03T09:19:38Z</time></trkpt><trkpt lat="42.280112963547296" lon="13.772109305433771"><ele>355.0</ele><time>2026-05-03T09:19:39Z</time></trkpt><trkpt lat="42.27998279254273" lon="13.77203795244595"><ele>355.0</ele><time>2026-05-03T09:19:40Z</time></trkpt><trkpt lat="42.27986115279057" lon="13.771926041527907"><ele>355.0</ele><time>2026-05-03T09:19:41Z</time></trkpt><trkpt lat="42.279755001588185" lon="13.771805041311678"><ele>355.0</ele><time>2026-05-03T09:19:42Z</time></trkpt><trkpt lat="42.27966020358556" lon="13.771653437793587"><ele>355.0</ele><time>2026-05-03T09:19:43Z</time></trkpt><trkpt lat="42.2795925264166" lon="13.771465167417885"><ele>355.66666666666663</ele><time>2026-05-03T09:19:44Z</time></trkpt><trkpt lat="42.279511426380445" lon="13.771236117468794"><ele>356.3333333333333</ele><time>2026-05-03T09:19:45Z</time></trkpt><trkpt lat="42.27941535668624" lon="13.771003931625627"><ele>357.0</ele><time>2026-05-03T09:19:46Z</time></trkpt><trkpt lat="42.27934384277094" lon="13.770770351893342"><ele>357.6666666666667</ele><time>2026-05-03T09:19:47Z</time></trkpt><trkpt lat="42.2792683316271" lon="13.770553363866211"><ele>358.33333333333337</ele><time>2026-05-03T09:19:48Z</time></trkpt><trkpt lat="42.279195121227964" lon="13.770356886260386"><ele>359.0</ele><time>2026-05-03T09:19:49Z</time></trkpt><trkpt lat="42.27913683866367" lon="13.77020096426858"><ele>359.2</ele><time>2026-05-03T09:19:50Z</time></trkpt><trkpt lat="42.279092281464855" lon="13.770071280973385"><ele>359.4</ele><time>2026-05-03T09:19:51Z</time></trkpt><trkpt lat="42.2790520720004" lon="13.769950491721868"><ele>359.6</ele><time>2026-05-03T09:19:52Z</time></trkpt><trkpt lat="42.27900138201603" lon="13.769808287472744"><ele>359.8</ele><time>2026-05-03T09:19:53Z</time></trkpt><trkpt lat="42.278954288475944" lon="13.769678840804845"><ele>360.0</ele><time>2026-05-03T09:19:54Z</time></trkpt><trkpt lat="42.27891125229255" lon="13.769552605349226"><ele>360.0</ele><time>2026-05-03T09:19:55Z</time></trkpt><trkpt lat="42.27887610569234" lon="13.769440020414311"><ele>360.0</ele><time>2026-05-03T09:19:56Z</time></trkpt><trkpt lat="42.27884404455348" lon="13.769325869253358"><ele>360.0</ele><time>2026-05-03T09:19:58Z</time></trkpt><trkpt lat="42.27867097696039" lon="13.769432478644479"><ele>360.0</ele><time>2026-05-03T09:20:02Z</time></trkpt><trkpt lat="42.27857886534069" lon="13.76951350020487"><ele>360.0</ele><time>2026-05-03T09:20:03Z</time></trkpt><trkpt lat="42.27848431689644" lon="13.769616771417338"><ele>360.0</ele><time>2026-05-03T09:20:04Z</time></trkpt><trkpt lat="42.27839716934527" lon="13.769744117146615"><ele>360.0</ele><time>2026-05-03T09:20:05Z</time></trkpt><trkpt lat="42.27829195953915" lon="13.769855177221661"><ele>360.0</ele><time>2026-05-03T09:20:06Z</time></trkpt><trkpt lat="42.27818101814092" lon="13.76999625338792"><ele>359.5</ele><time>2026-05-03T09:20:07Z</time></trkpt><trkpt lat="42.278058796289166" lon="13.770134765005853"><ele>359.0</ele><time>2026-05-03T09:20:08Z</time></trkpt><trkpt lat="42.27794374134585" lon="13.770263445233795"><ele>358.5</ele><time>2026-05-03T09:20:09Z</time></trkpt><trkpt lat="42.27784098485369" lon="13.770373280213676"><ele>358.0</ele><time>2026-05-03T09:20:10Z</time></trkpt><trkpt lat="42.27774282073746" lon="13.770482414334257"><ele>357.0</ele><time>2026-05-03T09:20:11Z</time></trkpt><trkpt lat="42.277642490911745" lon="13.770593312916128"><ele>356.0</ele><time>2026-05-03T09:20:12Z</time></trkpt><trkpt lat="42.277524112472484" lon="13.770663563474947"><ele>355.0</ele><time>2026-05-03T09:20:13Z</time></trkpt><trkpt lat="42.27739630056715" lon="13.770705420799759"><ele>354.0</ele><time>2026-05-03T09:20:14Z</time></trkpt><trkpt lat="42.277249826827166" lon="13.770709685633552"><ele>352.0</ele><time>2026-05-03T09:20:15Z</time></trkpt><trkpt lat="42.27708256693248" lon="13.770697883346545"><ele>350.0</ele><time>2026-05-03T09:20:16Z</time></trkpt><trkpt lat="42.27686999384718" lon="13.770673721458298"><ele>348.0</ele><time>2026-05-03T09:20:17Z</time></trkpt><trkpt lat="42.276647763974026" lon="13.770646263007254"><ele>348.0</ele><time>2026-05-03T09:20:18Z</time></trkpt><trkpt lat="42.276440461547246" lon="13.770642418389288"><ele>348.0</ele><time>2026-05-03T09:20:19Z</time></trkpt><trkpt lat="42.27625597872884" lon="13.770596235134047"><ele>348.0</ele><time>2026-05-03T09:20:20Z</time></trkpt><trkpt lat="42.27607804764542" lon="13.770570313937903"><ele>346.6666666666667</ele><time>2026-05-03T09:20:21Z</time></trkpt><trkpt lat="42.27592525746984" lon="13.770546959865298"><ele>345.33333333333337</ele><time>2026-05-03T09:20:22Z</time></trkpt><trkpt lat="42.2757685904027" lon="13.77054447286791"><ele>344.0</ele><time>2026-05-03T09:20:23Z</time></trkpt><trkpt lat="42.27562113970265" lon="13.770518977870823"><ele>346.0</ele><time>2026-05-03T09:20:24Z</time></trkpt><trkpt lat="42.275485885835636" lon="13.770523132217587"><ele>348.0</ele><time>2026-05-03T09:20:25Z</time></trkpt><trkpt lat="42.27535070333624" lon="13.77054019993183"><ele>350.0</ele><time>2026-05-03T09:20:26Z</time></trkpt><trkpt lat="42.275218504968485" lon="13.770594816504381"><ele>352.0</ele><time>2026-05-03T09:20:27Z</time></trkpt><trkpt lat="42.275083284702134" lon="13.770676178204418"><ele>352.0</ele><time>2026-05-03T09:20:28Z</time></trkpt><trkpt lat="42.27497368477036" lon="13.770765671840262"><ele>352.0</ele><time>2026-05-03T09:20:29Z</time></trkpt><trkpt lat="42.274907190563766" lon="13.770891565877292"><ele>352.0</ele><time>2026-05-03T09:20:30Z</time></trkpt><trkpt lat="42.27486348744793" lon="13.771071867166183"><ele>352.0</ele><time>2026-05-03T09:20:31Z</time></trkpt><trkpt lat="42.27482617945991" lon="13.771288450421796"><ele>352.66666666666663</ele><time>2026-05-03T09:20:32Z</time></trkpt><trkpt lat="42.274784768687816" lon="13.771548590936444"><ele>353.3333333333333</ele><time>2026-05-03T09:20:33Z</time></trkpt><trkpt lat="42.27473751718488" lon="13.771799947183936"><ele>354.0</ele><time>2026-05-03T09:20:34Z</time></trkpt><trkpt lat="42.274672160963675" lon="13.772016051065227"><ele>354.0</ele><time>2026-05-03T09:20:34.999Z</time></trkpt><trkpt lat="42.27462745372904" lon="13.772205948239835"><ele>354.0</ele><time>2026-05-03T09:20:35.999Z</time></trkpt><trkpt lat="42.274599691692536" lon="13.77239532850163"><ele>354.0</ele><time>2026-05-03T09:20:36.999Z</time></trkpt><trkpt lat="42.27452294463645" lon="13.7725534237974"><ele>354.0</ele><time>2026-05-03T09:20:37.999Z</time></trkpt><trkpt lat="42.27442017918845" lon="13.772715382769398"><ele>353.3333333333333</ele><time>2026-05-03T09:20:38.999Z</time></trkpt><trkpt lat="42.27428990143383" lon="13.772876841217728"><ele>352.66666666666663</ele><time>2026-05-03T09:20:39.999Z</time></trkpt><trkpt lat="42.274156187933194" lon="13.77306374335713"><ele>352.0</ele><time>2026-05-03T09:20:40.999Z</time></trkpt><trkpt lat="42.27401367450337" lon="13.773233359692615"><ele>352.66666666666663</ele><time>2026-05-03T09:20:41.999Z</time></trkpt><trkpt lat="42.27387245340327" lon="13.773403561470785"><ele>353.3333333333333</ele><time>2026-05-03T09:20:42.999Z</time></trkpt><trkpt lat="42.27371280736016" lon="13.773593288331076"><ele>354.0</ele><time>2026-05-03T09:20:43.999Z</time></trkpt><trkpt lat="42.27354476020095" lon="13.773779477754063"><ele>354.0</ele><time>2026-05-03T09:20:44.999Z</time></trkpt><trkpt lat="42.27336658862368" lon="13.77398129781804"><ele>354.0</ele><time>2026-05-03T09:20:45.999Z</time></trkpt><trkpt lat="42.273206380714136" lon="13.774173652049228"><ele>354.0</ele><time>2026-05-03T09:20:46.999Z</time></trkpt><trkpt lat="42.27305721599245" lon="13.774401225727932"><ele>355.0</ele><time>2026-05-03T09:20:47.999Z</time></trkpt><trkpt lat="42.27292602340806" lon="13.774634471558196"><ele>356.0</ele><time>2026-05-03T09:20:48.999Z</time></trkpt><trkpt lat="42.27281402088382" lon="13.77485782330227"><ele>357.0</ele><time>2026-05-03T09:20:49.999Z</time></trkpt><trkpt lat="42.27269508229587" lon="13.775069855040442"><ele>356.0</ele><time>2026-05-03T09:20:50.999Z</time></trkpt><trkpt lat="42.27258167067199" lon="13.775248031583658"><ele>355.0</ele><time>2026-05-03T09:20:51.999Z</time></trkpt><trkpt lat="42.272492104185645" lon="13.775389694527265"><ele>354.0</ele><time>2026-05-03T09:20:52.999Z</time></trkpt><trkpt lat="42.272415370876594" lon="13.775527535695526"><ele>353.0</ele><time>2026-05-03T09:20:53.999Z</time></trkpt><trkpt lat="42.27234806698182" lon="13.775683946615073"><ele>353.0</ele><time>2026-05-03T09:20:54.999Z</time></trkpt><trkpt lat="42.27229459545436" lon="13.775849219598742"><ele>353.0</ele><time>2026-05-03T09:20:55.999Z</time></trkpt><trkpt lat="42.27225415061274" lon="13.776038509219203"><ele>353.0</ele><time>2026-05-03T09:20:56.999Z</time></trkpt><trkpt lat="42.2722273009182" lon="13.776266640239697"><ele>352.33333333333337</ele><time>2026-05-03T09:20:57.999Z</time></trkpt><trkpt lat="42.27220389543514" lon="13.776506942392642"><ele>351.6666666666667</ele><time>2026-05-03T09:20:58.999Z</time></trkpt><trkpt lat="42.272182245110386" lon="13.776758966146646"><ele>351.0</ele><time>2026-05-03T09:20:59.999Z</time></trkpt><trkpt lat="42.27216443983231" lon="13.777032628853837"><ele>350.0</ele><time>2026-05-03T09:21:00.999Z</time></trkpt><trkpt lat="42.27213963791225" lon="13.777314477604198"><ele>349.0</ele><time>2026-05-03T09:21:01.999Z</time></trkpt><trkpt lat="42.27211042267078" lon="13.77761003785097"><ele>348.0</ele><time>2026-05-03T09:21:02.999Z</time></trkpt><trkpt lat="42.27208430137281" lon="13.777892035696388"><ele>347.0</ele><time>2026-05-03T09:21:03.999Z</time></trkpt><trkpt lat="42.272054763530136" lon="13.778202360513887"><ele>346.0</ele><time>2026-05-03T09:21:04.999Z</time></trkpt><trkpt lat="42.272025305224595" lon="13.778504846178704"><ele>345.0</ele><time>2026-05-03T09:21:05.999Z</time></trkpt><trkpt lat="42.271996242173415" lon="13.778771872775419"><ele>344.0</ele><time>2026-05-03T09:21:06.999Z</time></trkpt><trkpt lat="42.2719695158101" lon="13.779037306848256"><ele>343.0</ele><time>2026-05-03T09:21:07.999Z</time></trkpt><trkpt lat="42.27193925662106" lon="13.779279412851972"><ele>342.25</ele><time>2026-05-03T09:21:08.999Z</time></trkpt><trkpt lat="42.271907834983764" lon="13.779494665762728"><ele>341.5</ele><time>2026-05-03T09:21:09.999Z</time></trkpt><trkpt lat="42.27187592153157" lon="13.779664286915141"><ele>340.75</ele><time>2026-05-03T09:21:11.001Z</time></trkpt><trkpt lat="42.271805470190166" lon="13.779798460045372"><ele>340.0</ele><time>2026-05-03T09:21:12.001Z</time></trkpt><trkpt lat="42.271730147363954" lon="13.779927191697855"><ele>340.0</ele><time>2026-05-03T09:21:13.001Z</time></trkpt><trkpt lat="42.27163279522653" lon="13.780070219125255"><ele>340.0</ele><time>2026-05-03T09:21:14.001Z</time></trkpt><trkpt lat="42.271526859675454" lon="13.780225780701485"><ele>340.0</ele><time>2026-05-03T09:21:15.001Z</time></trkpt><trkpt lat="42.27143302436678" lon="13.780392315955934"><ele>340.25</ele><time>2026-05-03T09:21:16.001Z</time></trkpt><trkpt lat="42.271334485643756" lon="13.78054439711986"><ele>340.5</ele><time>2026-05-03T09:21:17.001Z</time></trkpt><trkpt lat="42.27124274249733" lon="13.780673967647978"><ele>340.75</ele><time>2026-05-03T09:21:18.001Z</time></trkpt><trkpt lat="42.27115286872181" lon="13.780806540810271"><ele>341.0</ele><time>2026-05-03T09:21:19.001Z</time></trkpt><trkpt lat="42.271086169351655" lon="13.780917572137636"><ele>341.0</ele><time>2026-05-03T09:21:20.001Z</time></trkpt><trkpt lat="42.27103415959754" lon="13.781004013596139"><ele>341.0</ele><time>2026-05-03T09:21:21.001Z</time></trkpt><trkpt lat="42.2709834149895" lon="13.781069845753862"><ele>341.0</ele><time>2026-05-03T09:21:23.001Z</time></trkpt><trkpt lat="42.27089801893495" lon="13.781179808056805"><ele>341.0</ele><time>2026-05-03T09:21:26.001Z</time></trkpt><trkpt lat="42.27082048190069" lon="13.78126928672226"><ele>341.0</ele><time>2026-05-03T09:21:27Z</time></trkpt><trkpt lat="42.2707312420497" lon="13.781355609037794"><ele>339.75</ele><time>2026-05-03T09:21:28Z</time></trkpt><trkpt lat="42.27062325060385" lon="13.781394965607896"><ele>338.5</ele><time>2026-05-03T09:21:29Z</time></trkpt><trkpt lat="42.27050435972954" lon="13.781478927011392"><ele>337.25</ele><time>2026-05-03T09:21:30Z</time></trkpt><trkpt lat="42.270372279473854" lon="13.78155864811622"><ele>336.0</ele><time>2026-05-03T09:21:31Z</time></trkpt><trkpt lat="42.27023826224582" lon="13.781661623983606"><ele>336.0</ele><time>2026-05-03T09:21:32Z</time></trkpt><trkpt lat="42.270106100765936" lon="13.781775665327354"><ele>336.0</ele><time>2026-05-03T09:21:33Z</time></trkpt><trkpt lat="42.26999286323914" lon="13.781862734610124"><ele>336.0</ele><time>2026-05-03T09:21:34Z</time></trkpt><trkpt lat="42.26988726495079" lon="13.781927896304373"><ele>336.0</ele><time>2026-05-03T09:21:35Z</time></trkpt><trkpt lat="42.26975024916583" lon="13.781974279381698"><ele>337.0</ele><time>2026-05-03T09:21:36Z</time></trkpt><trkpt lat="42.26960228797228" lon="13.782026725488192"><ele>338.0</ele><time>2026-05-03T09:21:37Z</time></trkpt><trkpt lat="42.269474628326954" lon="13.782066113062195"><ele>339.0</ele><time>2026-05-03T09:21:38Z</time></trkpt><trkpt lat="42.26941226147178" lon="13.782149319920492"><ele>340.0</ele><time>2026-05-03T09:21:39Z</time></trkpt><trkpt lat="42.26937104088047" lon="13.782254119995667"><ele>340.0</ele><time>2026-05-03T09:21:40Z</time></trkpt><trkpt lat="42.26933963127367" lon="13.782396028864618"><ele>340.0</ele><time>2026-05-03T09:21:41Z</time></trkpt><trkpt lat="42.269312721859606" lon="13.78258182968727"><ele>340.0</ele><time>2026-05-03T09:21:42Z</time></trkpt><trkpt lat="42.2692886980762" lon="13.782818730453492"><ele>340.0</ele><time>2026-05-03T09:21:43Z</time></trkpt><trkpt lat="42.269253678650294" lon="13.783093109487474"><ele>340.0</ele><time>2026-05-03T09:21:44Z</time></trkpt><trkpt lat="42.269186847001684" lon="13.783316339113602"><ele>340.0</ele><time>2026-05-03T09:21:45Z</time></trkpt><trkpt lat="42.26912963464965" lon="13.783499772830583"><ele>340.0</ele><time>2026-05-03T09:21:46Z</time></trkpt><trkpt lat="42.26907212800764" lon="13.783717611481643"><ele>340.0</ele><time>2026-05-03T09:21:47Z</time></trkpt><trkpt lat="42.268973947937546" lon="13.783950864188911"><ele>340.0</ele><time>2026-05-03T09:21:48Z</time></trkpt><trkpt lat="42.268845653215266" lon="13.784168585791148"><ele>340.0</ele><time>2026-05-03T09:21:49Z</time></trkpt><trkpt lat="42.268738150332105" lon="13.784365863307515"><ele>340.75</ele><time>2026-05-03T09:21:50Z</time></trkpt><trkpt lat="42.2686388986019" lon="13.784532024388959"><ele>341.5</ele><time>2026-05-03T09:21:51Z</time></trkpt><trkpt lat="42.268539849937184" lon="13.784676085219946"><ele>342.25</ele><time>2026-05-03T09:21:52Z</time></trkpt><trkpt lat="42.26843241244708" lon="13.78480632894769"><ele>343.0</ele><time>2026-05-03T09:21:53Z</time></trkpt><trkpt lat="42.268305970100734" lon="13.784941393271945"><ele>343.0</ele><time>2026-05-03T09:21:54Z</time></trkpt><trkpt lat="42.268161112960705" lon="13.785085926013284"><ele>343.0</ele><time>2026-05-03T09:21:55Z</time></trkpt><trkpt lat="42.26801251960916" lon="13.78521412800605"><ele>343.0</ele><time>2026-05-03T09:21:56Z</time></trkpt><trkpt lat="42.267850179192955" lon="13.78534625932154"><ele>344.3333333333333</ele><time>2026-05-03T09:21:57Z</time></trkpt><trkpt lat="42.26767958941128" lon="13.785492698423239"><ele>345.6666666666667</ele><time>2026-05-03T09:21:58Z</time></trkpt><trkpt lat="42.267533449097144" lon="13.785663566123105"><ele>347.0</ele><time>2026-05-03T09:21:59Z</time></trkpt><trkpt lat="42.26740616248964" lon="13.785812818779782"><ele>347.0</ele><time>2026-05-03T09:22:00Z</time></trkpt><trkpt lat="42.26728921338463" lon="13.785946164429722"><ele>347.0</ele><time>2026-05-03T09:22:01Z</time></trkpt><trkpt lat="42.26716926270136" lon="13.78608366551764"><ele>347.0</ele><time>2026-05-03T09:22:02Z</time></trkpt><trkpt lat="42.26703446833794" lon="13.786237535100463"><ele>347.33333333333337</ele><time>2026-05-03T09:22:03Z</time></trkpt><trkpt lat="42.26690135700332" lon="13.786410732043615"><ele>347.6666666666667</ele><time>2026-05-03T09:22:04Z</time></trkpt><trkpt lat="42.26675561053378" lon="13.786619142508483"><ele>348.0</ele><time>2026-05-03T09:22:05Z</time></trkpt><trkpt lat="42.26660306679204" lon="13.78685884726044"><ele>349.0</ele><time>2026-05-03T09:22:06Z</time></trkpt><trkpt lat="42.26644077570209" lon="13.787098684906741"><ele>350.0</ele><time>2026-05-03T09:22:07Z</time></trkpt><trkpt lat="42.26631828510537" lon="13.78735190561421"><ele>350.0</ele><time>2026-05-03T09:22:08Z</time></trkpt><trkpt lat="42.26618942417045" lon="13.787593486322487"><ele>350.0</ele><time>2026-05-03T09:22:09Z</time></trkpt><trkpt lat="42.26606084579901" lon="13.787839549032567"><ele>350.0</ele><time>2026-05-03T09:22:10Z</time></trkpt><trkpt lat="42.26591080316322" lon="13.788065003312148"><ele>350.0</ele><time>2026-05-03T09:22:11Z</time></trkpt><trkpt lat="42.26575283913049" lon="13.788321497631802"><ele>350.0</ele><time>2026-05-03T09:22:12Z</time></trkpt><trkpt lat="42.26560577283247" lon="13.788577278988788"><ele>350.0</ele><time>2026-05-03T09:22:13Z</time></trkpt><trkpt lat="42.26549471751574" lon="13.788801705787543"><ele>350.0</ele><time>2026-05-03T09:22:14Z</time></trkpt><trkpt lat="42.26540292659284" lon="13.788971968713078"><ele>350.0</ele><time>2026-05-03T09:22:15Z</time></trkpt><trkpt lat="42.2653288190718" lon="13.789126224923569"><ele>350.0</ele><time>2026-05-03T09:22:16Z</time></trkpt><trkpt lat="42.26526692609921" lon="13.789285548537938"><ele>350.0</ele><time>2026-05-03T09:22:17Z</time></trkpt><trkpt lat="42.2652144533752" lon="13.789441803231746"><ele>350.0</ele><time>2026-05-03T09:22:18Z</time></trkpt><trkpt lat="42.265174213090894" lon="13.789582603610912"><ele>350.0</ele><time>2026-05-03T09:22:19Z</time></trkpt><trkpt lat="42.26512436588882" lon="13.789738832991498"><ele>349.0</ele><time>2026-05-03T09:22:20Z</time></trkpt><trkpt lat="42.26504342316853" lon="13.789917108536692"><ele>348.0</ele><time>2026-05-03T09:22:21Z</time></trkpt><trkpt lat="42.26497898750837" lon="13.7901370457059"><ele>347.0</ele><time>2026-05-03T09:22:22Z</time></trkpt><trkpt lat="42.26489123240773" lon="13.790365495273386"><ele>346.33333333333337</ele><time>2026-05-03T09:22:23Z</time></trkpt><trkpt lat="42.26480336215191" lon="13.790635123146025"><ele>345.6666666666667</ele><time>2026-05-03T09:22:24Z</time></trkpt><trkpt lat="42.264718606052206" lon="13.790901360141048"><ele>345.0</ele><time>2026-05-03T09:22:25Z</time></trkpt><trkpt lat="42.264636675061624" lon="13.791166389998608"><ele>345.3333333333333</ele><time>2026-05-03T09:22:26Z</time></trkpt><trkpt lat="42.26455185499428" lon="13.791440642161666"><ele>345.66666666666663</ele><time>2026-05-03T09:22:27Z</time></trkpt><trkpt lat="42.264467876677685" lon="13.791708372907143"><ele>346.0</ele><time>2026-05-03T09:22:28Z</time></trkpt><trkpt lat="42.264394503688294" lon="13.791957689275602"><ele>346.0</ele><time>2026-05-03T09:22:29Z</time></trkpt><trkpt lat="42.26431206117547" lon="13.792261278610516"><ele>346.0</ele><time>2026-05-03T09:22:30Z</time></trkpt><trkpt lat="42.26423001879637" lon="13.792593763601497"><ele>345.0</ele><time>2026-05-03T09:22:31Z</time></trkpt><trkpt lat="42.26415083593531" lon="13.792917434577738"><ele>344.0</ele><time>2026-05-03T09:22:32Z</time></trkpt><trkpt lat="42.264052070916264" lon="13.793191770291868"><ele>344.0</ele><time>2026-05-03T09:22:33Z</time></trkpt><trkpt lat="42.263972486626365" lon="13.793435337660153"><ele>344.0</ele><time>2026-05-03T09:22:34Z</time></trkpt><trkpt lat="42.26390159520195" lon="13.79369234417217"><ele>344.0</ele><time>2026-05-03T09:22:35Z</time></trkpt><trkpt lat="42.263819582968516" lon="13.793918835197339"><ele>344.6666666666667</ele><time>2026-05-03T09:22:36Z</time></trkpt><trkpt lat="42.2637433008163" lon="13.79413472408659"><ele>345.3333333333333</ele><time>2026-05-03T09:22:37Z</time></trkpt><trkpt lat="42.26367884974066" lon="13.79433044112055"><ele>346.0</ele><time>2026-05-03T09:22:38Z</time></trkpt><trkpt lat="42.263575707147744" lon="13.79450204770196"><ele>344.66666666666663</ele><time>2026-05-03T09:22:39Z</time></trkpt><trkpt lat="42.263468595743085" lon="13.794681611443458"><ele>343.3333333333333</ele><time>2026-05-03T09:22:40Z</time></trkpt><trkpt lat="42.26334693085368" lon="13.794870462150422"><ele>342.0</ele><time>2026-05-03T09:22:41Z</time></trkpt><trkpt lat="42.26322075232024" lon="13.795075546691653"><ele>341.6666666666667</ele><time>2026-05-03T09:22:42Z</time></trkpt><trkpt lat="42.26311794283087" lon="13.795273786596875"><ele>341.33333333333337</ele><time>2026-05-03T09:22:43Z</time></trkpt><trkpt lat="42.26302302043723" lon="13.795433360061086"><ele>341.0</ele><time>2026-05-03T09:22:44Z</time></trkpt><trkpt lat="42.26292756216833" lon="13.795594535462284"><ele>341.75</ele><time>2026-05-03T09:22:45Z</time></trkpt><trkpt lat="42.262835672096315" lon="13.79575298266505"><ele>342.5</ele><time>2026-05-03T09:22:46Z</time></trkpt><trkpt lat="42.26275219840738" lon="13.795882117927604"><ele>343.25</ele><time>2026-05-03T09:22:47Z</time></trkpt><trkpt lat="42.262686099393385" lon="13.795999683918689"><ele>344.0</ele><time>2026-05-03T09:22:47.999Z</time></trkpt><trkpt lat="42.26261832227088" lon="13.796106395939926"><ele>344.0</ele><time>2026-05-03T09:22:48.999Z</time></trkpt><trkpt lat="42.26257014861112" lon="13.796196601847978"><ele>344.0</ele><time>2026-05-03T09:22:49.999Z</time></trkpt><trkpt lat="42.26268702853266" lon="13.79635499623496"><ele>344.0</ele><time>2026-05-03T09:22:54.999Z</time></trkpt><trkpt lat="42.2628011618413" lon="13.796356031361665"><ele>344.0</ele><time>2026-05-03T09:22:55.999Z</time></trkpt><trkpt lat="42.262930793508495" lon="13.796353615177424"><ele>344.0</ele><time>2026-05-03T09:22:56.999Z</time></trkpt><trkpt lat="42.2630856042452" lon="13.79637469155483"><ele>344.0</ele><time>2026-05-03T09:22:57.999Z</time></trkpt><trkpt lat="42.26324525486483" lon="13.796417478280217"><ele>344.0</ele><time>2026-05-03T09:22:58.999Z</time></trkpt><trkpt lat="42.26341291694816" lon="13.796454501358125"><ele>342.33333333333337</ele><time>2026-05-03T09:22:59.999Z</time></trkpt><trkpt lat="42.26358346585619" lon="13.796485397013107"><ele>340.6666666666667</ele><time>2026-05-03T09:23:00.999Z</time></trkpt><trkpt lat="42.26375072743792" lon="13.796524378313736"><ele>339.0</ele><time>2026-05-03T09:23:01.999Z</time></trkpt><trkpt lat="42.263894001697935" lon="13.796560900203684"><ele>337.6666666666667</ele><time>2026-05-03T09:23:02.999Z</time></trkpt><trkpt lat="42.26405232915428" lon="13.796593529146035"><ele>336.33333333333337</ele><time>2026-05-03T09:23:03.999Z</time></trkpt><trkpt lat="42.26420207720805" lon="13.796625458815004"><ele>335.0</ele><time>2026-05-03T09:23:04.999Z</time></trkpt><trkpt lat="42.264348003628236" lon="13.796674245064949"><ele>335.0</ele><time>2026-05-03T09:23:05.999Z</time></trkpt><trkpt lat="42.2644594374083" lon="13.796785587673925"><ele>335.0</ele><time>2026-05-03T09:23:06.999Z</time></trkpt><trkpt lat="42.26457385614722" lon="13.796896718755304"><ele>335.0</ele><time>2026-05-03T09:23:07.999Z</time></trkpt><trkpt lat="42.264671474649646" lon="13.797052393043794"><ele>335.0</ele><time>2026-05-03T09:23:08.999Z</time></trkpt><trkpt lat="42.264752982397994" lon="13.797215083233931"><ele>333.25</ele><time>2026-05-03T09:23:09.999Z</time></trkpt><trkpt lat="42.26481782644372" lon="13.797381862229487"><ele>331.5</ele><time>2026-05-03T09:23:10.999Z</time></trkpt><trkpt lat="42.26481911270073" lon="13.797562122754684"><ele>329.75</ele><time>2026-05-03T09:23:11.999Z</time></trkpt><trkpt lat="42.26484833762328" lon="13.797727131887587"><ele>328.0</ele><time>2026-05-03T09:23:12.999Z</time></trkpt><trkpt lat="42.26485270837362" lon="13.79785629082083"><ele>328.2</ele><time>2026-05-03T09:23:13.999Z</time></trkpt><trkpt lat="42.264865598796206" lon="13.797984022654804"><ele>328.4</ele><time>2026-05-03T09:23:14.999Z</time></trkpt><trkpt lat="42.264881988029884" lon="13.798125095814136"><ele>328.59999999999997</ele><time>2026-05-03T09:23:16.001Z</time></trkpt><trkpt lat="42.26490003524002" lon="13.798290224937006"><ele>328.79999999999995</ele><time>2026-05-03T09:23:17.001Z</time></trkpt><trkpt lat="42.26492464137766" lon="13.798443654530448"><ele>329.0</ele><time>2026-05-03T09:23:18.001Z</time></trkpt><trkpt lat="42.264963666420286" lon="13.798561326028477"><ele>329.0</ele><time>2026-05-03T09:23:19.001Z</time></trkpt><trkpt lat="42.26502530401271" lon="13.798679508826922"><ele>329.0</ele><time>2026-05-03T09:23:20.001Z</time></trkpt><trkpt lat="42.2650688969712" lon="13.79879511920387"><ele>329.0</ele><time>2026-05-03T09:23:21.001Z</time></trkpt><trkpt lat="42.265104797497344" lon="13.798898391831134"><ele>329.0</ele><time>2026-05-03T09:23:22.001Z</time></trkpt><trkpt lat="42.26513611664081" lon="13.798992036792574"><ele>329.0</ele><time>2026-05-03T09:23:23.001Z</time></trkpt><trkpt lat="42.26515413212619" lon="13.799153525719637"><ele>329.0</ele><time>2026-05-03T09:23:25.001Z</time></trkpt><trkpt lat="42.265059757802426" lon="13.799235993862993"><ele>329.0</ele><time>2026-05-03T09:23:27.001Z</time></trkpt><trkpt lat="42.264981490881155" lon="13.799277639203423"><ele>329.0</ele><time>2026-05-03T09:23:28.001Z</time></trkpt><trkpt lat="42.264886776328865" lon="13.799305788322348"><ele>329.0</ele><time>2026-05-03T09:23:29.001Z</time></trkpt><trkpt lat="42.264799962800254" lon="13.79927619819956"><ele>329.0</ele><time>2026-05-03T09:23:30.001Z</time></trkpt><trkpt lat="42.26470948162917" lon="13.799267050628593"><ele>329.4</ele><time>2026-05-03T09:23:31.001Z</time></trkpt><trkpt lat="42.26461900278978" lon="13.799272619421192"><ele>329.79999999999995</ele><time>2026-05-03T09:23:32Z</time></trkpt><trkpt lat="42.264530302274004" lon="13.799314121311584"><ele>330.20000000000005</ele><time>2026-05-03T09:23:33Z</time></trkpt><trkpt lat="42.264447051943655" lon="13.799366817287112"><ele>330.6</ele><time>2026-05-03T09:23:34Z</time></trkpt><trkpt lat="42.26436582991196" lon="13.79943807573796"><ele>331.0</ele><time>2026-05-03T09:23:35Z</time></trkpt><trkpt lat="42.26429336405444" lon="13.799534075035444"><ele>331.6</ele><time>2026-05-03T09:23:36Z</time></trkpt><trkpt lat="42.264220725850954" lon="13.799604758382596"><ele>332.20000000000005</ele><time>2026-05-03T09:23:37Z</time></trkpt><trkpt lat="42.26415610076804" lon="13.799667772792963"><ele>332.79999999999995</ele><time>2026-05-03T09:23:38Z</time></trkpt><trkpt lat="42.26407685102347" lon="13.799730968084225"><ele>333.4</ele><time>2026-05-03T09:23:39Z</time></trkpt><trkpt lat="42.263992430337424" lon="13.799785174331001"><ele>334.0</ele><time>2026-05-03T09:23:40Z</time></trkpt><trkpt lat="42.26388422226085" lon="13.799850086684453"><ele>334.0</ele><time>2026-05-03T09:23:41Z</time></trkpt><trkpt lat="42.26377160007162" lon="13.799909873852613"><ele>334.0</ele><time>2026-05-03T09:23:42Z</time></trkpt><trkpt lat="42.263664605196254" lon="13.799957875536387"><ele>334.0</ele><time>2026-05-03T09:23:43Z</time></trkpt><trkpt lat="42.263561429276024" lon="13.80000039026566"><ele>334.0</ele><time>2026-05-03T09:23:44Z</time></trkpt><trkpt lat="42.26345953588183" lon="13.800038887328425"><ele>334.0</ele><time>2026-05-03T09:23:45Z</time></trkpt><trkpt lat="42.26335129386331" lon="13.800067244465284"><ele>334.0</ele><time>2026-05-03T09:23:46Z</time></trkpt><trkpt lat="42.26324793310944" lon="13.800073061323818"><ele>334.0</ele><time>2026-05-03T09:23:47Z</time></trkpt><trkpt lat="42.263139799475255" lon="13.800059569735863"><ele>334.0</ele><time>2026-05-03T09:23:48Z</time></trkpt><trkpt lat="42.26304829404082" lon="13.800033108511604"><ele>334.0</ele><time>2026-05-03T09:23:49Z</time></trkpt><trkpt lat="42.26296563885558" lon="13.800008719962136"><ele>334.0</ele><time>2026-05-03T09:23:50Z</time></trkpt><trkpt lat="42.26287507356546" lon="13.799962896838531"><ele>333.75</ele><time>2026-05-03T09:23:51Z</time></trkpt><trkpt lat="42.262768923317964" lon="13.799902742477254"><ele>333.5</ele><time>2026-05-03T09:23:52Z</time></trkpt><trkpt lat="42.26266060697247" lon="13.799867972298449"><ele>333.25</ele><time>2026-05-03T09:23:53Z</time></trkpt><trkpt lat="42.26254011322333" lon="13.799850284450837"><ele>333.0</ele><time>2026-05-03T09:23:54Z</time></trkpt><trkpt lat="42.262414388762025" lon="13.79983595547756"><ele>333.0</ele><time>2026-05-03T09:23:55Z</time></trkpt><trkpt lat="42.26228795359408" lon="13.799822140433863"><ele>333.0</ele><time>2026-05-03T09:23:56Z</time></trkpt><trkpt lat="42.2621734192021" lon="13.79980825537896"><ele>333.0</ele><time>2026-05-03T09:23:57Z</time></trkpt><trkpt lat="42.26206058137165" lon="13.799796626216143"><ele>333.0</ele><time>2026-05-03T09:23:58Z</time></trkpt><trkpt lat="42.261948145192854" lon="13.799812703214803"><ele>332.75</ele><time>2026-05-03T09:23:59Z</time></trkpt><trkpt lat="42.26184024624365" lon="13.799819602754072"><ele>332.5</ele><time>2026-05-03T09:24:00Z</time></trkpt><trkpt lat="42.261734125677634" lon="13.799856248572862"><ele>332.25</ele><time>2026-05-03T09:24:01Z</time></trkpt><trkpt lat="42.26161912801258" lon="13.799931132135923"><ele>332.0</ele><time>2026-05-03T09:24:02Z</time></trkpt><trkpt lat="42.26148640295026" lon="13.800045249263796"><ele>332.0</ele><time>2026-05-03T09:24:03Z</time></trkpt><trkpt lat="42.26137327727601" lon="13.80014629328566"><ele>332.0</ele><time>2026-05-03T09:24:04Z</time></trkpt><trkpt lat="42.261288678928054" lon="13.800214277607507"><ele>332.0</ele><time>2026-05-03T09:24:05Z</time></trkpt><trkpt lat="42.26122123095406" lon="13.800267648456934"><ele>332.0</ele><time>2026-05-03T09:24:06Z</time></trkpt><trkpt lat="42.26115077331317" lon="13.80034249228069"><ele>332.0</ele><time>2026-05-03T09:24:07Z</time></trkpt><trkpt lat="42.26107954246583" lon="13.800449300949627"><ele>332.0</ele><time>2026-05-03T09:24:08Z</time></trkpt><trkpt lat="42.26099188835698" lon="13.80054314797848"><ele>332.0</ele><time>2026-05-03T09:24:09Z</time></trkpt><trkpt lat="42.260907879727895" lon="13.80065072706043"><ele>332.0</ele><time>2026-05-03T09:24:10Z</time></trkpt><trkpt lat="42.260831769435285" lon="13.800781429152863"><ele>332.0</ele><time>2026-05-03T09:24:11Z</time></trkpt><trkpt lat="42.26074197796611" lon="13.800883537483372"><ele>332.0</ele><time>2026-05-03T09:24:12Z</time></trkpt><trkpt lat="42.260637058081464" lon="13.800968366248956"><ele>332.0</ele><time>2026-05-03T09:24:13Z</time></trkpt><trkpt lat="42.26052561004983" lon="13.801036537935985"><ele>332.0</ele><time>2026-05-03T09:24:14Z</time></trkpt><trkpt lat="42.26042480707074" lon="13.801124646246814"><ele>332.0</ele><time>2026-05-03T09:24:15Z</time></trkpt><trkpt lat="42.26032794399671" lon="13.80121423144221"><ele>331.75</ele><time>2026-05-03T09:24:16Z</time></trkpt><trkpt lat="42.26023866776644" lon="13.801330196627696"><ele>331.5</ele><time>2026-05-03T09:24:17Z</time></trkpt><trkpt lat="42.26013992971289" lon="13.801434647307177"><ele>331.25</ele><time>2026-05-03T09:24:18Z</time></trkpt><trkpt lat="42.26005012510707" lon="13.801554224304734"><ele>331.0</ele><time>2026-05-03T09:24:19Z</time></trkpt><trkpt lat="42.2599670774842" lon="13.801668528493561"><ele>331.0</ele><time>2026-05-03T09:24:20Z</time></trkpt><trkpt lat="42.259875784570895" lon="13.801797207271127"><ele>331.0</ele><time>2026-05-03T09:24:21Z</time></trkpt><trkpt lat="42.25980255751167" lon="13.801923120229109"><ele>331.0</ele><time>2026-05-03T09:24:22Z</time></trkpt><trkpt lat="42.25973396854586" lon="13.802033551939296"><ele>331.0</ele><time>2026-05-03T09:24:23Z</time></trkpt><trkpt lat="42.25963221734439" lon="13.802112588833962"><ele>332.0</ele><time>2026-05-03T09:24:24Z</time></trkpt><trkpt lat="42.259529832877654" lon="13.80219008389803"><ele>333.0</ele><time>2026-05-03T09:24:25Z</time></trkpt><trkpt lat="42.25941817523627" lon="13.802262380063592"><ele>334.0</ele><time>2026-05-03T09:24:26Z</time></trkpt><trkpt lat="42.2592971812469" lon="13.802329046004354"><ele>335.0</ele><time>2026-05-03T09:24:27Z</time></trkpt><trkpt lat="42.259184872026985" lon="13.802360068276323"><ele>335.0</ele><time>2026-05-03T09:24:28Z</time></trkpt><trkpt lat="42.25908597727555" lon="13.802362725925816"><ele>335.0</ele><time>2026-05-03T09:24:29Z</time></trkpt><trkpt lat="42.2589879707449" lon="13.802351022273063"><ele>335.0</ele><time>2026-05-03T09:24:30Z</time></trkpt><trkpt lat="42.2589070752682" lon="13.802326041823818"><ele>335.0</ele><time>2026-05-03T09:24:31Z</time></trkpt><trkpt lat="42.25880417479147" lon="13.80229299237431"><ele>335.0</ele><time>2026-05-03T09:24:32Z</time></trkpt><trkpt lat="42.258699649742105" lon="13.802250254602404"><ele>335.75</ele><time>2026-05-03T09:24:33Z</time></trkpt><trkpt lat="42.25858283538298" lon="13.802198587819895"><ele>336.5</ele><time>2026-05-03T09:24:34Z</time></trkpt><trkpt lat="42.258463023577185" lon="13.802145595307321"><ele>337.25</ele><time>2026-05-03T09:24:35Z</time></trkpt><trkpt lat="42.25833173597254" lon="13.802088862917264"><ele>338.0</ele><time>2026-05-03T09:24:36Z</time></trkpt><trkpt lat="42.25821283233107" lon="13.802054376618944"><ele>338.0</ele><time>2026-05-03T09:24:37Z</time></trkpt><trkpt lat="42.258126819459406" lon="13.801971839626493"><ele>338.0</ele><time>2026-05-03T09:24:37.999Z</time></trkpt><trkpt lat="42.25807303794552" lon="13.801859193710744"><ele>338.0</ele><time>2026-05-03T09:24:38.999Z</time></trkpt><trkpt lat="42.258002008052614" lon="13.801755179043273"><ele>338.0</ele><time>2026-05-03T09:24:39.999Z</time></trkpt><trkpt lat="42.25794203197164" lon="13.80159688720348"><ele>338.0</ele><time>2026-05-03T09:24:40.999Z</time></trkpt><trkpt lat="42.257866796220085" lon="13.801447310646468"><ele>337.2</ele><time>2026-05-03T09:24:41.999Z</time></trkpt><trkpt lat="42.25778714357254" lon="13.801316157158196"><ele>336.4</ele><time>2026-05-03T09:24:42.999Z</time></trkpt><trkpt lat="42.25771669744185" lon="13.801226887166099"><ele>335.59999999999997</ele><time>2026-05-03T09:24:43.999Z</time></trkpt><trkpt lat="42.25764682231383" lon="13.801172364949615"><ele>334.79999999999995</ele><time>2026-05-03T09:24:44.999Z</time></trkpt><trkpt lat="42.25757684224715" lon="13.801155423873668"><ele>334.0</ele><time>2026-05-03T09:24:45.999Z</time></trkpt><trkpt lat="42.25749507295573" lon="13.801161570887697"><ele>334.0</ele><time>2026-05-03T09:24:46.999Z</time></trkpt><trkpt lat="42.25740199842288" lon="13.801191027531075"><ele>334.0</ele><time>2026-05-03T09:24:47.999Z</time></trkpt><trkpt lat="42.25731507072261" lon="13.801253354879261"><ele>334.0</ele><time>2026-05-03T09:24:48.999Z</time></trkpt><trkpt lat="42.257247439037286" lon="13.801320969328719"><ele>334.0</ele><time>2026-05-03T09:24:49.999Z</time></trkpt><trkpt lat="42.257171040797225" lon="13.80136294534304"><ele>334.0</ele><time>2026-05-03T09:24:50.999Z</time></trkpt><trkpt lat="42.25709518060481" lon="13.801432500823683"><ele>334.25</ele><time>2026-05-03T09:24:51.999Z</time></trkpt><trkpt lat="42.257005546636705" lon="13.801516867879554"><ele>334.5</ele><time>2026-05-03T09:24:52.999Z</time></trkpt><trkpt lat="42.25692109911952" lon="13.801621770106859"><ele>334.75</ele><time>2026-05-03T09:24:53.999Z</time></trkpt><trkpt lat="42.25684278967016" lon="13.801738718539882"><ele>335.0</ele><time>2026-05-03T09:24:54.999Z</time></trkpt><trkpt lat="42.25676493760256" lon="13.801855621605915"><ele>335.0</ele><time>2026-05-03T09:24:55.999Z</time></trkpt><trkpt lat="42.2566813081566" lon="13.801981200029076"><ele>335.0</ele><time>2026-05-03T09:24:56.999Z</time></trkpt><trkpt lat="42.256593085439896" lon="13.802104331660503"><ele>335.0</ele><time>2026-05-03T09:24:57.999Z</time></trkpt><trkpt lat="42.2564949562571" lon="13.802213287260194"><ele>335.0</ele><time>2026-05-03T09:24:58.999Z</time></trkpt><trkpt lat="42.256413154639965" lon="13.802282111797945"><ele>334.0</ele><time>2026-05-03T09:24:59.999Z</time></trkpt><trkpt lat="42.25631319935752" lon="13.802328900906613"><ele>333.0</ele><time>2026-05-03T09:25:00.999Z</time></trkpt><trkpt lat="42.25621635807317" lon="13.802369477394882"><ele>332.0</ele><time>2026-05-03T09:25:01.999Z</time></trkpt><trkpt lat="42.256111894170765" lon="13.802406392185029"><ele>331.0</ele><time>2026-05-03T09:25:02.999Z</time></trkpt><trkpt lat="42.25598982941129" lon="13.802443282693504"><ele>330.0</ele><time>2026-05-03T09:25:03.999Z</time></trkpt><trkpt lat="42.255861435326196" lon="13.802479605860412"><ele>330.0</ele><time>2026-05-03T09:25:04.999Z</time></trkpt><trkpt lat="42.25572846803108" lon="13.802519900236318"><ele>330.0</ele><time>2026-05-03T09:25:05.999Z</time></trkpt><trkpt lat="42.25560346973693" lon="13.8025670471014"><ele>330.0</ele><time>2026-05-03T09:25:06.999Z</time></trkpt><trkpt lat="42.25549252174118" lon="13.802657459320569"><ele>330.0</ele><time>2026-05-03T09:25:07.999Z</time></trkpt><trkpt lat="42.25537463748668" lon="13.80273967567505"><ele>331.25</ele><time>2026-05-03T09:25:08.999Z</time></trkpt><trkpt lat="42.25524447762948" lon="13.80280101351377"><ele>332.5</ele><time>2026-05-03T09:25:09.999Z</time></trkpt><trkpt lat="42.255131900608" lon="13.80286598849945"><ele>333.75</ele><time>2026-05-03T09:25:10.999Z</time></trkpt><trkpt lat="42.25501183653416" lon="13.802917728220825"><ele>335.0</ele><time>2026-05-03T09:25:11.999Z</time></trkpt><trkpt lat="42.25488934585678" lon="13.802958018187482"><ele>334.0</ele><time>2026-05-03T09:25:12.999Z</time></trkpt><trkpt lat="42.254777823176596" lon="13.802991164399266"><ele>333.0</ele><time>2026-05-03T09:25:13.999Z</time></trkpt><trkpt lat="42.25466274685303" lon="13.802998482151358"><ele>332.0</ele><time>2026-05-03T09:25:14.999Z</time></trkpt><trkpt lat="42.254569638705725" lon="13.802991377176514"><ele>331.0</ele><time>2026-05-03T09:25:15.999Z</time></trkpt><trkpt lat="42.254473804258666" lon="13.802987782151389"><ele>330.0</ele><time>2026-05-03T09:25:16.999Z</time></trkpt><trkpt lat="42.25437526015944" lon="13.803010811421165"><ele>330.0</ele><time>2026-05-03T09:25:17.999Z</time></trkpt><trkpt lat="42.254265846892196" lon="13.803053579089068"><ele>330.0</ele><time>2026-05-03T09:25:18.999Z</time></trkpt><trkpt lat="42.25414006929048" lon="13.803108159194382"><ele>330.0</ele><time>2026-05-03T09:25:19.999Z</time></trkpt><trkpt lat="42.254000843546365" lon="13.80317032702116"><ele>330.0</ele><time>2026-05-03T09:25:21.001Z</time></trkpt><trkpt lat="42.253858600896194" lon="13.80323334199301"><ele>330.5</ele><time>2026-05-03T09:25:22.001Z</time></trkpt><trkpt lat="42.25373208255134" lon="13.803286708479316"><ele>331.0</ele><time>2026-05-03T09:25:23.001Z</time></trkpt><trkpt lat="42.25361585387262" lon="13.8033486317387"><ele>331.5</ele><time>2026-05-03T09:25:24.001Z</time></trkpt><trkpt lat="42.25349912497682" lon="13.803425115177577"><ele>332.0</ele><time>2026-05-03T09:25:25.001Z</time></trkpt><trkpt lat="42.25338880901904" lon="13.803517139149491"><ele>332.0</ele><time>2026-05-03T09:25:26Z</time></trkpt><trkpt lat="42.25326831152667" lon="13.803604829696043"><ele>332.0</ele><time>2026-05-03T09:25:27Z</time></trkpt><trkpt lat="42.25316288047217" lon="13.80370510855802"><ele>332.0</ele><time>2026-05-03T09:25:28Z</time></trkpt><trkpt lat="42.25308030447351" lon="13.803780560540876"><ele>332.0</ele><time>2026-05-03T09:25:29Z</time></trkpt><trkpt lat="42.253009161902355" lon="13.80384159451467"><ele>331.0</ele><time>2026-05-03T09:25:30Z</time></trkpt><trkpt lat="42.25294325123155" lon="13.803887366330892"><ele>330.0</ele><time>2026-05-03T09:25:31Z</time></trkpt><trkpt lat="42.25286280503339" lon="13.803929370048127"><ele>329.0</ele><time>2026-05-03T09:25:32Z</time></trkpt><trkpt lat="42.25276963886532" lon="13.803969981920362"><ele>328.0</ele><time>2026-05-03T09:25:33Z</time></trkpt><trkpt lat="42.25266679211539" lon="13.804001543844018"><ele>327.0</ele><time>2026-05-03T09:25:34Z</time></trkpt><trkpt lat="42.252552442566696" lon="13.804029552078925"><ele>327.0</ele><time>2026-05-03T09:25:35Z</time></trkpt><trkpt lat="42.25244371479474" lon="13.80405159889644"><ele>327.0</ele><time>2026-05-03T09:25:36Z</time></trkpt><trkpt lat="42.252350608040715" lon="13.804066055917794"><ele>327.0</ele><time>2026-05-03T09:25:37Z</time></trkpt><trkpt lat="42.25224489016518" lon="13.804064710023786"><ele>327.0</ele><time>2026-05-03T09:25:38Z</time></trkpt><trkpt lat="42.252130296682914" lon="13.80403937210133"><ele>327.0</ele><time>2026-05-03T09:25:39Z</time></trkpt><trkpt lat="42.25202309449651" lon="13.80400278798497"><ele>329.0</ele><time>2026-05-03T09:25:40Z</time></trkpt><trkpt lat="42.25192526286893" lon="13.803940036746845"><ele>331.0</ele><time>2026-05-03T09:25:41Z</time></trkpt><trkpt lat="42.25183635354601" lon="13.803882462327548"><ele>333.0</ele><time>2026-05-03T09:25:42Z</time></trkpt><trkpt lat="42.25176272620614" lon="13.80379719777788"><ele>335.0</ele><time>2026-05-03T09:25:43Z</time></trkpt><trkpt lat="42.25172593988702" lon="13.803702522783107"><ele>337.0</ele><time>2026-05-03T09:25:44Z</time></trkpt><trkpt lat="42.25164861898692" lon="13.803606833593006"><ele>337.0</ele><time>2026-05-03T09:25:46Z</time></trkpt><trkpt lat="42.25159080461002" lon="13.803555608608695"><ele>337.0</ele><time>2026-05-03T09:25:47Z</time></trkpt><trkpt lat="42.251516072596885" lon="13.803526553077916"><ele>337.0</ele><time>2026-05-03T09:25:48Z</time></trkpt><trkpt lat="42.25145293376053" lon="13.803481439475581"><ele>337.0</ele><time>2026-05-03T09:25:49Z</time></trkpt><trkpt lat="42.25136808751948" lon="13.803455999352234"><ele>337.0</ele><time>2026-05-03T09:25:50Z</time></trkpt><trkpt lat="42.25129161307276" lon="13.803425008292631"><ele>337.0</ele><time>2026-05-03T09:25:51Z</time></trkpt><trkpt lat="42.25123010151344" lon="13.803382552644198"><ele>335.8333333333333</ele><time>2026-05-03T09:25:52Z</time></trkpt><trkpt lat="42.251154969302384" lon="13.803354779783293"><ele>334.66666666666663</ele><time>2026-05-03T09:25:53Z</time></trkpt><trkpt lat="42.25108042998849" lon="13.803327683800767"><ele>333.5</ele><time>2026-05-03T09:25:54Z</time></trkpt><trkpt lat="42.251009855176534" lon="13.803306118372856"><ele>332.3333333333333</ele><time>2026-05-03T09:25:55Z</time></trkpt><trkpt lat="42.250937358553614" lon="13.803290526394703"><ele>331.1666666666667</ele><time>2026-05-03T09:25:56Z</time></trkpt><trkpt lat="42.2508585992082" lon="13.803285839124756"><ele>330.0</ele><time>2026-05-03T09:25:57Z</time></trkpt><trkpt lat="42.250773895205754" lon="13.803297228066922"><ele>330.0</ele><time>2026-05-03T09:25:58Z</time></trkpt><trkpt lat="42.25068937430325" lon="13.80331427758147"><ele>330.0</ele><time>2026-05-03T09:25:59Z</time></trkpt><trkpt lat="42.25059842466506" lon="13.803368047949405"><ele>330.0</ele><time>2026-05-03T09:26:00Z</time></trkpt><trkpt lat="42.25047552692226" lon="13.80339261943705"><ele>330.0</ele><time>2026-05-03T09:26:01Z</time></trkpt><trkpt lat="42.25041779599005" lon="13.803446608142865"><ele>330.0</ele><time>2026-05-03T09:26:02Z</time></trkpt><trkpt lat="42.25034622721502" lon="13.803503192524682"><ele>331.2</ele><time>2026-05-03T09:26:03Z</time></trkpt><trkpt lat="42.25027135616943" lon="13.803565020890591"><ele>332.4</ele><time>2026-05-03T09:26:04Z</time></trkpt><trkpt lat="42.25018949188" lon="13.803628739603997"><ele>333.6</ele><time>2026-05-03T09:26:05Z</time></trkpt><trkpt lat="42.25010328943409" lon="13.803705355979657"><ele>334.8</ele><time>2026-05-03T09:26:06Z</time></trkpt><trkpt lat="42.25001362309648" lon="13.803779749681214"><ele>336.0</ele><time>2026-05-03T09:26:07Z</time></trkpt><trkpt lat="42.24992640812337" lon="13.803860875554246"><ele>336.0</ele><time>2026-05-03T09:26:08Z</time></trkpt><trkpt lat="42.249843517662974" lon="13.803936889385119"><ele>336.0</ele><time>2026-05-03T09:26:09Z</time></trkpt><trkpt lat="42.24977875373051" lon="13.80403478394911"><ele>336.0</ele><time>2026-05-03T09:26:10Z</time></trkpt><trkpt lat="42.24971958262523" lon="13.80416022088178"><ele>336.0</ele><time>2026-05-03T09:26:11Z</time></trkpt><trkpt lat="42.24965220888754" lon="13.804309876076424"><ele>336.0</ele><time>2026-05-03T09:26:12Z</time></trkpt><trkpt lat="42.24958701680188" lon="13.804431183179947"><ele>336.20000000000005</ele><time>2026-05-03T09:26:13Z</time></trkpt><trkpt lat="42.2495181250679" lon="13.80452980408697"><ele>336.40000000000003</ele><time>2026-05-03T09:26:14Z</time></trkpt><trkpt lat="42.249448140068495" lon="13.804621295559352"><ele>336.6</ele><time>2026-05-03T09:26:15Z</time></trkpt><trkpt lat="42.24938121339669" lon="13.804718519250402"><ele>336.8</ele><time>2026-05-03T09:26:16Z</time></trkpt><trkpt lat="42.24931578639871" lon="13.804815039192556"><ele>337.0</ele><time>2026-05-03T09:26:17Z</time></trkpt><trkpt lat="42.24923656062234" lon="13.804923499122193"><ele>337.0</ele><time>2026-05-03T09:26:18Z</time></trkpt><trkpt lat="42.249146953972" lon="13.80503854878905"><ele>337.0</ele><time>2026-05-03T09:26:19Z</time></trkpt><trkpt lat="42.24904568905479" lon="13.805096592206272"><ele>337.0</ele><time>2026-05-03T09:26:20Z</time></trkpt><trkpt lat="42.24895706723175" lon="13.80514323145164"><ele>337.0</ele><time>2026-05-03T09:26:21Z</time></trkpt><trkpt lat="42.24888261187121" lon="13.805167221859557"><ele>337.0</ele><time>2026-05-03T09:26:22Z</time></trkpt><trkpt lat="42.24879584612307" lon="13.805176257139534"><ele>336.6</ele><time>2026-05-03T09:26:23Z</time></trkpt><trkpt lat="42.24869007851004" lon="13.805203134657571"><ele>336.20000000000005</ele><time>2026-05-03T09:26:24Z</time></trkpt><trkpt lat="42.2486112304678" lon="13.805246055610633"><ele>335.8</ele><time>2026-05-03T09:26:25Z</time></trkpt><trkpt lat="42.248528155985234" lon="13.80529637770338"><ele>335.4</ele><time>2026-05-03T09:26:26Z</time></trkpt><trkpt lat="42.248438120651166" lon="13.80537034643013"><ele>335.0</ele><time>2026-05-03T09:26:27Z</time></trkpt><trkpt lat="42.248367046673025" lon="13.805437697268292"><ele>335.0</ele><time>2026-05-03T09:26:28Z</time></trkpt><trkpt lat="42.248295185954774" lon="13.805537543065354"><ele>335.0</ele><time>2026-05-03T09:26:30Z</time></trkpt><trkpt lat="42.24824500209845" lon="13.80564424479514"><ele>335.0</ele><time>2026-05-03T09:26:32Z</time></trkpt><trkpt lat="42.248195025408755" lon="13.805717868079928"><ele>335.0</ele><time>2026-05-03T09:26:33.999Z</time></trkpt><trkpt lat="42.24815007271281" lon="13.805803983043488"><ele>335.0</ele><time>2026-05-03T09:26:34.999Z</time></trkpt><trkpt lat="42.2480886530143" lon="13.805859132161816"><ele>335.0</ele><time>2026-05-03T09:26:35.999Z</time></trkpt><trkpt lat="42.248063995824715" lon="13.805950946621369"><ele>333.2</ele><time>2026-05-03T09:26:36.999Z</time></trkpt><trkpt lat="42.248026859636425" lon="13.806028957446609"><ele>331.4</ele><time>2026-05-03T09:26:37.999Z</time></trkpt><trkpt lat="42.24797570773905" lon="13.806131904179407"><ele>329.6</ele><time>2026-05-03T09:26:38.999Z</time></trkpt><trkpt lat="42.24791582981275" lon="13.806251120395512"><ele>327.8</ele><time>2026-05-03T09:26:39.999Z</time></trkpt><trkpt lat="42.24785522447971" lon="13.806368783383423"><ele>326.0</ele><time>2026-05-03T09:26:40.999Z</time></trkpt><trkpt lat="42.247807195825374" lon="13.806467666276026"><ele>326.0</ele><time>2026-05-03T09:26:41.999Z</time></trkpt><trkpt lat="42.247773863874" lon="13.806565322477095"><ele>326.0</ele><time>2026-05-03T09:26:42.999Z</time></trkpt><trkpt lat="42.24774478378473" lon="13.806677423795964"><ele>326.0</ele><time>2026-05-03T09:26:43.999Z</time></trkpt><trkpt lat="42.24772401628246" lon="13.80682285180225"><ele>326.0</ele><time>2026-05-03T09:26:44.999Z</time></trkpt><trkpt lat="42.24770709786154" lon="13.80699367239463"><ele>326.0</ele><time>2026-05-03T09:26:45.999Z</time></trkpt><trkpt lat="42.2476833530316" lon="13.807126418083573"><ele>326.4</ele><time>2026-05-03T09:26:46.999Z</time></trkpt><trkpt lat="42.247651020689204" lon="13.807234994990031"><ele>326.8</ele><time>2026-05-03T09:26:47.999Z</time></trkpt><trkpt lat="42.24760308938558" lon="13.80732316473794"><ele>327.2</ele><time>2026-05-03T09:26:48.999Z</time></trkpt><trkpt lat="42.24754458844906" lon="13.807379603743605"><ele>327.59999999999997</ele><time>2026-05-03T09:26:49.999Z</time></trkpt><trkpt lat="42.24745605927692" lon="13.8074545781011"><ele>328.0</ele><time>2026-05-03T09:26:50.999Z</time></trkpt><trkpt lat="42.247339133726385" lon="13.80753610778579"><ele>327.25</ele><time>2026-05-03T09:26:51.999Z</time></trkpt><trkpt lat="42.24724433424809" lon="13.807611808283774"><ele>326.5</ele><time>2026-05-03T09:26:52.999Z</time></trkpt><trkpt lat="42.24715638425585" lon="13.807695140583661"><ele>325.75</ele><time>2026-05-03T09:26:53.999Z</time></trkpt><trkpt lat="42.247060885803556" lon="13.80779339697363"><ele>325.0</ele><time>2026-05-03T09:26:54.999Z</time></trkpt><trkpt lat="42.246959120466684" lon="13.807929226029696"><ele>325.0</ele><time>2026-05-03T09:26:55.999Z</time></trkpt><trkpt lat="42.24688606350092" lon="13.808045307992165"><ele>325.0</ele><time>2026-05-03T09:26:56.999Z</time></trkpt><trkpt lat="42.24684026654921" lon="13.808154304080063"><ele>325.0</ele><time>2026-05-03T09:26:57.999Z</time></trkpt><trkpt lat="42.24681435539051" lon="13.80829319529527"><ele>325.0</ele><time>2026-05-03T09:26:58.999Z</time></trkpt><trkpt lat="42.24678853834236" lon="13.808446734219176"><ele>325.0</ele><time>2026-05-03T09:26:59.999Z</time></trkpt><trkpt lat="42.246769590404206" lon="13.808601627436722"><ele>324.66666666666663</ele><time>2026-05-03T09:27:00.999Z</time></trkpt><trkpt lat="42.24672179715855" lon="13.808764160865152"><ele>324.3333333333333</ele><time>2026-05-03T09:27:01.999Z</time></trkpt><trkpt lat="42.24667663768671" lon="13.808950097156803"><ele>324.0</ele><time>2026-05-03T09:27:02.999Z</time></trkpt><trkpt lat="42.246607973183586" lon="13.809189771089383"><ele>324.3333333333333</ele><time>2026-05-03T09:27:03.999Z</time></trkpt><trkpt lat="42.24654356472398" lon="13.809413871552326"><ele>324.66666666666663</ele><time>2026-05-03T09:27:04.999Z</time></trkpt><trkpt lat="42.24648921011785" lon="13.809615843854504"><ele>325.0</ele><time>2026-05-03T09:27:05.999Z</time></trkpt><trkpt lat="42.2464331006216" lon="13.809805964026769"><ele>325.0</ele><time>2026-05-03T09:27:06.999Z</time></trkpt><trkpt lat="42.24637073611317" lon="13.809978152884524"><ele>325.0</ele><time>2026-05-03T09:27:07.999Z</time></trkpt><trkpt lat="42.24630351854408" lon="13.810114348040747"><ele>325.0</ele><time>2026-05-03T09:27:08.999Z</time></trkpt><trkpt lat="42.246227421117894" lon="13.810245088061611"><ele>325.0</ele><time>2026-05-03T09:27:09.999Z</time></trkpt><trkpt lat="42.24614512094237" lon="13.81039306173379"><ele>325.0</ele><time>2026-05-03T09:27:10.999Z</time></trkpt><trkpt lat="42.246029216672746" lon="13.810511605348463"><ele>325.0</ele><time>2026-05-03T09:27:11.999Z</time></trkpt><trkpt lat="42.24592710711789" lon="13.810660207204732"><ele>325.0</ele><time>2026-05-03T09:27:12.999Z</time></trkpt><trkpt lat="42.24580451414393" lon="13.810802453303708"><ele>325.0</ele><time>2026-05-03T09:27:13.999Z</time></trkpt><trkpt lat="42.245678992675195" lon="13.810957364285354"><ele>325.0</ele><time>2026-05-03T09:27:14.999Z</time></trkpt><trkpt lat="42.24553552665534" lon="13.811086989171686"><ele>325.0</ele><time>2026-05-03T09:27:15.999Z</time></trkpt><trkpt lat="42.24540679252153" lon="13.811209833723655"><ele>324.8</ele><time>2026-05-03T09:27:16.999Z</time></trkpt><trkpt lat="42.245302282290425" lon="13.81131425261224"><ele>324.6</ele><time>2026-05-03T09:27:17.999Z</time></trkpt><trkpt lat="42.24521729912827" lon="13.811407226220531"><ele>324.4</ele><time>2026-05-03T09:27:18.999Z</time></trkpt><trkpt lat="42.24514665111986" lon="13.811505406161197"><ele>324.2</ele><time>2026-05-03T09:27:19.999Z</time></trkpt><trkpt lat="42.24509719757988" lon="13.811609948846838"><ele>324.0</ele><time>2026-05-03T09:27:20.999Z</time></trkpt><trkpt lat="42.24506652715862" lon="13.811690507052809"><ele>324.0</ele><time>2026-05-03T09:27:21.999Z</time></trkpt><trkpt lat="42.2450410493208" lon="13.811800203180818"><ele>324.0</ele><time>2026-05-03T09:27:23.999Z</time></trkpt><trkpt lat="42.24502236262165" lon="13.811976312154309"><ele>324.0</ele><time>2026-05-03T09:27:26Z</time></trkpt><trkpt lat="42.24500599992168" lon="13.81210351484385"><ele>324.0</ele><time>2026-05-03T09:27:27Z</time></trkpt><trkpt lat="42.24497775866032" lon="13.812204922758502"><ele>324.0</ele><time>2026-05-03T09:27:28Z</time></trkpt><trkpt lat="42.244939597965185" lon="13.812293164351756"><ele>323.4</ele><time>2026-05-03T09:27:29Z</time></trkpt><trkpt lat="42.24485748846491" lon="13.812410599790336"><ele>322.79999999999995</ele><time>2026-05-03T09:27:31Z</time></trkpt><trkpt lat="42.24479006530828" lon="13.81246524849089"><ele>322.20000000000005</ele><time>2026-05-03T09:27:32Z</time></trkpt><trkpt lat="42.2447022108473" lon="13.812525338784432"><ele>321.6</ele><time>2026-05-03T09:27:33Z</time></trkpt><trkpt lat="42.24462666080507" lon="13.812568602694686"><ele>321.0</ele><time>2026-05-03T09:27:34Z</time></trkpt><trkpt lat="42.24453366843545" lon="13.812607457916176"><ele>321.0</ele><time>2026-05-03T09:27:35Z</time></trkpt><trkpt lat="42.24443272906922" lon="13.812650286836295"><ele>321.0</ele><time>2026-05-03T09:27:36Z</time></trkpt><trkpt lat="42.24433773847198" lon="13.812695966785313"><ele>321.0</ele><time>2026-05-03T09:27:37Z</time></trkpt><trkpt lat="42.244244954617464" lon="13.812736902669215"><ele>321.0</ele><time>2026-05-03T09:27:38Z</time></trkpt><trkpt lat="42.24414832745219" lon="13.812757243115689"><ele>321.0</ele><time>2026-05-03T09:27:39Z</time></trkpt><trkpt lat="42.24405467503319" lon="13.812796358393582"><ele>322.0</ele><time>2026-05-03T09:27:40Z</time></trkpt><trkpt lat="42.24394869504804" lon="13.812846197393142"><ele>323.0</ele><time>2026-05-03T09:27:41Z</time></trkpt><trkpt lat="42.24382326244771" lon="13.812878277542808"><ele>324.0</ele><time>2026-05-03T09:27:42Z</time></trkpt><trkpt lat="42.2437013669854" lon="13.812922101296781"><ele>325.0</ele><time>2026-05-03T09:27:43Z</time></trkpt><trkpt lat="42.24358083793583" lon="13.81298639262612"><ele>325.0</ele><time>2026-05-03T09:27:44Z</time></trkpt><trkpt lat="42.243502697863846" lon="13.81308529031169"><ele>325.0</ele><time>2026-05-03T09:27:45Z</time></trkpt><trkpt lat="42.243423332189316" lon="13.813169540977006"><ele>325.0</ele><time>2026-05-03T09:27:46Z</time></trkpt><trkpt lat="42.24331960201521" lon="13.813286265613469"><ele>325.0</ele><time>2026-05-03T09:27:47Z</time></trkpt><trkpt lat="42.2432144676285" lon="13.813430097348613"><ele>323.75</ele><time>2026-05-03T09:27:48Z</time></trkpt><trkpt lat="42.243108906568985" lon="13.813574971627013"><ele>322.5</ele><time>2026-05-03T09:27:49Z</time></trkpt><trkpt lat="42.24299645701642" lon="13.813713532075052"><ele>321.25</ele><time>2026-05-03T09:27:50Z</time></trkpt><trkpt lat="42.242888160992145" lon="13.813837007669514"><ele>320.0</ele><time>2026-05-03T09:27:51Z</time></trkpt><trkpt lat="42.24278532141019" lon="13.813948759673998"><ele>320.0</ele><time>2026-05-03T09:27:52Z</time></trkpt><trkpt lat="42.24267027163784" lon="13.81407068930824"><ele>320.0</ele><time>2026-05-03T09:27:53Z</time></trkpt><trkpt lat="42.242560266933225" lon="13.814181399617947"><ele>320.0</ele><time>2026-05-03T09:27:54Z</time></trkpt><trkpt lat="42.24246122232417" lon="13.814277194308577"><ele>320.0</ele><time>2026-05-03T09:27:55Z</time></trkpt><trkpt lat="42.24236373044432" lon="13.814366873804302"><ele>319.83333333333337</ele><time>2026-05-03T09:27:56Z</time></trkpt><trkpt lat="42.242278495659555" lon="13.814431805487246"><ele>319.6666666666667</ele><time>2026-05-03T09:27:57Z</time></trkpt><trkpt lat="42.24219794748757" lon="13.81446482833621"><ele>319.5</ele><time>2026-05-03T09:27:58Z</time></trkpt><trkpt lat="42.242134659456966" lon="13.81447439767553"><ele>319.3333333333333</ele><time>2026-05-03T09:27:59Z</time></trkpt><trkpt lat="42.24204794835024" lon="13.81449545923154"><ele>319.16666666666663</ele><time>2026-05-03T09:28:00Z</time></trkpt><trkpt lat="42.24195544654123" lon="13.814531611233306"><ele>319.0</ele><time>2026-05-03T09:28:01Z</time></trkpt><trkpt lat="42.24193226973722" lon="13.814627247433716"><ele>319.0</ele><time>2026-05-03T09:28:02Z</time></trkpt><trkpt lat="42.24189058274818" lon="13.81478165335231"><ele>319.0</ele><time>2026-05-03T09:28:04Z</time></trkpt><trkpt lat="42.241903658815396" lon="13.81488192723104"><ele>319.0</ele><time>2026-05-03T09:28:05Z</time></trkpt><trkpt lat="42.24189888163606" lon="13.815008125612069"><ele>319.0</ele><time>2026-05-03T09:28:06Z</time></trkpt><trkpt lat="42.2418940858312" lon="13.815143399615055"><ele>319.0</ele><time>2026-05-03T09:28:07Z</time></trkpt><trkpt lat="42.2417008870703" lon="13.815267878259682"><ele>319.4</ele><time>2026-05-03T09:28:08Z</time></trkpt><trkpt lat="42.24165674372451" lon="13.815415670826194"><ele>319.79999999999995</ele><time>2026-05-03T09:28:09Z</time></trkpt><trkpt lat="42.24163266735785" lon="13.815556203735346"><ele>320.20000000000005</ele><time>2026-05-03T09:28:10Z</time></trkpt><trkpt lat="42.24164991911069" lon="13.815678662490269"><ele>320.6</ele><time>2026-05-03T09:28:11Z</time></trkpt><trkpt lat="42.24163832177487" lon="13.815772432901053"><ele>321.0</ele><time>2026-05-03T09:28:12Z</time></trkpt><trkpt lat="42.241568940614144" lon="13.815932301517043"><ele>322.6</ele><time>2026-05-03T09:28:14Z</time></trkpt><trkpt lat="42.24149939867561" lon="13.816010266415367"><ele>324.20000000000005</ele><time>2026-05-03T09:28:15Z</time></trkpt><trkpt lat="42.24141706157093" lon="13.816089877686414"><ele>325.79999999999995</ele><time>2026-05-03T09:28:16Z</time></trkpt><trkpt lat="42.241327295494365" lon="13.816142839913473"><ele>327.4</ele><time>2026-05-03T09:28:17Z</time></trkpt><trkpt lat="42.24124069558094" lon="13.816189662206165"><ele>329.0</ele><time>2026-05-03T09:28:18Z</time></trkpt><trkpt lat="42.24115189131076" lon="13.816230516095814"><ele>329.0</ele><time>2026-05-03T09:28:19Z</time></trkpt><trkpt lat="42.24104954504712" lon="13.816258164378942"><ele>329.0</ele><time>2026-05-03T09:28:20Z</time></trkpt><trkpt lat="42.24093979526243" lon="13.816271388862331"><ele>329.0</ele><time>2026-05-03T09:28:21Z</time></trkpt><trkpt lat="42.24080674311861" lon="13.816276738346993"><ele>329.0</ele><time>2026-05-03T09:28:22Z</time></trkpt><trkpt lat="42.24068900032402" lon="13.816279290962592"><ele>328.5</ele><time>2026-05-03T09:28:23Z</time></trkpt><trkpt lat="42.24055667863762" lon="13.816281421795434"><ele>328.0</ele><time>2026-05-03T09:28:24Z</time></trkpt><trkpt lat="42.24042746741513" lon="13.816309455441273"><ele>327.5</ele><time>2026-05-03T09:28:25Z</time></trkpt><trkpt lat="42.240298144621995" lon="13.81631146947195"><ele>327.0</ele><time>2026-05-03T09:28:25.999Z</time></trkpt><trkpt lat="42.24018278754445" lon="13.816295823901317"><ele>327.0</ele><time>2026-05-03T09:28:26.999Z</time></trkpt><trkpt lat="42.24007622607424" lon="13.816306590456849"><ele>327.0</ele><time>2026-05-03T09:28:27.999Z</time></trkpt><trkpt lat="42.23996805834144" lon="13.81635924870941"><ele>327.0</ele><time>2026-05-03T09:28:28.999Z</time></trkpt><trkpt lat="42.239849234153596" lon="13.816413763904682"><ele>327.0</ele><time>2026-05-03T09:28:29.999Z</time></trkpt><trkpt lat="42.239727370485255" lon="13.816443218648114"><ele>326.3333333333333</ele><time>2026-05-03T09:28:30.999Z</time></trkpt><trkpt lat="42.239613303980406" lon="13.816464316225876"><ele>325.6666666666667</ele><time>2026-05-03T09:28:31.999Z</time></trkpt><trkpt lat="42.23954387034899" lon="13.816476101364593"><ele>325.0</ele><time>2026-05-03T09:28:32.999Z</time></trkpt><trkpt lat="42.23947225432328" lon="13.816478817902887"><ele>324.33333333333337</ele><time>2026-05-03T09:28:34.999Z</time></trkpt><trkpt lat="42.23940498887003" lon="13.816342294886656"><ele>323.6666666666667</ele><time>2026-05-03T09:28:36.999Z</time></trkpt><trkpt lat="42.239376605245305" lon="13.816265255094272"><ele>323.0</ele><time>2026-05-03T09:28:37.999Z</time></trkpt><trkpt lat="42.239340989392765" lon="13.816126918731385"><ele>323.0</ele><time>2026-05-03T09:28:39.999Z</time></trkpt><trkpt lat="42.2392098833831" lon="13.816146616687671"><ele>323.0</ele><time>2026-05-03T09:28:40.999Z</time></trkpt><trkpt lat="42.23911642522615" lon="13.816144792811512"><ele>323.0</ele><time>2026-05-03T09:28:41.999Z</time></trkpt><trkpt lat="42.2390305599247" lon="13.816119979053427"><ele>323.0</ele><time>2026-05-03T09:28:42.999Z</time></trkpt><trkpt lat="42.23892577900932" lon="13.81610133102442"><ele>323.0</ele><time>2026-05-03T09:28:43.999Z</time></trkpt><trkpt lat="42.23879520429237" lon="13.81607385735833"><ele>322.0</ele><time>2026-05-03T09:28:44.999Z</time></trkpt><trkpt lat="42.23865433885785" lon="13.816056219994074"><ele>321.0</ele><time>2026-05-03T09:28:45.999Z</time></trkpt><trkpt lat="42.238521536944525" lon="13.816062366435373"><ele>320.0</ele><time>2026-05-03T09:28:46.999Z</time></trkpt><trkpt lat="42.23839037510751" lon="13.81611785460953"><ele>319.0</ele><time>2026-05-03T09:28:47.999Z</time></trkpt><trkpt lat="42.238256891700736" lon="13.816188128008283"><ele>319.0</ele><time>2026-05-03T09:28:48.999Z</time></trkpt><trkpt lat="42.23812512823789" lon="13.816241786242156"><ele>319.0</ele><time>2026-05-03T09:28:49.999Z</time></trkpt><trkpt lat="42.237987388865726" lon="13.81630280549677"><ele>319.0</ele><time>2026-05-03T09:28:50.999Z</time></trkpt><trkpt lat="42.23785068342963" lon="13.816363807901427"><ele>319.0</ele><time>2026-05-03T09:28:51.999Z</time></trkpt><trkpt lat="42.237716924661996" lon="13.816430821884037"><ele>319.0</ele><time>2026-05-03T09:28:52.999Z</time></trkpt><trkpt lat="42.23758529977774" lon="13.816498622693102"><ele>319.0</ele><time>2026-05-03T09:28:53.999Z</time></trkpt><trkpt lat="42.23745249822872" lon="13.816563419867377"><ele>319.0</ele><time>2026-05-03T09:28:54.999Z</time></trkpt><trkpt lat="42.23732630579174" lon="13.81661937382182"><ele>319.0</ele><time>2026-05-03T09:28:55.999Z</time></trkpt><trkpt lat="42.23720628573844" lon="13.816667013089399"><ele>319.25</ele><time>2026-05-03T09:28:56.999Z</time></trkpt><trkpt lat="42.23708041001612" lon="13.816698159798364"><ele>319.5</ele><time>2026-05-03T09:28:57.999Z</time></trkpt><trkpt lat="42.23695034622549" lon="13.816711957326051"><ele>319.75</ele><time>2026-05-03T09:28:58.999Z</time></trkpt><trkpt lat="42.236816926552244" lon="13.816706093115197"><ele>320.0</ele><time>2026-05-03T09:28:59.999Z</time></trkpt><trkpt lat="42.236684365361874" lon="13.816675091517546"><ele>320.0</ele><time>2026-05-03T09:29:00.999Z</time></trkpt><trkpt lat="42.23655157217135" lon="13.816617656756076"><ele>320.0</ele><time>2026-05-03T09:29:01.999Z</time></trkpt><trkpt lat="42.236415218569775" lon="13.81653983537969"><ele>320.0</ele><time>2026-05-03T09:29:02.999Z</time></trkpt><trkpt lat="42.23628291551335" lon="13.816437351703568"><ele>320.0</ele><time>2026-05-03T09:29:03.999Z</time></trkpt><trkpt lat="42.23617149691888" lon="13.816333077687311"><ele>320.4</ele><time>2026-05-03T09:29:04.999Z</time></trkpt><trkpt lat="42.23606708870229" lon="13.816248343894836"><ele>320.8</ele><time>2026-05-03T09:29:05.999Z</time></trkpt><trkpt lat="42.23595993175089" lon="13.8162165743938"><ele>321.20000000000005</ele><time>2026-05-03T09:29:06.999Z</time></trkpt><trkpt lat="42.23585722540579" lon="13.816194473231668"><ele>321.6</ele><time>2026-05-03T09:29:07.999Z</time></trkpt><trkpt lat="42.23574577240004" lon="13.816191184475205"><ele>322.0</ele><time>2026-05-03T09:29:08.999Z</time></trkpt><trkpt lat="42.235625153159766" lon="13.81623175728298"><ele>321.0</ele><time>2026-05-03T09:29:09.999Z</time></trkpt><trkpt lat="42.23551330986257" lon="13.816324951981171"><ele>320.0</ele><time>2026-05-03T09:29:10.999Z</time></trkpt><trkpt lat="42.23540860933502" lon="13.816418667918748"><ele>319.0</ele><time>2026-05-03T09:29:11.999Z</time></trkpt><trkpt lat="42.23531639379427" lon="13.816543941029593"><ele>318.0</ele><time>2026-05-03T09:29:12.999Z</time></trkpt><trkpt lat="42.235242263859284" lon="13.816698739424478"><ele>319.0</ele><time>2026-05-03T09:29:13.999Z</time></trkpt><trkpt lat="42.23517761420198" lon="13.816873044684783"><ele>320.0</ele><time>2026-05-03T09:29:14.999Z</time></trkpt><trkpt lat="42.235095242152084" lon="13.817062403089642"><ele>321.0</ele><time>2026-05-03T09:29:15.999Z</time></trkpt><trkpt lat="42.235016274585035" lon="13.817232436784506"><ele>321.0</ele><time>2026-05-03T09:29:16.999Z</time></trkpt><trkpt lat="42.23492425739173" lon="13.81740549502083"><ele>321.0</ele><time>2026-05-03T09:29:17.999Z</time></trkpt><trkpt lat="42.23483005715838" lon="13.817562306323886"><ele>321.0</ele><time>2026-05-03T09:29:18.999Z</time></trkpt><trkpt lat="42.23473043928682" lon="13.81771372100584"><ele>322.6666666666667</ele><time>2026-05-03T09:29:19.999Z</time></trkpt><trkpt lat="42.23460544428568" lon="13.817856939605758"><ele>324.33333333333337</ele><time>2026-05-03T09:29:20.999Z</time></trkpt><trkpt lat="42.23447884291965" lon="13.818003729814455"><ele>326.0</ele><time>2026-05-03T09:29:21.999Z</time></trkpt><trkpt lat="42.23434149586195" lon="13.818139559369998"><ele>326.0</ele><time>2026-05-03T09:29:22.999Z</time></trkpt><trkpt lat="42.234196436561135" lon="13.81825786699801"><ele>326.0</ele><time>2026-05-03T09:29:23.999Z</time></trkpt><trkpt lat="42.234051081072586" lon="13.818357680583496"><ele>326.0</ele><time>2026-05-03T09:29:24.999Z</time></trkpt><trkpt lat="42.2338862243451" lon="13.818460819289196"><ele>327.6666666666667</ele><time>2026-05-03T09:29:25.999Z</time></trkpt><trkpt lat="42.23372031797421" lon="13.81856461318973"><ele>329.3333333333333</ele><time>2026-05-03T09:29:26.999Z</time></trkpt><trkpt lat="42.233558431260704" lon="13.818661242109055"><ele>331.0</ele><time>2026-05-03T09:29:27.999Z</time></trkpt><trkpt lat="42.233400834848794" lon="13.818740841396965"><ele>331.0</ele><time>2026-05-03T09:29:28.999Z</time></trkpt><trkpt lat="42.23324607736146" lon="13.81881033925771"><ele>331.0</ele><time>2026-05-03T09:29:29.999Z</time></trkpt><trkpt lat="42.233093454371705" lon="13.818883266817291"><ele>331.0</ele><time>2026-05-03T09:29:30.999Z</time></trkpt><trkpt lat="42.232947975394524" lon="13.818951171749344"><ele>328.5</ele><time>2026-05-03T09:29:32Z</time></trkpt><trkpt lat="42.232795874035624" lon="13.818989298597206"><ele>326.0</ele><time>2026-05-03T09:29:33Z</time></trkpt><trkpt lat="42.23265310590258" lon="13.819001416896944"><ele>323.5</ele><time>2026-05-03T09:29:34Z</time></trkpt><trkpt lat="42.23253446022741" lon="13.819008152591366"><ele>321.0</ele><time>2026-05-03T09:29:35Z</time></trkpt><trkpt lat="42.2324410370231" lon="13.819013834399854"><ele>321.0</ele><time>2026-05-03T09:29:36Z</time></trkpt><trkpt lat="42.23235147514209" lon="13.819018533759685"><ele>321.0</ele><time>2026-05-03T09:29:37Z</time></trkpt><trkpt lat="42.23226496714009" lon="13.819021805928696"><ele>321.0</ele><time>2026-05-03T09:29:38Z</time></trkpt><trkpt lat="42.232183585985645" lon="13.81902446206202"><ele>321.0</ele><time>2026-05-03T09:29:39Z</time></trkpt><trkpt lat="42.23209785707188" lon="13.819030939686424"><ele>321.0</ele><time>2026-05-03T09:29:40Z</time></trkpt><trkpt lat="42.23200392207351" lon="13.819040495986348"><ele>321.0</ele><time>2026-05-03T09:29:41Z</time></trkpt><trkpt lat="42.2319042969638" lon="13.819052557208007"><ele>320.75</ele><time>2026-05-03T09:29:42Z</time></trkpt><trkpt lat="42.231805322686725" lon="13.819069104244727"><ele>320.5</ele><time>2026-05-03T09:29:43Z</time></trkpt><trkpt lat="42.23169500339041" lon="13.819110914588741"><ele>320.25</ele><time>2026-05-03T09:29:44Z</time></trkpt><trkpt lat="42.23157204866989" lon="13.819151024687942"><ele>320.0</ele><time>2026-05-03T09:29:45Z</time></trkpt><trkpt lat="42.231456802913215" lon="13.819224918985208"><ele>319.4</ele><time>2026-05-03T09:29:46Z</time></trkpt><trkpt lat="42.23135497612537" lon="13.819309101198872"><ele>318.8</ele><time>2026-05-03T09:29:47Z</time></trkpt><trkpt lat="42.23127026887577" lon="13.819364046849497"><ele>318.2</ele><time>2026-05-03T09:29:48Z</time></trkpt><trkpt lat="42.23119106301139" lon="13.819420578361777"><ele>317.6</ele><time>2026-05-03T09:29:49Z</time></trkpt><trkpt lat="42.231112205355075" lon="13.819466456741822"><ele>317.0</ele><time>2026-05-03T09:29:50Z</time></trkpt><trkpt lat="42.23103459510366" lon="13.819512489401218"><ele>317.1666666666667</ele><time>2026-05-03T09:29:51Z</time></trkpt><trkpt lat="42.23095077377002" lon="13.81952469618624"><ele>317.33333333333337</ele><time>2026-05-03T09:29:52Z</time></trkpt><trkpt lat="42.23087399809432" lon="13.81953531166247"><ele>317.5</ele><time>2026-05-03T09:29:53Z</time></trkpt><trkpt lat="42.23079635738068" lon="13.819543629099913"><ele>317.6666666666667</ele><time>2026-05-03T09:29:54Z</time></trkpt><trkpt lat="42.230718295934366" lon="13.819551089381088"><ele>317.8333333333333</ele><time>2026-05-03T09:29:55Z</time></trkpt><trkpt lat="42.230654151951086" lon="13.819556165521659"><ele>318.0</ele><time>2026-05-03T09:29:56Z</time></trkpt><trkpt lat="42.230577339137014" lon="13.819562849668381"><ele>318.0</ele><time>2026-05-03T09:29:57Z</time></trkpt><trkpt lat="42.230503553724326" lon="13.819571755062368"><ele>318.0</ele><time>2026-05-03T09:29:58Z</time></trkpt><trkpt lat="42.23043699464881" lon="13.819583279993426"><ele>318.0</ele><time>2026-05-03T09:29:59Z</time></trkpt><trkpt lat="42.230369813769165" lon="13.819597621408251"><ele>318.0</ele><time>2026-05-03T09:30:00Z</time></trkpt><trkpt lat="42.23030541091485" lon="13.81961084100138"><ele>318.0</ele><time>2026-05-03T09:30:01Z</time></trkpt><trkpt lat="42.23024079170837" lon="13.819622633085109"><ele>318.0</ele><time>2026-05-03T09:30:02Z</time></trkpt><trkpt lat="42.23011923480875" lon="13.819644815569804"><ele>318.0</ele><time>2026-05-03T09:30:04Z</time></trkpt><trkpt lat="42.22998252889473" lon="13.819680694915178"><ele>318.0</ele><time>2026-05-03T09:30:06Z</time></trkpt><trkpt lat="42.22988934842708" lon="13.819679867840435"><ele>318.0</ele><time>2026-05-03T09:30:07Z</time></trkpt><trkpt lat="42.22978073384465" lon="13.81965641333233"><ele>318.0</ele><time>2026-05-03T09:30:08Z</time></trkpt><trkpt lat="42.22965973133174" lon="13.819658106187333"><ele>318.0</ele><time>2026-05-03T09:30:09Z</time></trkpt><trkpt lat="42.22952997509847" lon="13.819664620857484"><ele>318.0</ele><time>2026-05-03T09:30:10Z</time></trkpt><trkpt lat="42.229377030033326" lon="13.8196756323711"><ele>318.0</ele><time>2026-05-03T09:30:11Z</time></trkpt><trkpt lat="42.22921397104873" lon="13.819694403292388"><ele>318.0</ele><time>2026-05-03T09:30:12Z</time></trkpt><trkpt lat="42.22906932018926" lon="13.81973137415151"><ele>319.75</ele><time>2026-05-03T09:30:13Z</time></trkpt><trkpt lat="42.228940488418004" lon="13.819732483862431"><ele>321.5</ele><time>2026-05-03T09:30:14Z</time></trkpt><trkpt lat="42.2288084312612" lon="13.819733174742876"><ele>323.25</ele><time>2026-05-03T09:30:15Z</time></trkpt><trkpt lat="42.22868487111483" lon="13.819742756391044"><ele>325.0</ele><time>2026-05-03T09:30:16Z</time></trkpt><trkpt lat="42.22855690304832" lon="13.81972769315501"><ele>325.0</ele><time>2026-05-03T09:30:17Z</time></trkpt><trkpt lat="42.228438051916974" lon="13.81972303569094"><ele>325.0</ele><time>2026-05-03T09:30:18Z</time></trkpt><trkpt lat="42.228309101301846" lon="13.819694244904932"><ele>325.0</ele><time>2026-05-03T09:30:18.999Z</time></trkpt><trkpt lat="42.228177736320575" lon="13.819648457568613"><ele>325.0</ele><time>2026-05-03T09:30:19.999Z</time></trkpt><trkpt lat="42.22804011307323" lon="13.8195992127822"><ele>325.0</ele><time>2026-05-03T09:30:20.999Z</time></trkpt><trkpt lat="42.2278956374984" lon="13.819540620463066"><ele>325.0</ele><time>2026-05-03T09:30:21.999Z</time></trkpt><trkpt lat="42.22774568873088" lon="13.819527808997368"><ele>325.0</ele><time>2026-05-03T09:30:22.999Z</time></trkpt><trkpt lat="42.22759393990619" lon="13.81952960033928"><ele>325.0</ele><time>2026-05-03T09:30:23.999Z</time></trkpt><trkpt lat="42.2274466822099" lon="13.819546924946337"><ele>325.0</ele><time>2026-05-03T09:30:24.999Z</time></trkpt><trkpt lat="42.227296901784406" lon="13.819570533106226"><ele>325.0</ele><time>2026-05-03T09:30:25.999Z</time></trkpt><trkpt lat="42.2271339442747" lon="13.819597417110018"><ele>324.5</ele><time>2026-05-03T09:30:26.999Z</time></trkpt><trkpt lat="42.22699949658205" lon="13.819627943635505"><ele>324.0</ele><time>2026-05-03T09:30:27.999Z</time></trkpt><trkpt lat="42.226875920659815" lon="13.819673151467581"><ele>323.5</ele><time>2026-05-03T09:30:28.999Z</time></trkpt><trkpt lat="42.2267603778315" lon="13.819722346224644"><ele>323.0</ele><time>2026-05-03T09:30:29.999Z</time></trkpt><trkpt lat="42.22666333318833" lon="13.819789563205202"><ele>323.0</ele><time>2026-05-03T09:30:30.999Z</time></trkpt><trkpt lat="42.22657636708758" lon="13.81986505895312"><ele>323.0</ele><time>2026-05-03T09:30:31.999Z</time></trkpt><trkpt lat="42.22649502737972" lon="13.819954523616564"><ele>323.0</ele><time>2026-05-03T09:30:32.999Z</time></trkpt><trkpt lat="42.22639825755832" lon="13.820079703651556"><ele>323.0</ele><time>2026-05-03T09:30:33.999Z</time></trkpt><trkpt lat="42.226285930220556" lon="13.820246275545971"><ele>321.33333333333337</ele><time>2026-05-03T09:30:34.999Z</time></trkpt><trkpt lat="42.2261637164296" lon="13.820445343519244"><ele>319.6666666666667</ele><time>2026-05-03T09:30:35.999Z</time></trkpt><trkpt lat="42.22606451868813" lon="13.82065858702305"><ele>318.0</ele><time>2026-05-03T09:30:36.999Z</time></trkpt><trkpt lat="42.2259731266969" lon="13.820847014517007"><ele>318.3333333333333</ele><time>2026-05-03T09:30:37.999Z</time></trkpt><trkpt lat="42.22588243061989" lon="13.821018829433779"><ele>318.66666666666663</ele><time>2026-05-03T09:30:38.999Z</time></trkpt><trkpt lat="42.22577640180986" lon="13.821193022044369"><ele>319.0</ele><time>2026-05-03T09:30:39.999Z</time></trkpt><trkpt lat="42.22564064253019" lon="13.821321180266954"><ele>319.0</ele><time>2026-05-03T09:30:40.999Z</time></trkpt><trkpt lat="42.22552479926034" lon="13.821411167431267"><ele>319.0</ele><time>2026-05-03T09:30:41.999Z</time></trkpt><trkpt lat="42.22540466657425" lon="13.821490159588521"><ele>319.0</ele><time>2026-05-03T09:30:42.999Z</time></trkpt><trkpt lat="42.225272384250914" lon="13.821562561602411"><ele>319.0</ele><time>2026-05-03T09:30:43.999Z</time></trkpt><trkpt lat="42.2251370949409" lon="13.821611073982462"><ele>319.0</ele><time>2026-05-03T09:30:44.999Z</time></trkpt><trkpt lat="42.225010617654846" lon="13.821644451808904"><ele>319.0</ele><time>2026-05-03T09:30:45.999Z</time></trkpt><trkpt lat="42.22488889724084" lon="13.82167586724416"><ele>319.0</ele><time>2026-05-03T09:30:46.999Z</time></trkpt><trkpt lat="42.22477000999652" lon="13.821707026594064"><ele>319.0</ele><time>2026-05-03T09:30:47.999Z</time></trkpt><trkpt lat="42.22466062940199" lon="13.82174418367973"><ele>318.75</ele><time>2026-05-03T09:30:48.999Z</time></trkpt><trkpt lat="42.224555084647164" lon="13.821791108105506"><ele>318.5</ele><time>2026-05-03T09:30:49.999Z</time></trkpt><trkpt lat="42.22444994405485" lon="13.821845454100771"><ele>318.25</ele><time>2026-05-03T09:30:50.999Z</time></trkpt><trkpt lat="42.22432858651821" lon="13.821929830194884"><ele>318.0</ele><time>2026-05-03T09:30:51.999Z</time></trkpt><trkpt lat="42.2242029290944" lon="13.822015728289982"><ele>318.5</ele><time>2026-05-03T09:30:52.999Z</time></trkpt><trkpt lat="42.22408625338752" lon="13.822106483477524"><ele>319.0</ele><time>2026-05-03T09:30:53.999Z</time></trkpt><trkpt lat="42.223970329856776" lon="13.822230468950613"><ele>319.5</ele><time>2026-05-03T09:30:54.999Z</time></trkpt><trkpt lat="42.22384640625365" lon="13.822326090827211"><ele>320.0</ele><time>2026-05-03T09:30:55.999Z</time></trkpt><trkpt lat="42.22372525378778" lon="13.822432607980216"><ele>320.0</ele><time>2026-05-03T09:30:56.999Z</time></trkpt><trkpt lat="42.22359769095856" lon="13.822530562928032"><ele>320.0</ele><time>2026-05-03T09:30:57.999Z</time></trkpt><trkpt lat="42.223463593605786" lon="13.822612403182294"><ele>320.0</ele><time>2026-05-03T09:30:58.999Z</time></trkpt><trkpt lat="42.22333335193848" lon="13.822678511989304"><ele>320.0</ele><time>2026-05-03T09:30:59.999Z</time></trkpt><trkpt lat="42.22321032498206" lon="13.822711584921102"><ele>322.0</ele><time>2026-05-03T09:31:00.999Z</time></trkpt><trkpt lat="42.22308737421939" lon="13.822714989841005"><ele>324.0</ele><time>2026-05-03T09:31:01.999Z</time></trkpt><trkpt lat="42.22295578412229" lon="13.822692920602641"><ele>326.0</ele><time>2026-05-03T09:31:02.999Z</time></trkpt><trkpt lat="42.22282504039223" lon="13.822664414641324"><ele>328.0</ele><time>2026-05-03T09:31:03.999Z</time></trkpt><trkpt lat="42.22269007432886" lon="13.82265282568875"><ele>327.5</ele><time>2026-05-03T09:31:04.999Z</time></trkpt><trkpt lat="42.22255810818186" lon="13.822617536743195"><ele>327.0</ele><time>2026-05-03T09:31:05.999Z</time></trkpt><trkpt lat="42.222418592400764" lon="13.822583005987235"><ele>326.5</ele><time>2026-05-03T09:31:06.999Z</time></trkpt><trkpt lat="42.22226528726187" lon="13.822538813989809"><ele>326.0</ele><time>2026-05-03T09:31:07.999Z</time></trkpt><trkpt lat="42.222089726695565" lon="13.822486954686148"><ele>326.0</ele><time>2026-05-03T09:31:08.999Z</time></trkpt><trkpt lat="42.221918022350906" lon="13.8224267205915"><ele>326.0</ele><time>2026-05-03T09:31:09.999Z</time></trkpt><trkpt lat="42.221774565116114" lon="13.82234768144581"><ele>326.0</ele><time>2026-05-03T09:31:10.999Z</time></trkpt><trkpt lat="42.22165813740621" lon="13.822301884149425"><ele>326.0</ele><time>2026-05-03T09:31:11.999Z</time></trkpt><trkpt lat="42.22152767901972" lon="13.82226085743014"><ele>326.0</ele><time>2026-05-03T09:31:12.999Z</time></trkpt><trkpt lat="42.22139238040523" lon="13.822250484320334"><ele>326.0</ele><time>2026-05-03T09:31:13.999Z</time></trkpt><trkpt lat="42.22125441389909" lon="13.822223868085333"><ele>326.0</ele><time>2026-05-03T09:31:14.999Z</time></trkpt><trkpt lat="42.221110575080154" lon="13.82221701137191"><ele>326.75</ele><time>2026-05-03T09:31:15.999Z</time></trkpt><trkpt lat="42.22097420548056" lon="13.822216676860895"><ele>327.5</ele><time>2026-05-03T09:31:16.999Z</time></trkpt><trkpt lat="42.220851818543245" lon="13.82223373163281"><ele>328.25</ele><time>2026-05-03T09:31:17.999Z</time></trkpt><trkpt lat="42.22074194142762" lon="13.8222892090034"><ele>329.0</ele><time>2026-05-03T09:31:18.999Z</time></trkpt><trkpt lat="42.22064214458013" lon="13.822383883187529"><ele>327.75</ele><time>2026-05-03T09:31:19.999Z</time></trkpt><trkpt lat="42.22055154758904" lon="13.822514219477208"><ele>326.5</ele><time>2026-05-03T09:31:20.999Z</time></trkpt><trkpt lat="42.22043415276797" lon="13.822645954476565"><ele>325.25</ele><time>2026-05-03T09:31:21.999Z</time></trkpt><trkpt lat="42.220320974992255" lon="13.822794127192228"><ele>324.0</ele><time>2026-05-03T09:31:22.999Z</time></trkpt><trkpt lat="42.22020306820584" lon="13.822944704378488"><ele>324.0</ele><time>2026-05-03T09:31:23.999Z</time></trkpt><trkpt lat="42.220077384546755" lon="13.823074843742813"><ele>324.0</ele><time>2026-05-03T09:31:24.999Z</time></trkpt><trkpt lat="42.219967991048534" lon="13.823184020177624"><ele>324.0</ele><time>2026-05-03T09:31:25.999Z</time></trkpt><trkpt lat="42.21987731842541" lon="13.82329334610451"><ele>324.0</ele><time>2026-05-03T09:31:26.999Z</time></trkpt><trkpt lat="42.219792998088174" lon="13.823401489713904"><ele>323.25</ele><time>2026-05-03T09:31:27.999Z</time></trkpt><trkpt lat="42.219708836235725" lon="13.823511035375958"><ele>322.5</ele><time>2026-05-03T09:31:28.999Z</time></trkpt><trkpt lat="42.21962419633792" lon="13.823636302819995"><ele>321.75</ele><time>2026-05-03T09:31:29.999Z</time></trkpt><trkpt lat="42.21951036277173" lon="13.823710555952232"><ele>321.0</ele><time>2026-05-03T09:31:30.999Z</time></trkpt><trkpt lat="42.21939545653865" lon="13.823775261195765"><ele>321.0</ele><time>2026-05-03T09:31:31.999Z</time></trkpt><trkpt lat="42.21927035662125" lon="13.82383948126259"><ele>321.0</ele><time>2026-05-03T09:31:32.999Z</time></trkpt><trkpt lat="42.21914151815685" lon="13.82389089954467"><ele>321.0</ele><time>2026-05-03T09:31:33.999Z</time></trkpt><trkpt lat="42.219005273238245" lon="13.823955519449617"><ele>321.0</ele><time>2026-05-03T09:31:34.998Z</time></trkpt><trkpt lat="42.21887408162792" lon="13.82402376385156"><ele>321.25</ele><time>2026-05-03T09:31:35.998Z</time></trkpt><trkpt lat="42.218741080599855" lon="13.8240903324609"><ele>321.5</ele><time>2026-05-03T09:31:36.998Z</time></trkpt><trkpt lat="42.21861087684817" lon="13.82415224959099"><ele>321.75</ele><time>2026-05-03T09:31:38Z</time></trkpt><trkpt lat="42.21847436736547" lon="13.82421213369966"><ele>322.0</ele><time>2026-05-03T09:31:39Z</time></trkpt><trkpt lat="42.21834064141061" lon="13.824267072550713"><ele>322.40000000000003</ele><time>2026-05-03T09:31:40Z</time></trkpt><trkpt lat="42.21822537261736" lon="13.824313501130897"><ele>322.8</ele><time>2026-05-03T09:31:41Z</time></trkpt><trkpt lat="42.21813193083638" lon="13.82435081366435"><ele>323.2</ele><time>2026-05-03T09:31:42Z</time></trkpt><trkpt lat="42.21804357785288" lon="13.824384309265957"><ele>323.6</ele><time>2026-05-03T09:31:43Z</time></trkpt><trkpt lat="42.21795092255197" lon="13.824416251606314"><ele>324.0</ele><time>2026-05-03T09:31:44Z</time></trkpt><trkpt lat="42.217841944734744" lon="13.824458751517225"><ele>324.0</ele><time>2026-05-03T09:31:45Z</time></trkpt><trkpt lat="42.217739576421295" lon="13.824510537179098"><ele>324.0</ele><time>2026-05-03T09:31:46Z</time></trkpt><trkpt lat="42.2176433924863" lon="13.82456583820206"><ele>324.0</ele><time>2026-05-03T09:31:47Z</time></trkpt><trkpt lat="42.21753801730246" lon="13.824629724452802"><ele>324.0</ele><time>2026-05-03T09:31:48Z</time></trkpt><trkpt lat="42.21744569066019" lon="13.824707863637375"><ele>324.0</ele><time>2026-05-03T09:31:49Z</time></trkpt><trkpt lat="42.21734296494802" lon="13.82476674333772"><ele>323.6</ele><time>2026-05-03T09:31:50Z</time></trkpt><trkpt lat="42.21724488140354" lon="13.824839741871529"><ele>323.2</ele><time>2026-05-03T09:31:51Z</time></trkpt><trkpt lat="42.21715111606525" lon="13.824891081119974"><ele>322.8</ele><time>2026-05-03T09:31:52Z</time></trkpt><trkpt lat="42.217059374052795" lon="13.824918720699573"><ele>322.40000000000003</ele><time>2026-05-03T09:31:53Z</time></trkpt><trkpt lat="42.216991765859255" lon="13.824939089699388"><ele>322.0</ele><time>2026-05-03T09:31:54Z</time></trkpt><trkpt lat="42.216963120070474" lon="13.824748777164421"><ele>322.0</ele><time>2026-05-03T09:31:55Z</time></trkpt><trkpt lat="42.216912808262926" lon="13.824629176637453"><ele>322.0</ele><time>2026-05-03T09:31:56Z</time></trkpt><trkpt lat="42.21685243282806" lon="13.82448740442468"><ele>322.0</ele><time>2026-05-03T09:31:57Z</time></trkpt><trkpt lat="42.21677418623233" lon="13.824344657648446"><ele>322.0</ele><time>2026-05-03T09:31:58Z</time></trkpt><trkpt lat="42.21672151486158" lon="13.82417957989987"><ele>321.25</ele><time>2026-05-03T09:31:59Z</time></trkpt><trkpt lat="42.21665349158359" lon="13.824019638259449"><ele>320.5</ele><time>2026-05-03T09:32:00Z</time></trkpt><trkpt lat="42.21657093066502" lon="13.823865420558842"><ele>319.75</ele><time>2026-05-03T09:32:01Z</time></trkpt><trkpt lat="42.21650257691498" lon="13.823681913969912"><ele>319.0</ele><time>2026-05-03T09:32:02Z</time></trkpt><trkpt lat="42.21642791060544" lon="13.823515035656726"><ele>317.5</ele><time>2026-05-03T09:32:03Z</time></trkpt><trkpt lat="42.216360315559236" lon="13.823361250016337"><ele>316.0</ele><time>2026-05-03T09:32:04Z</time></trkpt><trkpt lat="42.21630072896419" lon="13.823213592349061"><ele>314.5</ele><time>2026-05-03T09:32:05Z</time></trkpt><trkpt lat="42.21624768534079" lon="13.823073822035393"><ele>313.0</ele><time>2026-05-03T09:32:06Z</time></trkpt><trkpt lat="42.2162001062771" lon="13.822947246649534"><ele>313.0</ele><time>2026-05-03T09:32:07Z</time></trkpt><trkpt lat="42.21615302490474" lon="13.822832753657957"><ele>313.0</ele><time>2026-05-03T09:32:08Z</time></trkpt><trkpt lat="42.21610010651745" lon="13.822709338388282"><ele>313.0</ele><time>2026-05-03T09:32:09Z</time></trkpt><trkpt lat="42.216036944980026" lon="13.822588501663777"><ele>313.0</ele><time>2026-05-03T09:32:10Z</time></trkpt><trkpt lat="42.21596844398486" lon="13.82246237004174"><ele>313.0</ele><time>2026-05-03T09:32:11Z</time></trkpt><trkpt lat="42.21588103825875" lon="13.822356999621977"><ele>313.5</ele><time>2026-05-03T09:32:12Z</time></trkpt><trkpt lat="42.21578575962749" lon="13.822287291932483"><ele>314.0</ele><time>2026-05-03T09:32:13Z</time></trkpt><trkpt lat="42.21566947098438" lon="13.822268228821509"><ele>314.5</ele><time>2026-05-03T09:32:14Z</time></trkpt><trkpt lat="42.21555732990815" lon="13.82227647566561"><ele>315.0</ele><time>2026-05-03T09:32:15Z</time></trkpt><trkpt lat="42.21544786532797" lon="13.82230700013706"><ele>315.4</ele><time>2026-05-03T09:32:16Z</time></trkpt><trkpt lat="42.215343025901745" lon="13.822356404605204"><ele>315.8</ele><time>2026-05-03T09:32:17Z</time></trkpt><trkpt lat="42.21523986551338" lon="13.82242613738113"><ele>316.2</ele><time>2026-05-03T09:32:18Z</time></trkpt><trkpt lat="42.21514317932795" lon="13.822500791926847"><ele>316.6</ele><time>2026-05-03T09:32:19Z</time></trkpt><trkpt lat="42.21506138972509" lon="13.822557213715234"><ele>317.0</ele><time>2026-05-03T09:32:20Z</time></trkpt><trkpt lat="42.21498735755655" lon="13.822594651278393"><ele>317.0</ele><time>2026-05-03T09:32:21Z</time></trkpt><trkpt lat="42.214911426284644" lon="13.82263363243405"><ele>317.0</ele><time>2026-05-03T09:32:22Z</time></trkpt><trkpt lat="42.21483500900931" lon="13.822679233950257"><ele>317.0</ele><time>2026-05-03T09:32:23Z</time></trkpt><trkpt lat="42.21474826339088" lon="13.822725224740424"><ele>317.0</ele><time>2026-05-03T09:32:24Z</time></trkpt><trkpt lat="42.21466000239719" lon="13.822778688946206"><ele>317.0</ele><time>2026-05-03T09:32:25Z</time></trkpt><trkpt lat="42.21457850626583" lon="13.822806579067624"><ele>317.0</ele><time>2026-05-03T09:32:26Z</time></trkpt><trkpt lat="42.214497841193605" lon="13.822812598408023"><ele>317.0</ele><time>2026-05-03T09:32:27Z</time></trkpt><trkpt lat="42.21441396085164" lon="13.822777394600262"><ele>317.0</ele><time>2026-05-03T09:32:28Z</time></trkpt><trkpt lat="42.21434336702446" lon="13.822693881748297"><ele>317.0</ele><time>2026-05-03T09:32:29Z</time></trkpt><trkpt lat="42.21425583002311" lon="13.82262523408536"><ele>317.0</ele><time>2026-05-03T09:32:30Z</time></trkpt><trkpt lat="42.214196001822636" lon="13.822554079103607"><ele>317.0</ele><time>2026-05-03T09:32:30.999Z</time></trkpt><trkpt lat="42.21415648012805" lon="13.822485975436477"><ele>317.0</ele><time>2026-05-03T09:32:31.999Z</time></trkpt><trkpt lat="42.214077608754124" lon="13.822357580820718"><ele>317.0</ele><time>2026-05-03T09:32:33.999Z</time></trkpt><trkpt lat="42.21403442397024" lon="13.822214124352149"><ele>317.0</ele><time>2026-05-03T09:32:35.999Z</time></trkpt><trkpt lat="42.2140353491901" lon="13.822123402519477"><ele>317.0</ele><time>2026-05-03T09:32:37.999Z</time></trkpt><trkpt lat="42.214011307461895" lon="13.822041985183558"><ele>317.0</ele><time>2026-05-03T09:32:54.999Z</time></trkpt><trkpt lat="42.213914489585136" lon="13.822014156866313"><ele>317.0</ele><time>2026-05-03T09:32:56.999Z</time></trkpt><trkpt lat="42.2138440386094" lon="13.82203756114379"><ele>317.0</ele><time>2026-05-03T09:32:57.999Z</time></trkpt><trkpt lat="42.21376970933895" lon="13.822079323413574"><ele>317.0</ele><time>2026-05-03T09:32:58.999Z</time></trkpt><trkpt lat="42.21369602226681" lon="13.822115407862686"><ele>317.0</ele><time>2026-05-03T09:32:59.999Z</time></trkpt><trkpt lat="42.213609161035784" lon="13.822141299868289"><ele>317.0</ele><time>2026-05-03T09:33:00.999Z</time></trkpt><trkpt lat="42.21352191459533" lon="13.822166461107887"><ele>317.0</ele><time>2026-05-03T09:33:01.999Z</time></trkpt><trkpt lat="42.21342629864121" lon="13.82219587383906"><ele>317.0</ele><time>2026-05-03T09:33:02.999Z</time></trkpt><trkpt lat="42.2133337562182" lon="13.822225023093058"><ele>317.0</ele><time>2026-05-03T09:33:03.999Z</time></trkpt><trkpt lat="42.21326591895744" lon="13.822259514864202"><ele>317.0</ele><time>2026-05-03T09:33:04.999Z</time></trkpt><trkpt lat="42.21314991446261" lon="13.822249140479716"><ele>317.0</ele><time>2026-05-03T09:33:06.999Z</time></trkpt><trkpt lat="42.213142317229945" lon="13.821948736772976"><ele>317.0</ele><time>2026-05-03T09:33:09.999Z</time></trkpt><trkpt lat="42.21315656685973" lon="13.821801219977289"><ele>317.25</ele><time>2026-05-03T09:33:10.999Z</time></trkpt><trkpt lat="42.21317466628045" lon="13.821630265937872"><ele>317.5</ele><time>2026-05-03T09:33:11.999Z</time></trkpt><trkpt lat="42.21318973853722" lon="13.821464614092678"><ele>317.75</ele><time>2026-05-03T09:33:12.999Z</time></trkpt><trkpt lat="42.2131969047645" lon="13.821295478252257"><ele>318.0</ele><time>2026-05-03T09:33:13.999Z</time></trkpt><trkpt lat="42.213218066860584" lon="13.821116654448083"><ele>317.25</ele><time>2026-05-03T09:33:14.999Z</time></trkpt><trkpt lat="42.213219350768064" lon="13.820934181748823"><ele>316.5</ele><time>2026-05-03T09:33:15.999Z</time></trkpt><trkpt lat="42.213216149641354" lon="13.82077252866152"><ele>315.75</ele><time>2026-05-03T09:33:16.999Z</time></trkpt><trkpt lat="42.2131919627853" lon="13.82062766742253"><ele>315.0</ele><time>2026-05-03T09:33:17.999Z</time></trkpt><trkpt lat="42.21318489204816" lon="13.82045326290305"><ele>315.0</ele><time>2026-05-03T09:33:18.999Z</time></trkpt><trkpt lat="42.21316863447608" lon="13.820286800719707"><ele>315.0</ele><time>2026-05-03T09:33:19.999Z</time></trkpt><trkpt lat="42.213177745875704" lon="13.820139169368593"><ele>315.0</ele><time>2026-05-03T09:33:20.999Z</time></trkpt><trkpt lat="42.21323522864211" lon="13.820025228210445"><ele>315.0</ele><time>2026-05-03T09:33:21.999Z</time></trkpt><trkpt lat="42.213329210798" lon="13.819980092832695"><ele>315.0</ele><time>2026-05-03T09:33:22.999Z</time></trkpt><trkpt lat="42.21343860536257" lon="13.819996192771633"><ele>315.0</ele><time>2026-05-03T09:33:23.999Z</time></trkpt><trkpt lat="42.21354521457445" lon="13.82006794846672"><ele>315.0</ele><time>2026-05-03T09:33:24.999Z</time></trkpt><trkpt lat="42.21360519513416" lon="13.820168646955405"><ele>315.0</ele><time>2026-05-03T09:33:25.999Z</time></trkpt><trkpt lat="42.21361939596357" lon="13.820292547408293"><ele>315.0</ele><time>2026-05-03T09:33:26.999Z</time></trkpt><trkpt lat="42.21361924384276" lon="13.820381956740057"><ele>315.0</ele><time>2026-05-03T09:33:27.999Z</time></trkpt><trkpt lat="42.21345366713752" lon="13.820544579249201"><ele>315.0</ele><time>2026-05-03T09:33:29.999Z</time></trkpt><trkpt lat="42.21333575546404" lon="13.820622818905576"><ele>315.0</ele><time>2026-05-03T09:33:30.999Z</time></trkpt><trkpt lat="42.213191206105236" lon="13.820715874120742"><ele>315.0</ele><time>2026-05-03T09:33:31.999Z</time></trkpt><trkpt lat="42.213039924664905" lon="13.82081903683553"><ele>315.0</ele><time>2026-05-03T09:33:32.999Z</time></trkpt><trkpt lat="42.21288134070704" lon="13.82092814340928"><ele>315.0</ele><time>2026-05-03T09:33:33.999Z</time></trkpt><trkpt lat="42.212719227856866" lon="13.821042178671934"><ele>315.0</ele><time>2026-05-03T09:33:34.999Z</time></trkpt><trkpt lat="42.21256518789008" lon="13.821143229422841"><ele>315.0</ele><time>2026-05-03T09:33:35.999Z</time></trkpt><trkpt lat="42.212396345768475" lon="13.821252117272369"><ele>315.0</ele><time>2026-05-03T09:33:36.999Z</time></trkpt><trkpt lat="42.21222291772642" lon="13.82135809947352"><ele>315.0</ele><time>2026-05-03T09:33:37.999Z</time></trkpt><trkpt lat="42.21204486863988" lon="13.821470776965471"><ele>315.3333333333333</ele><time>2026-05-03T09:33:38.999Z</time></trkpt><trkpt lat="42.21186981431889" lon="13.821584633271142"><ele>315.66666666666663</ele><time>2026-05-03T09:33:39.999Z</time></trkpt><trkpt lat="42.21169561086046" lon="13.821698852899825"><ele>316.0</ele><time>2026-05-03T09:33:40.999Z</time></trkpt><trkpt lat="42.211519372944956" lon="13.821809726213715"><ele>314.66666666666663</ele><time>2026-05-03T09:33:41.999Z</time></trkpt><trkpt lat="42.211335961526885" lon="13.821926397006884"><ele>313.3333333333333</ele><time>2026-05-03T09:33:42.999Z</time></trkpt><trkpt lat="42.21113749449842" lon="13.822056178495904"><ele>312.0</ele><time>2026-05-03T09:33:44Z</time></trkpt><trkpt lat="42.21093651256794" lon="13.822191676618203"><ele>312.0</ele><time>2026-05-03T09:33:45Z</time></trkpt><trkpt lat="42.21073019714952" lon="13.822326199102415"><ele>312.0</ele><time>2026-05-03T09:33:46Z</time></trkpt><trkpt lat="42.210526198123425" lon="13.822454468117698"><ele>311.5</ele><time>2026-05-03T09:33:47Z</time></trkpt><trkpt lat="42.21031957977126" lon="13.822583256097786"><ele>311.0</ele><time>2026-05-03T09:33:48Z</time></trkpt><trkpt lat="42.2101129808799" lon="13.822715107065875"><ele>311.0</ele><time>2026-05-03T09:33:49Z</time></trkpt><trkpt lat="42.20989739639813" lon="13.822851165599245"><ele>311.0</ele><time>2026-05-03T09:33:50Z</time></trkpt><trkpt lat="42.209692534682524" lon="13.822981550796767"><ele>313.0</ele><time>2026-05-03T09:33:51Z</time></trkpt><trkpt lat="42.2095075476452" lon="13.82310420092673"><ele>315.0</ele><time>2026-05-03T09:33:52Z</time></trkpt><trkpt lat="42.209318008994664" lon="13.823231627097082"><ele>317.0</ele><time>2026-05-03T09:33:53Z</time></trkpt><trkpt lat="42.20913047396088" lon="13.823362549239732"><ele>317.6666666666667</ele><time>2026-05-03T09:33:54Z</time></trkpt><trkpt lat="42.20894092669245" lon="13.823499820573312"><ele>318.3333333333333</ele><time>2026-05-03T09:33:55Z</time></trkpt><trkpt lat="42.20876691761539" lon="13.823648150464226"><ele>319.0</ele><time>2026-05-03T09:33:56Z</time></trkpt><trkpt lat="42.20859875914976" lon="13.823805510497724"><ele>319.0</ele><time>2026-05-03T09:33:57Z</time></trkpt><trkpt lat="42.20842273797469" lon="13.823982323234736"><ele>319.0</ele><time>2026-05-03T09:33:58Z</time></trkpt><trkpt lat="42.20824556268073" lon="13.824174522641835"><ele>319.0</ele><time>2026-05-03T09:33:59Z</time></trkpt><trkpt lat="42.20807830873732" lon="13.824377571040827"><ele>322.3333333333333</ele><time>2026-05-03T09:34:00Z</time></trkpt><trkpt lat="42.2079205995041" lon="13.82459860361814"><ele>325.6666666666667</ele><time>2026-05-03T09:34:01Z</time></trkpt><trkpt lat="42.20778399231289" lon="13.8248058800757"><ele>329.0</ele><time>2026-05-03T09:34:02Z</time></trkpt><trkpt lat="42.20765996619927" lon="13.825018141026272"><ele>332.6666666666667</ele><time>2026-05-03T09:34:03Z</time></trkpt><trkpt lat="42.20754935279482" lon="13.825233808975653"><ele>336.3333333333333</ele><time>2026-05-03T09:34:04Z</time></trkpt><trkpt lat="42.207441410701094" lon="13.825466616897664"><ele>340.0</ele><time>2026-05-03T09:34:05Z</time></trkpt><trkpt lat="42.207325060702196" lon="13.82570051563743"><ele>340.0</ele><time>2026-05-03T09:34:06Z</time></trkpt><trkpt lat="42.20719696676697" lon="13.825953372329527"><ele>340.0</ele><time>2026-05-03T09:34:07Z</time></trkpt><trkpt lat="42.20705522573993" lon="13.826200793202638"><ele>331.0</ele><time>2026-05-03T09:34:08Z</time></trkpt><trkpt lat="42.20690481990337" lon="13.82641387906055"><ele>322.0</ele><time>2026-05-03T09:34:09Z</time></trkpt><trkpt lat="42.20674037512743" lon="13.826613419303836"><ele>313.0</ele><time>2026-05-03T09:34:10Z</time></trkpt><trkpt lat="42.20656893060764" lon="13.826807345677073"><ele>316.66666666666663</ele><time>2026-05-03T09:34:11Z</time></trkpt><trkpt lat="42.20640712800051" lon="13.827002375564291"><ele>320.3333333333333</ele><time>2026-05-03T09:34:12Z</time></trkpt><trkpt lat="42.20626687131177" lon="13.82719598021755"><ele>324.0</ele><time>2026-05-03T09:34:13Z</time></trkpt><trkpt lat="42.20614487453238" lon="13.827406557001078"><ele>324.0</ele><time>2026-05-03T09:34:14Z</time></trkpt><trkpt lat="42.20604200153026" lon="13.827629197866827"><ele>324.0</ele><time>2026-05-03T09:34:15Z</time></trkpt><trkpt lat="42.20595704816033" lon="13.827871504223674"><ele>324.0</ele><time>2026-05-03T09:34:16Z</time></trkpt><trkpt lat="42.20588687566839" lon="13.828118973829286"><ele>317.6666666666667</ele><time>2026-05-03T09:34:17Z</time></trkpt><trkpt lat="42.20579519177085" lon="13.82836626495633"><ele>311.33333333333337</ele><time>2026-05-03T09:34:18Z</time></trkpt><trkpt lat="42.20570663097645" lon="13.828626812800234"><ele>305.0</ele><time>2026-05-03T09:34:19Z</time></trkpt><trkpt lat="42.20572515616576" lon="13.828971674306702"><ele>309.5</ele><time>2026-05-03T09:34:20Z</time></trkpt><trkpt lat="42.205671074434164" lon="13.829278847941664"><ele>314.0</ele><time>2026-05-03T09:34:21Z</time></trkpt><trkpt lat="42.20561506381435" lon="13.82957948269481"><ele>314.0</ele><time>2026-05-03T09:34:22Z</time></trkpt><trkpt lat="42.2055626745183" lon="13.829887772874423"><ele>314.0</ele><time>2026-05-03T09:34:23Z</time></trkpt><trkpt lat="42.205516551635384" lon="13.83017656999777"><ele>310.6666666666667</ele><time>2026-05-03T09:34:24Z</time></trkpt><trkpt lat="42.20547077193073" lon="13.830454411274573"><ele>307.3333333333333</ele><time>2026-05-03T09:34:25Z</time></trkpt><trkpt lat="42.205427949053465" lon="13.830719789876696"><ele>304.0</ele><time>2026-05-03T09:34:26Z</time></trkpt><trkpt lat="42.2053877520738" lon="13.830991825383016"><ele>301.3333333333333</ele><time>2026-05-03T09:34:27Z</time></trkpt><trkpt lat="42.20534426434896" lon="13.831269104234464"><ele>298.6666666666667</ele><time>2026-05-03T09:34:28Z</time></trkpt><trkpt lat="42.205290149690896" lon="13.831538165348583"><ele>296.0</ele><time>2026-05-03T09:34:29Z</time></trkpt><trkpt lat="42.20523094119193" lon="13.831777570531914"><ele>291.33333333333337</ele><time>2026-05-03T09:34:30Z</time></trkpt><trkpt lat="42.2051687731309" lon="13.832041061799242"><ele>286.6666666666667</ele><time>2026-05-03T09:34:31Z</time></trkpt><trkpt lat="42.20508063427615" lon="13.832305803435421"><ele>282.0</ele><time>2026-05-03T09:34:32Z</time></trkpt><trkpt lat="42.20497991944704" lon="13.832601020089957"><ele>277.3333333333333</ele><time>2026-05-03T09:34:33Z</time></trkpt><trkpt lat="42.204871219614134" lon="13.832873664896837"><ele>272.66666666666663</ele><time>2026-05-03T09:34:34Z</time></trkpt><trkpt lat="42.20475907577442" lon="13.83312439138273"><ele>268.0</ele><time>2026-05-03T09:34:35Z</time></trkpt><trkpt lat="42.204659323942046" lon="13.833356633544973"><ele>272.66666666666663</ele><time>2026-05-03T09:34:35.999Z</time></trkpt><trkpt lat="42.204558089249005" lon="13.833607707701846"><ele>277.3333333333333</ele><time>2026-05-03T09:34:36.999Z</time></trkpt><trkpt lat="42.204457187033924" lon="13.833865863966992"><ele>282.0</ele><time>2026-05-03T09:34:37.999Z</time></trkpt><trkpt lat="42.20434988206211" lon="13.83415254321452"><ele>274.5</ele><time>2026-05-03T09:34:38.999Z</time></trkpt><trkpt lat="42.20423830304689" lon="13.834436572424831"><ele>267.0</ele><time>2026-05-03T09:34:39.999Z</time></trkpt><trkpt lat="42.20412506223796" lon="13.83470928408702"><ele>267.0</ele><time>2026-05-03T09:34:40.999Z</time></trkpt><trkpt lat="42.204012896261546" lon="13.834981453852018"><ele>267.0</ele><time>2026-05-03T09:34:41.999Z</time></trkpt><trkpt lat="42.20389977826966" lon="13.835269537894265"><ele>271.0</ele><time>2026-05-03T09:34:42.999Z</time></trkpt><trkpt lat="42.2037756099601" lon="13.835552040013814"><ele>275.0</ele><time>2026-05-03T09:34:43.999Z</time></trkpt><trkpt lat="42.20364683800813" lon="13.835817084195511"><ele>269.0</ele><time>2026-05-03T09:34:44.999Z</time></trkpt><trkpt lat="42.20351327366739" lon="13.83604754223764"><ele>263.0</ele><time>2026-05-03T09:34:45.999Z</time></trkpt><trkpt lat="42.2033674808344" lon="13.836264319469082"><ele>257.0</ele><time>2026-05-03T09:34:46.999Z</time></trkpt><trkpt lat="42.20322414660444" lon="13.836429345251121"><ele>256.0</ele><time>2026-05-03T09:34:47.999Z</time></trkpt><trkpt lat="42.20307418925985" lon="13.836574816774434"><ele>255.0</ele><time>2026-05-03T09:34:48.999Z</time></trkpt><trkpt lat="42.202930416667506" lon="13.83670328229796"><ele>254.0</ele><time>2026-05-03T09:34:49.999Z</time></trkpt><trkpt lat="42.20277706073363" lon="13.836823650685423"><ele>254.0</ele><time>2026-05-03T09:34:50.999Z</time></trkpt><trkpt lat="42.202626357143544" lon="13.83691828580433"><ele>254.0</ele><time>2026-05-03T09:34:51.999Z</time></trkpt><trkpt lat="42.20245731164991" lon="13.837011552015104"><ele>254.0</ele><time>2026-05-03T09:34:52.999Z</time></trkpt><trkpt lat="42.2023003897437" lon="13.837085852781449"><ele>254.0</ele><time>2026-05-03T09:34:53.999Z</time></trkpt><trkpt lat="42.20214998489441" lon="13.837155528958872"><ele>254.0</ele><time>2026-05-03T09:34:54.999Z</time></trkpt><trkpt lat="42.201991034437086" lon="13.837201315630342"><ele>254.0</ele><time>2026-05-03T09:34:55.999Z</time></trkpt><trkpt lat="42.20181822855032" lon="13.837240741015295"><ele>254.0</ele><time>2026-05-03T09:34:56.999Z</time></trkpt><trkpt lat="42.20164602376078" lon="13.837274415441879"><ele>254.0</ele><time>2026-05-03T09:34:57.999Z</time></trkpt><trkpt lat="42.201473698219004" lon="13.837302705483406"><ele>254.0</ele><time>2026-05-03T09:34:58.999Z</time></trkpt><trkpt lat="42.20128997430764" lon="13.837331685120745"><ele>255.0</ele><time>2026-05-03T09:34:59.999Z</time></trkpt><trkpt lat="42.201108869599636" lon="13.837357411014068"><ele>256.0</ele><time>2026-05-03T09:35:00.999Z</time></trkpt><trkpt lat="42.200925927716085" lon="13.837380645688754"><ele>257.0</ele><time>2026-05-03T09:35:01.999Z</time></trkpt><trkpt lat="42.20071009168536" lon="13.837413737269182"><ele>260.0</ele><time>2026-05-03T09:35:02.999Z</time></trkpt><trkpt lat="42.200473861139486" lon="13.83744541222342"><ele>263.0</ele><time>2026-05-03T09:35:03.999Z</time></trkpt><trkpt lat="42.20021669171252" lon="13.837480713505517"><ele>263.0</ele><time>2026-05-03T09:35:04.999Z</time></trkpt><trkpt lat="42.19997567528008" lon="13.837515367975504"><ele>263.0</ele><time>2026-05-03T09:35:05.999Z</time></trkpt><trkpt lat="42.19976496677363" lon="13.837552267889764"><ele>265.0</ele><time>2026-05-03T09:35:06.999Z</time></trkpt><trkpt lat="42.199572683009926" lon="13.837585481342217"><ele>267.0</ele><time>2026-05-03T09:35:07.999Z</time></trkpt><trkpt lat="42.1993979763224" lon="13.83761484798907"><ele>269.0</ele><time>2026-05-03T09:35:08.999Z</time></trkpt><trkpt lat="42.19922586806918" lon="13.83762720313922"><ele>269.0</ele><time>2026-05-03T09:35:09.999Z</time></trkpt><trkpt lat="42.199031224905816" lon="13.837615801646585"><ele>269.0</ele><time>2026-05-03T09:35:10.999Z</time></trkpt><trkpt lat="42.19880967231892" lon="13.837580845977838"><ele>269.0</ele><time>2026-05-03T09:35:11.999Z</time></trkpt><trkpt lat="42.198575650397835" lon="13.837523506728646"><ele>267.5</ele><time>2026-05-03T09:35:12.999Z</time></trkpt><trkpt lat="42.19832770493599" lon="13.837450035981465"><ele>266.0</ele><time>2026-05-03T09:35:13.999Z</time></trkpt><trkpt lat="42.198091294764865" lon="13.837412167442631"><ele>265.33333333333337</ele><time>2026-05-03T09:35:14.999Z</time></trkpt><trkpt lat="42.19786604872864" lon="13.83743845573938"><ele>264.6666666666667</ele><time>2026-05-03T09:35:15.999Z</time></trkpt><trkpt lat="42.197660616233215" lon="13.83748716533"><ele>264.0</ele><time>2026-05-03T09:35:16.999Z</time></trkpt><trkpt lat="42.19744846103043" lon="13.837575246091449"><ele>265.6666666666667</ele><time>2026-05-03T09:35:17.999Z</time></trkpt><trkpt lat="42.1972396466473" lon="13.837685179006536"><ele>267.33333333333337</ele><time>2026-05-03T09:35:18.999Z</time></trkpt><trkpt lat="42.19704751782077" lon="13.837808108920017"><ele>269.0</ele><time>2026-05-03T09:35:19.999Z</time></trkpt><trkpt lat="42.19685729593864" lon="13.837971872315245"><ele>269.0</ele><time>2026-05-03T09:35:20.999Z</time></trkpt><trkpt lat="42.19667057480759" lon="13.838172185311494"><ele>269.0</ele><time>2026-05-03T09:35:21.999Z</time></trkpt><trkpt lat="42.19649663817176" lon="13.838397347211655"><ele>283.0</ele><time>2026-05-03T09:35:22.999Z</time></trkpt><trkpt lat="42.196344683039904" lon="13.838659549972704"><ele>297.0</ele><time>2026-05-03T09:35:23.999Z</time></trkpt><trkpt lat="42.19622239599463" lon="13.838931065184571"><ele>297.0</ele><time>2026-05-03T09:35:24.999Z</time></trkpt><trkpt lat="42.196126275789936" lon="13.839219533355653"><ele>297.0</ele><time>2026-05-03T09:35:25.999Z</time></trkpt><trkpt lat="42.19605412545642" lon="13.839538215786563"><ele>289.0</ele><time>2026-05-03T09:35:26.999Z</time></trkpt><trkpt lat="42.195995441287266" lon="13.839866095042069"><ele>281.0</ele><time>2026-05-03T09:35:27.999Z</time></trkpt><trkpt lat="42.195963213406884" lon="13.840208917498172"><ele>278.0</ele><time>2026-05-03T09:35:28.999Z</time></trkpt><trkpt lat="42.195961014645704" lon="13.840550603445058"><ele>275.0</ele><time>2026-05-03T09:35:29.999Z</time></trkpt><trkpt lat="42.19595639920607" lon="13.84088575608202"><ele>271.0</ele><time>2026-05-03T09:35:30.999Z</time></trkpt><trkpt lat="42.19593969474442" lon="13.841204547837181"><ele>267.0</ele><time>2026-05-03T09:35:31.999Z</time></trkpt><trkpt lat="42.195905070385784" lon="13.841488253109883"><ele>267.0</ele><time>2026-05-03T09:35:32.999Z</time></trkpt><trkpt lat="42.195842681599224" lon="13.841754258093012"><ele>267.0</ele><time>2026-05-03T09:35:33.999Z</time></trkpt><trkpt lat="42.195757107899595" lon="13.84202255424274"><ele>267.0</ele><time>2026-05-03T09:35:34.999Z</time></trkpt><trkpt lat="42.19564842013969" lon="13.84229735314579"><ele>283.6666666666667</ele><time>2026-05-03T09:35:35.999Z</time></trkpt><trkpt lat="42.19551832274474" lon="13.842542436308745"><ele>300.33333333333337</ele><time>2026-05-03T09:35:36.999Z</time></trkpt><trkpt lat="42.1953647291767" lon="13.842758290747087"><ele>317.0</ele><time>2026-05-03T09:35:37.999Z</time></trkpt><trkpt lat="42.19518975580225" lon="13.842928288805641"><ele>321.33333333333337</ele><time>2026-05-03T09:35:38.999Z</time></trkpt><trkpt lat="42.19500592553634" lon="13.843083157307229"><ele>325.6666666666667</ele><time>2026-05-03T09:35:39.999Z</time></trkpt><trkpt lat="42.19482480757757" lon="13.84325157280609"><ele>330.0</ele><time>2026-05-03T09:35:41.017Z</time></trkpt><trkpt lat="42.19464262850557" lon="13.84342358299536"><ele>340.0</ele><time>2026-05-03T09:35:42.024Z</time></trkpt><trkpt lat="42.19445839062092" lon="13.843594042806002"><ele>350.0</ele><time>2026-05-03T09:35:43.023Z</time></trkpt><trkpt lat="42.194280390295845" lon="13.843756303186169"><ele>360.0</ele><time>2026-05-03T09:35:44.022Z</time></trkpt><trkpt lat="42.19410816846857" lon="13.843918275803789"><ele>355.0</ele><time>2026-05-03T09:35:45.021Z</time></trkpt><trkpt lat="42.1939430059884" lon="13.844083472651517"><ele>350.0</ele><time>2026-05-03T09:35:46.022Z</time></trkpt><trkpt lat="42.19377628719935" lon="13.84425180718079"><ele>345.0</ele><time>2026-05-03T09:35:47.018Z</time></trkpt><trkpt lat="42.1922158716803" lon="13.845993717424133"><ele>247.0</ele><time>2026-05-03T09:35:50.996Z</time></trkpt><trkpt lat="42.19176203016396" lon="13.84648192675211"><ele>247.0</ele><time>2026-05-03T09:35:59.998Z</time></trkpt><trkpt lat="42.191630466638735" lon="13.84661825601024"><ele>247.0</ele><time>2026-05-03T09:36:00.998Z</time></trkpt><trkpt lat="42.191490458812176" lon="13.84676074325687"><ele>247.0</ele><time>2026-05-03T09:36:01.998Z</time></trkpt><trkpt lat="42.19134453208478" lon="13.846850813505204"><ele>246.25</ele><time>2026-05-03T09:36:02.998Z</time></trkpt><trkpt lat="42.191241598164744" lon="13.846981976428726"><ele>245.5</ele><time>2026-05-03T09:36:03.998Z</time></trkpt><trkpt lat="42.19112756846407" lon="13.847096528120181"><ele>244.75</ele><time>2026-05-03T09:36:04.998Z</time></trkpt><trkpt lat="42.191027272014615" lon="13.84717501254436"><ele>244.0</ele><time>2026-05-03T09:36:06Z</time></trkpt><trkpt lat="42.190925117175844" lon="13.84728018730135"><ele>244.0</ele><time>2026-05-03T09:36:07Z</time></trkpt><trkpt lat="42.1908239787614" lon="13.847382764246952"><ele>243.99999999999997</ele><time>2026-05-03T09:36:08Z</time></trkpt><trkpt lat="42.19075499844286" lon="13.847476245547034"><ele>243.99999999999997</ele><time>2026-05-03T09:36:09Z</time></trkpt><trkpt lat="42.19067349950924" lon="13.847541213947233"><ele>244.0</ele><time>2026-05-03T09:36:10Z</time></trkpt><trkpt lat="42.19058583336149" lon="13.847591139288175"><ele>244.0</ele><time>2026-05-03T09:36:11Z</time></trkpt><trkpt lat="42.190499960090186" lon="13.847610631075815"><ele>244.16666666666666</ele><time>2026-05-03T09:36:12Z</time></trkpt><trkpt lat="42.19041563157258" lon="13.847607607012108"><ele>244.33333333333331</ele><time>2026-05-03T09:36:13Z</time></trkpt><trkpt lat="42.19032930709599" lon="13.847604217846275"><ele>244.5</ele><time>2026-05-03T09:36:14Z</time></trkpt><trkpt lat="42.190251802459244" lon="13.847631474080858"><ele>244.66666666666669</ele><time>2026-05-03T09:36:15Z</time></trkpt><trkpt lat="42.1901899164131" lon="13.84770610973845"><ele>244.83333333333334</ele><time>2026-05-03T09:36:16Z</time></trkpt><trkpt lat="42.19015643153064" lon="13.847817422110865"><ele>245.0</ele><time>2026-05-03T09:36:17Z</time></trkpt><trkpt lat="42.19014992895279" lon="13.847941393410201"><ele>246.6</ele><time>2026-05-03T09:36:18Z</time></trkpt><trkpt lat="42.190186185095406" lon="13.8480614378637"><ele>248.2</ele><time>2026-05-03T09:36:19Z</time></trkpt><trkpt lat="42.19025001726484" lon="13.848143891225893"><ele>249.8</ele><time>2026-05-03T09:36:20Z</time></trkpt><trkpt lat="42.19033331374126" lon="13.848197028535582"><ele>251.4</ele><time>2026-05-03T09:36:21Z</time></trkpt><trkpt lat="42.19043277672266" lon="13.848247120954767"><ele>253.0</ele><time>2026-05-03T09:36:22Z</time></trkpt><trkpt lat="42.190531661057555" lon="13.848317079514171"><ele>253.0</ele><time>2026-05-03T09:36:23Z</time></trkpt><trkpt lat="42.19061818810513" lon="13.848421499147962"><ele>253.0</ele><time>2026-05-03T09:36:24Z</time></trkpt><trkpt lat="42.190693276869695" lon="13.848562307229898"><ele>253.0</ele><time>2026-05-03T09:36:25Z</time></trkpt><trkpt lat="42.19076758282124" lon="13.848717972109402"><ele>253.0</ele><time>2026-05-03T09:36:26Z</time></trkpt><trkpt lat="42.190850300798715" lon="13.848877125910242"><ele>251.0</ele><time>2026-05-03T09:36:27Z</time></trkpt><trkpt lat="42.19093173088216" lon="13.849045150455698"><ele>249.0</ele><time>2026-05-03T09:36:28Z</time></trkpt><trkpt lat="42.19103215635609" lon="13.849246120061489"><ele>247.0</ele><time>2026-05-03T09:36:29Z</time></trkpt><trkpt lat="42.19116570663365" lon="13.84950496248763"><ele>258.5</ele><time>2026-05-03T09:36:30Z</time></trkpt><trkpt lat="42.191304028242634" lon="13.849786924150152"><ele>270.0</ele><time>2026-05-03T09:36:31Z</time></trkpt><trkpt lat="42.19146802526914" lon="13.850063380639034"><ele>266.0</ele><time>2026-05-03T09:36:32Z</time></trkpt><trkpt lat="42.1916445476023" lon="13.850324940597986"><ele>262.0</ele><time>2026-05-03T09:36:33Z</time></trkpt><trkpt lat="42.19182093249839" lon="13.850549097950388"><ele>262.0</ele><time>2026-05-03T09:36:34Z</time></trkpt><trkpt lat="42.19200061212222" lon="13.850755653669351"><ele>262.0</ele><time>2026-05-03T09:36:35Z</time></trkpt><trkpt lat="42.192185749174435" lon="13.850948668941111"><ele>262.3333333333333</ele><time>2026-05-03T09:36:36Z</time></trkpt><trkpt lat="42.192373897583074" lon="13.851108868407096"><ele>262.6666666666667</ele><time>2026-05-03T09:36:37Z</time></trkpt><trkpt lat="42.19254655757269" lon="13.851252142930676"><ele>263.0</ele><time>2026-05-03T09:36:38Z</time></trkpt><trkpt lat="42.192699724074195" lon="13.851402179635482"><ele>263.0</ele><time>2026-05-03T09:36:39Z</time></trkpt><trkpt lat="42.192836715692295" lon="13.851568181587627"><ele>263.0</ele><time>2026-05-03T09:36:40Z</time></trkpt><trkpt lat="42.19297198532819" lon="13.851717149160608"><ele>263.0</ele><time>2026-05-03T09:36:41Z</time></trkpt><trkpt lat="42.19312855947408" lon="13.851852184870895"><ele>268.33333333333337</ele><time>2026-05-03T09:36:42Z</time></trkpt><trkpt lat="42.1933057813593" lon="13.851954885702458"><ele>273.6666666666667</ele><time>2026-05-03T09:36:43Z</time></trkpt><trkpt lat="42.19349275650743" lon="13.852025132516921"><ele>279.0</ele><time>2026-05-03T09:36:44Z</time></trkpt><trkpt lat="42.19369461386341" lon="13.852064155801461"><ele>279.0</ele><time>2026-05-03T09:36:45Z</time></trkpt><trkpt lat="42.19390757625154" lon="13.852080839074636"><ele>279.0</ele><time>2026-05-03T09:36:46Z</time></trkpt><trkpt lat="42.194130012919764" lon="13.852085751615867"><ele>279.0</ele><time>2026-05-03T09:36:47Z</time></trkpt><trkpt lat="42.194326648590305" lon="13.852124528616274"><ele>272.3333333333333</ele><time>2026-05-03T09:36:48Z</time></trkpt><trkpt lat="42.19450837659924" lon="13.852159788309198"><ele>265.66666666666663</ele><time>2026-05-03T09:36:49Z</time></trkpt><trkpt lat="42.194669937227914" lon="13.852223973418981"><ele>259.0</ele><time>2026-05-03T09:36:50Z</time></trkpt><trkpt lat="42.194813911548806" lon="13.852323992813544"><ele>261.0</ele><time>2026-05-03T09:36:51Z</time></trkpt><trkpt lat="42.19496134319906" lon="13.85246120701284"><ele>263.0</ele><time>2026-05-03T09:36:52Z</time></trkpt><trkpt lat="42.195089980447904" lon="13.852631526160767"><ele>265.0</ele><time>2026-05-03T09:36:53Z</time></trkpt><trkpt lat="42.19520959647652" lon="13.852837261050023"><ele>265.0</ele><time>2026-05-03T09:36:54Z</time></trkpt><trkpt lat="42.195319039219335" lon="13.853074505268726"><ele>265.0</ele><time>2026-05-03T09:36:55Z</time></trkpt><trkpt lat="42.19541306053937" lon="13.853363883034936"><ele>265.0</ele><time>2026-05-03T09:36:56Z</time></trkpt><trkpt lat="42.19551660697951" lon="13.853656560201498"><ele>270.0</ele><time>2026-05-03T09:36:57Z</time></trkpt><trkpt lat="42.19559486974836" lon="13.853934832805454"><ele>275.0</ele><time>2026-05-03T09:36:57.999Z</time></trkpt><trkpt lat="42.19567276880177" lon="13.854201167473681"><ele>280.0</ele><time>2026-05-03T09:36:58.999Z</time></trkpt><trkpt lat="42.195744676788514" lon="13.854458388891373"><ele>269.66666666666663</ele><time>2026-05-03T09:36:59.999Z</time></trkpt><trkpt lat="42.19582616026865" lon="13.854702295837129"><ele>259.3333333333333</ele><time>2026-05-03T09:37:00.999Z</time></trkpt><trkpt lat="42.19588130597443" lon="13.85493835985976"><ele>249.0</ele><time>2026-05-03T09:37:01.999Z</time></trkpt><trkpt lat="42.1959090189146" lon="13.855180406470465"><ele>249.0</ele><time>2026-05-03T09:37:02.999Z</time></trkpt><trkpt lat="42.1958814773845" lon="13.855470887644321"><ele>249.0</ele><time>2026-05-03T09:37:03.999Z</time></trkpt><trkpt lat="42.19586604195165" lon="13.855778045231233"><ele>249.0</ele><time>2026-05-03T09:37:04.999Z</time></trkpt><trkpt lat="42.19586005419089" lon="13.85607483616922"><ele>248.66666666666669</ele><time>2026-05-03T09:37:05.999Z</time></trkpt><trkpt lat="42.19583844087489" lon="13.856360813865152"><ele>248.33333333333334</ele><time>2026-05-03T09:37:06.999Z</time></trkpt><trkpt lat="42.19582440398953" lon="13.856651839944536"><ele>248.0</ele><time>2026-05-03T09:37:07.999Z</time></trkpt><trkpt lat="42.195813943195574" lon="13.856939449167687"><ele>248.0</ele><time>2026-05-03T09:37:08.999Z</time></trkpt><trkpt lat="42.19580291964345" lon="13.857214724437641"><ele>248.0</ele><time>2026-05-03T09:37:09.999Z</time></trkpt><trkpt lat="42.19577203018178" lon="13.857495842936041"><ele>248.0</ele><time>2026-05-03T09:37:10.999Z</time></trkpt><trkpt lat="42.19575021553896" lon="13.857777934764473"><ele>247.0</ele><time>2026-05-03T09:37:11.999Z</time></trkpt><trkpt lat="42.195728376451854" lon="13.858058437147"><ele>246.0</ele><time>2026-05-03T09:37:12.999Z</time></trkpt><trkpt lat="42.19572067364857" lon="13.858335548765728"><ele>245.0</ele><time>2026-05-03T09:37:13.999Z</time></trkpt><trkpt lat="42.19566772943285" lon="13.858609724472322"><ele>255.33333333333334</ele><time>2026-05-03T09:37:14.999Z</time></trkpt><trkpt lat="42.19562012612102" lon="13.858894332140004"><ele>265.6666666666667</ele><time>2026-05-03T09:37:15.999Z</time></trkpt><trkpt lat="42.19557052119298" lon="13.859201969048103"><ele>276.0</ele><time>2026-05-03T09:37:16.999Z</time></trkpt><trkpt lat="42.19553680460263" lon="13.859497315515503"><ele>276.0</ele><time>2026-05-03T09:37:17.999Z</time></trkpt><trkpt lat="42.195530645639764" lon="13.859782938599533"><ele>276.0</ele><time>2026-05-03T09:37:18.999Z</time></trkpt><trkpt lat="42.195518388173106" lon="13.860060657788447"><ele>276.0</ele><time>2026-05-03T09:37:19.999Z</time></trkpt><trkpt lat="42.19551482479496" lon="13.860320795520133"><ele>275.3333333333333</ele><time>2026-05-03T09:37:20.999Z</time></trkpt><trkpt lat="42.195508287619504" lon="13.860556549233426"><ele>274.66666666666663</ele><time>2026-05-03T09:37:21.999Z</time></trkpt><trkpt lat="42.19550049139201" lon="13.86077128804152"><ele>274.0</ele><time>2026-05-03T09:37:22.999Z</time></trkpt><trkpt lat="42.19549162334236" lon="13.86098902891687"><ele>273.8</ele><time>2026-05-03T09:37:23.999Z</time></trkpt><trkpt lat="42.19548695711702" lon="13.86118271133629"><ele>273.59999999999997</ele><time>2026-05-03T09:37:24.999Z</time></trkpt><trkpt lat="42.19548227794718" lon="13.86134489912828"><ele>273.4</ele><time>2026-05-03T09:37:25.999Z</time></trkpt><trkpt lat="42.19549640101406" lon="13.861473237758588"><ele>273.2</ele><time>2026-05-03T09:37:26.999Z</time></trkpt><trkpt lat="42.19552209823507" lon="13.86158221856161"><ele>273.0</ele><time>2026-05-03T09:37:27.999Z</time></trkpt><trkpt lat="42.1955429105137" lon="13.861678339087806"><ele>273.0</ele><time>2026-05-03T09:37:28.999Z</time></trkpt><trkpt lat="42.1955488545523" lon="13.861769672305531"><ele>273.0</ele><time>2026-05-03T09:37:29.999Z</time></trkpt><trkpt lat="42.195534748584514" lon="13.861855397609416"><ele>273.0</ele><time>2026-05-03T09:37:30.999Z</time></trkpt><trkpt lat="42.19551296053951" lon="13.861941809879148"><ele>273.0</ele><time>2026-05-03T09:37:31.999Z</time></trkpt><trkpt lat="42.19550756396094" lon="13.862041802781409"><ele>273.0</ele><time>2026-05-03T09:37:32.999Z</time></trkpt><trkpt lat="42.19553688357584" lon="13.862152888769053"><ele>273.0</ele><time>2026-05-03T09:37:33.999Z</time></trkpt><trkpt lat="42.19558736605132" lon="13.862297480435963"><ele>275.3333333333333</ele><time>2026-05-03T09:37:34.999Z</time></trkpt><trkpt lat="42.19562183247001" lon="13.862493638408438"><ele>277.66666666666663</ele><time>2026-05-03T09:37:35.999Z</time></trkpt><trkpt lat="42.19566231164484" lon="13.862690957954147"><ele>280.0</ele><time>2026-05-03T09:37:36.999Z</time></trkpt><trkpt lat="42.19571200570409" lon="13.862892147577115"><ele>274.0</ele><time>2026-05-03T09:37:37.999Z</time></trkpt><trkpt lat="42.195783172491694" lon="13.863087800974723"><ele>268.0</ele><time>2026-05-03T09:37:38.999Z</time></trkpt><trkpt lat="42.19586870251135" lon="13.863292213850922"><ele>262.0</ele><time>2026-05-03T09:37:39.999Z</time></trkpt><trkpt lat="42.195958156113186" lon="13.863505128372864"><ele>262.0</ele><time>2026-05-03T09:37:40.999Z</time></trkpt><trkpt lat="42.1960420338266" lon="13.863736266216675"><ele>262.0</ele><time>2026-05-03T09:37:41.999Z</time></trkpt><trkpt lat="42.19613838575183" lon="13.864006790539277"><ele>262.0</ele><time>2026-05-03T09:37:42.999Z</time></trkpt><trkpt lat="42.196258834392545" lon="13.864280300182624"><ele>267.0</ele><time>2026-05-03T09:37:43.999Z</time></trkpt><trkpt lat="42.19636406547893" lon="13.864552787167158"><ele>272.0</ele><time>2026-05-03T09:37:44.999Z</time></trkpt><trkpt lat="42.19645776137177" lon="13.864820780895197"><ele>277.0</ele><time>2026-05-03T09:37:45.999Z</time></trkpt><trkpt lat="42.196544909993534" lon="13.865076844409346"><ele>266.3333333333333</ele><time>2026-05-03T09:37:46.999Z</time></trkpt><trkpt lat="42.19661970823632" lon="13.86531689744339"><ele>255.66666666666669</ele><time>2026-05-03T09:37:47.999Z</time></trkpt><trkpt lat="42.19670450095556" lon="13.865557607137541"><ele>245.0</ele><time>2026-05-03T09:37:48.999Z</time></trkpt><trkpt lat="42.19678362550512" lon="13.865811752894068"><ele>248.33333333333334</ele><time>2026-05-03T09:37:49.999Z</time></trkpt><trkpt lat="42.19685365076167" lon="13.866080742812995"><ele>251.66666666666669</ele><time>2026-05-03T09:37:50.999Z</time></trkpt><trkpt lat="42.19691939383233" lon="13.866365092983287"><ele>255.0</ele><time>2026-05-03T09:37:51.999Z</time></trkpt><trkpt lat="42.19699248098205" lon="13.866655890895345"><ele>257.6666666666667</ele><time>2026-05-03T09:37:52.999Z</time></trkpt><trkpt lat="42.19704554189123" lon="13.866942537419197"><ele>260.33333333333337</ele><time>2026-05-03T09:37:53.999Z</time></trkpt><trkpt lat="42.19710456438249" lon="13.867226634830603"><ele>263.0</ele><time>2026-05-03T09:37:54.999Z</time></trkpt><trkpt lat="42.19716307609266" lon="13.867492922035362"><ele>264.0</ele><time>2026-05-03T09:37:55.999Z</time></trkpt><trkpt lat="42.197221284863936" lon="13.867756715859313"><ele>265.0</ele><time>2026-05-03T09:37:56.999Z</time></trkpt><trkpt lat="42.197289365807286" lon="13.868020190450391"><ele>266.0</ele><time>2026-05-03T09:37:57.999Z</time></trkpt><trkpt lat="42.197351084570194" lon="13.86829304655379"><ele>257.0</ele><time>2026-05-03T09:37:58.999Z</time></trkpt><trkpt lat="42.197394855082266" lon="13.868556247702358"><ele>248.0</ele><time>2026-05-03T09:37:59.999Z</time></trkpt><trkpt lat="42.19743553526121" lon="13.868829451276444"><ele>239.0</ele><time>2026-05-03T09:38:00.999Z</time></trkpt><trkpt lat="42.19745985266936" lon="13.869119826078357"><ele>238.33333333333334</ele><time>2026-05-03T09:38:01.999Z</time></trkpt><trkpt lat="42.197483661645386" lon="13.869414769559826"><ele>237.66666666666669</ele><time>2026-05-03T09:38:02.999Z</time></trkpt><trkpt lat="42.197515457253225" lon="13.869716693069085"><ele>237.0</ele><time>2026-05-03T09:38:03.999Z</time></trkpt><trkpt lat="42.19755960146644" lon="13.87002410739181"><ele>237.0</ele><time>2026-05-03T09:38:04.999Z</time></trkpt><trkpt lat="42.19759257943999" lon="13.87033636656473"><ele>237.0</ele><time>2026-05-03T09:38:05.999Z</time></trkpt><trkpt lat="42.19762309836788" lon="13.870639403694701"><ele>238.5</ele><time>2026-05-03T09:38:06.999Z</time></trkpt><trkpt lat="42.19766018664581" lon="13.870942640112661"><ele>240.0</ele><time>2026-05-03T09:38:07.999Z</time></trkpt><trkpt lat="42.1976933676707" lon="13.871251357215467"><ele>240.0</ele><time>2026-05-03T09:38:08.999Z</time></trkpt><trkpt lat="42.19772467164877" lon="13.871558564828366"><ele>240.0</ele><time>2026-05-03T09:38:09.999Z</time></trkpt><trkpt lat="42.1977664018355" lon="13.871871824699188"><ele>245.0</ele><time>2026-05-03T09:38:10.999Z</time></trkpt><trkpt lat="42.19781192839771" lon="13.872192418550489"><ele>250.0</ele><time>2026-05-03T09:38:12Z</time></trkpt><trkpt lat="42.19786184896552" lon="13.872512599008953"><ele>248.0</ele><time>2026-05-03T09:38:13Z</time></trkpt><trkpt lat="42.19791643712923" lon="13.872832021480061"><ele>246.0</ele><time>2026-05-03T09:38:14Z</time></trkpt><trkpt lat="42.19796642857678" lon="13.873140989130674"><ele>246.0</ele><time>2026-05-03T09:38:15Z</time></trkpt><trkpt lat="42.19802122572515" lon="13.873426820141255"><ele>246.0</ele><time>2026-05-03T09:38:16Z</time></trkpt><trkpt lat="42.19807270035299" lon="13.8737258096161"><ele>246.0</ele><time>2026-05-03T09:38:17Z</time></trkpt><trkpt lat="42.19812020397222" lon="13.87403455756247"><ele>239.0</ele><time>2026-05-03T09:38:18Z</time></trkpt><trkpt lat="42.19817058914151" lon="13.874333662592337"><ele>232.0</ele><time>2026-05-03T09:38:19Z</time></trkpt><trkpt lat="42.19821996682388" lon="13.874627112250865"><ele>232.0</ele><time>2026-05-03T09:38:20Z</time></trkpt><trkpt lat="42.198259975417756" lon="13.874904172859752"><ele>232.0</ele><time>2026-05-03T09:38:21Z</time></trkpt><trkpt lat="42.19828892233958" lon="13.875169802133927"><ele>232.0</ele><time>2026-05-03T09:38:22Z</time></trkpt><trkpt lat="42.19830241312897" lon="13.87542096558158"><ele>229.33333333333331</ele><time>2026-05-03T09:38:23Z</time></trkpt><trkpt lat="42.1982841917856" lon="13.875678110050814"><ele>226.66666666666669</ele><time>2026-05-03T09:38:24Z</time></trkpt><trkpt lat="42.19823757876887" lon="13.875944396664027"><ele>224.0</ele><time>2026-05-03T09:38:25Z</time></trkpt><trkpt lat="42.198169740159386" lon="13.876243669449304"><ele>237.0</ele><time>2026-05-03T09:38:26Z</time></trkpt><trkpt lat="42.1980828455169" lon="13.876523875930035"><ele>250.0</ele><time>2026-05-03T09:38:27Z</time></trkpt><trkpt lat="42.19803269055615" lon="13.876776648014589"><ele>263.0</ele><time>2026-05-03T09:38:28Z</time></trkpt><trkpt lat="42.19797830064462" lon="13.87700512768396"><ele>263.0</ele><time>2026-05-03T09:38:29Z</time></trkpt><trkpt lat="42.197941303413614" lon="13.877217885240979"><ele>263.0</ele><time>2026-05-03T09:38:30Z</time></trkpt><trkpt lat="42.19793040944002" lon="13.877426445082191"><ele>263.0</ele><time>2026-05-03T09:38:31Z</time></trkpt><trkpt lat="42.19795056591226" lon="13.877627271046997"><ele>264.6666666666667</ele><time>2026-05-03T09:38:32Z</time></trkpt><trkpt lat="42.19800876435213" lon="13.877847335764066"><ele>266.3333333333333</ele><time>2026-05-03T09:38:33Z</time></trkpt><trkpt lat="42.19807973878175" lon="13.878062694448701"><ele>268.0</ele><time>2026-05-03T09:38:34Z</time></trkpt><trkpt lat="42.19816930919981" lon="13.878293070631686"><ele>258.3333333333333</ele><time>2026-05-03T09:38:35Z</time></trkpt><trkpt lat="42.198270720777366" lon="13.87851917890033"><ele>248.66666666666669</ele><time>2026-05-03T09:38:36Z</time></trkpt><trkpt lat="42.19838373433873" lon="13.878709351225242"><ele>239.0</ele><time>2026-05-03T09:38:37Z</time></trkpt><trkpt lat="42.198506133187244" lon="13.87887312797052"><ele>239.0</ele><time>2026-05-03T09:38:38Z</time></trkpt><trkpt lat="42.19864192201787" lon="13.87901623440759"><ele>239.0</ele><time>2026-05-03T09:38:39Z</time></trkpt><trkpt lat="42.19877653829858" lon="13.879141901055586"><ele>239.0</ele><time>2026-05-03T09:38:40Z</time></trkpt><trkpt lat="42.1989023036072" lon="13.879256528039148"><ele>236.75</ele><time>2026-05-03T09:38:41Z</time></trkpt><trkpt lat="42.1990171539826" lon="13.879380665483477"><ele>234.5</ele><time>2026-05-03T09:38:42Z</time></trkpt><trkpt lat="42.19911647093116" lon="13.879516216228854"><ele>232.25</ele><time>2026-05-03T09:38:43Z</time></trkpt><trkpt lat="42.199203723364484" lon="13.87967738082717"><ele>230.0</ele><time>2026-05-03T09:38:44Z</time></trkpt><trkpt lat="42.19925044132114" lon="13.879848136493715"><ele>230.0</ele><time>2026-05-03T09:38:45Z</time></trkpt><trkpt lat="42.19934816182693" lon="13.879988195219783"><ele>230.0</ele><time>2026-05-03T09:38:46Z</time></trkpt><trkpt lat="42.19940843010778" lon="13.880163514697976"><ele>230.0</ele><time>2026-05-03T09:38:47Z</time></trkpt><trkpt lat="42.199287173316286" lon="13.880404965175734"><ele>229.0</ele><time>2026-05-03T09:38:48Z</time></trkpt><trkpt lat="42.19927032137332" lon="13.88060320360045"><ele>228.0</ele><time>2026-05-03T09:38:49Z</time></trkpt><trkpt lat="42.199263274708755" lon="13.88082180899675"><ele>227.0</ele><time>2026-05-03T09:38:50Z</time></trkpt><trkpt lat="42.19921385888924" lon="13.88126808305796"><ele>227.0</ele><time>2026-05-03T09:38:52Z</time></trkpt><trkpt lat="42.19920612632317" lon="13.881495478205752"><ele>227.0</ele><time>2026-05-03T09:38:53Z</time></trkpt><trkpt lat="42.19923525171721" lon="13.88171492618335"><ele>227.0</ele><time>2026-05-03T09:38:54Z</time></trkpt><trkpt lat="42.199311883164995" lon="13.881948408110198"><ele>229.0</ele><time>2026-05-03T09:38:55Z</time></trkpt><trkpt lat="42.19938540726629" lon="13.882191675457399"><ele>231.0</ele><time>2026-05-03T09:38:56Z</time></trkpt><trkpt lat="42.19949976669755" lon="13.88244964995361"><ele>233.0</ele><time>2026-05-03T09:38:57Z</time></trkpt><trkpt lat="42.19958107822783" lon="13.882709247869268"><ele>227.33333333333334</ele><time>2026-05-03T09:38:58Z</time></trkpt><trkpt lat="42.19965623979753" lon="13.882941876140105"><ele>221.66666666666669</ele><time>2026-05-03T09:38:59Z</time></trkpt><trkpt lat="42.199768471382356" lon="13.883147655587647"><ele>216.0</ele><time>2026-05-03T09:38:59.999Z</time></trkpt><trkpt lat="42.199894167477865" lon="13.883318660196359"><ele>223.66666666666669</ele><time>2026-05-03T09:39:00.999Z</time></trkpt><trkpt lat="42.200041314448264" lon="13.88345703881773"><ele>231.33333333333334</ele><time>2026-05-03T09:39:01.999Z</time></trkpt><trkpt lat="42.200169732652526" lon="13.883616671291303"><ele>239.0</ele><time>2026-05-03T09:39:02.999Z</time></trkpt><trkpt lat="42.200284996472554" lon="13.883777021577757"><ele>239.0</ele><time>2026-05-03T09:39:03.999Z</time></trkpt><trkpt lat="42.20039929838507" lon="13.883929547296956"><ele>239.0</ele><time>2026-05-03T09:39:04.999Z</time></trkpt><trkpt lat="42.20047585144887" lon="13.884115585118598"><ele>239.0</ele><time>2026-05-03T09:39:05.999Z</time></trkpt><trkpt lat="42.20053669809833" lon="13.884313258800674"><ele>243.66666666666669</ele><time>2026-05-03T09:39:06.999Z</time></trkpt><trkpt lat="42.20059155038608" lon="13.884523604669534"><ele>248.33333333333331</ele><time>2026-05-03T09:39:07.999Z</time></trkpt><trkpt lat="42.200656870856335" lon="13.884772483883866"><ele>253.0</ele><time>2026-05-03T09:39:08.999Z</time></trkpt><trkpt lat="42.20073785500627" lon="13.885033442777917"><ele>247.0</ele><time>2026-05-03T09:39:09.999Z</time></trkpt><trkpt lat="42.200833556324554" lon="13.885252828318926"><ele>241.0</ele><time>2026-05-03T09:39:10.999Z</time></trkpt><trkpt lat="42.2009526116057" lon="13.88545316475745"><ele>235.0</ele><time>2026-05-03T09:39:11.999Z</time></trkpt><trkpt lat="42.201098106542986" lon="13.8856314677201"><ele>235.0</ele><time>2026-05-03T09:39:12.999Z</time></trkpt><trkpt lat="42.20126419860452" lon="13.885786984771384"><ele>235.0</ele><time>2026-05-03T09:39:13.999Z</time></trkpt><trkpt lat="42.20143544193224" lon="13.885938412846473"><ele>235.0</ele><time>2026-05-03T09:39:14.999Z</time></trkpt><trkpt lat="42.20159084261156" lon="13.886122211209504"><ele>233.0</ele><time>2026-05-03T09:39:15.999Z</time></trkpt><trkpt lat="42.20175368718908" lon="13.886288682375529"><ele>231.0</ele><time>2026-05-03T09:39:16.999Z</time></trkpt><trkpt lat="42.201913630607606" lon="13.886453474640083"><ele>229.0</ele><time>2026-05-03T09:39:17.999Z</time></trkpt><trkpt lat="42.20206909425433" lon="13.886614022686642"><ele>226.33333333333331</ele><time>2026-05-03T09:39:18.999Z</time></trkpt><trkpt lat="42.20222693467677" lon="13.886776865540646"><ele>223.66666666666669</ele><time>2026-05-03T09:39:19.999Z</time></trkpt><trkpt lat="42.202379985733266" lon="13.88693429813614"><ele>221.0</ele><time>2026-05-03T09:39:20.999Z</time></trkpt><trkpt lat="42.202537850984655" lon="13.887069629838706"><ele>221.0</ele><time>2026-05-03T09:39:21.999Z</time></trkpt><trkpt lat="42.20269256446676" lon="13.887233010146902"><ele>221.0</ele><time>2026-05-03T09:39:22.999Z</time></trkpt><trkpt lat="42.20284925618269" lon="13.887417807461295"><ele>221.0</ele><time>2026-05-03T09:39:23.999Z</time></trkpt><trkpt lat="42.20300401682801" lon="13.887578172267402"><ele>224.33333333333334</ele><time>2026-05-03T09:39:24.999Z</time></trkpt><trkpt lat="42.203146237909756" lon="13.88772554339117"><ele>227.66666666666669</ele><time>2026-05-03T09:39:25.999Z</time></trkpt><trkpt lat="42.20327184782642" lon="13.887855701842708"><ele>231.0</ele><time>2026-05-03T09:39:26.999Z</time></trkpt><trkpt lat="42.20337402019717" lon="13.887959799770405"><ele>231.0</ele><time>2026-05-03T09:39:27.999Z</time></trkpt><trkpt lat="42.20347743328765" lon="13.888038960078937"><ele>231.00000000000003</ele><time>2026-05-03T09:39:28.999Z</time></trkpt><trkpt lat="42.203550463480276" lon="13.888131075029708"><ele>231.00000000000003</ele><time>2026-05-03T09:39:29.999Z</time></trkpt><trkpt lat="42.203630014001256" lon="13.888206327083113"><ele>231.0</ele><time>2026-05-03T09:39:30.999Z</time></trkpt><trkpt lat="42.20369138210887" lon="13.888286879833306"><ele>231.0</ele><time>2026-05-03T09:39:31.999Z</time></trkpt><trkpt lat="42.20375625229084" lon="13.88836004272613"><ele>233.4</ele><time>2026-05-03T09:39:32.999Z</time></trkpt><trkpt lat="42.203816134096726" lon="13.888430411301837"><ele>235.8</ele><time>2026-05-03T09:39:33.999Z</time></trkpt><trkpt lat="42.20388544586416" lon="13.888516084386449"><ele>238.20000000000002</ele><time>2026-05-03T09:39:34.999Z</time></trkpt><trkpt lat="42.20397356422962" lon="13.888633291725622"><ele>240.60000000000002</ele><time>2026-05-03T09:39:35.999Z</time></trkpt><trkpt lat="42.20403798815069" lon="13.88876746441791"><ele>243.0</ele><time>2026-05-03T09:39:36.999Z</time></trkpt><trkpt lat="42.20411277419287" lon="13.888869653156858"><ele>239.0</ele><time>2026-05-03T09:39:37.999Z</time></trkpt><trkpt lat="42.20416430523126" lon="13.888984802720014"><ele>235.0</ele><time>2026-05-03T09:39:38.999Z</time></trkpt><trkpt lat="42.20420032784978" lon="13.889092421966525"><ele>231.0</ele><time>2026-05-03T09:39:39.999Z</time></trkpt><trkpt lat="42.20424039515913" lon="13.889177560809705"><ele>227.0</ele><time>2026-05-03T09:39:40.999Z</time></trkpt><trkpt lat="42.20420024925406" lon="13.889072917207066"><ele>223.0</ele><time>2026-05-03T09:39:47.999Z</time></trkpt><trkpt lat="42.204166400024235" lon="13.888993445050486"><ele>219.0</ele><time>2026-05-03T09:39:48.999Z</time></trkpt><trkpt lat="42.20414793394274" lon="13.888893402545726"><ele>219.0</ele><time>2026-05-03T09:39:49.999Z</time></trkpt><trkpt lat="42.20410066004193" lon="13.888798060672455"><ele>218.99999999999997</ele><time>2026-05-03T09:39:50.999Z</time></trkpt><trkpt lat="42.20404219631953" lon="13.888705029208303"><ele>218.99999999999997</ele><time>2026-05-03T09:39:51.999Z</time></trkpt><trkpt lat="42.20397844486514" lon="13.888599919443216"><ele>219.0</ele><time>2026-05-03T09:39:52.999Z</time></trkpt><trkpt lat="42.20390485537748" lon="13.88849759089521"><ele>219.0</ele><time>2026-05-03T09:39:53.999Z</time></trkpt><trkpt lat="42.2038217078953" lon="13.88839175010828"><ele>222.0</ele><time>2026-05-03T09:39:54.999Z</time></trkpt><trkpt lat="42.20374015075115" lon="13.888284316223125"><ele>225.0</ele><time>2026-05-03T09:39:55.999Z</time></trkpt><trkpt lat="42.20364997252819" lon="13.888180880503914"><ele>228.0</ele><time>2026-05-03T09:39:56.999Z</time></trkpt><trkpt lat="42.20355372540177" lon="13.888084507397577"><ele>231.0</ele><time>2026-05-03T09:39:57.999Z</time></trkpt><trkpt lat="42.20345203990179" lon="13.887984081295285"><ele>231.0</ele><time>2026-05-03T09:39:58.999Z</time></trkpt><trkpt lat="42.20334484489119" lon="13.887880531677851"><ele>231.0</ele><time>2026-05-03T09:39:59.999Z</time></trkpt><trkpt lat="42.2032352069822" lon="13.88777188757216"><ele>231.0</ele><time>2026-05-03T09:40:00.999Z</time></trkpt><trkpt lat="42.2031219907759" lon="13.88765084452454"><ele>231.0</ele><time>2026-05-03T09:40:01.999Z</time></trkpt><trkpt lat="42.20300859730604" lon="13.8875203856146"><ele>227.66666666666669</ele><time>2026-05-03T09:40:02.999Z</time></trkpt><trkpt lat="42.202885521981194" lon="13.887390653493489"><ele>224.33333333333334</ele><time>2026-05-03T09:40:03.999Z</time></trkpt><trkpt lat="42.20275201009054" lon="13.887257455315527"><ele>221.0</ele><time>2026-05-03T09:40:04.999Z</time></trkpt><trkpt lat="42.20262248581139" lon="13.887127570355545"><ele>221.0</ele><time>2026-05-03T09:40:05.999Z</time></trkpt><trkpt lat="42.20250716461655" lon="13.887007676277424"><ele>221.0</ele><time>2026-05-03T09:40:06.999Z</time></trkpt><trkpt lat="42.20239594799651" lon="13.886892652732344"><ele>221.0</ele><time>2026-05-03T09:40:07.999Z</time></trkpt><trkpt lat="42.20229353076976" lon="13.886785869433451"><ele>221.0</ele><time>2026-05-03T09:40:08.999Z</time></trkpt><trkpt lat="42.20219696680018" lon="13.886689353659607"><ele>222.33333333333334</ele><time>2026-05-03T09:40:09.999Z</time></trkpt><trkpt lat="42.20210323946884" lon="13.886611337410644"><ele>223.66666666666669</ele><time>2026-05-03T09:40:10.999Z</time></trkpt><trkpt lat="42.20205242575474" lon="13.88654032714931"><ele>225.0</ele><time>2026-05-03T09:40:11.999Z</time></trkpt><trkpt lat="42.202033878053925" lon="13.886667829907196"><ele>226.33333333333331</ele><time>2026-05-03T09:45:46.999Z</time></trkpt><trkpt lat="42.20208056541655" lon="13.886728171181286"><ele>227.66666666666666</ele><time>2026-05-03T09:45:47.999Z</time></trkpt><trkpt lat="42.2021317036264" lon="13.88680206225004"><ele>229.0</ele><time>2026-05-03T09:45:48.999Z</time></trkpt><trkpt lat="42.202185557075616" lon="13.886868129330537"><ele>227.66666666666666</ele><time>2026-05-03T09:45:49.999Z</time></trkpt><trkpt lat="42.20223803284965" lon="13.886925297817333"><ele>226.33333333333331</ele><time>2026-05-03T09:45:50.999Z</time></trkpt><trkpt lat="42.20228377024373" lon="13.886996794191434"><ele>225.0</ele><time>2026-05-03T09:45:51.999Z</time></trkpt><trkpt lat="42.20235673364622" lon="13.88705137863009"><ele>223.66666666666669</ele><time>2026-05-03T09:45:52.999Z</time></trkpt><trkpt lat="42.20243456151949" lon="13.887131434551147"><ele>222.33333333333334</ele><time>2026-05-03T09:45:53.999Z</time></trkpt><trkpt lat="42.20251893641536" lon="13.887218224933845"><ele>221.0</ele><time>2026-05-03T09:45:54.999Z</time></trkpt><trkpt lat="42.20258196484938" lon="13.887283057755555"><ele>221.00000000000003</ele><time>2026-05-03T09:45:55.999Z</time></trkpt><trkpt lat="42.20267089168592" lon="13.887374530300722"><ele>221.0</ele><time>2026-05-03T09:45:56.999Z</time></trkpt><trkpt lat="42.2027353507095" lon="13.887441159983904"><ele>221.0</ele><time>2026-05-03T09:45:57.999Z</time></trkpt><trkpt lat="42.202786887453385" lon="13.887494562949447"><ele>221.0</ele><time>2026-05-03T09:45:58.999Z</time></trkpt><trkpt lat="42.20284357467049" lon="13.887553302862132"><ele>221.00000000000003</ele><time>2026-05-03T09:45:59.999Z</time></trkpt><trkpt lat="42.202904756976494" lon="13.887616700640635"><ele>221.0</ele><time>2026-05-03T09:46:00.999Z</time></trkpt><trkpt lat="42.20297146093397" lon="13.88768582000227"><ele>223.0</ele><time>2026-05-03T09:46:01.999Z</time></trkpt><trkpt lat="42.20305481072039" lon="13.887772187945954"><ele>225.00000000000003</ele><time>2026-05-03T09:46:02.999Z</time></trkpt><trkpt lat="42.20313603950673" lon="13.88785635813037"><ele>227.00000000000003</ele><time>2026-05-03T09:46:03.999Z</time></trkpt><trkpt lat="42.20321154979062" lon="13.88793460267294"><ele>229.0</ele><time>2026-05-03T09:46:04.999Z</time></trkpt><trkpt lat="42.20330612338042" lon="13.888031160415176"><ele>231.0</ele><time>2026-05-03T09:46:05.999Z</time></trkpt><trkpt lat="42.203414052179205" lon="13.888141703676508"><ele>231.0</ele><time>2026-05-03T09:46:06.999Z</time></trkpt><trkpt lat="42.20350184838633" lon="13.888233757078702"><ele>231.0</ele><time>2026-05-03T09:46:07.999Z</time></trkpt><trkpt lat="42.203560970725654" lon="13.88829831034217"><ele>231.0</ele><time>2026-05-03T09:46:08.999Z</time></trkpt><trkpt lat="42.20361274147596" lon="13.888354836695772"><ele>231.0</ele><time>2026-05-03T09:46:09.999Z</time></trkpt><trkpt lat="42.20366440853735" lon="13.888410817297073"><ele>231.0</ele><time>2026-05-03T09:46:10.999Z</time></trkpt><trkpt lat="42.203718304564774" lon="13.888472760238756"><ele>231.0</ele><time>2026-05-03T09:46:11.999Z</time></trkpt><trkpt lat="42.2038007167051" lon="13.888572708643853"><ele>233.0</ele><time>2026-05-03T09:46:12.999Z</time></trkpt><trkpt lat="42.20385802350989" lon="13.888654754938075"><ele>235.0</ele><time>2026-05-03T09:46:13.999Z</time></trkpt><trkpt lat="42.203906135596405" lon="13.888728080957128"><ele>237.0</ele><time>2026-05-03T09:46:14.999Z</time></trkpt><trkpt lat="42.203969058275476" lon="13.888830762956308"><ele>239.0</ele><time>2026-05-03T09:46:16.999Z</time></trkpt><trkpt lat="42.20402309963667" lon="13.888923080837486"><ele>241.0</ele><time>2026-05-03T09:46:18.999Z</time></trkpt><trkpt lat="42.20406131707409" lon="13.888995595447977"><ele>243.0</ele><time>2026-05-03T09:46:19.999Z</time></trkpt><trkpt lat="42.20411529065229" lon="13.88910589439107"><ele>237.25</ele><time>2026-05-03T09:46:20.999Z</time></trkpt><trkpt lat="42.204173785352154" lon="13.889237474192038"><ele>231.5</ele><time>2026-05-03T09:46:21.999Z</time></trkpt><trkpt lat="42.204232062196766" lon="13.88938295953871"><ele>225.75</ele><time>2026-05-03T09:46:22.999Z</time></trkpt><trkpt lat="42.204285171244315" lon="13.889535242966245"><ele>220.0</ele><time>2026-05-03T09:46:23.999Z</time></trkpt><trkpt lat="42.204330358302975" lon="13.889686755926936"><ele>220.0</ele><time>2026-05-03T09:46:24.999Z</time></trkpt><trkpt lat="42.20436603832591" lon="13.889806797172566"><ele>220.0</ele><time>2026-05-03T09:46:25.999Z</time></trkpt><trkpt lat="42.20439678667409" lon="13.88991024627287"><ele>220.0</ele><time>2026-05-03T09:46:26.999Z</time></trkpt><trkpt lat="42.204427795667996" lon="13.890014572152076"><ele>220.0</ele><time>2026-05-03T09:46:28.999Z</time></trkpt><trkpt lat="42.204470349208385" lon="13.890158121490877"><ele>220.0</ele><time>2026-05-03T09:46:30.999Z</time></trkpt><trkpt lat="42.204498420895156" lon="13.89025302350974"><ele>221.6</ele><time>2026-05-03T09:46:31.999Z</time></trkpt><trkpt lat="42.204541637877995" lon="13.890399127466852"><ele>223.2</ele><time>2026-05-03T09:46:32.999Z</time></trkpt><trkpt lat="42.20457604746505" lon="13.890508655403012"><ele>224.8</ele><time>2026-05-03T09:46:33.999Z</time></trkpt><trkpt lat="42.20461897095147" lon="13.89063640071564"><ele>226.4</ele><time>2026-05-03T09:46:34.999Z</time></trkpt><trkpt lat="42.204668479881406" lon="13.890777858781725"><ele>228.0</ele><time>2026-05-03T09:46:36Z</time></trkpt><trkpt lat="42.20473943440333" lon="13.890880542404608"><ele>227.60000000000002</ele><time>2026-05-03T09:46:37Z</time></trkpt><trkpt lat="42.20481084789236" lon="13.890989051155904"><ele>227.20000000000002</ele><time>2026-05-03T09:46:38Z</time></trkpt><trkpt lat="42.2048877192648" lon="13.891097490756607"><ele>226.8</ele><time>2026-05-03T09:46:39Z</time></trkpt><trkpt lat="42.204974552986634" lon="13.891197945064967"><ele>226.4</ele><time>2026-05-03T09:46:40Z</time></trkpt><trkpt lat="42.20501424575005" lon="13.891278016628396"><ele>226.0</ele><time>2026-05-03T09:46:41Z</time></trkpt><trkpt lat="42.20508101988047" lon="13.891336252570374"><ele>225.99999999999997</ele><time>2026-05-03T09:46:42Z</time></trkpt><trkpt lat="42.20514238156513" lon="13.891415965373376"><ele>226.0</ele><time>2026-05-03T09:46:43Z</time></trkpt><trkpt lat="42.20519674470846" lon="13.89148640200131"><ele>226.0</ele><time>2026-05-03T09:46:44Z</time></trkpt><trkpt lat="42.20524461201493" lon="13.891548368754481"><ele>226.0</ele><time>2026-05-03T09:46:45Z</time></trkpt><trkpt lat="42.205304461895466" lon="13.891625847513698"><ele>225.99999999999997</ele><time>2026-05-03T09:46:46Z</time></trkpt><trkpt lat="42.2053406819698" lon="13.891732321594152"><ele>226.0</ele><time>2026-05-03T09:46:47Z</time></trkpt><trkpt lat="42.20540751632396" lon="13.891827475778628"><ele>226.0</ele><time>2026-05-03T09:46:48Z</time></trkpt><trkpt lat="42.20548415230923" lon="13.891938658966367"><ele>226.00000000000003</ele><time>2026-05-03T09:46:49Z</time></trkpt><trkpt lat="42.20555303341774" lon="13.892038133387866"><ele>226.00000000000003</ele><time>2026-05-03T09:46:50Z</time></trkpt><trkpt lat="42.205622766545225" lon="13.89211898258142"><ele>226.0</ele><time>2026-05-03T09:46:51Z</time></trkpt><trkpt lat="42.20568225939884" lon="13.892207895504269"><ele>226.0</ele><time>2026-05-03T09:46:52Z</time></trkpt><trkpt lat="42.205742287240966" lon="13.892299186349792"><ele>226.0</ele><time>2026-05-03T09:46:53Z</time></trkpt><trkpt lat="42.20579772215902" lon="13.892371896573014"><ele>226.00000000000003</ele><time>2026-05-03T09:46:54Z</time></trkpt><trkpt lat="42.20586714365841" lon="13.892449462085873"><ele>226.00000000000003</ele><time>2026-05-03T09:46:55Z</time></trkpt><trkpt lat="42.20592925069966" lon="13.89253292135498"><ele>226.0</ele><time>2026-05-03T09:46:56Z</time></trkpt><trkpt lat="42.20600166455891" lon="13.892631544841539"><ele>226.0</ele><time>2026-05-03T09:46:57Z</time></trkpt><trkpt lat="42.20608055389691" lon="13.892735204410707"><ele>229.4</ele><time>2026-05-03T09:46:58Z</time></trkpt><trkpt lat="42.20615612559987" lon="13.892859560505173"><ele>232.8</ele><time>2026-05-03T09:46:59Z</time></trkpt><trkpt lat="42.206226316716304" lon="13.89295147069015"><ele>236.20000000000002</ele><time>2026-05-03T09:47:00Z</time></trkpt><trkpt lat="42.206300435531155" lon="13.893052675606707"><ele>239.60000000000002</ele><time>2026-05-03T09:47:01Z</time></trkpt><trkpt lat="42.20638582274988" lon="13.893160411884553"><ele>243.0</ele><time>2026-05-03T09:47:02Z</time></trkpt><trkpt lat="42.206444783283715" lon="13.893267753705999"><ele>241.83333333333334</ele><time>2026-05-03T09:47:03Z</time></trkpt><trkpt lat="42.20649810516239" lon="13.89336017353435"><ele>240.66666666666669</ele><time>2026-05-03T09:47:04Z</time></trkpt><trkpt lat="42.206547444420586" lon="13.893420810936842"><ele>239.5</ele><time>2026-05-03T09:47:05Z</time></trkpt><trkpt lat="42.20663572310778" lon="13.89353249725331"><ele>238.33333333333334</ele><time>2026-05-03T09:47:07Z</time></trkpt><trkpt lat="42.206671216735906" lon="13.89361510075786"><ele>237.16666666666669</ele><time>2026-05-03T09:47:08Z</time></trkpt><trkpt lat="42.20672998219817" lon="13.893691751223708"><ele>236.0</ele><time>2026-05-03T09:47:09Z</time></trkpt><trkpt lat="42.20681405683564" lon="13.893790058825214"><ele>236.0</ele><time>2026-05-03T09:47:10Z</time></trkpt><trkpt lat="42.20689663414387" lon="13.893907635203831"><ele>236.00000000000003</ele><time>2026-05-03T09:47:11Z</time></trkpt><trkpt lat="42.20696426351131" lon="13.894023326175706"><ele>236.00000000000003</ele><time>2026-05-03T09:47:12Z</time></trkpt><trkpt lat="42.20703408478205" lon="13.894142714124742"><ele>236.0</ele><time>2026-05-03T09:47:13Z</time></trkpt><trkpt lat="42.2071035062238" lon="13.894246741287924"><ele>236.0</ele><time>2026-05-03T09:47:14Z</time></trkpt><trkpt lat="42.20719316617163" lon="13.894379316208305"><ele>236.8</ele><time>2026-05-03T09:47:15Z</time></trkpt><trkpt lat="42.207273858497864" lon="13.89447630604892"><ele>237.60000000000002</ele><time>2026-05-03T09:47:16Z</time></trkpt><trkpt lat="42.20733370706194" lon="13.894546731451364"><ele>238.4</ele><time>2026-05-03T09:47:17Z</time></trkpt><trkpt lat="42.20738567387087" lon="13.894646051627822"><ele>239.2</ele><time>2026-05-03T09:47:18Z</time></trkpt><trkpt lat="42.207438295010036" lon="13.894752530544885"><ele>240.0</ele><time>2026-05-03T09:47:19Z</time></trkpt><trkpt lat="42.20750727891865" lon="13.894861023983113"><ele>238.2</ele><time>2026-05-03T09:47:20Z</time></trkpt><trkpt lat="42.20758332644889" lon="13.894968653892807"><ele>236.4</ele><time>2026-05-03T09:47:21Z</time></trkpt><trkpt lat="42.20766410790947" lon="13.895094298202348"><ele>234.60000000000002</ele><time>2026-05-03T09:47:22Z</time></trkpt><trkpt lat="42.20771715465273" lon="13.895195306067057"><ele>232.8</ele><time>2026-05-03T09:47:23Z</time></trkpt><trkpt lat="42.207717353782236" lon="13.895284794246061"><ele>231.0</ele><time>2026-05-03T09:47:27Z</time></trkpt><trkpt lat="42.20779845758875" lon="13.895368698888618"><ele>231.0</ele><time>2026-05-03T09:47:33Z</time></trkpt><trkpt lat="42.20790796085938" lon="13.89544650909353"><ele>231.00000000000003</ele><time>2026-05-03T09:47:35Z</time></trkpt><trkpt lat="42.20796281504748" lon="13.895533733007804"><ele>231.00000000000003</ele><time>2026-05-03T09:47:36Z</time></trkpt><trkpt lat="42.20803312073185" lon="13.89564538514438"><ele>231.0</ele><time>2026-05-03T09:47:37Z</time></trkpt><trkpt lat="42.20810551266963" lon="13.89574946873894"><ele>231.0</ele><time>2026-05-03T09:47:38Z</time></trkpt><trkpt lat="42.20816974032426" lon="13.895868939136491"><ele>230.8</ele><time>2026-05-03T09:47:39Z</time></trkpt><trkpt lat="42.20824116745251" lon="13.89597164304297"><ele>230.60000000000002</ele><time>2026-05-03T09:47:40Z</time></trkpt><trkpt lat="42.20831907085119" lon="13.896065893387682"><ele>230.4</ele><time>2026-05-03T09:47:41Z</time></trkpt><trkpt lat="42.20839214932053" lon="13.896180080091527"><ele>230.2</ele><time>2026-05-03T09:47:42Z</time></trkpt><trkpt lat="42.20846129049555" lon="13.896280228165677"><ele>230.0</ele><time>2026-05-03T09:47:43Z</time></trkpt><trkpt lat="42.208542866308534" lon="13.896354614472395"><ele>230.0</ele><time>2026-05-03T09:47:43.999Z</time></trkpt><trkpt lat="42.208611250025946" lon="13.896417253796686"><ele>230.0</ele><time>2026-05-03T09:47:44.999Z</time></trkpt><trkpt lat="42.20869496901676" lon="13.896585924304455"><ele>230.0</ele><time>2026-05-03T09:47:46.999Z</time></trkpt><trkpt lat="42.20874467716676" lon="13.89667890522927"><ele>230.0</ele><time>2026-05-03T09:47:47.999Z</time></trkpt><trkpt lat="42.20881250344658" lon="13.896787366564995"><ele>230.0</ele><time>2026-05-03T09:47:48.999Z</time></trkpt><trkpt lat="42.208891309180835" lon="13.896913750163582"><ele>231.25</ele><time>2026-05-03T09:47:49.999Z</time></trkpt><trkpt lat="42.20896105197159" lon="13.897040533610816"><ele>232.5</ele><time>2026-05-03T09:47:50.999Z</time></trkpt><trkpt lat="42.20904327726387" lon="13.897153659885175"><ele>233.75</ele><time>2026-05-03T09:47:51.999Z</time></trkpt><trkpt lat="42.209130185437964" lon="13.897273150245924"><ele>235.0</ele><time>2026-05-03T09:47:52.999Z</time></trkpt><trkpt lat="42.20921462147064" lon="13.89740207462234"><ele>235.0</ele><time>2026-05-03T09:47:53.999Z</time></trkpt><trkpt lat="42.20931154324226" lon="13.897547618785573"><ele>235.0</ele><time>2026-05-03T09:47:54.999Z</time></trkpt><trkpt lat="42.20940883901707" lon="13.897698090581846"><ele>235.0</ele><time>2026-05-03T09:47:55.999Z</time></trkpt><trkpt lat="42.20948600156994" lon="13.89781977363767"><ele>235.0</ele><time>2026-05-03T09:47:56.999Z</time></trkpt><trkpt lat="42.20954834795364" lon="13.897914978780586"><ele>235.83333333333331</ele><time>2026-05-03T09:47:57.999Z</time></trkpt><trkpt lat="42.20959866661469" lon="13.898023457884774"><ele>236.66666666666666</ele><time>2026-05-03T09:47:58.999Z</time></trkpt><trkpt lat="42.2096270403619" lon="13.898129728581074"><ele>237.5</ele><time>2026-05-03T09:47:59.999Z</time></trkpt><trkpt lat="42.20964075617155" lon="13.898236494206957"><ele>238.33333333333331</ele><time>2026-05-03T09:48:00.999Z</time></trkpt><trkpt lat="42.2096837908393" lon="13.898331541027307"><ele>239.16666666666666</ele><time>2026-05-03T09:48:01.999Z</time></trkpt><trkpt lat="42.20975339382427" lon="13.898358758544093"><ele>240.0</ele><time>2026-05-03T09:48:02.999Z</time></trkpt><trkpt lat="42.20982498681742" lon="13.898348920575833"><ele>239.0</ele><time>2026-05-03T09:48:03.999Z</time></trkpt><trkpt lat="42.20990297509367" lon="13.898335463788156"><ele>238.0</ele><time>2026-05-03T09:48:04.999Z</time></trkpt><trkpt lat="42.20997477296658" lon="13.898442921595361"><ele>237.0</ele><time>2026-05-03T09:48:06.999Z</time></trkpt><trkpt lat="42.21002008026651" lon="13.89855895391018"><ele>236.0</ele><time>2026-05-03T09:48:07.999Z</time></trkpt><trkpt lat="42.210082034799726" lon="13.898679661068185"><ele>235.0</ele><time>2026-05-03T09:48:08.999Z</time></trkpt><trkpt lat="42.21014906573133" lon="13.89876971528029"><ele>235.0</ele><time>2026-05-03T09:48:09.999Z</time></trkpt><trkpt lat="42.210200396783485" lon="13.898854545850732"><ele>235.0</ele><time>2026-05-03T09:48:10.999Z</time></trkpt><trkpt lat="42.210274232297124" lon="13.898959998535606"><ele>235.0</ele><time>2026-05-03T09:48:11.999Z</time></trkpt><trkpt lat="42.21035570168873" lon="13.899061889681857"><ele>235.0</ele><time>2026-05-03T09:48:12.999Z</time></trkpt><trkpt lat="42.21042853200535" lon="13.899173233278557"><ele>235.0</ele><time>2026-05-03T09:48:13.999Z</time></trkpt><trkpt lat="42.21050541528631" lon="13.899301711907158"><ele>235.4</ele><time>2026-05-03T09:48:14.999Z</time></trkpt><trkpt lat="42.21055271227603" lon="13.899384349394765"><ele>235.8</ele><time>2026-05-03T09:48:15.999Z</time></trkpt><trkpt lat="42.210606596931264" lon="13.899523711659539"><ele>236.2</ele><time>2026-05-03T09:48:17.999Z</time></trkpt><trkpt lat="42.21065173418461" lon="13.89963151601977"><ele>236.6</ele><time>2026-05-03T09:48:19.999Z</time></trkpt><trkpt lat="42.21071597428351" lon="13.899754722345751"><ele>237.0</ele><time>2026-05-03T09:48:21.999Z</time></trkpt><trkpt lat="42.21075335181682" lon="13.899840283911612"><ele>234.8</ele><time>2026-05-03T09:48:22.999Z</time></trkpt><trkpt lat="42.21079899635229" lon="13.899924941960833"><ele>232.6</ele><time>2026-05-03T09:48:23.999Z</time></trkpt><trkpt lat="42.210850360729815" lon="13.900015919710002"><ele>230.40000000000003</ele><time>2026-05-03T09:48:24.999Z</time></trkpt><trkpt lat="42.21090381365531" lon="13.900103084820937"><ele>228.20000000000002</ele><time>2026-05-03T09:48:25.999Z</time></trkpt><trkpt lat="42.21098158411068" lon="13.900214513336408"><ele>226.0</ele><time>2026-05-03T09:48:26.999Z</time></trkpt><trkpt lat="42.21105419110152" lon="13.900312182775545"><ele>225.99999999999997</ele><time>2026-05-03T09:48:27.999Z</time></trkpt><trkpt lat="42.2111161986113" lon="13.900394532913518"><ele>226.0</ele><time>2026-05-03T09:48:28.999Z</time></trkpt><trkpt lat="42.21117624667234" lon="13.900493574342429"><ele>226.0</ele><time>2026-05-03T09:48:29.999Z</time></trkpt><trkpt lat="42.21121510156269" lon="13.900587918136965"><ele>226.0</ele><time>2026-05-03T09:48:30.999Z</time></trkpt><trkpt lat="42.21126080992543" lon="13.900662106724507"><ele>225.99999999999997</ele><time>2026-05-03T09:48:31.999Z</time></trkpt><trkpt lat="42.21136175046283" lon="13.900708155675616"><ele>226.0</ele><time>2026-05-03T09:48:33.999Z</time></trkpt><trkpt lat="42.211422630950395" lon="13.900676331910077"><ele>225.99999999999997</ele><time>2026-05-03T09:48:34.999Z</time></trkpt><trkpt lat="42.21148738614678" lon="13.900632477963516"><ele>226.0</ele><time>2026-05-03T09:48:35.999Z</time></trkpt><trkpt lat="42.21156728858084" lon="13.900619721430106"><ele>226.0</ele><time>2026-05-03T09:48:37.999Z</time></trkpt><trkpt lat="42.21159544686292" lon="13.900788476398544"><ele>226.0</ele><time>2026-05-03T09:48:39.999Z</time></trkpt><trkpt lat="42.21162118564951" lon="13.900896620840124"><ele>225.99999999999997</ele><time>2026-05-03T09:48:40.999Z</time></trkpt><trkpt lat="42.211636237952696" lon="13.900986987229695"><ele>226.0</ele><time>2026-05-03T09:48:41.998Z</time></trkpt><trkpt lat="42.211634619791724" lon="13.901079529710188"><ele>225.5</ele><time>2026-05-03T09:48:43.998Z</time></trkpt><trkpt lat="42.211646215465755" lon="13.90121036129333"><ele>225.0</ele><time>2026-05-03T09:48:46.998Z</time></trkpt><trkpt lat="42.211458792531495" lon="13.901316354918542"><ele>224.5</ele><time>2026-05-03T09:48:47.998Z</time></trkpt><trkpt lat="42.21148644388338" lon="13.90145377207813"><ele>224.0</ele><time>2026-05-03T09:48:49.998Z</time></trkpt><trkpt lat="42.211437831136585" lon="13.90151995853084"><ele>227.33333333333334</ele><time>2026-05-03T09:48:51.998Z</time></trkpt><trkpt lat="42.21134770742952" lon="13.901473978551296"><ele>230.66666666666669</ele><time>2026-05-03T09:48:53.998Z</time></trkpt><trkpt lat="42.211294582861626" lon="13.901413961885448"><ele>234.0</ele><time>2026-05-03T09:48:54.999Z</time></trkpt><trkpt lat="42.21118879084391" lon="13.901332048108584"><ele>237.33333333333331</ele><time>2026-05-03T09:48:56.999Z</time></trkpt><trkpt lat="42.21111898182116" lon="13.901324439738179"><ele>240.66666666666666</ele><time>2026-05-03T09:48:57.999Z</time></trkpt><trkpt lat="42.2110370247948" lon="13.901319232969346"><ele>244.0</ele><time>2026-05-03T09:48:58.999Z</time></trkpt><trkpt lat="42.21096048388669" lon="13.901320550529238"><ele>243.99999999999997</ele><time>2026-05-03T09:48:59.999Z</time></trkpt><trkpt lat="42.21085362724626" lon="13.901382747875042"><ele>244.0</ele><time>2026-05-03T09:49:01.999Z</time></trkpt><trkpt lat="42.21086213898997" lon="13.901483066059651"><ele>244.0</ele><time>2026-05-03T09:49:03.999Z</time></trkpt><trkpt lat="42.21089748931241" lon="13.901560353893334"><ele>244.0</ele><time>2026-05-03T09:49:05.999Z</time></trkpt><trkpt lat="42.21097594031284" lon="13.901651153366823"><ele>243.99999999999997</ele><time>2026-05-03T09:49:07.999Z</time></trkpt><trkpt lat="42.2110448997136" lon="13.901697483135885"><ele>244.0</ele><time>2026-05-03T09:49:08.999Z</time></trkpt><trkpt lat="42.211098404201834" lon="13.901748568862862"><ele>247.49999999999997</ele><time>2026-05-03T09:49:09.999Z</time></trkpt><trkpt lat="42.211133419918966" lon="13.90184925401472"><ele>251.0</ele><time>2026-05-03T09:49:11.999Z</time></trkpt><trkpt lat="42.21113568582885" lon="13.90198305976185"><ele>254.5</ele><time>2026-05-03T09:49:13.999Z</time></trkpt><trkpt lat="42.21107345909627" lon="13.902025501343745"><ele>258.0</ele><time>2026-05-03T09:49:15.999Z</time></trkpt><trkpt lat="42.21098169401574" lon="13.901956799569307"><ele>261.5</ele><time>2026-05-03T09:49:17.999Z</time></trkpt><trkpt lat="42.210937430265375" lon="13.901895569540521"><ele>265.0</ele><time>2026-05-03T09:49:18.999Z</time></trkpt><trkpt lat="42.2108858577041" lon="13.901833987655477"><ele>264.99999999999994</ele><time>2026-05-03T09:49:19.999Z</time></trkpt><trkpt lat="42.210834042508864" lon="13.90177171935734"><ele>265.0</ele><time>2026-05-03T09:49:20.999Z</time></trkpt><trkpt lat="42.210751920323865" lon="13.901763928143689"><ele>265.0</ele><time>2026-05-03T09:49:22.999Z</time></trkpt><trkpt lat="42.210716606625084" lon="13.901869379033673"><ele>265.0</ele><time>2026-05-03T09:49:24.999Z</time></trkpt><trkpt lat="42.210767874967075" lon="13.901921164826696"><ele>265.0</ele><time>2026-05-03T09:49:28.999Z</time></trkpt><trkpt lat="42.21081627836542" lon="13.901982131205074"><ele>264.99999999999994</ele><time>2026-05-03T09:49:29.999Z</time></trkpt><trkpt lat="42.21087133867097" lon="13.90205141620711"><ele>265.0</ele><time>2026-05-03T09:49:30.999Z</time></trkpt><trkpt lat="42.210907206275145" lon="13.902160433739871"><ele>265.0</ele><time>2026-05-03T09:49:32.999Z</time></trkpt><trkpt lat="42.21093039069249" lon="13.902327767805156"><ele>265.0</ele><time>2026-05-03T09:49:34.999Z</time></trkpt><trkpt lat="42.21094734869973" lon="13.902553630714545"><ele>265.0</ele><time>2026-05-03T09:49:36.999Z</time></trkpt><trkpt lat="42.21094740218375" lon="13.90266933143745"><ele>265.0</ele><time>2026-05-03T09:49:37.999Z</time></trkpt><trkpt lat="42.21094232680711" lon="13.902781711291222"><ele>267.66666666666663</ele><time>2026-05-03T09:49:38.999Z</time></trkpt><trkpt lat="42.21093150380935" lon="13.902872265096404"><ele>270.3333333333333</ele><time>2026-05-03T09:49:39.999Z</time></trkpt><trkpt lat="42.210938819780786" lon="13.902964982139071"><ele>273.0</ele><time>2026-05-03T09:49:40.999Z</time></trkpt><trkpt lat="42.2109733371328" lon="13.903113910512468"><ele>275.6666666666667</ele><time>2026-05-03T09:49:42.999Z</time></trkpt><trkpt lat="42.21099677068399" lon="13.90319921956821"><ele>278.33333333333337</ele><time>2026-05-03T09:49:43.999Z</time></trkpt><trkpt lat="42.21103775583529" lon="13.903300227765952"><ele>281.0</ele><time>2026-05-03T09:49:44.999Z</time></trkpt><trkpt lat="42.21108745937049" lon="13.903416056463396"><ele>284.0</ele><time>2026-05-03T09:49:45.999Z</time></trkpt><trkpt lat="42.211129144684875" lon="13.903558884728193"><ele>287.0</ele><time>2026-05-03T09:49:46.999Z</time></trkpt><trkpt lat="42.2111632650234" lon="13.90371560437566"><ele>290.0</ele><time>2026-05-03T09:49:47.999Z</time></trkpt><trkpt lat="42.211194766280116" lon="13.903910049753867"><ele>293.0</ele><time>2026-05-03T09:49:48.999Z</time></trkpt><trkpt lat="42.2112323405328" lon="13.904109545992506"><ele>296.0</ele><time>2026-05-03T09:49:49.999Z</time></trkpt><trkpt lat="42.21126964119583" lon="13.904303190234334"><ele>299.0</ele><time>2026-05-03T09:49:50.999Z</time></trkpt><trkpt lat="42.21129622419004" lon="13.904497965075777"><ele>302.0</ele><time>2026-05-03T09:49:51.999Z</time></trkpt><trkpt lat="42.21133945516888" lon="13.904692305574638"><ele>305.0</ele><time>2026-05-03T09:49:52.999Z</time></trkpt><trkpt lat="42.211389705400975" lon="13.904901643613863"><ele>305.5</ele><time>2026-05-03T09:49:53.999Z</time></trkpt><trkpt lat="42.2114293081872" lon="13.90510164326176"><ele>306.0</ele><time>2026-05-03T09:49:54.999Z</time></trkpt><trkpt lat="42.21146044369912" lon="13.905247742587312"><ele>306.5</ele><time>2026-05-03T09:49:55.999Z</time></trkpt><trkpt lat="42.21147885158764" lon="13.905408245440732"><ele>307.0</ele><time>2026-05-03T09:49:56.999Z</time></trkpt><trkpt lat="42.21150033963955" lon="13.905569629257046"><ele>307.0</ele><time>2026-05-03T09:49:57.999Z</time></trkpt><trkpt lat="42.21153905679752" lon="13.905730712816085"><ele>307.0</ele><time>2026-05-03T09:49:58.999Z</time></trkpt><trkpt lat="42.21157354691858" lon="13.90588091379064"><ele>307.0</ele><time>2026-05-03T09:49:59.999Z</time></trkpt><trkpt lat="42.211610867047206" lon="13.90603860918054"><ele>307.0</ele><time>2026-05-03T09:50:00.999Z</time></trkpt><trkpt lat="42.21168009215249" lon="13.90622951459746"><ele>309.0</ele><time>2026-05-03T09:50:01.999Z</time></trkpt><trkpt lat="42.211739452358756" lon="13.906408651761042"><ele>311.0</ele><time>2026-05-03T09:50:02.999Z</time></trkpt><trkpt lat="42.211800562092314" lon="13.90656858942806"><ele>313.0</ele><time>2026-05-03T09:50:03.999Z</time></trkpt><trkpt lat="42.21178857630778" lon="13.906757845063861"><ele>315.0</ele><time>2026-05-03T09:50:04.999Z</time></trkpt><trkpt lat="42.211821662096135" lon="13.906875916592638"><ele>317.75</ele><time>2026-05-03T09:50:05.999Z</time></trkpt><trkpt lat="42.21186751370899" lon="13.907004843241895"><ele>320.5</ele><time>2026-05-03T09:50:06.999Z</time></trkpt><trkpt lat="42.21189880891993" lon="13.907154724072564"><ele>323.25</ele><time>2026-05-03T09:50:07.999Z</time></trkpt><trkpt lat="42.21194681012424" lon="13.907319461592415"><ele>326.0</ele><time>2026-05-03T09:50:08.999Z</time></trkpt><trkpt lat="42.21200400426029" lon="13.907475217447804"><ele>326.75</ele><time>2026-05-03T09:50:09.999Z</time></trkpt><trkpt lat="42.21205146868502" lon="13.907627494472628"><ele>327.5</ele><time>2026-05-03T09:50:10.999Z</time></trkpt><trkpt lat="42.212076206180384" lon="13.907791525399308"><ele>328.25</ele><time>2026-05-03T09:50:11.999Z</time></trkpt><trkpt lat="42.21208818810927" lon="13.907971371676314"><ele>329.0</ele><time>2026-05-03T09:50:12.999Z</time></trkpt><trkpt lat="42.21210557114808" lon="13.908146777233217"><ele>329.0</ele><time>2026-05-03T09:50:13.999Z</time></trkpt><trkpt lat="42.21211463469715" lon="13.908310039665446"><ele>329.0</ele><time>2026-05-03T09:50:14.999Z</time></trkpt><trkpt lat="42.21212705662014" lon="13.908452338858279"><ele>329.0</ele><time>2026-05-03T09:50:15.999Z</time></trkpt><trkpt lat="42.21211848317441" lon="13.908593288382473"><ele>329.0</ele><time>2026-05-03T09:50:16.999Z</time></trkpt><trkpt lat="42.21209961671057" lon="13.908712957022145"><ele>329.0</ele><time>2026-05-03T09:50:17.999Z</time></trkpt><trkpt lat="42.21207981720766" lon="13.908850037409747"><ele>329.6</ele><time>2026-05-03T09:50:18.999Z</time></trkpt><trkpt lat="42.212053404899436" lon="13.908972403009788"><ele>330.2</ele><time>2026-05-03T09:50:19.999Z</time></trkpt><trkpt lat="42.21200548677952" lon="13.909087030150005"><ele>330.8</ele><time>2026-05-03T09:50:20.999Z</time></trkpt><trkpt lat="42.211934764737705" lon="13.909197840899166"><ele>331.40000000000003</ele><time>2026-05-03T09:50:21.999Z</time></trkpt><trkpt lat="42.211876136009415" lon="13.909317029814575"><ele>332.0</ele><time>2026-05-03T09:50:22.999Z</time></trkpt><trkpt lat="42.21180634892321" lon="13.909435166368088"><ele>332.6666666666667</ele><time>2026-05-03T09:50:23.999Z</time></trkpt><trkpt lat="42.21175084583959" lon="13.909532134266339"><ele>333.33333333333337</ele><time>2026-05-03T09:50:24.999Z</time></trkpt><trkpt lat="42.211724932660125" lon="13.909632883360821"><ele>334.0</ele><time>2026-05-03T09:50:25.999Z</time></trkpt><trkpt lat="42.21174783637547" lon="13.909760797049243"><ele>334.6666666666667</ele><time>2026-05-03T09:50:26.999Z</time></trkpt><trkpt lat="42.21175388961383" lon="13.909885093122355"><ele>335.3333333333333</ele><time>2026-05-03T09:50:27.999Z</time></trkpt><trkpt lat="42.21177048850085" lon="13.909967198792165"><ele>336.0</ele><time>2026-05-03T09:50:28.999Z</time></trkpt><trkpt lat="42.211779694431556" lon="13.910052173489737"><ele>336.0</ele><time>2026-05-03T09:50:29.999Z</time></trkpt><trkpt lat="42.21180355391927" lon="13.910157513262503"><ele>336.0</ele><time>2026-05-03T09:50:30.999Z</time></trkpt><trkpt lat="42.21182048486667" lon="13.910266808135239"><ele>336.0</ele><time>2026-05-03T09:50:31.999Z</time></trkpt><trkpt lat="42.211816285968176" lon="13.910383753177245"><ele>336.0</ele><time>2026-05-03T09:50:32.999Z</time></trkpt><trkpt lat="42.21182198371835" lon="13.910488294336274"><ele>336.0</ele><time>2026-05-03T09:50:33.999Z</time></trkpt><trkpt lat="42.2118253076238" lon="13.910584150289939"><ele>336.0</ele><time>2026-05-03T09:50:34.999Z</time></trkpt><trkpt lat="42.211819238627655" lon="13.910746194781245"><ele>336.0</ele><time>2026-05-03T09:50:36.999Z</time></trkpt><trkpt lat="42.211812114150064" lon="13.91092248083999"><ele>336.0</ele><time>2026-05-03T09:50:38.998Z</time></trkpt><trkpt lat="42.21179452962002" lon="13.91104138242497"><ele>336.0</ele><time>2026-05-03T09:50:39.998Z</time></trkpt><trkpt lat="42.211785684203534" lon="13.911181532865704"><ele>336.0</ele><time>2026-05-03T09:50:40.998Z</time></trkpt><trkpt lat="42.211773426348586" lon="13.911294956736011"><ele>336.0</ele><time>2026-05-03T09:50:41.998Z</time></trkpt><trkpt lat="42.21176446637276" lon="13.911406063859154"><ele>336.0</ele><time>2026-05-03T09:50:42.998Z</time></trkpt><trkpt lat="42.21176742907687" lon="13.911517071827523"><ele>336.0</ele><time>2026-05-03T09:50:43.998Z</time></trkpt><trkpt lat="42.211752134399795" lon="13.911640592997166"><ele>336.0</ele><time>2026-05-03T09:50:44.998Z</time></trkpt><trkpt lat="42.21175574996331" lon="13.91175847182238"><ele>336.0</ele><time>2026-05-03T09:50:45.998Z</time></trkpt><trkpt lat="42.21175659435056" lon="13.91186128845357"><ele>336.0</ele><time>2026-05-03T09:50:46.998Z</time></trkpt><trkpt lat="42.21180520019983" lon="13.911943545821613"><ele>336.0</ele><time>2026-05-03T09:50:47.997Z</time></trkpt><trkpt lat="42.21186286219623" lon="13.912007135117843"><ele>335.4</ele><time>2026-05-03T09:50:48.997Z</time></trkpt><trkpt lat="42.21195151341621" lon="13.911962489292634"><ele>334.8</ele><time>2026-05-03T09:50:51.997Z</time></trkpt><trkpt lat="42.212031015774514" lon="13.912005920403391"><ele>334.2</ele><time>2026-05-03T09:50:53.997Z</time></trkpt><trkpt lat="42.2121414311075" lon="13.912055007657003"><ele>333.59999999999997</ele><time>2026-05-03T09:50:56.998Z</time></trkpt><trkpt lat="42.21221553587075" lon="13.912093989036254"><ele>333.0</ele><time>2026-05-03T09:50:58.998Z</time></trkpt><trkpt lat="42.21225688884954" lon="13.912177556806679"><ele>333.0</ele><time>2026-05-03T09:51:00.998Z</time></trkpt><trkpt lat="42.21228971812453" lon="13.912276519237581"><ele>333.0</ele><time>2026-05-03T09:51:02.998Z</time></trkpt><trkpt lat="42.21238086137005" lon="13.912380515523916"><ele>333.0</ele><time>2026-05-03T09:51:04.998Z</time></trkpt><trkpt lat="42.21242773018111" lon="13.912464294186925"><ele>333.0</ele><time>2026-05-03T09:51:09.998Z</time></trkpt><trkpt lat="42.21239646546857" lon="13.912571264748003"><ele>333.0</ele><time>2026-05-03T09:51:13.998Z</time></trkpt><trkpt lat="42.21233387038071" lon="13.912587221386094"><ele>333.0</ele><time>2026-05-03T09:51:17.999Z</time></trkpt><trkpt lat="42.21235092144531" lon="13.912695629608624"><ele>333.5714285714286</ele><time>2026-05-03T09:51:22.999Z</time></trkpt><trkpt lat="42.21240967850836" lon="13.912731604570821"><ele>334.1428571428571</ele><time>2026-05-03T09:51:23.999Z</time></trkpt><trkpt lat="42.212472471628686" lon="13.912754810867037"><ele>334.7142857142857</ele><time>2026-05-03T09:51:24.999Z</time></trkpt><trkpt lat="42.212534788815894" lon="13.912797884152614"><ele>335.28571428571433</ele><time>2026-05-03T09:51:25.999Z</time></trkpt><trkpt lat="42.21260669245914" lon="13.9128445799265"><ele>335.8571428571429</ele><time>2026-05-03T09:51:26.999Z</time></trkpt><trkpt lat="42.21267421119356" lon="13.912904640110728"><ele>336.42857142857144</ele><time>2026-05-03T09:51:27.999Z</time></trkpt><trkpt lat="42.21273430661068" lon="13.912960237534913"><ele>337.0</ele><time>2026-05-03T09:51:28.999Z</time></trkpt><trkpt lat="42.21282467507767" lon="13.913033314750923"><ele>337.0</ele><time>2026-05-03T09:51:30.999Z</time></trkpt><trkpt lat="42.21288376696841" lon="13.91309657072823"><ele>337.0</ele><time>2026-05-03T09:51:33.999Z</time></trkpt><trkpt lat="42.21302690268356" lon="13.91317766477705"><ele>337.0</ele><time>2026-05-03T09:51:35.999Z</time></trkpt><trkpt lat="42.21311562572285" lon="13.913214105175477"><ele>337.0</ele><time>2026-05-03T09:51:36.999Z</time></trkpt><trkpt lat="42.2132258379945" lon="13.913207966556232"><ele>337.0</ele><time>2026-05-03T09:51:37.999Z</time></trkpt><trkpt lat="42.213335864376035" lon="13.91324016477632"><ele>338.0</ele><time>2026-05-03T09:51:38.999Z</time></trkpt><trkpt lat="42.21344779530869" lon="13.91329366535043"><ele>339.0</ele><time>2026-05-03T09:51:39.999Z</time></trkpt><trkpt lat="42.21357230360771" lon="13.913340088350143"><ele>340.0</ele><time>2026-05-03T09:51:40.999Z</time></trkpt><trkpt lat="42.21369502996059" lon="13.913367673035562"><ele>341.0</ele><time>2026-05-03T09:51:41.999Z</time></trkpt><trkpt lat="42.21382258304051" lon="13.913385935609579"><ele>341.0</ele><time>2026-05-03T09:51:42.999Z</time></trkpt><trkpt lat="42.213944158177284" lon="13.913389502557346"><ele>341.0</ele><time>2026-05-03T09:51:43.999Z</time></trkpt><trkpt lat="42.214053322252425" lon="13.913354546714453"><ele>341.0</ele><time>2026-05-03T09:51:44.999Z</time></trkpt><trkpt lat="42.214155164759575" lon="13.91334442992758"><ele>341.0</ele><time>2026-05-03T09:51:45.999Z</time></trkpt><trkpt lat="42.21424746109709" lon="13.91333729204059"><ele>341.0</ele><time>2026-05-03T09:51:46.999Z</time></trkpt><trkpt lat="42.214336843216486" lon="13.913306330153814"><ele>341.4</ele><time>2026-05-03T09:51:47.999Z</time></trkpt><trkpt lat="42.21442704160186" lon="13.91324097077424"><ele>341.8</ele><time>2026-05-03T09:51:48.999Z</time></trkpt><trkpt lat="42.21451024827423" lon="13.913197619840545"><ele>342.2</ele><time>2026-05-03T09:51:49.999Z</time></trkpt><trkpt lat="42.21459401329312" lon="13.913159829698154"><ele>342.59999999999997</ele><time>2026-05-03T09:51:50.999Z</time></trkpt><trkpt lat="42.214689378919495" lon="13.91315330919727"><ele>343.0</ele><time>2026-05-03T09:51:51.999Z</time></trkpt><trkpt lat="42.21478998665526" lon="13.913125583619296"><ele>342.2</ele><time>2026-05-03T09:51:52.999Z</time></trkpt><trkpt lat="42.21487212909038" lon="13.913096750644458"><ele>341.4</ele><time>2026-05-03T09:51:53.999Z</time></trkpt><trkpt lat="42.21495827546744" lon="13.913156971962279"><ele>340.59999999999997</ele><time>2026-05-03T09:51:54.999Z</time></trkpt><trkpt lat="42.21506762672968" lon="13.913263309408554"><ele>339.79999999999995</ele><time>2026-05-03T09:51:55.999Z</time></trkpt><trkpt lat="42.21518133972816" lon="13.913345315334631"><ele>339.0</ele><time>2026-05-03T09:51:56.999Z</time></trkpt><trkpt lat="42.21527434999037" lon="13.91340781875816"><ele>338.6</ele><time>2026-05-03T09:51:57.999Z</time></trkpt><trkpt lat="42.21536460089276" lon="13.913473084265405"><ele>338.2</ele><time>2026-05-03T09:51:58.999Z</time></trkpt><trkpt lat="42.215446613352924" lon="13.913536371236756"><ele>337.8</ele><time>2026-05-03T09:51:59.999Z</time></trkpt><trkpt lat="42.21554097377253" lon="13.913599826846836"><ele>337.40000000000003</ele><time>2026-05-03T09:52:00.999Z</time></trkpt><trkpt lat="42.21564099826582" lon="13.913672809698474"><ele>337.0</ele><time>2026-05-03T09:52:01.999Z</time></trkpt><trkpt lat="42.2157388606887" lon="13.913747026137157"><ele>336.6</ele><time>2026-05-03T09:52:02.999Z</time></trkpt><trkpt lat="42.2158416148268" lon="13.913819638535763"><ele>336.20000000000005</ele><time>2026-05-03T09:52:03.999Z</time></trkpt><trkpt lat="42.21594874668631" lon="13.913888953558013"><ele>335.8</ele><time>2026-05-03T09:52:04.999Z</time></trkpt><trkpt lat="42.21604350699885" lon="13.913958799098298"><ele>335.4</ele><time>2026-05-03T09:52:05.999Z</time></trkpt><trkpt lat="42.216122717692556" lon="13.914009106348955"><ele>335.0</ele><time>2026-05-03T09:52:06.999Z</time></trkpt><trkpt lat="42.2161735803669" lon="13.914063905642147"><ele>335.0</ele><time>2026-05-03T09:52:07.999Z</time></trkpt><trkpt lat="42.216136366232874" lon="13.914195792567147"><ele>335.0</ele><time>2026-05-03T09:52:10.999Z</time></trkpt><trkpt lat="42.21609107492216" lon="13.914308826522504"><ele>335.0</ele><time>2026-05-03T09:52:11.999Z</time></trkpt><trkpt lat="42.216046474709145" lon="13.91440644275048"><ele>335.0</ele><time>2026-05-03T09:52:12.999Z</time></trkpt><trkpt lat="42.21598082260827" lon="13.914500046972726"><ele>335.0</ele><time>2026-05-03T09:52:13.999Z</time></trkpt><trkpt lat="42.21586815229724" lon="13.91454156312175"><ele>334.25</ele><time>2026-05-03T09:52:14.999Z</time></trkpt><trkpt lat="42.21576475020494" lon="13.914633350627266"><ele>333.5</ele><time>2026-05-03T09:52:15.999Z</time></trkpt><trkpt lat="42.21566007864087" lon="13.914702742940905"><ele>332.75</ele><time>2026-05-03T09:52:16.999Z</time></trkpt><trkpt lat="42.215557439123046" lon="13.914774328552998"><ele>332.0</ele><time>2026-05-03T09:52:17.999Z</time></trkpt><trkpt lat="42.21545121624814" lon="13.91484430715394"><ele>332.0</ele><time>2026-05-03T09:52:18.999Z</time></trkpt><trkpt lat="42.215342105068196" lon="13.914875843566623"><ele>332.0</ele><time>2026-05-03T09:52:19.999Z</time></trkpt><trkpt lat="42.21525527800493" lon="13.914936931041407"><ele>332.0</ele><time>2026-05-03T09:52:20.999Z</time></trkpt><trkpt lat="42.21517101543402" lon="13.914966654647902"><ele>332.0</ele><time>2026-05-03T09:52:21.999Z</time></trkpt><trkpt lat="42.215074854162566" lon="13.915004603995408"><ele>332.0</ele><time>2026-05-03T09:52:23.999Z</time></trkpt><trkpt lat="42.21490535645527" lon="13.915242808353847"><ele>330.25</ele><time>2026-05-03T09:52:26.999Z</time></trkpt><trkpt lat="42.214796957058" lon="13.915344385706979"><ele>328.5</ele><time>2026-05-03T09:52:27.999Z</time></trkpt><trkpt lat="42.2146731765699" lon="13.915421594045707"><ele>326.75</ele><time>2026-05-03T09:52:28.999Z</time></trkpt><trkpt lat="42.21457572556077" lon="13.915510472083843"><ele>325.0</ele><time>2026-05-03T09:52:29.999Z</time></trkpt><trkpt lat="42.21446879730109" lon="13.915582925571233"><ele>325.0</ele><time>2026-05-03T09:52:30.999Z</time></trkpt><trkpt lat="42.214364120694064" lon="13.915671168734228"><ele>325.0</ele><time>2026-05-03T09:52:31.999Z</time></trkpt><trkpt lat="42.214257666918535" lon="13.915803641620567"><ele>325.0</ele><time>2026-05-03T09:52:32.999Z</time></trkpt><trkpt lat="42.214146266314394" lon="13.915937162746731"><ele>325.0</ele><time>2026-05-03T09:52:33.999Z</time></trkpt><trkpt lat="42.214036154143066" lon="13.916075118407589"><ele>323.5</ele><time>2026-05-03T09:52:34.999Z</time></trkpt><trkpt lat="42.21391889566237" lon="13.91619836065462"><ele>322.0</ele><time>2026-05-03T09:52:35.999Z</time></trkpt><trkpt lat="42.21379939337962" lon="13.91628738766521"><ele>320.5</ele><time>2026-05-03T09:52:36.999Z</time></trkpt><trkpt lat="42.21367672536488" lon="13.916357915600445"><ele>319.0</ele><time>2026-05-03T09:52:37.999Z</time></trkpt><trkpt lat="42.21356739784733" lon="13.91644246106507"><ele>319.0</ele><time>2026-05-03T09:52:38.999Z</time></trkpt><trkpt lat="42.21348554630139" lon="13.916561291540143"><ele>319.0</ele><time>2026-05-03T09:52:39.999Z</time></trkpt><trkpt lat="42.213437089435565" lon="13.91670443084279"><ele>319.0</ele><time>2026-05-03T09:52:40.999Z</time></trkpt><trkpt lat="42.21341984346688" lon="13.91686372705469"><ele>319.0</ele><time>2026-05-03T09:52:41.999Z</time></trkpt><trkpt lat="42.21343075713199" lon="13.917044440577115"><ele>319.5</ele><time>2026-05-03T09:52:42.999Z</time></trkpt><trkpt lat="42.21344994137538" lon="13.917239537967642"><ele>320.0</ele><time>2026-05-03T09:52:43.999Z</time></trkpt><trkpt lat="42.213471143896044" lon="13.917429426183833"><ele>320.5</ele><time>2026-05-03T09:52:44.999Z</time></trkpt><trkpt lat="42.21348096300735" lon="13.917607988710799"><ele>321.0</ele><time>2026-05-03T09:52:45.999Z</time></trkpt><trkpt lat="42.21347166654361" lon="13.917753120648124"><ele>321.8</ele><time>2026-05-03T09:52:46.999Z</time></trkpt><trkpt lat="42.213451226424276" lon="13.917878999374988"><ele>322.6</ele><time>2026-05-03T09:52:47.999Z</time></trkpt><trkpt lat="42.213441000021" lon="13.917964294474936"><ele>323.4</ele><time>2026-05-03T09:52:48.999Z</time></trkpt><trkpt lat="42.21342658697036" lon="13.918086409525634"><ele>324.2</ele><time>2026-05-03T09:52:50.999Z</time></trkpt><trkpt lat="42.2135279225853" lon="13.918181406939114"><ele>325.0</ele><time>2026-05-03T09:52:52.999Z</time></trkpt><trkpt lat="42.213629378662915" lon="13.918204896605866"><ele>325.0</ele><time>2026-05-03T09:52:53.997Z</time></trkpt><trkpt lat="42.21372268940187" lon="13.918255404522066"><ele>325.0</ele><time>2026-05-03T09:52:54.997Z</time></trkpt><trkpt lat="42.21378999532562" lon="13.918375071672058"><ele>325.0</ele><time>2026-05-03T09:52:55.997Z</time></trkpt><trkpt lat="42.213874444148885" lon="13.91847089303583"><ele>325.0</ele><time>2026-05-03T09:52:56.997Z</time></trkpt><trkpt lat="42.21393676546278" lon="13.918579025726704"><ele>325.0</ele><time>2026-05-03T09:52:57.997Z</time></trkpt><trkpt lat="42.213989187830116" lon="13.918673672956382"><ele>324.8</ele><time>2026-05-03T09:52:58.997Z</time></trkpt><trkpt lat="42.21405026525914" lon="13.918762641502422"><ele>324.6</ele><time>2026-05-03T09:52:59.997Z</time></trkpt><trkpt lat="42.21411014066411" lon="13.918846304290192"><ele>324.4</ele><time>2026-05-03T09:53:00.997Z</time></trkpt><trkpt lat="42.21418974607532" lon="13.918941132578802"><ele>324.2</ele><time>2026-05-03T09:53:01.997Z</time></trkpt><trkpt lat="42.21428270383676" lon="13.919038816099446"><ele>324.0</ele><time>2026-05-03T09:53:02.997Z</time></trkpt><trkpt lat="42.214384363079475" lon="13.919143432925278"><ele>323.75</ele><time>2026-05-03T09:53:03.997Z</time></trkpt><trkpt lat="42.21450413489378" lon="13.919251322395072"><ele>323.5</ele><time>2026-05-03T09:53:04.998Z</time></trkpt><trkpt lat="42.214626602091684" lon="13.91934992399914"><ele>323.25</ele><time>2026-05-03T09:53:05.998Z</time></trkpt><trkpt lat="42.214753221958624" lon="13.919447547882884"><ele>323.0</ele><time>2026-05-03T09:53:06.998Z</time></trkpt><trkpt lat="42.21487808015563" lon="13.919535581234564"><ele>323.0</ele><time>2026-05-03T09:53:07.998Z</time></trkpt><trkpt lat="42.21500999164525" lon="13.919636420502142"><ele>323.0</ele><time>2026-05-03T09:53:08.998Z</time></trkpt><trkpt lat="42.215147152148255" lon="13.919752884846597"><ele>323.0</ele><time>2026-05-03T09:53:09.998Z</time></trkpt><trkpt lat="42.21528013484496" lon="13.919884426511057"><ele>323.0</ele><time>2026-05-03T09:53:10.998Z</time></trkpt><trkpt lat="42.215413294725536" lon="13.920020481128878"><ele>323.0</ele><time>2026-05-03T09:53:11.998Z</time></trkpt><trkpt lat="42.21554745800996" lon="13.920156084095517"><ele>323.0</ele><time>2026-05-03T09:53:12.998Z</time></trkpt><trkpt lat="42.21567728886039" lon="13.92028636765142"><ele>322.0</ele><time>2026-05-03T09:53:13.998Z</time></trkpt><trkpt lat="42.21580721294088" lon="13.920424186884615"><ele>321.0</ele><time>2026-05-03T09:53:14.998Z</time></trkpt><trkpt lat="42.21591929000591" lon="13.920552866462302"><ele>320.0</ele><time>2026-05-03T09:53:15.998Z</time></trkpt><trkpt lat="42.21604187680548" lon="13.920690689354355"><ele>320.0</ele><time>2026-05-03T09:53:16.998Z</time></trkpt><trkpt lat="42.21616152346136" lon="13.920829300404344"><ele>320.0</ele><time>2026-05-03T09:53:17.998Z</time></trkpt><trkpt lat="42.216263724084676" lon="13.920970496785923"><ele>320.0</ele><time>2026-05-03T09:53:18.998Z</time></trkpt><trkpt lat="42.21635941608712" lon="13.921120797305237"><ele>319.75</ele><time>2026-05-03T09:53:19.998Z</time></trkpt><trkpt lat="42.216450329489284" lon="13.921267377791223"><ele>319.5</ele><time>2026-05-03T09:53:20.998Z</time></trkpt><trkpt lat="42.21654906376236" lon="13.921408235002142"><ele>319.25</ele><time>2026-05-03T09:53:21.998Z</time></trkpt><trkpt lat="42.216642744864764" lon="13.92153092695062"><ele>319.0</ele><time>2026-05-03T09:53:22.998Z</time></trkpt><trkpt lat="42.21673463727982" lon="13.921634868322444"><ele>318.5</ele><time>2026-05-03T09:53:23.999Z</time></trkpt><trkpt lat="42.21683477852891" lon="13.92174212202281"><ele>318.0</ele><time>2026-05-03T09:53:24.999Z</time></trkpt><trkpt lat="42.21692678320894" lon="13.92185236379448"><ele>317.5</ele><time>2026-05-03T09:53:25.999Z</time></trkpt><trkpt lat="42.2169974187123" lon="13.9219660127185"><ele>317.0</ele><time>2026-05-03T09:53:26.999Z</time></trkpt><trkpt lat="42.21704835397017" lon="13.922072649418151"><ele>317.0</ele><time>2026-05-03T09:53:27.999Z</time></trkpt><trkpt lat="42.21708031922577" lon="13.92215661578598"><ele>317.0</ele><time>2026-05-03T09:53:28.999Z</time></trkpt><trkpt lat="42.21710771438572" lon="13.922253267874737"><ele>317.0</ele><time>2026-05-03T09:53:29.999Z</time></trkpt><trkpt lat="42.21714801912413" lon="13.922384135940703"><ele>317.0</ele><time>2026-05-03T09:53:30.999Z</time></trkpt><trkpt lat="42.217196080337" lon="13.922532549939566"><ele>317.0</ele><time>2026-05-03T09:53:31.999Z</time></trkpt><trkpt lat="42.217237991325874" lon="13.922677278981084"><ele>316.2</ele><time>2026-05-03T09:53:32.999Z</time></trkpt><trkpt lat="42.21726709831439" lon="13.922785500177321"><ele>315.4</ele><time>2026-05-03T09:53:33.999Z</time></trkpt><trkpt lat="42.217297725350456" lon="13.922895315079796"><ele>314.6</ele><time>2026-05-03T09:53:44.999Z</time></trkpt><trkpt lat="42.21726749995416" lon="13.922813666901236"><ele>313.8</ele><time>2026-05-03T09:54:35.999Z</time></trkpt><trkpt lat="42.21730226313159" lon="13.922994854440189"><ele>313.0</ele><time>2026-05-03T09:54:38.999Z</time></trkpt><trkpt lat="42.21735973777449" lon="13.923092143762426"><ele>312.6</ele><time>2026-05-03T09:54:39.999Z</time></trkpt><trkpt lat="42.21741590909741" lon="13.92319402838038"><ele>312.20000000000005</ele><time>2026-05-03T09:54:40.999Z</time></trkpt><trkpt lat="42.21744722303747" lon="13.923302898402415"><ele>311.8</ele><time>2026-05-03T09:54:41.999Z</time></trkpt><trkpt lat="42.21756600105095" lon="13.923341426190943"><ele>311.40000000000003</ele><time>2026-05-03T09:54:42.999Z</time></trkpt><trkpt lat="42.21763684063158" lon="13.923382970677908"><ele>311.0</ele><time>2026-05-03T09:54:43.999Z</time></trkpt><trkpt lat="42.21771704245543" lon="13.923446342384945"><ele>310.25</ele><time>2026-05-03T09:54:44.999Z</time></trkpt><trkpt lat="42.21781804110175" lon="13.923507813655553"><ele>309.5</ele><time>2026-05-03T09:54:45.999Z</time></trkpt><trkpt lat="42.217928824985954" lon="13.92358242819918"><ele>308.75</ele><time>2026-05-03T09:54:46.999Z</time></trkpt><trkpt lat="42.21805537231315" lon="13.923669912624584"><ele>308.0</ele><time>2026-05-03T09:54:48Z</time></trkpt><trkpt lat="42.218149200005975" lon="13.923774087035724"><ele>308.0</ele><time>2026-05-03T09:54:49Z</time></trkpt><trkpt lat="42.21825685464059" lon="13.923857457367191"><ele>308.0</ele><time>2026-05-03T09:54:50Z</time></trkpt><trkpt lat="42.21836249751386" lon="13.92396259076596"><ele>308.0</ele><time>2026-05-03T09:54:51Z</time></trkpt><trkpt lat="42.21848749404372" lon="13.924062657738707"><ele>308.0</ele><time>2026-05-03T09:54:52Z</time></trkpt><trkpt lat="42.218613333273325" lon="13.924151834355946"><ele>307.25</ele><time>2026-05-03T09:54:53Z</time></trkpt><trkpt lat="42.21872253100466" lon="13.924236690286353"><ele>306.5</ele><time>2026-05-03T09:54:54Z</time></trkpt><trkpt lat="42.21883538416221" lon="13.924324362526999"><ele>305.75</ele><time>2026-05-03T09:54:55Z</time></trkpt><trkpt lat="42.21895797086426" lon="13.924349718195888"><ele>305.0</ele><time>2026-05-03T09:54:56Z</time></trkpt><trkpt lat="42.21907172956863" lon="13.924412656684513"><ele>304.25</ele><time>2026-05-03T09:54:57Z</time></trkpt><trkpt lat="42.219179652616745" lon="13.924489499324723"><ele>303.5</ele><time>2026-05-03T09:54:58Z</time></trkpt><trkpt lat="42.21927533533355" lon="13.924572139106427"><ele>302.75</ele><time>2026-05-03T09:54:59Z</time></trkpt><trkpt lat="42.219351618687526" lon="13.924667300300625"><ele>302.0</ele><time>2026-05-03T09:54:59.998Z</time></trkpt><trkpt lat="42.21943756332317" lon="13.924784112225232"><ele>302.0</ele><time>2026-05-03T09:55:00.997Z</time></trkpt><trkpt lat="42.21952902064869" lon="13.924877008163554"><ele>302.0</ele><time>2026-05-03T09:55:01.998Z</time></trkpt><trkpt lat="42.21961456967407" lon="13.925008370271126"><ele>302.0</ele><time>2026-05-03T09:55:02.998Z</time></trkpt><trkpt lat="42.21975695303626" lon="13.924998286744154"><ele>302.0</ele><time>2026-05-03T09:55:03.998Z</time></trkpt><trkpt lat="42.21980497286554" lon="13.925277432357532"><ele>301.0</ele><time>2026-05-03T09:55:04.998Z</time></trkpt><trkpt lat="42.21990417097133" lon="13.925398844194671"><ele>300.0</ele><time>2026-05-03T09:55:05.998Z</time></trkpt><trkpt lat="42.2200059003609" lon="13.925501035867176"><ele>299.0</ele><time>2026-05-03T09:55:06.998Z</time></trkpt><trkpt lat="42.22010386605687" lon="13.925583910965198"><ele>298.0</ele><time>2026-05-03T09:55:07.998Z</time></trkpt><trkpt lat="42.22021343400971" lon="13.925627130380398"><ele>298.0</ele><time>2026-05-03T09:55:08.998Z</time></trkpt><trkpt lat="42.220344385204896" lon="13.925632900975895"><ele>298.0</ele><time>2026-05-03T09:55:09.998Z</time></trkpt><trkpt lat="42.22044947413637" lon="13.92562477642054"><ele>298.0</ele><time>2026-05-03T09:55:10.998Z</time></trkpt><trkpt lat="42.220536099986816" lon="13.925629563172173"><ele>298.0</ele><time>2026-05-03T09:55:11.998Z</time></trkpt><trkpt lat="42.220611782662594" lon="13.925630464982476"><ele>298.0</ele><time>2026-05-03T09:55:12.998Z</time></trkpt><trkpt lat="42.22070279444217" lon="13.925598083020416"><ele>297.0</ele><time>2026-05-03T09:55:13.998Z</time></trkpt><trkpt lat="42.22078652828937" lon="13.925540308714208"><ele>296.0</ele><time>2026-05-03T09:55:14.998Z</time></trkpt><trkpt lat="42.2208655418935" lon="13.925509147111693"><ele>295.0</ele><time>2026-05-03T09:55:15.998Z</time></trkpt><trkpt lat="42.22094239759365" lon="13.925501906994194"><ele>294.0</ele><time>2026-05-03T09:55:16.998Z</time></trkpt><trkpt lat="42.221006975023826" lon="13.925511382842107"><ele>293.0</ele><time>2026-05-03T09:55:17.998Z</time></trkpt><trkpt lat="42.22107391546917" lon="13.925528162401553"><ele>292.0</ele><time>2026-05-03T09:55:18.998Z</time></trkpt><trkpt lat="42.22114600004088" lon="13.925546646459134"><ele>292.0</ele><time>2026-05-03T09:55:19.998Z</time></trkpt><trkpt lat="42.221228245192464" lon="13.92554780885046"><ele>292.0</ele><time>2026-05-03T09:55:20.999Z</time></trkpt><trkpt lat="42.22133177133235" lon="13.925552906369742"><ele>292.0</ele><time>2026-05-03T09:55:21.999Z</time></trkpt><trkpt lat="42.2214180288859" lon="13.925555810436954"><ele>292.0</ele><time>2026-05-03T09:55:22.999Z</time></trkpt><trkpt lat="42.22151547579239" lon="13.925558437600897"><ele>292.0</ele><time>2026-05-03T09:55:23.999Z</time></trkpt><trkpt lat="42.22161546545492" lon="13.925563519926698"><ele>290.0</ele><time>2026-05-03T09:55:24.999Z</time></trkpt><trkpt lat="42.22172133500649" lon="13.925579935248829"><ele>288.0</ele><time>2026-05-03T09:55:25.999Z</time></trkpt><trkpt lat="42.22181922533525" lon="13.925610238014851"><ele>286.0</ele><time>2026-05-03T09:55:26.999Z</time></trkpt><trkpt lat="42.221916327401104" lon="13.925639557067143"><ele>284.0</ele><time>2026-05-03T09:55:27.999Z</time></trkpt><trkpt lat="42.22199460120656" lon="13.92566424643107"><ele>282.0</ele><time>2026-05-03T09:55:28.999Z</time></trkpt><trkpt lat="42.2220626864621" lon="13.925688835078024"><ele>282.0</ele><time>2026-05-03T09:55:29.999Z</time></trkpt><trkpt lat="42.22214533450116" lon="13.925726380140986"><ele>282.0</ele><time>2026-05-03T09:55:31.999Z</time></trkpt><trkpt lat="42.22222228586688" lon="13.9257548076633"><ele>282.0</ele><time>2026-05-03T09:55:33.999Z</time></trkpt><trkpt lat="42.222306835236495" lon="13.925806877982962"><ele>282.0</ele><time>2026-05-03T09:55:35.999Z</time></trkpt><trkpt lat="42.22238098095527" lon="13.925837654246052"><ele>282.0</ele><time>2026-05-03T09:55:36.999Z</time></trkpt><trkpt lat="42.22246978668618" lon="13.925865010178804"><ele>282.0</ele><time>2026-05-03T09:55:37.999Z</time></trkpt><trkpt lat="42.222557683497676" lon="13.92588226288403"><ele>279.6666666666667</ele><time>2026-05-03T09:55:38.999Z</time></trkpt><trkpt lat="42.222631434068745" lon="13.925860602440759"><ele>277.3333333333333</ele><time>2026-05-03T09:55:39.999Z</time></trkpt><trkpt lat="42.22271286359769" lon="13.92584877648"><ele>275.0</ele><time>2026-05-03T09:55:40.999Z</time></trkpt><trkpt lat="42.22277655212154" lon="13.925835076092497"><ele>272.66666666666663</ele><time>2026-05-03T09:55:41.999Z</time></trkpt><trkpt lat="42.22288508384435" lon="13.925849466956533"><ele>270.3333333333333</ele><time>2026-05-03T09:55:43.999Z</time></trkpt><trkpt lat="42.22296156038671" lon="13.925923471602253"><ele>268.0</ele><time>2026-05-03T09:55:45.999Z</time></trkpt><trkpt lat="42.22295161413671" lon="13.926061016338439"><ele>265.8</ele><time>2026-05-03T09:55:47.999Z</time></trkpt><trkpt lat="42.22293807610372" lon="13.926166598629825"><ele>263.6</ele><time>2026-05-03T09:55:48.999Z</time></trkpt><trkpt lat="42.222904443107595" lon="13.92625700695533"><ele>261.4</ele><time>2026-05-03T09:55:49.999Z</time></trkpt><trkpt lat="42.222851119093725" lon="13.926380313778033"><ele>259.2</ele><time>2026-05-03T09:55:50.999Z</time></trkpt><trkpt lat="42.222809570282344" lon="13.926510476801154"><ele>257.0</ele><time>2026-05-03T09:55:51.999Z</time></trkpt><trkpt lat="42.22277042854452" lon="13.926630229342033"><ele>255.0</ele><time>2026-05-03T09:55:52.999Z</time></trkpt><trkpt lat="42.22272613783717" lon="13.92675697023964"><ele>253.0</ele><time>2026-05-03T09:55:53.999Z</time></trkpt><trkpt lat="42.22269658610986" lon="13.92686394143886"><ele>251.0</ele><time>2026-05-03T09:55:55Z</time></trkpt><trkpt lat="42.222669949051124" lon="13.926974995426797"><ele>249.0</ele><time>2026-05-03T09:55:56Z</time></trkpt><trkpt lat="42.22263425032339" lon="13.927097851978907"><ele>247.0</ele><time>2026-05-03T09:55:57Z</time></trkpt><trkpt lat="42.22258082064918" lon="13.927222287364282"><ele>246.99999999999997</ele><time>2026-05-03T09:55:58Z</time></trkpt><trkpt lat="42.22254527780045" lon="13.927316657742615"><ele>247.0</ele><time>2026-05-03T09:55:59Z</time></trkpt><trkpt lat="42.22251113374956" lon="13.927405484216825"><ele>247.0</ele><time>2026-05-03T09:56:00Z</time></trkpt><trkpt lat="42.22246975536116" lon="13.927482726089023"><ele>247.0</ele><time>2026-05-03T09:56:01Z</time></trkpt><trkpt lat="42.22242279825617" lon="13.927595506884701"><ele>246.99999999999997</ele><time>2026-05-03T09:56:02Z</time></trkpt><trkpt lat="42.222388731383205" lon="13.92772696619275"><ele>247.0</ele><time>2026-05-03T09:56:03Z</time></trkpt><trkpt lat="42.222357996850626" lon="13.927841401516272"><ele>247.0</ele><time>2026-05-03T09:56:04Z</time></trkpt><trkpt lat="42.22232371271515" lon="13.92795003965792"><ele>247.0</ele><time>2026-05-03T09:56:05Z</time></trkpt><trkpt lat="42.222286430757975" lon="13.928069701707939"><ele>247.0</ele><time>2026-05-03T09:56:06Z</time></trkpt><trkpt lat="42.2222432434255" lon="13.928190391298456"><ele>247.0</ele><time>2026-05-03T09:56:07Z</time></trkpt><trkpt lat="42.222193651789254" lon="13.928311208035533"><ele>247.0</ele><time>2026-05-03T09:56:08Z</time></trkpt><trkpt lat="42.22214209413971" lon="13.928456648639035"><ele>247.0</ele><time>2026-05-03T09:56:09Z</time></trkpt><trkpt lat="42.222079921221564" lon="13.928599445604393"><ele>247.0</ele><time>2026-05-03T09:56:10Z</time></trkpt><trkpt lat="42.22201178639192" lon="13.928748125899183"><ele>247.0</ele><time>2026-05-03T09:56:11Z</time></trkpt><trkpt lat="42.221938422864056" lon="13.928927895164318"><ele>247.0</ele><time>2026-05-03T09:56:12Z</time></trkpt><trkpt lat="42.2218444501056" lon="13.929143852449975"><ele>246.33333333333331</ele><time>2026-05-03T09:56:13Z</time></trkpt><trkpt lat="42.22175182213128" lon="13.929368137172196"><ele>245.66666666666669</ele><time>2026-05-03T09:56:14Z</time></trkpt><trkpt lat="42.22164476503727" lon="13.929633950192752"><ele>245.0</ele><time>2026-05-03T09:56:15Z</time></trkpt><trkpt lat="42.22153223455643" lon="13.929894474842573"><ele>250.66666666666669</ele><time>2026-05-03T09:56:16Z</time></trkpt><trkpt lat="42.22142068658576" lon="13.930137936688393"><ele>256.3333333333333</ele><time>2026-05-03T09:56:17Z</time></trkpt><trkpt lat="42.221322596487916" lon="13.930338936264445"><ele>262.0</ele><time>2026-05-03T09:56:18Z</time></trkpt><trkpt lat="42.22122358869533" lon="13.930505744845233"><ele>262.0</ele><time>2026-05-03T09:56:19Z</time></trkpt><trkpt lat="42.221112021951704" lon="13.930643574012928"><ele>262.0</ele><time>2026-05-03T09:56:20Z</time></trkpt><trkpt lat="42.22099394796863" lon="13.930743650922109"><ele>262.0</ele><time>2026-05-03T09:56:21Z</time></trkpt><trkpt lat="42.22088280616682" lon="13.930826246470778"><ele>262.0</ele><time>2026-05-03T09:56:22Z</time></trkpt><trkpt lat="42.22078955342846" lon="13.930878830340239"><ele>261.16666666666663</ele><time>2026-05-03T09:56:23Z</time></trkpt><trkpt lat="42.22069917873694" lon="13.930910780210114"><ele>260.3333333333333</ele><time>2026-05-03T09:56:24Z</time></trkpt><trkpt lat="42.22062272584164" lon="13.93090585669158"><ele>259.5</ele><time>2026-05-03T09:56:25Z</time></trkpt><trkpt lat="42.22055881540418" lon="13.930899595828077"><ele>258.6666666666667</ele><time>2026-05-03T09:56:26Z</time></trkpt><trkpt lat="42.22049405269479" lon="13.93100213239199"><ele>257.83333333333337</ele><time>2026-05-03T09:56:28Z</time></trkpt><trkpt lat="42.22051319981747" lon="13.931098024597187"><ele>257.0</ele><time>2026-05-03T09:56:29Z</time></trkpt><trkpt lat="42.220563496295746" lon="13.931190418578133"><ele>257.0</ele><time>2026-05-03T09:56:30Z</time></trkpt><trkpt lat="42.220620651350224" lon="13.93129962870415"><ele>257.0</ele><time>2026-05-03T09:56:31Z</time></trkpt><trkpt lat="42.220642348816575" lon="13.93146792316442"><ele>257.0</ele><time>2026-05-03T09:56:32Z</time></trkpt><trkpt lat="42.22069353511148" lon="13.93165758229781"><ele>257.0</ele><time>2026-05-03T09:56:33Z</time></trkpt><trkpt lat="42.22073383341862" lon="13.931851105809722"><ele>255.0</ele><time>2026-05-03T09:56:34Z</time></trkpt><trkpt lat="42.22078026359271" lon="13.932031462185387"><ele>253.0</ele><time>2026-05-03T09:56:35Z</time></trkpt><trkpt lat="42.22082350219931" lon="13.932212651183171"><ele>251.0</ele><time>2026-05-03T09:56:36Z</time></trkpt><trkpt lat="42.220873218294834" lon="13.932386326057868"><ele>249.0</ele><time>2026-05-03T09:56:37Z</time></trkpt><trkpt lat="42.220941883101176" lon="13.93254955939519"><ele>246.75</ele><time>2026-05-03T09:56:38Z</time></trkpt><trkpt lat="42.22103951387455" lon="13.932681329751123"><ele>244.5</ele><time>2026-05-03T09:56:39Z</time></trkpt><trkpt lat="42.22114319908577" lon="13.932787924725652"><ele>242.25</ele><time>2026-05-03T09:56:40Z</time></trkpt><trkpt lat="42.2212607562383" lon="13.932916476314315"><ele>240.0</ele><time>2026-05-03T09:56:41Z</time></trkpt><trkpt lat="42.221362426595064" lon="13.933057338338713"><ele>240.0</ele><time>2026-05-03T09:56:42Z</time></trkpt><trkpt lat="42.22146384061252" lon="13.933206686093156"><ele>240.0</ele><time>2026-05-03T09:56:43Z</time></trkpt><trkpt lat="42.22155337881971" lon="13.933354248674494"><ele>240.0</ele><time>2026-05-03T09:56:44Z</time></trkpt><trkpt lat="42.2216368974279" lon="13.933504328361872"><ele>240.0</ele><time>2026-05-03T09:56:45Z</time></trkpt><trkpt lat="42.22172736682296" lon="13.933640125668775"><ele>237.0</ele><time>2026-05-03T09:56:46Z</time></trkpt><trkpt lat="42.221833192929395" lon="13.933752714262706"><ele>234.0</ele><time>2026-05-03T09:56:47Z</time></trkpt><trkpt lat="42.221959376928595" lon="13.93381604637197"><ele>231.0</ele><time>2026-05-03T09:56:48Z</time></trkpt><trkpt lat="42.222090500459366" lon="13.933831409458614"><ele>228.0</ele><time>2026-05-03T09:56:49Z</time></trkpt><trkpt lat="42.222221847222926" lon="13.933856713287492"><ele>228.0</ele><time>2026-05-03T09:56:50Z</time></trkpt><trkpt lat="42.222299254665835" lon="13.933925503623989"><ele>228.0</ele><time>2026-05-03T09:56:51Z</time></trkpt><trkpt lat="42.2223134751102" lon="13.934057798187016"><ele>228.0</ele><time>2026-05-03T09:56:52Z</time></trkpt><trkpt lat="42.222306197831294" lon="13.934215951665085"><ele>228.0</ele><time>2026-05-03T09:56:53Z</time></trkpt><trkpt lat="42.22232361598552" lon="13.93441126341175"><ele>224.5</ele><time>2026-05-03T09:56:54Z</time></trkpt><trkpt lat="42.22234994611207" lon="13.934599509827995"><ele>221.0</ele><time>2026-05-03T09:56:55Z</time></trkpt><trkpt lat="42.22236678820163" lon="13.934776886710859"><ele>217.5</ele><time>2026-05-03T09:56:56Z</time></trkpt><trkpt lat="42.222408370159734" lon="13.934905849709756"><ele>214.0</ele><time>2026-05-03T09:56:57Z</time></trkpt><trkpt lat="42.22248889048376" lon="13.934998055883117"><ele>214.0</ele><time>2026-05-03T09:56:58Z</time></trkpt><trkpt lat="42.22260672492915" lon="13.935050850880867"><ele>214.0</ele><time>2026-05-03T09:56:59Z</time></trkpt><trkpt lat="42.22275720357493" lon="13.935099899383346"><ele>214.0</ele><time>2026-05-03T09:57:00Z</time></trkpt><trkpt lat="42.22293449559209" lon="13.935165023703142"><ele>212.0</ele><time>2026-05-03T09:57:01Z</time></trkpt><trkpt lat="42.22307803879904" lon="13.93529719357543"><ele>210.0</ele><time>2026-05-03T09:57:02Z</time></trkpt><trkpt lat="42.22320599212631" lon="13.935445440625173"><ele>208.0</ele><time>2026-05-03T09:57:03.001Z</time></trkpt><trkpt lat="42.22331478907221" lon="13.935596672996738"><ele>207.0</ele><time>2026-05-03T09:57:04.001Z</time></trkpt><trkpt lat="42.223409726541746" lon="13.935753117601859"><ele>206.0</ele><time>2026-05-03T09:57:05.001Z</time></trkpt><trkpt lat="42.223471714830076" lon="13.935902731546213"><ele>205.0</ele><time>2026-05-03T09:57:05.998Z</time></trkpt><trkpt lat="42.22352302236413" lon="13.936055408002375"><ele>204.0</ele><time>2026-05-03T09:57:06.998Z</time></trkpt><trkpt lat="42.223588178512394" lon="13.936198329178355"><ele>203.6</ele><time>2026-05-03T09:57:07.998Z</time></trkpt><trkpt lat="42.22364713996857" lon="13.936317831285535"><ele>203.2</ele><time>2026-05-03T09:57:08.998Z</time></trkpt><trkpt lat="42.2237315580932" lon="13.936392630325319"><ele>202.79999999999998</ele><time>2026-05-03T09:57:09.998Z</time></trkpt><trkpt lat="42.22383202156957" lon="13.936409192566785"><ele>202.39999999999998</ele><time>2026-05-03T09:57:10.998Z</time></trkpt><trkpt lat="42.22393276260232" lon="13.936396522415993"><ele>202.0</ele><time>2026-05-03T09:57:11.998Z</time></trkpt><trkpt lat="42.22401802400047" lon="13.936393173593972"><ele>201.0</ele><time>2026-05-03T09:57:12.998Z</time></trkpt><trkpt lat="42.22410892740905" lon="13.936438279424163"><ele>200.0</ele><time>2026-05-03T09:57:13.998Z</time></trkpt><trkpt lat="42.22420166164205" lon="13.936551107930718"><ele>199.0</ele><time>2026-05-03T09:57:14.998Z</time></trkpt><trkpt lat="42.22432293689592" lon="13.93658162817391"><ele>198.0</ele><time>2026-05-03T09:57:15.998Z</time></trkpt><trkpt lat="42.22442584952805" lon="13.93662383756508"><ele>198.0</ele><time>2026-05-03T09:57:16.998Z</time></trkpt><trkpt lat="42.224519856787296" lon="13.936654563678982"><ele>198.0</ele><time>2026-05-03T09:57:17.998Z</time></trkpt><trkpt lat="42.22460987357163" lon="13.936684968082934"><ele>198.0</ele><time>2026-05-03T09:57:18.998Z</time></trkpt><trkpt lat="42.224710181939734" lon="13.936716323150057"><ele>198.0</ele><time>2026-05-03T09:57:19.998Z</time></trkpt><trkpt lat="42.224819478510184" lon="13.936750651890291"><ele>198.0</ele><time>2026-05-03T09:57:20.998Z</time></trkpt><trkpt lat="42.22492995061179" lon="13.936785859624448"><ele>197.5</ele><time>2026-05-03T09:57:21.998Z</time></trkpt><trkpt lat="42.225041865317635" lon="13.936822919890213"><ele>197.0</ele><time>2026-05-03T09:57:22.998Z</time></trkpt><trkpt lat="42.22515469070894" lon="13.936863948074775"><ele>196.5</ele><time>2026-05-03T09:57:23.999Z</time></trkpt><trkpt lat="42.225274125473995" lon="13.936903029209331"><ele>196.0</ele><time>2026-05-03T09:57:24.999Z</time></trkpt><trkpt lat="42.225391555090745" lon="13.936945030082244"><ele>196.0</ele><time>2026-05-03T09:57:25.999Z</time></trkpt><trkpt lat="42.22549546155089" lon="13.936987995663667"><ele>196.0</ele><time>2026-05-03T09:57:26.999Z</time></trkpt><trkpt lat="42.225584163611195" lon="13.93702676053575"><ele>196.0</ele><time>2026-05-03T09:57:27.999Z</time></trkpt><trkpt lat="42.22565515176369" lon="13.937144337556461"><ele>196.0</ele><time>2026-05-03T09:57:28.999Z</time></trkpt><trkpt lat="42.22570635864916" lon="13.937253486189345"><ele>196.0</ele><time>2026-05-03T09:57:29.999Z</time></trkpt><trkpt lat="42.22573432456994" lon="13.937369765672694"><ele>195.75</ele><time>2026-05-03T09:57:30.999Z</time></trkpt><trkpt lat="42.22578283510966" lon="13.937477600231489"><ele>195.5</ele><time>2026-05-03T09:57:31.999Z</time></trkpt><trkpt lat="42.22576715606606" lon="13.937657086339176"><ele>195.25</ele><time>2026-05-03T09:57:32.999Z</time></trkpt><trkpt lat="42.225763934625334" lon="13.937851695639013"><ele>195.0</ele><time>2026-05-03T09:57:33.999Z</time></trkpt><trkpt lat="42.22575026871319" lon="13.938054908571665"><ele>195.0</ele><time>2026-05-03T09:57:34.999Z</time></trkpt><trkpt lat="42.22573457356584" lon="13.938277674881178"><ele>195.0</ele><time>2026-05-03T09:57:35.999Z</time></trkpt><trkpt lat="42.22572596446172" lon="13.938517444894874"><ele>195.0</ele><time>2026-05-03T09:57:36.999Z</time></trkpt><trkpt lat="42.22572022029072" lon="13.938782790922671"><ele>195.0</ele><time>2026-05-03T09:57:37.999Z</time></trkpt><trkpt lat="42.225712148872645" lon="13.939080066070453"><ele>195.0</ele><time>2026-05-03T09:57:38.999Z</time></trkpt><trkpt lat="42.22570633759694" lon="13.939362497547291"><ele>195.0</ele><time>2026-05-03T09:57:39.999Z</time></trkpt><trkpt lat="42.22570177855655" lon="13.939630757460549"><ele>195.0</ele><time>2026-05-03T09:57:40.999Z</time></trkpt><trkpt lat="42.225694648885614" lon="13.939884954612921"><ele>195.0</ele><time>2026-05-03T09:57:41.999Z</time></trkpt><trkpt lat="42.22569058650926" lon="13.940149483617791"><ele>195.0</ele><time>2026-05-03T09:57:42.999Z</time></trkpt><trkpt lat="42.225695096782815" lon="13.940417531313685"><ele>194.66666666666669</ele><time>2026-05-03T09:57:43.999Z</time></trkpt><trkpt lat="42.22571113589537" lon="13.940689924619342"><ele>194.33333333333334</ele><time>2026-05-03T09:57:45Z</time></trkpt><trkpt lat="42.225753213105676" lon="13.940949530695262"><ele>194.0</ele><time>2026-05-03T09:57:46Z</time></trkpt><trkpt lat="42.225819813789855" lon="13.941201438905313"><ele>193.66666666666669</ele><time>2026-05-03T09:57:47Z</time></trkpt><trkpt lat="42.22588595288936" lon="13.941432265147427"><ele>193.33333333333331</ele><time>2026-05-03T09:57:48Z</time></trkpt><trkpt lat="42.225948951296935" lon="13.941642530656349"><ele>193.0</ele><time>2026-05-03T09:57:49Z</time></trkpt><trkpt lat="42.226010906789604" lon="13.941847876038882"><ele>193.0</ele><time>2026-05-03T09:57:50Z</time></trkpt><trkpt lat="42.22606608710775" lon="13.942054573564954"><ele>193.0</ele><time>2026-05-03T09:57:51Z</time></trkpt><trkpt lat="42.226125791683664" lon="13.942268676832095"><ele>193.0</ele><time>2026-05-03T09:57:52Z</time></trkpt><trkpt lat="42.22618911857406" lon="13.942487524546516"><ele>193.0</ele><time>2026-05-03T09:57:53Z</time></trkpt><trkpt lat="42.22625186944383" lon="13.942713746155475"><ele>193.0</ele><time>2026-05-03T09:57:54Z</time></trkpt><trkpt lat="42.22632163211377" lon="13.942958714920035"><ele>193.0</ele><time>2026-05-03T09:57:55Z</time></trkpt><trkpt lat="42.22639413981466" lon="13.94321426106496"><ele>193.66666666666666</ele><time>2026-05-03T09:57:56Z</time></trkpt><trkpt lat="42.22646952338552" lon="13.94347742893688"><ele>194.33333333333331</ele><time>2026-05-03T09:57:57Z</time></trkpt><trkpt lat="42.2265450604502" lon="13.943741772440788"><ele>195.0</ele><time>2026-05-03T09:57:58Z</time></trkpt><trkpt lat="42.22661471719789" lon="13.944007174542595"><ele>196.0</ele><time>2026-05-03T09:57:59Z</time></trkpt><trkpt lat="42.22669368088919" lon="13.944273955169447"><ele>197.0</ele><time>2026-05-03T09:58:00Z</time></trkpt><trkpt lat="42.22677328028891" lon="13.944541657036362"><ele>198.0</ele><time>2026-05-03T09:58:01Z</time></trkpt><trkpt lat="42.226859112157904" lon="13.944823415335692"><ele>198.0</ele><time>2026-05-03T09:58:02Z</time></trkpt><trkpt lat="42.226941259379096" lon="13.945100168006157"><ele>198.0</ele><time>2026-05-03T09:58:03Z</time></trkpt><trkpt lat="42.22701696565821" lon="13.945363735214087"><ele>198.0</ele><time>2026-05-03T09:58:04Z</time></trkpt><trkpt lat="42.2270863054239" lon="13.945625874376208"><ele>198.66666666666669</ele><time>2026-05-03T09:58:05Z</time></trkpt><trkpt lat="42.22716168079673" lon="13.945892372353452"><ele>199.33333333333334</ele><time>2026-05-03T09:58:06Z</time></trkpt><trkpt lat="42.227244803693914" lon="13.946163613618657"><ele>200.0</ele><time>2026-05-03T09:58:07Z</time></trkpt><trkpt lat="42.227328050544706" lon="13.946451181296345"><ele>201.33333333333334</ele><time>2026-05-03T09:58:08Z</time></trkpt><trkpt lat="42.22740716902794" lon="13.946735681772493"><ele>202.66666666666669</ele><time>2026-05-03T09:58:09Z</time></trkpt><trkpt lat="42.227488635476846" lon="13.947014557041866"><ele>204.0</ele><time>2026-05-03T09:58:10Z</time></trkpt><trkpt lat="42.22756862967489" lon="13.947289759569427"><ele>205.0</ele><time>2026-05-03T09:58:11Z</time></trkpt><trkpt lat="42.22764213272667" lon="13.947550328784493"><ele>206.0</ele><time>2026-05-03T09:58:12Z</time></trkpt><trkpt lat="42.22771465923224" lon="13.947780378457027"><ele>207.0</ele><time>2026-05-03T09:58:13Z</time></trkpt><trkpt lat="42.22778913175877" lon="13.948012786174496"><ele>207.0</ele><time>2026-05-03T09:58:14Z</time></trkpt><trkpt lat="42.227870660257196" lon="13.948228704017808"><ele>207.0</ele><time>2026-05-03T09:58:15Z</time></trkpt><trkpt lat="42.227994410883014" lon="13.948403490954613"><ele>207.0</ele><time>2026-05-03T09:58:16Z</time></trkpt><trkpt lat="42.22814755319671" lon="13.948563257070878"><ele>208.0</ele><time>2026-05-03T09:58:17Z</time></trkpt><trkpt lat="42.22831629785961" lon="13.948701944770988"><ele>209.0</ele><time>2026-05-03T09:58:18Z</time></trkpt><trkpt lat="42.22847968591867" lon="13.948838530910033"><ele>210.0</ele><time>2026-05-03T09:58:19Z</time></trkpt><trkpt lat="42.22863350376015" lon="13.948979738141766"><ele>210.0</ele><time>2026-05-03T09:58:20Z</time></trkpt><trkpt lat="42.22879059622347" lon="13.949125817096943"><ele>210.0</ele><time>2026-05-03T09:58:21Z</time></trkpt><trkpt lat="42.228954694524326" lon="13.949271519143236"><ele>210.0</ele><time>2026-05-03T09:58:22Z</time></trkpt><trkpt lat="42.229111175709065" lon="13.949423784024024"><ele>213.33333333333331</ele><time>2026-05-03T09:58:23Z</time></trkpt><trkpt lat="42.229270310212854" lon="13.949579380418314"><ele>216.66666666666666</ele><time>2026-05-03T09:58:24Z</time></trkpt><trkpt lat="42.22943077051974" lon="13.949737509418934"><ele>220.0</ele><time>2026-05-03T09:58:25Z</time></trkpt><trkpt lat="42.22958171893612" lon="13.949876486193288"><ele>220.0</ele><time>2026-05-03T09:58:26Z</time></trkpt><trkpt lat="42.22972798500051" lon="13.94998588224624"><ele>220.0</ele><time>2026-05-03T09:58:27.001Z</time></trkpt><trkpt lat="42.22989234746541" lon="13.950077982070935"><ele>220.0</ele><time>2026-05-03T09:58:28.001Z</time></trkpt><trkpt lat="42.23008016127949" lon="13.950134599671976"><ele>223.0</ele><time>2026-05-03T09:58:29.001Z</time></trkpt><trkpt lat="42.23027350303941" lon="13.950166187782711"><ele>226.0</ele><time>2026-05-03T09:58:30.001Z</time></trkpt><trkpt lat="42.230474893816805" lon="13.950185149692281"><ele>229.0</ele><time>2026-05-03T09:58:31.001Z</time></trkpt><trkpt lat="42.230677329061955" lon="13.950215799886706"><ele>233.0</ele><time>2026-05-03T09:58:32.001Z</time></trkpt><trkpt lat="42.230883653334566" lon="13.950254487798727"><ele>237.0</ele><time>2026-05-03T09:58:33.001Z</time></trkpt><trkpt lat="42.231091743900144" lon="13.95030527197125"><ele>241.0</ele><time>2026-05-03T09:58:34.001Z</time></trkpt><trkpt lat="42.23130843050192" lon="13.950366496094187"><ele>242.5</ele><time>2026-05-03T09:58:35.001Z</time></trkpt><trkpt lat="42.23153588618248" lon="13.950437217575166"><ele>244.0</ele><time>2026-05-03T09:58:36.001Z</time></trkpt><trkpt lat="42.231746844323155" lon="13.950507126414978"><ele>244.0</ele><time>2026-05-03T09:58:37.001Z</time></trkpt><trkpt lat="42.231951692181106" lon="13.95057361263237"><ele>244.0</ele><time>2026-05-03T09:58:38.001Z</time></trkpt><trkpt lat="42.23214064931103" lon="13.950635261263557"><ele>244.0</ele><time>2026-05-03T09:58:39.001Z</time></trkpt><trkpt lat="42.23230008715792" lon="13.95067751173698"><ele>244.2</ele><time>2026-05-03T09:58:40.001Z</time></trkpt><trkpt lat="42.23243848755776" lon="13.950715341292016"><ele>244.39999999999998</ele><time>2026-05-03T09:58:41.001Z</time></trkpt><trkpt lat="42.23254763655042" lon="13.950736881264078"><ele>244.6</ele><time>2026-05-03T09:58:42.001Z</time></trkpt><trkpt lat="42.23264178179374" lon="13.95075440147253"><ele>244.8</ele><time>2026-05-03T09:58:43.001Z</time></trkpt><trkpt lat="42.23273402256737" lon="13.950769339204054"><ele>245.0</ele><time>2026-05-03T09:58:44.001Z</time></trkpt><trkpt lat="42.23281699885139" lon="13.950762389442893"><ele>245.0</ele><time>2026-05-03T09:58:45.001Z</time></trkpt><trkpt lat="42.23290906700791" lon="13.95073541423733"><ele>245.0</ele><time>2026-05-03T09:58:46.001Z</time></trkpt><trkpt lat="42.23300530496847" lon="13.950727076664373"><ele>245.0</ele><time>2026-05-03T09:58:47.001Z</time></trkpt><trkpt lat="42.23310563594841" lon="13.950743408789753"><ele>245.0</ele><time>2026-05-03T09:58:48.001Z</time></trkpt><trkpt lat="42.23321811478898" lon="13.950772189804864"><ele>245.0</ele><time>2026-05-03T09:58:49.001Z</time></trkpt><trkpt lat="42.23330288275799" lon="13.950781704873089"><ele>244.8</ele><time>2026-05-03T09:58:50.001Z</time></trkpt><trkpt lat="42.23341369197095" lon="13.950771072486923"><ele>244.6</ele><time>2026-05-03T09:58:51.001Z</time></trkpt><trkpt lat="42.23349928208308" lon="13.95074297681835"><ele>244.39999999999998</ele><time>2026-05-03T09:58:52.001Z</time></trkpt><trkpt lat="42.23357236820445" lon="13.950674783994026"><ele>244.2</ele><time>2026-05-03T09:58:53.001Z</time></trkpt><trkpt lat="42.23363213876771" lon="13.950556441142716"><ele>244.0</ele><time>2026-05-03T09:58:54.001Z</time></trkpt><trkpt lat="42.23370329959789" lon="13.950402612758996"><ele>244.0</ele><time>2026-05-03T09:58:55.001Z</time></trkpt><trkpt lat="42.23380400030434" lon="13.950258514888036"><ele>244.0</ele><time>2026-05-03T09:58:56.001Z</time></trkpt><trkpt lat="42.233903292389236" lon="13.950085297102117"><ele>244.0</ele><time>2026-05-03T09:58:57.001Z</time></trkpt><trkpt lat="42.234012985142954" lon="13.94989589292074"><ele>245.66666666666666</ele><time>2026-05-03T09:58:58.001Z</time></trkpt><trkpt lat="42.23411640909027" lon="13.94968960954292"><ele>247.33333333333331</ele><time>2026-05-03T09:58:59.001Z</time></trkpt><trkpt lat="42.23422103231652" lon="13.949504870333794"><ele>249.0</ele><time>2026-05-03T09:59:00.001Z</time></trkpt><trkpt lat="42.23430058957259" lon="13.94938938375159"><ele>249.0</ele><time>2026-05-03T09:59:01.001Z</time></trkpt><trkpt lat="42.23434200020991" lon="13.949304597458184"><ele>248.99999999999997</ele><time>2026-05-03T09:59:02.001Z</time></trkpt><trkpt lat="42.23440120627571" lon="13.949253084935087"><ele>248.99999999999997</ele><time>2026-05-03T09:59:03.001Z</time></trkpt><trkpt lat="42.23448467286367" lon="13.949159100896402"><ele>249.0</ele><time>2026-05-03T09:59:04.001Z</time></trkpt><trkpt lat="42.234609366292894" lon="13.949146764838897"><ele>249.0</ele><time>2026-05-03T09:59:05.001Z</time></trkpt><trkpt lat="42.23473801679141" lon="13.949128243534105"><ele>248.33333333333331</ele><time>2026-05-03T09:59:06.001Z</time></trkpt><trkpt lat="42.235018711350286" lon="13.949216609648856"><ele>247.66666666666666</ele><time>2026-05-03T09:59:07.001Z</time></trkpt><trkpt lat="42.23514375775213" lon="13.949164522274693"><ele>247.0</ele><time>2026-05-03T09:59:08.001Z</time></trkpt><trkpt lat="42.235278123651064" lon="13.949077041588717"><ele>247.0</ele><time>2026-05-03T09:59:09.001Z</time></trkpt><trkpt lat="42.2354115288155" lon="13.948990187480272"><ele>247.0</ele><time>2026-05-03T09:59:10.001Z</time></trkpt><trkpt lat="42.23550068068605" lon="13.94878124507342"><ele>247.0</ele><time>2026-05-03T09:59:15.999Z</time></trkpt><trkpt lat="42.235480002771986" lon="13.948662298624024"><ele>247.0</ele><time>2026-05-03T09:59:18.999Z</time></trkpt><trkpt lat="42.23545490375761" lon="13.948546932891487"><ele>247.0</ele><time>2026-05-03T09:59:21.999Z</time></trkpt><trkpt lat="42.23539518597137" lon="13.948489223178056"><ele>247.0</ele><time>2026-05-03T09:59:24.999Z</time></trkpt><trkpt lat="42.23547038737521" lon="13.948536774965506"><ele>247.0</ele><time>2026-05-03T09:59:25.999Z</time></trkpt><trkpt lat="42.2356166145357" lon="13.94834788863536"><ele>247.0</ele><time>2026-05-03T09:59:27Z</time></trkpt><trkpt lat="42.23569913267132" lon="13.948374300693425"><ele>247.0</ele><time>2026-05-03T09:59:28Z</time></trkpt><trkpt lat="42.23577481499674" lon="13.948392084920014"><ele>247.49999999999997</ele><time>2026-05-03T09:59:29Z</time></trkpt><trkpt lat="42.2358476193508" lon="13.948387438098846"><ele>248.0</ele><time>2026-05-03T09:59:30Z</time></trkpt><trkpt lat="42.23596036591713" lon="13.948358751899518"><ele>248.5</ele><time>2026-05-03T09:59:32Z</time></trkpt><trkpt lat="42.23603581459061" lon="13.94833931735257"><ele>249.0</ele><time>2026-05-03T09:59:34Z</time></trkpt><trkpt lat="42.236102836495704" lon="13.948327204360243"><ele>249.49999999999997</ele><time>2026-05-03T09:59:36Z</time></trkpt><trkpt lat="42.236167813816174" lon="13.9483494531127"><ele>250.0</ele><time>2026-05-03T09:59:43Z</time></trkpt><trkpt lat="42.236224442167455" lon="13.948399090176405"><ele>248.0</ele><time>2026-05-03T09:59:51Z</time></trkpt><trkpt lat="42.23630803937785" lon="13.948464647438698"><ele>246.0</ele><time>2026-05-03T09:59:54Z</time></trkpt><trkpt lat="42.23637882406728" lon="13.948504635975901"><ele>244.0</ele><time>2026-05-03T09:59:56Z</time></trkpt><trkpt lat="42.23646479904004" lon="13.948555576229047"><ele>242.0</ele><time>2026-05-03T09:59:58Z</time></trkpt><trkpt lat="42.236565638471575" lon="13.948588922360312"><ele>240.0</ele><time>2026-05-03T10:00:00.001Z</time></trkpt><trkpt lat="42.23665028633102" lon="13.948577074377965"><ele>238.85714285714286</ele><time>2026-05-03T10:00:02.001Z</time></trkpt><trkpt lat="42.236726742789855" lon="13.948574268017431"><ele>237.71428571428572</ele><time>2026-05-03T10:00:04.001Z</time></trkpt><trkpt lat="42.236788453190734" lon="13.948552853613833"><ele>236.57142857142858</ele><time>2026-05-03T10:00:07.001Z</time></trkpt><trkpt lat="42.23686504324037" lon="13.948547215056378"><ele>235.42857142857144</ele><time>2026-05-03T10:00:12.001Z</time></trkpt><trkpt lat="42.23692790366898" lon="13.948558616561202"><ele>234.28571428571428</ele><time>2026-05-03T10:00:15.001Z</time></trkpt><trkpt lat="42.23699763425406" lon="13.948590689960175"><ele>233.14285714285717</ele><time>2026-05-03T10:00:19.001Z</time></trkpt><trkpt lat="42.23707041077778" lon="13.948652290103583"><ele>232.00000000000003</ele><time>2026-05-03T10:00:21.001Z</time></trkpt><trkpt lat="42.23712628456699" lon="13.948699917212211"><ele>231.99999999999997</ele><time>2026-05-03T10:00:24.001Z</time></trkpt><trkpt lat="42.237202828303246" lon="13.948748552249782"><ele>232.0</ele><time>2026-05-03T10:00:27.001Z</time></trkpt><trkpt lat="42.23728327649842" lon="13.948769789574486"><ele>232.0</ele><time>2026-05-03T10:00:29.001Z</time></trkpt><trkpt lat="42.2373504260697" lon="13.948739765789739"><ele>232.0</ele><time>2026-05-03T10:00:32.001Z</time></trkpt><trkpt lat="42.23743228079989" lon="13.948704423532732"><ele>231.99999999999997</ele><time>2026-05-03T10:00:34.001Z</time></trkpt><trkpt lat="42.23751798101873" lon="13.948627531201087"><ele>232.0</ele><time>2026-05-03T10:00:36.001Z</time></trkpt><trkpt lat="42.23758759019799" lon="13.948542925209951"><ele>232.33333333333331</ele><time>2026-05-03T10:00:38.001Z</time></trkpt><trkpt lat="42.23764933635044" lon="13.948463880354797"><ele>232.66666666666666</ele><time>2026-05-03T10:00:40.001Z</time></trkpt><trkpt lat="42.23770061124829" lon="13.948375995819308"><ele>233.0</ele><time>2026-05-03T10:00:41.001Z</time></trkpt><trkpt lat="42.237754859277935" lon="13.9482614155439"><ele>233.33333333333331</ele><time>2026-05-03T10:00:42.001Z</time></trkpt><trkpt lat="42.237815786210085" lon="13.948164971687552"><ele>233.66666666666666</ele><time>2026-05-03T10:00:43.001Z</time></trkpt><trkpt lat="42.237878561418896" lon="13.94810569069475"><ele>234.0</ele><time>2026-05-03T10:00:44.002Z</time></trkpt><trkpt lat="42.23795529604518" lon="13.94804995040573"><ele>234.0</ele><time>2026-05-03T10:00:45.002Z</time></trkpt><trkpt lat="42.23803534141998" lon="13.947989769086478"><ele>234.0</ele><time>2026-05-03T10:00:46.002Z</time></trkpt><trkpt lat="42.23810915953251" lon="13.947923499606414"><ele>234.0</ele><time>2026-05-03T10:00:47.002Z</time></trkpt><trkpt lat="42.23816813536777" lon="13.947861560083501"><ele>234.0</ele><time>2026-05-03T10:00:48.002Z</time></trkpt><trkpt lat="42.23823222378787" lon="13.947795429355303"><ele>234.0</ele><time>2026-05-03T10:00:49.002Z</time></trkpt><trkpt lat="42.23829762381298" lon="13.947720255158861"><ele>234.0</ele><time>2026-05-03T10:00:50.002Z</time></trkpt><trkpt lat="42.238356638345586" lon="13.94765611327644"><ele>232.16666666666666</ele><time>2026-05-03T10:00:51.002Z</time></trkpt><trkpt lat="42.23841938034211" lon="13.947594219502808"><ele>230.33333333333331</ele><time>2026-05-03T10:00:52.002Z</time></trkpt><trkpt lat="42.23849593940445" lon="13.94753747840747"><ele>228.5</ele><time>2026-05-03T10:00:53.002Z</time></trkpt><trkpt lat="42.23856474160577" lon="13.947494516377459"><ele>226.66666666666666</ele><time>2026-05-03T10:00:54.002Z</time></trkpt><trkpt lat="42.23864077597253" lon="13.947438131344828"><ele>224.83333333333331</ele><time>2026-05-03T10:00:55.002Z</time></trkpt><trkpt lat="42.238712130465125" lon="13.947382331999007"><ele>223.0</ele><time>2026-05-03T10:00:56.002Z</time></trkpt><trkpt lat="42.23879662272302" lon="13.947315984076242"><ele>222.99999999999997</ele><time>2026-05-03T10:00:57.002Z</time></trkpt><trkpt lat="42.23888541219962" lon="13.947259035955087"><ele>223.0</ele><time>2026-05-03T10:00:58.002Z</time></trkpt><trkpt lat="42.23894418956684" lon="13.947221187494126"><ele>223.0</ele><time>2026-05-03T10:00:59.002Z</time></trkpt><trkpt lat="42.238999649903185" lon="13.947179740874047"><ele>223.0</ele><time>2026-05-03T10:01:00.002Z</time></trkpt><trkpt lat="42.23911211199281" lon="13.947074191483024"><ele>222.99999999999997</ele><time>2026-05-03T10:01:02.002Z</time></trkpt><trkpt lat="42.23917536814768" lon="13.947009337990712"><ele>223.0</ele><time>2026-05-03T10:01:03.002Z</time></trkpt><trkpt lat="42.23922970032483" lon="13.946957646089597"><ele>222.28571428571428</ele><time>2026-05-03T10:01:04.002Z</time></trkpt><trkpt lat="42.239293324282066" lon="13.94689231475856"><ele>221.57142857142856</ele><time>2026-05-03T10:01:05.002Z</time></trkpt><trkpt lat="42.239348805451726" lon="13.946827806055401"><ele>220.85714285714286</ele><time>2026-05-03T10:01:06.002Z</time></trkpt><trkpt lat="42.2393987044119" lon="13.946766344546138"><ele>220.14285714285714</ele><time>2026-05-03T10:01:07.002Z</time></trkpt><trkpt lat="42.239446135299595" lon="13.946696673185377"><ele>219.42857142857144</ele><time>2026-05-03T10:01:08.002Z</time></trkpt><trkpt lat="42.23949940664536" lon="13.946612557023807"><ele>218.71428571428572</ele><time>2026-05-03T10:01:09.002Z</time></trkpt><trkpt lat="42.239535852931134" lon="13.94654145872075"><ele>218.0</ele><time>2026-05-03T10:01:10.002Z</time></trkpt><trkpt lat="42.23957064587128" lon="13.946467646785925"><ele>218.0</ele><time>2026-05-03T10:01:11.002Z</time></trkpt><trkpt lat="42.23962834013303" lon="13.946333546919861"><ele>218.0</ele><time>2026-05-03T10:01:13.002Z</time></trkpt><trkpt lat="42.23969424341034" lon="13.946192229296564"><ele>218.0</ele><time>2026-05-03T10:01:15.002Z</time></trkpt><trkpt lat="42.23975828624298" lon="13.94609638818375"><ele>218.0</ele><time>2026-05-03T10:01:16.002Z</time></trkpt><trkpt lat="42.2398152925891" lon="13.946016935617546"><ele>218.0</ele><time>2026-05-03T10:01:17.002Z</time></trkpt><trkpt lat="42.23986407516624" lon="13.945942513385894"><ele>215.71428571428572</ele><time>2026-05-03T10:01:18Z</time></trkpt><trkpt lat="42.23990559534548" lon="13.945872111528935"><ele>213.42857142857144</ele><time>2026-05-03T10:01:19Z</time></trkpt><trkpt lat="42.23994558640419" lon="13.94580082518905"><ele>211.14285714285714</ele><time>2026-05-03T10:01:20Z</time></trkpt><trkpt lat="42.23998724353297" lon="13.945718624634537"><ele>208.85714285714286</ele><time>2026-05-03T10:01:21Z</time></trkpt><trkpt lat="42.2400162913818" lon="13.945633628831851"><ele>206.57142857142856</ele><time>2026-05-03T10:01:22Z</time></trkpt><trkpt lat="42.24004990575538" lon="13.94555258371424"><ele>204.28571428571428</ele><time>2026-05-03T10:01:23Z</time></trkpt><trkpt lat="42.24009351822367" lon="13.945463262129346"><ele>202.0</ele><time>2026-05-03T10:01:24Z</time></trkpt><trkpt lat="42.24014107923328" lon="13.945381582940227"><ele>201.99999999999997</ele><time>2026-05-03T10:01:25Z</time></trkpt><trkpt lat="42.24019669797274" lon="13.94530773957518"><ele>202.0</ele><time>2026-05-03T10:01:26Z</time></trkpt><trkpt lat="42.24026515180257" lon="13.94523702614839"><ele>202.0</ele><time>2026-05-03T10:01:27Z</time></trkpt><trkpt lat="42.24037170128822" lon="13.945153383767439"><ele>202.0</ele><time>2026-05-03T10:01:29Z</time></trkpt><trkpt lat="42.24043579725877" lon="13.94509872638941"><ele>201.99999999999997</ele><time>2026-05-03T10:01:30Z</time></trkpt><trkpt lat="42.2404909906201" lon="13.945038934019227"><ele>202.0</ele><time>2026-05-03T10:01:31Z</time></trkpt><trkpt lat="42.24053937164047" lon="13.944970073827971"><ele>200.8</ele><time>2026-05-03T10:01:32Z</time></trkpt><trkpt lat="42.240589859800934" lon="13.944895405423072"><ele>199.6</ele><time>2026-05-03T10:01:33Z</time></trkpt><trkpt lat="42.24063438042578" lon="13.944824747722237"><ele>198.4</ele><time>2026-05-03T10:01:34Z</time></trkpt><trkpt lat="42.240676890558" lon="13.944761632916938"><ele>197.20000000000002</ele><time>2026-05-03T10:01:35Z</time></trkpt><trkpt lat="42.24077825218359" lon="13.944669087335644"><ele>196.0</ele><time>2026-05-03T10:01:37Z</time></trkpt><trkpt lat="42.240909882058936" lon="13.944554176967507"><ele>192.8</ele><time>2026-05-03T10:01:39Z</time></trkpt><trkpt lat="42.241000532922115" lon="13.944476889271867"><ele>189.60000000000002</ele><time>2026-05-03T10:01:40Z</time></trkpt><trkpt lat="42.2410894233284" lon="13.944402665030864"><ele>186.4</ele><time>2026-05-03T10:01:41Z</time></trkpt><trkpt lat="42.24115667325077" lon="13.944343774320476"><ele>183.2</ele><time>2026-05-03T10:01:42Z</time></trkpt><trkpt lat="42.24122078835827" lon="13.944289793323227"><ele>180.0</ele><time>2026-05-03T10:01:43Z</time></trkpt><trkpt lat="42.241299683714104" lon="13.944210835135"><ele>178.8</ele><time>2026-05-03T10:01:44Z</time></trkpt><trkpt lat="42.241358201004886" lon="13.944155393356459"><ele>177.6</ele><time>2026-05-03T10:01:45Z</time></trkpt><trkpt lat="42.241455554327075" lon="13.94410485692377"><ele>176.39999999999998</ele><time>2026-05-03T10:01:47Z</time></trkpt><trkpt lat="42.24152164298487" lon="13.944117806262259"><ele>175.2</ele><time>2026-05-03T10:01:49Z</time></trkpt><trkpt lat="42.24159324285967" lon="13.944226353294344"><ele>174.0</ele><time>2026-05-03T10:01:51.001Z</time></trkpt><trkpt lat="42.24164383550201" lon="13.944364458778002"><ele>172.39999999999998</ele><time>2026-05-03T10:01:53.001Z</time></trkpt><trkpt lat="42.241718797120676" lon="13.944379937665794"><ele>170.8</ele><time>2026-05-03T10:01:55.001Z</time></trkpt><trkpt lat="42.24183897448641" lon="13.944268939447328"><ele>169.2</ele><time>2026-05-03T10:01:57.001Z</time></trkpt><trkpt lat="42.24191820288069" lon="13.944208896859958"><ele>167.60000000000002</ele><time>2026-05-03T10:01:58.001Z</time></trkpt><trkpt lat="42.24198729210652" lon="13.944160954495718"><ele>166.0</ele><time>2026-05-03T10:01:59.001Z</time></trkpt><trkpt lat="42.242051623181055" lon="13.944116228292712"><ele>164.83333333333334</ele><time>2026-05-03T10:02:00.001Z</time></trkpt><trkpt lat="42.24211595106214" lon="13.944066764252193"><ele>163.66666666666669</ele><time>2026-05-03T10:02:01.001Z</time></trkpt><trkpt lat="42.24218974000626" lon="13.944007516214718"><ele>162.5</ele><time>2026-05-03T10:02:02.001Z</time></trkpt><trkpt lat="42.24226778886741" lon="13.943943849387887"><ele>161.33333333333334</ele><time>2026-05-03T10:02:03.001Z</time></trkpt><trkpt lat="42.24234517114464" lon="13.943911884220594"><ele>160.16666666666666</ele><time>2026-05-03T10:02:04.001Z</time></trkpt><trkpt lat="42.24242112883157" lon="13.943863644345287"><ele>159.0</ele><time>2026-05-03T10:02:05.001Z</time></trkpt><trkpt lat="42.24250909802439" lon="13.943903819441939"><ele>158.5</ele><time>2026-05-03T10:02:06.001Z</time></trkpt><trkpt lat="42.24259214620512" lon="13.94390769225403"><ele>158.0</ele><time>2026-05-03T10:02:07.001Z</time></trkpt><trkpt lat="42.24264326388792" lon="13.943980630129118"><ele>157.5</ele><time>2026-05-03T10:02:08.001Z</time></trkpt><trkpt lat="42.2426684453761" lon="13.944071378963988"><ele>157.0</ele><time>2026-05-03T10:02:09.001Z</time></trkpt><trkpt lat="42.242655409590164" lon="13.944191472088672"><ele>156.5</ele><time>2026-05-03T10:02:10.001Z</time></trkpt><trkpt lat="42.242664212205554" lon="13.944345965558451"><ele>156.0</ele><time>2026-05-03T10:02:11.001Z</time></trkpt><trkpt lat="42.24268197231571" lon="13.944538098028696"><ele>156.0</ele><time>2026-05-03T10:02:12.001Z</time></trkpt><trkpt lat="42.24269785318423" lon="13.944752440951424"><ele>156.0</ele><time>2026-05-03T10:02:13.001Z</time></trkpt><trkpt lat="42.24273206152876" lon="13.944985514257027"><ele>156.0</ele><time>2026-05-03T10:02:14.001Z</time></trkpt><trkpt lat="42.24276747483681" lon="13.945218946138471"><ele>157.0</ele><time>2026-05-03T10:02:15.001Z</time></trkpt><trkpt lat="42.24281053385014" lon="13.94541978442448"><ele>158.0</ele><time>2026-05-03T10:02:16.001Z</time></trkpt><trkpt lat="42.24286028954388" lon="13.94562627376242"><ele>159.0</ele><time>2026-05-03T10:02:17.001Z</time></trkpt><trkpt lat="42.24291401303292" lon="13.945817763064802"><ele>159.33333333333334</ele><time>2026-05-03T10:02:18.001Z</time></trkpt><trkpt lat="42.24297660335018" lon="13.946006332721145"><ele>159.66666666666669</ele><time>2026-05-03T10:02:19.001Z</time></trkpt><trkpt lat="42.24305217974196" lon="13.946210150069485"><ele>160.0</ele><time>2026-05-03T10:02:20.001Z</time></trkpt><trkpt lat="42.24313723229159" lon="13.946411685954883"><ele>158.5</ele><time>2026-05-03T10:02:21.001Z</time></trkpt><trkpt lat="42.24321228729488" lon="13.946576192209193"><ele>157.0</ele><time>2026-05-03T10:02:22.001Z</time></trkpt><trkpt lat="42.24327939526247" lon="13.946723056719472"><ele>155.5</ele><time>2026-05-03T10:02:23.001Z</time></trkpt><trkpt lat="42.24335322339875" lon="13.946863417067199"><ele>154.0</ele><time>2026-05-03T10:02:24.001Z</time></trkpt><trkpt lat="42.24341434540211" lon="13.946990830528756"><ele>154.0</ele><time>2026-05-03T10:02:25.001Z</time></trkpt><trkpt lat="42.24342683492495" lon="13.94712697966743"><ele>154.0</ele><time>2026-05-03T10:02:26.001Z</time></trkpt><trkpt lat="42.243405023910825" lon="13.947235197090537"><ele>154.0</ele><time>2026-05-03T10:02:27.001Z</time></trkpt><trkpt lat="42.243381633262494" lon="13.947317779230108"><ele>154.0</ele><time>2026-05-03T10:02:28.001Z</time></trkpt><trkpt lat="42.24335449958401" lon="13.947407446274944"><ele>154.0</ele><time>2026-05-03T10:02:31.001Z</time></trkpt><trkpt lat="42.24348465062379" lon="13.94743186808145"><ele>154.0</ele><time>2026-05-03T10:02:33.001Z</time></trkpt><trkpt lat="42.24356876998231" lon="13.947366458174733"><ele>154.0</ele><time>2026-05-03T10:02:34.001Z</time></trkpt><trkpt lat="42.243686221176574" lon="13.947302354934605"><ele>154.0</ele><time>2026-05-03T10:02:35.001Z</time></trkpt><trkpt lat="42.243778916223995" lon="13.947234990472884"><ele>154.0</ele><time>2026-05-03T10:02:36.001Z</time></trkpt><trkpt lat="42.24388089855862" lon="13.947154873428206"><ele>154.0</ele><time>2026-05-03T10:02:37.001Z</time></trkpt><trkpt lat="42.243986871398164" lon="13.947061062509775"><ele>152.66666666666669</ele><time>2026-05-03T10:02:38.001Z</time></trkpt><trkpt lat="42.244088665503654" lon="13.946935694073211"><ele>151.33333333333334</ele><time>2026-05-03T10:02:39.001Z</time></trkpt><trkpt lat="42.24420617229644" lon="13.946807041445142"><ele>150.0</ele><time>2026-05-03T10:02:40.002Z</time></trkpt><trkpt lat="42.24432877518261" lon="13.946663874765616"><ele>149.66666666666666</ele><time>2026-05-03T10:02:41.002Z</time></trkpt><trkpt lat="42.24445969929531" lon="13.946515921948743"><ele>149.33333333333331</ele><time>2026-05-03T10:02:42.002Z</time></trkpt><trkpt lat="42.24457625016092" lon="13.946370368163466"><ele>149.0</ele><time>2026-05-03T10:02:43.002Z</time></trkpt><trkpt lat="42.244701294584914" lon="13.946214723867254"><ele>148.66666666666666</ele><time>2026-05-03T10:02:44.002Z</time></trkpt><trkpt lat="42.244822860692125" lon="13.946058415996376"><ele>148.33333333333334</ele><time>2026-05-03T10:02:45.002Z</time></trkpt><trkpt lat="42.244941842867256" lon="13.945893945588928"><ele>148.0</ele><time>2026-05-03T10:02:46.002Z</time></trkpt><trkpt lat="42.24506449178475" lon="13.945738599147164"><ele>147.33333333333334</ele><time>2026-05-03T10:02:47.002Z</time></trkpt><trkpt lat="42.245187259352754" lon="13.945601926218144"><ele>146.66666666666666</ele><time>2026-05-03T10:02:48.002Z</time></trkpt><trkpt lat="42.24532289010636" lon="13.945464465497283"><ele>146.0</ele><time>2026-05-03T10:02:49.002Z</time></trkpt><trkpt lat="42.24546837226599" lon="13.945324002221456"><ele>146.0</ele><time>2026-05-03T10:02:50.002Z</time></trkpt><trkpt lat="42.24561788502012" lon="13.945192831111557"><ele>146.0</ele><time>2026-05-03T10:02:51.002Z</time></trkpt><trkpt lat="42.2457535666552" lon="13.94507906949575"><ele>146.0</ele><time>2026-05-03T10:02:52.002Z</time></trkpt><trkpt lat="42.245873136230855" lon="13.944977165903921"><ele>145.8</ele><time>2026-05-03T10:02:53.002Z</time></trkpt><trkpt lat="42.24598061463738" lon="13.944879840336775"><ele>145.6</ele><time>2026-05-03T10:02:54.002Z</time></trkpt><trkpt lat="42.2460699398219" lon="13.944794060199182"><ele>145.4</ele><time>2026-05-03T10:02:55.002Z</time></trkpt><trkpt lat="42.246146459450074" lon="13.944725194160318"><ele>145.2</ele><time>2026-05-03T10:02:56.002Z</time></trkpt><trkpt lat="42.24621522738223" lon="13.944670968853211"><ele>145.0</ele><time>2026-05-03T10:02:57.002Z</time></trkpt><trkpt lat="42.24626224066729" lon="13.944605669349217"><ele>145.0</ele><time>2026-05-03T10:02:59.002Z</time></trkpt><trkpt lat="42.24637629769475" lon="13.94474760950117"><ele>145.0</ele><time>2026-05-03T10:03:00.002Z</time></trkpt><trkpt lat="42.246481865410736" lon="13.944852229315128"><ele>145.0</ele><time>2026-05-03T10:03:01.002Z</time></trkpt><trkpt lat="42.24660207882147" lon="13.944987087217457"><ele>145.0</ele><time>2026-05-03T10:03:02.002Z</time></trkpt><trkpt lat="42.246692065262465" lon="13.945150806442467"><ele>144.33333333333334</ele><time>2026-05-03T10:03:03.002Z</time></trkpt><trkpt lat="42.24678966778769" lon="13.945310227768598"><ele>143.66666666666666</ele><time>2026-05-03T10:03:04.002Z</time></trkpt><trkpt lat="42.24688141576598" lon="13.945465941988083"><ele>143.0</ele><time>2026-05-03T10:03:05.002Z</time></trkpt><trkpt lat="42.246980720945075" lon="13.94562170508163"><ele>143.0</ele><time>2026-05-03T10:03:06.002Z</time></trkpt><trkpt lat="42.24705427252533" lon="13.945772654282088"><ele>143.0</ele><time>2026-05-03T10:03:07.002Z</time></trkpt><trkpt lat="42.24714956126661" lon="13.945920526892392"><ele>143.0</ele><time>2026-05-03T10:03:08.002Z</time></trkpt><trkpt lat="42.24727788997414" lon="13.946073130991152"><ele>142.0</ele><time>2026-05-03T10:03:09.002Z</time></trkpt><trkpt lat="42.24740741257753" lon="13.94622411760653"><ele>141.0</ele><time>2026-05-03T10:03:10.002Z</time></trkpt><trkpt lat="42.247518132260204" lon="13.94637243326553"><ele>140.0</ele><time>2026-05-03T10:03:11.002Z</time></trkpt><trkpt lat="42.24761630315507" lon="13.946538741643353"><ele>140.0</ele><time>2026-05-03T10:03:12.002Z</time></trkpt><trkpt lat="42.247700766651114" lon="13.946693153281275"><ele>140.0</ele><time>2026-05-03T10:03:13.002Z</time></trkpt><trkpt lat="42.247779438777386" lon="13.946824206109449"><ele>140.0</ele><time>2026-05-03T10:03:14.002Z</time></trkpt><trkpt lat="42.24785251120216" lon="13.94692905136228"><ele>140.0</ele><time>2026-05-03T10:03:15.002Z</time></trkpt><trkpt lat="42.24792015041509" lon="13.947017529450685"><ele>140.2</ele><time>2026-05-03T10:03:16.002Z</time></trkpt><trkpt lat="42.247985039451095" lon="13.947086808571028"><ele>140.4</ele><time>2026-05-03T10:03:17.002Z</time></trkpt><trkpt lat="42.24805510607509" lon="13.947112691112963"><ele>140.6</ele><time>2026-05-03T10:03:18.002Z</time></trkpt><trkpt lat="42.2480758123138" lon="13.947323706778313"><ele>140.8</ele><time>2026-05-03T10:03:20.002Z</time></trkpt><trkpt lat="42.24806906476602" lon="13.947455772294997"><ele>141.0</ele><time>2026-05-03T10:03:21.002Z</time></trkpt><trkpt lat="42.24806225741431" lon="13.947608279945102"><ele>141.5</ele><time>2026-05-03T10:03:22.002Z</time></trkpt><trkpt lat="42.248076475636765" lon="13.947771970929722"><ele>142.0</ele><time>2026-05-03T10:03:23.002Z</time></trkpt><trkpt lat="42.248126827190056" lon="13.94792733621074"><ele>142.5</ele><time>2026-05-03T10:03:24Z</time></trkpt><trkpt lat="42.248220754601476" lon="13.948059741695449"><ele>143.0</ele><time>2026-05-03T10:03:25Z</time></trkpt><trkpt lat="42.24834824170794" lon="13.948191903615772"><ele>142.66666666666666</ele><time>2026-05-03T10:03:26Z</time></trkpt><trkpt lat="42.248485338402965" lon="13.948325712218363"><ele>142.33333333333334</ele><time>2026-05-03T10:03:27Z</time></trkpt><trkpt lat="42.248623173238386" lon="13.948480847407085"><ele>142.0</ele><time>2026-05-03T10:03:28Z</time></trkpt><trkpt lat="42.248758592749" lon="13.948644439160615"><ele>142.0</ele><time>2026-05-03T10:03:29Z</time></trkpt><trkpt lat="42.248885606087036" lon="13.948789352309289"><ele>142.0</ele><time>2026-05-03T10:03:30Z</time></trkpt><trkpt lat="42.249010390167975" lon="13.948935807442584"><ele>142.0</ele><time>2026-05-03T10:03:31Z</time></trkpt><trkpt lat="42.24914664228673" lon="13.949086426888218"><ele>141.33333333333334</ele><time>2026-05-03T10:03:32Z</time></trkpt><trkpt lat="42.24927969678336" lon="13.949238304434965"><ele>140.66666666666666</ele><time>2026-05-03T10:03:33Z</time></trkpt><trkpt lat="42.24941120627874" lon="13.949393799511524"><ele>140.0</ele><time>2026-05-03T10:03:34Z</time></trkpt><trkpt lat="42.24954600086717" lon="13.949555695870057"><ele>140.0</ele><time>2026-05-03T10:03:35Z</time></trkpt><trkpt lat="42.24968901817584" lon="13.94971373833503"><ele>140.0</ele><time>2026-05-03T10:03:36Z</time></trkpt><trkpt lat="42.249837590545305" lon="13.949880151968813"><ele>140.0</ele><time>2026-05-03T10:03:37Z</time></trkpt><trkpt lat="42.24999159059351" lon="13.950051210593033"><ele>139.33333333333331</ele><time>2026-05-03T10:03:38Z</time></trkpt><trkpt lat="42.25013176447991" lon="13.95021635508575"><ele>138.66666666666666</ele><time>2026-05-03T10:03:39Z</time></trkpt><trkpt lat="42.250261025934435" lon="13.950366079577966"><ele>138.0</ele><time>2026-05-03T10:03:40Z</time></trkpt><trkpt lat="42.25039100346587" lon="13.950503652651193"><ele>138.0</ele><time>2026-05-03T10:03:41Z</time></trkpt><trkpt lat="42.250529084652484" lon="13.950634539305135"><ele>138.0</ele><time>2026-05-03T10:03:42Z</time></trkpt><trkpt lat="42.250662533373934" lon="13.95073896830297"><ele>138.0</ele><time>2026-05-03T10:03:43Z</time></trkpt><trkpt lat="42.25078772843281" lon="13.950836644777617"><ele>137.8</ele><time>2026-05-03T10:03:44Z</time></trkpt><trkpt lat="42.25087700882619" lon="13.950928857282266"><ele>137.60000000000002</ele><time>2026-05-03T10:03:45Z</time></trkpt><trkpt lat="42.25093480083335" lon="13.951041014826547"><ele>137.39999999999998</ele><time>2026-05-03T10:03:46Z</time></trkpt><trkpt lat="42.25093559271442" lon="13.95119553678625"><ele>137.2</ele><time>2026-05-03T10:03:47Z</time></trkpt><trkpt lat="42.25094793477175" lon="13.9513334442543"><ele>137.0</ele><time>2026-05-03T10:03:48Z</time></trkpt><trkpt lat="42.25094315028149" lon="13.951473026252348"><ele>137.0</ele><time>2026-05-03T10:03:49Z</time></trkpt><trkpt lat="42.250948989431876" lon="13.951567649456676"><ele>137.0</ele><time>2026-05-03T10:03:50Z</time></trkpt><trkpt lat="42.25097987840686" lon="13.951675492722496"><ele>137.0</ele><time>2026-05-03T10:03:53Z</time></trkpt><trkpt lat="42.25106849618701" lon="13.95169791284379"><ele>137.0</ele><time>2026-05-03T10:03:54Z</time></trkpt><trkpt lat="42.251164234009934" lon="13.951706907278783"><ele>137.0</ele><time>2026-05-03T10:03:55.001Z</time></trkpt><trkpt lat="42.25128361911258" lon="13.95169817558953"><ele>137.0</ele><time>2026-05-03T10:03:56.001Z</time></trkpt><trkpt lat="42.25140685017499" lon="13.951702511832783"><ele>137.0</ele><time>2026-05-03T10:03:57.001Z</time></trkpt><trkpt lat="42.25152586628132" lon="13.951732089926109"><ele>137.0</ele><time>2026-05-03T10:03:58.001Z</time></trkpt><trkpt lat="42.251629113912145" lon="13.951765103529672"><ele>137.0</ele><time>2026-05-03T10:03:59.001Z</time></trkpt><trkpt lat="42.251719876162575" lon="13.95179562022747"><ele>137.0</ele><time>2026-05-03T10:04:00.001Z</time></trkpt><trkpt lat="42.25179732876708" lon="13.951824884915716"><ele>136.16666666666666</ele><time>2026-05-03T10:04:01.001Z</time></trkpt><trkpt lat="42.25186512622388" lon="13.95183938177829"><ele>135.33333333333331</ele><time>2026-05-03T10:04:02.001Z</time></trkpt><trkpt lat="42.251926941472625" lon="13.951856605068759"><ele>134.5</ele><time>2026-05-03T10:04:03.001Z</time></trkpt><trkpt lat="42.25204802286633" lon="13.951884286857545"><ele>133.66666666666666</ele><time>2026-05-03T10:04:05.001Z</time></trkpt><trkpt lat="42.252152244215964" lon="13.951890931353057"><ele>132.83333333333334</ele><time>2026-05-03T10:04:07.001Z</time></trkpt><trkpt lat="42.25223991638517" lon="13.951906012929417"><ele>132.0</ele><time>2026-05-03T10:05:29.002Z</time></trkpt><trkpt lat="42.252338789426084" lon="13.95187936831192"><ele>131.4</ele><time>2026-05-03T10:05:31.001Z</time></trkpt><trkpt lat="42.25241750035465" lon="13.951883146990554"><ele>130.79999999999998</ele><time>2026-05-03T10:05:32.001Z</time></trkpt><trkpt lat="42.252515027056056" lon="13.95190490423254"><ele>130.2</ele><time>2026-05-03T10:05:33.001Z</time></trkpt><trkpt lat="42.252614908081334" lon="13.951964179863245"><ele>129.6</ele><time>2026-05-03T10:05:34.001Z</time></trkpt><trkpt lat="42.25274630845572" lon="13.951992299624228"><ele>129.0</ele><time>2026-05-03T10:05:35.001Z</time></trkpt><trkpt lat="42.25287905684988" lon="13.952020707861609"><ele>129.0</ele><time>2026-05-03T10:05:36.001Z</time></trkpt><trkpt lat="42.252987205430564" lon="13.952043653977636"><ele>129.0</ele><time>2026-05-03T10:05:37.001Z</time></trkpt><trkpt lat="42.25307972610819" lon="13.952062291619065"><ele>129.0</ele><time>2026-05-03T10:05:38.001Z</time></trkpt><trkpt lat="42.253161301340995" lon="13.952078724377067"><ele>129.0</ele><time>2026-05-03T10:05:39.001Z</time></trkpt><trkpt lat="42.253235219115666" lon="13.952093614599121"><ele>129.0</ele><time>2026-05-03T10:05:40.001Z</time></trkpt><trkpt lat="42.25331158785526" lon="13.95216187374312"><ele>129.4</ele><time>2026-05-03T10:05:42.001Z</time></trkpt><trkpt lat="42.2532372851015" lon="13.952320352295716"><ele>129.8</ele><time>2026-05-03T10:05:44.001Z</time></trkpt><trkpt lat="42.25317902581882" lon="13.952435720814016"><ele>130.2</ele><time>2026-05-03T10:05:45.001Z</time></trkpt><trkpt lat="42.25313995884005" lon="13.952564354493553"><ele>130.6</ele><time>2026-05-03T10:05:46.001Z</time></trkpt><trkpt lat="42.25312831480737" lon="13.952683430822198"><ele>131.0</ele><time>2026-05-03T10:05:47.001Z</time></trkpt><trkpt lat="42.25313712216844" lon="13.95283790500659"><ele>130.75</ele><time>2026-05-03T10:05:48.001Z</time></trkpt><trkpt lat="42.2531443262397" lon="13.953024252696826"><ele>130.5</ele><time>2026-05-03T10:05:49.001Z</time></trkpt><trkpt lat="42.25314744776533" lon="13.953207767564722"><ele>130.25</ele><time>2026-05-03T10:05:50.001Z</time></trkpt><trkpt lat="42.25313110867622" lon="13.95341471713196"><ele>130.0</ele><time>2026-05-03T10:05:51.001Z</time></trkpt><trkpt lat="42.25309866335396" lon="13.953630786546546"><ele>130.0</ele><time>2026-05-03T10:05:52.001Z</time></trkpt><trkpt lat="42.253071194248484" lon="13.953829867882817"><ele>130.0</ele><time>2026-05-03T10:05:53.001Z</time></trkpt><trkpt lat="42.25304984698243" lon="13.954026493317356"><ele>130.0</ele><time>2026-05-03T10:05:54.001Z</time></trkpt><trkpt lat="42.25302703234426" lon="13.954245371228753"><ele>129.66666666666669</ele><time>2026-05-03T10:05:55.001Z</time></trkpt><trkpt lat="42.25299734603186" lon="13.954462328768399"><ele>129.33333333333334</ele><time>2026-05-03T10:05:56.001Z</time></trkpt><trkpt lat="42.252956677028685" lon="13.954707643588714"><ele>129.0</ele><time>2026-05-03T10:05:57.001Z</time></trkpt><trkpt lat="42.2529025992408" lon="13.954921556906513"><ele>129.0</ele><time>2026-05-03T10:05:58.001Z</time></trkpt><trkpt lat="42.252842751325396" lon="13.955117629292324"><ele>129.0</ele><time>2026-05-03T10:05:59.001Z</time></trkpt><trkpt lat="42.252773766156004" lon="13.955323205731267"><ele>129.0</ele><time>2026-05-03T10:06:00.001Z</time></trkpt><trkpt lat="42.25270693848385" lon="13.955518237437754"><ele>129.0</ele><time>2026-05-03T10:06:01.001Z</time></trkpt><trkpt lat="42.252633185667655" lon="13.955709743584674"><ele>129.0</ele><time>2026-05-03T10:06:02.001Z</time></trkpt><trkpt lat="42.25255115980573" lon="13.955881251528348"><ele>129.0</ele><time>2026-05-03T10:06:03.001Z</time></trkpt><trkpt lat="42.25243795575813" lon="13.956026650969488"><ele>129.66666666666666</ele><time>2026-05-03T10:06:04.001Z</time></trkpt><trkpt lat="42.25231161403545" lon="13.95615058079801"><ele>130.33333333333331</ele><time>2026-05-03T10:06:05.001Z</time></trkpt><trkpt lat="42.25217564289563" lon="13.956268532053071"><ele>131.0</ele><time>2026-05-03T10:06:06.001Z</time></trkpt><trkpt lat="42.25206386972061" lon="13.956379571883511"><ele>131.0</ele><time>2026-05-03T10:06:07.001Z</time></trkpt><trkpt lat="42.25193842470878" lon="13.956499052283547"><ele>131.0</ele><time>2026-05-03T10:06:08.001Z</time></trkpt><trkpt lat="42.25180023589105" lon="13.95667796650117"><ele>131.0</ele><time>2026-05-03T10:06:09.001Z</time></trkpt><trkpt lat="42.2516904032704" lon="13.95685666035585"><ele>131.0</ele><time>2026-05-03T10:06:10.001Z</time></trkpt><trkpt lat="42.25157642700796" lon="13.957036288064456"><ele>131.0</ele><time>2026-05-03T10:06:11.001Z</time></trkpt><trkpt lat="42.251474174977744" lon="13.95719730932681"><ele>131.0</ele><time>2026-05-03T10:06:12.001Z</time></trkpt><trkpt lat="42.25137980224818" lon="13.957342552874543"><ele>131.0</ele><time>2026-05-03T10:06:13.001Z</time></trkpt><trkpt lat="42.25129191225308" lon="13.957482811190614"><ele>131.0</ele><time>2026-05-03T10:06:14.001Z</time></trkpt><trkpt lat="42.25121298600907" lon="13.957615100125498"><ele>131.0</ele><time>2026-05-03T10:06:15.001Z</time></trkpt><trkpt lat="42.25114167291365" lon="13.957730888740763"><ele>131.0</ele><time>2026-05-03T10:06:16.001Z</time></trkpt><trkpt lat="42.25107336620809" lon="13.957838963364518"><ele>131.66666666666666</ele><time>2026-05-03T10:06:17.001Z</time></trkpt><trkpt lat="42.251013411049506" lon="13.957941446559234"><ele>132.33333333333331</ele><time>2026-05-03T10:06:18.001Z</time></trkpt><trkpt lat="42.25097580376491" lon="13.958045374007213"><ele>133.0</ele><time>2026-05-03T10:06:19.001Z</time></trkpt><trkpt lat="42.25094632227567" lon="13.958141519724219"><ele>133.66666666666666</ele><time>2026-05-03T10:06:20.001Z</time></trkpt><trkpt lat="42.25100778388748" lon="13.95824779208193"><ele>134.33333333333334</ele><time>2026-05-03T10:06:21.001Z</time></trkpt><trkpt lat="42.25102865660985" lon="13.958341258720946"><ele>135.0</ele><time>2026-05-03T10:06:22.001Z</time></trkpt><trkpt lat="42.251058955798094" lon="13.958439628104216"><ele>136.33333333333334</ele><time>2026-05-03T10:06:23.001Z</time></trkpt><trkpt lat="42.251079724123095" lon="13.95852222043831"><ele>137.66666666666669</ele><time>2026-05-03T10:06:24.001Z</time></trkpt><trkpt lat="42.25111251853869" lon="13.958618447434299"><ele>139.0</ele><time>2026-05-03T10:06:25.001Z</time></trkpt><trkpt lat="42.251516448377956" lon="13.9585879521349"><ele>139.0</ele><time>2026-05-03T10:06:26.001Z</time></trkpt><trkpt lat="42.25165515638609" lon="13.958712257418236"><ele>139.0</ele><time>2026-05-03T10:06:27.001Z</time></trkpt><trkpt lat="42.251799486792784" lon="13.958812198381821"><ele>139.0</ele><time>2026-05-03T10:06:28.001Z</time></trkpt><trkpt lat="42.25195727295767" lon="13.958895655691123"><ele>139.0</ele><time>2026-05-03T10:06:29.001Z</time></trkpt><trkpt lat="42.25214554698021" lon="13.95899257523804"><ele>139.0</ele><time>2026-05-03T10:06:30.001Z</time></trkpt><trkpt lat="42.25232096710122" lon="13.959106221312968"><ele>139.0</ele><time>2026-05-03T10:06:31.001Z</time></trkpt><trkpt lat="42.25246786743846" lon="13.959208615543528"><ele>139.75</ele><time>2026-05-03T10:06:32.001Z</time></trkpt><trkpt lat="42.25259572978844" lon="13.959279549380394"><ele>140.5</ele><time>2026-05-03T10:06:33.001Z</time></trkpt><trkpt lat="42.252710611450134" lon="13.95933918692633"><ele>141.25</ele><time>2026-05-03T10:06:34.001Z</time></trkpt><trkpt lat="42.25281309738739" lon="13.959380864857911"><ele>142.0</ele><time>2026-05-03T10:06:35.001Z</time></trkpt><trkpt lat="42.25292565558357" lon="13.959391649966472"><ele>142.0</ele><time>2026-05-03T10:06:36.001Z</time></trkpt><trkpt lat="42.253033685005796" lon="13.959351148747375"><ele>142.0</ele><time>2026-05-03T10:06:37.002Z</time></trkpt><trkpt lat="42.253143526750094" lon="13.959315963238947"><ele>142.0</ele><time>2026-05-03T10:06:38.002Z</time></trkpt><trkpt lat="42.25326340570909" lon="13.95928752251417"><ele>142.0</ele><time>2026-05-03T10:06:39.002Z</time></trkpt><trkpt lat="42.25339648563737" lon="13.959255670406144"><ele>142.2</ele><time>2026-05-03T10:06:40.002Z</time></trkpt><trkpt lat="42.253509688259484" lon="13.959204770671102"><ele>142.39999999999998</ele><time>2026-05-03T10:06:41.002Z</time></trkpt><trkpt lat="42.25360964161876" lon="13.959170698683028"><ele>142.60000000000002</ele><time>2026-05-03T10:06:42.002Z</time></trkpt><trkpt lat="42.25370875147609" lon="13.959184007487856"><ele>142.8</ele><time>2026-05-03T10:06:43.002Z</time></trkpt><trkpt lat="42.253778631556145" lon="13.95924449739431"><ele>143.0</ele><time>2026-05-03T10:06:44.002Z</time></trkpt><trkpt lat="42.25386190012895" lon="13.959317616069706"><ele>143.0</ele><time>2026-05-03T10:06:45.002Z</time></trkpt><trkpt lat="42.25395397698697" lon="13.959411692236943"><ele>143.0</ele><time>2026-05-03T10:06:46.002Z</time></trkpt><trkpt lat="42.254040319651935" lon="13.959518898055709"><ele>143.0</ele><time>2026-05-03T10:06:47.002Z</time></trkpt><trkpt lat="42.25414184389643" lon="13.95963407822557"><ele>143.0</ele><time>2026-05-03T10:06:48.002Z</time></trkpt><trkpt lat="42.25424108433557" lon="13.959750649544825"><ele>145.66666666666666</ele><time>2026-05-03T10:06:49.002Z</time></trkpt><trkpt lat="42.254349391856834" lon="13.959886761085507"><ele>148.33333333333334</ele><time>2026-05-03T10:06:50.002Z</time></trkpt><trkpt lat="42.254466272116396" lon="13.960045254396285"><ele>151.0</ele><time>2026-05-03T10:06:51.002Z</time></trkpt><trkpt lat="42.25455407340582" lon="13.960210115425518"><ele>151.0</ele><time>2026-05-03T10:06:52.002Z</time></trkpt><trkpt lat="42.25460807598578" lon="13.960373866059763"><ele>151.0</ele><time>2026-05-03T10:06:53.002Z</time></trkpt><trkpt lat="42.25466124954942" lon="13.96057813581304"><ele>151.0</ele><time>2026-05-03T10:06:54.002Z</time></trkpt><trkpt lat="42.25472330464448" lon="13.960747763372535"><ele>151.0</ele><time>2026-05-03T10:06:55.002Z</time></trkpt><trkpt lat="42.25482184118804" lon="13.960880148683032"><ele>153.2</ele><time>2026-05-03T10:06:56.002Z</time></trkpt><trkpt lat="42.25492258805699" lon="13.960964314138506"><ele>155.39999999999998</ele><time>2026-05-03T10:06:57.002Z</time></trkpt><trkpt lat="42.25501151048527" lon="13.961012848919825"><ele>157.6</ele><time>2026-05-03T10:06:58.002Z</time></trkpt><trkpt lat="42.255114413869606" lon="13.96102442993338"><ele>159.79999999999998</ele><time>2026-05-03T10:06:59.002Z</time></trkpt><trkpt lat="42.25521861984431" lon="13.961024541094483"><ele>162.0</ele><time>2026-05-03T10:07:00.002Z</time></trkpt><trkpt lat="42.255319560430614" lon="13.960996095590048"><ele>162.0</ele><time>2026-05-03T10:07:01.002Z</time></trkpt><trkpt lat="42.25542737943577" lon="13.960945188498293"><ele>162.0</ele><time>2026-05-03T10:07:02.002Z</time></trkpt><trkpt lat="42.25555247362666" lon="13.960902765840029"><ele>162.0</ele><time>2026-05-03T10:07:03.002Z</time></trkpt><trkpt lat="42.25567716384951" lon="13.960891461147012"><ele>162.0</ele><time>2026-05-03T10:07:04.002Z</time></trkpt><trkpt lat="42.255789270809665" lon="13.960935199375395"><ele>165.75</ele><time>2026-05-03T10:07:05.002Z</time></trkpt><trkpt lat="42.25590576937399" lon="13.960965082744629"><ele>169.5</ele><time>2026-05-03T10:07:06.002Z</time></trkpt><trkpt lat="42.25599340654393" lon="13.960949784417835"><ele>173.25</ele><time>2026-05-03T10:07:07.002Z</time></trkpt><trkpt lat="42.25611404317979" lon="13.960902825438529"><ele>177.0</ele><time>2026-05-03T10:07:08.002Z</time></trkpt><trkpt lat="42.25623402684325" lon="13.960849615370037"><ele>178.0</ele><time>2026-05-03T10:07:09.002Z</time></trkpt><trkpt lat="42.256379121903514" lon="13.960774495987147"><ele>179.0</ele><time>2026-05-03T10:07:10.002Z</time></trkpt><trkpt lat="42.256536314439394" lon="13.960714306787068"><ele>180.0</ele><time>2026-05-03T10:07:11.002Z</time></trkpt><trkpt lat="42.25668652219148" lon="13.960652713031457"><ele>183.2</ele><time>2026-05-03T10:07:12.002Z</time></trkpt><trkpt lat="42.256846236763685" lon="13.96058817139059"><ele>186.4</ele><time>2026-05-03T10:07:13.002Z</time></trkpt><trkpt lat="42.25694440517147" lon="13.960551516025562"><ele>189.60000000000002</ele><time>2026-05-03T10:07:14.002Z</time></trkpt><trkpt lat="42.257010969032635" lon="13.960538300779367"><ele>192.8</ele><time>2026-05-03T10:07:16.002Z</time></trkpt><trkpt lat="42.25699310089379" lon="13.960411528935769"><ele>196.0</ele><time>2026-05-03T10:07:19.002Z</time></trkpt><trkpt lat="42.256963069253594" lon="13.960332655448061"><ele>195.99999999999997</ele><time>2026-05-03T10:07:20.002Z</time></trkpt><trkpt lat="42.256911597970706" lon="13.960226678131079"><ele>196.0</ele><time>2026-05-03T10:07:22.002Z</time></trkpt><trkpt lat="42.256891198310505" lon="13.960124873426214"><ele>196.0</ele><time>2026-05-03T10:07:24.002Z</time></trkpt><trkpt lat="42.256950548142356" lon="13.960069314182865"><ele>196.0</ele><time>2026-05-03T10:07:27.002Z</time></trkpt><trkpt lat="42.25700708194058" lon="13.96001019681316"><ele>195.99999999999997</ele><time>2026-05-03T10:07:30.002Z</time></trkpt><trkpt lat="42.25706959761515" lon="13.960130131093521"><ele>196.0</ele><time>2026-05-03T10:07:32.002Z</time></trkpt><trkpt lat="42.257111339855875" lon="13.960327448978823"><ele>196.0</ele><time>2026-05-03T10:07:33.002Z</time></trkpt><trkpt lat="42.25718686670307" lon="13.960534202723908"><ele>196.0</ele><time>2026-05-03T10:07:34.002Z</time></trkpt><trkpt lat="42.257278330365196" lon="13.960781899097048"><ele>196.0</ele><time>2026-05-03T10:07:35.002Z</time></trkpt><trkpt lat="42.25739196988143" lon="13.961073021652746"><ele>198.0</ele><time>2026-05-03T10:07:36.001Z</time></trkpt><trkpt lat="42.2575292413195" lon="13.961393695932003"><ele>200.0</ele><time>2026-05-03T10:07:37.001Z</time></trkpt><trkpt lat="42.25762632390355" lon="13.961675703903135"><ele>199.66666666666669</ele><time>2026-05-03T10:07:38.001Z</time></trkpt><trkpt lat="42.257710202265415" lon="13.96190492539908"><ele>199.33333333333331</ele><time>2026-05-03T10:07:39.001Z</time></trkpt><trkpt lat="42.25777794881454" lon="13.96207224652529"><ele>199.0</ele><time>2026-05-03T10:07:40.001Z</time></trkpt><trkpt lat="42.2578378583524" lon="13.962219055359034"><ele>199.0</ele><time>2026-05-03T10:07:41.001Z</time></trkpt><trkpt lat="42.25790337253574" lon="13.962393412424804"><ele>199.0</ele><time>2026-05-03T10:07:42.001Z</time></trkpt><trkpt lat="42.25796266186184" lon="13.962553316770267"><ele>199.0</ele><time>2026-05-03T10:07:43.001Z</time></trkpt><trkpt lat="42.258028654620766" lon="13.962725500069064"><ele>199.0</ele><time>2026-05-03T10:07:44.001Z</time></trkpt><trkpt lat="42.2580990314173" lon="13.962888477473323"><ele>200.25</ele><time>2026-05-03T10:07:45.001Z</time></trkpt><trkpt lat="42.258157640408584" lon="13.963027926346262"><ele>201.5</ele><time>2026-05-03T10:07:46.001Z</time></trkpt><trkpt lat="42.258213850634824" lon="13.963157455164243"><ele>202.75</ele><time>2026-05-03T10:07:47.001Z</time></trkpt><trkpt lat="42.25827129218809" lon="13.963306371799154"><ele>204.0</ele><time>2026-05-03T10:07:48.001Z</time></trkpt><trkpt lat="42.25833813503165" lon="13.963478237300388"><ele>204.25</ele><time>2026-05-03T10:07:49.001Z</time></trkpt><trkpt lat="42.25840596711836" lon="13.963632052891901"><ele>204.5</ele><time>2026-05-03T10:07:50.001Z</time></trkpt><trkpt lat="42.25843067510834" lon="13.963776092882219"><ele>204.75</ele><time>2026-05-03T10:07:51.001Z</time></trkpt><trkpt lat="42.258451547354184" lon="13.963910030965828"><ele>205.0</ele><time>2026-05-03T10:07:52.001Z</time></trkpt><trkpt lat="42.2584437241352" lon="13.964057342761134"><ele>205.33333333333331</ele><time>2026-05-03T10:07:53.001Z</time></trkpt><trkpt lat="42.258437879749515" lon="13.964252761834576"><ele>205.66666666666669</ele><time>2026-05-03T10:07:54.001Z</time></trkpt><trkpt lat="42.25840032704481" lon="13.964402813285593"><ele>206.0</ele><time>2026-05-03T10:07:55.001Z</time></trkpt><trkpt lat="42.25899069550235" lon="13.964784301808807"><ele>206.66666666666669</ele><time>2026-05-03T10:07:56.001Z</time></trkpt><trkpt lat="42.259122788861276" lon="13.965041984293421"><ele>207.33333333333331</ele><time>2026-05-03T10:07:57.001Z</time></trkpt><trkpt lat="42.25923493862704" lon="13.965260479050128"><ele>208.0</ele><time>2026-05-03T10:07:58.001Z</time></trkpt><trkpt lat="42.259323163610624" lon="13.965439446141314"><ele>208.0</ele><time>2026-05-03T10:07:59.001Z</time></trkpt><trkpt lat="42.25939757871897" lon="13.965591032074823"><ele>208.0</ele><time>2026-05-03T10:08:00.001Z</time></trkpt><trkpt lat="42.25946308877594" lon="13.965720868544933"><ele>208.0</ele><time>2026-05-03T10:08:01.001Z</time></trkpt><trkpt lat="42.25951376252262" lon="13.965829599191945"><ele>208.0</ele><time>2026-05-03T10:08:02.001Z</time></trkpt><trkpt lat="42.2595289734233" lon="13.96594203360945"><ele>208.0</ele><time>2026-05-03T10:08:04.001Z</time></trkpt><trkpt lat="42.259528100934695" lon="13.966061491784355"><ele>208.4</ele><time>2026-05-03T10:08:07.001Z</time></trkpt><trkpt lat="42.25956727115528" lon="13.966219129453997"><ele>208.8</ele><time>2026-05-03T10:08:09.001Z</time></trkpt><trkpt lat="42.25957610704994" lon="13.966329817003082"><ele>209.2</ele><time>2026-05-03T10:08:10.001Z</time></trkpt><trkpt lat="42.25958367809998" lon="13.966477760484345"><ele>209.6</ele><time>2026-05-03T10:08:11.001Z</time></trkpt><trkpt lat="42.25958898742212" lon="13.96658248271099"><ele>210.0</ele><time>2026-05-03T10:08:12.001Z</time></trkpt><trkpt lat="42.2595976240771" lon="13.966690607365546"><ele>210.8</ele><time>2026-05-03T10:08:13.001Z</time></trkpt><trkpt lat="42.25959009388153" lon="13.966800209310888"><ele>211.6</ele><time>2026-05-03T10:08:14.001Z</time></trkpt><trkpt lat="42.25956084257742" lon="13.966887818246487"><ele>212.39999999999998</ele><time>2026-05-03T10:08:15.001Z</time></trkpt><trkpt lat="42.259582462341264" lon="13.967020572730094"><ele>213.2</ele><time>2026-05-03T10:08:17.001Z</time></trkpt><trkpt lat="42.25962892450466" lon="13.967141397902136"><ele>214.0</ele><time>2026-05-03T10:08:18.001Z</time></trkpt><trkpt lat="42.259701110222416" lon="13.967316677643435"><ele>214.0</ele><time>2026-05-03T10:08:19.001Z</time></trkpt><trkpt lat="42.259766705010826" lon="13.967516221075613"><ele>214.0</ele><time>2026-05-03T10:08:20.001Z</time></trkpt><trkpt lat="42.25981766635467" lon="13.96768512503261"><ele>214.0</ele><time>2026-05-03T10:08:21.001Z</time></trkpt><trkpt lat="42.25985218862246" lon="13.967829493694262"><ele>214.0</ele><time>2026-05-03T10:08:22.001Z</time></trkpt><trkpt lat="42.259878557563304" lon="13.967952535692227"><ele>209.25</ele><time>2026-05-03T10:08:23.001Z</time></trkpt><trkpt lat="42.25992619179472" lon="13.968052519062203"><ele>204.5</ele><time>2026-05-03T10:08:24.001Z</time></trkpt><trkpt lat="42.260004458557226" lon="13.968178423567004"><ele>199.75</ele><time>2026-05-03T10:08:25.001Z</time></trkpt><trkpt lat="42.26008056168322" lon="13.968352580702337"><ele>195.0</ele><time>2026-05-03T10:08:26.001Z</time></trkpt><trkpt lat="42.26015986244098" lon="13.968574241369284"><ele>194.66666666666669</ele><time>2026-05-03T10:08:27.001Z</time></trkpt><trkpt lat="42.260252371349225" lon="13.968814563266465"><ele>194.33333333333334</ele><time>2026-05-03T10:08:28.001Z</time></trkpt><trkpt lat="42.26032934826298" lon="13.969002886762121"><ele>194.0</ele><time>2026-05-03T10:08:29.001Z</time></trkpt><trkpt lat="42.26040292426199" lon="13.969193910241412"><ele>195.0</ele><time>2026-05-03T10:08:30.001Z</time></trkpt><trkpt lat="42.26047657465227" lon="13.969374831446503"><ele>196.0</ele><time>2026-05-03T10:08:31.001Z</time></trkpt><trkpt lat="42.26053849827955" lon="13.969537894354135"><ele>197.0</ele><time>2026-05-03T10:08:32.001Z</time></trkpt><trkpt lat="42.260621067427344" lon="13.96975951209579"><ele>196.66666666666669</ele><time>2026-05-03T10:08:33.001Z</time></trkpt><trkpt lat="42.2607142606191" lon="13.969998270689493"><ele>196.33333333333331</ele><time>2026-05-03T10:08:34.001Z</time></trkpt><trkpt lat="42.26080599615931" lon="13.970235281160235"><ele>196.0</ele><time>2026-05-03T10:08:35.001Z</time></trkpt><trkpt lat="42.26088017458973" lon="13.970428896793367"><ele>196.0</ele><time>2026-05-03T10:08:36.001Z</time></trkpt><trkpt lat="42.260944524271686" lon="13.9705893753227"><ele>196.0</ele><time>2026-05-03T10:08:37.001Z</time></trkpt><trkpt lat="42.260997454711024" lon="13.970756810995566"><ele>196.0</ele><time>2026-05-03T10:08:38.001Z</time></trkpt><trkpt lat="42.261074784235355" lon="13.970970931992882"><ele>196.0</ele><time>2026-05-03T10:08:39.001Z</time></trkpt><trkpt lat="42.261155896354715" lon="13.9711761187865"><ele>197.0</ele><time>2026-05-03T10:08:40.001Z</time></trkpt><trkpt lat="42.261195390967" lon="13.971306307754089"><ele>198.0</ele><time>2026-05-03T10:08:41.001Z</time></trkpt><trkpt lat="42.26121099386006" lon="13.971430296164431"><ele>199.0</ele><time>2026-05-03T10:08:42.001Z</time></trkpt><trkpt lat="42.261237322144424" lon="13.97153394272593"><ele>200.0</ele><time>2026-05-03T10:08:43.001Z</time></trkpt><trkpt lat="42.26129746748021" lon="13.971640388809343"><ele>201.0</ele><time>2026-05-03T10:08:44.001Z</time></trkpt><trkpt lat="42.26138814893367" lon="13.971797844720358"><ele>199.25</ele><time>2026-05-03T10:08:45.001Z</time></trkpt><trkpt lat="42.26145036051155" lon="13.971957149652003"><ele>197.5</ele><time>2026-05-03T10:08:46.001Z</time></trkpt><trkpt lat="42.261485760868744" lon="13.972090419686886"><ele>195.75</ele><time>2026-05-03T10:08:47.001Z</time></trkpt><trkpt lat="42.261523559687184" lon="13.97223415886674"><ele>194.0</ele><time>2026-05-03T10:08:48.001Z</time></trkpt><trkpt lat="42.261590750437314" lon="13.972426622176368"><ele>193.75</ele><time>2026-05-03T10:08:49.001Z</time></trkpt><trkpt lat="42.26167103729954" lon="13.972609643719291"><ele>193.5</ele><time>2026-05-03T10:08:50.001Z</time></trkpt><trkpt lat="42.26174605653374" lon="13.972750628031829"><ele>193.25</ele><time>2026-05-03T10:08:51.001Z</time></trkpt><trkpt lat="42.261808377805814" lon="13.972870326372297"><ele>193.0</ele><time>2026-05-03T10:08:52.001Z</time></trkpt><trkpt lat="42.26185120661959" lon="13.972990901513226"><ele>193.0</ele><time>2026-05-03T10:08:53.001Z</time></trkpt><trkpt lat="42.26189310680444" lon="13.97314257688805"><ele>193.0</ele><time>2026-05-03T10:08:54.001Z</time></trkpt><trkpt lat="42.261951941287094" lon="13.973311657098238"><ele>193.0</ele><time>2026-05-03T10:08:55.001Z</time></trkpt><trkpt lat="42.26200201974401" lon="13.973450248735832"><ele>193.0</ele><time>2026-05-03T10:08:56.001Z</time></trkpt><trkpt lat="42.26202234440637" lon="13.973569622451116"><ele>194.0</ele><time>2026-05-03T10:08:57.001Z</time></trkpt><trkpt lat="42.26203804973625" lon="13.973680087826025"><ele>195.0</ele><time>2026-05-03T10:08:58.001Z</time></trkpt><trkpt lat="42.26208836889626" lon="13.973793854002817"><ele>196.0</ele><time>2026-05-03T10:08:59.001Z</time></trkpt><trkpt lat="42.262163618631924" lon="13.97393575114474"><ele>197.0</ele><time>2026-05-03T10:09:00.001Z</time></trkpt><trkpt lat="42.26224537433485" lon="13.974115017570746"><ele>195.0</ele><time>2026-05-03T10:09:01.001Z</time></trkpt><trkpt lat="42.26232128944431" lon="13.974308111611261"><ele>193.0</ele><time>2026-05-03T10:09:02.001Z</time></trkpt><trkpt lat="42.262383138199105" lon="13.974492358797225"><ele>191.0</ele><time>2026-05-03T10:09:03.001Z</time></trkpt><trkpt lat="42.26242903409515" lon="13.974701889962944"><ele>191.0</ele><time>2026-05-03T10:09:04.001Z</time></trkpt><trkpt lat="42.26247195500642" lon="13.974948174095315"><ele>191.0</ele><time>2026-05-03T10:09:05.001Z</time></trkpt><trkpt lat="42.2625157485628" lon="13.97520889872006"><ele>191.0</ele><time>2026-05-03T10:09:06.001Z</time></trkpt><trkpt lat="42.262556622959394" lon="13.975480725790945"><ele>193.5</ele><time>2026-05-03T10:09:07.001Z</time></trkpt><trkpt lat="42.26259170714999" lon="13.975684266870882"><ele>196.0</ele><time>2026-05-03T10:09:08.001Z</time></trkpt><trkpt lat="42.26261501881583" lon="13.975815640877961"><ele>198.5</ele><time>2026-05-03T10:09:09.001Z</time></trkpt><trkpt lat="42.26261749394892" lon="13.975919048749775"><ele>201.0</ele><time>2026-05-03T10:09:10.001Z</time></trkpt><trkpt lat="42.26254068884825" lon="13.976062832925104"><ele>202.60000000000002</ele><time>2026-05-03T10:09:12.002Z</time></trkpt><trkpt lat="42.26246416581235" lon="13.976138775537603"><ele>204.2</ele><time>2026-05-03T10:09:13.002Z</time></trkpt><trkpt lat="42.26243235570699" lon="13.97621387181739"><ele>205.8</ele><time>2026-05-03T10:09:14.002Z</time></trkpt><trkpt lat="42.262451454391034" lon="13.976364603046923"><ele>207.39999999999998</ele><time>2026-05-03T10:09:16.002Z</time></trkpt><trkpt lat="42.26247696324052" lon="13.976492952637393"><ele>209.0</ele><time>2026-05-03T10:09:17.002Z</time></trkpt><trkpt lat="42.2625244582883" lon="13.976665541277505"><ele>211.33333333333334</ele><time>2026-05-03T10:09:18.002Z</time></trkpt><trkpt lat="42.26258790135254" lon="13.976897510751861"><ele>213.66666666666669</ele><time>2026-05-03T10:09:19.002Z</time></trkpt><trkpt lat="42.26265426448269" lon="13.977136844920087"><ele>216.0</ele><time>2026-05-03T10:09:20.002Z</time></trkpt><trkpt lat="42.26272351037182" lon="13.97737783989511"><ele>218.66666666666669</ele><time>2026-05-03T10:09:21.002Z</time></trkpt><trkpt lat="42.26277862849094" lon="13.977614914321213"><ele>221.33333333333334</ele><time>2026-05-03T10:09:22.002Z</time></trkpt><trkpt lat="42.262827298724794" lon="13.977844970966215"><ele>224.0</ele><time>2026-05-03T10:09:23.002Z</time></trkpt><trkpt lat="42.26286749171776" lon="13.978049024720896"><ele>224.0</ele><time>2026-05-03T10:09:24.002Z</time></trkpt><trkpt lat="42.26290069424431" lon="13.97822484037184"><ele>224.0</ele><time>2026-05-03T10:09:25.002Z</time></trkpt><trkpt lat="42.26292972576839" lon="13.978399470674619"><ele>224.0</ele><time>2026-05-03T10:09:26.002Z</time></trkpt><trkpt lat="42.26295770290371" lon="13.978567413490902"><ele>224.0</ele><time>2026-05-03T10:09:27.002Z</time></trkpt><trkpt lat="42.262980264030546" lon="13.978724427024696"><ele>225.5</ele><time>2026-05-03T10:09:28.002Z</time></trkpt><trkpt lat="42.262995955626" lon="13.978876188144689"><ele>227.0</ele><time>2026-05-03T10:09:29.002Z</time></trkpt><trkpt lat="42.26300269548034" lon="13.979032055311748"><ele>228.5</ele><time>2026-05-03T10:09:30.002Z</time></trkpt><trkpt lat="42.263012172176424" lon="13.979190843870235"><ele>230.0</ele><time>2026-05-03T10:09:31.002Z</time></trkpt><trkpt lat="42.263013097287974" lon="13.979343196523189"><ele>230.2</ele><time>2026-05-03T10:09:32.002Z</time></trkpt><trkpt lat="42.26297932419736" lon="13.97945877540865"><ele>230.4</ele><time>2026-05-03T10:09:33.002Z</time></trkpt><trkpt lat="42.26295857303405" lon="13.979545588144346"><ele>230.60000000000002</ele><time>2026-05-03T10:09:34.002Z</time></trkpt><trkpt lat="42.26310204619635" lon="13.979669547235556"><ele>230.8</ele><time>2026-05-03T10:09:36.002Z</time></trkpt><trkpt lat="42.263180558789394" lon="13.979709313741632"><ele>231.0</ele><time>2026-05-03T10:09:37.002Z</time></trkpt><trkpt lat="42.26325340412051" lon="13.979828386365458"><ele>227.5</ele><time>2026-05-03T10:09:39.002Z</time></trkpt><trkpt lat="42.26330363004347" lon="13.979921508705445"><ele>224.0</ele><time>2026-05-03T10:09:40.002Z</time></trkpt><trkpt lat="42.26337056405928" lon="13.980044276787622"><ele>220.5</ele><time>2026-05-03T10:09:41.002Z</time></trkpt><trkpt lat="42.26341912230474" lon="13.980226450516575"><ele>217.0</ele><time>2026-05-03T10:09:41.999Z</time></trkpt><trkpt lat="42.26342078373294" lon="13.980417318879633"><ele>217.0</ele><time>2026-05-03T10:09:42.999Z</time></trkpt><trkpt lat="42.26340692350616" lon="13.980578336065623"><ele>217.0</ele><time>2026-05-03T10:09:43.999Z</time></trkpt><trkpt lat="42.26338204718149" lon="13.98076625932444"><ele>217.0</ele><time>2026-05-03T10:09:44.999Z</time></trkpt><trkpt lat="42.26335411962343" lon="13.98094875849541"><ele>217.0</ele><time>2026-05-03T10:09:45.999Z</time></trkpt><trkpt lat="42.263351794387354" lon="13.981102905869104"><ele>217.16666666666666</ele><time>2026-05-03T10:09:47Z</time></trkpt><trkpt lat="42.26339936852862" lon="13.981229225835918"><ele>217.33333333333331</ele><time>2026-05-03T10:09:47.999Z</time></trkpt><trkpt lat="42.263433799214184" lon="13.981353211623366"><ele>217.5</ele><time>2026-05-03T10:09:48.999Z</time></trkpt><trkpt lat="42.263482094110834" lon="13.981436735703994"><ele>217.66666666666669</ele><time>2026-05-03T10:09:51Z</time></trkpt><trkpt lat="42.26351544518679" lon="13.981341693180871"><ele>217.83333333333334</ele><time>2026-05-03T10:10:00Z</time></trkpt><trkpt lat="42.26357577217593" lon="13.9812741133157"><ele>218.0</ele><time>2026-05-03T10:10:01Z</time></trkpt><trkpt lat="42.263653775374884" lon="13.981206910293565"><ele>218.00000000000003</ele><time>2026-05-03T10:10:02Z</time></trkpt><trkpt lat="42.26372599891253" lon="13.981108724727347"><ele>218.0</ele><time>2026-05-03T10:10:03Z</time></trkpt><trkpt lat="42.26381346281047" lon="13.981040000602885"><ele>218.0</ele><time>2026-05-03T10:10:04Z</time></trkpt><trkpt lat="42.263900990780435" lon="13.981004161745519"><ele>218.0</ele><time>2026-05-03T10:10:05Z</time></trkpt><trkpt lat="42.263975377844865" lon="13.980982405776968"><ele>218.00000000000003</ele><time>2026-05-03T10:10:06Z</time></trkpt><trkpt lat="42.26403660425194" lon="13.981033532472122"><ele>218.0</ele><time>2026-05-03T10:10:07Z</time></trkpt><trkpt lat="42.26414285758466" lon="13.981170183845638"><ele>215.4</ele><time>2026-05-03T10:10:09Z</time></trkpt><trkpt lat="42.264183096119616" lon="13.981281433261135"><ele>212.8</ele><time>2026-05-03T10:10:10Z</time></trkpt><trkpt lat="42.26422232086123" lon="13.981361221144828"><ele>210.2</ele><time>2026-05-03T10:10:11Z</time></trkpt><trkpt lat="42.26429975792732" lon="13.981497255009675"><ele>207.6</ele><time>2026-05-03T10:10:13Z</time></trkpt><trkpt lat="42.26435394004218" lon="13.981552658000176"><ele>205.0</ele><time>2026-05-03T10:10:14Z</time></trkpt><trkpt lat="42.26443885972792" lon="13.981615375690618"><ele>205.0</ele><time>2026-05-03T10:10:15Z</time></trkpt><trkpt lat="42.264539530299885" lon="13.981661287542325"><ele>205.0</ele><time>2026-05-03T10:10:16Z</time></trkpt><trkpt lat="42.26463260430499" lon="13.981724542406361"><ele>205.0</ele><time>2026-05-03T10:10:17Z</time></trkpt><trkpt lat="42.26469669951608" lon="13.98184760398227"><ele>205.0</ele><time>2026-05-03T10:10:18Z</time></trkpt><trkpt lat="42.264741477252706" lon="13.982012446123507"><ele>205.0</ele><time>2026-05-03T10:10:19Z</time></trkpt><trkpt lat="42.26477421719808" lon="13.982188118517636"><ele>205.0</ele><time>2026-05-03T10:10:20Z</time></trkpt><trkpt lat="42.264789730991474" lon="13.982362323690092"><ele>205.0</ele><time>2026-05-03T10:10:21Z</time></trkpt><trkpt lat="42.26481358813819" lon="13.982542650862635"><ele>205.0</ele><time>2026-05-03T10:10:22Z</time></trkpt><trkpt lat="42.26484097644284" lon="13.982723190615213"><ele>201.8</ele><time>2026-05-03T10:10:23Z</time></trkpt><trkpt lat="42.264862271370475" lon="13.98287834829923"><ele>198.6</ele><time>2026-05-03T10:10:24Z</time></trkpt><trkpt lat="42.26487998822101" lon="13.983013687567915"><ele>195.39999999999998</ele><time>2026-05-03T10:10:25Z</time></trkpt><trkpt lat="42.26488849883415" lon="13.983148264010374"><ele>192.2</ele><time>2026-05-03T10:10:26Z</time></trkpt><trkpt lat="42.26489929944666" lon="13.983295008923411"><ele>189.0</ele><time>2026-05-03T10:10:27Z</time></trkpt><trkpt lat="42.26490242585852" lon="13.983440600670912"><ele>188.33333333333334</ele><time>2026-05-03T10:10:28Z</time></trkpt><trkpt lat="42.26491884319213" lon="13.983577744450033"><ele>187.66666666666666</ele><time>2026-05-03T10:10:29Z</time></trkpt><trkpt lat="42.264935722613025" lon="13.983690369035553"><ele>187.0</ele><time>2026-05-03T10:10:30Z</time></trkpt><trkpt lat="42.26496189981778" lon="13.983795996525973"><ele>186.33333333333331</ele><time>2026-05-03T10:10:31Z</time></trkpt><trkpt lat="42.2649858615773" lon="13.98388515015903"><ele>185.66666666666666</ele><time>2026-05-03T10:10:32Z</time></trkpt><trkpt lat="42.26502570630373" lon="13.983952749175407"><ele>185.0</ele><time>2026-05-03T10:10:33Z</time></trkpt><trkpt lat="42.26512916220339" lon="13.983917989274232"><ele>185.0</ele><time>2026-05-03T10:10:35Z</time></trkpt><trkpt lat="42.26517899674914" lon="13.983856270094332"><ele>185.0</ele><time>2026-05-03T10:10:36Z</time></trkpt><trkpt lat="42.26522819032759" lon="13.983758777975059"><ele>185.0</ele><time>2026-05-03T10:10:37Z</time></trkpt><trkpt lat="42.26526584120224" lon="13.983640897694903"><ele>185.0</ele><time>2026-05-03T10:10:38Z</time></trkpt><trkpt lat="42.26527439048884" lon="13.98351140636617"><ele>185.0</ele><time>2026-05-03T10:10:39Z</time></trkpt><trkpt lat="42.26524814783033" lon="13.983367557196283"><ele>186.0</ele><time>2026-05-03T10:10:40Z</time></trkpt><trkpt lat="42.26520686972708" lon="13.983189144686945"><ele>187.0</ele><time>2026-05-03T10:10:41Z</time></trkpt><trkpt lat="42.265185196661776" lon="13.982994402938697"><ele>188.0</ele><time>2026-05-03T10:10:42Z</time></trkpt><trkpt lat="42.26519254294099" lon="13.982829722512681"><ele>189.0</ele><time>2026-05-03T10:10:43Z</time></trkpt><trkpt lat="42.2652272253091" lon="13.982671002585441"><ele>189.0</ele><time>2026-05-03T10:10:44.001Z</time></trkpt><trkpt lat="42.26529066947161" lon="13.982509830282362"><ele>189.0</ele><time>2026-05-03T10:10:45.001Z</time></trkpt><trkpt lat="42.265355214120554" lon="13.982363573418768"><ele>189.0</ele><time>2026-05-03T10:10:46.001Z</time></trkpt><trkpt lat="42.2654021833498" lon="13.98223996334551"><ele>189.0</ele><time>2026-05-03T10:10:47.001Z</time></trkpt><trkpt lat="42.2654558179254" lon="13.98213400684209"><ele>189.0</ele><time>2026-05-03T10:10:48.001Z</time></trkpt><trkpt lat="42.265521025185556" lon="13.98208615416099"><ele>189.0</ele><time>2026-05-03T10:10:49.001Z</time></trkpt><trkpt lat="42.26559118020557" lon="13.982085947582082"><ele>189.0</ele><time>2026-05-03T10:10:50.001Z</time></trkpt><trkpt lat="42.265669445585544" lon="13.982120659879067"><ele>189.0</ele><time>2026-05-03T10:10:51.001Z</time></trkpt><trkpt lat="42.26572116491713" lon="13.982198413309325"><ele>189.0</ele><time>2026-05-03T10:10:52.001Z</time></trkpt><trkpt lat="42.26577792919199" lon="13.982293868377955"><ele>189.0</ele><time>2026-05-03T10:10:53.001Z</time></trkpt><trkpt lat="42.26583442362331" lon="13.982400298540886"><ele>185.6</ele><time>2026-05-03T10:10:54.001Z</time></trkpt><trkpt lat="42.265902569475" lon="13.9825055633367"><ele>182.2</ele><time>2026-05-03T10:10:55.001Z</time></trkpt><trkpt lat="42.2659734470793" lon="13.982598890578648"><ele>178.79999999999998</ele><time>2026-05-03T10:10:57.001Z</time></trkpt><trkpt lat="42.266040682649894" lon="13.98267193035475"><ele>175.39999999999998</ele><time>2026-05-03T10:10:58.001Z</time></trkpt><trkpt lat="42.26611639304999" lon="13.982762124660429"><ele>172.0</ele><time>2026-05-03T10:10:59.001Z</time></trkpt><trkpt lat="42.266202626916886" lon="13.982838352286027"><ele>172.0</ele><time>2026-05-03T10:11:00.001Z</time></trkpt><trkpt lat="42.266299359792114" lon="13.982896392581518"><ele>172.0</ele><time>2026-05-03T10:11:01.001Z</time></trkpt><trkpt lat="42.26642416717935" lon="13.982917483157378"><ele>172.0</ele><time>2026-05-03T10:11:02.001Z</time></trkpt><trkpt lat="42.266545030293145" lon="13.982901094334613"><ele>172.0</ele><time>2026-05-03T10:11:03.001Z</time></trkpt><trkpt lat="42.26665375999725" lon="13.982879183687979"><ele>170.39999999999998</ele><time>2026-05-03T10:11:04.001Z</time></trkpt><trkpt lat="42.266751812582115" lon="13.982878287666438"><ele>168.79999999999998</ele><time>2026-05-03T10:11:05.001Z</time></trkpt><trkpt lat="42.266827066208485" lon="13.98292058560097"><ele>167.2</ele><time>2026-05-03T10:11:06.001Z</time></trkpt><trkpt lat="42.26690344594277" lon="13.98311015698689"><ele>165.6</ele><time>2026-05-03T10:11:08.001Z</time></trkpt><trkpt lat="42.26691128911542" lon="13.983253946403378"><ele>164.0</ele><time>2026-05-03T10:11:09.001Z</time></trkpt><trkpt lat="42.26691428916886" lon="13.98341160558613"><ele>164.0</ele><time>2026-05-03T10:11:10.001Z</time></trkpt><trkpt lat="42.2669191780521" lon="13.983607274766417"><ele>164.0</ele><time>2026-05-03T10:11:11.001Z</time></trkpt><trkpt lat="42.26693282751216" lon="13.983802792170454"><ele>164.0</ele><time>2026-05-03T10:11:12.001Z</time></trkpt><trkpt lat="42.26694980080747" lon="13.98399586276836"><ele>164.0</ele><time>2026-05-03T10:11:13.001Z</time></trkpt><trkpt lat="42.2669642037464" lon="13.98417460776828"><ele>162.75</ele><time>2026-05-03T10:11:14.001Z</time></trkpt><trkpt lat="42.26698455545416" lon="13.984367224839882"><ele>161.5</ele><time>2026-05-03T10:11:15.001Z</time></trkpt><trkpt lat="42.26701337547108" lon="13.984562719672851"><ele>160.25</ele><time>2026-05-03T10:11:16.001Z</time></trkpt><trkpt lat="42.26704445231104" lon="13.984771033951793"><ele>159.0</ele><time>2026-05-03T10:11:17.001Z</time></trkpt><trkpt lat="42.267080419904616" lon="13.984984122824082"><ele>157.5</ele><time>2026-05-03T10:11:18.001Z</time></trkpt><trkpt lat="42.26710385987679" lon="13.985186442510415"><ele>156.0</ele><time>2026-05-03T10:11:19.001Z</time></trkpt><trkpt lat="42.26710949408869" lon="13.985385885223906"><ele>154.5</ele><time>2026-05-03T10:11:20.001Z</time></trkpt><trkpt lat="42.267096585754764" lon="13.98558442898038"><ele>153.0</ele><time>2026-05-03T10:11:21.001Z</time></trkpt><trkpt lat="42.26708237138265" lon="13.98578706162545"><ele>151.75</ele><time>2026-05-03T10:11:22.001Z</time></trkpt><trkpt lat="42.26706311754775" lon="13.98597041362632"><ele>150.5</ele><time>2026-05-03T10:11:23.001Z</time></trkpt><trkpt lat="42.26704108003025" lon="13.986175161727292"><ele>149.25</ele><time>2026-05-03T10:11:24.001Z</time></trkpt><trkpt lat="42.26700290919098" lon="13.986379189011313"><ele>148.0</ele><time>2026-05-03T10:11:25.001Z</time></trkpt><trkpt lat="42.266958712382525" lon="13.98659885468143"><ele>146.0</ele><time>2026-05-03T10:11:26.001Z</time></trkpt><trkpt lat="42.26690623310672" lon="13.986818250312675"><ele>144.0</ele><time>2026-05-03T10:11:27.001Z</time></trkpt><trkpt lat="42.266855779660084" lon="13.987049515469135"><ele>142.0</ele><time>2026-05-03T10:11:28.001Z</time></trkpt><trkpt lat="42.26680726536542" lon="13.987280255000872"><ele>140.33333333333334</ele><time>2026-05-03T10:11:29.001Z</time></trkpt><trkpt lat="42.2667580800007" lon="13.987526367210148"><ele>138.66666666666666</ele><time>2026-05-03T10:11:30.001Z</time></trkpt><trkpt lat="42.26669844908216" lon="13.987763977856652"><ele>137.0</ele><time>2026-05-03T10:11:31.001Z</time></trkpt><trkpt lat="42.26664134138542" lon="13.988000355314531"><ele>137.0</ele><time>2026-05-03T10:11:32.001Z</time></trkpt><trkpt lat="42.266599327455566" lon="13.988225841305187"><ele>137.0</ele><time>2026-05-03T10:11:33.001Z</time></trkpt><trkpt lat="42.26657298646748" lon="13.988430232005838"><ele>137.0</ele><time>2026-05-03T10:11:34.001Z</time></trkpt><trkpt lat="42.26656112162837" lon="13.988636476600327"><ele>135.33333333333331</ele><time>2026-05-03T10:11:35.001Z</time></trkpt><trkpt lat="42.26656629939556" lon="13.988857539292924"><ele>133.66666666666666</ele><time>2026-05-03T10:11:36.001Z</time></trkpt><trkpt lat="42.26658835024625" lon="13.989084024981437"><ele>132.0</ele><time>2026-05-03T10:11:37.001Z</time></trkpt><trkpt lat="42.266622998401914" lon="13.989307028813775"><ele>132.0</ele><time>2026-05-03T10:11:38.001Z</time></trkpt><trkpt lat="42.26666250833949" lon="13.989540773901643"><ele>132.0</ele><time>2026-05-03T10:11:39.001Z</time></trkpt><trkpt lat="42.26670497938747" lon="13.989764893272746"><ele>132.0</ele><time>2026-05-03T10:11:40.001Z</time></trkpt><trkpt lat="42.26675393257912" lon="13.990011222597877"><ele>131.66666666666666</ele><time>2026-05-03T10:11:41.001Z</time></trkpt><trkpt lat="42.26679610621299" lon="13.990256409795483"><ele>131.33333333333331</ele><time>2026-05-03T10:11:42.001Z</time></trkpt><trkpt lat="42.266823425988704" lon="13.990505096070152"><ele>131.0</ele><time>2026-05-03T10:11:43.001Z</time></trkpt><trkpt lat="42.26684297568281" lon="13.990763214506535"><ele>129.0</ele><time>2026-05-03T10:11:44.001Z</time></trkpt><trkpt lat="42.26683606709469" lon="13.991020147400183"><ele>127.0</ele><time>2026-05-03T10:11:45.002Z</time></trkpt><trkpt lat="42.26680274071084" lon="13.991278985576864"><ele>125.0</ele><time>2026-05-03T10:11:46.002Z</time></trkpt><trkpt lat="42.26675812319035" lon="13.991546742520892"><ele>123.33333333333333</ele><time>2026-05-03T10:11:47.002Z</time></trkpt><trkpt lat="42.26670840378457" lon="13.991794809344697"><ele>121.66666666666666</ele><time>2026-05-03T10:11:47.999Z</time></trkpt><trkpt lat="42.26666628311433" lon="13.99201344394059"><ele>120.0</ele><time>2026-05-03T10:11:48.999Z</time></trkpt><trkpt lat="42.266625445032695" lon="13.992258131442027"><ele>120.0</ele><time>2026-05-03T10:11:49.999Z</time></trkpt><trkpt lat="42.26658686836049" lon="13.992479060445104"><ele>120.0</ele><time>2026-05-03T10:11:50.999Z</time></trkpt><trkpt lat="42.26655650464003" lon="13.992666130594364"><ele>120.0</ele><time>2026-05-03T10:11:51.999Z</time></trkpt><trkpt lat="42.26652668562589" lon="13.99284858469844"><ele>120.0</ele><time>2026-05-03T10:11:53Z</time></trkpt><trkpt lat="42.266496476468824" lon="13.993020909897268"><ele>119.5</ele><time>2026-05-03T10:11:54Z</time></trkpt><trkpt lat="42.26646972981177" lon="13.993183868770181"><ele>119.0</ele><time>2026-05-03T10:11:55Z</time></trkpt><trkpt lat="42.266439688333826" lon="13.993347421273945"><ele>118.5</ele><time>2026-05-03T10:11:56Z</time></trkpt><trkpt lat="42.26640786186786" lon="13.993499807884914"><ele>118.0</ele><time>2026-05-03T10:11:57Z</time></trkpt><trkpt lat="42.26638462299245" lon="13.993658499018554"><ele>119.2</ele><time>2026-05-03T10:11:58Z</time></trkpt><trkpt lat="42.26636255531346" lon="13.993800872439373"><ele>120.4</ele><time>2026-05-03T10:11:59Z</time></trkpt><trkpt lat="42.266341528223336" lon="13.993932660473082"><ele>121.60000000000001</ele><time>2026-05-03T10:12:00Z</time></trkpt><trkpt lat="42.26631709019851" lon="13.99405756770657"><ele>122.80000000000001</ele><time>2026-05-03T10:12:01Z</time></trkpt><trkpt lat="42.26629219732319" lon="13.994188861425359"><ele>124.0</ele><time>2026-05-03T10:12:02Z</time></trkpt><trkpt lat="42.26626578215097" lon="13.994333360836489"><ele>124.0</ele><time>2026-05-03T10:12:03Z</time></trkpt><trkpt lat="42.26623984411976" lon="13.994485337687337"><ele>124.0</ele><time>2026-05-03T10:12:04Z</time></trkpt><trkpt lat="42.26621332095257" lon="13.994643112530182"><ele>124.0</ele><time>2026-05-03T10:12:05Z</time></trkpt><trkpt lat="42.26617204300905" lon="13.994832298390152"><ele>124.0</ele><time>2026-05-03T10:12:06Z</time></trkpt><trkpt lat="42.26611167127128" lon="13.995000874427115"><ele>123.6</ele><time>2026-05-03T10:12:07Z</time></trkpt><trkpt lat="42.26603203672643" lon="13.995129477595382"><ele>123.2</ele><time>2026-05-03T10:12:08Z</time></trkpt><trkpt lat="42.26597388728677" lon="13.99525080290383"><ele>122.79999999999998</ele><time>2026-05-03T10:12:09Z</time></trkpt><trkpt lat="42.26597266565015" lon="13.99537543630677"><ele>122.39999999999999</ele><time>2026-05-03T10:12:10Z</time></trkpt><trkpt lat="42.26600222871452" lon="13.995521743947325"><ele>122.0</ele><time>2026-05-03T10:12:11Z</time></trkpt><trkpt lat="42.26604975144276" lon="13.995734936967166"><ele>121.33333333333333</ele><time>2026-05-03T10:12:12Z</time></trkpt><trkpt lat="42.26600624041442" lon="13.995991627756172"><ele>120.66666666666666</ele><time>2026-05-03T10:12:13Z</time></trkpt><trkpt lat="42.265969496136776" lon="13.996234290459741"><ele>120.0</ele><time>2026-05-03T10:12:14Z</time></trkpt><trkpt lat="42.26593289168991" lon="13.996448887867226"><ele>120.0</ele><time>2026-05-03T10:12:15Z</time></trkpt><trkpt lat="42.2658995998666" lon="13.996664887720657"><ele>120.0</ele><time>2026-05-03T10:12:16Z</time></trkpt><trkpt lat="42.265867783722975" lon="13.996859598562772"><ele>120.0</ele><time>2026-05-03T10:12:17Z</time></trkpt><trkpt lat="42.26583574940127" lon="13.99703912510709"><ele>120.0</ele><time>2026-05-03T10:12:18Z</time></trkpt><trkpt lat="42.265809928565275" lon="13.997187679135466"><ele>120.0</ele><time>2026-05-03T10:12:19Z</time></trkpt><trkpt lat="42.26578452669229" lon="13.997332180103431"><ele>120.0</ele><time>2026-05-03T10:12:20Z</time></trkpt><trkpt lat="42.26575928446344" lon="13.997485197292958"><ele>120.0</ele><time>2026-05-03T10:12:21Z</time></trkpt><trkpt lat="42.26573048481384" lon="13.997635440637556"><ele>120.0</ele><time>2026-05-03T10:12:22Z</time></trkpt><trkpt lat="42.265698534703766" lon="13.997759316896108"><ele>120.0</ele><time>2026-05-03T10:12:23Z</time></trkpt><trkpt lat="42.26566726029548" lon="13.99789220663428"><ele>119.33333333333334</ele><time>2026-05-03T10:12:24Z</time></trkpt><trkpt lat="42.26562949680474" lon="13.998061383655008"><ele>118.66666666666667</ele><time>2026-05-03T10:12:25Z</time></trkpt><trkpt lat="42.26556889819569" lon="13.998251839641592"><ele>118.0</ele><time>2026-05-03T10:12:26Z</time></trkpt><trkpt lat="42.26548102701917" lon="13.998454689133398"><ele>117.66666666666667</ele><time>2026-05-03T10:12:27Z</time></trkpt><trkpt lat="42.265360683867215" lon="13.998645196010434"><ele>117.33333333333334</ele><time>2026-05-03T10:12:28Z</time></trkpt><trkpt lat="42.265221290904115" lon="13.998826414899904"><ele>117.0</ele><time>2026-05-03T10:12:29Z</time></trkpt><trkpt lat="42.265076692633166" lon="13.998982184024422"><ele>117.0</ele><time>2026-05-03T10:12:30Z</time></trkpt><trkpt lat="42.26492635972603" lon="13.999120239689821"><ele>117.0</ele><time>2026-05-03T10:12:31Z</time></trkpt><trkpt lat="42.26475853660294" lon="13.999286102600493"><ele>117.0</ele><time>2026-05-03T10:12:32Z</time></trkpt><trkpt lat="42.26458092984222" lon="13.999464882968494"><ele>117.5</ele><time>2026-05-03T10:12:33Z</time></trkpt><trkpt lat="42.26437462719403" lon="13.999672951048906"><ele>118.0</ele><time>2026-05-03T10:12:34Z</time></trkpt><trkpt lat="42.26414727249233" lon="13.999896396109518"><ele>120.5</ele><time>2026-05-03T10:12:35Z</time></trkpt><trkpt lat="42.263942645643084" lon="14.000095289014888"><ele>123.0</ele><time>2026-05-03T10:12:36Z</time></trkpt><trkpt lat="42.263776268208254" lon="14.000258206195136"><ele>123.0</ele><time>2026-05-03T10:12:37Z</time></trkpt><trkpt lat="42.263631445508146" lon="14.000396160033704"><ele>123.0</ele><time>2026-05-03T10:12:38Z</time></trkpt><trkpt lat="42.26351778949839" lon="14.000516535780413"><ele>123.0</ele><time>2026-05-03T10:12:39Z</time></trkpt><trkpt lat="42.26341317931551" lon="14.000660821346031"><ele>123.0</ele><time>2026-05-03T10:12:40Z</time></trkpt><trkpt lat="42.26333009133122" lon="14.000815929705904"><ele>123.0</ele><time>2026-05-03T10:12:41Z</time></trkpt><trkpt lat="42.26326470650954" lon="14.001001293032763"><ele>123.0</ele><time>2026-05-03T10:12:42.001Z</time></trkpt><trkpt lat="42.26322067694314" lon="14.001200145609124"><ele>123.0</ele><time>2026-05-03T10:12:43.001Z</time></trkpt><trkpt lat="42.26319889829451" lon="14.001413147619983"><ele>121.25</ele><time>2026-05-03T10:12:44.001Z</time></trkpt><trkpt lat="42.26319869331954" lon="14.001609628607698"><ele>119.5</ele><time>2026-05-03T10:12:45.001Z</time></trkpt><trkpt lat="42.26321982498383" lon="14.00179614200581"><ele>117.75</ele><time>2026-05-03T10:12:46.001Z</time></trkpt><trkpt lat="42.26325632618211" lon="14.001980218553728"><ele>116.0</ele><time>2026-05-03T10:12:47.001Z</time></trkpt><trkpt lat="42.26332401186249" lon="14.002163916284527"><ele>114.33333333333333</ele><time>2026-05-03T10:12:48.001Z</time></trkpt><trkpt lat="42.263415296414536" lon="14.002348580959444"><ele>112.66666666666666</ele><time>2026-05-03T10:12:49.001Z</time></trkpt><trkpt lat="42.26350455716562" lon="14.002517120544388"><ele>111.0</ele><time>2026-05-03T10:12:50.001Z</time></trkpt><trkpt lat="42.26359067615918" lon="14.002691591643563"><ele>110.33333333333334</ele><time>2026-05-03T10:12:51.001Z</time></trkpt><trkpt lat="42.26368118656129" lon="14.002875722800644"><ele>109.66666666666667</ele><time>2026-05-03T10:12:52.001Z</time></trkpt><trkpt lat="42.263780289666606" lon="14.003068985781603"><ele>109.0</ele><time>2026-05-03T10:12:53.001Z</time></trkpt><trkpt lat="42.26387016209281" lon="14.00326395569436"><ele>109.0</ele><time>2026-05-03T10:12:54.001Z</time></trkpt><trkpt lat="42.263930357660186" lon="14.003451232684808"><ele>109.0</ele><time>2026-05-03T10:12:55.001Z</time></trkpt><trkpt lat="42.26397358284377" lon="14.003622144810226"><ele>109.0</ele><time>2026-05-03T10:12:56.001Z</time></trkpt><trkpt lat="42.26398412682248" lon="14.003778403264713"><ele>109.0</ele><time>2026-05-03T10:12:57.001Z</time></trkpt><trkpt lat="42.263968398042856" lon="14.003914125973978"><ele>109.0</ele><time>2026-05-03T10:12:58.001Z</time></trkpt><trkpt lat="42.263946046820806" lon="14.004013092913276"><ele>109.0</ele><time>2026-05-03T10:12:59.001Z</time></trkpt><trkpt lat="42.263972850891484" lon="14.004093874274986"><ele>109.0</ele><time>2026-05-03T10:13:00.001Z</time></trkpt><trkpt lat="42.26403546341508" lon="14.004160867234877"><ele>109.0</ele><time>2026-05-03T10:13:01.001Z</time></trkpt><trkpt lat="42.26413782023388" lon="14.00420401055922"><ele>109.0</ele><time>2026-05-03T10:13:02.001Z</time></trkpt><trkpt lat="42.26424902700792" lon="14.004291250396012"><ele>109.33333333333334</ele><time>2026-05-03T10:13:03.001Z</time></trkpt><trkpt lat="42.264360452770134" lon="14.00445044324945"><ele>109.66666666666666</ele><time>2026-05-03T10:13:04.001Z</time></trkpt><trkpt lat="42.26446229343891" lon="14.004669092012755"><ele>110.0</ele><time>2026-05-03T10:13:05.001Z</time></trkpt><trkpt lat="42.26457400497816" lon="14.004923166763627"><ele>108.33333333333333</ele><time>2026-05-03T10:13:06.001Z</time></trkpt><trkpt lat="42.264682461921396" lon="14.00516537529249"><ele>106.66666666666666</ele><time>2026-05-03T10:13:07.001Z</time></trkpt><trkpt lat="42.26477459120355" lon="14.005377175963336"><ele>105.0</ele><time>2026-05-03T10:13:08.001Z</time></trkpt><trkpt lat="42.264857356695465" lon="14.00555982270727"><ele>105.0</ele><time>2026-05-03T10:13:09.001Z</time></trkpt><trkpt lat="42.26493097138545" lon="14.005740807585047"><ele>105.0</ele><time>2026-05-03T10:13:10.001Z</time></trkpt><trkpt lat="42.264996923566585" lon="14.005904223685409"><ele>105.0</ele><time>2026-05-03T10:13:11.001Z</time></trkpt><trkpt lat="42.26506346068977" lon="14.006059891814559"><ele>105.0</ele><time>2026-05-03T10:13:12.001Z</time></trkpt><trkpt lat="42.26512215494849" lon="14.006192188704485"><ele>104.4</ele><time>2026-05-03T10:13:13.001Z</time></trkpt><trkpt lat="42.26517587027462" lon="14.0063138894337"><ele>103.8</ele><time>2026-05-03T10:13:14.001Z</time></trkpt><trkpt lat="42.26522651307138" lon="14.00641217797154"><ele>103.19999999999999</ele><time>2026-05-03T10:13:15.001Z</time></trkpt><trkpt lat="42.26526570030114" lon="14.006493056170836"><ele>102.6</ele><time>2026-05-03T10:13:16.001Z</time></trkpt><trkpt lat="42.26526908395234" lon="14.006612806389436"><ele>102.0</ele><time>2026-05-03T10:13:19.001Z</time></trkpt><trkpt lat="42.2653537446608" lon="14.006766202554074"><ele>102.0</ele><time>2026-05-03T10:13:21.001Z</time></trkpt><trkpt lat="42.265428871777914" lon="14.006920383770847"><ele>102.0</ele><time>2026-05-03T10:13:22.001Z</time></trkpt><trkpt lat="42.26551979988373" lon="14.00710301935037"><ele>102.0</ele><time>2026-05-03T10:13:23.001Z</time></trkpt><trkpt lat="42.26561937016746" lon="14.007317862517935"><ele>101.66666666666666</ele><time>2026-05-03T10:13:24.001Z</time></trkpt><trkpt lat="42.26573010468938" lon="14.007545514701745"><ele>101.33333333333333</ele><time>2026-05-03T10:13:25.001Z</time></trkpt><trkpt lat="42.26585626009744" lon="14.00773690780355"><ele>101.0</ele><time>2026-05-03T10:13:26.001Z</time></trkpt><trkpt lat="42.26598956590816" lon="14.007877961357117"><ele>101.0</ele><time>2026-05-03T10:13:27.001Z</time></trkpt><trkpt lat="42.266126323882695" lon="14.008023684600968"><ele>101.0</ele><time>2026-05-03T10:13:28.001Z</time></trkpt><trkpt lat="42.26627444901111" lon="14.0081802713383"><ele>101.0</ele><time>2026-05-03T10:13:29.001Z</time></trkpt><trkpt lat="42.26641446781852" lon="14.008345088139814"><ele>100.33333333333333</ele><time>2026-05-03T10:13:30.001Z</time></trkpt><trkpt lat="42.26655043198777" lon="14.008543329390868"><ele>99.66666666666666</ele><time>2026-05-03T10:13:31.001Z</time></trkpt><trkpt lat="42.26667466858382" lon="14.008771072956042"><ele>99.0</ele><time>2026-05-03T10:13:32.001Z</time></trkpt><trkpt lat="42.26678232429631" lon="14.009002667584424"><ele>98.33333333333334</ele><time>2026-05-03T10:13:33.001Z</time></trkpt><trkpt lat="42.26687203516924" lon="14.009218813727426"><ele>97.66666666666667</ele><time>2026-05-03T10:13:34.001Z</time></trkpt><trkpt lat="42.266956771184" lon="14.009414798984167"><ele>97.0</ele><time>2026-05-03T10:13:35.001Z</time></trkpt><trkpt lat="42.26703780684744" lon="14.009596734072115"><ele>97.0</ele><time>2026-05-03T10:13:36.001Z</time></trkpt><trkpt lat="42.267119125021594" lon="14.009768780400927"><ele>97.0</ele><time>2026-05-03T10:13:37.001Z</time></trkpt><trkpt lat="42.267190303749764" lon="14.009926083053447"><ele>97.0</ele><time>2026-05-03T10:13:38.002Z</time></trkpt><trkpt lat="42.26723978905564" lon="14.010066202869947"><ele>97.0</ele><time>2026-05-03T10:13:39.002Z</time></trkpt><trkpt lat="42.26724992942814" lon="14.0101914409747"><ele>97.6</ele><time>2026-05-03T10:13:40.002Z</time></trkpt><trkpt lat="42.26723240287425" lon="14.01032647705284"><ele>98.19999999999999</ele><time>2026-05-03T10:13:41.002Z</time></trkpt><trkpt lat="42.26719050809702" lon="14.010465854967354"><ele>98.8</ele><time>2026-05-03T10:13:42.002Z</time></trkpt><trkpt lat="42.267125562568815" lon="14.010594675347114"><ele>99.4</ele><time>2026-05-03T10:13:43.002Z</time></trkpt><trkpt lat="42.26706677098808" lon="14.010717363016044"><ele>100.0</ele><time>2026-05-03T10:13:44.002Z</time></trkpt><trkpt lat="42.266920954199044" lon="14.010769286670106"><ele>99.75</ele><time>2026-05-03T10:13:45.002Z</time></trkpt><trkpt lat="42.26679738206448" lon="14.010852376078686"><ele>99.5</ele><time>2026-05-03T10:13:46.002Z</time></trkpt><trkpt lat="42.266672572744085" lon="14.010946693906877"><ele>99.25</ele><time>2026-05-03T10:13:47.002Z</time></trkpt><trkpt lat="42.266544626582444" lon="14.011048269132345"><ele>99.0</ele><time>2026-05-03T10:13:48.002Z</time></trkpt><trkpt lat="42.26641302068024" lon="14.011157031913953"><ele>100.0</ele><time>2026-05-03T10:13:49.002Z</time></trkpt><trkpt lat="42.26627952811541" lon="14.011265392231321"><ele>101.0</ele><time>2026-05-03T10:13:50.002Z</time></trkpt><trkpt lat="42.26614742669288" lon="14.011383048215096"><ele>102.0</ele><time>2026-05-03T10:13:51.002Z</time></trkpt><trkpt lat="42.266022644618204" lon="14.01149148690704"><ele>102.0</ele><time>2026-05-03T10:13:52.002Z</time></trkpt><trkpt lat="42.26591401894606" lon="14.011581146999307"><ele>102.0</ele><time>2026-05-03T10:13:53.002Z</time></trkpt><trkpt lat="42.26582284819584" lon="14.011654305377819"><ele>102.0</ele><time>2026-05-03T10:13:54Z</time></trkpt><trkpt lat="42.26574256022898" lon="14.011716229928346"><ele>102.0</ele><time>2026-05-03T10:13:55Z</time></trkpt><trkpt lat="42.26565622274336" lon="14.011778148811267"><ele>102.0</ele><time>2026-05-03T10:13:56Z</time></trkpt><trkpt lat="42.26555984862112" lon="14.01184796958644"><ele>103.25</ele><time>2026-05-03T10:13:57Z</time></trkpt><trkpt lat="42.265455249703614" lon="14.01193459545489"><ele>104.5</ele><time>2026-05-03T10:13:58Z</time></trkpt><trkpt lat="42.26534451696417" lon="14.012024727129557"><ele>105.75</ele><time>2026-05-03T10:13:59Z</time></trkpt><trkpt lat="42.26523325785031" lon="14.012123462551921"><ele>107.0</ele><time>2026-05-03T10:14:00Z</time></trkpt><trkpt lat="42.26512099380909" lon="14.012245792842144"><ele>107.0</ele><time>2026-05-03T10:14:01Z</time></trkpt><trkpt lat="42.26501912609208" lon="14.012378224448888"><ele>107.0</ele><time>2026-05-03T10:14:02Z</time></trkpt><trkpt lat="42.26494177991918" lon="14.012529482640375"><ele>107.0</ele><time>2026-05-03T10:14:03Z</time></trkpt><trkpt lat="42.264899666997415" lon="14.01269808886661"><ele>107.0</ele><time>2026-05-03T10:14:04Z</time></trkpt><trkpt lat="42.264886657279064" lon="14.012862688657226"><ele>104.0</ele><time>2026-05-03T10:14:05Z</time></trkpt><trkpt lat="42.26489464476075" lon="14.013025550887173"><ele>101.0</ele><time>2026-05-03T10:14:06Z</time></trkpt><trkpt lat="42.26493278871436" lon="14.013193875957297"><ele>98.0</ele><time>2026-05-03T10:14:07Z</time></trkpt><trkpt lat="42.2649969472617" lon="14.01336912996729"><ele>95.0</ele><time>2026-05-03T10:14:08Z</time></trkpt><trkpt lat="42.265088227236696" lon="14.013550768627052"><ele>93.66666666666667</ele><time>2026-05-03T10:14:09Z</time></trkpt><trkpt lat="42.26520550478919" lon="14.013735296468228"><ele>92.33333333333333</ele><time>2026-05-03T10:14:10Z</time></trkpt><trkpt lat="42.265326022622894" lon="14.013920160334331"><ele>91.0</ele><time>2026-05-03T10:14:11Z</time></trkpt><trkpt lat="42.2654347439684" lon="14.014092854495164"><ele>91.0</ele><time>2026-05-03T10:14:12Z</time></trkpt><trkpt lat="42.26553223467206" lon="14.014259779790683"><ele>91.0</ele><time>2026-05-03T10:14:13Z</time></trkpt><trkpt lat="42.26562041736595" lon="14.014417295415921"><ele>91.0</ele><time>2026-05-03T10:14:14Z</time></trkpt><trkpt lat="42.26570232096221" lon="14.014557771159097"><ele>91.0</ele><time>2026-05-03T10:14:15Z</time></trkpt><trkpt lat="42.2657848186605" lon="14.014694334788388"><ele>90.6</ele><time>2026-05-03T10:14:16Z</time></trkpt><trkpt lat="42.26585420814576" lon="14.014818733847463"><ele>90.19999999999999</ele><time>2026-05-03T10:14:17Z</time></trkpt><trkpt lat="42.26592666872686" lon="14.014937138353217"><ele>89.80000000000001</ele><time>2026-05-03T10:14:18Z</time></trkpt><trkpt lat="42.265991206753604" lon="14.015050403270772"><ele>89.4</ele><time>2026-05-03T10:14:19Z</time></trkpt><trkpt lat="42.26604281630346" lon="14.015150238900526"><ele>89.0</ele><time>2026-05-03T10:14:20Z</time></trkpt><trkpt lat="42.26608545445696" lon="14.015221671186755"><ele>89.0</ele><time>2026-05-03T10:14:21Z</time></trkpt><trkpt lat="42.26614665933287" lon="14.015320070287036"><ele>89.0</ele><time>2026-05-03T10:14:23Z</time></trkpt><trkpt lat="42.26620246246392" lon="14.015389465007972"><ele>89.0</ele><time>2026-05-03T10:14:25Z</time></trkpt><trkpt lat="42.26627584205573" lon="14.01554179526522"><ele>89.0</ele><time>2026-05-03T10:14:27.001Z</time></trkpt><trkpt lat="42.26632328269429" lon="14.015662468205354"><ele>89.0</ele><time>2026-05-03T10:14:29.001Z</time></trkpt><trkpt lat="42.26628006251322" lon="14.01545768141872"><ele>89.0</ele><time>2026-05-03T10:14:36.001Z</time></trkpt><trkpt lat="42.26622568126358" lon="14.015379438796922"><ele>89.0</ele><time>2026-05-03T10:14:38.001Z</time></trkpt><trkpt lat="42.266221362725226" lon="14.015285193105239"><ele>89.0</ele><time>2026-05-03T10:15:33.002Z</time></trkpt><trkpt lat="42.26631657760171" lon="14.01514963711588"><ele>89.0</ele><time>2026-05-03T10:15:35.002Z</time></trkpt><trkpt lat="42.2663834037074" lon="14.015109925454317"><ele>89.0</ele><time>2026-05-03T10:15:36.002Z</time></trkpt><trkpt lat="42.26647197035668" lon="14.015047314546965"><ele>88.83333333333334</ele><time>2026-05-03T10:15:38.002Z</time></trkpt><trkpt lat="42.266525560821826" lon="14.01496683124072"><ele>88.66666666666667</ele><time>2026-05-03T10:15:40.002Z</time></trkpt><trkpt lat="42.26658139437823" lon="14.014907196020726"><ele>88.5</ele><time>2026-05-03T10:15:42.002Z</time></trkpt><trkpt lat="42.26651819863731" lon="14.014951491321154"><ele>88.33333333333333</ele><time>2026-05-03T10:18:16.002Z</time></trkpt><trkpt lat="42.26646593189953" lon="14.015007017127848"><ele>88.16666666666666</ele><time>2026-05-03T10:18:23.002Z</time></trkpt><trkpt lat="42.266520937919005" lon="14.015074986204112"><ele>88.0</ele><time>2026-05-03T10:18:30.002Z</time></trkpt><trkpt lat="42.26660878364073" lon="14.01505350559764"><ele>88.0</ele><time>2026-05-03T10:18:39.001Z</time></trkpt><trkpt lat="42.26667360540973" lon="14.015030488868975"><ele>88.0</ele><time>2026-05-03T10:19:01.001Z</time></trkpt><trkpt lat="42.26659602088221" lon="14.0150310817721"><ele>88.0</ele><time>2026-05-03T10:19:25.002Z</time></trkpt><trkpt lat="42.26665417637476" lon="14.014984304217982"><ele>88.0</ele><time>2026-05-03T10:19:39.002Z</time></trkpt><trkpt lat="42.26659032930159" lon="14.014979376442353"><ele>88.0</ele><time>2026-05-03T10:35:11Z</time></trkpt><trkpt lat="42.266551242938554" lon="14.015064535948875"><ele>88.0</ele><time>2026-05-03T10:35:19Z</time></trkpt><trkpt lat="42.26648704603274" lon="14.015110087252882"><ele>88.0</ele><time>2026-05-03T10:35:26Z</time></trkpt><trkpt lat="42.266436994157466" lon="14.0151640628427"><ele>88.0</ele><time>2026-05-03T10:35:33.999Z</time></trkpt><trkpt lat="42.26637391739327" lon="14.01516482834622"><ele>88.0</ele><time>2026-05-03T10:35:42.999Z</time></trkpt><trkpt lat="42.266414441917945" lon="14.015087522108667"><ele>88.0</ele><time>2026-05-03T10:35:50.999Z</time></trkpt><trkpt lat="42.266465149570884" lon="14.015032081436319"><ele>88.0</ele><time>2026-05-03T10:35:55.999Z</time></trkpt><trkpt lat="42.26652569826926" lon="14.014987979541"><ele>88.0</ele><time>2026-05-03T10:36:03.999Z</time></trkpt><trkpt lat="42.26661737888584" lon="14.014908577783743"><ele>88.0</ele><time>2026-05-03T10:37:16Z</time></trkpt><trkpt lat="42.26652559397406" lon="14.01494794273764"><ele>87.83333333333333</ele><time>2026-05-03T10:38:42.998Z</time></trkpt><trkpt lat="42.26648227068584" lon="14.015024383649772"><ele>87.66666666666666</ele><time>2026-05-03T10:38:43.998Z</time></trkpt><trkpt lat="42.26642461909773" lon="14.015087098363939"><ele>87.5</ele><time>2026-05-03T10:38:44.998Z</time></trkpt><trkpt lat="42.26635331835911" lon="14.015150275069878"><ele>87.33333333333333</ele><time>2026-05-03T10:38:45.998Z</time></trkpt><trkpt lat="42.266286437473134" lon="14.015207722014077"><ele>87.16666666666667</ele><time>2026-05-03T10:38:46.998Z</time></trkpt><trkpt lat="42.26620334104195" lon="14.015297035860941"><ele>87.0</ele><time>2026-05-03T10:38:48.998Z</time></trkpt><trkpt lat="42.26622982718952" lon="14.015483645923839"><ele>87.25</ele><time>2026-05-03T10:38:52.998Z</time></trkpt><trkpt lat="42.26629531067635" lon="14.015588552974286"><ele>87.5</ele><time>2026-05-03T10:38:53.998Z</time></trkpt><trkpt lat="42.26636678302631" lon="14.015694628835426"><ele>87.75</ele><time>2026-05-03T10:38:54.998Z</time></trkpt><trkpt lat="42.26645147748244" lon="14.015833764949285"><ele>88.0</ele><time>2026-05-03T10:38:55.998Z</time></trkpt><trkpt lat="42.266531954034534" lon="14.015971908118614"><ele>88.0</ele><time>2026-05-03T10:38:56.998Z</time></trkpt><trkpt lat="42.266622373971046" lon="14.016130144977904"><ele>88.0</ele><time>2026-05-03T10:38:57.998Z</time></trkpt><trkpt lat="42.266723331026185" lon="14.016304807998903"><ele>88.0</ele><time>2026-05-03T10:38:58.998Z</time></trkpt><trkpt lat="42.26683621773514" lon="14.016496140501484"><ele>88.66666666666666</ele><time>2026-05-03T10:38:59.998Z</time></trkpt><trkpt lat="42.266963540576896" lon="14.016706952237088"><ele>89.33333333333333</ele><time>2026-05-03T10:39:00.998Z</time></trkpt><trkpt lat="42.26710273737208" lon="14.016940619783396"><ele>90.0</ele><time>2026-05-03T10:39:01.998Z</time></trkpt><trkpt lat="42.26722994206643" lon="14.017159486590932"><ele>89.66666666666667</ele><time>2026-05-03T10:39:02.998Z</time></trkpt><trkpt lat="42.26734352855503" lon="14.017357246465364"><ele>89.33333333333334</ele><time>2026-05-03T10:39:03.998Z</time></trkpt><trkpt lat="42.2674538223936" lon="14.017542609614162"><ele>89.0</ele><time>2026-05-03T10:39:04.998Z</time></trkpt><trkpt lat="42.26754806005521" lon="14.01770599293708"><ele>89.0</ele><time>2026-05-03T10:39:05.999Z</time></trkpt><trkpt lat="42.26764260241373" lon="14.017859079174526"><ele>89.0</ele><time>2026-05-03T10:39:06.999Z</time></trkpt><trkpt lat="42.26774643157382" lon="14.017986225566538"><ele>89.0</ele><time>2026-05-03T10:39:07.999Z</time></trkpt><trkpt lat="42.267880798009706" lon="14.018089133669966"><ele>89.0</ele><time>2026-05-03T10:39:08.999Z</time></trkpt><trkpt lat="42.26803861386047" lon="14.018161395077463"><ele>88.33333333333334</ele><time>2026-05-03T10:39:09.999Z</time></trkpt><trkpt lat="42.268216403261874" lon="14.018212212575992"><ele>87.66666666666667</ele><time>2026-05-03T10:39:10.999Z</time></trkpt><trkpt lat="42.26840205254468" lon="14.018245602155956"><ele>87.0</ele><time>2026-05-03T10:39:11.999Z</time></trkpt><trkpt lat="42.26859111529215" lon="14.018277458384983"><ele>88.0</ele><time>2026-05-03T10:39:12.999Z</time></trkpt><trkpt lat="42.2687944153956" lon="14.018327455400955"><ele>89.0</ele><time>2026-05-03T10:39:13.999Z</time></trkpt><trkpt lat="42.269008226612115" lon="14.018381179935464"><ele>90.0</ele><time>2026-05-03T10:39:14.999Z</time></trkpt><trkpt lat="42.26920380784232" lon="14.018427372969718"><ele>90.66666666666667</ele><time>2026-05-03T10:39:15.999Z</time></trkpt><trkpt lat="42.26937230241233" lon="14.018472530660846"><ele>91.33333333333334</ele><time>2026-05-03T10:39:16.999Z</time></trkpt><trkpt lat="42.269538030514994" lon="14.01851985840629"><ele>92.0</ele><time>2026-05-03T10:39:17.999Z</time></trkpt><trkpt lat="42.269710195891115" lon="14.018615413190329"><ele>92.0</ele><time>2026-05-03T10:39:18.999Z</time></trkpt><trkpt lat="42.269892736538054" lon="14.018707015038602"><ele>92.0</ele><time>2026-05-03T10:39:19.999Z</time></trkpt><trkpt lat="42.27005599171194" lon="14.01883257160101"><ele>92.0</ele><time>2026-05-03T10:39:20.999Z</time></trkpt><trkpt lat="42.27023393162963" lon="14.018963078057016"><ele>92.0</ele><time>2026-05-03T10:39:21.999Z</time></trkpt><trkpt lat="42.27039872053283" lon="14.01907220543611"><ele>92.0</ele><time>2026-05-03T10:39:22.999Z</time></trkpt><trkpt lat="42.270528473435455" lon="14.019151802202588"><ele>92.0</ele><time>2026-05-03T10:39:23.999Z</time></trkpt><trkpt lat="42.27064854976998" lon="14.019221485547929"><ele>93.39999999999999</ele><time>2026-05-03T10:39:24.999Z</time></trkpt><trkpt lat="42.27074958598524" lon="14.01928260330633"><ele>94.8</ele><time>2026-05-03T10:39:25.999Z</time></trkpt><trkpt lat="42.27082708522393" lon="14.019332407244951"><ele>96.2</ele><time>2026-05-03T10:39:26.999Z</time></trkpt><trkpt lat="42.27088677835394" lon="14.019377634699328"><ele>97.6</ele><time>2026-05-03T10:39:27.999Z</time></trkpt><trkpt lat="42.27094968538004" lon="14.019441881407372"><ele>99.0</ele><time>2026-05-03T10:39:29.999Z</time></trkpt><trkpt lat="42.27086258183245" lon="14.019614562222767"><ele>99.0</ele><time>2026-05-03T10:39:31.999Z</time></trkpt><trkpt lat="42.2708068954614" lon="14.019740952521456"><ele>99.0</ele><time>2026-05-03T10:39:32.999Z</time></trkpt><trkpt lat="42.270768368708275" lon="14.019828628422175"><ele>99.0</ele><time>2026-05-03T10:39:33.999Z</time></trkpt><trkpt lat="42.27071160026597" lon="14.019875732735576"><ele>99.0</ele><time>2026-05-03T10:39:34.999Z</time></trkpt><trkpt lat="42.27063565358663" lon="14.01981793495892"><ele>99.0</ele><time>2026-05-03T10:39:35.999Z</time></trkpt><trkpt lat="42.27052842183687" lon="14.019769217569438"><ele>99.6</ele><time>2026-05-03T10:39:36.999Z</time></trkpt><trkpt lat="42.27042430938325" lon="14.019732211974123"><ele>100.2</ele><time>2026-05-03T10:39:37.999Z</time></trkpt><trkpt lat="42.270325725476454" lon="14.019693743270485"><ele>100.8</ele><time>2026-05-03T10:39:38.999Z</time></trkpt><trkpt lat="42.27021188292016" lon="14.01967226906344"><ele>101.39999999999999</ele><time>2026-05-03T10:39:39.999Z</time></trkpt><trkpt lat="42.2700991228636" lon="14.019617752949612"><ele>102.0</ele><time>2026-05-03T10:39:40.999Z</time></trkpt><trkpt lat="42.26998374707121" lon="14.019544456480705"><ele>102.0</ele><time>2026-05-03T10:39:41.999Z</time></trkpt><trkpt lat="42.26987159931382" lon="14.019484016537776"><ele>102.0</ele><time>2026-05-03T10:39:42.999Z</time></trkpt><trkpt lat="42.26977081780941" lon="14.019434954419326"><ele>102.0</ele><time>2026-05-03T10:39:43.999Z</time></trkpt><trkpt lat="42.26966845592224" lon="14.019406962026464"><ele>102.0</ele><time>2026-05-03T10:39:44.999Z</time></trkpt><trkpt lat="42.26957719334756" lon="14.019399943809779"><ele>102.0</ele><time>2026-05-03T10:39:45.999Z</time></trkpt><trkpt lat="42.26948108153245" lon="14.019404438604312"><ele>102.8</ele><time>2026-05-03T10:39:46.999Z</time></trkpt><trkpt lat="42.26939072520916" lon="14.01941309102143"><ele>103.6</ele><time>2026-05-03T10:39:47.999Z</time></trkpt><trkpt lat="42.269294249174244" lon="14.019434358758835"><ele>104.39999999999999</ele><time>2026-05-03T10:39:48.999Z</time></trkpt><trkpt lat="42.2691931231582" lon="14.019495858473851"><ele>105.19999999999999</ele><time>2026-05-03T10:39:49.999Z</time></trkpt><trkpt lat="42.269100585830685" lon="14.019546461007163"><ele>106.0</ele><time>2026-05-03T10:39:50.999Z</time></trkpt><trkpt lat="42.26904013915178" lon="14.019617233754195"><ele>106.00000000000001</ele><time>2026-05-03T10:39:51.999Z</time></trkpt><trkpt lat="42.26900638439018" lon="14.019722884032804"><ele>106.0</ele><time>2026-05-03T10:39:52.999Z</time></trkpt><trkpt lat="42.268999276576466" lon="14.019839672355468"><ele>106.0</ele><time>2026-05-03T10:39:53.999Z</time></trkpt><trkpt lat="42.26902229747371" lon="14.0199351521069"><ele>106.0</ele><time>2026-05-03T10:39:54.999Z</time></trkpt><trkpt lat="42.26908839519474" lon="14.020047483771616"><ele>106.00000000000001</ele><time>2026-05-03T10:39:56.999Z</time></trkpt><trkpt lat="42.26910176745471" lon="14.020133580262456"><ele>106.0</ele><time>2026-05-03T10:40:09.999Z</time></trkpt><trkpt lat="42.26917739920505" lon="14.02025140242091"><ele>110.33333333333334</ele><time>2026-05-03T10:40:11.999Z</time></trkpt><trkpt lat="42.26924466063446" lon="14.020349352848513"><ele>114.66666666666666</ele><time>2026-05-03T10:40:13.999Z</time></trkpt><trkpt lat="42.26929986549526" lon="14.020421135347409"><ele>119.0</ele><time>2026-05-03T10:40:15.999Z</time></trkpt><trkpt lat="42.26914441460009" lon="14.020815728925077"><ele>120.99999999999999</ele><time>2026-05-03T10:40:17.999Z</time></trkpt><trkpt lat="42.26913823644588" lon="14.020915082175682"><ele>123.0</ele><time>2026-05-03T10:40:18.999Z</time></trkpt><trkpt lat="42.26912068237703" lon="14.021005296017153"><ele>125.0</ele><time>2026-05-03T10:40:19.998Z</time></trkpt><trkpt lat="42.26909322185401" lon="14.021132500457597"><ele>127.0</ele><time>2026-05-03T10:40:21.998Z</time></trkpt><trkpt lat="42.2690807473994" lon="14.021217494252399"><ele>129.0</ele><time>2026-05-03T10:40:22.998Z</time></trkpt><trkpt lat="42.26906326198845" lon="14.021358962218747"><ele>131.0</ele><time>2026-05-03T10:40:24.998Z</time></trkpt><trkpt lat="42.269094027744174" lon="14.021455305402272"><ele>131.0</ele><time>2026-05-03T10:40:27.998Z</time></trkpt><trkpt lat="42.26916553122582" lon="14.021512986832564"><ele>131.0</ele><time>2026-05-03T10:40:29.998Z</time></trkpt><trkpt lat="42.269297110837236" lon="14.02158988731053"><ele>131.0</ele><time>2026-05-03T10:40:31.998Z</time></trkpt><trkpt lat="42.26938325751888" lon="14.021645864148507"><ele>131.0</ele><time>2026-05-03T10:40:32.998Z</time></trkpt><trkpt lat="42.26946139915952" lon="14.021690422770927"><ele>131.0</ele><time>2026-05-03T10:40:33.998Z</time></trkpt><trkpt lat="42.26952808814743" lon="14.021744011122461"><ele>132.33333333333331</ele><time>2026-05-03T10:40:34.998Z</time></trkpt><trkpt lat="42.26957978771192" lon="14.02180180433833"><ele>133.66666666666666</ele><time>2026-05-03T10:40:35.998Z</time></trkpt><trkpt lat="42.26962835324197" lon="14.02188462668316"><ele>135.0</ele><time>2026-05-03T10:40:36.998Z</time></trkpt><trkpt lat="42.269688378001106" lon="14.021956876177995"><ele>136.33333333333334</ele><time>2026-05-03T10:40:37.998Z</time></trkpt><trkpt lat="42.26975291770504" lon="14.022029322652928"><ele>137.66666666666669</ele><time>2026-05-03T10:40:38.998Z</time></trkpt><trkpt lat="42.26982243266863" lon="14.022125449807051"><ele>139.0</ele><time>2026-05-03T10:40:39.998Z</time></trkpt><trkpt lat="42.26989896704244" lon="14.022248446261496"><ele>139.0</ele><time>2026-05-03T10:40:40.998Z</time></trkpt><trkpt lat="42.269973952922" lon="14.022363080712221"><ele>139.0</ele><time>2026-05-03T10:40:41.998Z</time></trkpt><trkpt lat="42.27006181203944" lon="14.02250143141792"><ele>139.0</ele><time>2026-05-03T10:40:42.998Z</time></trkpt><trkpt lat="42.270142398841394" lon="14.022619252310072"><ele>139.0</ele><time>2026-05-03T10:40:43.998Z</time></trkpt><trkpt lat="42.27022165581024" lon="14.022697068562934"><ele>140.0</ele><time>2026-05-03T10:40:44.998Z</time></trkpt><trkpt lat="42.270304266347495" lon="14.022771895779513"><ele>141.0</ele><time>2026-05-03T10:40:45.998Z</time></trkpt><trkpt lat="42.270377243952844" lon="14.02282060968719"><ele>142.0</ele><time>2026-05-03T10:40:46.998Z</time></trkpt><trkpt lat="42.27043593993431" lon="14.022880151905753"><ele>143.0</ele><time>2026-05-03T10:40:47.998Z</time></trkpt><trkpt lat="42.27050255722692" lon="14.022991541040627"><ele>144.0</ele><time>2026-05-03T10:40:49.998Z</time></trkpt><trkpt lat="42.270557605486125" lon="14.023078433795174"><ele>145.0</ele><time>2026-05-03T10:40:50.998Z</time></trkpt><trkpt lat="42.27063135039627" lon="14.023174340977576"><ele>145.0</ele><time>2026-05-03T10:40:51.998Z</time></trkpt><trkpt lat="42.27069477372419" lon="14.023265508001142"><ele>145.0</ele><time>2026-05-03T10:40:52.998Z</time></trkpt><trkpt lat="42.27076416678773" lon="14.023372889731998"><ele>145.0</ele><time>2026-05-03T10:40:53.998Z</time></trkpt><trkpt lat="42.270834021602006" lon="14.023463587441897"><ele>145.0</ele><time>2026-05-03T10:40:54.998Z</time></trkpt><trkpt lat="42.270878253802636" lon="14.023553176987637"><ele>145.0</ele><time>2026-05-03T10:40:55.998Z</time></trkpt><trkpt lat="42.270930436736926" lon="14.023664525642406"><ele>147.16666666666669</ele><time>2026-05-03T10:40:56.998Z</time></trkpt><trkpt lat="42.270960200911084" lon="14.023758614212502"><ele>149.33333333333334</ele><time>2026-05-03T10:40:57.998Z</time></trkpt><trkpt lat="42.27096617408382" lon="14.023896854005166"><ele>151.5</ele><time>2026-05-03T10:40:59.998Z</time></trkpt><trkpt lat="42.270950411731846" lon="14.023985530980854"><ele>153.66666666666666</ele><time>2026-05-03T10:41:00.998Z</time></trkpt><trkpt lat="42.270877757619694" lon="14.024114882542376"><ele>155.83333333333331</ele><time>2026-05-03T10:41:02.998Z</time></trkpt><trkpt lat="42.27081768762457" lon="14.024143969861727"><ele>158.0</ele><time>2026-05-03T10:41:03.998Z</time></trkpt><trkpt lat="42.27075222372578" lon="14.024147096834128"><ele>161.0</ele><time>2026-05-03T10:41:04.998Z</time></trkpt><trkpt lat="42.2706772792547" lon="14.024150142712415"><ele>164.0</ele><time>2026-05-03T10:41:05.998Z</time></trkpt><trkpt lat="42.27057341642405" lon="14.024158080088867"><ele>167.0</ele><time>2026-05-03T10:41:06.998Z</time></trkpt><trkpt lat="42.270484992299856" lon="14.024155804881536"><ele>170.0</ele><time>2026-05-03T10:41:07.998Z</time></trkpt><trkpt lat="42.27036420593465" lon="14.024154910368269"><ele>173.0</ele><time>2026-05-03T10:41:08.998Z</time></trkpt><trkpt lat="42.27024082234101" lon="14.02415405128861"><ele>176.4</ele><time>2026-05-03T10:41:09.998Z</time></trkpt><trkpt lat="42.270114095321084" lon="14.024154643891618"><ele>179.8</ele><time>2026-05-03T10:41:10.998Z</time></trkpt><trkpt lat="42.270001357078755" lon="14.024150823445828"><ele>183.2</ele><time>2026-05-03T10:41:11.996Z</time></trkpt><trkpt lat="42.26990729217276" lon="14.024164105287126"><ele>186.6</ele><time>2026-05-03T10:41:12.996Z</time></trkpt><trkpt lat="42.26981570160623" lon="14.024194471767904"><ele>190.0</ele><time>2026-05-03T10:41:13.997Z</time></trkpt><trkpt lat="42.26974495625978" lon="14.024245774976254"><ele>191.2</ele><time>2026-05-03T10:41:14.997Z</time></trkpt><trkpt lat="42.269682601076845" lon="14.024293333823456"><ele>192.4</ele><time>2026-05-03T10:41:15.997Z</time></trkpt><trkpt lat="42.26959805131294" lon="14.02429582755585"><ele>193.60000000000002</ele><time>2026-05-03T10:41:17.997Z</time></trkpt><trkpt lat="42.269468812037736" lon="14.024240942578043"><ele>194.8</ele><time>2026-05-03T10:41:19.997Z</time></trkpt><trkpt lat="42.26936414062512" lon="14.024200618746619"><ele>196.0</ele><time>2026-05-03T10:41:20.997Z</time></trkpt><trkpt lat="42.26927479573303" lon="14.024162089549796"><ele>196.0</ele><time>2026-05-03T10:41:21.997Z</time></trkpt><trkpt lat="42.26921426306856" lon="14.024126374097316"><ele>196.0</ele><time>2026-05-03T10:41:22.997Z</time></trkpt><trkpt lat="42.269114019526626" lon="14.024130225918915"><ele>196.0</ele><time>2026-05-03T10:41:24.997Z</time></trkpt><trkpt lat="42.26904778275323" lon="14.024169639550264"><ele>196.0</ele><time>2026-05-03T10:41:25.997Z</time></trkpt><trkpt lat="42.2689610502265" lon="14.02422003453502"><ele>196.0</ele><time>2026-05-03T10:41:26.997Z</time></trkpt><trkpt lat="42.26884062051263" lon="14.024276328658656"><ele>197.0</ele><time>2026-05-03T10:41:27.997Z</time></trkpt><trkpt lat="42.26868628752927" lon="14.024333462335742"><ele>198.0</ele><time>2026-05-03T10:41:28.997Z</time></trkpt><trkpt lat="42.26851324458252" lon="14.024399763135822"><ele>199.0</ele><time>2026-05-03T10:41:29.997Z</time></trkpt><trkpt lat="42.26837233295752" lon="14.02446807175953"><ele>199.0</ele><time>2026-05-03T10:41:30.998Z</time></trkpt><trkpt lat="42.26828070910795" lon="14.024536238703266"><ele>199.0</ele><time>2026-05-03T10:41:31.998Z</time></trkpt><trkpt lat="42.26819646766252" lon="14.024609925170472"><ele>199.0</ele><time>2026-05-03T10:41:32.998Z</time></trkpt><trkpt lat="42.26808924685171" lon="14.02469690672023"><ele>199.0</ele><time>2026-05-03T10:41:33.998Z</time></trkpt><trkpt lat="42.26799197179917" lon="14.024784827586203"><ele>199.0</ele><time>2026-05-03T10:41:34.998Z</time></trkpt><trkpt lat="42.267922387231934" lon="14.024862723525858"><ele>199.2</ele><time>2026-05-03T10:41:35.998Z</time></trkpt><trkpt lat="42.26785091836303" lon="14.024934930409044"><ele>199.39999999999998</ele><time>2026-05-03T10:41:36.998Z</time></trkpt><trkpt lat="42.26777339610599" lon="14.024989248803788"><ele>199.6</ele><time>2026-05-03T10:41:37.998Z</time></trkpt><trkpt lat="42.26767711247356" lon="14.025039367766109"><ele>199.8</ele><time>2026-05-03T10:41:38.998Z</time></trkpt><trkpt lat="42.26757120056263" lon="14.02508643647753"><ele>200.0</ele><time>2026-05-03T10:41:39.998Z</time></trkpt><trkpt lat="42.26748654683531" lon="14.025128607868862"><ele>206.6</ele><time>2026-05-03T10:41:40.998Z</time></trkpt><trkpt lat="42.267412413017134" lon="14.025181392379533"><ele>213.2</ele><time>2026-05-03T10:41:41.998Z</time></trkpt><trkpt lat="42.26736291834885" lon="14.025239469542207"><ele>219.8</ele><time>2026-05-03T10:41:42.998Z</time></trkpt><trkpt lat="42.267244968116245" lon="14.02531680292359"><ele>226.4</ele><time>2026-05-03T10:41:44.998Z</time></trkpt><trkpt lat="42.267139984116355" lon="14.025273983952562"><ele>233.0</ele><time>2026-05-03T10:41:46.998Z</time></trkpt><trkpt lat="42.267087601261885" lon="14.025211082242096"><ele>234.50000000000003</ele><time>2026-05-03T10:41:47.998Z</time></trkpt><trkpt lat="42.26702969550436" lon="14.025141964693994"><ele>236.0</ele><time>2026-05-03T10:41:48.998Z</time></trkpt><trkpt lat="42.26697669335813" lon="14.025081318343897"><ele>237.5</ele><time>2026-05-03T10:41:49.998Z</time></trkpt><trkpt lat="42.26691772693735" lon="14.02501972930021"><ele>239.0</ele><time>2026-05-03T10:41:50.998Z</time></trkpt><trkpt lat="42.266847863952144" lon="14.024942389638134"><ele>240.50000000000003</ele><time>2026-05-03T10:41:51.998Z</time></trkpt><trkpt lat="42.266791421626976" lon="14.024875975510437"><ele>242.0</ele><time>2026-05-03T10:41:52.998Z</time></trkpt><trkpt lat="42.266732430806385" lon="14.024806903991418"><ele>238.16666666666669</ele><time>2026-05-03T10:41:53.998Z</time></trkpt><trkpt lat="42.26665756248173" lon="14.024726470382006"><ele>234.33333333333334</ele><time>2026-05-03T10:41:54.998Z</time></trkpt><trkpt lat="42.266577381440285" lon="14.024645753329322"><ele>230.5</ele><time>2026-05-03T10:41:55.998Z</time></trkpt><trkpt lat="42.266501261383" lon="14.024561704446393"><ele>226.66666666666669</ele><time>2026-05-03T10:41:56.998Z</time></trkpt><trkpt lat="42.26644794678097" lon="14.024499806013777"><ele>222.83333333333334</ele><time>2026-05-03T10:41:57.998Z</time></trkpt><trkpt lat="42.26638601818211" lon="14.024441818578039"><ele>219.0</ele><time>2026-05-03T10:41:58.998Z</time></trkpt><trkpt lat="42.266274539974795" lon="14.024397122842267"><ele>219.0</ele><time>2026-05-03T10:42:00.998Z</time></trkpt><trkpt lat="42.26621042592139" lon="14.024374403181845"><ele>218.99999999999997</ele><time>2026-05-03T10:42:01.998Z</time></trkpt><trkpt lat="42.26614193869274" lon="14.024236834423572"><ele>218.99999999999997</ele><time>2026-05-03T10:42:03.998Z</time></trkpt><trkpt lat="42.26605621472457" lon="14.02422913606896"><ele>219.0</ele><time>2026-05-03T10:42:05.998Z</time></trkpt><trkpt lat="42.265964555449344" lon="14.024338009441866"><ele>219.0</ele><time>2026-05-03T10:42:07.998Z</time></trkpt><trkpt lat="42.26590481319837" lon="14.024396022902584"><ele>219.0</ele><time>2026-05-03T10:42:08.998Z</time></trkpt><trkpt lat="42.26577290879007" lon="14.02443775075966"><ele>219.0</ele><time>2026-05-03T10:42:10.998Z</time></trkpt><trkpt lat="42.26567212075237" lon="14.024452400934123"><ele>219.0</ele><time>2026-05-03T10:42:11.998Z</time></trkpt><trkpt lat="42.265547852206296" lon="14.024476744325675"><ele>219.0</ele><time>2026-05-03T10:42:12.998Z</time></trkpt><trkpt lat="42.26543809717299" lon="14.024497506274278"><ele>216.2</ele><time>2026-05-03T10:42:13.998Z</time></trkpt><trkpt lat="42.265346755468165" lon="14.024525506398291"><ele>213.39999999999998</ele><time>2026-05-03T10:42:14.998Z</time></trkpt><trkpt lat="42.26526037491727" lon="14.024557104387707"><ele>210.6</ele><time>2026-05-03T10:42:15.998Z</time></trkpt><trkpt lat="42.265161281395585" lon="14.024578475665656"><ele>207.8</ele><time>2026-05-03T10:42:16.998Z</time></trkpt><trkpt lat="42.26506660955708" lon="14.024582425045391"><ele>205.0</ele><time>2026-05-03T10:42:17.998Z</time></trkpt><trkpt lat="42.26498017355915" lon="14.02466242134038"><ele>205.0</ele><time>2026-05-03T10:42:19.998Z</time></trkpt><trkpt lat="42.264960338567576" lon="14.02480679801798"><ele>205.0</ele><time>2026-05-03T10:42:21.998Z</time></trkpt><trkpt lat="42.26489674610495" lon="14.024952690711542"><ele>205.0</ele><time>2026-05-03T10:42:23.998Z</time></trkpt><trkpt lat="42.26479675206327" lon="14.025025041912313"><ele>205.0</ele><time>2026-05-03T10:42:25.998Z</time></trkpt><trkpt lat="42.264666821554584" lon="14.025037662286536"><ele>209.2</ele><time>2026-05-03T10:42:27.998Z</time></trkpt><trkpt lat="42.26456764880328" lon="14.025036127484087"><ele>213.4</ele><time>2026-05-03T10:42:28.998Z</time></trkpt><trkpt lat="42.26446606794678" lon="14.025049362091226"><ele>217.60000000000002</ele><time>2026-05-03T10:42:29.998Z</time></trkpt><trkpt lat="42.264365052533904" lon="14.025065291441605"><ele>221.8</ele><time>2026-05-03T10:42:30.998Z</time></trkpt><trkpt lat="42.26426563490351" lon="14.025047888640605"><ele>226.0</ele><time>2026-05-03T10:42:31.998Z</time></trkpt><trkpt lat="42.264180262346116" lon="14.025001660910965"><ele>225.4</ele><time>2026-05-03T10:42:32.998Z</time></trkpt><trkpt lat="42.26408227739363" lon="14.024952426919649"><ele>224.8</ele><time>2026-05-03T10:42:33.998Z</time></trkpt><trkpt lat="42.263999814428196" lon="14.02491333013776"><ele>224.20000000000002</ele><time>2026-05-03T10:42:34.998Z</time></trkpt><trkpt lat="42.26394137582064" lon="14.024879406998497"><ele>223.60000000000002</ele><time>2026-05-03T10:42:35.998Z</time></trkpt><trkpt lat="42.26386836999624" lon="14.02486140083372"><ele>223.0</ele><time>2026-05-03T10:42:36.998Z</time></trkpt><trkpt lat="42.263733881642224" lon="14.024821162223546"><ele>222.99999999999997</ele><time>2026-05-03T10:42:38.998Z</time></trkpt><trkpt lat="42.263665473906414" lon="14.024767358587965"><ele>223.0</ele><time>2026-05-03T10:42:39.998Z</time></trkpt><trkpt lat="42.26359267959861" lon="14.024734859099521"><ele>223.0</ele><time>2026-05-03T10:42:40.998Z</time></trkpt><trkpt lat="42.26350756447798" lon="14.024722024887051"><ele>223.0</ele><time>2026-05-03T10:42:41.998Z</time></trkpt><trkpt lat="42.263447885637106" lon="14.024658424290111"><ele>222.99999999999997</ele><time>2026-05-03T10:42:43.998Z</time></trkpt><trkpt lat="42.26343601442448" lon="14.024574494088682"><ele>223.0</ele><time>2026-05-03T10:42:44.998Z</time></trkpt><trkpt lat="42.26339315549254" lon="14.02448607661238"><ele>223.0</ele><time>2026-05-03T10:42:45.998Z</time></trkpt><trkpt lat="42.26332468202323" lon="14.024377874265666"><ele>223.0</ele><time>2026-05-03T10:42:46.998Z</time></trkpt><trkpt lat="42.263258370414384" lon="14.024257547858971"><ele>223.0</ele><time>2026-05-03T10:42:47.998Z</time></trkpt><trkpt lat="42.26320918830967" lon="14.024121871107493"><ele>223.0</ele><time>2026-05-03T10:42:48.998Z</time></trkpt><trkpt lat="42.26315882696426" lon="14.024022939730475"><ele>223.0</ele><time>2026-05-03T10:42:49.998Z</time></trkpt><trkpt lat="42.26309079742985" lon="14.023949064126583"><ele>224.16666666666666</ele><time>2026-05-03T10:42:50.998Z</time></trkpt><trkpt lat="42.26302101178982" lon="14.023925694443552"><ele>225.33333333333331</ele><time>2026-05-03T10:42:51.998Z</time></trkpt><trkpt lat="42.26295150667495" lon="14.023922971803874"><ele>226.5</ele><time>2026-05-03T10:42:52.998Z</time></trkpt><trkpt lat="42.262867215977636" lon="14.023935936430973"><ele>227.66666666666669</ele><time>2026-05-03T10:42:53.998Z</time></trkpt><trkpt lat="42.262769477209844" lon="14.023964778833294"><ele>228.83333333333334</ele><time>2026-05-03T10:42:54.998Z</time></trkpt><trkpt lat="42.262693713859505" lon="14.023965970152899"><ele>230.0</ele><time>2026-05-03T10:42:55.998Z</time></trkpt><trkpt lat="42.26261205662316" lon="14.023921971003967"><ele>230.0</ele><time>2026-05-03T10:42:56.998Z</time></trkpt><trkpt lat="42.26249939838617" lon="14.023880903862954"><ele>230.0</ele><time>2026-05-03T10:42:57.998Z</time></trkpt><trkpt lat="42.26240379089135" lon="14.023869486208921"><ele>230.0</ele><time>2026-05-03T10:42:58.998Z</time></trkpt><trkpt lat="42.26228204405798" lon="14.023812326871647"><ele>230.0</ele><time>2026-05-03T10:43:00.998Z</time></trkpt><trkpt lat="42.26219774802031" lon="14.023810856067298"><ele>230.0</ele><time>2026-05-03T10:43:03.998Z</time></trkpt><trkpt lat="42.26211503973514" lon="14.023810679992756"><ele>232.4</ele><time>2026-05-03T10:43:19.996Z</time></trkpt><trkpt lat="42.26200092797842" lon="14.023782191588788"><ele>234.8</ele><time>2026-05-03T10:43:21.996Z</time></trkpt><trkpt lat="42.261912647331556" lon="14.023724634723429"><ele>237.2</ele><time>2026-05-03T10:43:23.996Z</time></trkpt><trkpt lat="42.262024467426755" lon="14.023804824297608"><ele>239.6</ele><time>2026-05-03T10:43:35.997Z</time></trkpt><trkpt lat="42.26210103364975" lon="14.023814005787216"><ele>242.0</ele><time>2026-05-03T10:43:36.997Z</time></trkpt><trkpt lat="42.26218949206343" lon="14.02382075775077"><ele>239.6</ele><time>2026-05-03T10:43:37.997Z</time></trkpt><trkpt lat="42.26229262081964" lon="14.023824515498394"><ele>237.2</ele><time>2026-05-03T10:43:38.998Z</time></trkpt><trkpt lat="42.2623642765071" lon="14.023839460346037"><ele>234.8</ele><time>2026-05-03T10:43:39.998Z</time></trkpt><trkpt lat="42.26248936422695" lon="14.023883061319662"><ele>232.4</ele><time>2026-05-03T10:43:41.998Z</time></trkpt><trkpt lat="42.26258649554138" lon="14.023911480624657"><ele>230.0</ele><time>2026-05-03T10:43:43.998Z</time></trkpt><trkpt lat="42.262565880305466" lon="14.023815263926688"><ele>230.0</ele><time>2026-05-03T10:44:00.998Z</time></trkpt><trkpt lat="42.26248447118565" lon="14.023766690576034"><ele>230.0</ele><time>2026-05-03T10:44:02.998Z</time></trkpt><trkpt lat="42.2624129264779" lon="14.023733828030299"><ele>230.0</ele><time>2026-05-03T10:44:03.998Z</time></trkpt><trkpt lat="42.26232922774906" lon="14.023699719504974"><ele>230.0</ele><time>2026-05-03T10:44:04.998Z</time></trkpt><trkpt lat="42.262233238838455" lon="14.023664126882121"><ele>230.0</ele><time>2026-05-03T10:44:05.998Z</time></trkpt><trkpt lat="42.26214111775532" lon="14.023603096430035"><ele>229.8</ele><time>2026-05-03T10:44:06.998Z</time></trkpt><trkpt lat="42.26203857893672" lon="14.023521639344253"><ele>229.6</ele><time>2026-05-03T10:44:07.998Z</time></trkpt><trkpt lat="42.261959297637816" lon="14.02344629272783"><ele>229.39999999999998</ele><time>2026-05-03T10:44:08.998Z</time></trkpt><trkpt lat="42.26190251537341" lon="14.023356596589668"><ele>229.2</ele><time>2026-05-03T10:44:09.998Z</time></trkpt><trkpt lat="42.26186066278529" lon="14.023234432349438"><ele>229.0</ele><time>2026-05-03T10:44:11.998Z</time></trkpt><trkpt lat="42.26186688710265" lon="14.023131858283193"><ele>229.0</ele><time>2026-05-03T10:44:13.998Z</time></trkpt><trkpt lat="42.26185466697187" lon="14.023001721359881"><ele>228.99999999999997</ele><time>2026-05-03T10:44:14.998Z</time></trkpt><trkpt lat="42.26182862542907" lon="14.022874603354907"><ele>228.99999999999997</ele><time>2026-05-03T10:44:15.998Z</time></trkpt><trkpt lat="42.261787338539165" lon="14.022952174871715"><ele>229.0</ele><time>2026-05-03T10:44:24.998Z</time></trkpt><trkpt lat="42.26184966127614" lon="14.023092030075171"><ele>229.0</ele><time>2026-05-03T10:44:25.998Z</time></trkpt><trkpt lat="42.261892088635875" lon="14.023176545504233"><ele>229.0</ele><time>2026-05-03T10:44:26.998Z</time></trkpt><trkpt lat="42.262001320751196" lon="14.023218958980326"><ele>229.0</ele><time>2026-05-03T10:44:28.998Z</time></trkpt><trkpt lat="42.262070922255916" lon="14.023160901762518"><ele>229.0</ele><time>2026-05-03T10:44:29.998Z</time></trkpt><trkpt lat="42.26211045935651" lon="14.022995016287505"><ele>229.0</ele><time>2026-05-03T10:44:30.998Z</time></trkpt><trkpt lat="42.26214468252727" lon="14.022824949358576"><ele>229.0</ele><time>2026-05-03T10:44:31.998Z</time></trkpt><trkpt lat="42.262176218391915" lon="14.02263897304609"><ele>229.0</ele><time>2026-05-03T10:44:32.998Z</time></trkpt><trkpt lat="42.26219266770179" lon="14.02246754546483"><ele>229.0</ele><time>2026-05-03T10:44:33.998Z</time></trkpt><trkpt lat="42.262177629155225" lon="14.0223209540294"><ele>229.0</ele><time>2026-05-03T10:44:34.998Z</time></trkpt><trkpt lat="42.26212890999894" lon="14.022200277256827"><ele>226.0</ele><time>2026-05-03T10:44:35.999Z</time></trkpt><trkpt lat="42.262042803536026" lon="14.022100937564387"><ele>223.0</ele><time>2026-05-03T10:44:36.999Z</time></trkpt><trkpt lat="42.26192653744009" lon="14.02200523484159"><ele>220.0</ele><time>2026-05-03T10:44:37.999Z</time></trkpt><trkpt lat="42.26181431741861" lon="14.021925340690975"><ele>217.0</ele><time>2026-05-03T10:44:38.999Z</time></trkpt><trkpt lat="42.26170108401165" lon="14.021878761857673"><ele>217.0</ele><time>2026-05-03T10:44:39.999Z</time></trkpt><trkpt lat="42.26158205730469" lon="14.021871148926152"><ele>217.0</ele><time>2026-05-03T10:44:40.999Z</time></trkpt><trkpt lat="42.26144379544881" lon="14.02190240614968"><ele>217.0</ele><time>2026-05-03T10:44:41.999Z</time></trkpt><trkpt lat="42.26131417898701" lon="14.021926725403224"><ele>217.0</ele><time>2026-05-03T10:44:42.999Z</time></trkpt><trkpt lat="42.261203197584706" lon="14.021985550778192"><ele>215.0</ele><time>2026-05-03T10:44:43.999Z</time></trkpt><trkpt lat="42.26111655651191" lon="14.02201635926993"><ele>213.0</ele><time>2026-05-03T10:44:44.999Z</time></trkpt><trkpt lat="42.2610370853399" lon="14.022010731341439"><ele>211.0</ele><time>2026-05-03T10:44:45.999Z</time></trkpt><trkpt lat="42.26097045008853" lon="14.022021864564078"><ele>209.0</ele><time>2026-05-03T10:44:46.999Z</time></trkpt><trkpt lat="42.26093028681214" lon="14.022220859322962"><ele>207.0</ele><time>2026-05-03T10:44:47.999Z</time></trkpt><trkpt lat="42.26086600194477" lon="14.022327915071768"><ele>207.0</ele><time>2026-05-03T10:44:48.999Z</time></trkpt><trkpt lat="42.26077524111488" lon="14.022430571598909"><ele>207.0</ele><time>2026-05-03T10:44:49.999Z</time></trkpt><trkpt lat="42.26070296017773" lon="14.022565454068173"><ele>207.0</ele><time>2026-05-03T10:44:50.999Z</time></trkpt><trkpt lat="42.26064211582442" lon="14.022711695735982"><ele>207.0</ele><time>2026-05-03T10:44:51.999Z</time></trkpt><trkpt lat="42.26058558298797" lon="14.022879208011513"><ele>207.2</ele><time>2026-05-03T10:44:52.999Z</time></trkpt><trkpt lat="42.26050415327199" lon="14.023008583211693"><ele>207.39999999999998</ele><time>2026-05-03T10:44:53.999Z</time></trkpt><trkpt lat="42.26044299467874" lon="14.023115782599278"><ele>207.60000000000002</ele><time>2026-05-03T10:44:54.999Z</time></trkpt><trkpt lat="42.260384519768905" lon="14.02319069032262"><ele>207.8</ele><time>2026-05-03T10:44:55.999Z</time></trkpt><trkpt lat="42.26030750056615" lon="14.023227064196314"><ele>208.0</ele><time>2026-05-03T10:44:56.999Z</time></trkpt><trkpt lat="42.26023454044687" lon="14.023217327185051"><ele>208.0</ele><time>2026-05-03T10:44:57.999Z</time></trkpt><trkpt lat="42.26011430767283" lon="14.023208875575445"><ele>208.0</ele><time>2026-05-03T10:44:58.999Z</time></trkpt><trkpt lat="42.25999662711538" lon="14.023224266948942"><ele>208.0</ele><time>2026-05-03T10:44:59.999Z</time></trkpt><trkpt lat="42.259854012516094" lon="14.023241714924415"><ele>208.0</ele><time>2026-05-03T10:45:00.999Z</time></trkpt><trkpt lat="42.25970277861549" lon="14.02322696277184"><ele>209.4</ele><time>2026-05-03T10:45:01.999Z</time></trkpt><trkpt lat="42.25959025411146" lon="14.023254373576092"><ele>210.8</ele><time>2026-05-03T10:45:02.999Z</time></trkpt><trkpt lat="42.259527301260306" lon="14.023234146473015"><ele>212.2</ele><time>2026-05-03T10:45:03.999Z</time></trkpt><trkpt lat="42.259452837932464" lon="14.023236004621443"><ele>213.6</ele><time>2026-05-03T10:45:05.999Z</time></trkpt><trkpt lat="42.25943484604347" lon="14.023431615277532"><ele>215.0</ele><time>2026-05-03T10:45:07.999Z</time></trkpt><trkpt lat="42.25945117947225" lon="14.0235305378576"><ele>215.6</ele><time>2026-05-03T10:45:08.999Z</time></trkpt><trkpt lat="42.25947388316697" lon="14.023647803399072"><ele>216.2</ele><time>2026-05-03T10:45:09.999Z</time></trkpt><trkpt lat="42.25949551516425" lon="14.023779890873028"><ele>216.8</ele><time>2026-05-03T10:45:10.999Z</time></trkpt><trkpt lat="42.259517348546254" lon="14.023920882000448"><ele>217.4</ele><time>2026-05-03T10:45:11.999Z</time></trkpt><trkpt lat="42.25949513584592" lon="14.024045410785602"><ele>218.0</ele><time>2026-05-03T10:45:12.999Z</time></trkpt><trkpt lat="42.2594715300198" lon="14.02416167341969"><ele>221.0</ele><time>2026-05-03T10:45:13.999Z</time></trkpt><trkpt lat="42.25944035739713" lon="14.024323434891286"><ele>224.0</ele><time>2026-05-03T10:45:14.999Z</time></trkpt><trkpt lat="42.25941484923753" lon="14.0244736064196"><ele>227.0</ele><time>2026-05-03T10:45:15.999Z</time></trkpt><trkpt lat="42.25939832446391" lon="14.02465166834989"><ele>230.0</ele><time>2026-05-03T10:45:16.999Z</time></trkpt><trkpt lat="42.25939889046785" lon="14.024839679237546"><ele>232.6</ele><time>2026-05-03T10:45:17.999Z</time></trkpt><trkpt lat="42.259404585584385" lon="14.025002432604841"><ele>235.2</ele><time>2026-05-03T10:45:18.999Z</time></trkpt><trkpt lat="42.25943267233007" lon="14.025117062641861"><ele>237.8</ele><time>2026-05-03T10:45:19.999Z</time></trkpt><trkpt lat="42.259453077328224" lon="14.025224553521133"><ele>240.4</ele><time>2026-05-03T10:45:20.999Z</time></trkpt><trkpt lat="42.25947956202653" lon="14.025363144982228"><ele>243.0</ele><time>2026-05-03T10:45:22.999Z</time></trkpt><trkpt lat="42.259595181928866" lon="14.025339923699999"><ele>243.0</ele><time>2026-05-03T10:45:23.997Z</time></trkpt><trkpt lat="42.25966676860697" lon="14.025379254843967"><ele>243.0</ele><time>2026-05-03T10:45:24.997Z</time></trkpt><trkpt lat="42.25972751442877" lon="14.025443521980367"><ele>243.0</ele><time>2026-05-03T10:45:25.997Z</time></trkpt><trkpt lat="42.25981573306767" lon="14.025503828307198"><ele>243.0</ele><time>2026-05-03T10:45:26.997Z</time></trkpt><trkpt lat="42.259956856325736" lon="14.025584818031648"><ele>243.0</ele><time>2026-05-03T10:45:27.997Z</time></trkpt><trkpt lat="42.26005951930588" lon="14.025680326796396"><ele>243.33333333333334</ele><time>2026-05-03T10:45:28.997Z</time></trkpt><trkpt lat="42.26008709004469" lon="14.025791872778147"><ele>243.66666666666669</ele><time>2026-05-03T10:45:29.997Z</time></trkpt><trkpt lat="42.26014223807527" lon="14.025875322341815"><ele>244.0</ele><time>2026-05-03T10:45:30.997Z</time></trkpt><trkpt lat="42.260206504619305" lon="14.025948582253653"><ele>244.33333333333334</ele><time>2026-05-03T10:45:31.997Z</time></trkpt><trkpt lat="42.26028597546376" lon="14.025995336635928"><ele>244.66666666666669</ele><time>2026-05-03T10:45:32.997Z</time></trkpt><trkpt lat="42.260379774225825" lon="14.026033524100226"><ele>245.0</ele><time>2026-05-03T10:45:33.997Z</time></trkpt><trkpt lat="42.260450923724896" lon="14.026134913399128"><ele>249.2</ele><time>2026-05-03T10:45:35.997Z</time></trkpt><trkpt lat="42.2604552605521" lon="14.026254009318293"><ele>253.4</ele><time>2026-05-03T10:45:36.997Z</time></trkpt><trkpt lat="42.2604992227759" lon="14.026351641454145"><ele>257.6</ele><time>2026-05-03T10:45:37.997Z</time></trkpt><trkpt lat="42.26056751745358" lon="14.026471160116582"><ele>261.8</ele><time>2026-05-03T10:45:38.998Z</time></trkpt><trkpt lat="42.260652269770006" lon="14.026595732175593"><ele>266.0</ele><time>2026-05-03T10:45:39.998Z</time></trkpt><trkpt lat="42.26074151374286" lon="14.026761766138566"><ele>271.25</ele><time>2026-05-03T10:45:40.998Z</time></trkpt><trkpt lat="42.26084250805802" lon="14.026944205885918"><ele>276.5</ele><time>2026-05-03T10:45:41.998Z</time></trkpt><trkpt lat="42.26092359262856" lon="14.02709810434883"><ele>281.75</ele><time>2026-05-03T10:45:42.998Z</time></trkpt><trkpt lat="42.26099006615492" lon="14.027190636155158"><ele>287.0</ele><time>2026-05-03T10:45:43.998Z</time></trkpt><trkpt lat="42.26108308322497" lon="14.027265659989398"><ele>287.0</ele><time>2026-05-03T10:45:45.998Z</time></trkpt><trkpt lat="42.26114643926762" lon="14.027219886747494"><ele>287.0</ele><time>2026-05-03T10:45:47.998Z</time></trkpt><trkpt lat="42.26115377712929" lon="14.027050375511658"><ele>287.0</ele><time>2026-05-03T10:45:49.998Z</time></trkpt><trkpt lat="42.261096100826634" lon="14.026948175980941"><ele>287.0</ele><time>2026-05-03T10:45:50.998Z</time></trkpt><trkpt lat="42.26106868989765" lon="14.026818703660892"><ele>287.0</ele><time>2026-05-03T10:45:51.998Z</time></trkpt><trkpt lat="42.261003899769584" lon="14.026655887758466"><ele>285.0</ele><time>2026-05-03T10:45:52.998Z</time></trkpt><trkpt lat="42.26097378975354" lon="14.026479095752745"><ele>283.0</ele><time>2026-05-03T10:45:53.998Z</time></trkpt><trkpt lat="42.260944299757426" lon="14.026338740633973"><ele>281.0</ele><time>2026-05-03T10:45:54.998Z</time></trkpt><trkpt lat="42.260923956181195" lon="14.026224351969507"><ele>279.0</ele><time>2026-05-03T10:45:55.999Z</time></trkpt><trkpt lat="42.26088302312747" lon="14.02612497329126"><ele>277.0</ele><time>2026-05-03T10:45:57.999Z</time></trkpt><trkpt lat="42.26095399389482" lon="14.026096850242608"><ele>277.0</ele><time>2026-05-03T10:46:00.999Z</time></trkpt><trkpt lat="42.26099393616021" lon="14.026253899602253"><ele>277.0</ele><time>2026-05-03T10:46:03.999Z</time></trkpt><trkpt lat="42.260996428858206" lon="14.02636667291307"><ele>277.0</ele><time>2026-05-03T10:46:04.999Z</time></trkpt><trkpt lat="42.26104405055222" lon="14.026493069201871"><ele>277.0</ele><time>2026-05-03T10:46:05.999Z</time></trkpt><trkpt lat="42.26111890867175" lon="14.026648256298909"><ele>277.0</ele><time>2026-05-03T10:46:06.999Z</time></trkpt><trkpt lat="42.26120845489737" lon="14.026872854534526"><ele>280.3333333333333</ele><time>2026-05-03T10:46:07.999Z</time></trkpt><trkpt lat="42.26130918337039" lon="14.02713078696321"><ele>283.6666666666667</ele><time>2026-05-03T10:46:08.999Z</time></trkpt><trkpt lat="42.26139090144699" lon="14.027366597697549"><ele>287.0</ele><time>2026-05-03T10:46:09.999Z</time></trkpt><trkpt lat="42.261430887833555" lon="14.02758371190512"><ele>293.0</ele><time>2026-05-03T10:46:10.999Z</time></trkpt><trkpt lat="42.26146894761168" lon="14.02779185444794"><ele>299.0</ele><time>2026-05-03T10:46:11.999Z</time></trkpt><trkpt lat="42.261555228793384" lon="14.027942736942384"><ele>305.0</ele><time>2026-05-03T10:46:12.999Z</time></trkpt><trkpt lat="42.26167773220058" lon="14.028063651334989"><ele>305.0</ele><time>2026-05-03T10:46:13.999Z</time></trkpt><trkpt lat="42.26178864116103" lon="14.028204080699124"><ele>305.0</ele><time>2026-05-03T10:46:14.999Z</time></trkpt><trkpt lat="42.26187588902187" lon="14.02838226078063"><ele>305.0</ele><time>2026-05-03T10:46:15.999Z</time></trkpt><trkpt lat="42.2619327677477" lon="14.028549911382564"><ele>305.0</ele><time>2026-05-03T10:46:16.999Z</time></trkpt><trkpt lat="42.261985934120254" lon="14.028700702591312"><ele>305.8</ele><time>2026-05-03T10:46:17.999Z</time></trkpt><trkpt lat="42.26204581954083" lon="14.028827551083983"><ele>306.6</ele><time>2026-05-03T10:46:18.999Z</time></trkpt><trkpt lat="42.26208951816544" lon="14.028917741739257"><ele>307.4</ele><time>2026-05-03T10:46:20.999Z</time></trkpt><trkpt lat="42.26220977191018" lon="14.028822588355853"><ele>308.2</ele><time>2026-05-03T10:46:21.999Z</time></trkpt><trkpt lat="42.26228205797673" lon="14.02874026656581"><ele>309.0</ele><time>2026-05-03T10:46:22.999Z</time></trkpt><trkpt lat="42.262351018454105" lon="14.028621564937168"><ele>309.0</ele><time>2026-05-03T10:46:23.999Z</time></trkpt><trkpt lat="42.262412859171704" lon="14.028505411696765"><ele>309.0</ele><time>2026-05-03T10:46:24.999Z</time></trkpt><trkpt lat="42.262473084096456" lon="14.028430115329689"><ele>309.0</ele><time>2026-05-03T10:46:25.999Z</time></trkpt><trkpt lat="42.26262334608208" lon="14.028457339838011"><ele>309.0</ele><time>2026-05-03T10:46:27.999Z</time></trkpt><trkpt lat="42.262709653131424" lon="14.028543596356206"><ele>309.0</ele><time>2026-05-03T10:46:28.999Z</time></trkpt><trkpt lat="42.26283027975198" lon="14.028603378983542"><ele>309.0</ele><time>2026-05-03T10:46:29.999Z</time></trkpt><trkpt lat="42.26295323652469" lon="14.02868287443663"><ele>309.0</ele><time>2026-05-03T10:46:30.999Z</time></trkpt><trkpt lat="42.263089279653364" lon="14.028772116495247"><ele>309.0</ele><time>2026-05-03T10:46:31.999Z</time></trkpt><trkpt lat="42.26322760644018" lon="14.028867110115963"><ele>309.0</ele><time>2026-05-03T10:46:32.999Z</time></trkpt><trkpt lat="42.26336812228988" lon="14.02896523156224"><ele>308.6666666666667</ele><time>2026-05-03T10:46:33.999Z</time></trkpt><trkpt lat="42.26351384475704" lon="14.029060856642642"><ele>308.33333333333337</ele><time>2026-05-03T10:46:34.999Z</time></trkpt><trkpt lat="42.26366383950123" lon="14.02915836739882"><ele>308.0</ele><time>2026-05-03T10:46:35.999Z</time></trkpt><trkpt lat="42.26379244788633" lon="14.029236183467756"><ele>308.0</ele><time>2026-05-03T10:46:36.999Z</time></trkpt><trkpt lat="42.2639193770259" lon="14.029304998115755"><ele>308.0</ele><time>2026-05-03T10:46:37.999Z</time></trkpt><trkpt lat="42.264057262827976" lon="14.029364455837921"><ele>308.0</ele><time>2026-05-03T10:46:38.999Z</time></trkpt><trkpt lat="42.26420681644868" lon="14.02941125175933"><ele>308.0</ele><time>2026-05-03T10:46:39.999Z</time></trkpt><trkpt lat="42.264347397015676" lon="14.029435458013769"><ele>307.5</ele><time>2026-05-03T10:46:40.999Z</time></trkpt><trkpt lat="42.26448264536649" lon="14.02943774201846"><ele>307.0</ele><time>2026-05-03T10:46:41.999Z</time></trkpt><trkpt lat="42.264618433945394" lon="14.029419565671748"><ele>306.5</ele><time>2026-05-03T10:46:42.999Z</time></trkpt><trkpt lat="42.26475875627954" lon="14.0293835116468"><ele>306.0</ele><time>2026-05-03T10:46:43.999Z</time></trkpt><trkpt lat="42.26484003664628" lon="14.029353699538307"><ele>306.0</ele><time>2026-05-03T10:46:44.999Z</time></trkpt><trkpt lat="42.26493964033063" lon="14.029330059693637"><ele>306.0</ele><time>2026-05-03T10:46:46.999Z</time></trkpt><trkpt lat="42.26501879798915" lon="14.029477250008053"><ele>306.0</ele><time>2026-05-03T10:46:48.999Z</time></trkpt><trkpt lat="42.26506853620481" lon="14.029573541479516"><ele>306.0</ele><time>2026-05-03T10:46:49.999Z</time></trkpt><trkpt lat="42.26511774106751" lon="14.029638567856546"><ele>306.0</ele><time>2026-05-03T10:46:50.999Z</time></trkpt><trkpt lat="42.26514085244075" lon="14.029721718778283"><ele>306.0</ele><time>2026-05-03T10:46:51.999Z</time></trkpt><trkpt lat="42.26516472843665" lon="14.029824369169637"><ele>306.0</ele><time>2026-05-03T10:46:52.999Z</time></trkpt><trkpt lat="42.265158615189186" lon="14.029933748521865"><ele>306.0</ele><time>2026-05-03T10:46:53.999Z</time></trkpt><trkpt lat="42.2651553078424" lon="14.030056706470306"><ele>306.0</ele><time>2026-05-03T10:46:54.999Z</time></trkpt><trkpt lat="42.26515262468685" lon="14.030156458545047"><ele>306.0</ele><time>2026-05-03T10:46:55.999Z</time></trkpt><trkpt lat="42.26514726003644" lon="14.03025660667292"><ele>306.0</ele><time>2026-05-03T10:46:58.999Z</time></trkpt><trkpt lat="42.26513517372865" lon="14.030387101034734"><ele>306.5</ele><time>2026-05-03T10:47:00.999Z</time></trkpt><trkpt lat="42.26529593773864" lon="14.030530570542048"><ele>307.0</ele><time>2026-05-03T10:47:02.999Z</time></trkpt><trkpt lat="42.2653605200274" lon="14.030602418475944"><ele>307.5</ele><time>2026-05-03T10:47:03.999Z</time></trkpt><trkpt lat="42.26542688530935" lon="14.030677261148826"><ele>308.0</ele><time>2026-05-03T10:47:04.999Z</time></trkpt><trkpt lat="42.26547199379174" lon="14.030779137832084"><ele>308.0</ele><time>2026-05-03T10:47:05.999Z</time></trkpt><trkpt lat="42.265486599490835" lon="14.03089840983165"><ele>308.0</ele><time>2026-05-03T10:47:07Z</time></trkpt><trkpt lat="42.26551007135416" lon="14.030988686146806"><ele>308.0</ele><time>2026-05-03T10:47:08Z</time></trkpt><trkpt lat="42.26553184744472" lon="14.03113265908436"><ele>308.0</ele><time>2026-05-03T10:47:09Z</time></trkpt><trkpt lat="42.265544088862185" lon="14.031263147191085"><ele>308.0</ele><time>2026-05-03T10:47:10Z</time></trkpt><trkpt lat="42.265590621529185" lon="14.031395335994462"><ele>305.6</ele><time>2026-05-03T10:47:11Z</time></trkpt><trkpt lat="42.26563538108999" lon="14.03151110005129"><ele>303.20000000000005</ele><time>2026-05-03T10:47:12Z</time></trkpt><trkpt lat="42.26569095239319" lon="14.03162312178949"><ele>300.8</ele><time>2026-05-03T10:47:13Z</time></trkpt><trkpt lat="42.26572285791555" lon="14.031729941874746"><ele>298.40000000000003</ele><time>2026-05-03T10:47:14Z</time></trkpt><trkpt lat="42.2657615566422" lon="14.03187225408378"><ele>296.0</ele><time>2026-05-03T10:47:15Z</time></trkpt><trkpt lat="42.26578974278789" lon="14.032024760638818"><ele>294.25</ele><time>2026-05-03T10:47:16Z</time></trkpt><trkpt lat="42.26582533789738" lon="14.032173852710168"><ele>292.5</ele><time>2026-05-03T10:47:17Z</time></trkpt><trkpt lat="42.26588739768042" lon="14.032337668469621"><ele>290.75</ele><time>2026-05-03T10:47:18Z</time></trkpt><trkpt lat="42.2659641908846" lon="14.032467958256314"><ele>289.0</ele><time>2026-05-03T10:47:19Z</time></trkpt><trkpt lat="42.26604588132461" lon="14.032567882515709"><ele>287.4</ele><time>2026-05-03T10:47:20Z</time></trkpt><trkpt lat="42.2661284557558" lon="14.032673481319735"><ele>285.79999999999995</ele><time>2026-05-03T10:47:21Z</time></trkpt><trkpt lat="42.26620226403812" lon="14.03278539345354"><ele>284.20000000000005</ele><time>2026-05-03T10:47:22Z</time></trkpt><trkpt lat="42.266287711511175" lon="14.032889888560934"><ele>282.6</ele><time>2026-05-03T10:47:23Z</time></trkpt><trkpt lat="42.26637410017717" lon="14.032970343397826"><ele>281.0</ele><time>2026-05-03T10:47:24Z</time></trkpt><trkpt lat="42.26644378881926" lon="14.03299133832799"><ele>278.6666666666667</ele><time>2026-05-03T10:47:25Z</time></trkpt><trkpt lat="42.26651681408327" lon="14.032951685066696"><ele>276.33333333333337</ele><time>2026-05-03T10:47:27Z</time></trkpt><trkpt lat="42.2665755964841" lon="14.032892446530282"><ele>274.0</ele><time>2026-05-03T10:47:28Z</time></trkpt><trkpt lat="42.266644334240375" lon="14.032816204254674"><ele>271.6666666666667</ele><time>2026-05-03T10:47:29Z</time></trkpt><trkpt lat="42.26669070617095" lon="14.032733786982893"><ele>269.3333333333333</ele><time>2026-05-03T10:47:29.998Z</time></trkpt><trkpt lat="42.26675671517384" lon="14.032642890652438"><ele>267.0</ele><time>2026-05-03T10:47:31.998Z</time></trkpt><trkpt lat="42.26683847935357" lon="14.032702318112486"><ele>267.0</ele><time>2026-05-03T10:47:33.998Z</time></trkpt><trkpt lat="42.26683078250066" lon="14.032854018259581"><ele>267.0</ele><time>2026-05-03T10:47:35.998Z</time></trkpt><trkpt lat="42.26681750316754" lon="14.032969071389603"><ele>267.0</ele><time>2026-05-03T10:47:36.998Z</time></trkpt><trkpt lat="42.266813380764596" lon="14.0330896465578"><ele>267.0</ele><time>2026-05-03T10:47:37.998Z</time></trkpt><trkpt lat="42.26680911260448" lon="14.033184292351082"><ele>267.0</ele><time>2026-05-03T10:47:38.998Z</time></trkpt><trkpt lat="42.26680608973615" lon="14.033300211235357"><ele>267.0</ele><time>2026-05-03T10:47:39.998Z</time></trkpt><trkpt lat="42.266803971952456" lon="14.03339621436194"><ele>265.0</ele><time>2026-05-03T10:47:40.998Z</time></trkpt><trkpt lat="42.26679552529154" lon="14.033505564636043"><ele>263.0</ele><time>2026-05-03T10:47:41.998Z</time></trkpt><trkpt lat="42.26678934559477" lon="14.033600726991388"><ele>261.0</ele><time>2026-05-03T10:47:42.998Z</time></trkpt><trkpt lat="42.266779233797784" lon="14.033693424652753"><ele>259.0</ele><time>2026-05-03T10:47:43.998Z</time></trkpt><trkpt lat="42.26676479516721" lon="14.033782604058297"><ele>257.0</ele><time>2026-05-03T10:47:44.998Z</time></trkpt><trkpt lat="42.266794563552594" lon="14.033905074612488"><ele>255.0</ele><time>2026-05-03T10:47:46.998Z</time></trkpt><trkpt lat="42.26683147988412" lon="14.033985038946902"><ele>255.0</ele><time>2026-05-03T10:47:47.999Z</time></trkpt><trkpt lat="42.266871383490674" lon="14.03406083415272"><ele>255.0</ele><time>2026-05-03T10:47:48.999Z</time></trkpt><trkpt lat="42.26691724668436" lon="14.0341276760917"><ele>255.0</ele><time>2026-05-03T10:47:49.999Z</time></trkpt><trkpt lat="42.26696663680509" lon="14.034187157015463"><ele>255.0</ele><time>2026-05-03T10:47:50.999Z</time></trkpt><trkpt lat="42.26700357721374" lon="14.034272008989738"><ele>255.0</ele><time>2026-05-03T10:47:51.999Z</time></trkpt><trkpt lat="42.2670569121568" lon="14.03436368929607"><ele>255.0</ele><time>2026-05-03T10:47:52.999Z</time></trkpt><trkpt lat="42.26711249696954" lon="14.03446673787615"><ele>253.5</ele><time>2026-05-03T10:47:53.999Z</time></trkpt><trkpt lat="42.26715596274835" lon="14.03454224431075"><ele>252.0</ele><time>2026-05-03T10:47:54.999Z</time></trkpt><trkpt lat="42.267223273250245" lon="14.034650136842474"><ele>250.5</ele><time>2026-05-03T10:47:55.999Z</time></trkpt><trkpt lat="42.26727789319234" lon="14.034747823154206"><ele>249.0</ele><time>2026-05-03T10:47:56.999Z</time></trkpt><trkpt lat="42.26731355856702" lon="14.034827719799942"><ele>247.5</ele><time>2026-05-03T10:47:57.999Z</time></trkpt><trkpt lat="42.26735261899264" lon="14.034949978146683"><ele>246.0</ele><time>2026-05-03T10:47:59.999Z</time></trkpt><trkpt lat="42.26740389203939" lon="14.035093639040815"><ele>244.20000000000002</ele><time>2026-05-03T10:48:01.999Z</time></trkpt><trkpt lat="42.267371741617104" lon="14.035239823770917"><ele>242.40000000000003</ele><time>2026-05-03T10:48:03.999Z</time></trkpt><trkpt lat="42.26736283312082" lon="14.035372188214362"><ele>240.6</ele><time>2026-05-03T10:48:05.999Z</time></trkpt><trkpt lat="42.2673646274006" lon="14.035466090952424"><ele>238.8</ele><time>2026-05-03T10:48:06.999Z</time></trkpt><trkpt lat="42.26736675892435" lon="14.03558772310687"><ele>237.0</ele><time>2026-05-03T10:48:07.999Z</time></trkpt><trkpt lat="42.26736839899795" lon="14.035700312524426"><ele>235.0</ele><time>2026-05-03T10:48:08.999Z</time></trkpt><trkpt lat="42.26736258325796" lon="14.035803770845641"><ele>233.0</ele><time>2026-05-03T10:48:09.999Z</time></trkpt><trkpt lat="42.26734850945345" lon="14.03589049679188"><ele>231.0</ele><time>2026-05-03T10:48:10.999Z</time></trkpt><trkpt lat="42.26728870874262" lon="14.035997382070208"><ele>229.0</ele><time>2026-05-03T10:48:12.999Z</time></trkpt><trkpt lat="42.26729441498796" lon="14.0360829457936"><ele>227.0</ele><time>2026-05-03T10:48:14.999Z</time></trkpt><trkpt lat="42.26736018462166" lon="14.036175837625006"><ele>225.0</ele><time>2026-05-03T10:48:16.999Z</time></trkpt><trkpt lat="42.267417708960934" lon="14.036232856822874"><ele>225.0</ele><time>2026-05-03T10:48:17.999Z</time></trkpt><trkpt lat="42.26749476216324" lon="14.03631557937958"><ele>225.0</ele><time>2026-05-03T10:48:18.999Z</time></trkpt><trkpt lat="42.2675502409808" lon="14.036400209546684"><ele>225.0</ele><time>2026-05-03T10:48:20Z</time></trkpt><trkpt lat="42.267599772821825" lon="14.03648904622567"><ele>225.0</ele><time>2026-05-03T10:48:21Z</time></trkpt><trkpt lat="42.26763029135993" lon="14.036571895745404"><ele>225.0</ele><time>2026-05-03T10:48:22Z</time></trkpt><trkpt lat="42.26768730669521" lon="14.036640114856192"><ele>225.0</ele><time>2026-05-03T10:48:23Z</time></trkpt><trkpt lat="42.26775889552887" lon="14.036616501602255"><ele>225.0</ele><time>2026-05-03T10:48:25Z</time></trkpt><trkpt lat="42.26780104801345" lon="14.036532294247014"><ele>225.0</ele><time>2026-05-03T10:48:27Z</time></trkpt><trkpt lat="42.26785746501687" lon="14.036480957666777"><ele>225.0</ele><time>2026-05-03T10:48:29Z</time></trkpt><trkpt lat="42.267914492618445" lon="14.036427588802376"><ele>225.0</ele><time>2026-05-03T10:48:30Z</time></trkpt><trkpt lat="42.2679914338375" lon="14.036370922949638"><ele>225.0</ele><time>2026-05-03T10:48:31Z</time></trkpt><trkpt lat="42.268059470904184" lon="14.036320651463827"><ele>225.0</ele><time>2026-05-03T10:48:32Z</time></trkpt><trkpt lat="42.268126389486426" lon="14.03626252021382"><ele>227.66666666666666</ele><time>2026-05-03T10:48:33Z</time></trkpt><trkpt lat="42.26819697572627" lon="14.036210446853323"><ele>230.33333333333331</ele><time>2026-05-03T10:48:34Z</time></trkpt><trkpt lat="42.268276971112165" lon="14.03619125697269"><ele>233.0</ele><time>2026-05-03T10:48:35Z</time></trkpt><trkpt lat="42.26834620677191" lon="14.036153732423188"><ele>235.66666666666666</ele><time>2026-05-03T10:48:36Z</time></trkpt><trkpt lat="42.26841091781057" lon="14.036075827764297"><ele>238.33333333333331</ele><time>2026-05-03T10:48:38Z</time></trkpt><trkpt lat="42.26851734073206" lon="14.0360098028767"><ele>241.0</ele><time>2026-05-03T10:48:40Z</time></trkpt><trkpt lat="42.26860197927048" lon="14.035983975190858"><ele>241.0</ele><time>2026-05-03T10:48:41Z</time></trkpt><trkpt lat="42.26867891115989" lon="14.035943646295667"><ele>241.00000000000003</ele><time>2026-05-03T10:48:42Z</time></trkpt><trkpt lat="42.26875335108139" lon="14.035903020438496"><ele>241.00000000000003</ele><time>2026-05-03T10:48:43Z</time></trkpt><trkpt lat="42.26888138371832" lon="14.035897351708277"><ele>241.0</ele><time>2026-05-03T10:48:45Z</time></trkpt><trkpt lat="42.26899235846512" lon="14.035908246083347"><ele>241.0</ele><time>2026-05-03T10:48:46Z</time></trkpt><trkpt lat="42.26908993032444" lon="14.035897698065597"><ele>242.75</ele><time>2026-05-03T10:48:47Z</time></trkpt><trkpt lat="42.269194230006164" lon="14.03586935120328"><ele>244.5</ele><time>2026-05-03T10:48:48Z</time></trkpt><trkpt lat="42.26931437186953" lon="14.035878057038444"><ele>246.25</ele><time>2026-05-03T10:48:49Z</time></trkpt><trkpt lat="42.26945295995999" lon="14.035911105983821"><ele>248.0</ele><time>2026-05-03T10:48:50Z</time></trkpt><trkpt lat="42.26955837326965" lon="14.035950536196532"><ele>248.0</ele><time>2026-05-03T10:48:51Z</time></trkpt><trkpt lat="42.269648709531445" lon="14.036000604038271"><ele>248.0</ele><time>2026-05-03T10:48:52Z</time></trkpt><trkpt lat="42.269740616149235" lon="14.03604284012477"><ele>248.0</ele><time>2026-05-03T10:48:53Z</time></trkpt><trkpt lat="42.26983237043467" lon="14.03606946935906"><ele>248.0</ele><time>2026-05-03T10:48:54Z</time></trkpt><trkpt lat="42.269925905037915" lon="14.036090964439152"><ele>248.0</ele><time>2026-05-03T10:48:55Z</time></trkpt><trkpt lat="42.27003075892966" lon="14.0361238871018"><ele>250.16666666666669</ele><time>2026-05-03T10:48:56Z</time></trkpt><trkpt lat="42.270111148249" lon="14.0361605849053"><ele>252.33333333333334</ele><time>2026-05-03T10:48:57Z</time></trkpt><trkpt lat="42.27018578993335" lon="14.036184329766856"><ele>254.5</ele><time>2026-05-03T10:48:58Z</time></trkpt><trkpt lat="42.270249884862" lon="14.03618814845272"><ele>256.6666666666667</ele><time>2026-05-03T10:48:59Z</time></trkpt><trkpt lat="42.27037322685865" lon="14.036142888221384"><ele>258.8333333333333</ele><time>2026-05-03T10:49:01Z</time></trkpt><trkpt lat="42.270448602917945" lon="14.036094332225161"><ele>261.0</ele><time>2026-05-03T10:49:02Z</time></trkpt><trkpt lat="42.27051260177935" lon="14.036058622706335"><ele>261.0</ele><time>2026-05-03T10:49:03Z</time></trkpt><trkpt lat="42.27058162998807" lon="14.03605178445978"><ele>261.0</ele><time>2026-05-03T10:49:04Z</time></trkpt><trkpt lat="42.27065406581343" lon="14.036055968610519"><ele>261.0</ele><time>2026-05-03T10:49:05Z</time></trkpt><trkpt lat="42.2707463350708" lon="14.036066721888051"><ele>261.0</ele><time>2026-05-03T10:49:06Z</time></trkpt><trkpt lat="42.270815292929875" lon="14.036080339832024"><ele>261.0</ele><time>2026-05-03T10:49:07Z</time></trkpt><trkpt lat="42.270879102134394" lon="14.036088881761867"><ele>261.0</ele><time>2026-05-03T10:49:08Z</time></trkpt><trkpt lat="42.27094680893109" lon="14.036120387599468"><ele>261.0</ele><time>2026-05-03T10:49:09Z</time></trkpt><trkpt lat="42.271012704474536" lon="14.03614894280808"><ele>259.6666666666667</ele><time>2026-05-03T10:49:10Z</time></trkpt><trkpt lat="42.27107730445109" lon="14.036164140606934"><ele>258.3333333333333</ele><time>2026-05-03T10:49:11Z</time></trkpt><trkpt lat="42.27117292996975" lon="14.03619593416549"><ele>257.0</ele><time>2026-05-03T10:49:13Z</time></trkpt><trkpt lat="42.271240717422494" lon="14.03621693025713"><ele>255.66666666666666</ele><time>2026-05-03T10:49:16Z</time></trkpt><trkpt lat="42.27126675213543" lon="14.036109437859501"><ele>254.33333333333331</ele><time>2026-05-03T10:49:20Z</time></trkpt><trkpt lat="42.27125526266389" lon="14.036017433127641"><ele>253.0</ele><time>2026-05-03T10:49:21Z</time></trkpt><trkpt lat="42.27127677681067" lon="14.03593513544111"><ele>253.0</ele><time>2026-05-03T10:49:22Z</time></trkpt><trkpt lat="42.27131564551569" lon="14.035846840605354"><ele>253.0</ele><time>2026-05-03T10:49:23.001Z</time></trkpt><trkpt lat="42.27135175168292" lon="14.035752848345682"><ele>253.0</ele><time>2026-05-03T10:49:24.001Z</time></trkpt><trkpt lat="42.27135940058373" lon="14.035559601910153"><ele>253.0</ele><time>2026-05-03T10:49:26.001Z</time></trkpt><trkpt lat="42.27133530060145" lon="14.035417092404781"><ele>253.0</ele><time>2026-05-03T10:49:27.001Z</time></trkpt><trkpt lat="42.27131617524777" lon="14.035266875189064"><ele>253.25</ele><time>2026-05-03T10:49:28.001Z</time></trkpt><trkpt lat="42.27132714043878" lon="14.035071930579083"><ele>253.5</ele><time>2026-05-03T10:49:29.001Z</time></trkpt><trkpt lat="42.271370734856" lon="14.034927639663033"><ele>253.75</ele><time>2026-05-03T10:49:30.001Z</time></trkpt><trkpt lat="42.271420899674055" lon="14.034798930555016"><ele>254.0</ele><time>2026-05-03T10:49:31.001Z</time></trkpt><trkpt lat="42.271460094703066" lon="14.03468628844662"><ele>254.0</ele><time>2026-05-03T10:49:32.001Z</time></trkpt><trkpt lat="42.2715026931401" lon="14.034515496067309"><ele>254.0</ele><time>2026-05-03T10:49:33.001Z</time></trkpt><trkpt lat="42.27155008273536" lon="14.03433477086473"><ele>254.0</ele><time>2026-05-03T10:49:34.001Z</time></trkpt><trkpt lat="42.271581020511825" lon="14.03416757238933"><ele>254.0</ele><time>2026-05-03T10:49:35.001Z</time></trkpt><trkpt lat="42.271607275413324" lon="14.03402437451641"><ele>256.59999999999997</ele><time>2026-05-03T10:49:35.998Z</time></trkpt><trkpt lat="42.27162865957966" lon="14.033855328089585"><ele>259.2</ele><time>2026-05-03T10:49:36.998Z</time></trkpt><trkpt lat="42.27167373363618" lon="14.033718851774868"><ele>261.79999999999995</ele><time>2026-05-03T10:49:37.998Z</time></trkpt><trkpt lat="42.27171995225944" lon="14.033609658903606"><ele>264.4</ele><time>2026-05-03T10:49:38.998Z</time></trkpt><trkpt lat="42.27174499481478" lon="14.03350261691488"><ele>267.0</ele><time>2026-05-03T10:49:39.998Z</time></trkpt><trkpt lat="42.271765980307975" lon="14.033348680516147"><ele>269.1666666666667</ele><time>2026-05-03T10:49:40.999Z</time></trkpt><trkpt lat="42.27177789123428" lon="14.03321765272166"><ele>271.3333333333333</ele><time>2026-05-03T10:49:41.999Z</time></trkpt><trkpt lat="42.27176277037855" lon="14.033134964168614"><ele>273.5</ele><time>2026-05-03T10:49:42.999Z</time></trkpt><trkpt lat="42.271733343788306" lon="14.033050635122615"><ele>275.66666666666663</ele><time>2026-05-03T10:49:43.999Z</time></trkpt><trkpt lat="42.27173426495559" lon="14.032922527769784"><ele>277.8333333333333</ele><time>2026-05-03T10:49:44.999Z</time></trkpt><trkpt lat="42.27178420373203" lon="14.032832952313267"><ele>280.0</ele><time>2026-05-03T10:49:45.999Z</time></trkpt><trkpt lat="42.271859152898" lon="14.032823115926469"><ele>280.0</ele><time>2026-05-03T10:49:46.999Z</time></trkpt><trkpt lat="42.2719445331043" lon="14.032818941266758"><ele>280.0</ele><time>2026-05-03T10:49:47.999Z</time></trkpt><trkpt lat="42.27197158621153" lon="14.032708200234694"><ele>280.0</ele><time>2026-05-03T10:49:49.999Z</time></trkpt><trkpt lat="42.27195611401591" lon="14.032578268582556"><ele>280.0</ele><time>2026-05-03T10:49:50.999Z</time></trkpt><trkpt lat="42.27195638869084" lon="14.032436657359197"><ele>280.0</ele><time>2026-05-03T10:49:51.999Z</time></trkpt><trkpt lat="42.27199588161357" lon="14.032253583151698"><ele>282.0</ele><time>2026-05-03T10:49:52.999Z</time></trkpt><trkpt lat="42.272020477374994" lon="14.032071505102639"><ele>284.0</ele><time>2026-05-03T10:49:53.999Z</time></trkpt><trkpt lat="42.272049142608736" lon="14.031916559430202"><ele>286.0</ele><time>2026-05-03T10:49:54.999Z</time></trkpt><trkpt lat="42.272073782288636" lon="14.031816710035118"><ele>288.0</ele><time>2026-05-03T10:49:55.999Z</time></trkpt><trkpt lat="42.27207666503801" lon="14.031676831514613"><ele>290.0</ele><time>2026-05-03T10:49:56.999Z</time></trkpt><trkpt lat="42.272079986595635" lon="14.031562087831935"><ele>290.33333333333337</ele><time>2026-05-03T10:49:57.999Z</time></trkpt><trkpt lat="42.27209316461244" lon="14.031469293906072"><ele>290.6666666666667</ele><time>2026-05-03T10:49:58.999Z</time></trkpt><trkpt lat="42.27211427037693" lon="14.03135118115975"><ele>291.0</ele><time>2026-05-03T10:49:59.999Z</time></trkpt><trkpt lat="42.272148082117496" lon="14.031238931138981"><ele>291.3333333333333</ele><time>2026-05-03T10:50:00.999Z</time></trkpt><trkpt lat="42.272174376768334" lon="14.031131069076222"><ele>291.66666666666663</ele><time>2026-05-03T10:50:01.999Z</time></trkpt><trkpt lat="42.27220032370046" lon="14.031031779184774"><ele>292.0</ele><time>2026-05-03T10:50:02.999Z</time></trkpt><trkpt lat="42.27221206430524" lon="14.030945658370218"><ele>292.0</ele><time>2026-05-03T10:50:03.999Z</time></trkpt><trkpt lat="42.27224670403972" lon="14.030870074180404"><ele>292.0</ele><time>2026-05-03T10:50:06Z</time></trkpt><trkpt lat="42.27241127988528" lon="14.030866940894578"><ele>292.0</ele><time>2026-05-03T10:50:08Z</time></trkpt><trkpt lat="42.27253742678298" lon="14.030853838741848"><ele>292.0</ele><time>2026-05-03T10:50:09Z</time></trkpt><trkpt lat="42.27265441427928" lon="14.03083172121499"><ele>291.4</ele><time>2026-05-03T10:50:10Z</time></trkpt><trkpt lat="42.272755072722944" lon="14.03080946295106"><ele>290.79999999999995</ele><time>2026-05-03T10:50:11Z</time></trkpt><trkpt lat="42.272855567735476" lon="14.030794382560284"><ele>290.2</ele><time>2026-05-03T10:50:12Z</time></trkpt><trkpt lat="42.27294657226719" lon="14.030797140559851"><ele>289.59999999999997</ele><time>2026-05-03T10:50:13Z</time></trkpt><trkpt lat="42.273048907461934" lon="14.030803773672945"><ele>289.0</ele><time>2026-05-03T10:50:14Z</time></trkpt><trkpt lat="42.27318453452712" lon="14.030804237202462"><ele>287.0</ele><time>2026-05-03T10:50:15Z</time></trkpt><trkpt lat="42.2733211503883" lon="14.030832838549017"><ele>285.0</ele><time>2026-05-03T10:50:16Z</time></trkpt><trkpt lat="42.273440538310155" lon="14.030894548700797"><ele>283.0</ele><time>2026-05-03T10:50:17Z</time></trkpt><trkpt lat="42.27354706560478" lon="14.03098238928905"><ele>281.0</ele><time>2026-05-03T10:50:18Z</time></trkpt><trkpt lat="42.273662816519355" lon="14.03106636597172"><ele>281.0</ele><time>2026-05-03T10:50:19Z</time></trkpt><trkpt lat="42.27377547332869" lon="14.031159615717852"><ele>281.0</ele><time>2026-05-03T10:50:20Z</time></trkpt><trkpt lat="42.273883297438246" lon="14.031278011194868"><ele>281.0</ele><time>2026-05-03T10:50:21Z</time></trkpt><trkpt lat="42.273983055792584" lon="14.031388654176062"><ele>281.0</ele><time>2026-05-03T10:50:22Z</time></trkpt><trkpt lat="42.2740508134605" lon="14.031460294218144"><ele>280.40000000000003</ele><time>2026-05-03T10:50:23Z</time></trkpt><trkpt lat="42.2741277193182" lon="14.031555126802747"><ele>279.8</ele><time>2026-05-03T10:50:25Z</time></trkpt><trkpt lat="42.27422740746713" lon="14.031639964237824"><ele>279.20000000000005</ele><time>2026-05-03T10:50:27Z</time></trkpt><trkpt lat="42.27428953209795" lon="14.031696139576308"><ele>278.6</ele><time>2026-05-03T10:50:28Z</time></trkpt><trkpt lat="42.27437520333415" lon="14.031744487038322"><ele>278.0</ele><time>2026-05-03T10:50:29Z</time></trkpt><trkpt lat="42.274458594566184" lon="14.031756022041446"><ele>278.0</ele><time>2026-05-03T10:50:30Z</time></trkpt><trkpt lat="42.27455676646966" lon="14.031726605124783"><ele>278.0</ele><time>2026-05-03T10:50:31Z</time></trkpt><trkpt lat="42.274678665887436" lon="14.03166290148204"><ele>278.0</ele><time>2026-05-03T10:50:32Z</time></trkpt><trkpt lat="42.274815861875005" lon="14.031589851891372"><ele>278.0</ele><time>2026-05-03T10:50:33Z</time></trkpt><trkpt lat="42.274972802446456" lon="14.031516234202332"><ele>267.33333333333337</ele><time>2026-05-03T10:50:34Z</time></trkpt><trkpt lat="42.2751371775491" lon="14.031461400495166"><ele>256.6666666666667</ele><time>2026-05-03T10:50:35Z</time></trkpt><trkpt lat="42.275299313701154" lon="14.031378677482904"><ele>246.0</ele><time>2026-05-03T10:50:36Z</time></trkpt><trkpt lat="42.27545331871013" lon="14.031302309417573"><ele>246.0</ele><time>2026-05-03T10:50:37Z</time></trkpt><trkpt lat="42.27559821028102" lon="14.03122444747738"><ele>246.0</ele><time>2026-05-03T10:50:38Z</time></trkpt><trkpt lat="42.27572554072085" lon="14.031140806431436"><ele>246.0</ele><time>2026-05-03T10:50:39Z</time></trkpt><trkpt lat="42.275852841066246" lon="14.031068896243246"><ele>246.0</ele><time>2026-05-03T10:50:40Z</time></trkpt><trkpt lat="42.27597624913545" lon="14.031011229657624"><ele>245.5</ele><time>2026-05-03T10:50:41Z</time></trkpt><trkpt lat="42.276100919178454" lon="14.030977312879733"><ele>245.0</ele><time>2026-05-03T10:50:42Z</time></trkpt><trkpt lat="42.2762202104906" lon="14.030973086316088"><ele>244.5</ele><time>2026-05-03T10:50:43Z</time></trkpt><trkpt lat="42.276337205971686" lon="14.031014719875731"><ele>244.0</ele><time>2026-05-03T10:50:44Z</time></trkpt><trkpt lat="42.276444633547484" lon="14.031142708883715"><ele>244.0</ele><time>2026-05-03T10:50:45Z</time></trkpt><trkpt lat="42.27655312503419" lon="14.031295236538542"><ele>244.0</ele><time>2026-05-03T10:50:46.001Z</time></trkpt><trkpt lat="42.27668373326028" lon="14.03150586936476"><ele>244.0</ele><time>2026-05-03T10:50:47.001Z</time></trkpt><trkpt lat="42.2768384022934" lon="14.031743667977524"><ele>247.66666666666666</ele><time>2026-05-03T10:50:48.001Z</time></trkpt><trkpt lat="42.27696659839045" lon="14.032002861029577"><ele>251.33333333333331</ele><time>2026-05-03T10:50:49.001Z</time></trkpt><trkpt lat="42.27709401795736" lon="14.03222556650655"><ele>255.0</ele><time>2026-05-03T10:50:50.001Z</time></trkpt><trkpt lat="42.27721615068203" lon="14.032414555216254"><ele>249.33333333333331</ele><time>2026-05-03T10:50:51.001Z</time></trkpt><trkpt lat="42.27735472296401" lon="14.03261355393121"><ele>243.66666666666666</ele><time>2026-05-03T10:50:52.001Z</time></trkpt><trkpt lat="42.27747932324816" lon="14.032798049320563"><ele>238.0</ele><time>2026-05-03T10:50:53.001Z</time></trkpt><trkpt lat="42.27759005302213" lon="14.032966750588537"><ele>238.0</ele><time>2026-05-03T10:50:54.001Z</time></trkpt><trkpt lat="42.27769697812956" lon="14.033134103408239"><ele>238.0</ele><time>2026-05-03T10:50:55.001Z</time></trkpt><trkpt lat="42.27780755055505" lon="14.033304671530901"><ele>238.0</ele><time>2026-05-03T10:50:56.001Z</time></trkpt><trkpt lat="42.277904333928674" lon="14.033462997605895"><ele>240.0</ele><time>2026-05-03T10:50:57.001Z</time></trkpt><trkpt lat="42.277995483578664" lon="14.033622340860695"><ele>242.0</ele><time>2026-05-03T10:50:58.001Z</time></trkpt><trkpt lat="42.278071237236" lon="14.033781156897009"><ele>244.0</ele><time>2026-05-03T10:50:59.001Z</time></trkpt><trkpt lat="42.278154241325566" lon="14.033970622632467"><ele>239.33333333333331</ele><time>2026-05-03T10:51:00.001Z</time></trkpt><trkpt lat="42.278255741546424" lon="14.03419785043681"><ele>234.66666666666669</ele><time>2026-05-03T10:51:01.001Z</time></trkpt><trkpt lat="42.27836676939651" lon="14.03444077321662"><ele>230.0</ele><time>2026-05-03T10:51:02.001Z</time></trkpt><trkpt lat="42.27846580054291" lon="14.034660116903423"><ele>230.0</ele><time>2026-05-03T10:51:03.001Z</time></trkpt><trkpt lat="42.278555365195025" lon="14.03485666599045"><ele>230.0</ele><time>2026-05-03T10:51:04.001Z</time></trkpt><trkpt lat="42.27866736619085" lon="14.035029501727319"><ele>230.0</ele><time>2026-05-03T10:51:05.001Z</time></trkpt><trkpt lat="42.27882455298137" lon="14.035191283750938"><ele>227.33333333333334</ele><time>2026-05-03T10:51:06.001Z</time></trkpt><trkpt lat="42.27896713781625" lon="14.035341157308187"><ele>224.66666666666669</ele><time>2026-05-03T10:51:07.001Z</time></trkpt><trkpt lat="42.27910005315227" lon="14.035501327298487"><ele>222.0</ele><time>2026-05-03T10:51:08.001Z</time></trkpt><trkpt lat="42.27920547587065" lon="14.035668178693964"><ele>222.66666666666669</ele><time>2026-05-03T10:51:09.001Z</time></trkpt><trkpt lat="42.27929192744211" lon="14.035866868795926"><ele>223.33333333333334</ele><time>2026-05-03T10:51:10.001Z</time></trkpt><trkpt lat="42.279379320918345" lon="14.036035183646124"><ele>224.0</ele><time>2026-05-03T10:51:11.001Z</time></trkpt><trkpt lat="42.27944002418538" lon="14.036209739306257"><ele>224.0</ele><time>2026-05-03T10:51:12.001Z</time></trkpt><trkpt lat="42.27950486035244" lon="14.036371692043604"><ele>224.0</ele><time>2026-05-03T10:51:13.001Z</time></trkpt><trkpt lat="42.279582046331754" lon="14.03653727928937"><ele>224.0</ele><time>2026-05-03T10:51:14.001Z</time></trkpt><trkpt lat="42.27966589709798" lon="14.0367048860455"><ele>224.0</ele><time>2026-05-03T10:51:15.001Z</time></trkpt><trkpt lat="42.27976454766313" lon="14.036896404591046"><ele>223.25</ele><time>2026-05-03T10:51:16.001Z</time></trkpt><trkpt lat="42.27984547051208" lon="14.037047612413513"><ele>222.5</ele><time>2026-05-03T10:51:17.001Z</time></trkpt><trkpt lat="42.27992671227909" lon="14.037195658613971"><ele>221.75</ele><time>2026-05-03T10:51:18.001Z</time></trkpt><trkpt lat="42.279996673407574" lon="14.03733476055881"><ele>221.0</ele><time>2026-05-03T10:51:19.001Z</time></trkpt><trkpt lat="42.28005716146756" lon="14.037483523190284"><ele>221.0</ele><time>2026-05-03T10:51:20.001Z</time></trkpt><trkpt lat="42.2801225973338" lon="14.03764094745456"><ele>221.0</ele><time>2026-05-03T10:51:21.001Z</time></trkpt><trkpt lat="42.28019542776632" lon="14.0377987020583"><ele>221.0</ele><time>2026-05-03T10:51:22.001Z</time></trkpt><trkpt lat="42.28028102776718" lon="14.0379544296523"><ele>221.0</ele><time>2026-05-03T10:51:23.001Z</time></trkpt><trkpt lat="42.28036970724565" lon="14.038101277467167"><ele>221.0</ele><time>2026-05-03T10:51:24.001Z</time></trkpt><trkpt lat="42.28047071027183" lon="14.038245776327432"><ele>221.0</ele><time>2026-05-03T10:51:25.001Z</time></trkpt><trkpt lat="42.28057510801806" lon="14.03839172899403"><ele>221.0</ele><time>2026-05-03T10:51:26.001Z</time></trkpt><trkpt lat="42.280688293462894" lon="14.03854042914418"><ele>218.33333333333334</ele><time>2026-05-03T10:51:27.001Z</time></trkpt><trkpt lat="42.28079349943424" lon="14.038681462778404"><ele>215.66666666666669</ele><time>2026-05-03T10:51:28.001Z</time></trkpt><trkpt lat="42.280910168382896" lon="14.038834997807617"><ele>213.0</ele><time>2026-05-03T10:51:29.001Z</time></trkpt><trkpt lat="42.281043262924484" lon="14.03898899354914"><ele>213.0</ele><time>2026-05-03T10:51:30.001Z</time></trkpt><trkpt lat="42.281200949730625" lon="14.039131811092881"><ele>213.0</ele><time>2026-05-03T10:51:31.001Z</time></trkpt><trkpt lat="42.281369496685095" lon="14.039259067587647"><ele>213.0</ele><time>2026-05-03T10:51:32.001Z</time></trkpt><trkpt lat="42.28154298340649" lon="14.039377308092401"><ele>212.66666666666669</ele><time>2026-05-03T10:51:33.001Z</time></trkpt><trkpt lat="42.281707191424395" lon="14.03945005215853"><ele>212.33333333333334</ele><time>2026-05-03T10:51:34.001Z</time></trkpt><trkpt lat="42.28185819917366" lon="14.039521228903734"><ele>212.0</ele><time>2026-05-03T10:51:35.001Z</time></trkpt><trkpt lat="42.282011258824404" lon="14.039602409665383"><ele>212.0</ele><time>2026-05-03T10:51:36.001Z</time></trkpt><trkpt lat="42.28215264813878" lon="14.039733332757207"><ele>212.0</ele><time>2026-05-03T10:51:37.001Z</time></trkpt><trkpt lat="42.28227971292396" lon="14.039831370674436"><ele>212.0</ele><time>2026-05-03T10:51:38.001Z</time></trkpt><trkpt lat="42.28239637861225" lon="14.040023473883538"><ele>210.66666666666669</ele><time>2026-05-03T10:51:39.002Z</time></trkpt><trkpt lat="42.28252510422548" lon="14.040174407319409"><ele>209.33333333333331</ele><time>2026-05-03T10:51:40.002Z</time></trkpt><trkpt lat="42.282641119921884" lon="14.040324278612026"><ele>208.0</ele><time>2026-05-03T10:51:41.002Z</time></trkpt><trkpt lat="42.28274168218136" lon="14.040469305794941"><ele>208.0</ele><time>2026-05-03T10:51:41.999Z</time></trkpt><trkpt lat="42.282828996217575" lon="14.040649441312885"><ele>208.0</ele><time>2026-05-03T10:51:42.999Z</time></trkpt><trkpt lat="42.28289404771294" lon="14.04082561444837"><ele>208.0</ele><time>2026-05-03T10:51:43.999Z</time></trkpt><trkpt lat="42.282963629340706" lon="14.041008918969881"><ele>207.0</ele><time>2026-05-03T10:51:44.999Z</time></trkpt><trkpt lat="42.28300513596598" lon="14.041190605858944"><ele>206.0</ele><time>2026-05-03T10:51:45.999Z</time></trkpt><trkpt lat="42.28306169432557" lon="14.041351176636526"><ele>205.0</ele><time>2026-05-03T10:51:46.999Z</time></trkpt><trkpt lat="42.28314498837588" lon="14.04146686036521"><ele>204.0</ele><time>2026-05-03T10:51:47.999Z</time></trkpt><trkpt lat="42.28325491207154" lon="14.041536593188503"><ele>204.0</ele><time>2026-05-03T10:51:48.999Z</time></trkpt><trkpt lat="42.283389917021" lon="14.041555644029648"><ele>204.0</ele><time>2026-05-03T10:51:49.999Z</time></trkpt><trkpt lat="42.283562014769046" lon="14.041563197300505"><ele>204.0</ele><time>2026-05-03T10:51:50.999Z</time></trkpt><trkpt lat="42.2837212184615" lon="14.04159149425121"><ele>204.0</ele><time>2026-05-03T10:51:51.999Z</time></trkpt><trkpt lat="42.283861501666664" lon="14.041623907159295"><ele>204.0</ele><time>2026-05-03T10:51:52.999Z</time></trkpt><trkpt lat="42.28401195217668" lon="14.041671908813708"><ele>204.0</ele><time>2026-05-03T10:51:53.999Z</time></trkpt><trkpt lat="42.28419105509892" lon="14.041730477702036"><ele>201.0</ele><time>2026-05-03T10:51:54.999Z</time></trkpt><trkpt lat="42.28437473137512" lon="14.041807473422974"><ele>198.0</ele><time>2026-05-03T10:51:55.999Z</time></trkpt><trkpt lat="42.28454666458236" lon="14.041873078326772"><ele>195.0</ele><time>2026-05-03T10:51:56.999Z</time></trkpt><trkpt lat="42.28470587089581" lon="14.041927842865983"><ele>192.0</ele><time>2026-05-03T10:51:57.999Z</time></trkpt><trkpt lat="42.28486116839883" lon="14.04198174498432"><ele>189.0</ele><time>2026-05-03T10:51:59Z</time></trkpt><trkpt lat="42.28501448320878" lon="14.042041348610045"><ele>186.0</ele><time>2026-05-03T10:52:00Z</time></trkpt><trkpt lat="42.285158348986734" lon="14.042101217325666"><ele>186.0</ele><time>2026-05-03T10:52:01Z</time></trkpt><trkpt lat="42.28529765797332" lon="14.042164900740973"><ele>186.0</ele><time>2026-05-03T10:52:02Z</time></trkpt><trkpt lat="42.28544662401711" lon="14.042211244530927"><ele>186.0</ele><time>2026-05-03T10:52:03Z</time></trkpt><trkpt lat="42.285616965434976" lon="14.042239972674913"><ele>185.0</ele><time>2026-05-03T10:52:04Z</time></trkpt><trkpt lat="42.28579077169474" lon="14.042262792581338"><ele>184.0</ele><time>2026-05-03T10:52:05Z</time></trkpt><trkpt lat="42.28597222231574" lon="14.042285502184887"><ele>183.0</ele><time>2026-05-03T10:52:06Z</time></trkpt><trkpt lat="42.286140524621004" lon="14.04232202878564"><ele>183.0</ele><time>2026-05-03T10:52:07Z</time></trkpt><trkpt lat="42.2862973646259" lon="14.042369536386236"><ele>183.0</ele><time>2026-05-03T10:52:08Z</time></trkpt><trkpt lat="42.286452293929635" lon="14.042403794521732"><ele>183.0</ele><time>2026-05-03T10:52:09Z</time></trkpt><trkpt lat="42.28662734717062" lon="14.042450462762769"><ele>178.66666666666666</ele><time>2026-05-03T10:52:10Z</time></trkpt><trkpt lat="42.28680996687706" lon="14.042506468279914"><ele>174.33333333333331</ele><time>2026-05-03T10:52:11Z</time></trkpt><trkpt lat="42.286982570227735" lon="14.042559875854575"><ele>170.0</ele><time>2026-05-03T10:52:12Z</time></trkpt><trkpt lat="42.28714459202799" lon="14.042616965778"><ele>168.66666666666666</ele><time>2026-05-03T10:52:13Z</time></trkpt><trkpt lat="42.28732520397445" lon="14.042673801131741"><ele>167.33333333333334</ele><time>2026-05-03T10:52:14Z</time></trkpt><trkpt lat="42.28752643777082" lon="14.042725061725779"><ele>166.0</ele><time>2026-05-03T10:52:15Z</time></trkpt><trkpt lat="42.2877192754883" lon="14.04275741015238"><ele>166.0</ele><time>2026-05-03T10:52:16Z</time></trkpt><trkpt lat="42.287895563341486" lon="14.042774414190257"><ele>166.0</ele><time>2026-05-03T10:52:17Z</time></trkpt><trkpt lat="42.28808397320482" lon="14.042790001033888"><ele>166.0</ele><time>2026-05-03T10:52:18Z</time></trkpt><trkpt lat="42.288299666926754" lon="14.042805163829586"><ele>163.33333333333334</ele><time>2026-05-03T10:52:19Z</time></trkpt><trkpt lat="42.28850291722916" lon="14.042804468626288"><ele>160.66666666666666</ele><time>2026-05-03T10:52:20Z</time></trkpt><trkpt lat="42.28869593700471" lon="14.042791583192878"><ele>158.0</ele><time>2026-05-03T10:52:21Z</time></trkpt><trkpt lat="42.28886219171861" lon="14.042782737101845"><ele>156.20000000000002</ele><time>2026-05-03T10:52:22Z</time></trkpt><trkpt lat="42.288996042871354" lon="14.04277928731529"><ele>154.4</ele><time>2026-05-03T10:52:23Z</time></trkpt><trkpt lat="42.289121184570206" lon="14.04278286632351"><ele>152.60000000000002</ele><time>2026-05-03T10:52:24Z</time></trkpt><trkpt lat="42.289226296782545" lon="14.042791367519202"><ele>150.8</ele><time>2026-05-03T10:52:25Z</time></trkpt><trkpt lat="42.28930423052305" lon="14.042806782982161"><ele>149.0</ele><time>2026-05-03T10:52:26Z</time></trkpt><trkpt lat="42.28934803087943" lon="14.042922011137318"><ele>149.0</ele><time>2026-05-03T10:52:28Z</time></trkpt><trkpt lat="42.28928963739138" lon="14.04298778007456"><ele>149.0</ele><time>2026-05-03T10:52:29Z</time></trkpt><trkpt lat="42.28916869373166" lon="14.042996412192679"><ele>149.0</ele><time>2026-05-03T10:52:31Z</time></trkpt><trkpt lat="42.28908905578622" lon="14.04303070988165"><ele>149.0</ele><time>2026-05-03T10:52:32Z</time></trkpt><trkpt lat="42.28903483244829" lon="14.043124179189235"><ele>149.0</ele><time>2026-05-03T10:52:34Z</time></trkpt><trkpt lat="42.28914376488354" lon="14.04326003629045"><ele>149.0</ele><time>2026-05-03T10:52:36.001Z</time></trkpt><trkpt lat="42.28925248573518" lon="14.04329007484128"><ele>149.0</ele><time>2026-05-03T10:52:37.001Z</time></trkpt><trkpt lat="42.289395170893286" lon="14.043286580212403"><ele>149.0</ele><time>2026-05-03T10:52:38.001Z</time></trkpt><trkpt lat="42.28953483914564" lon="14.043259678860597"><ele>149.0</ele><time>2026-05-03T10:52:39.001Z</time></trkpt><trkpt lat="42.289659561688694" lon="14.043206959927954"><ele>144.66666666666666</ele><time>2026-05-03T10:52:40.001Z</time></trkpt><trkpt lat="42.289793540861034" lon="14.043178328926858"><ele>140.33333333333334</ele><time>2026-05-03T10:52:41.001Z</time></trkpt><trkpt lat="42.289938727176974" lon="14.043123434224736"><ele>136.0</ele><time>2026-05-03T10:52:42.001Z</time></trkpt><trkpt lat="42.290098039076135" lon="14.043044645955064"><ele>136.0</ele><time>2026-05-03T10:52:43.001Z</time></trkpt><trkpt lat="42.29026438472437" lon="14.043010481730278"><ele>136.0</ele><time>2026-05-03T10:52:44.001Z</time></trkpt><trkpt lat="42.29040372859002" lon="14.042995421595093"><ele>136.0</ele><time>2026-05-03T10:52:45.001Z</time></trkpt><trkpt lat="42.29049478297719" lon="14.042987787756255"><ele>136.0</ele><time>2026-05-03T10:52:46.001Z</time></trkpt><trkpt lat="42.29055848689764" lon="14.043025047747252"><ele>136.0</ele><time>2026-05-03T10:52:47.001Z</time></trkpt><trkpt lat="42.29056282410469" lon="14.043126497815928"><ele>136.0</ele><time>2026-05-03T10:52:49.001Z</time></trkpt><trkpt lat="42.29048073489115" lon="14.043187450709377"><ele>136.0</ele><time>2026-05-03T10:52:50.001Z</time></trkpt><trkpt lat="42.29039202469106" lon="14.043240881446314"><ele>136.0</ele><time>2026-05-03T10:52:51.001Z</time></trkpt><trkpt lat="42.290295029377695" lon="14.043314367860082"><ele>136.0</ele><time>2026-05-03T10:52:52.001Z</time></trkpt><trkpt lat="42.290213371235225" lon="14.043405977613219"><ele>132.2</ele><time>2026-05-03T10:52:53.001Z</time></trkpt><trkpt lat="42.290130560072" lon="14.04349722899416"><ele>128.39999999999998</ele><time>2026-05-03T10:52:54.001Z</time></trkpt><trkpt lat="42.29005373909394" lon="14.043600038963527"><ele>124.6</ele><time>2026-05-03T10:52:55.001Z</time></trkpt><trkpt lat="42.28997790576305" lon="14.04369241688998"><ele>120.8</ele><time>2026-05-03T10:52:56.001Z</time></trkpt><trkpt lat="42.289933933913126" lon="14.043771070116318"><ele>117.0</ele><time>2026-05-03T10:52:57.001Z</time></trkpt><trkpt lat="42.289984603853114" lon="14.043914420318298"><ele>117.0</ele><time>2026-05-03T10:52:59.001Z</time></trkpt><trkpt lat="42.29006588689513" lon="14.04392741275333"><ele>116.99999999999999</ele><time>2026-05-03T10:53:00.001Z</time></trkpt><trkpt lat="42.290163528268046" lon="14.04390603552132"><ele>116.99999999999999</ele><time>2026-05-03T10:53:01.001Z</time></trkpt><trkpt lat="42.29023503969101" lon="14.043964281564365"><ele>117.0</ele><time>2026-05-03T10:53:03.001Z</time></trkpt><trkpt lat="42.290136851312454" lon="14.044041517393008"><ele>117.0</ele><time>2026-05-03T10:53:05.001Z</time></trkpt><trkpt lat="42.29004729201529" lon="14.044025795949354"><ele>117.0</ele><time>2026-05-03T10:53:06.001Z</time></trkpt><trkpt lat="42.28993306310316" lon="14.04406650856469"><ele>117.0</ele><time>2026-05-03T10:53:07.001Z</time></trkpt><trkpt lat="42.289808947647046" lon="14.044123366995759"><ele>117.0</ele><time>2026-05-03T10:53:08.001Z</time></trkpt><trkpt lat="42.289658203907244" lon="14.044186598870851"><ele>117.0</ele><time>2026-05-03T10:53:09.001Z</time></trkpt><trkpt lat="42.28948794558436" lon="14.04426506219818"><ele>113.33333333333334</ele><time>2026-05-03T10:53:10.001Z</time></trkpt><trkpt lat="42.28931061765637" lon="14.044316492315913"><ele>109.66666666666667</ele><time>2026-05-03T10:53:11.001Z</time></trkpt><trkpt lat="42.289155637852645" lon="14.044407633099222"><ele>106.0</ele><time>2026-05-03T10:53:12.001Z</time></trkpt><trkpt lat="42.28898866303554" lon="14.044500688750457"><ele>105.5</ele><time>2026-05-03T10:53:13.001Z</time></trkpt><trkpt lat="42.28885634004757" lon="14.044611236929885"><ele>105.0</ele><time>2026-05-03T10:53:14.001Z</time></trkpt><trkpt lat="42.28875431230835" lon="14.044764072743279"><ele>104.5</ele><time>2026-05-03T10:53:15.001Z</time></trkpt><trkpt lat="42.288685902974954" lon="14.044922821921142"><ele>104.0</ele><time>2026-05-03T10:53:16.001Z</time></trkpt><trkpt lat="42.2886282818428" lon="14.045070803296733"><ele>104.0</ele><time>2026-05-03T10:53:17.001Z</time></trkpt><trkpt lat="42.28857379977992" lon="14.045195615916349"><ele>104.0</ele><time>2026-05-03T10:53:18.001Z</time></trkpt><trkpt lat="42.28848100780649" lon="14.045273165803273"><ele>104.0</ele><time>2026-05-03T10:53:19.001Z</time></trkpt><trkpt lat="42.28838796984745" lon="14.045312427057354"><ele>104.0</ele><time>2026-05-03T10:53:20.001Z</time></trkpt><trkpt lat="42.288287279452966" lon="14.04533210877555"><ele>104.0</ele><time>2026-05-03T10:53:21.002Z</time></trkpt><trkpt lat="42.28818049235796" lon="14.045343411775205"><ele>107.25</ele><time>2026-05-03T10:53:22.002Z</time></trkpt><trkpt lat="42.28806285693083" lon="14.045366768867822"><ele>110.5</ele><time>2026-05-03T10:53:23.002Z</time></trkpt><trkpt lat="42.2879440404849" lon="14.045379420804313"><ele>113.75</ele><time>2026-05-03T10:53:24.002Z</time></trkpt><trkpt lat="42.28782688789819" lon="14.045417681081414"><ele>117.0</ele><time>2026-05-03T10:53:25.002Z</time></trkpt><trkpt lat="42.28771044574657" lon="14.045474725141881"><ele>117.0</ele><time>2026-05-03T10:53:26.002Z</time></trkpt><trkpt lat="42.287594254370646" lon="14.04553719452516"><ele>117.0</ele><time>2026-05-03T10:53:27.002Z</time></trkpt><trkpt lat="42.287472962717146" lon="14.04562305796002"><ele>117.0</ele><time>2026-05-03T10:53:28.002Z</time></trkpt><trkpt lat="42.287337771834316" lon="14.04570702995048"><ele>117.0</ele><time>2026-05-03T10:53:29.002Z</time></trkpt><trkpt lat="42.28719633989042" lon="14.045746190549028"><ele>119.25</ele><time>2026-05-03T10:53:30.002Z</time></trkpt><trkpt lat="42.28705978640508" lon="14.045785236850806"><ele>121.5</ele><time>2026-05-03T10:53:31.002Z</time></trkpt><trkpt lat="42.28692939175684" lon="14.045817458652802"><ele>123.75</ele><time>2026-05-03T10:53:32.002Z</time></trkpt><trkpt lat="42.286812580091684" lon="14.045847915800763"><ele>126.0</ele><time>2026-05-03T10:53:33.002Z</time></trkpt><trkpt lat="42.28673074644631" lon="14.045905884602304"><ele>122.16666666666667</ele><time>2026-05-03T10:53:34.002Z</time></trkpt><trkpt lat="42.28666202404127" lon="14.045958824650407"><ele>118.33333333333334</ele><time>2026-05-03T10:53:36.002Z</time></trkpt><trkpt lat="42.286680326464065" lon="14.046057020228117"><ele>114.5</ele><time>2026-05-03T10:53:37.002Z</time></trkpt><trkpt lat="42.28672902739704" lon="14.046150923523616"><ele>110.66666666666667</ele><time>2026-05-03T10:53:38.002Z</time></trkpt><trkpt lat="42.28675469440443" lon="14.046270743168984"><ele>106.83333333333334</ele><time>2026-05-03T10:53:39.002Z</time></trkpt><trkpt lat="42.28677463980135" lon="14.046375033592085"><ele>103.0</ele><time>2026-05-03T10:53:40.002Z</time></trkpt><trkpt lat="42.28667818128847" lon="14.046466060255854"><ele>103.0</ele><time>2026-05-03T10:53:43.002Z</time></trkpt><trkpt lat="42.28658020000864" lon="14.046523787845512"><ele>103.0</ele><time>2026-05-03T10:53:44.002Z</time></trkpt><trkpt lat="42.28646358612403" lon="14.046616263135641"><ele>103.0</ele><time>2026-05-03T10:53:45.002Z</time></trkpt><trkpt lat="42.28630912911767" lon="14.046690143477525"><ele>103.0</ele><time>2026-05-03T10:53:46.002Z</time></trkpt><trkpt lat="42.28616348454172" lon="14.046780689264482"><ele>100.33333333333334</ele><time>2026-05-03T10:53:47.002Z</time></trkpt><trkpt lat="42.28600400353945" lon="14.046879179729236"><ele>97.66666666666667</ele><time>2026-05-03T10:53:48.001Z</time></trkpt><trkpt lat="42.285861041111716" lon="14.046958852641936"><ele>95.0</ele><time>2026-05-03T10:53:49.001Z</time></trkpt><trkpt lat="42.285731475103084" lon="14.04703504809099"><ele>95.0</ele><time>2026-05-03T10:53:50.001Z</time></trkpt><trkpt lat="42.285578739712555" lon="14.047128686995936"><ele>95.0</ele><time>2026-05-03T10:53:51.001Z</time></trkpt><trkpt lat="42.28544763281699" lon="14.047209458829615"><ele>95.0</ele><time>2026-05-03T10:53:52.001Z</time></trkpt><trkpt lat="42.285320040407335" lon="14.047274461628335"><ele>95.0</ele><time>2026-05-03T10:53:53.001Z</time></trkpt><trkpt lat="42.285205404128554" lon="14.04734306918798"><ele>95.0</ele><time>2026-05-03T10:53:54.001Z</time></trkpt><trkpt lat="42.28509898747898" lon="14.047397457180601"><ele>95.0</ele><time>2026-05-03T10:53:55.001Z</time></trkpt><trkpt lat="42.28498071795335" lon="14.047462345344877"><ele>95.0</ele><time>2026-05-03T10:53:56.001Z</time></trkpt><trkpt lat="42.28486908137774" lon="14.047516855146853"><ele>95.0</ele><time>2026-05-03T10:53:57.001Z</time></trkpt><trkpt lat="42.28476647614949" lon="14.047567456618953"><ele>95.8</ele><time>2026-05-03T10:53:58.001Z</time></trkpt><trkpt lat="42.284697304270615" lon="14.047593985898763"><ele>96.6</ele><time>2026-05-03T10:53:59.001Z</time></trkpt><trkpt lat="42.28463575268025" lon="14.047624222434367"><ele>97.4</ele><time>2026-05-03T10:54:02.001Z</time></trkpt><trkpt lat="42.28475318516486" lon="14.047731954884537"><ele>98.2</ele><time>2026-05-03T10:54:07.001Z</time></trkpt><trkpt lat="42.28484012310504" lon="14.047688675988171"><ele>99.0</ele><time>2026-05-03T10:54:08.001Z</time></trkpt><trkpt lat="42.284938661447065" lon="14.047651440573405"><ele>99.4</ele><time>2026-05-03T10:54:09.001Z</time></trkpt><trkpt lat="42.28507247621968" lon="14.04763998510853"><ele>99.80000000000001</ele><time>2026-05-03T10:54:10.001Z</time></trkpt><trkpt lat="42.28517492878601" lon="14.047670823384662"><ele>100.19999999999999</ele><time>2026-05-03T10:54:11.001Z</time></trkpt><trkpt lat="42.28521352804824" lon="14.047793929577727"><ele>100.6</ele><time>2026-05-03T10:54:12.001Z</time></trkpt><trkpt lat="42.28527266530036" lon="14.047840403899581"><ele>101.0</ele><time>2026-05-03T10:54:14.001Z</time></trkpt><trkpt lat="42.28536453094669" lon="14.047880251365651"><ele>101.0</ele><time>2026-05-03T10:54:16.001Z</time></trkpt><trkpt lat="42.28545527323348" lon="14.047865022683961"><ele>101.0</ele><time>2026-05-03T10:54:17.001Z</time></trkpt><trkpt lat="42.285539967153156" lon="14.0478108465407"><ele>101.0</ele><time>2026-05-03T10:54:18.001Z</time></trkpt><trkpt lat="42.28562238152027" lon="14.047729655349743"><ele>101.0</ele><time>2026-05-03T10:54:19.001Z</time></trkpt><trkpt lat="42.285709240428346" lon="14.047664223066638"><ele>101.0</ele><time>2026-05-03T10:54:20.001Z</time></trkpt><trkpt lat="42.28581103716494" lon="14.047623104459678"><ele>101.8</ele><time>2026-05-03T10:54:21.001Z</time></trkpt><trkpt lat="42.28588426923753" lon="14.047558505917982"><ele>102.6</ele><time>2026-05-03T10:54:22.001Z</time></trkpt><trkpt lat="42.28598646288835" lon="14.04754575580678"><ele>103.4</ele><time>2026-05-03T10:54:23.001Z</time></trkpt><trkpt lat="42.28607586538294" lon="14.047526226390032"><ele>104.2</ele><time>2026-05-03T10:54:24.001Z</time></trkpt><trkpt lat="42.28617625376572" lon="14.04749871834609"><ele>105.0</ele><time>2026-05-03T10:54:25.001Z</time></trkpt><trkpt lat="42.28627449708045" lon="14.047508835044002"><ele>105.0</ele><time>2026-05-03T10:54:26.001Z</time></trkpt><trkpt lat="42.28636103893346" lon="14.047553452398033"><ele>105.0</ele><time>2026-05-03T10:54:27.001Z</time></trkpt><trkpt lat="42.28645566080404" lon="14.047578314029941"><ele>105.0</ele><time>2026-05-03T10:54:28.001Z</time></trkpt><trkpt lat="42.28654240038303" lon="14.047637371096293"><ele>105.0</ele><time>2026-05-03T10:54:29.001Z</time></trkpt><trkpt lat="42.28665259002018" lon="14.047709435745338"><ele>105.0</ele><time>2026-05-03T10:54:30.001Z</time></trkpt><trkpt lat="42.286738578595255" lon="14.047790467088445"><ele>106.25</ele><time>2026-05-03T10:54:31.001Z</time></trkpt><trkpt lat="42.286827483348276" lon="14.047865494476556"><ele>107.5</ele><time>2026-05-03T10:54:32.001Z</time></trkpt><trkpt lat="42.286941156778724" lon="14.047917519510449"><ele>108.75</ele><time>2026-05-03T10:54:33.001Z</time></trkpt><trkpt lat="42.28704842785905" lon="14.04796147670865"><ele>110.0</ele><time>2026-05-03T10:54:34.001Z</time></trkpt><trkpt lat="42.287194033326884" lon="14.04797605220114"><ele>109.25</ele><time>2026-05-03T10:54:35.001Z</time></trkpt><trkpt lat="42.287306831812174" lon="14.048015717136723"><ele>108.5</ele><time>2026-05-03T10:54:36.001Z</time></trkpt><trkpt lat="42.2874071755262" lon="14.048007403956952"><ele>107.75</ele><time>2026-05-03T10:54:37.001Z</time></trkpt><trkpt lat="42.28752616785947" lon="14.048004356787533"><ele>107.0</ele><time>2026-05-03T10:54:38.001Z</time></trkpt><trkpt lat="42.287669052050994" lon="14.0479815399647"><ele>107.0</ele><time>2026-05-03T10:54:39.001Z</time></trkpt><trkpt lat="42.287836323571426" lon="14.0479506281256"><ele>107.0</ele><time>2026-05-03T10:54:40.001Z</time></trkpt><trkpt lat="42.287971549595895" lon="14.047915149697987"><ele>107.0</ele><time>2026-05-03T10:54:41.001Z</time></trkpt><trkpt lat="42.288086871611675" lon="14.047888709436124"><ele>107.0</ele><time>2026-05-03T10:54:42.001Z</time></trkpt><trkpt lat="42.28818385827787" lon="14.04789992910078"><ele>108.39999999999999</ele><time>2026-05-03T10:54:43.001Z</time></trkpt><trkpt lat="42.288277606589986" lon="14.047902608260708"><ele>109.79999999999998</ele><time>2026-05-03T10:54:44.001Z</time></trkpt><trkpt lat="42.28837315918113" lon="14.047907192276131"><ele>111.2</ele><time>2026-05-03T10:54:45.001Z</time></trkpt><trkpt lat="42.288469848512676" lon="14.047909757987325"><ele>112.6</ele><time>2026-05-03T10:54:46.001Z</time></trkpt><trkpt lat="42.28859958206579" lon="14.047918402627515"><ele>114.0</ele><time>2026-05-03T10:54:47.001Z</time></trkpt><trkpt lat="42.288732131608135" lon="14.047923077335456"><ele>114.0</ele><time>2026-05-03T10:54:48.001Z</time></trkpt><trkpt lat="42.28885695738132" lon="14.047939414334182"><ele>114.0</ele><time>2026-05-03T10:54:49.001Z</time></trkpt><trkpt lat="42.2889642215802" lon="14.0479539344237"><ele>114.0</ele><time>2026-05-03T10:54:50.001Z</time></trkpt><trkpt lat="42.289072515394665" lon="14.047971851712266"><ele>114.0</ele><time>2026-05-03T10:54:51.001Z</time></trkpt><trkpt lat="42.28918747991659" lon="14.04798451238961"><ele>115.0</ele><time>2026-05-03T10:54:52.001Z</time></trkpt><trkpt lat="42.289307243601485" lon="14.04799495102097"><ele>116.0</ele><time>2026-05-03T10:54:53.001Z</time></trkpt><trkpt lat="42.28942126272822" lon="14.048012213553717"><ele>117.0</ele><time>2026-05-03T10:54:54.001Z</time></trkpt><trkpt lat="42.289515899385364" lon="14.04803729734231"><ele>118.0</ele><time>2026-05-03T10:54:55.001Z</time></trkpt><trkpt lat="42.289629646643995" lon="14.048078283070339"><ele>119.0</ele><time>2026-05-03T10:54:56.001Z</time></trkpt><trkpt lat="42.28974393382411" lon="14.04812242257191"><ele>119.6</ele><time>2026-05-03T10:54:57.001Z</time></trkpt><trkpt lat="42.28986476867259" lon="14.048127068527947"><ele>120.2</ele><time>2026-05-03T10:54:58.001Z</time></trkpt><trkpt lat="42.2899623529432" lon="14.048123810747985"><ele>120.79999999999998</ele><time>2026-05-03T10:54:59.001Z</time></trkpt><trkpt lat="42.29004097111557" lon="14.04812197391615"><ele>121.39999999999999</ele><time>2026-05-03T10:55:00.002Z</time></trkpt><trkpt lat="42.2901144305426" lon="14.04814803695979"><ele>122.0</ele><time>2026-05-03T10:55:01.002Z</time></trkpt><trkpt lat="42.29022200420203" lon="14.048182597246539"><ele>129.0</ele><time>2026-05-03T10:55:03.002Z</time></trkpt><trkpt lat="42.29030710449314" lon="14.048357001470173"><ele>136.0</ele><time>2026-05-03T10:55:05.002Z</time></trkpt><trkpt lat="42.29035562038059" lon="14.048503383255712"><ele>143.0</ele><time>2026-05-03T10:55:06.002Z</time></trkpt><trkpt lat="42.29042241408854" lon="14.048678546891905"><ele>150.0</ele><time>2026-05-03T10:55:07.002Z</time></trkpt><trkpt lat="42.29050650154456" lon="14.0488489817427"><ele>150.0</ele><time>2026-05-03T10:55:08.002Z</time></trkpt><trkpt lat="42.290588901102076" lon="14.049005238163582"><ele>150.0</ele><time>2026-05-03T10:55:09.002Z</time></trkpt><trkpt lat="42.29067673409875" lon="14.04916632681265"><ele>150.0</ele><time>2026-05-03T10:55:10.002Z</time></trkpt><trkpt lat="42.29077990544744" lon="14.04933419718918"><ele>150.33333333333334</ele><time>2026-05-03T10:55:11.002Z</time></trkpt><trkpt lat="42.290881979353095" lon="14.049502188771866"><ele>150.66666666666669</ele><time>2026-05-03T10:55:12.002Z</time></trkpt><trkpt lat="42.290975619419456" lon="14.049663007931503"><ele>151.0</ele><time>2026-05-03T10:55:13.002Z</time></trkpt><trkpt lat="42.29106487068587" lon="14.049807326956556"><ele>151.0</ele><time>2026-05-03T10:55:14.002Z</time></trkpt><trkpt lat="42.29115705396627" lon="14.04994633286321"><ele>151.0</ele><time>2026-05-03T10:55:15.002Z</time></trkpt><trkpt lat="42.29126544413416" lon="14.050081616898488"><ele>151.0</ele><time>2026-05-03T10:55:16.002Z</time></trkpt><trkpt lat="42.291386227116625" lon="14.050200649261368"><ele>151.0</ele><time>2026-05-03T10:55:17.002Z</time></trkpt><trkpt lat="42.2914945389525" lon="14.050295550238946"><ele>152.16666666666669</ele><time>2026-05-03T10:55:18.002Z</time></trkpt><trkpt lat="42.29156972095536" lon="14.05035643169788"><ele>153.33333333333334</ele><time>2026-05-03T10:55:19.002Z</time></trkpt><trkpt lat="42.29165124126757" lon="14.050382277109355"><ele>154.5</ele><time>2026-05-03T10:55:22.002Z</time></trkpt><trkpt lat="42.29173546470013" lon="14.050391309655343"><ele>155.66666666666666</ele><time>2026-05-03T10:55:24.002Z</time></trkpt><trkpt lat="42.29183421808701" lon="14.0504146210063"><ele>156.83333333333331</ele><time>2026-05-03T10:55:25.002Z</time></trkpt><trkpt lat="42.29190806943396" lon="14.050465613267587"><ele>158.0</ele><time>2026-05-03T10:55:26.002Z</time></trkpt><trkpt lat="42.29194578645648" lon="14.050559077226927"><ele>158.0</ele><time>2026-05-03T10:55:27.002Z</time></trkpt><trkpt lat="42.291972516613484" lon="14.050695838711704"><ele>158.0</ele><time>2026-05-03T10:55:28.002Z</time></trkpt><trkpt lat="42.292000309536185" lon="14.050868711921238"><ele>158.0</ele><time>2026-05-03T10:55:29.002Z</time></trkpt><trkpt lat="42.29202823248246" lon="14.051046529343111"><ele>158.0</ele><time>2026-05-03T10:55:30.002Z</time></trkpt><trkpt lat="42.29206936302847" lon="14.051223023429046"><ele>161.0</ele><time>2026-05-03T10:55:31.002Z</time></trkpt><trkpt lat="42.292120318117576" lon="14.051405093484059"><ele>164.0</ele><time>2026-05-03T10:55:32.002Z</time></trkpt><trkpt lat="42.29217596042689" lon="14.051584192044636"><ele>167.0</ele><time>2026-05-03T10:55:33.002Z</time></trkpt><trkpt lat="42.292234932735894" lon="14.05175175698905"><ele>170.0</ele><time>2026-05-03T10:55:34.002Z</time></trkpt><trkpt lat="42.292301203747876" lon="14.051924299540492"><ele>170.6</ele><time>2026-05-03T10:55:35.002Z</time></trkpt><trkpt lat="42.292353615035296" lon="14.052088583534935"><ele>171.2</ele><time>2026-05-03T10:55:36.002Z</time></trkpt><trkpt lat="42.292394607875735" lon="14.052229223262119"><ele>171.8</ele><time>2026-05-03T10:55:37.002Z</time></trkpt><trkpt lat="42.292395653695806" lon="14.052355642177554"><ele>172.4</ele><time>2026-05-03T10:55:38.002Z</time></trkpt><trkpt lat="42.29240191869584" lon="14.052460390258455"><ele>173.0</ele><time>2026-05-03T10:55:39.002Z</time></trkpt><trkpt lat="42.29256055713643" lon="14.052528647299477"><ele>173.0</ele><time>2026-05-03T10:55:43.002Z</time></trkpt><trkpt lat="42.29262296126878" lon="14.052495059918309"><ele>173.0</ele><time>2026-05-03T10:55:44.002Z</time></trkpt><trkpt lat="42.292692815226324" lon="14.052473758152798"><ele>173.0</ele><time>2026-05-03T10:55:45.002Z</time></trkpt><trkpt lat="42.2927552753703" lon="14.05244530041029"><ele>173.0</ele><time>2026-05-03T10:55:46.002Z</time></trkpt><trkpt lat="42.29284981478892" lon="14.052533208976037"><ele>173.0</ele><time>2026-05-03T10:55:47.002Z</time></trkpt><trkpt lat="42.292931508218174" lon="14.052592833602908"><ele>173.0</ele><time>2026-05-03T10:55:48.002Z</time></trkpt><trkpt lat="42.293039747177986" lon="14.052654332279992"><ele>172.8</ele><time>2026-05-03T10:55:49.002Z</time></trkpt><trkpt lat="42.293142978485236" lon="14.052718577446852"><ele>172.60000000000002</ele><time>2026-05-03T10:55:50.002Z</time></trkpt><trkpt lat="42.2932269665862" lon="14.052779665069501"><ele>172.39999999999998</ele><time>2026-05-03T10:55:51.002Z</time></trkpt><trkpt lat="42.29330640151175" lon="14.05286066882166"><ele>172.2</ele><time>2026-05-03T10:55:52.002Z</time></trkpt><trkpt lat="42.293359570676316" lon="14.05297260225447"><ele>172.0</ele><time>2026-05-03T10:55:53.003Z</time></trkpt><trkpt lat="42.29344231849536" lon="14.053099420784044"><ele>172.0</ele><time>2026-05-03T10:55:54.002Z</time></trkpt><trkpt lat="42.29353149713031" lon="14.053220971498668"><ele>172.0</ele><time>2026-05-03T10:55:55.002Z</time></trkpt><trkpt lat="42.2936166664485" lon="14.053363225869917"><ele>172.0</ele><time>2026-05-03T10:55:56.002Z</time></trkpt><trkpt lat="42.29372797924273" lon="14.053542750015588"><ele>172.0</ele><time>2026-05-03T10:55:57.002Z</time></trkpt><trkpt lat="42.29382876926792" lon="14.053715621490669"><ele>172.0</ele><time>2026-05-03T10:55:58.002Z</time></trkpt><trkpt lat="42.29389859738794" lon="14.053869067883513"><ele>172.0</ele><time>2026-05-03T10:55:59.002Z</time></trkpt><trkpt lat="42.29396744243214" lon="14.053955674362298"><ele>172.0</ele><time>2026-05-03T10:56:00.002Z</time></trkpt><trkpt lat="42.29401718660199" lon="14.054040095199316"><ele>172.0</ele><time>2026-05-03T10:56:01.002Z</time></trkpt><trkpt lat="42.29407232013327" lon="14.054124480500894"><ele>172.0</ele><time>2026-05-03T10:56:02.002Z</time></trkpt><trkpt lat="42.29414895599661" lon="14.054192025768327"><ele>173.0</ele><time>2026-05-03T10:56:03.002Z</time></trkpt><trkpt lat="42.294226904677046" lon="14.054285703450105"><ele>174.0</ele><time>2026-05-03T10:56:04.001Z</time></trkpt><trkpt lat="42.294317856937035" lon="14.05437245739629"><ele>175.0</ele><time>2026-05-03T10:56:05.001Z</time></trkpt><trkpt lat="42.29440853677818" lon="14.054460963612144"><ele>176.0</ele><time>2026-05-03T10:56:06.001Z</time></trkpt><trkpt lat="42.29449682630667" lon="14.054552602855086"><ele>177.0</ele><time>2026-05-03T10:56:07.001Z</time></trkpt><trkpt lat="42.2945873930605" lon="14.054648732365633"><ele>177.0</ele><time>2026-05-03T10:56:08.001Z</time></trkpt><trkpt lat="42.294674467988486" lon="14.054745829428535"><ele>177.0</ele><time>2026-05-03T10:56:09.001Z</time></trkpt><trkpt lat="42.29476171067857" lon="14.054837593947356"><ele>177.0</ele><time>2026-05-03T10:56:10.001Z</time></trkpt><trkpt lat="42.294855731681466" lon="14.054934343064378"><ele>177.0</ele><time>2026-05-03T10:56:11.001Z</time></trkpt><trkpt lat="42.294944105998525" lon="14.055027277651083"><ele>176.5</ele><time>2026-05-03T10:56:12.001Z</time></trkpt><trkpt lat="42.29501240670026" lon="14.05509639310796"><ele>176.0</ele><time>2026-05-03T10:56:13.001Z</time></trkpt><trkpt lat="42.295080096516585" lon="14.05514362040298"><ele>175.5</ele><time>2026-05-03T10:56:14.001Z</time></trkpt><trkpt lat="42.29514952164984" lon="14.05516724407763"><ele>175.0</ele><time>2026-05-03T10:56:15.001Z</time></trkpt><trkpt lat="42.295224960520514" lon="14.055174738992072"><ele>174.5</ele><time>2026-05-03T10:56:16.001Z</time></trkpt><trkpt lat="42.29531824130485" lon="14.055169705315736"><ele>174.0</ele><time>2026-05-03T10:56:17.001Z</time></trkpt><trkpt lat="42.29541238611753" lon="14.05516381594559"><ele>174.0</ele><time>2026-05-03T10:56:18.001Z</time></trkpt><trkpt lat="42.295512497301615" lon="14.05516232094585"><ele>174.0</ele><time>2026-05-03T10:56:19.001Z</time></trkpt><trkpt lat="42.29558965393387" lon="14.055170214821738"><ele>174.0</ele><time>2026-05-03T10:56:20.001Z</time></trkpt><trkpt lat="42.29565901081309" lon="14.055181997065587"><ele>174.0</ele><time>2026-05-03T10:56:21.001Z</time></trkpt><trkpt lat="42.2957159930308" lon="14.055227462696356"><ele>174.0</ele><time>2026-05-03T10:56:23.001Z</time></trkpt><trkpt lat="42.29572987368604" lon="14.05532517965697"><ele>174.0</ele><time>2026-05-03T10:56:25.001Z</time></trkpt><trkpt lat="42.29574214520567" lon="14.05543008832182"><ele>173.2</ele><time>2026-05-03T10:56:27.001Z</time></trkpt><trkpt lat="42.295856241337496" lon="14.055521526748914"><ele>172.39999999999998</ele><time>2026-05-03T10:56:29.001Z</time></trkpt><trkpt lat="42.295915599483024" lon="14.055603276147895"><ele>171.6</ele><time>2026-05-03T10:56:30.001Z</time></trkpt><trkpt lat="42.295965326436956" lon="14.0557195001216"><ele>170.8</ele><time>2026-05-03T10:56:31.001Z</time></trkpt><trkpt lat="42.296031289731864" lon="14.055860871805724"><ele>170.0</ele><time>2026-05-03T10:56:32.001Z</time></trkpt><trkpt lat="42.29608757743241" lon="14.055992994826266"><ele>170.0</ele><time>2026-05-03T10:56:33.001Z</time></trkpt><trkpt lat="42.29614802030552" lon="14.056136397500245"><ele>170.0</ele><time>2026-05-03T10:56:34.001Z</time></trkpt><trkpt lat="42.29620093690116" lon="14.056274772490516"><ele>170.0</ele><time>2026-05-03T10:56:35.001Z</time></trkpt><trkpt lat="42.29627424655526" lon="14.056420082485594"><ele>170.0</ele><time>2026-05-03T10:56:36.001Z</time></trkpt><trkpt lat="42.29633838713161" lon="14.056566968914156"><ele>169.5</ele><time>2026-05-03T10:56:37.001Z</time></trkpt><trkpt lat="42.29641149111192" lon="14.05671393185993"><ele>169.0</ele><time>2026-05-03T10:56:38.001Z</time></trkpt><trkpt lat="42.296492737821644" lon="14.056859717917366"><ele>168.5</ele><time>2026-05-03T10:56:39.001Z</time></trkpt><trkpt lat="42.29655738225474" lon="14.056977712881382"><ele>168.0</ele><time>2026-05-03T10:56:40.001Z</time></trkpt><trkpt lat="42.296614784769616" lon="14.05708360088048"><ele>167.2</ele><time>2026-05-03T10:56:41.001Z</time></trkpt><trkpt lat="42.29666805210622" lon="14.057189246698037"><ele>166.4</ele><time>2026-05-03T10:56:42.001Z</time></trkpt><trkpt lat="42.296722110943136" lon="14.057287828149821"><ele>165.6</ele><time>2026-05-03T10:56:43.001Z</time></trkpt><trkpt lat="42.29678506257622" lon="14.057404715361645"><ele>164.79999999999998</ele><time>2026-05-03T10:56:44.001Z</time></trkpt><trkpt lat="42.29685353774699" lon="14.057541265602818"><ele>164.0</ele><time>2026-05-03T10:56:45.001Z</time></trkpt><trkpt lat="42.29690636119759" lon="14.057675319970068"><ele>163.25</ele><time>2026-05-03T10:56:46.001Z</time></trkpt><trkpt lat="42.29697432066196" lon="14.057814906156864"><ele>162.5</ele><time>2026-05-03T10:56:47.001Z</time></trkpt><trkpt lat="42.29704231104734" lon="14.057959241148678"><ele>161.75</ele><time>2026-05-03T10:56:48.001Z</time></trkpt><trkpt lat="42.29711191532057" lon="14.058098186535972"><ele>161.0</ele><time>2026-05-03T10:56:49.001Z</time></trkpt><trkpt lat="42.29718112509886" lon="14.058228176895934"><ele>160.4</ele><time>2026-05-03T10:56:50.001Z</time></trkpt><trkpt lat="42.29722649162603" lon="14.058320576382735"><ele>159.8</ele><time>2026-05-03T10:56:51.001Z</time></trkpt><trkpt lat="42.29728170055094" lon="14.058434999864263"><ele>159.20000000000002</ele><time>2026-05-03T10:56:53.001Z</time></trkpt><trkpt lat="42.29735753302675" lon="14.058510308965861"><ele>158.60000000000002</ele><time>2026-05-03T10:56:56.001Z</time></trkpt><trkpt lat="42.29743373699256" lon="14.058543638793523"><ele>158.0</ele><time>2026-05-03T10:56:57.001Z</time></trkpt><trkpt lat="42.29753138398851" lon="14.058585820159859"><ele>158.0</ele><time>2026-05-03T10:56:58.001Z</time></trkpt><trkpt lat="42.29764440008887" lon="14.058633309386874"><ele>158.0</ele><time>2026-05-03T10:56:59.001Z</time></trkpt><trkpt lat="42.2977686017012" lon="14.05868685861096"><ele>158.0</ele><time>2026-05-03T10:57:00.002Z</time></trkpt><trkpt lat="42.297896403470915" lon="14.058748565996007"><ele>158.0</ele><time>2026-05-03T10:57:01.002Z</time></trkpt><trkpt lat="42.29803790065873" lon="14.058811854859512"><ele>157.25</ele><time>2026-05-03T10:57:02.002Z</time></trkpt><trkpt lat="42.29818026161942" lon="14.05887383512243"><ele>156.5</ele><time>2026-05-03T10:57:03.002Z</time></trkpt><trkpt lat="42.29829655527948" lon="14.058933207356645"><ele>155.75</ele><time>2026-05-03T10:57:04.002Z</time></trkpt><trkpt lat="42.29840714016625" lon="14.058989702721867"><ele>155.0</ele><time>2026-05-03T10:57:05.002Z</time></trkpt><trkpt lat="42.29851563380881" lon="14.059043419873086"><ele>155.0</ele><time>2026-05-03T10:57:06.002Z</time></trkpt><trkpt lat="42.29861256477829" lon="14.059086228352024"><ele>155.0</ele><time>2026-05-03T10:57:07.002Z</time></trkpt><trkpt lat="42.29870734010846" lon="14.059118952194952"><ele>155.0</ele><time>2026-05-03T10:57:08.002Z</time></trkpt><trkpt lat="42.29878848676871" lon="14.05916494213915"><ele>155.0</ele><time>2026-05-03T10:57:09.002Z</time></trkpt><trkpt lat="42.2988705845933" lon="14.059205501455992"><ele>155.0</ele><time>2026-05-03T10:57:10.002Z</time></trkpt><trkpt lat="42.29893617759426" lon="14.059235837858099"><ele>155.0</ele><time>2026-05-03T10:57:11.002Z</time></trkpt><trkpt lat="42.29899544462424" lon="14.059270869911542"><ele>154.5</ele><time>2026-05-03T10:57:12.002Z</time></trkpt><trkpt lat="42.29890659757228" lon="14.05942477907517"><ele>154.0</ele><time>2026-05-03T10:57:16.002Z</time></trkpt><trkpt lat="42.29879962745536" lon="14.059441581415888"><ele>153.5</ele><time>2026-05-03T10:57:17.002Z</time></trkpt><trkpt lat="42.29868699996389" lon="14.059447933435594"><ele>153.0</ele><time>2026-05-03T10:57:18.002Z</time></trkpt><trkpt lat="42.298548978382165" lon="14.059421548699172"><ele>153.0</ele><time>2026-05-03T10:57:19.002Z</time></trkpt><trkpt lat="42.298428281742545" lon="14.059344762574078"><ele>153.0</ele><time>2026-05-03T10:57:20.002Z</time></trkpt><trkpt lat="42.29831558334403" lon="14.059259687192093"><ele>153.0</ele><time>2026-05-03T10:57:21.002Z</time></trkpt><trkpt lat="42.29822197511619" lon="14.05916000866893"><ele>153.0</ele><time>2026-05-03T10:57:22.002Z</time></trkpt><trkpt lat="42.29813019719859" lon="14.059082338561817"><ele>152.66666666666666</ele><time>2026-05-03T10:57:23.002Z</time></trkpt><trkpt lat="42.29804984881481" lon="14.05903535391866"><ele>152.33333333333334</ele><time>2026-05-03T10:57:24.002Z</time></trkpt><trkpt lat="42.29796483761577" lon="14.059037995793146"><ele>152.0</ele><time>2026-05-03T10:57:25.002Z</time></trkpt><trkpt lat="42.297884341915484" lon="14.0590947767956"><ele>151.66666666666669</ele><time>2026-05-03T10:57:26.002Z</time></trkpt><trkpt lat="42.29783365251075" lon="14.059198279237009"><ele>151.33333333333334</ele><time>2026-05-03T10:57:27.002Z</time></trkpt><trkpt lat="42.29781261888797" lon="14.059306633019386"><ele>151.0</ele><time>2026-05-03T10:57:28.002Z</time></trkpt><trkpt lat="42.297847390924815" lon="14.059420456607029"><ele>151.0</ele><time>2026-05-03T10:57:29.002Z</time></trkpt><trkpt lat="42.29791078868572" lon="14.059505889110923"><ele>151.0</ele><time>2026-05-03T10:57:30.002Z</time></trkpt><trkpt lat="42.29803497245282" lon="14.059566683986606"><ele>151.0</ele><time>2026-05-03T10:57:31.002Z</time></trkpt><trkpt lat="42.29815650234757" lon="14.05968276334136"><ele>151.0</ele><time>2026-05-03T10:57:32.002Z</time></trkpt><trkpt lat="42.29830759547649" lon="14.059813615218353"><ele>146.66666666666669</ele><time>2026-05-03T10:57:33.002Z</time></trkpt><trkpt lat="42.29845847988984" lon="14.059952360545305"><ele>142.33333333333334</ele><time>2026-05-03T10:57:34.002Z</time></trkpt><trkpt lat="42.29860892770483" lon="14.060105097587455"><ele>138.0</ele><time>2026-05-03T10:57:35.002Z</time></trkpt><trkpt lat="42.29876843743948" lon="14.060248148150448"><ele>139.66666666666666</ele><time>2026-05-03T10:57:36.002Z</time></trkpt><trkpt lat="42.29892235235285" lon="14.060401001939312"><ele>141.33333333333331</ele><time>2026-05-03T10:57:37.002Z</time></trkpt><trkpt lat="42.29907488749297" lon="14.060559543964787"><ele>143.0</ele><time>2026-05-03T10:57:38.002Z</time></trkpt><trkpt lat="42.299217156412965" lon="14.060720549395569"><ele>137.66666666666666</ele><time>2026-05-03T10:57:39.002Z</time></trkpt><trkpt lat="42.29934629976662" lon="14.060888895010091"><ele>132.33333333333334</ele><time>2026-05-03T10:57:40.002Z</time></trkpt><trkpt lat="42.2994742267729" lon="14.061067274398741"><ele>127.0</ele><time>2026-05-03T10:57:41.002Z</time></trkpt><trkpt lat="42.29959669963844" lon="14.061251374973164"><ele>127.0</ele><time>2026-05-03T10:57:42.002Z</time></trkpt><trkpt lat="42.29972641224733" lon="14.061453344069509"><ele>127.0</ele><time>2026-05-03T10:57:43.002Z</time></trkpt><trkpt lat="42.29988171712216" lon="14.061691886414366"><ele>127.0</ele><time>2026-05-03T10:57:44.002Z</time></trkpt><trkpt lat="42.300058676138654" lon="14.061961341792543"><ele>122.0</ele><time>2026-05-03T10:57:45.002Z</time></trkpt><trkpt lat="42.30025096183201" lon="14.062253864768298"><ele>117.0</ele><time>2026-05-03T10:57:46.002Z</time></trkpt><trkpt lat="42.30043076911294" lon="14.062524699303022"><ele>115.0</ele><time>2026-05-03T10:57:47.002Z</time></trkpt><trkpt lat="42.30059470282957" lon="14.062773595986084"><ele>113.0</ele><time>2026-05-03T10:57:48.002Z</time></trkpt><trkpt lat="42.30076130879054" lon="14.063007056920512"><ele>113.0</ele><time>2026-05-03T10:57:49.002Z</time></trkpt><trkpt lat="42.30094839805072" lon="14.063240131465214"><ele>113.0</ele><time>2026-05-03T10:57:50.002Z</time></trkpt><trkpt lat="42.30115497540513" lon="14.063432170505731"><ele>113.0</ele><time>2026-05-03T10:57:51.002Z</time></trkpt><trkpt lat="42.30135758953637" lon="14.063628117227541"><ele>113.0</ele><time>2026-05-03T10:57:52.002Z</time></trkpt><trkpt lat="42.30156878069659" lon="14.063843686811788"><ele>113.0</ele><time>2026-05-03T10:57:53.002Z</time></trkpt><trkpt lat="42.30177965764596" lon="14.06402447292843"><ele>113.0</ele><time>2026-05-03T10:57:54.002Z</time></trkpt><trkpt lat="42.30197008102582" lon="14.064183081652796"><ele>108.33333333333333</ele><time>2026-05-03T10:57:55.002Z</time></trkpt><trkpt lat="42.30214652606902" lon="14.064322057352136"><ele>103.66666666666666</ele><time>2026-05-03T10:57:56.002Z</time></trkpt><trkpt lat="42.302328240092" lon="14.064452996791143"><ele>99.0</ele><time>2026-05-03T10:57:57.002Z</time></trkpt><trkpt lat="42.302508814302506" lon="14.064561465774034"><ele>99.0</ele><time>2026-05-03T10:57:58.002Z</time></trkpt><trkpt lat="42.30269488305281" lon="14.064650256313634"><ele>99.0</ele><time>2026-05-03T10:57:59.002Z</time></trkpt><trkpt lat="42.30287220756931" lon="14.064734012290147"><ele>99.0</ele><time>2026-05-03T10:58:00.001Z</time></trkpt><trkpt lat="42.303026960740915" lon="14.064810732859769"><ele>103.0</ele><time>2026-05-03T10:58:01.001Z</time></trkpt><trkpt lat="42.30317764472974" lon="14.064889049878552"><ele>107.0</ele><time>2026-05-03T10:58:02.001Z</time></trkpt><trkpt lat="42.303326605462225" lon="14.064949268886366"><ele>111.0</ele><time>2026-05-03T10:58:03.001Z</time></trkpt><trkpt lat="42.30347106396721" lon="14.065013950886614"><ele>104.75</ele><time>2026-05-03T10:58:04.001Z</time></trkpt><trkpt lat="42.30362128696914" lon="14.065040452542647"><ele>98.5</ele><time>2026-05-03T10:58:05.001Z</time></trkpt><trkpt lat="42.30376306051374" lon="14.065075881551191"><ele>92.25</ele><time>2026-05-03T10:58:06.001Z</time></trkpt><trkpt lat="42.303901833412844" lon="14.065111463258505"><ele>86.0</ele><time>2026-05-03T10:58:07.001Z</time></trkpt><trkpt lat="42.30403560370961" lon="14.0651418162487"><ele>85.8</ele><time>2026-05-03T10:58:08.001Z</time></trkpt><trkpt lat="42.30416647432944" lon="14.065175155425642"><ele>85.6</ele><time>2026-05-03T10:58:09.001Z</time></trkpt><trkpt lat="42.30428639390878" lon="14.065216279813011"><ele>85.4</ele><time>2026-05-03T10:58:10.001Z</time></trkpt><trkpt lat="42.304384102949676" lon="14.065251627469848"><ele>85.2</ele><time>2026-05-03T10:58:11.001Z</time></trkpt><trkpt lat="42.30446908051401" lon="14.065277997049924"><ele>85.0</ele><time>2026-05-03T10:58:12.001Z</time></trkpt><trkpt lat="42.304550308814704" lon="14.065326128048062"><ele>85.0</ele><time>2026-05-03T10:58:13.001Z</time></trkpt><trkpt lat="42.304663864044656" lon="14.065305202627986"><ele>85.0</ele><time>2026-05-03T10:58:14.001Z</time></trkpt><trkpt lat="42.30478597366704" lon="14.065316229498963"><ele>85.0</ele><time>2026-05-03T10:58:15.001Z</time></trkpt><trkpt lat="42.30492018176021" lon="14.065327777283752"><ele>85.0</ele><time>2026-05-03T10:58:16.001Z</time></trkpt><trkpt lat="42.30505421599432" lon="14.065327481457956"><ele>84.75</ele><time>2026-05-03T10:58:17.001Z</time></trkpt><trkpt lat="42.305178500430436" lon="14.065282747721582"><ele>84.5</ele><time>2026-05-03T10:58:18.001Z</time></trkpt><trkpt lat="42.30528170935809" lon="14.065204005120302"><ele>84.25</ele><time>2026-05-03T10:58:19.001Z</time></trkpt><trkpt lat="42.305389138790765" lon="14.06509086307719"><ele>84.0</ele><time>2026-05-03T10:58:20.001Z</time></trkpt><trkpt lat="42.305490558696754" lon="14.064944004218285"><ele>83.25</ele><time>2026-05-03T10:58:21.001Z</time></trkpt><trkpt lat="42.3055911459037" lon="14.06479659752162"><ele>82.5</ele><time>2026-05-03T10:58:22.001Z</time></trkpt><trkpt lat="42.3056779390175" lon="14.064660643422766"><ele>81.75</ele><time>2026-05-03T10:58:23.001Z</time></trkpt><trkpt lat="42.30575940012085" lon="14.064549450641351"><ele>81.0</ele><time>2026-05-03T10:58:24.001Z</time></trkpt><trkpt lat="42.30584178737059" lon="14.06444569038095"><ele>81.0</ele><time>2026-05-03T10:58:25.001Z</time></trkpt><trkpt lat="42.305917808430955" lon="14.064347258229146"><ele>81.0</ele><time>2026-05-03T10:58:26.001Z</time></trkpt><trkpt lat="42.305986618229234" lon="14.064251647405916"><ele>81.0</ele><time>2026-05-03T10:58:27.001Z</time></trkpt><trkpt lat="42.306082768715235" lon="14.064160650901865"><ele>81.0</ele><time>2026-05-03T10:58:28.001Z</time></trkpt><trkpt lat="42.306186629065266" lon="14.064028060722228"><ele>80.5</ele><time>2026-05-03T10:58:29.001Z</time></trkpt><trkpt lat="42.30629312352947" lon="14.06389213611689"><ele>80.0</ele><time>2026-05-03T10:58:30.001Z</time></trkpt><trkpt lat="42.30639275892309" lon="14.063764977295826"><ele>79.5</ele><time>2026-05-03T10:58:31.001Z</time></trkpt><trkpt lat="42.30648437733054" lon="14.063648050091802"><ele>79.0</ele><time>2026-05-03T10:58:32.001Z</time></trkpt><trkpt lat="42.30657260921854" lon="14.06353544497329"><ele>77.75</ele><time>2026-05-03T10:58:33.001Z</time></trkpt><trkpt lat="42.30665693774486" lon="14.063425932225757"><ele>76.5</ele><time>2026-05-03T10:58:34.001Z</time></trkpt><trkpt lat="42.30674001515459" lon="14.06331837186081"><ele>75.25</ele><time>2026-05-03T10:58:35.001Z</time></trkpt><trkpt lat="42.30682332887641" lon="14.063210505642964"><ele>74.0</ele><time>2026-05-03T10:58:36.001Z</time></trkpt><trkpt lat="42.3069030187053" lon="14.063109982488244"><ele>73.75</ele><time>2026-05-03T10:58:37.001Z</time></trkpt><trkpt lat="42.30699020307958" lon="14.062997837636752"><ele>73.5</ele><time>2026-05-03T10:58:38.001Z</time></trkpt><trkpt lat="42.30708208235844" lon="14.062877851722206"><ele>73.25</ele><time>2026-05-03T10:58:39.001Z</time></trkpt><trkpt lat="42.307166215497084" lon="14.062765254356826"><ele>73.0</ele><time>2026-05-03T10:58:40.001Z</time></trkpt><trkpt lat="42.30723204827383" lon="14.062652022664091"><ele>72.8</ele><time>2026-05-03T10:58:41.001Z</time></trkpt><trkpt lat="42.30730608544494" lon="14.062564647034813"><ele>72.6</ele><time>2026-05-03T10:58:42.001Z</time></trkpt><trkpt lat="42.30738734599482" lon="14.06245964825146"><ele>72.4</ele><time>2026-05-03T10:58:43.001Z</time></trkpt><trkpt lat="42.307472215591105" lon="14.06235144939249"><ele>72.2</ele><time>2026-05-03T10:58:44.001Z</time></trkpt><trkpt lat="42.30755976316764" lon="14.06223653487742"><ele>72.0</ele><time>2026-05-03T10:58:45.001Z</time></trkpt><trkpt lat="42.30765831475591" lon="14.062131698651461"><ele>72.0</ele><time>2026-05-03T10:58:46.001Z</time></trkpt><trkpt lat="42.307744310786525" lon="14.062023190204549"><ele>72.0</ele><time>2026-05-03T10:58:47.001Z</time></trkpt><trkpt lat="42.307821696803224" lon="14.061925288280035"><ele>72.0</ele><time>2026-05-03T10:58:48.001Z</time></trkpt><trkpt lat="42.30788978935342" lon="14.061820753145925"><ele>72.0</ele><time>2026-05-03T10:58:49.001Z</time></trkpt><trkpt lat="42.307956564564606" lon="14.06175013404997"><ele>72.0</ele><time>2026-05-03T10:58:50.001Z</time></trkpt><trkpt lat="42.308041846557494" lon="14.061699744324176"><ele>72.0</ele><time>2026-05-03T10:58:52.001Z</time></trkpt><trkpt lat="42.308124514492064" lon="14.06181922569654"><ele>72.0</ele><time>2026-05-03T10:58:54.001Z</time></trkpt><trkpt lat="42.3081618853689" lon="14.061906718424213"><ele>72.0</ele><time>2026-05-03T10:58:55.001Z</time></trkpt><trkpt lat="42.30821798043041" lon="14.062021049526008"><ele>72.0</ele><time>2026-05-03T10:58:56.001Z</time></trkpt><trkpt lat="42.30827147624482" lon="14.062154356433552"><ele>72.0</ele><time>2026-05-03T10:58:57.001Z</time></trkpt><trkpt lat="42.30833743917051" lon="14.062295917711143"><ele>72.33333333333333</ele><time>2026-05-03T10:58:58.001Z</time></trkpt><trkpt lat="42.308412701146295" lon="14.062455026089962"><ele>72.66666666666666</ele><time>2026-05-03T10:58:59.001Z</time></trkpt><trkpt lat="42.30850170288049" lon="14.062626853595871"><ele>73.0</ele><time>2026-05-03T10:59:00.001Z</time></trkpt><trkpt lat="42.308596755392514" lon="14.062824771869789"><ele>73.0</ele><time>2026-05-03T10:59:01.001Z</time></trkpt><trkpt lat="42.30868674000064" lon="14.063021721807232"><ele>73.0</ele><time>2026-05-03T10:59:02.001Z</time></trkpt><trkpt lat="42.30876637712916" lon="14.063181775663866"><ele>73.0</ele><time>2026-05-03T10:59:03.001Z</time></trkpt><trkpt lat="42.308844810811955" lon="14.06334420953335"><ele>73.0</ele><time>2026-05-03T10:59:04.001Z</time></trkpt><trkpt lat="42.30891497972093" lon="14.063489409976734"><ele>73.0</ele><time>2026-05-03T10:59:05.001Z</time></trkpt><trkpt lat="42.308978109366215" lon="14.063618789542002"><ele>73.0</ele><time>2026-05-03T10:59:06.001Z</time></trkpt><trkpt lat="42.30903654712511" lon="14.063735333308019"><ele>73.0</ele><time>2026-05-03T10:59:07.001Z</time></trkpt><trkpt lat="42.30909794403556" lon="14.063851915988446"><ele>73.0</ele><time>2026-05-03T10:59:08.001Z</time></trkpt><trkpt lat="42.30915656997205" lon="14.06397709810174"><ele>73.0</ele><time>2026-05-03T10:59:09.001Z</time></trkpt><trkpt lat="42.30920912657491" lon="14.064082546790841"><ele>73.0</ele><time>2026-05-03T10:59:10.001Z</time></trkpt><trkpt lat="42.30925241884876" lon="14.064175503180895"><ele>73.0</ele><time>2026-05-03T10:59:11.001Z</time></trkpt><trkpt lat="42.309292788073535" lon="14.064272400983773"><ele>73.0</ele><time>2026-05-03T10:59:12.001Z</time></trkpt><trkpt lat="42.3093389124335" lon="14.06437990287339"><ele>72.5</ele><time>2026-05-03T10:59:13.001Z</time></trkpt><trkpt lat="42.30939804433592" lon="14.064491668874556"><ele>72.0</ele><time>2026-05-03T10:59:14.001Z</time></trkpt><trkpt lat="42.30947656476122" lon="14.064625775156035"><ele>71.5</ele><time>2026-05-03T10:59:15.001Z</time></trkpt><trkpt lat="42.3095661012046" lon="14.064799128254442"><ele>71.0</ele><time>2026-05-03T10:59:16.001Z</time></trkpt><trkpt lat="42.30966424105653" lon="14.065009657592418"><ele>71.0</ele><time>2026-05-03T10:59:17.001Z</time></trkpt><trkpt lat="42.30975373709784" lon="14.065216834169036"><ele>71.0</ele><time>2026-05-03T10:59:18.001Z</time></trkpt><trkpt lat="42.309854081386206" lon="14.065454280798749"><ele>71.0</ele><time>2026-05-03T10:59:19.001Z</time></trkpt><trkpt lat="42.3099642456639" lon="14.065680077668336"><ele>71.0</ele><time>2026-05-03T10:59:20.001Z</time></trkpt><trkpt lat="42.31006368437675" lon="14.06588842476808"><ele>71.0</ele><time>2026-05-03T10:59:21.001Z</time></trkpt><trkpt lat="42.31015844099054" lon="14.066073339796066"><ele>71.0</ele><time>2026-05-03T10:59:22.001Z</time></trkpt><trkpt lat="42.31024379383122" lon="14.066249239727828"><ele>71.0</ele><time>2026-05-03T10:59:23.001Z</time></trkpt><trkpt lat="42.31033782195605" lon="14.066423208915612"><ele>71.0</ele><time>2026-05-03T10:59:24.001Z</time></trkpt><trkpt lat="42.31041314263697" lon="14.066558186386985"><ele>71.0</ele><time>2026-05-03T10:59:25.001Z</time></trkpt><trkpt lat="42.31049245852083" lon="14.066695575849083"><ele>71.0</ele><time>2026-05-03T10:59:26.001Z</time></trkpt><trkpt lat="42.31055378303052" lon="14.066802140783135"><ele>71.0</ele><time>2026-05-03T10:59:27.001Z</time></trkpt><trkpt lat="42.31059535486932" lon="14.066888631790679"><ele>71.0</ele><time>2026-05-03T10:59:28.001Z</time></trkpt><trkpt lat="42.310615143628745" lon="14.066989144961491"><ele>71.0</ele><time>2026-05-03T10:59:29.001Z</time></trkpt><trkpt lat="42.31061922275988" lon="14.067099432918967"><ele>71.0</ele><time>2026-05-03T10:59:30.001Z</time></trkpt><trkpt lat="42.310630614921806" lon="14.067203392913878"><ele>71.0</ele><time>2026-05-03T10:59:31.001Z</time></trkpt><trkpt lat="42.31067023876125" lon="14.067288650280357"><ele>71.0</ele><time>2026-05-03T10:59:32.001Z</time></trkpt><trkpt lat="42.31073343314746" lon="14.067379306169801"><ele>71.25</ele><time>2026-05-03T10:59:33.001Z</time></trkpt><trkpt lat="42.31080392961567" lon="14.067494187027586"><ele>71.5</ele><time>2026-05-03T10:59:34.001Z</time></trkpt><trkpt lat="42.310880202454115" lon="14.06764019751675"><ele>71.75</ele><time>2026-05-03T10:59:35.001Z</time></trkpt><trkpt lat="42.31096209347456" lon="14.06778999692427"><ele>72.0</ele><time>2026-05-03T10:59:36.001Z</time></trkpt><trkpt lat="42.31104938004109" lon="14.0679591261403"><ele>72.0</ele><time>2026-05-03T10:59:37.001Z</time></trkpt><trkpt lat="42.31112861638806" lon="14.06813433680609"><ele>72.0</ele><time>2026-05-03T10:59:38.001Z</time></trkpt><trkpt lat="42.311209256798456" lon="14.068296251327569"><ele>72.0</ele><time>2026-05-03T10:59:39.001Z</time></trkpt><trkpt lat="42.31129169495375" lon="14.068480332851449"><ele>72.0</ele><time>2026-05-03T10:59:40.001Z</time></trkpt><trkpt lat="42.31137840990217" lon="14.068655060294052"><ele>72.0</ele><time>2026-05-03T10:59:41.001Z</time></trkpt><trkpt lat="42.311467633004646" lon="14.068840947844434"><ele>72.0</ele><time>2026-05-03T10:59:42.001Z</time></trkpt><trkpt lat="42.31155805707132" lon="14.069032646906958"><ele>72.0</ele><time>2026-05-03T10:59:43.001Z</time></trkpt><trkpt lat="42.311653039909636" lon="14.069226820286405"><ele>72.0</ele><time>2026-05-03T10:59:44.001Z</time></trkpt><trkpt lat="42.31174107368372" lon="14.069408503398547"><ele>72.0</ele><time>2026-05-03T10:59:45.001Z</time></trkpt><trkpt lat="42.31182802742483" lon="14.069588884211997"><ele>72.0</ele><time>2026-05-03T10:59:46.001Z</time></trkpt><trkpt lat="42.311913047631414" lon="14.069761789671285"><ele>72.0</ele><time>2026-05-03T10:59:47.001Z</time></trkpt><trkpt lat="42.31199378524896" lon="14.06992842641838"><ele>72.0</ele><time>2026-05-03T10:59:48.001Z</time></trkpt><trkpt lat="42.31207206410845" lon="14.070091888241462"><ele>72.0</ele><time>2026-05-03T10:59:49.001Z</time></trkpt><trkpt lat="42.31215039875181" lon="14.070264017255507"><ele>71.66666666666667</ele><time>2026-05-03T10:59:50.001Z</time></trkpt><trkpt lat="42.312238573276574" lon="14.070441888331448"><ele>71.33333333333334</ele><time>2026-05-03T10:59:51.001Z</time></trkpt><trkpt lat="42.312323373451036" lon="14.0706161212899"><ele>71.0</ele><time>2026-05-03T10:59:52.002Z</time></trkpt><trkpt lat="42.31240954709361" lon="14.07079797518642"><ele>70.33333333333334</ele><time>2026-05-03T10:59:53.002Z</time></trkpt><trkpt lat="42.312504559819054" lon="14.07099213392589"><ele>69.66666666666667</ele><time>2026-05-03T10:59:54.002Z</time></trkpt><trkpt lat="42.312585536788" lon="14.07116259237866"><ele>69.0</ele><time>2026-05-03T10:59:55.002Z</time></trkpt><trkpt lat="42.31266833388249" lon="14.07133852097415"><ele>69.0</ele><time>2026-05-03T10:59:56.002Z</time></trkpt><trkpt lat="42.312739930914056" lon="14.071494256352024"><ele>69.0</ele><time>2026-05-03T10:59:57.002Z</time></trkpt><trkpt lat="42.31281705485248" lon="14.071647090195386"><ele>69.0</ele><time>2026-05-03T10:59:58.002Z</time></trkpt><trkpt lat="42.31288953623706" lon="14.071788086261288"><ele>69.0</ele><time>2026-05-03T10:59:59.002Z</time></trkpt><trkpt lat="42.31297062139776" lon="14.071946927468346"><ele>69.33333333333333</ele><time>2026-05-03T11:00:00.002Z</time></trkpt><trkpt lat="42.31305795654903" lon="14.072110522956127"><ele>69.66666666666666</ele><time>2026-05-03T11:00:01.002Z</time></trkpt><trkpt lat="42.313160161396716" lon="14.072301172621527"><ele>70.0</ele><time>2026-05-03T11:00:02.002Z</time></trkpt><trkpt lat="42.31326160625757" lon="14.072504234587369"><ele>68.66666666666666</ele><time>2026-05-03T11:00:03.002Z</time></trkpt><trkpt lat="42.31336219658666" lon="14.072731796590872"><ele>67.33333333333333</ele><time>2026-05-03T11:00:04.002Z</time></trkpt><trkpt lat="42.313460014314124" lon="14.072950396500863"><ele>66.0</ele><time>2026-05-03T11:00:05.002Z</time></trkpt><trkpt lat="42.31355340252512" lon="14.07315734478436"><ele>67.0</ele><time>2026-05-03T11:00:06Z</time></trkpt><trkpt lat="42.313646226882014" lon="14.073354835499373"><ele>68.0</ele><time>2026-05-03T11:00:07Z</time></trkpt><trkpt lat="42.31374109519628" lon="14.073551821294739"><ele>69.0</ele><time>2026-05-03T11:00:08Z</time></trkpt><trkpt lat="42.31383914110741" lon="14.073744293286708"><ele>68.66666666666667</ele><time>2026-05-03T11:00:09Z</time></trkpt><trkpt lat="42.313929626719954" lon="14.073921554896193"><ele>68.33333333333334</ele><time>2026-05-03T11:00:10Z</time></trkpt><trkpt lat="42.31401138293774" lon="14.074091516961483"><ele>68.0</ele><time>2026-05-03T11:00:11Z</time></trkpt><trkpt lat="42.31410196769626" lon="14.074274877922107"><ele>68.0</ele><time>2026-05-03T11:00:12Z</time></trkpt><trkpt lat="42.31417897102287" lon="14.07444445847066"><ele>68.0</ele><time>2026-05-03T11:00:13Z</time></trkpt><trkpt lat="42.31425943323573" lon="14.074617800047804"><ele>68.0</ele><time>2026-05-03T11:00:14Z</time></trkpt><trkpt lat="42.31432885618564" lon="14.074766586130886"><ele>68.0</ele><time>2026-05-03T11:00:15Z</time></trkpt><trkpt lat="42.31439448154567" lon="14.074904114426232"><ele>68.0</ele><time>2026-05-03T11:00:16Z</time></trkpt><trkpt lat="42.314461721671336" lon="14.075029064759747"><ele>68.0</ele><time>2026-05-03T11:00:17Z</time></trkpt><trkpt lat="42.31453821862301" lon="14.075158053823692"><ele>68.0</ele><time>2026-05-03T11:00:18Z</time></trkpt><trkpt lat="42.314612994224746" lon="14.075303595612967"><ele>68.0</ele><time>2026-05-03T11:00:19Z</time></trkpt><trkpt lat="42.31467634150434" lon="14.075462769606844"><ele>68.25</ele><time>2026-05-03T11:00:20Z</time></trkpt><trkpt lat="42.31474039160244" lon="14.075630291714422"><ele>68.5</ele><time>2026-05-03T11:00:21Z</time></trkpt><trkpt lat="42.31481367641438" lon="14.075799072378361"><ele>68.75</ele><time>2026-05-03T11:00:22Z</time></trkpt><trkpt lat="42.314893170243316" lon="14.07596187763787"><ele>69.0</ele><time>2026-05-03T11:00:23Z</time></trkpt><trkpt lat="42.31497288882804" lon="14.076119677014043"><ele>69.0</ele><time>2026-05-03T11:00:24Z</time></trkpt><trkpt lat="42.31506121019637" lon="14.07628815628607"><ele>69.0</ele><time>2026-05-03T11:00:25Z</time></trkpt><trkpt lat="42.31515023981625" lon="14.076464144966852"><ele>69.0</ele><time>2026-05-03T11:00:26Z</time></trkpt><trkpt lat="42.315225321669" lon="14.076628734022014"><ele>69.0</ele><time>2026-05-03T11:00:27Z</time></trkpt><trkpt lat="42.31529787627955" lon="14.076778016812456"><ele>69.0</ele><time>2026-05-03T11:00:28Z</time></trkpt><trkpt lat="42.31536525864215" lon="14.076921184622334"><ele>69.0</ele><time>2026-05-03T11:00:29Z</time></trkpt><trkpt lat="42.31543683481759" lon="14.077074537694964"><ele>69.0</ele><time>2026-05-03T11:00:30Z</time></trkpt><trkpt lat="42.315517138287575" lon="14.077241347656903"><ele>68.66666666666667</ele><time>2026-05-03T11:00:31Z</time></trkpt><trkpt lat="42.31560552441704" lon="14.077420838325528"><ele>68.33333333333334</ele><time>2026-05-03T11:00:32Z</time></trkpt><trkpt lat="42.31569339890291" lon="14.077616915252635"><ele>68.0</ele><time>2026-05-03T11:00:33Z</time></trkpt><trkpt lat="42.31578539558826" lon="14.077832874212376"><ele>68.0</ele><time>2026-05-03T11:00:34Z</time></trkpt><trkpt lat="42.31588793958956" lon="14.078059470108409"><ele>68.0</ele><time>2026-05-03T11:00:35Z</time></trkpt><trkpt lat="42.315997125595" lon="14.078290466293234"><ele>68.0</ele><time>2026-05-03T11:00:36Z</time></trkpt><trkpt lat="42.31610783478495" lon="14.07851930843226"><ele>68.0</ele><time>2026-05-03T11:00:37Z</time></trkpt><trkpt lat="42.31622110165913" lon="14.0787467090683"><ele>68.0</ele><time>2026-05-03T11:00:38Z</time></trkpt><trkpt lat="42.316332754394224" lon="14.078977085383112"><ele>68.0</ele><time>2026-05-03T11:00:39Z</time></trkpt><trkpt lat="42.316439025605405" lon="14.079205789073935"><ele>67.66666666666667</ele><time>2026-05-03T11:00:40Z</time></trkpt><trkpt lat="42.31654769068316" lon="14.079431179221332"><ele>67.33333333333333</ele><time>2026-05-03T11:00:41Z</time></trkpt><trkpt lat="42.31665377311847" lon="14.079654153182714"><ele>67.0</ele><time>2026-05-03T11:00:42Z</time></trkpt><trkpt lat="42.31676213101198" lon="14.079879241230048"><ele>67.0</ele><time>2026-05-03T11:00:43Z</time></trkpt><trkpt lat="42.31687689428166" lon="14.080101977652618"><ele>67.0</ele><time>2026-05-03T11:00:44Z</time></trkpt><trkpt lat="42.316967036173324" lon="14.0803041322115"><ele>67.0</ele><time>2026-05-03T11:00:45Z</time></trkpt><trkpt lat="42.317056910457325" lon="14.080497161387742"><ele>67.0</ele><time>2026-05-03T11:00:46Z</time></trkpt><trkpt lat="42.317158664490066" lon="14.080704899212325"><ele>67.0</ele><time>2026-05-03T11:00:47Z</time></trkpt><trkpt lat="42.31726010011715" lon="14.080915467087433"><ele>67.0</ele><time>2026-05-03T11:00:48Z</time></trkpt><trkpt lat="42.317360925864" lon="14.081127625526442"><ele>66.33333333333333</ele><time>2026-05-03T11:00:49Z</time></trkpt><trkpt lat="42.31745744681273" lon="14.081320011740807"><ele>65.66666666666667</ele><time>2026-05-03T11:00:50Z</time></trkpt><trkpt lat="42.31754403793611" lon="14.081494819051949"><ele>65.0</ele><time>2026-05-03T11:00:51Z</time></trkpt><trkpt lat="42.317622507877374" lon="14.081656348839115"><ele>64.75</ele><time>2026-05-03T11:00:52Z</time></trkpt><trkpt lat="42.31769383853393" lon="14.081800500555396"><ele>64.5</ele><time>2026-05-03T11:00:53Z</time></trkpt><trkpt lat="42.31775823377227" lon="14.08192940050381"><ele>64.25</ele><time>2026-05-03T11:00:54Z</time></trkpt><trkpt lat="42.31781604559035" lon="14.082044064279627"><ele>64.0</ele><time>2026-05-03T11:00:55Z</time></trkpt><trkpt lat="42.317872374970754" lon="14.082167729877142"><ele>64.0</ele><time>2026-05-03T11:00:56Z</time></trkpt><trkpt lat="42.317932217753956" lon="14.08229800851531"><ele>64.0</ele><time>2026-05-03T11:00:57.001Z</time></trkpt><trkpt lat="42.31800504922938" lon="14.082440778521207"><ele>64.0</ele><time>2026-05-03T11:00:58.001Z</time></trkpt><trkpt lat="42.31809964987385" lon="14.082615808896412"><ele>64.0</ele><time>2026-05-03T11:00:59.001Z</time></trkpt><trkpt lat="42.31820624770748" lon="14.082822602777723"><ele>64.0</ele><time>2026-05-03T11:01:00.001Z</time></trkpt><trkpt lat="42.318316426950204" lon="14.083069460647863"><ele>64.0</ele><time>2026-05-03T11:01:01.001Z</time></trkpt><trkpt lat="42.318427389324185" lon="14.083331890445352"><ele>64.0</ele><time>2026-05-03T11:01:02.001Z</time></trkpt><trkpt lat="42.31854517387555" lon="14.083604251346488"><ele>64.0</ele><time>2026-05-03T11:01:03.001Z</time></trkpt><trkpt lat="42.31866561163641" lon="14.083858627084686"><ele>64.0</ele><time>2026-05-03T11:01:04.001Z</time></trkpt><trkpt lat="42.318787012332166" lon="14.084113190804567"><ele>64.0</ele><time>2026-05-03T11:01:05.001Z</time></trkpt><trkpt lat="42.31891341619833" lon="14.084370745240248"><ele>63.666666666666664</ele><time>2026-05-03T11:01:06.001Z</time></trkpt><trkpt lat="42.319030335184365" lon="14.084623754242381"><ele>63.33333333333333</ele><time>2026-05-03T11:01:07.001Z</time></trkpt><trkpt lat="42.31915222150557" lon="14.084881321663762"><ele>63.0</ele><time>2026-05-03T11:01:08.001Z</time></trkpt><trkpt lat="42.31927698262755" lon="14.08513461340353"><ele>62.66666666666667</ele><time>2026-05-03T11:01:09.001Z</time></trkpt><trkpt lat="42.319403529745934" lon="14.085388722314026"><ele>62.333333333333336</ele><time>2026-05-03T11:01:10.001Z</time></trkpt><trkpt lat="42.3195243298694" lon="14.085636408212052"><ele>62.0</ele><time>2026-05-03T11:01:11.001Z</time></trkpt><trkpt lat="42.31964021162877" lon="14.085877185106522"><ele>61.0</ele><time>2026-05-03T11:01:12.001Z</time></trkpt><trkpt lat="42.319748239224744" lon="14.086105439624609"><ele>60.0</ele><time>2026-05-03T11:01:13.001Z</time></trkpt><trkpt lat="42.31984784980777" lon="14.08631855034311"><ele>59.0</ele><time>2026-05-03T11:01:14.001Z</time></trkpt><trkpt lat="42.31994240310072" lon="14.086519623081108"><ele>59.66666666666667</ele><time>2026-05-03T11:01:15.001Z</time></trkpt><trkpt lat="42.320033674191954" lon="14.086714579298379"><ele>60.33333333333333</ele><time>2026-05-03T11:01:16.001Z</time></trkpt><trkpt lat="42.32012949679859" lon="14.086911928361683"><ele>61.0</ele><time>2026-05-03T11:01:17.001Z</time></trkpt><trkpt lat="42.320230256768454" lon="14.087118366879222"><ele>61.0</ele><time>2026-05-03T11:01:18.001Z</time></trkpt><trkpt lat="42.32033695844184" lon="14.08733524783202"><ele>61.0</ele><time>2026-05-03T11:01:19.001Z</time></trkpt><trkpt lat="42.32044242284592" lon="14.087550917254667"><ele>61.0</ele><time>2026-05-03T11:01:20.001Z</time></trkpt><trkpt lat="42.32054749968473" lon="14.087763948679346"><ele>60.666666666666664</ele><time>2026-05-03T11:01:21.001Z</time></trkpt><trkpt lat="42.32065701015028" lon="14.087990541050866"><ele>60.33333333333333</ele><time>2026-05-03T11:01:22.001Z</time></trkpt><trkpt lat="42.32076408234184" lon="14.088213347792925"><ele>60.0</ele><time>2026-05-03T11:01:23.001Z</time></trkpt><trkpt lat="42.320860109835614" lon="14.088399263975534"><ele>60.0</ele><time>2026-05-03T11:01:24.001Z</time></trkpt><trkpt lat="42.320939601980164" lon="14.088572371822975"><ele>60.0</ele><time>2026-05-03T11:01:25.001Z</time></trkpt><trkpt lat="42.32101041430547" lon="14.08872464480676"><ele>60.0</ele><time>2026-05-03T11:01:26.001Z</time></trkpt><trkpt lat="42.32108284938882" lon="14.088878590546006"><ele>60.0</ele><time>2026-05-03T11:01:27.001Z</time></trkpt><trkpt lat="42.32115588737542" lon="14.089034223044207"><ele>59.8</ele><time>2026-05-03T11:01:28.001Z</time></trkpt><trkpt lat="42.32122139836719" lon="14.089173059046567"><ele>59.6</ele><time>2026-05-03T11:01:29.001Z</time></trkpt><trkpt lat="42.32129032802223" lon="14.089308018541505"><ele>59.400000000000006</ele><time>2026-05-03T11:01:30.001Z</time></trkpt><trkpt lat="42.321351398657804" lon="14.089428344653955"><ele>59.2</ele><time>2026-05-03T11:01:31.001Z</time></trkpt><trkpt lat="42.32139819213647" lon="14.089524933682526"><ele>59.0</ele><time>2026-05-03T11:01:32.001Z</time></trkpt><trkpt lat="42.32143997707826" lon="14.089618639126046"><ele>59.0</ele><time>2026-05-03T11:01:33.001Z</time></trkpt><trkpt lat="42.32148271665203" lon="14.08970946015493"><ele>59.00000000000001</ele><time>2026-05-03T11:01:34.001Z</time></trkpt><trkpt lat="42.32152518517744" lon="14.089792557577494"><ele>59.00000000000001</ele><time>2026-05-03T11:01:35.001Z</time></trkpt><trkpt lat="42.32159461221612" lon="14.089919757902447"><ele>59.0</ele><time>2026-05-03T11:01:37.001Z</time></trkpt><trkpt lat="42.32164194690425" lon="14.09001889509411"><ele>59.0</ele><time>2026-05-03T11:01:38.001Z</time></trkpt><trkpt lat="42.321696690386624" lon="14.09012534076051"><ele>58.75</ele><time>2026-05-03T11:01:39.001Z</time></trkpt><trkpt lat="42.32176646824783" lon="14.09027118543407"><ele>58.5</ele><time>2026-05-03T11:01:40.001Z</time></trkpt><trkpt lat="42.32185701264791" lon="14.09045271369303"><ele>58.25</ele><time>2026-05-03T11:01:41.001Z</time></trkpt><trkpt lat="42.3219235417643" lon="14.090618231866557"><ele>58.0</ele><time>2026-05-03T11:01:42.001Z</time></trkpt><trkpt lat="42.32198204554519" lon="14.090755567170074"><ele>58.0</ele><time>2026-05-03T11:01:43.001Z</time></trkpt><trkpt lat="42.32203280437854" lon="14.09085975984033"><ele>58.0</ele><time>2026-05-03T11:01:44.001Z</time></trkpt><trkpt lat="42.322068457441475" lon="14.090935049797592"><ele>58.0</ele><time>2026-05-03T11:01:45.001Z</time></trkpt><trkpt lat="42.322113708533955" lon="14.091023398916214"><ele>58.0</ele><time>2026-05-03T11:01:47.001Z</time></trkpt><trkpt lat="42.32216372154744" lon="14.091144534240778"><ele>58.0</ele><time>2026-05-03T11:01:49.001Z</time></trkpt><trkpt lat="42.32222204136541" lon="14.091274774186907"><ele>58.25</ele><time>2026-05-03T11:01:50.001Z</time></trkpt><trkpt lat="42.32231107384343" lon="14.091448321320867"><ele>58.5</ele><time>2026-05-03T11:01:51.001Z</time></trkpt><trkpt lat="42.32239115692881" lon="14.091612956016526"><ele>58.75</ele><time>2026-05-03T11:01:52.001Z</time></trkpt><trkpt lat="42.32246966786546" lon="14.091781075734993"><ele>59.0</ele><time>2026-05-03T11:01:53.001Z</time></trkpt><trkpt lat="42.32254035621244" lon="14.091934570637992"><ele>59.0</ele><time>2026-05-03T11:01:54.001Z</time></trkpt><trkpt lat="42.32260494010912" lon="14.092079656858346"><ele>59.0</ele><time>2026-05-03T11:01:55.001Z</time></trkpt><trkpt lat="42.32266412552716" lon="14.092211055585413"><ele>59.0</ele><time>2026-05-03T11:01:56.001Z</time></trkpt><trkpt lat="42.32272811225838" lon="14.092332334897167"><ele>59.0</ele><time>2026-05-03T11:01:57.001Z</time></trkpt><trkpt lat="42.32279076187139" lon="14.092477048684051"><ele>58.75</ele><time>2026-05-03T11:01:58.001Z</time></trkpt><trkpt lat="42.32286153128999" lon="14.092623942416674"><ele>58.5</ele><time>2026-05-03T11:01:59.001Z</time></trkpt><trkpt lat="42.32293790473688" lon="14.0927756870746"><ele>58.25</ele><time>2026-05-03T11:02:00.001Z</time></trkpt><trkpt lat="42.32301288069018" lon="14.092926683398664"><ele>58.0</ele><time>2026-05-03T11:02:01.001Z</time></trkpt><trkpt lat="42.323086921820945" lon="14.093086409785695"><ele>58.0</ele><time>2026-05-03T11:02:02.001Z</time></trkpt><trkpt lat="42.32315624072973" lon="14.093238091453868"><ele>58.0</ele><time>2026-05-03T11:02:03.001Z</time></trkpt><trkpt lat="42.32323527411315" lon="14.09339205610684"><ele>58.0</ele><time>2026-05-03T11:02:04.001Z</time></trkpt><trkpt lat="42.323304271181826" lon="14.093550808750328"><ele>58.0</ele><time>2026-05-03T11:02:05.001Z</time></trkpt><trkpt lat="42.323379427706364" lon="14.093713257850094"><ele>58.0</ele><time>2026-05-03T11:02:06.001Z</time></trkpt><trkpt lat="42.32345864362294" lon="14.093869518251575"><ele>58.0</ele><time>2026-05-03T11:02:07.001Z</time></trkpt><trkpt lat="42.32352333404054" lon="14.09403389790822"><ele>58.0</ele><time>2026-05-03T11:02:08.001Z</time></trkpt><trkpt lat="42.32358507674318" lon="14.094193938607182"><ele>58.0</ele><time>2026-05-03T11:02:09.001Z</time></trkpt><trkpt lat="42.32362874722059" lon="14.094368332994843"><ele>58.0</ele><time>2026-05-03T11:02:10.001Z</time></trkpt><trkpt lat="42.32366202509765" lon="14.094535355026295"><ele>58.0</ele><time>2026-05-03T11:02:11.001Z</time></trkpt><trkpt lat="42.32369197257132" lon="14.09468995018332"><ele>58.0</ele><time>2026-05-03T11:02:12Z</time></trkpt><trkpt lat="42.32372071815549" lon="14.094837263896675"><ele>58.0</ele><time>2026-05-03T11:02:13Z</time></trkpt><trkpt lat="42.32374878356943" lon="14.094992162063146"><ele>58.25</ele><time>2026-05-03T11:02:14Z</time></trkpt><trkpt lat="42.32376816929302" lon="14.095135301923543"><ele>58.5</ele><time>2026-05-03T11:02:15Z</time></trkpt><trkpt lat="42.32380071134174" lon="14.095282361981592"><ele>58.75</ele><time>2026-05-03T11:02:16Z</time></trkpt><trkpt lat="42.32384015351329" lon="14.095432050916296"><ele>59.0</ele><time>2026-05-03T11:02:17Z</time></trkpt><trkpt lat="42.32387611004374" lon="14.095582429763253"><ele>58.75</ele><time>2026-05-03T11:02:18Z</time></trkpt><trkpt lat="42.32390652992737" lon="14.095740873103525"><ele>58.5</ele><time>2026-05-03T11:02:19Z</time></trkpt><trkpt lat="42.323942521343504" lon="14.095903445152132"><ele>58.25</ele><time>2026-05-03T11:02:20Z</time></trkpt><trkpt lat="42.32398311566131" lon="14.096063405985007"><ele>58.0</ele><time>2026-05-03T11:02:21Z</time></trkpt><trkpt lat="42.32401572039936" lon="14.096231810634393"><ele>58.0</ele><time>2026-05-03T11:02:22Z</time></trkpt><trkpt lat="42.324052309313124" lon="14.096420756965522"><ele>58.0</ele><time>2026-05-03T11:02:23Z</time></trkpt><trkpt lat="42.32409094869017" lon="14.096628510869445"><ele>58.0</ele><time>2026-05-03T11:02:24Z</time></trkpt><trkpt lat="42.32414309217684" lon="14.096859333105604"><ele>58.0</ele><time>2026-05-03T11:02:25Z</time></trkpt><trkpt lat="42.324193138901954" lon="14.097104854093233"><ele>58.0</ele><time>2026-05-03T11:02:26Z</time></trkpt><trkpt lat="42.32424622217978" lon="14.097347864939556"><ele>58.0</ele><time>2026-05-03T11:02:27Z</time></trkpt><trkpt lat="42.324297687831425" lon="14.097592030056232"><ele>57.666666666666664</ele><time>2026-05-03T11:02:28Z</time></trkpt><trkpt lat="42.32435678929704" lon="14.097808851910594"><ele>57.33333333333333</ele><time>2026-05-03T11:02:29Z</time></trkpt><trkpt lat="42.32443721177429" lon="14.098002604066386"><ele>57.0</ele><time>2026-05-03T11:02:30Z</time></trkpt><trkpt lat="42.32455221368169" lon="14.09822459622271"><ele>58.5</ele><time>2026-05-03T11:02:31Z</time></trkpt><trkpt lat="42.324699057527724" lon="14.098447772055385"><ele>60.0</ele><time>2026-05-03T11:02:32Z</time></trkpt><trkpt lat="42.32484630890074" lon="14.098718468547686"><ele>58.66666666666667</ele><time>2026-05-03T11:02:33Z</time></trkpt><trkpt lat="42.324996807315884" lon="14.098959317453808"><ele>57.333333333333336</ele><time>2026-05-03T11:02:34Z</time></trkpt><trkpt lat="42.3251328867059" lon="14.099175958918996"><ele>56.0</ele><time>2026-05-03T11:02:35Z</time></trkpt><trkpt lat="42.32527744666047" lon="14.099405610222519"><ele>56.0</ele><time>2026-05-03T11:02:36Z</time></trkpt><trkpt lat="42.32543819591442" lon="14.099660843145426"><ele>56.0</ele><time>2026-05-03T11:02:37Z</time></trkpt><trkpt lat="42.32559964853898" lon="14.099867805389248"><ele>55.0</ele><time>2026-05-03T11:02:38Z</time></trkpt><trkpt lat="42.32571430719964" lon="14.100080232942233"><ele>54.0</ele><time>2026-05-03T11:02:39Z</time></trkpt><trkpt lat="42.32582214688026" lon="14.10026889320808"><ele>53.0</ele><time>2026-05-03T11:02:40Z</time></trkpt><trkpt lat="42.325912611977" lon="14.100413083817372"><ele>53.0</ele><time>2026-05-03T11:02:41Z</time></trkpt><trkpt lat="42.325993488255065" lon="14.100542827592454"><ele>53.0</ele><time>2026-05-03T11:02:42Z</time></trkpt><trkpt lat="42.32606248684312" lon="14.100666216607275"><ele>53.0</ele><time>2026-05-03T11:02:43Z</time></trkpt><trkpt lat="42.32610737931011" lon="14.100788017364703"><ele>53.0</ele><time>2026-05-03T11:02:44Z</time></trkpt><trkpt lat="42.32613804310382" lon="14.100914477671079"><ele>53.0</ele><time>2026-05-03T11:02:45Z</time></trkpt><trkpt lat="42.326153832987565" lon="14.101029442062547"><ele>53.4</ele><time>2026-05-03T11:02:46Z</time></trkpt><trkpt lat="42.32616802459671" lon="14.101128670478618"><ele>53.8</ele><time>2026-05-03T11:02:47Z</time></trkpt><trkpt lat="42.326261224546904" lon="14.101243707865414"><ele>54.2</ele><time>2026-05-03T11:02:49Z</time></trkpt><trkpt lat="42.32633705269068" lon="14.101269330241152"><ele>54.6</ele><time>2026-05-03T11:02:50Z</time></trkpt><trkpt lat="42.326438595663724" lon="14.101299763914284"><ele>55.0</ele><time>2026-05-03T11:02:51Z</time></trkpt><trkpt lat="42.32652841036836" lon="14.101368163426905"><ele>55.0</ele><time>2026-05-03T11:02:52Z</time></trkpt><trkpt lat="42.3266141097753" lon="14.101487899313277"><ele>55.0</ele><time>2026-05-03T11:02:53Z</time></trkpt><trkpt lat="42.32671508887092" lon="14.101655795637429"><ele>55.0</ele><time>2026-05-03T11:02:54Z</time></trkpt><trkpt lat="42.326835526011514" lon="14.101877773583208"><ele>55.0</ele><time>2026-05-03T11:02:55Z</time></trkpt><trkpt lat="42.32696301775725" lon="14.102112525567073"><ele>55.0</ele><time>2026-05-03T11:02:56Z</time></trkpt><trkpt lat="42.327096280791494" lon="14.102357832491396"><ele>55.0</ele><time>2026-05-03T11:02:57Z</time></trkpt><trkpt lat="42.32722265139376" lon="14.10263606710092"><ele>52.0</ele><time>2026-05-03T11:02:58Z</time></trkpt><trkpt lat="42.3273311561706" lon="14.102952451893946"><ele>49.0</ele><time>2026-05-03T11:02:59Z</time></trkpt><trkpt lat="42.32742222197206" lon="14.10328898020901"><ele>49.0</ele><time>2026-05-03T11:03:00Z</time></trkpt><trkpt lat="42.327503473859956" lon="14.103588673292917"><ele>49.0</ele><time>2026-05-03T11:03:01Z</time></trkpt><trkpt lat="42.32759413817004" lon="14.10387760628141"><ele>48.0</ele><time>2026-05-03T11:03:02Z</time></trkpt><trkpt lat="42.32768168115881" lon="14.104163499034863"><ele>47.0</ele><time>2026-05-03T11:03:03Z</time></trkpt><trkpt lat="42.32777369241175" lon="14.104438290215645"><ele>47.0</ele><time>2026-05-03T11:03:04Z</time></trkpt><trkpt lat="42.327866422166174" lon="14.104725692474535"><ele>47.0</ele><time>2026-05-03T11:03:05Z</time></trkpt><trkpt lat="42.327959723371436" lon="14.105015606789753"><ele>46.666666666666664</ele><time>2026-05-03T11:03:06Z</time></trkpt><trkpt lat="42.3280442193838" lon="14.105282175264794"><ele>46.333333333333336</ele><time>2026-05-03T11:03:07Z</time></trkpt><trkpt lat="42.32812508390926" lon="14.10553304515177"><ele>46.0</ele><time>2026-05-03T11:03:08.001Z</time></trkpt><trkpt lat="42.32820167724061" lon="14.10578952666464"><ele>46.0</ele><time>2026-05-03T11:03:09.001Z</time></trkpt><trkpt lat="42.32828845483051" lon="14.10605215192455"><ele>46.0</ele><time>2026-05-03T11:03:10.001Z</time></trkpt><trkpt lat="42.3283667497038" lon="14.10630885508513"><ele>46.0</ele><time>2026-05-03T11:03:11.001Z</time></trkpt><trkpt lat="42.328448176841164" lon="14.106553263758153"><ele>46.0</ele><time>2026-05-03T11:03:12.001Z</time></trkpt><trkpt lat="42.328523831415126" lon="14.106805732737264"><ele>46.0</ele><time>2026-05-03T11:03:13.001Z</time></trkpt><trkpt lat="42.32859092559116" lon="14.10703477436503"><ele>46.0</ele><time>2026-05-03T11:03:14.001Z</time></trkpt><trkpt lat="42.328656313763275" lon="14.107244618928277"><ele>46.0</ele><time>2026-05-03T11:03:15.001Z</time></trkpt><trkpt lat="42.32872236834229" lon="14.107453737453111"><ele>46.0</ele><time>2026-05-03T11:03:16.001Z</time></trkpt><trkpt lat="42.32878786841907" lon="14.107648956941544"><ele>46.0</ele><time>2026-05-03T11:03:17.001Z</time></trkpt><trkpt lat="42.32884970607884" lon="14.107843884419134"><ele>44.333333333333336</ele><time>2026-05-03T11:03:18.001Z</time></trkpt><trkpt lat="42.328910781801554" lon="14.108034995105896"><ele>42.666666666666664</ele><time>2026-05-03T11:03:19.001Z</time></trkpt><trkpt lat="42.32897600154863" lon="14.10822695753239"><ele>41.0</ele><time>2026-05-03T11:03:20.001Z</time></trkpt><trkpt lat="42.329043676955166" lon="14.108407383948135"><ele>41.0</ele><time>2026-05-03T11:03:21.001Z</time></trkpt><trkpt lat="42.32910463269556" lon="14.108610754751405"><ele>41.0</ele><time>2026-05-03T11:03:22.001Z</time></trkpt><trkpt lat="42.329161908688754" lon="14.10880136066152"><ele>41.0</ele><time>2026-05-03T11:03:23.001Z</time></trkpt><trkpt lat="42.32921607330721" lon="14.108984902098445"><ele>41.666666666666664</ele><time>2026-05-03T11:03:24.001Z</time></trkpt><trkpt lat="42.329277609332046" lon="14.10916674017515"><ele>42.333333333333336</ele><time>2026-05-03T11:03:25.001Z</time></trkpt><trkpt lat="42.32934550293336" lon="14.109369684526687"><ele>43.0</ele><time>2026-05-03T11:03:26.001Z</time></trkpt><trkpt lat="42.32941795795383" lon="14.10957682832244"><ele>43.0</ele><time>2026-05-03T11:03:27.001Z</time></trkpt><trkpt lat="42.32949684718873" lon="14.109805347995175"><ele>43.0</ele><time>2026-05-03T11:03:28.001Z</time></trkpt><trkpt lat="42.32958008757896" lon="14.110055855838732"><ele>43.0</ele><time>2026-05-03T11:03:29.001Z</time></trkpt><trkpt lat="42.32964054158799" lon="14.110297571797446"><ele>43.333333333333336</ele><time>2026-05-03T11:03:30.001Z</time></trkpt><trkpt lat="42.32969764831269" lon="14.110510239450797"><ele>43.666666666666664</ele><time>2026-05-03T11:03:31.001Z</time></trkpt><trkpt lat="42.32976337847634" lon="14.110709504092814"><ele>44.0</ele><time>2026-05-03T11:03:32.001Z</time></trkpt><trkpt lat="42.329829149541396" lon="14.1109057400351"><ele>43.75</ele><time>2026-05-03T11:03:33.001Z</time></trkpt><trkpt lat="42.32988489005003" lon="14.111085100778507"><ele>43.5</ele><time>2026-05-03T11:03:34.001Z</time></trkpt><trkpt lat="42.329939009933504" lon="14.111262344360023"><ele>43.25</ele><time>2026-05-03T11:03:35.001Z</time></trkpt><trkpt lat="42.32999126367478" lon="14.111431952029053"><ele>43.0</ele><time>2026-05-03T11:03:36.001Z</time></trkpt><trkpt lat="42.33004289591976" lon="14.111607229800434"><ele>43.0</ele><time>2026-05-03T11:03:37.001Z</time></trkpt><trkpt lat="42.3300957562698" lon="14.11177605880051"><ele>43.0</ele><time>2026-05-03T11:03:38.001Z</time></trkpt><trkpt lat="42.33014767606846" lon="14.11196011968822"><ele>43.0</ele><time>2026-05-03T11:03:39.001Z</time></trkpt><trkpt lat="42.33019219259932" lon="14.11213706218289"><ele>43.0</ele><time>2026-05-03T11:03:40.001Z</time></trkpt><trkpt lat="42.33024546003703" lon="14.112328532760595"><ele>43.0</ele><time>2026-05-03T11:03:41.001Z</time></trkpt><trkpt lat="42.33030171302039" lon="14.112512699330157"><ele>43.0</ele><time>2026-05-03T11:03:42.001Z</time></trkpt><trkpt lat="42.33035193730969" lon="14.11266785026438"><ele>43.0</ele><time>2026-05-03T11:03:43.001Z</time></trkpt><trkpt lat="42.33040264552201" lon="14.11281314258452"><ele>43.0</ele><time>2026-05-03T11:03:44.001Z</time></trkpt><trkpt lat="42.33043387583428" lon="14.112937842332162"><ele>43.0</ele><time>2026-05-03T11:03:45.001Z</time></trkpt><trkpt lat="42.33044507820782" lon="14.113056358057632"><ele>43.0</ele><time>2026-05-03T11:03:46.001Z</time></trkpt><trkpt lat="42.330440590443594" lon="14.113167390004385"><ele>43.0</ele><time>2026-05-03T11:03:47.001Z</time></trkpt><trkpt lat="42.33047587227737" lon="14.113313451100323"><ele>43.0</ele><time>2026-05-03T11:03:49.001Z</time></trkpt><trkpt lat="42.330588464975534" lon="14.113407162379909"><ele>43.0</ele><time>2026-05-03T11:03:51.001Z</time></trkpt><trkpt lat="42.33064595841826" lon="14.113485936037742"><ele>42.0</ele><time>2026-05-03T11:03:52.001Z</time></trkpt><trkpt lat="42.33068205984836" lon="14.113590129714922"><ele>41.0</ele><time>2026-05-03T11:03:53.001Z</time></trkpt><trkpt lat="42.33072008236899" lon="14.113723643543732"><ele>40.0</ele><time>2026-05-03T11:03:54.001Z</time></trkpt><trkpt lat="42.33076606016285" lon="14.113871979022498"><ele>39.0</ele><time>2026-05-03T11:03:55.001Z</time></trkpt><trkpt lat="42.33081832552421" lon="14.11402566112515"><ele>38.0</ele><time>2026-05-03T11:03:56.001Z</time></trkpt><trkpt lat="42.330861569930384" lon="14.114193999515823"><ele>38.0</ele><time>2026-05-03T11:03:57.001Z</time></trkpt><trkpt lat="42.33092422902015" lon="14.114378217144056"><ele>38.0</ele><time>2026-05-03T11:03:58.001Z</time></trkpt><trkpt lat="42.3309986735579" lon="14.114614505912202"><ele>38.0</ele><time>2026-05-03T11:03:59.001Z</time></trkpt><trkpt lat="42.33108881293887" lon="14.114903966911054"><ele>38.0</ele><time>2026-05-03T11:04:00.001Z</time></trkpt><trkpt lat="42.331182836142276" lon="14.115212923276275"><ele>38.0</ele><time>2026-05-03T11:04:01.001Z</time></trkpt><trkpt lat="42.33128221346562" lon="14.11554553864042"><ele>38.0</ele><time>2026-05-03T11:04:02.001Z</time></trkpt><trkpt lat="42.33138864553018" lon="14.115904258276013"><ele>38.0</ele><time>2026-05-03T11:04:03.001Z</time></trkpt><trkpt lat="42.33150103602822" lon="14.116254274747527"><ele>38.0</ele><time>2026-05-03T11:04:04.001Z</time></trkpt><trkpt lat="42.33159747379976" lon="14.116574262019663"><ele>38.0</ele><time>2026-05-03T11:04:05.001Z</time></trkpt><trkpt lat="42.3316806319502" lon="14.116864282461442"><ele>38.0</ele><time>2026-05-03T11:04:06.001Z</time></trkpt><trkpt lat="42.33177876520059" lon="14.117132798721714"><ele>38.0</ele><time>2026-05-03T11:04:07.001Z</time></trkpt><trkpt lat="42.33189124390826" lon="14.117427880028218"><ele>39.0</ele><time>2026-05-03T11:04:08.001Z</time></trkpt><trkpt lat="42.331979300466465" lon="14.11775556629169"><ele>40.0</ele><time>2026-05-03T11:04:09.001Z</time></trkpt><trkpt lat="42.33207648069884" lon="14.11808826975715"><ele>40.0</ele><time>2026-05-03T11:04:10.001Z</time></trkpt><trkpt lat="42.332168185973885" lon="14.118376703512796"><ele>40.0</ele><time>2026-05-03T11:04:11.001Z</time></trkpt><trkpt lat="42.33225231075758" lon="14.118653398048629"><ele>39.0</ele><time>2026-05-03T11:04:12.001Z</time></trkpt><trkpt lat="42.33234631190167" lon="14.11895242933029"><ele>38.0</ele><time>2026-05-03T11:04:13.001Z</time></trkpt><trkpt lat="42.33244352211949" lon="14.119261236978897"><ele>37.666666666666664</ele><time>2026-05-03T11:04:14.001Z</time></trkpt><trkpt lat="42.33253120130401" lon="14.11954022099526"><ele>37.333333333333336</ele><time>2026-05-03T11:04:15.001Z</time></trkpt><trkpt lat="42.332613713670995" lon="14.119798927566315"><ele>37.0</ele><time>2026-05-03T11:04:16.001Z</time></trkpt><trkpt lat="42.33268352832194" lon="14.120039799431328"><ele>38.0</ele><time>2026-05-03T11:04:17.001Z</time></trkpt><trkpt lat="42.33275892444218" lon="14.120258042497115"><ele>39.0</ele><time>2026-05-03T11:04:18Z</time></trkpt><trkpt lat="42.33282689260165" lon="14.120481390993424"><ele>40.0</ele><time>2026-05-03T11:04:19Z</time></trkpt><trkpt lat="42.332886196670074" lon="14.120681811760042"><ele>40.0</ele><time>2026-05-03T11:04:20Z</time></trkpt><trkpt lat="42.33294113892988" lon="14.12087093102075"><ele>40.0</ele><time>2026-05-03T11:04:21Z</time></trkpt><trkpt lat="42.33299472882373" lon="14.121049511502871"><ele>40.0</ele><time>2026-05-03T11:04:22Z</time></trkpt><trkpt lat="42.33305338749225" lon="14.12119606181841"><ele>40.0</ele><time>2026-05-03T11:04:23Z</time></trkpt><trkpt lat="42.33310688338531" lon="14.121348559476196"><ele>40.5</ele><time>2026-05-03T11:04:24Z</time></trkpt><trkpt lat="42.33315179082359" lon="14.121490676305806"><ele>41.0</ele><time>2026-05-03T11:04:25Z</time></trkpt><trkpt lat="42.333195611577295" lon="14.121652496896962"><ele>41.5</ele><time>2026-05-03T11:04:26Z</time></trkpt><trkpt lat="42.333243735174605" lon="14.121804128661203"><ele>42.0</ele><time>2026-05-03T11:04:27Z</time></trkpt><trkpt lat="42.33329495933867" lon="14.121953711743823"><ele>42.0</ele><time>2026-05-03T11:04:28Z</time></trkpt><trkpt lat="42.33334826801823" lon="14.122117318285401"><ele>42.0</ele><time>2026-05-03T11:04:29Z</time></trkpt><trkpt lat="42.33341617796313" lon="14.122294814439865"><ele>42.0</ele><time>2026-05-03T11:04:30Z</time></trkpt><trkpt lat="42.333481638903294" lon="14.1225144919925"><ele>42.5</ele><time>2026-05-03T11:04:31Z</time></trkpt><trkpt lat="42.333537029692934" lon="14.12271497558523"><ele>43.0</ele><time>2026-05-03T11:04:32Z</time></trkpt><trkpt lat="42.33359217369352" lon="14.122889391211014"><ele>43.5</ele><time>2026-05-03T11:04:33Z</time></trkpt><trkpt lat="42.33364204449651" lon="14.123057306868743"><ele>44.0</ele><time>2026-05-03T11:04:34Z</time></trkpt><trkpt lat="42.33369073981424" lon="14.12321897139495"><ele>43.75</ele><time>2026-05-03T11:04:35Z</time></trkpt><trkpt lat="42.33374297828512" lon="14.123389175200984"><ele>43.5</ele><time>2026-05-03T11:04:36Z</time></trkpt><trkpt lat="42.333799829706045" lon="14.123568027624005"><ele>43.25</ele><time>2026-05-03T11:04:37Z</time></trkpt><trkpt lat="42.33386034283928" lon="14.123754078005932"><ele>43.0</ele><time>2026-05-03T11:04:38Z</time></trkpt><trkpt lat="42.333915281607545" lon="14.123931924337784"><ele>42.5</ele><time>2026-05-03T11:04:39Z</time></trkpt><trkpt lat="42.33397841336285" lon="14.124115195344686"><ele>42.0</ele><time>2026-05-03T11:04:40Z</time></trkpt><trkpt lat="42.334035693985015" lon="14.124300555557326"><ele>41.5</ele><time>2026-05-03T11:04:41Z</time></trkpt><trkpt lat="42.334092816467106" lon="14.12448493567212"><ele>41.0</ele><time>2026-05-03T11:04:42Z</time></trkpt><trkpt lat="42.33414965160581" lon="14.124684173288895"><ele>41.0</ele><time>2026-05-03T11:04:43Z</time></trkpt><trkpt lat="42.33420839611655" lon="14.124895851038385"><ele>41.0</ele><time>2026-05-03T11:04:44Z</time></trkpt><trkpt lat="42.33426664834389" lon="14.125093794071194"><ele>41.0</ele><time>2026-05-03T11:04:45Z</time></trkpt><trkpt lat="42.33432685068431" lon="14.125298615451008"><ele>41.666666666666664</ele><time>2026-05-03T11:04:46Z</time></trkpt><trkpt lat="42.33438991429849" lon="14.125494720697253"><ele>42.333333333333336</ele><time>2026-05-03T11:04:47Z</time></trkpt><trkpt lat="42.334456703279045" lon="14.125708274580878"><ele>43.0</ele><time>2026-05-03T11:04:48Z</time></trkpt><trkpt lat="42.334518961085884" lon="14.125898757693951"><ele>43.66666666666667</ele><time>2026-05-03T11:04:49Z</time></trkpt><trkpt lat="42.33458992617861" lon="14.126108694329108"><ele>44.333333333333336</ele><time>2026-05-03T11:04:50Z</time></trkpt><trkpt lat="42.3346534699856" lon="14.126309154786648"><ele>45.0</ele><time>2026-05-03T11:04:51Z</time></trkpt><trkpt lat="42.3347168512897" lon="14.126519969832454"><ele>45.333333333333336</ele><time>2026-05-03T11:04:52Z</time></trkpt><trkpt lat="42.33478718433715" lon="14.126745579826986"><ele>45.66666666666667</ele><time>2026-05-03T11:04:53Z</time></trkpt><trkpt lat="42.33485206813594" lon="14.126949163725818"><ele>46.0</ele><time>2026-05-03T11:04:54Z</time></trkpt><trkpt lat="42.33492281829572" lon="14.127161375368129"><ele>46.0</ele><time>2026-05-03T11:04:55Z</time></trkpt><trkpt lat="42.3349876343658" lon="14.127358078151953"><ele>46.0</ele><time>2026-05-03T11:04:56Z</time></trkpt><trkpt lat="42.33505482422457" lon="14.127574137867771"><ele>46.0</ele><time>2026-05-03T11:04:57Z</time></trkpt><trkpt lat="42.335120968882634" lon="14.127790726661184"><ele>46.66666666666667</ele><time>2026-05-03T11:04:58Z</time></trkpt><trkpt lat="42.3351905029725" lon="14.127992530007102"><ele>47.333333333333336</ele><time>2026-05-03T11:04:59Z</time></trkpt><trkpt lat="42.335260707997975" lon="14.128206419764926"><ele>48.0</ele><time>2026-05-03T11:05:00Z</time></trkpt><trkpt lat="42.33533037153478" lon="14.12842946324616"><ele>48.33333333333333</ele><time>2026-05-03T11:05:01Z</time></trkpt><trkpt lat="42.33540030479975" lon="14.12864896203851"><ele>48.666666666666664</ele><time>2026-05-03T11:05:02Z</time></trkpt><trkpt lat="42.33547488267144" lon="14.128867051048614"><ele>49.0</ele><time>2026-05-03T11:05:03Z</time></trkpt><trkpt lat="42.33554147973379" lon="14.129106008277827"><ele>49.33333333333333</ele><time>2026-05-03T11:05:04Z</time></trkpt><trkpt lat="42.335606934134006" lon="14.129323495953265"><ele>49.66666666666667</ele><time>2026-05-03T11:05:05.001Z</time></trkpt><trkpt lat="42.3356710625879" lon="14.129530702269307"><ele>50.0</ele><time>2026-05-03T11:05:06.001Z</time></trkpt><trkpt lat="42.335740112646675" lon="14.129748028060877"><ele>50.66666666666667</ele><time>2026-05-03T11:05:07.001Z</time></trkpt><trkpt lat="42.33579906493892" lon="14.129955708816286"><ele>51.33333333333333</ele><time>2026-05-03T11:05:08.001Z</time></trkpt><trkpt lat="42.335871023783604" lon="14.130178586276534"><ele>52.0</ele><time>2026-05-03T11:05:09.001Z</time></trkpt><trkpt lat="42.33594767691419" lon="14.130401563742534"><ele>52.0</ele><time>2026-05-03T11:05:10.001Z</time></trkpt><trkpt lat="42.33602448160458" lon="14.13063269543539"><ele>52.0</ele><time>2026-05-03T11:05:11.001Z</time></trkpt><trkpt lat="42.33609431850988" lon="14.130861795304279"><ele>52.0</ele><time>2026-05-03T11:05:12.001Z</time></trkpt><trkpt lat="42.33616202733837" lon="14.131088536876714"><ele>52.0</ele><time>2026-05-03T11:05:13.001Z</time></trkpt><trkpt lat="42.33623082184181" lon="14.131320362408763"><ele>52.0</ele><time>2026-05-03T11:05:14.001Z</time></trkpt><trkpt lat="42.33630832639919" lon="14.13155999096111"><ele>52.0</ele><time>2026-05-03T11:05:15.001Z</time></trkpt><trkpt lat="42.336392888324404" lon="14.131806350127324"><ele>52.0</ele><time>2026-05-03T11:05:16.001Z</time></trkpt><trkpt lat="42.33647748279247" lon="14.132031506745788"><ele>52.0</ele><time>2026-05-03T11:05:17.001Z</time></trkpt><trkpt lat="42.33659301801547" lon="14.132255421452651"><ele>52.0</ele><time>2026-05-03T11:05:18.001Z</time></trkpt><trkpt lat="42.336731701894195" lon="14.132442054366445"><ele>52.666666666666664</ele><time>2026-05-03T11:05:19.001Z</time></trkpt><trkpt lat="42.33688872994824" lon="14.132608344309329"><ele>53.33333333333333</ele><time>2026-05-03T11:05:20.001Z</time></trkpt><trkpt lat="42.3370527217147" lon="14.132746109802595"><ele>54.0</ele><time>2026-05-03T11:05:21.001Z</time></trkpt><trkpt lat="42.3372241539217" lon="14.132854902344048"><ele>54.33333333333333</ele><time>2026-05-03T11:05:22.001Z</time></trkpt><trkpt lat="42.33737197983739" lon="14.13291718660328"><ele>54.666666666666664</ele><time>2026-05-03T11:05:23.001Z</time></trkpt><trkpt lat="42.33755282864122" lon="14.132970100500687"><ele>55.0</ele><time>2026-05-03T11:05:24.001Z</time></trkpt><trkpt lat="42.337687187632966" lon="14.133008213443272"><ele>55.0</ele><time>2026-05-03T11:05:25.001Z</time></trkpt><trkpt lat="42.337822842217605" lon="14.13305623491835"><ele>55.0</ele><time>2026-05-03T11:05:26.001Z</time></trkpt><trkpt lat="42.33795370945333" lon="14.133087390216794"><ele>55.0</ele><time>2026-05-03T11:05:27.001Z</time></trkpt><trkpt lat="42.338074152953936" lon="14.133122493312456"><ele>55.0</ele><time>2026-05-03T11:05:28.001Z</time></trkpt><trkpt lat="42.338203201115235" lon="14.133157198135438"><ele>55.0</ele><time>2026-05-03T11:05:29.001Z</time></trkpt><trkpt lat="42.338341534531324" lon="14.133202549339071"><ele>55.0</ele><time>2026-05-03T11:05:30.001Z</time></trkpt><trkpt lat="42.338474411891404" lon="14.133246323453605"><ele>55.0</ele><time>2026-05-03T11:05:31.001Z</time></trkpt><trkpt lat="42.33861597632835" lon="14.133293187425854"><ele>55.0</ele><time>2026-05-03T11:05:32.001Z</time></trkpt><trkpt lat="42.33876233218127" lon="14.133339379775832"><ele>55.25</ele><time>2026-05-03T11:05:33.001Z</time></trkpt><trkpt lat="42.338914661601315" lon="14.133387989357919"><ele>55.5</ele><time>2026-05-03T11:05:34.001Z</time></trkpt><trkpt lat="42.339059580593144" lon="14.133440102604306"><ele>55.75</ele><time>2026-05-03T11:05:35.001Z</time></trkpt><trkpt lat="42.33918326591171" lon="14.133483253875438"><ele>56.0</ele><time>2026-05-03T11:05:36.001Z</time></trkpt><trkpt lat="42.33929488045244" lon="14.13352321045233"><ele>56.0</ele><time>2026-05-03T11:05:37.001Z</time></trkpt><trkpt lat="42.33940523207725" lon="14.133548624900916"><ele>55.99999999999999</ele><time>2026-05-03T11:05:38.001Z</time></trkpt><trkpt lat="42.339500115962416" lon="14.13357635380374"><ele>55.99999999999999</ele><time>2026-05-03T11:05:39.001Z</time></trkpt><trkpt lat="42.33959787712075" lon="14.133600866642402"><ele>56.0</ele><time>2026-05-03T11:05:40.001Z</time></trkpt><trkpt lat="42.339683492386676" lon="14.133620936989443"><ele>56.0</ele><time>2026-05-03T11:05:41.001Z</time></trkpt><trkpt lat="42.33976990160256" lon="14.133648984248476"><ele>55.833333333333336</ele><time>2026-05-03T11:05:42.001Z</time></trkpt><trkpt lat="42.33985378378187" lon="14.133671588465976"><ele>55.66666666666667</ele><time>2026-05-03T11:05:43.001Z</time></trkpt><trkpt lat="42.33993999205503" lon="14.133697480742132"><ele>55.5</ele><time>2026-05-03T11:05:44.001Z</time></trkpt><trkpt lat="42.34002129706025" lon="14.133723920068284"><ele>55.33333333333333</ele><time>2026-05-03T11:05:45.001Z</time></trkpt><trkpt lat="42.34010109765999" lon="14.13374914783013"><ele>55.166666666666664</ele><time>2026-05-03T11:05:46.001Z</time></trkpt><trkpt lat="42.340180670243846" lon="14.133768379830292"><ele>55.0</ele><time>2026-05-03T11:05:47.001Z</time></trkpt><trkpt lat="42.340244946042816" lon="14.133791142640808"><ele>54.99999999999999</ele><time>2026-05-03T11:05:48.001Z</time></trkpt><trkpt lat="42.340330284919816" lon="14.13382823103597"><ele>55.0</ele><time>2026-05-03T11:05:50.001Z</time></trkpt><trkpt lat="42.34041813493722" lon="14.133848252434472"><ele>55.0</ele><time>2026-05-03T11:05:53.001Z</time></trkpt><trkpt lat="42.340475931692865" lon="14.133913396818928"><ele>55.0</ele><time>2026-05-03T11:05:54.001Z</time></trkpt><trkpt lat="42.34051720683641" lon="14.133979340780547"><ele>54.99999999999999</ele><time>2026-05-03T11:05:55.001Z</time></trkpt><trkpt lat="42.340602603231325" lon="14.134049996325198"><ele>55.0</ele><time>2026-05-03T11:05:57.001Z</time></trkpt><trkpt lat="42.340721659647684" lon="14.133989963301692"><ele>54.83333333333333</ele><time>2026-05-03T11:05:59.001Z</time></trkpt><trkpt lat="42.34083069452284" lon="14.13396406417003"><ele>54.666666666666664</ele><time>2026-05-03T11:06:01.001Z</time></trkpt><trkpt lat="42.34090382876147" lon="14.133985450238296"><ele>54.5</ele><time>2026-05-03T11:06:02.001Z</time></trkpt><trkpt lat="42.34098673304276" lon="14.134018188632808"><ele>54.33333333333333</ele><time>2026-05-03T11:06:03.001Z</time></trkpt><trkpt lat="42.34106977155055" lon="14.134051024276083"><ele>54.166666666666664</ele><time>2026-05-03T11:06:04.001Z</time></trkpt><trkpt lat="42.3411345130612" lon="14.134100773831722"><ele>54.0</ele><time>2026-05-03T11:06:05.001Z</time></trkpt><trkpt lat="42.341205466676065" lon="14.134074257906097"><ele>54.0</ele><time>2026-05-03T11:06:12.001Z</time></trkpt><trkpt lat="42.3413064853439" lon="14.134115735229123"><ele>54.0</ele><time>2026-05-03T11:06:15.001Z</time></trkpt><trkpt lat="42.34091839518289" lon="14.133945411861408"><ele>53.800000000000004</ele><time>2026-05-03T11:06:16.001Z</time></trkpt><trkpt lat="42.3408120081467" lon="14.133912251678344"><ele>53.60000000000001</ele><time>2026-05-03T11:06:17.001Z</time></trkpt><trkpt lat="42.34074518448803" lon="14.13385151747056"><ele>53.4</ele><time>2026-05-03T11:06:18.001Z</time></trkpt><trkpt lat="42.34069926551221" lon="14.133746586374503"><ele>53.2</ele><time>2026-05-03T11:06:19.001Z</time></trkpt><trkpt lat="42.340649036009886" lon="14.133629502366338"><ele>53.0</ele><time>2026-05-03T11:06:20.001Z</time></trkpt><trkpt lat="42.34063393658956" lon="14.133528121197223"><ele>53.0</ele><time>2026-05-03T11:06:21.001Z</time></trkpt><trkpt lat="42.340585841454505" lon="14.133590642492232"><ele>53.0</ele><time>2026-05-03T11:06:22.001Z</time></trkpt><trkpt lat="42.34074881551378" lon="14.13333397780515"><ele>53.0</ele><time>2026-05-03T11:06:23.001Z</time></trkpt><trkpt lat="42.34079988087973" lon="14.133200494539036"><ele>53.0</ele><time>2026-05-03T11:06:24.001Z</time></trkpt><trkpt lat="42.34088057695041" lon="14.133071679579382"><ele>52.5</ele><time>2026-05-03T11:06:25.001Z</time></trkpt><trkpt lat="42.340957924840986" lon="14.132944605356354"><ele>52.0</ele><time>2026-05-03T11:06:26.001Z</time></trkpt><trkpt lat="42.3410356114236" lon="14.132821285979194"><ele>51.5</ele><time>2026-05-03T11:06:27.001Z</time></trkpt><trkpt lat="42.341113098136745" lon="14.132708088671482"><ele>51.0</ele><time>2026-05-03T11:06:28.001Z</time></trkpt><trkpt lat="42.341188117432274" lon="14.13259816617945"><ele>51.0</ele><time>2026-05-03T11:06:29.001Z</time></trkpt><trkpt lat="42.34125940215155" lon="14.132489305202329"><ele>51.0</ele><time>2026-05-03T11:06:30.001Z</time></trkpt><trkpt lat="42.341342262626796" lon="14.13236568487621"><ele>51.0</ele><time>2026-05-03T11:06:31.001Z</time></trkpt><trkpt lat="42.34142016098264" lon="14.132233444956206"><ele>51.0</ele><time>2026-05-03T11:06:32.001Z</time></trkpt><trkpt lat="42.34149510151752" lon="14.132072090864337"><ele>50.25</ele><time>2026-05-03T11:06:33.001Z</time></trkpt><trkpt lat="42.34155646224778" lon="14.131905122399905"><ele>49.5</ele><time>2026-05-03T11:06:34.001Z</time></trkpt><trkpt lat="42.34160010778634" lon="14.131746543541517"><ele>48.75</ele><time>2026-05-03T11:06:35.001Z</time></trkpt><trkpt lat="42.34164592054702" lon="14.13158831676677"><ele>48.0</ele><time>2026-05-03T11:06:36.001Z</time></trkpt><trkpt lat="42.34168465086279" lon="14.131447044028643"><ele>47.8</ele><time>2026-05-03T11:06:37.001Z</time></trkpt><trkpt lat="42.34172072721611" lon="14.131315404710355"><ele>47.599999999999994</ele><time>2026-05-03T11:06:38.001Z</time></trkpt><trkpt lat="42.34182439961516" lon="14.131231074471902"><ele>47.400000000000006</ele><time>2026-05-03T11:06:39Z</time></trkpt><trkpt lat="42.34186753312911" lon="14.131114338345952"><ele>47.2</ele><time>2026-05-03T11:06:40Z</time></trkpt><trkpt lat="42.34187716231001" lon="14.130972408687247"><ele>47.0</ele><time>2026-05-03T11:06:41Z</time></trkpt><trkpt lat="42.34188478165439" lon="14.130849401833915"><ele>46.8</ele><time>2026-05-03T11:06:42Z</time></trkpt><trkpt lat="42.34189717515016" lon="14.130716828100683"><ele>46.6</ele><time>2026-05-03T11:06:43Z</time></trkpt><trkpt lat="42.34193494390721" lon="14.130580570544055"><ele>46.4</ele><time>2026-05-03T11:06:44Z</time></trkpt><trkpt lat="42.341968171703606" lon="14.130431602866338"><ele>46.199999999999996</ele><time>2026-05-03T11:06:45Z</time></trkpt><trkpt lat="42.34199828611316" lon="14.130300663031766"><ele>46.0</ele><time>2026-05-03T11:06:46Z</time></trkpt><trkpt lat="42.34202701577335" lon="14.13019989509532"><ele>46.0</ele><time>2026-05-03T11:06:47Z</time></trkpt><trkpt lat="42.342046080446394" lon="14.130055465539039"><ele>46.0</ele><time>2026-05-03T11:06:48Z</time></trkpt><trkpt lat="42.34205378489935" lon="14.129939385997185"><ele>46.0</ele><time>2026-05-03T11:06:49Z</time></trkpt><trkpt lat="42.34205119831338" lon="14.129825907050813"><ele>46.0</ele><time>2026-05-03T11:06:50Z</time></trkpt><trkpt lat="42.3420672894444" lon="14.129712489076432"><ele>46.0</ele><time>2026-05-03T11:06:51Z</time></trkpt><trkpt lat="42.34214871896352" lon="14.12965134830281"><ele>45.599999999999994</ele><time>2026-05-03T11:06:52Z</time></trkpt><trkpt lat="42.342193866521605" lon="14.129539429262248"><ele>45.2</ele><time>2026-05-03T11:06:53Z</time></trkpt><trkpt lat="42.342223200230094" lon="14.129425049506931"><ele>44.8</ele><time>2026-05-03T11:06:54Z</time></trkpt><trkpt lat="42.34221267270789" lon="14.129313655247211"><ele>44.400000000000006</ele><time>2026-05-03T11:06:55Z</time></trkpt><trkpt lat="42.34213970607003" lon="14.129215631804897"><ele>44.0</ele><time>2026-05-03T11:06:56Z</time></trkpt><trkpt lat="42.34207196274282" lon="14.129136680195465"><ele>44.0</ele><time>2026-05-03T11:06:57Z</time></trkpt><trkpt lat="42.341987512274436" lon="14.129092535489612"><ele>44.0</ele><time>2026-05-03T11:06:58Z</time></trkpt><trkpt lat="42.34190403744576" lon="14.129017942382244"><ele>44.0</ele><time>2026-05-03T11:06:59Z</time></trkpt><trkpt lat="42.3418778584001" lon="14.128877464835668"><ele>44.0</ele><time>2026-05-03T11:07:00Z</time></trkpt><trkpt lat="42.34183283297695" lon="14.128716118352283"><ele>44.0</ele><time>2026-05-03T11:07:01Z</time></trkpt><trkpt lat="42.34180306764059" lon="14.128528761029095"><ele>42.33333333333333</ele><time>2026-05-03T11:07:02.001Z</time></trkpt><trkpt lat="42.34176319366148" lon="14.12833349454659"><ele>40.666666666666664</ele><time>2026-05-03T11:07:03.001Z</time></trkpt><trkpt lat="42.34172591154045" lon="14.128120211223608"><ele>39.0</ele><time>2026-05-03T11:07:04.001Z</time></trkpt><trkpt lat="42.34169442436105" lon="14.127914576147713"><ele>38.333333333333336</ele><time>2026-05-03T11:07:05.001Z</time></trkpt><trkpt lat="42.341660968098196" lon="14.1276926681167"><ele>37.66666666666667</ele><time>2026-05-03T11:07:06.001Z</time></trkpt><trkpt lat="42.34162465497463" lon="14.127485716245651"><ele>37.0</ele><time>2026-05-03T11:07:07.001Z</time></trkpt><trkpt lat="42.34158472472774" lon="14.127274219480068"><ele>36.333333333333336</ele><time>2026-05-03T11:07:08.001Z</time></trkpt><trkpt lat="42.34154278726854" lon="14.127045208866098"><ele>35.666666666666664</ele><time>2026-05-03T11:07:09.001Z</time></trkpt><trkpt lat="42.341503640987554" lon="14.126819383265444"><ele>35.0</ele><time>2026-05-03T11:07:10.001Z</time></trkpt><trkpt lat="42.341465625882215" lon="14.126599964077542"><ele>35.0</ele><time>2026-05-03T11:07:11.001Z</time></trkpt><trkpt lat="42.341427463036766" lon="14.126377678936079"><ele>35.0</ele><time>2026-05-03T11:07:12.001Z</time></trkpt><trkpt lat="42.341387027406284" lon="14.126144858287848"><ele>35.0</ele><time>2026-05-03T11:07:13.001Z</time></trkpt><trkpt lat="42.34134892863636" lon="14.12591971325313"><ele>34.666666666666664</ele><time>2026-05-03T11:07:14.001Z</time></trkpt><trkpt lat="42.341307316500576" lon="14.125691334765737"><ele>34.333333333333336</ele><time>2026-05-03T11:07:15.001Z</time></trkpt><trkpt lat="42.34126896819608" lon="14.125464161541196"><ele>34.0</ele><time>2026-05-03T11:07:16.001Z</time></trkpt><trkpt lat="42.34122864366985" lon="14.125228251260598"><ele>34.0</ele><time>2026-05-03T11:07:17.001Z</time></trkpt><trkpt lat="42.341186223337594" lon="14.124995734093046"><ele>34.0</ele><time>2026-05-03T11:07:18.001Z</time></trkpt><trkpt lat="42.34114919592978" lon="14.12475282268434"><ele>34.0</ele><time>2026-05-03T11:07:19.001Z</time></trkpt><trkpt lat="42.34110455413749" lon="14.124511007747454"><ele>34.333333333333336</ele><time>2026-05-03T11:07:20.001Z</time></trkpt><trkpt lat="42.34105987869612" lon="14.12426689508521"><ele>34.666666666666664</ele><time>2026-05-03T11:07:21.001Z</time></trkpt><trkpt lat="42.341020279237135" lon="14.124024173108799"><ele>35.0</ele><time>2026-05-03T11:07:22.001Z</time></trkpt><trkpt lat="42.34098029409405" lon="14.123774742708761"><ele>35.0</ele><time>2026-05-03T11:07:23.001Z</time></trkpt><trkpt lat="42.34094879319258" lon="14.123553444682175"><ele>35.0</ele><time>2026-05-03T11:07:24.001Z</time></trkpt><trkpt lat="42.34090555478265" lon="14.123338622676599"><ele>35.0</ele><time>2026-05-03T11:07:25.001Z</time></trkpt><trkpt lat="42.34088985983727" lon="14.12312788237483"><ele>35.0</ele><time>2026-05-03T11:07:26.001Z</time></trkpt><trkpt lat="42.3408326496274" lon="14.1228971802731"><ele>35.0</ele><time>2026-05-03T11:07:27.001Z</time></trkpt><trkpt lat="42.34079872913365" lon="14.122680479978087"><ele>35.0</ele><time>2026-05-03T11:07:28.001Z</time></trkpt><trkpt lat="42.34077425604648" lon="14.122467317229956"><ele>34.666666666666664</ele><time>2026-05-03T11:07:29.001Z</time></trkpt><trkpt lat="42.34077698034703" lon="14.122233982355958"><ele>34.333333333333336</ele><time>2026-05-03T11:07:30.001Z</time></trkpt><trkpt lat="42.340801471716915" lon="14.122020989577795"><ele>34.0</ele><time>2026-05-03T11:07:31.001Z</time></trkpt><trkpt lat="42.34083942064942" lon="14.121830780200023"><ele>34.0</ele><time>2026-05-03T11:07:32.001Z</time></trkpt><trkpt lat="42.340896492528216" lon="14.121693306493844"><ele>34.0</ele><time>2026-05-03T11:07:33.001Z</time></trkpt><trkpt lat="42.340959954929495" lon="14.121600387173121"><ele>34.0</ele><time>2026-05-03T11:07:34.001Z</time></trkpt><trkpt lat="42.34106380528528" lon="14.121599801297231"><ele>34.0</ele><time>2026-05-03T11:07:35.001Z</time></trkpt><trkpt lat="42.34114661311545" lon="14.121525314773166"><ele>34.0</ele><time>2026-05-03T11:07:36.001Z</time></trkpt><trkpt lat="42.34119894543048" lon="14.121415524716317"><ele>33.0</ele><time>2026-05-03T11:07:37.001Z</time></trkpt><trkpt lat="42.3412222295507" lon="14.121271199521024"><ele>32.0</ele><time>2026-05-03T11:07:38.001Z</time></trkpt><trkpt lat="42.341190759698534" lon="14.121117537661252"><ele>31.0</ele><time>2026-05-03T11:07:39.001Z</time></trkpt><trkpt lat="42.3412498447462" lon="14.12095621020143"><ele>30.0</ele><time>2026-05-03T11:07:40.001Z</time></trkpt><trkpt lat="42.341324465945775" lon="14.120813824947001"><ele>31.0</ele><time>2026-05-03T11:07:41.001Z</time></trkpt><trkpt lat="42.341410977981674" lon="14.120650887667232"><ele>32.0</ele><time>2026-05-03T11:07:42.001Z</time></trkpt><trkpt lat="42.34149941976825" lon="14.1204657624351"><ele>33.0</ele><time>2026-05-03T11:07:43.001Z</time></trkpt><trkpt lat="42.34162378778096" lon="14.120256390888503"><ele>33.0</ele><time>2026-05-03T11:07:44.001Z</time></trkpt><trkpt lat="42.341743372765634" lon="14.120041190095737"><ele>33.0</ele><time>2026-05-03T11:07:45.001Z</time></trkpt><trkpt lat="42.34186423215874" lon="14.119815934038664"><ele>33.0</ele><time>2026-05-03T11:07:46.001Z</time></trkpt><trkpt lat="42.34198259532018" lon="14.119595235272229"><ele>33.0</ele><time>2026-05-03T11:07:47.001Z</time></trkpt><trkpt lat="42.3420992583738" lon="14.119385620804026"><ele>33.0</ele><time>2026-05-03T11:07:48.001Z</time></trkpt><trkpt lat="42.342208713673074" lon="14.119192397528368"><ele>33.0</ele><time>2026-05-03T11:07:49.001Z</time></trkpt><trkpt lat="42.34231247473782" lon="14.118993249314391"><ele>33.0</ele><time>2026-05-03T11:07:50.001Z</time></trkpt><trkpt lat="42.342409784985264" lon="14.118768983524312"><ele>33.0</ele><time>2026-05-03T11:07:51.001Z</time></trkpt><trkpt lat="42.34249140864182" lon="14.118510967189055"><ele>33.0</ele><time>2026-05-03T11:07:52.001Z</time></trkpt><trkpt lat="42.34255952693863" lon="14.118235887979584"><ele>35.0</ele><time>2026-05-03T11:07:53.001Z</time></trkpt><trkpt lat="42.342611748180566" lon="14.117938067794887"><ele>37.0</ele><time>2026-05-03T11:07:54.001Z</time></trkpt><trkpt lat="42.34266147034084" lon="14.117644942594856"><ele>39.0</ele><time>2026-05-03T11:07:55.001Z</time></trkpt><trkpt lat="42.34271334063087" lon="14.117378254846386"><ele>41.0</ele><time>2026-05-03T11:07:56.001Z</time></trkpt><trkpt lat="42.3427605797887" lon="14.117137174369256"><ele>43.0</ele><time>2026-05-03T11:07:57.001Z</time></trkpt><trkpt lat="42.34280524086437" lon="14.116883936276563"><ele>45.0</ele><time>2026-05-03T11:07:58.001Z</time></trkpt><trkpt lat="42.342839127975694" lon="14.11667480336795"><ele>45.333333333333336</ele><time>2026-05-03T11:07:59.001Z</time></trkpt><trkpt lat="42.34288702840553" lon="14.116435013511845"><ele>45.66666666666667</ele><time>2026-05-03T11:08:00.001Z</time></trkpt><trkpt lat="42.342942222935854" lon="14.116143463493426"><ele>46.0</ele><time>2026-05-03T11:08:01.001Z</time></trkpt><trkpt lat="42.34298803048611" lon="14.115880723387924"><ele>46.66666666666667</ele><time>2026-05-03T11:08:02.001Z</time></trkpt><trkpt lat="42.34302479334393" lon="14.115645998038822"><ele>47.333333333333336</ele><time>2026-05-03T11:08:03.001Z</time></trkpt><trkpt lat="42.34306248416786" lon="14.11541752389228"><ele>48.0</ele><time>2026-05-03T11:08:04.001Z</time></trkpt><trkpt lat="42.343099663582656" lon="14.115190833398312"><ele>48.0</ele><time>2026-05-03T11:08:05.001Z</time></trkpt><trkpt lat="42.34313150489475" lon="14.114963848136313"><ele>48.0</ele><time>2026-05-03T11:08:06.001Z</time></trkpt><trkpt lat="42.34315707577784" lon="14.11475048018841"><ele>48.0</ele><time>2026-05-03T11:08:07.001Z</time></trkpt><trkpt lat="42.343183551528924" lon="14.114534231266802"><ele>48.0</ele><time>2026-05-03T11:08:08.001Z</time></trkpt><trkpt lat="42.34321511069873" lon="14.11430603768216"><ele>48.0</ele><time>2026-05-03T11:08:09.001Z</time></trkpt><trkpt lat="42.34324835703589" lon="14.114076775152649"><ele>48.0</ele><time>2026-05-03T11:08:10.001Z</time></trkpt><trkpt lat="42.34328114536006" lon="14.11384038275016"><ele>47.666666666666664</ele><time>2026-05-03T11:08:11.001Z</time></trkpt><trkpt lat="42.34330843269295" lon="14.113600137533973"><ele>47.33333333333333</ele><time>2026-05-03T11:08:12.001Z</time></trkpt><trkpt lat="42.343340112383906" lon="14.113355473194044"><ele>47.0</ele><time>2026-05-03T11:08:13.001Z</time></trkpt><trkpt lat="42.343369294964624" lon="14.113140607118936"><ele>47.0</ele><time>2026-05-03T11:08:14.001Z</time></trkpt><trkpt lat="42.34339947537119" lon="14.112938902242222"><ele>47.0</ele><time>2026-05-03T11:08:15.001Z</time></trkpt><trkpt lat="42.343422866767355" lon="14.112730848102464"><ele>47.0</ele><time>2026-05-03T11:08:16.001Z</time></trkpt><trkpt lat="42.34344781738414" lon="14.112539710476629"><ele>47.0</ele><time>2026-05-03T11:08:17.001Z</time></trkpt><trkpt lat="42.34347277627676" lon="14.112360842503216"><ele>47.0</ele><time>2026-05-03T11:08:18.001Z</time></trkpt><trkpt lat="42.34349619469571" lon="14.112195213132553"><ele>47.0</ele><time>2026-05-03T11:08:19.001Z</time></trkpt><trkpt lat="42.343525922423666" lon="14.112031172582162"><ele>47.0</ele><time>2026-05-03T11:08:20.001Z</time></trkpt><trkpt lat="42.343536334882764" lon="14.11188325728923"><ele>47.0</ele><time>2026-05-03T11:08:21.001Z</time></trkpt><trkpt lat="42.343556555422325" lon="14.111736574622416"><ele>47.0</ele><time>2026-05-03T11:08:22.001Z</time></trkpt><trkpt lat="42.34357863285191" lon="14.111608373713244"><ele>47.0</ele><time>2026-05-03T11:08:23.001Z</time></trkpt><trkpt lat="42.34360911069574" lon="14.111498667246453"><ele>47.0</ele><time>2026-05-03T11:08:24.001Z</time></trkpt><trkpt lat="42.34366068440679" lon="14.111444594402629"><ele>47.0</ele><time>2026-05-03T11:08:25.001Z</time></trkpt><trkpt lat="42.343724998971936" lon="14.11143284170446"><ele>47.0</ele><time>2026-05-03T11:08:26.001Z</time></trkpt><trkpt lat="42.34380408588822" lon="14.111471186257136"><ele>47.25</ele><time>2026-05-03T11:08:27.001Z</time></trkpt><trkpt lat="42.34390668604774" lon="14.111548725853245"><ele>47.5</ele><time>2026-05-03T11:08:28.001Z</time></trkpt><trkpt lat="42.3440479302468" lon="14.111654422475507"><ele>47.75</ele><time>2026-05-03T11:08:29.001Z</time></trkpt><trkpt lat="42.34415734861813" lon="14.111751713603297"><ele>48.0</ele><time>2026-05-03T11:08:30Z</time></trkpt><trkpt lat="42.3442828894765" lon="14.111845691721118"><ele>48.0</ele><time>2026-05-03T11:08:31Z</time></trkpt><trkpt lat="42.34441274670181" lon="14.111926713855894"><ele>48.0</ele><time>2026-05-03T11:08:32Z</time></trkpt><trkpt lat="42.344538717924515" lon="14.112004735532441"><ele>48.0</ele><time>2026-05-03T11:08:33Z</time></trkpt><trkpt lat="42.34467117015323" lon="14.112095248247366"><ele>48.0</ele><time>2026-05-03T11:08:34Z</time></trkpt><trkpt lat="42.34479966636261" lon="14.112176733696606"><ele>47.5</ele><time>2026-05-03T11:08:35Z</time></trkpt><trkpt lat="42.34492533113436" lon="14.112247038505236"><ele>47.0</ele><time>2026-05-03T11:08:36Z</time></trkpt><trkpt lat="42.345042413501204" lon="14.112310863319344"><ele>46.5</ele><time>2026-05-03T11:08:37Z</time></trkpt><trkpt lat="42.34517361949875" lon="14.1123751247107"><ele>46.0</ele><time>2026-05-03T11:08:38Z</time></trkpt><trkpt lat="42.34529914543463" lon="14.112448332094026"><ele>46.0</ele><time>2026-05-03T11:08:39Z</time></trkpt><trkpt lat="42.34544419747254" lon="14.112490514302202"><ele>46.0</ele><time>2026-05-03T11:08:40Z</time></trkpt><trkpt lat="42.3456008838865" lon="14.11253365170932"><ele>46.0</ele><time>2026-05-03T11:08:41Z</time></trkpt><trkpt lat="42.34576400906381" lon="14.112573833962694"><ele>46.0</ele><time>2026-05-03T11:08:42Z</time></trkpt><trkpt lat="42.34593724445046" lon="14.11261715732128"><ele>46.0</ele><time>2026-05-03T11:08:43Z</time></trkpt><trkpt lat="42.34611915651889" lon="14.112676773686008"><ele>46.0</ele><time>2026-05-03T11:08:44Z</time></trkpt><trkpt lat="42.34629665386024" lon="14.112743253945135"><ele>45.333333333333336</ele><time>2026-05-03T11:08:45Z</time></trkpt><trkpt lat="42.34648092693245" lon="14.112827755814466"><ele>44.666666666666664</ele><time>2026-05-03T11:08:46Z</time></trkpt><trkpt lat="42.34665118985454" lon="14.11291510738277"><ele>44.0</ele><time>2026-05-03T11:08:47Z</time></trkpt><trkpt lat="42.34681804213883" lon="14.113004030904216"><ele>44.0</ele><time>2026-05-03T11:08:48Z</time></trkpt><trkpt lat="42.34696816692885" lon="14.113077503302751"><ele>44.0</ele><time>2026-05-03T11:08:49Z</time></trkpt><trkpt lat="42.347128576666044" lon="14.11315271675612"><ele>44.0</ele><time>2026-05-03T11:08:50Z</time></trkpt><trkpt lat="42.34727913492329" lon="14.113222062027615"><ele>44.33333333333333</ele><time>2026-05-03T11:08:51Z</time></trkpt><trkpt lat="42.34742916970624" lon="14.113292957953224"><ele>44.666666666666664</ele><time>2026-05-03T11:08:52Z</time></trkpt><trkpt lat="42.34757821856789" lon="14.11336799568158"><ele>45.0</ele><time>2026-05-03T11:08:53Z</time></trkpt><trkpt lat="42.34773376703419" lon="14.113447057947527"><ele>45.0</ele><time>2026-05-03T11:08:54Z</time></trkpt><trkpt lat="42.347872337945795" lon="14.113513494702653"><ele>45.0</ele><time>2026-05-03T11:08:55Z</time></trkpt><trkpt lat="42.34800591346171" lon="14.113582077806479"><ele>45.0</ele><time>2026-05-03T11:08:56Z</time></trkpt><trkpt lat="42.34813002871397" lon="14.113642042894014"><ele>45.0</ele><time>2026-05-03T11:08:57Z</time></trkpt><trkpt lat="42.34824047276996" lon="14.113679706210336"><ele>45.0</ele><time>2026-05-03T11:08:58Z</time></trkpt><trkpt lat="42.348359964326335" lon="14.11368911245693"><ele>45.0</ele><time>2026-05-03T11:08:59Z</time></trkpt><trkpt lat="42.34847236519788" lon="14.11364782749716"><ele>45.0</ele><time>2026-05-03T11:09:00Z</time></trkpt><trkpt lat="42.348593150501735" lon="14.11358564883312"><ele>45.0</ele><time>2026-05-03T11:09:01Z</time></trkpt><trkpt lat="42.34871552554253" lon="14.113507759847922"><ele>45.0</ele><time>2026-05-03T11:09:02Z</time></trkpt><trkpt lat="42.34885093385427" lon="14.11341068712065"><ele>45.0</ele><time>2026-05-03T11:09:03Z</time></trkpt><trkpt lat="42.34903664169525" lon="14.113310633001289"><ele>45.0</ele><time>2026-05-03T11:09:04Z</time></trkpt><trkpt lat="42.34923179277904" lon="14.113188318025173"><ele>43.666666666666664</ele><time>2026-05-03T11:09:05Z</time></trkpt><trkpt lat="42.34941418076498" lon="14.113066392639682"><ele>42.33333333333333</ele><time>2026-05-03T11:09:06Z</time></trkpt><trkpt lat="42.3495461463586" lon="14.112970590094934"><ele>41.0</ele><time>2026-05-03T11:09:07Z</time></trkpt><trkpt lat="42.3496514735802" lon="14.112865970217872"><ele>41.75</ele><time>2026-05-03T11:09:08Z</time></trkpt><trkpt lat="42.34975215646343" lon="14.112792361964395"><ele>42.5</ele><time>2026-05-03T11:09:09Z</time></trkpt><trkpt lat="42.34985336376972" lon="14.112724753838"><ele>43.25</ele><time>2026-05-03T11:09:10Z</time></trkpt><trkpt lat="42.34996725269117" lon="14.112654446265694"><ele>44.0</ele><time>2026-05-03T11:09:11Z</time></trkpt><trkpt lat="42.35010462884468" lon="14.112586223174223"><ele>44.0</ele><time>2026-05-03T11:09:12Z</time></trkpt><trkpt lat="42.35025396712876" lon="14.112531841072744"><ele>44.0</ele><time>2026-05-03T11:09:13Z</time></trkpt><trkpt lat="42.350408272395086" lon="14.11247961574008"><ele>44.0</ele><time>2026-05-03T11:09:14Z</time></trkpt><trkpt lat="42.35058530037157" lon="14.112488539830327"><ele>44.0</ele><time>2026-05-03T11:09:15Z</time></trkpt><trkpt lat="42.35074511928206" lon="14.11250844103283"><ele>44.0</ele><time>2026-05-03T11:09:16Z</time></trkpt><trkpt lat="42.350900576341694" lon="14.112546164356315"><ele>44.0</ele><time>2026-05-03T11:09:17.001Z</time></trkpt><trkpt lat="42.35107130162747" lon="14.112594630264828"><ele>44.0</ele><time>2026-05-03T11:09:18.001Z</time></trkpt><trkpt lat="42.35125487670194" lon="14.112662797794483"><ele>44.0</ele><time>2026-05-03T11:09:19.001Z</time></trkpt><trkpt lat="42.351460022247096" lon="14.11274790180295"><ele>44.0</ele><time>2026-05-03T11:09:20.001Z</time></trkpt><trkpt lat="42.35166781640387" lon="14.112830880049312"><ele>42.666666666666664</ele><time>2026-05-03T11:09:21.001Z</time></trkpt><trkpt lat="42.35188531944532" lon="14.112918075266746"><ele>41.333333333333336</ele><time>2026-05-03T11:09:22.001Z</time></trkpt><trkpt lat="42.35209001269405" lon="14.113013303074274"><ele>40.0</ele><time>2026-05-03T11:09:23.001Z</time></trkpt><trkpt lat="42.3523035209304" lon="14.113111413218723"><ele>38.0</ele><time>2026-05-03T11:09:24.001Z</time></trkpt><trkpt lat="42.352518563673236" lon="14.113203836817894"><ele>36.0</ele><time>2026-05-03T11:09:25.001Z</time></trkpt><trkpt lat="42.35273597185362" lon="14.113291167152768"><ele>36.0</ele><time>2026-05-03T11:09:26.001Z</time></trkpt><trkpt lat="42.35296565031042" lon="14.11337857117905"><ele>36.0</ele><time>2026-05-03T11:09:27.001Z</time></trkpt><trkpt lat="42.353200814620976" lon="14.113472095673533"><ele>35.5</ele><time>2026-05-03T11:09:28.001Z</time></trkpt><trkpt lat="42.35342760277712" lon="14.11356444118571"><ele>35.0</ele><time>2026-05-03T11:09:29.001Z</time></trkpt><trkpt lat="42.353654977184405" lon="14.113657260356922"><ele>35.5</ele><time>2026-05-03T11:09:30.001Z</time></trkpt><trkpt lat="42.353883470510844" lon="14.113750288386797"><ele>36.0</ele><time>2026-05-03T11:09:31.001Z</time></trkpt><trkpt lat="42.35411111843864" lon="14.113840253790546"><ele>36.0</ele><time>2026-05-03T11:09:32.001Z</time></trkpt><trkpt lat="42.35433782298325" lon="14.113928587624319"><ele>36.0</ele><time>2026-05-03T11:09:33.001Z</time></trkpt><trkpt lat="42.35456208071101" lon="14.114015124773745"><ele>36.5</ele><time>2026-05-03T11:09:34.001Z</time></trkpt><trkpt lat="42.35478462685097" lon="14.114102282320225"><ele>37.0</ele><time>2026-05-03T11:09:35.001Z</time></trkpt><trkpt lat="42.355009028190516" lon="14.114192603008885"><ele>37.0</ele><time>2026-05-03T11:09:36.001Z</time></trkpt><trkpt lat="42.35523020890453" lon="14.11428041602205"><ele>37.0</ele><time>2026-05-03T11:09:37.001Z</time></trkpt><trkpt lat="42.355437443185885" lon="14.114361719293765"><ele>37.0</ele><time>2026-05-03T11:09:38.001Z</time></trkpt><trkpt lat="42.355649684060126" lon="14.11444592289588"><ele>42.0</ele><time>2026-05-03T11:09:39.001Z</time></trkpt><trkpt lat="42.35586929594328" lon="14.114538523072188"><ele>47.0</ele><time>2026-05-03T11:09:40.001Z</time></trkpt><trkpt lat="42.35608581428138" lon="14.114630155566289"><ele>47.0</ele><time>2026-05-03T11:09:41.001Z</time></trkpt><trkpt lat="42.35629755785836" lon="14.114729289265583"><ele>47.0</ele><time>2026-05-03T11:09:42.001Z</time></trkpt><trkpt lat="42.35651679597389" lon="14.114818529932249"><ele>43.0</ele><time>2026-05-03T11:09:43.001Z</time></trkpt><trkpt lat="42.35673816455667" lon="14.114908149123803"><ele>39.0</ele><time>2026-05-03T11:09:44.001Z</time></trkpt><trkpt lat="42.35695862552691" lon="14.114988852774987"><ele>39.0</ele><time>2026-05-03T11:09:45.001Z</time></trkpt><trkpt lat="42.357174718335884" lon="14.11507025986068"><ele>39.0</ele><time>2026-05-03T11:09:46.001Z</time></trkpt><trkpt lat="42.35739089196535" lon="14.115156212692055"><ele>39.666666666666664</ele><time>2026-05-03T11:09:47.001Z</time></trkpt><trkpt lat="42.35760594058125" lon="14.115242762284725"><ele>40.33333333333333</ele><time>2026-05-03T11:09:48.001Z</time></trkpt><trkpt lat="42.3578194981668" lon="14.115326931394273"><ele>41.0</ele><time>2026-05-03T11:09:49.001Z</time></trkpt><trkpt lat="42.35803925490758" lon="14.115412348644746"><ele>41.0</ele><time>2026-05-03T11:09:50.001Z</time></trkpt><trkpt lat="42.35824341280627" lon="14.115498379988635"><ele>41.0</ele><time>2026-05-03T11:09:51.001Z</time></trkpt><trkpt lat="42.358454839974925" lon="14.115587353797894"><ele>41.0</ele><time>2026-05-03T11:09:52.001Z</time></trkpt><trkpt lat="42.35866230977046" lon="14.115674975994594"><ele>39.33333333333333</ele><time>2026-05-03T11:09:53.001Z</time></trkpt><trkpt lat="42.35887359513155" lon="14.11576361371544"><ele>37.666666666666664</ele><time>2026-05-03T11:09:54.001Z</time></trkpt><trkpt lat="42.35907692310835" lon="14.115845704712278"><ele>36.0</ele><time>2026-05-03T11:09:55.001Z</time></trkpt><trkpt lat="42.35927905273451" lon="14.115930667884259"><ele>36.0</ele><time>2026-05-03T11:09:56.001Z</time></trkpt><trkpt lat="42.35948145404205" lon="14.116011131470676"><ele>36.0</ele><time>2026-05-03T11:09:57.001Z</time></trkpt><trkpt lat="42.359685349770224" lon="14.116100786799848"><ele>36.0</ele><time>2026-05-03T11:09:58.001Z</time></trkpt><trkpt lat="42.35987900905198" lon="14.116188340131101"><ele>36.333333333333336</ele><time>2026-05-03T11:09:59.001Z</time></trkpt><trkpt lat="42.36007408910019" lon="14.116276662508518"><ele>36.66666666666667</ele><time>2026-05-03T11:10:00.001Z</time></trkpt><trkpt lat="42.36027018158635" lon="14.116363702930686"><ele>37.0</ele><time>2026-05-03T11:10:01.001Z</time></trkpt><trkpt lat="42.36046681839084" lon="14.116448975725646"><ele>38.66666666666667</ele><time>2026-05-03T11:10:02.001Z</time></trkpt><trkpt lat="42.360673953981035" lon="14.116542450764605"><ele>40.333333333333336</ele><time>2026-05-03T11:10:03.001Z</time></trkpt><trkpt lat="42.3608817212302" lon="14.116637182402743"><ele>42.0</ele><time>2026-05-03T11:10:04.001Z</time></trkpt><trkpt lat="42.36108506397569" lon="14.116730638607109"><ele>40.0</ele><time>2026-05-03T11:10:05.001Z</time></trkpt><trkpt lat="42.361294458411756" lon="14.116825714494135"><ele>38.0</ele><time>2026-05-03T11:10:06.001Z</time></trkpt><trkpt lat="42.36149498402885" lon="14.116913585959681"><ele>36.0</ele><time>2026-05-03T11:10:07.001Z</time></trkpt><trkpt lat="42.36169285490646" lon="14.117006590182811"><ele>36.0</ele><time>2026-05-03T11:10:08.001Z</time></trkpt><trkpt lat="42.36189274984994" lon="14.117096958302946"><ele>36.0</ele><time>2026-05-03T11:10:09.001Z</time></trkpt><trkpt lat="42.36209810169587" lon="14.11719081271159"><ele>36.0</ele><time>2026-05-03T11:10:10.001Z</time></trkpt><trkpt lat="42.36230404019156" lon="14.117279111244759"><ele>33.666666666666664</ele><time>2026-05-03T11:10:11.001Z</time></trkpt><trkpt lat="42.362507397079796" lon="14.117359619507702"><ele>31.333333333333332</ele><time>2026-05-03T11:10:12.001Z</time></trkpt><trkpt lat="42.362713423069316" lon="14.117429474674053"><ele>29.0</ele><time>2026-05-03T11:10:13.001Z</time></trkpt><trkpt lat="42.362920511092206" lon="14.117472679313977"><ele>29.666666666666664</ele><time>2026-05-03T11:10:14.001Z</time></trkpt><trkpt lat="42.363130480097965" lon="14.117493927281314"><ele>30.333333333333336</ele><time>2026-05-03T11:10:15.001Z</time></trkpt><trkpt lat="42.36334798923351" lon="14.11749650848157"><ele>31.0</ele><time>2026-05-03T11:10:16.001Z</time></trkpt><trkpt lat="42.36356563581826" lon="14.117488114316123"><ele>31.0</ele><time>2026-05-03T11:10:17.001Z</time></trkpt><trkpt lat="42.3637732804177" lon="14.11748739727205"><ele>31.0</ele><time>2026-05-03T11:10:18.001Z</time></trkpt><trkpt lat="42.363972622568724" lon="14.117490260616522"><ele>31.0</ele><time>2026-05-03T11:10:19.001Z</time></trkpt><trkpt lat="42.36416404276693" lon="14.11750578930189"><ele>31.333333333333336</ele><time>2026-05-03T11:10:20.001Z</time></trkpt><trkpt lat="42.36434503329372" lon="14.117545073471018"><ele>31.666666666666664</ele><time>2026-05-03T11:10:21.001Z</time></trkpt><trkpt lat="42.364526845989445" lon="14.117628805404948"><ele>32.0</ele><time>2026-05-03T11:10:22.001Z</time></trkpt><trkpt lat="42.36470261962903" lon="14.11774383802593"><ele>32.0</ele><time>2026-05-03T11:10:23.001Z</time></trkpt><trkpt lat="42.364889484020104" lon="14.117878223240966"><ele>32.0</ele><time>2026-05-03T11:10:24.001Z</time></trkpt><trkpt lat="42.365092433590014" lon="14.118016896901445"><ele>32.0</ele><time>2026-05-03T11:10:25.001Z</time></trkpt><trkpt lat="42.36531481290722" lon="14.118163574525019"><ele>30.0</ele><time>2026-05-03T11:10:26.001Z</time></trkpt><trkpt lat="42.365546647921725" lon="14.118314468957756"><ele>28.0</ele><time>2026-05-03T11:10:27.001Z</time></trkpt><trkpt lat="42.365764203979424" lon="14.118469311609863"><ele>28.0</ele><time>2026-05-03T11:10:28.001Z</time></trkpt><trkpt lat="42.365983837828345" lon="14.118619403087042"><ele>28.0</ele><time>2026-05-03T11:10:29.001Z</time></trkpt><trkpt lat="42.36619794716103" lon="14.118763828070087"><ele>28.0</ele><time>2026-05-03T11:10:30.001Z</time></trkpt><trkpt lat="42.36640790777238" lon="14.118908280654976"><ele>28.0</ele><time>2026-05-03T11:10:31.001Z</time></trkpt><trkpt lat="42.36662499788503" lon="14.119061298037295"><ele>27.5</ele><time>2026-05-03T11:10:32.001Z</time></trkpt><trkpt lat="42.36684090872033" lon="14.11920773301899"><ele>27.0</ele><time>2026-05-03T11:10:33.001Z</time></trkpt><trkpt lat="42.367052266258135" lon="14.119352739846308"><ele>27.5</ele><time>2026-05-03T11:10:34.001Z</time></trkpt><trkpt lat="42.36726316050898" lon="14.119498976713146"><ele>28.0</ele><time>2026-05-03T11:10:35.001Z</time></trkpt><trkpt lat="42.367469348467836" lon="14.119641946242876"><ele>28.0</ele><time>2026-05-03T11:10:36Z</time></trkpt><trkpt lat="42.36767396822417" lon="14.11978001700835"><ele>28.0</ele><time>2026-05-03T11:10:37Z</time></trkpt><trkpt lat="42.36786189458933" lon="14.119910098029973"><ele>28.0</ele><time>2026-05-03T11:10:38Z</time></trkpt><trkpt lat="42.368038035349464" lon="14.120028155805402"><ele>28.333333333333336</ele><time>2026-05-03T11:10:39Z</time></trkpt><trkpt lat="42.36820702782565" lon="14.120139971011875"><ele>28.666666666666664</ele><time>2026-05-03T11:10:40Z</time></trkpt><trkpt lat="42.3683838594915" lon="14.12023082600039"><ele>29.0</ele><time>2026-05-03T11:10:41Z</time></trkpt><trkpt lat="42.368577183697425" lon="14.120293601939162"><ele>29.0</ele><time>2026-05-03T11:10:42Z</time></trkpt><trkpt lat="42.36877920860317" lon="14.120325955353294"><ele>29.0</ele><time>2026-05-03T11:10:43Z</time></trkpt><trkpt lat="42.36898621554706" lon="14.120343267665449"><ele>29.0</ele><time>2026-05-03T11:10:44Z</time></trkpt><trkpt lat="42.36919701902515" lon="14.120365744149446"><ele>31.666666666666664</ele><time>2026-05-03T11:10:45Z</time></trkpt><trkpt lat="42.36941187345306" lon="14.120392955356568"><ele>34.333333333333336</ele><time>2026-05-03T11:10:46Z</time></trkpt><trkpt lat="42.36963202183903" lon="14.120417467017079"><ele>37.0</ele><time>2026-05-03T11:10:47Z</time></trkpt><trkpt lat="42.36986072417472" lon="14.120436682480939"><ele>37.0</ele><time>2026-05-03T11:10:48Z</time></trkpt><trkpt lat="42.37008411364735" lon="14.120459711516283"><ele>37.0</ele><time>2026-05-03T11:10:49Z</time></trkpt><trkpt lat="42.37031551472043" lon="14.12048457409716"><ele>37.5</ele><time>2026-05-03T11:10:50Z</time></trkpt><trkpt lat="42.37053946063738" lon="14.120514695779354"><ele>38.0</ele><time>2026-05-03T11:10:51Z</time></trkpt><trkpt lat="42.370764953961675" lon="14.120557652401176"><ele>38.0</ele><time>2026-05-03T11:10:52Z</time></trkpt><trkpt lat="42.37099336921514" lon="14.120635179854693"><ele>38.0</ele><time>2026-05-03T11:10:53Z</time></trkpt><trkpt lat="42.37123877974347" lon="14.120741707374387"><ele>35.5</ele><time>2026-05-03T11:10:54Z</time></trkpt><trkpt lat="42.37148058125981" lon="14.120843684762336"><ele>33.0</ele><time>2026-05-03T11:10:55Z</time></trkpt><trkpt lat="42.37169773538951" lon="14.120945912585855"><ele>33.0</ele><time>2026-05-03T11:10:56Z</time></trkpt><trkpt lat="42.37189933823884" lon="14.121049758741359"><ele>33.0</ele><time>2026-05-03T11:10:57Z</time></trkpt><trkpt lat="42.372095167612436" lon="14.121157773477792"><ele>33.0</ele><time>2026-05-03T11:10:58Z</time></trkpt><trkpt lat="42.37228114687607" lon="14.121282897080883"><ele>33.333333333333336</ele><time>2026-05-03T11:10:59Z</time></trkpt><trkpt lat="42.372460423936175" lon="14.121427083635206"><ele>33.66666666666667</ele><time>2026-05-03T11:11:00Z</time></trkpt><trkpt lat="42.37265980584243" lon="14.121583105415677"><ele>34.0</ele><time>2026-05-03T11:11:01Z</time></trkpt><trkpt lat="42.3728652742579" lon="14.121758563541352"><ele>36.333333333333336</ele><time>2026-05-03T11:11:02Z</time></trkpt><trkpt lat="42.37305023239711" lon="14.121912725179774"><ele>38.666666666666664</ele><time>2026-05-03T11:11:03Z</time></trkpt><trkpt lat="42.373210045401464" lon="14.12204549821529"><ele>41.0</ele><time>2026-05-03T11:11:04Z</time></trkpt><trkpt lat="42.37337037959679" lon="14.122167888455055"><ele>41.0</ele><time>2026-05-03T11:11:05Z</time></trkpt><trkpt lat="42.37351667115274" lon="14.122283505377295"><ele>41.0</ele><time>2026-05-03T11:11:06Z</time></trkpt><trkpt lat="42.373659092559265" lon="14.12239015603131"><ele>41.0</ele><time>2026-05-03T11:11:07Z</time></trkpt><trkpt lat="42.37381559053184" lon="14.122511214218168"><ele>41.0</ele><time>2026-05-03T11:11:08Z</time></trkpt><trkpt lat="42.37393920991277" lon="14.122608065006723"><ele>41.0</ele><time>2026-05-03T11:11:09Z</time></trkpt><trkpt lat="42.37401737410426" lon="14.122679704249197"><ele>41.0</ele><time>2026-05-03T11:11:10Z</time></trkpt><trkpt lat="42.37407853457411" lon="14.122730376296738"><ele>41.0</ele><time>2026-05-03T11:11:12Z</time></trkpt><trkpt lat="42.37419204235809" lon="14.122807447833196"><ele>41.0</ele><time>2026-05-03T11:11:44.001Z</time></trkpt><trkpt lat="42.37427064469981" lon="14.122876812780778"><ele>41.0</ele><time>2026-05-03T11:11:45.001Z</time></trkpt><trkpt lat="42.374366572722806" lon="14.122958211951127"><ele>41.0</ele><time>2026-05-03T11:11:46.001Z</time></trkpt><trkpt lat="42.374480145985004" lon="14.12304483701679"><ele>41.0</ele><time>2026-05-03T11:11:47.001Z</time></trkpt><trkpt lat="42.37460672461414" lon="14.123140093351445"><ele>41.0</ele><time>2026-05-03T11:11:48.001Z</time></trkpt><trkpt lat="42.37474352816423" lon="14.123246995604923"><ele>40.33333333333333</ele><time>2026-05-03T11:11:49.001Z</time></trkpt><trkpt lat="42.374880062078084" lon="14.123351168809142"><ele>39.666666666666664</ele><time>2026-05-03T11:11:50.001Z</time></trkpt><trkpt lat="42.37501947671062" lon="14.12347204210419"><ele>39.0</ele><time>2026-05-03T11:11:51.001Z</time></trkpt><trkpt lat="42.37516875430958" lon="14.123579836098575"><ele>39.0</ele><time>2026-05-03T11:11:52.001Z</time></trkpt><trkpt lat="42.37532200229509" lon="14.123701618119199"><ele>39.0</ele><time>2026-05-03T11:11:53.001Z</time></trkpt><trkpt lat="42.37546585825739" lon="14.123814778778998"><ele>39.0</ele><time>2026-05-03T11:11:54.001Z</time></trkpt><trkpt lat="42.37559994599202" lon="14.123911406379277"><ele>38.75</ele><time>2026-05-03T11:11:55.001Z</time></trkpt><trkpt lat="42.37572250848239" lon="14.123988007797918"><ele>38.5</ele><time>2026-05-03T11:11:56.001Z</time></trkpt><trkpt lat="42.375857941598" lon="14.12404018451202"><ele>38.25</ele><time>2026-05-03T11:11:57.001Z</time></trkpt><trkpt lat="42.375997447920625" lon="14.124079936373786"><ele>38.0</ele><time>2026-05-03T11:11:58.001Z</time></trkpt><trkpt lat="42.37613254080695" lon="14.12410749787147"><ele>38.0</ele><time>2026-05-03T11:11:59.001Z</time></trkpt><trkpt lat="42.376237331863" lon="14.124146703257269"><ele>38.0</ele><time>2026-05-03T11:12:00.001Z</time></trkpt><trkpt lat="42.37631055139476" lon="14.124229228242548"><ele>38.0</ele><time>2026-05-03T11:12:01.001Z</time></trkpt><trkpt lat="42.37636719862295" lon="14.124345882685127"><ele>38.0</ele><time>2026-05-03T11:12:02.001Z</time></trkpt><trkpt lat="42.376403872549616" lon="14.12445920479488"><ele>38.0</ele><time>2026-05-03T11:12:03.001Z</time></trkpt><trkpt lat="42.37645219004059" lon="14.124535630740285"><ele>37.8</ele><time>2026-05-03T11:12:04.001Z</time></trkpt><trkpt lat="42.37651488634691" lon="14.124560895325114"><ele>37.599999999999994</ele><time>2026-05-03T11:12:05.001Z</time></trkpt><trkpt lat="42.37658117271859" lon="14.124525396919614"><ele>37.400000000000006</ele><time>2026-05-03T11:12:06.001Z</time></trkpt><trkpt lat="42.37667867402912" lon="14.124341671891193"><ele>37.2</ele><time>2026-05-03T11:12:08.001Z</time></trkpt><trkpt lat="42.37672310399046" lon="14.124215629577558"><ele>37.0</ele><time>2026-05-03T11:12:09.001Z</time></trkpt><trkpt lat="42.37680690413619" lon="14.124084751366517"><ele>38.75</ele><time>2026-05-03T11:12:10.001Z</time></trkpt><trkpt lat="42.376904727663856" lon="14.123951813930036"><ele>40.5</ele><time>2026-05-03T11:12:11.001Z</time></trkpt><trkpt lat="42.37701688352528" lon="14.123817259566069"><ele>42.25</ele><time>2026-05-03T11:12:12.001Z</time></trkpt><trkpt lat="42.37710092602864" lon="14.12363580570931"><ele>44.0</ele><time>2026-05-03T11:12:13.001Z</time></trkpt><trkpt lat="42.37719723942126" lon="14.123500999055992"><ele>44.5</ele><time>2026-05-03T11:12:14.001Z</time></trkpt><trkpt lat="42.37731859585685" lon="14.123414639539217"><ele>45.0</ele><time>2026-05-03T11:12:15.001Z</time></trkpt><trkpt lat="42.37745415220991" lon="14.123372252266094"><ele>45.5</ele><time>2026-05-03T11:12:16.001Z</time></trkpt><trkpt lat="42.377595964722744" lon="14.123378907407972"><ele>46.0</ele><time>2026-05-03T11:12:17.001Z</time></trkpt><trkpt lat="42.37774522193662" lon="14.123431577215193"><ele>46.0</ele><time>2026-05-03T11:12:18.001Z</time></trkpt><trkpt lat="42.37792284925308" lon="14.123478704328374"><ele>46.0</ele><time>2026-05-03T11:12:19.001Z</time></trkpt><trkpt lat="42.37813103029822" lon="14.123521058983508"><ele>46.0</ele><time>2026-05-03T11:12:20.001Z</time></trkpt><trkpt lat="42.3783494829603" lon="14.12355346990366"><ele>49.0</ele><time>2026-05-03T11:12:21.001Z</time></trkpt><trkpt lat="42.37857362009346" lon="14.123583223680656"><ele>52.0</ele><time>2026-05-03T11:12:22.001Z</time></trkpt><trkpt lat="42.378789941021836" lon="14.123620929681074"><ele>55.0</ele><time>2026-05-03T11:12:23.001Z</time></trkpt><trkpt lat="42.3789900886064" lon="14.12365830869208"><ele>56.0</ele><time>2026-05-03T11:12:24.001Z</time></trkpt><trkpt lat="42.37915387006607" lon="14.123699252255841"><ele>57.0</ele><time>2026-05-03T11:12:25.001Z</time></trkpt><trkpt lat="42.37928779470303" lon="14.123740707076447"><ele>58.0</ele><time>2026-05-03T11:12:26.001Z</time></trkpt><trkpt lat="42.379414952788046" lon="14.12380875561244"><ele>59.0</ele><time>2026-05-03T11:12:27.001Z</time></trkpt><trkpt lat="42.379523201980035" lon="14.123901536724153"><ele>59.0</ele><time>2026-05-03T11:12:28.001Z</time></trkpt><trkpt lat="42.379627698522576" lon="14.124021487607871"><ele>59.0</ele><time>2026-05-03T11:12:29.001Z</time></trkpt><trkpt lat="42.3797470145007" lon="14.124157809582737"><ele>59.0</ele><time>2026-05-03T11:12:30.001Z</time></trkpt><trkpt lat="42.37988568230279" lon="14.124290293639747"><ele>56.66666666666667</ele><time>2026-05-03T11:12:31.001Z</time></trkpt><trkpt lat="42.38003721760289" lon="14.124415213918182"><ele>54.33333333333333</ele><time>2026-05-03T11:12:32.001Z</time></trkpt><trkpt lat="42.380194186266856" lon="14.124531509519091"><ele>52.0</ele><time>2026-05-03T11:12:33.001Z</time></trkpt><trkpt lat="42.38035112382042" lon="14.124636573260592"><ele>52.0</ele><time>2026-05-03T11:12:34.001Z</time></trkpt><trkpt lat="42.38049836061787" lon="14.124734679017632"><ele>52.0</ele><time>2026-05-03T11:12:35.001Z</time></trkpt><trkpt lat="42.38064404253151" lon="14.124844292451309"><ele>52.0</ele><time>2026-05-03T11:12:36.001Z</time></trkpt><trkpt lat="42.38080070558961" lon="14.12496619512608"><ele>50.666666666666664</ele><time>2026-05-03T11:12:37.001Z</time></trkpt><trkpt lat="42.380952880803726" lon="14.125086121811465"><ele>49.33333333333333</ele><time>2026-05-03T11:12:38.001Z</time></trkpt><trkpt lat="42.38112608660173" lon="14.125216306973938"><ele>48.0</ele><time>2026-05-03T11:12:39.001Z</time></trkpt><trkpt lat="42.38130237719119" lon="14.125337271661818"><ele>49.66666666666667</ele><time>2026-05-03T11:12:40.001Z</time></trkpt><trkpt lat="42.38148007702743" lon="14.12545848993238"><ele>51.333333333333336</ele><time>2026-05-03T11:12:41.001Z</time></trkpt><trkpt lat="42.38165403211253" lon="14.125585169663426"><ele>53.0</ele><time>2026-05-03T11:12:42.001Z</time></trkpt><trkpt lat="42.38182843030322" lon="14.125715312561436"><ele>53.0</ele><time>2026-05-03T11:12:43.001Z</time></trkpt><trkpt lat="42.381977861534025" lon="14.125842424973637"><ele>53.0</ele><time>2026-05-03T11:12:44.001Z</time></trkpt><trkpt lat="42.382122462289175" lon="14.125985632229135"><ele>53.0</ele><time>2026-05-03T11:12:45.001Z</time></trkpt><trkpt lat="42.382269441985265" lon="14.126131949259083"><ele>53.0</ele><time>2026-05-03T11:12:46.001Z</time></trkpt><trkpt lat="42.382409043281335" lon="14.12625451334785"><ele>53.0</ele><time>2026-05-03T11:12:47.001Z</time></trkpt><trkpt lat="42.382559473185445" lon="14.126345974489773"><ele>53.0</ele><time>2026-05-03T11:12:48.001Z</time></trkpt><trkpt lat="42.38270805435295" lon="14.126392795348009"><ele>53.0</ele><time>2026-05-03T11:12:49.001Z</time></trkpt><trkpt lat="42.38288516044401" lon="14.126423359787774"><ele>53.0</ele><time>2026-05-03T11:12:50.001Z</time></trkpt><trkpt lat="42.38305575109263" lon="14.126433494164788"><ele>53.0</ele><time>2026-05-03T11:12:51.001Z</time></trkpt><trkpt lat="42.38321704808247" lon="14.12643140221725"><ele>53.0</ele><time>2026-05-03T11:12:52.001Z</time></trkpt><trkpt lat="42.383360893782395" lon="14.12644265680737"><ele>53.0</ele><time>2026-05-03T11:12:53.001Z</time></trkpt><trkpt lat="42.383489846744894" lon="14.126474087854106"><ele>53.0</ele><time>2026-05-03T11:12:54.001Z</time></trkpt><trkpt lat="42.38362773568147" lon="14.126542361432051"><ele>53.0</ele><time>2026-05-03T11:12:55.001Z</time></trkpt><trkpt lat="42.383742325642736" lon="14.126653418150351"><ele>49.333333333333336</ele><time>2026-05-03T11:12:56.001Z</time></trkpt><trkpt lat="42.383897718135884" lon="14.126748663981285"><ele>45.66666666666667</ele><time>2026-05-03T11:12:57.001Z</time></trkpt><trkpt lat="42.38405275164757" lon="14.126832822218226"><ele>42.0</ele><time>2026-05-03T11:12:58Z</time></trkpt><trkpt lat="42.38421571044763" lon="14.126904338461458"><ele>42.0</ele><time>2026-05-03T11:12:59Z</time></trkpt><trkpt lat="42.38438220896609" lon="14.126976466577512"><ele>42.0</ele><time>2026-05-03T11:13:00Z</time></trkpt><trkpt lat="42.38455271472005" lon="14.127035266141393"><ele>42.0</ele><time>2026-05-03T11:13:01Z</time></trkpt><trkpt lat="42.384702865282215" lon="14.127088803210784"><ele>43.0</ele><time>2026-05-03T11:13:02Z</time></trkpt><trkpt lat="42.3848560326046" lon="14.127148721605709"><ele>44.0</ele><time>2026-05-03T11:13:03Z</time></trkpt><trkpt lat="42.38500966434995" lon="14.12722924768801"><ele>45.0</ele><time>2026-05-03T11:13:04Z</time></trkpt><trkpt lat="42.385156682326524" lon="14.127354802894944"><ele>42.0</ele><time>2026-05-03T11:13:05Z</time></trkpt><trkpt lat="42.38530203321274" lon="14.127504315409825"><ele>39.0</ele><time>2026-05-03T11:13:06Z</time></trkpt><trkpt lat="42.385450398521215" lon="14.127669866095733"><ele>36.0</ele><time>2026-05-03T11:13:07Z</time></trkpt><trkpt lat="42.38560841369801" lon="14.12785009707624"><ele>36.0</ele><time>2026-05-03T11:13:08Z</time></trkpt><trkpt lat="42.385773976736424" lon="14.128017604820847"><ele>36.0</ele><time>2026-05-03T11:13:09Z</time></trkpt><trkpt lat="42.38593666269561" lon="14.12817182205905"><ele>36.0</ele><time>2026-05-03T11:13:10Z</time></trkpt><trkpt lat="42.38610263722874" lon="14.128323421429382"><ele>35.666666666666664</ele><time>2026-05-03T11:13:11Z</time></trkpt><trkpt lat="42.38625652722015" lon="14.128484966407406"><ele>35.33333333333333</ele><time>2026-05-03T11:13:12Z</time></trkpt><trkpt lat="42.3863820173843" lon="14.1286580580274"><ele>35.0</ele><time>2026-05-03T11:13:13Z</time></trkpt><trkpt lat="42.38649705714125" lon="14.128860243744256"><ele>34.33333333333333</ele><time>2026-05-03T11:13:14Z</time></trkpt><trkpt lat="42.38660701442549" lon="14.12906548013951"><ele>33.666666666666664</ele><time>2026-05-03T11:13:15Z</time></trkpt><trkpt lat="42.386716236388175" lon="14.129252875126824"><ele>33.0</ele><time>2026-05-03T11:13:16Z</time></trkpt><trkpt lat="42.38682725962541" lon="14.12941771003689"><ele>33.0</ele><time>2026-05-03T11:13:17Z</time></trkpt><trkpt lat="42.386933745714074" lon="14.129547682082068"><ele>33.0</ele><time>2026-05-03T11:13:18Z</time></trkpt><trkpt lat="42.387041800892945" lon="14.129654965554545"><ele>33.0</ele><time>2026-05-03T11:13:19Z</time></trkpt><trkpt lat="42.38714807741099" lon="14.129759299792259"><ele>33.0</ele><time>2026-05-03T11:13:20Z</time></trkpt><trkpt lat="42.38724873263155" lon="14.129860425144988"><ele>32.75</ele><time>2026-05-03T11:13:21Z</time></trkpt><trkpt lat="42.38735370957035" lon="14.129955128969407"><ele>32.5</ele><time>2026-05-03T11:13:22Z</time></trkpt><trkpt lat="42.38747149219013" lon="14.13005461760599"><ele>32.25</ele><time>2026-05-03T11:13:23.001Z</time></trkpt><trkpt lat="42.38758992354232" lon="14.130160287776535"><ele>32.0</ele><time>2026-05-03T11:13:24.001Z</time></trkpt><trkpt lat="42.38769359516743" lon="14.13025941848424"><ele>32.0</ele><time>2026-05-03T11:13:25.001Z</time></trkpt><trkpt lat="42.38780066129528" lon="14.13035915489372"><ele>32.0</ele><time>2026-05-03T11:13:26.001Z</time></trkpt><trkpt lat="42.387897423615584" lon="14.130443966975765"><ele>32.0</ele><time>2026-05-03T11:13:27.001Z</time></trkpt><trkpt lat="42.38799188537405" lon="14.130507997933906"><ele>32.0</ele><time>2026-05-03T11:13:28.001Z</time></trkpt><trkpt lat="42.38809257826594" lon="14.130553200300609"><ele>32.0</ele><time>2026-05-03T11:13:29.001Z</time></trkpt><trkpt lat="42.388215366277194" lon="14.130602642093038"><ele>32.0</ele><time>2026-05-03T11:13:30.001Z</time></trkpt><trkpt lat="42.38836647614574" lon="14.130679574217687"><ele>32.0</ele><time>2026-05-03T11:13:31.001Z</time></trkpt><trkpt lat="42.38853872607904" lon="14.130776573836487"><ele>32.0</ele><time>2026-05-03T11:13:32.001Z</time></trkpt><trkpt lat="42.38870019174569" lon="14.130882121867213"><ele>32.0</ele><time>2026-05-03T11:13:33.001Z</time></trkpt><trkpt lat="42.38886661347156" lon="14.130990266595395"><ele>32.0</ele><time>2026-05-03T11:13:34.001Z</time></trkpt><trkpt lat="42.38902925690129" lon="14.131101320956382"><ele>32.33333333333333</ele><time>2026-05-03T11:13:35.001Z</time></trkpt><trkpt lat="42.389182099911736" lon="14.131208409839921"><ele>32.666666666666664</ele><time>2026-05-03T11:13:36.001Z</time></trkpt><trkpt lat="42.38933119951631" lon="14.13132089769737"><ele>33.0</ele><time>2026-05-03T11:13:37.001Z</time></trkpt><trkpt lat="42.389491159378274" lon="14.131449978308128"><ele>32.666666666666664</ele><time>2026-05-03T11:13:38.001Z</time></trkpt><trkpt lat="42.389630743765686" lon="14.131569017733826"><ele>32.33333333333333</ele><time>2026-05-03T11:13:39.001Z</time></trkpt><trkpt lat="42.38976365677125" lon="14.131686174076622"><ele>32.0</ele><time>2026-05-03T11:13:40.001Z</time></trkpt><trkpt lat="42.389896346648904" lon="14.131802581333517"><ele>31.666666666666664</ele><time>2026-05-03T11:13:41.001Z</time></trkpt><trkpt lat="42.39002857783554" lon="14.131919105151617"><ele>31.333333333333336</ele><time>2026-05-03T11:13:42.001Z</time></trkpt><trkpt lat="42.39016248550702" lon="14.132041628509606"><ele>31.0</ele><time>2026-05-03T11:13:43.001Z</time></trkpt><trkpt lat="42.39029999520046" lon="14.132165544012246"><ele>31.0</ele><time>2026-05-03T11:13:44.001Z</time></trkpt><trkpt lat="42.39044859032593" lon="14.13229406511736"><ele>31.0</ele><time>2026-05-03T11:13:45.001Z</time></trkpt><trkpt lat="42.390619411375965" lon="14.132438850200167"><ele>31.0</ele><time>2026-05-03T11:13:46.001Z</time></trkpt><trkpt lat="42.390800670096205" lon="14.132593799598443"><ele>30.666666666666668</ele><time>2026-05-03T11:13:47.001Z</time></trkpt><trkpt lat="42.39098069062135" lon="14.132753100197464"><ele>30.333333333333336</ele><time>2026-05-03T11:13:48.001Z</time></trkpt><trkpt lat="42.39115546064268" lon="14.132921450794509"><ele>30.0</ele><time>2026-05-03T11:13:49.001Z</time></trkpt><trkpt lat="42.39131467702519" lon="14.133087517364705"><ele>30.0</ele><time>2026-05-03T11:13:50.001Z</time></trkpt><trkpt lat="42.391484919399446" lon="14.133251153488445"><ele>30.0</ele><time>2026-05-03T11:13:51.001Z</time></trkpt><trkpt lat="42.39165472121088" lon="14.133412730742966"><ele>30.0</ele><time>2026-05-03T11:13:52.001Z</time></trkpt><trkpt lat="42.391838804585376" lon="14.13357321975312"><ele>30.0</ele><time>2026-05-03T11:13:53.001Z</time></trkpt><trkpt lat="42.392003347290775" lon="14.133716749652303"><ele>30.0</ele><time>2026-05-03T11:13:54.001Z</time></trkpt><trkpt lat="42.39216676691803" lon="14.133873097648191"><ele>30.0</ele><time>2026-05-03T11:13:55.001Z</time></trkpt><trkpt lat="42.39232752179016" lon="14.134033974192723"><ele>29.666666666666664</ele><time>2026-05-03T11:13:56.001Z</time></trkpt><trkpt lat="42.39248445814771" lon="14.134195822957096"><ele>29.333333333333332</ele><time>2026-05-03T11:13:57.001Z</time></trkpt><trkpt lat="42.392645501419416" lon="14.134358425177114"><ele>29.0</ele><time>2026-05-03T11:13:58.001Z</time></trkpt><trkpt lat="42.39281151625236" lon="14.134520456956244"><ele>29.5</ele><time>2026-05-03T11:13:59.001Z</time></trkpt><trkpt lat="42.39304449956265" lon="14.134704773250846"><ele>30.0</ele><time>2026-05-03T11:14:00.001Z</time></trkpt><trkpt lat="42.39324921826679" lon="14.13481658767476"><ele>29.0</ele><time>2026-05-03T11:14:01.001Z</time></trkpt><trkpt lat="42.3934160608503" lon="14.134988094297732"><ele>28.0</ele><time>2026-05-03T11:14:02.001Z</time></trkpt><trkpt lat="42.39358943724986" lon="14.13514959887624"><ele>27.0</ele><time>2026-05-03T11:14:03.001Z</time></trkpt><trkpt lat="42.39378438784471" lon="14.135321585141499"><ele>26.666666666666664</ele><time>2026-05-03T11:14:04.001Z</time></trkpt><trkpt lat="42.39396933384189" lon="14.135481788986565"><ele>26.333333333333332</ele><time>2026-05-03T11:14:05.001Z</time></trkpt><trkpt lat="42.39415048018495" lon="14.13564772450176"><ele>26.0</ele><time>2026-05-03T11:14:06.001Z</time></trkpt><trkpt lat="42.39434149565863" lon="14.135814527974345"><ele>26.0</ele><time>2026-05-03T11:14:07.001Z</time></trkpt><trkpt lat="42.39452582653169" lon="14.135980579257456"><ele>26.0</ele><time>2026-05-03T11:14:08.001Z</time></trkpt><trkpt lat="42.39469685507971" lon="14.136132649548214"><ele>26.0</ele><time>2026-05-03T11:14:09.001Z</time></trkpt><trkpt lat="42.39485108260782" lon="14.136276449298379"><ele>26.0</ele><time>2026-05-03T11:14:10.001Z</time></trkpt><trkpt lat="42.394997572749176" lon="14.136404910368611"><ele>26.0</ele><time>2026-05-03T11:14:11.001Z</time></trkpt><trkpt lat="42.395137920810896" lon="14.136527510855547"><ele>26.0</ele><time>2026-05-03T11:14:12.001Z</time></trkpt><trkpt lat="42.39527494789098" lon="14.136650033798551"><ele>26.0</ele><time>2026-05-03T11:14:13.001Z</time></trkpt><trkpt lat="42.39542149091211" lon="14.136780779293947"><ele>26.0</ele><time>2026-05-03T11:14:14.001Z</time></trkpt><trkpt lat="42.395560801423706" lon="14.136908127142823"><ele>26.0</ele><time>2026-05-03T11:14:15.001Z</time></trkpt><trkpt lat="42.39570273416153" lon="14.137034559685933"><ele>26.0</ele><time>2026-05-03T11:14:16.001Z</time></trkpt><trkpt lat="42.395849083618884" lon="14.137167068863961"><ele>26.0</ele><time>2026-05-03T11:14:17.001Z</time></trkpt><trkpt lat="42.39598526067122" lon="14.137289232317139"><ele>26.0</ele><time>2026-05-03T11:14:18.001Z</time></trkpt><trkpt lat="42.396119576643045" lon="14.137406701397289"><ele>26.333333333333332</ele><time>2026-05-03T11:14:19.001Z</time></trkpt><trkpt lat="42.39626056698887" lon="14.137528014949584"><ele>26.666666666666664</ele><time>2026-05-03T11:14:20.001Z</time></trkpt><trkpt lat="42.39639843747352" lon="14.137656729804895"><ele>27.0</ele><time>2026-05-03T11:14:21.001Z</time></trkpt><trkpt lat="42.396545754621215" lon="14.137786441302215"><ele>27.0</ele><time>2026-05-03T11:14:22.001Z</time></trkpt><trkpt lat="42.39669239508403" lon="14.137917903683046"><ele>27.0</ele><time>2026-05-03T11:14:23.001Z</time></trkpt><trkpt lat="42.39683211079468" lon="14.138044384314359"><ele>27.0</ele><time>2026-05-03T11:14:24.001Z</time></trkpt><trkpt lat="42.39697013245882" lon="14.138165269799511"><ele>27.25</ele><time>2026-05-03T11:14:25.001Z</time></trkpt><trkpt lat="42.39708419837623" lon="14.138267480847084"><ele>27.5</ele><time>2026-05-03T11:14:26.001Z</time></trkpt><trkpt lat="42.397192628450306" lon="14.138358270874974"><ele>27.75</ele><time>2026-05-03T11:14:27.001Z</time></trkpt><trkpt lat="42.39727696189011" lon="14.138431337808223"><ele>28.0</ele><time>2026-05-03T11:14:28.001Z</time></trkpt><trkpt lat="42.397358633368505" lon="14.138510250573889"><ele>27.333333333333336</ele><time>2026-05-03T11:14:29.001Z</time></trkpt><trkpt lat="42.397470686130305" lon="14.138613790249671"><ele>26.666666666666664</ele><time>2026-05-03T11:14:30.001Z</time></trkpt><trkpt lat="42.397603949970005" lon="14.13873379905412"><ele>26.0</ele><time>2026-05-03T11:14:31.001Z</time></trkpt><trkpt lat="42.39775155088752" lon="14.13886511123082"><ele>26.0</ele><time>2026-05-03T11:14:32.001Z</time></trkpt><trkpt lat="42.39789598026849" lon="14.138996289877177"><ele>26.0</ele><time>2026-05-03T11:14:33.001Z</time></trkpt><trkpt lat="42.39804815116345" lon="14.139130138847541"><ele>26.0</ele><time>2026-05-03T11:14:34.001Z</time></trkpt><trkpt lat="42.398196450304674" lon="14.139258632309263"><ele>26.0</ele><time>2026-05-03T11:14:35.001Z</time></trkpt><trkpt lat="42.398338533266696" lon="14.139384324884585"><ele>26.0</ele><time>2026-05-03T11:14:36.001Z</time></trkpt><trkpt lat="42.39845936667448" lon="14.139491337264221"><ele>26.0</ele><time>2026-05-03T11:14:37.001Z</time></trkpt><trkpt lat="42.398563679674936" lon="14.139592248724355"><ele>26.0</ele><time>2026-05-03T11:14:38.001Z</time></trkpt><trkpt lat="42.398654892905206" lon="14.13969037744666"><ele>26.0</ele><time>2026-05-03T11:14:39.001Z</time></trkpt><trkpt lat="42.39876590719863" lon="14.139789485473454"><ele>26.0</ele><time>2026-05-03T11:14:40.001Z</time></trkpt><trkpt lat="42.39889428250399" lon="14.139891523531293"><ele>26.0</ele><time>2026-05-03T11:14:41.001Z</time></trkpt><trkpt lat="42.399032665633115" lon="14.140014038345337"><ele>26.0</ele><time>2026-05-03T11:14:42.001Z</time></trkpt><trkpt lat="42.39919471573298" lon="14.140157494444782"><ele>25.666666666666664</ele><time>2026-05-03T11:14:43.001Z</time></trkpt><trkpt lat="42.39935771823773" lon="14.140304610963208"><ele>25.333333333333336</ele><time>2026-05-03T11:14:44.001Z</time></trkpt><trkpt lat="42.39951885386266" lon="14.140451187916902"><ele>25.0</ele><time>2026-05-03T11:14:45.001Z</time></trkpt><trkpt lat="42.39967375031979" lon="14.140587940993864"><ele>25.333333333333336</ele><time>2026-05-03T11:14:46.001Z</time></trkpt><trkpt lat="42.399825026765775" lon="14.140724109332595"><ele>25.666666666666664</ele><time>2026-05-03T11:14:47.001Z</time></trkpt><trkpt lat="42.3999878619405" lon="14.140859821556043"><ele>26.0</ele><time>2026-05-03T11:14:48Z</time></trkpt><trkpt lat="42.40015263963927" lon="14.141000282059462"><ele>26.0</ele><time>2026-05-03T11:14:49Z</time></trkpt><trkpt lat="42.400309442592174" lon="14.141140846679177"><ele>26.0</ele><time>2026-05-03T11:14:50Z</time></trkpt><trkpt lat="42.40047234930086" lon="14.141284301196565"><ele>26.0</ele><time>2026-05-03T11:14:51Z</time></trkpt><trkpt lat="42.40063014792307" lon="14.141424067345172"><ele>25.666666666666664</ele><time>2026-05-03T11:14:52Z</time></trkpt><trkpt lat="42.40078575521568" lon="14.141563400449922"><ele>25.333333333333336</ele><time>2026-05-03T11:14:53Z</time></trkpt><trkpt lat="42.40094574340363" lon="14.14170347099968"><ele>25.0</ele><time>2026-05-03T11:14:54Z</time></trkpt><trkpt lat="42.40110765612141" lon="14.141849343186587"><ele>25.0</ele><time>2026-05-03T11:14:55Z</time></trkpt><trkpt lat="42.40126518842637" lon="14.141992466722595"><ele>25.0</ele><time>2026-05-03T11:14:56Z</time></trkpt><trkpt lat="42.40141501945193" lon="14.14212957675676"><ele>25.0</ele><time>2026-05-03T11:14:57Z</time></trkpt><trkpt lat="42.401564523795294" lon="14.142255779799648"><ele>25.0</ele><time>2026-05-03T11:14:58Z</time></trkpt><trkpt lat="42.40170508517502" lon="14.14237762656034"><ele>25.0</ele><time>2026-05-03T11:14:59Z</time></trkpt><trkpt lat="42.40185629992243" lon="14.142518243668913"><ele>25.0</ele><time>2026-05-03T11:15:00Z</time></trkpt><trkpt lat="42.402008859185365" lon="14.142659309634496"><ele>24.666666666666668</ele><time>2026-05-03T11:15:01Z</time></trkpt><trkpt lat="42.40216388474752" lon="14.14279115747526"><ele>24.333333333333336</ele><time>2026-05-03T11:15:02Z</time></trkpt><trkpt lat="42.40231130883471" lon="14.142916075978043"><ele>24.0</ele><time>2026-05-03T11:15:03Z</time></trkpt><trkpt lat="42.40245941542935" lon="14.143031740715966"><ele>24.0</ele><time>2026-05-03T11:15:04Z</time></trkpt><trkpt lat="42.4026146841168" lon="14.143166395278842"><ele>24.0</ele><time>2026-05-03T11:15:05Z</time></trkpt><trkpt lat="42.402771879963346" lon="14.14331272182503"><ele>24.0</ele><time>2026-05-03T11:15:06Z</time></trkpt><trkpt lat="42.4029334690968" lon="14.143467998924283"><ele>24.0</ele><time>2026-05-03T11:15:07Z</time></trkpt><trkpt lat="42.40310877476613" lon="14.143600573026896"><ele>24.0</ele><time>2026-05-03T11:15:08Z</time></trkpt><trkpt lat="42.40327542373808" lon="14.143772176797253"><ele>24.0</ele><time>2026-05-03T11:15:09Z</time></trkpt><trkpt lat="42.40345514096646" lon="14.143928720408603"><ele>24.333333333333336</ele><time>2026-05-03T11:15:10Z</time></trkpt><trkpt lat="42.403635250960484" lon="14.144088844636753"><ele>24.666666666666668</ele><time>2026-05-03T11:15:11Z</time></trkpt><trkpt lat="42.40380031094796" lon="14.144237366336005"><ele>25.0</ele><time>2026-05-03T11:15:12Z</time></trkpt><trkpt lat="42.403956330390315" lon="14.144372383399817"><ele>25.0</ele><time>2026-05-03T11:15:13Z</time></trkpt><trkpt lat="42.40411656182124" lon="14.144519472838624"><ele>25.0</ele><time>2026-05-03T11:15:14Z</time></trkpt><trkpt lat="42.40427488076324" lon="14.144668710996461"><ele>25.0</ele><time>2026-05-03T11:15:15Z</time></trkpt><trkpt lat="42.404442360230526" lon="14.144823576971724"><ele>25.333333333333336</ele><time>2026-05-03T11:15:16Z</time></trkpt><trkpt lat="42.40460415913729" lon="14.144974128752873"><ele>25.666666666666664</ele><time>2026-05-03T11:15:17Z</time></trkpt><trkpt lat="42.40475432779445" lon="14.145106933595171"><ele>26.0</ele><time>2026-05-03T11:15:18Z</time></trkpt><trkpt lat="42.40489698287706" lon="14.14523302234704"><ele>25.25</ele><time>2026-05-03T11:15:19Z</time></trkpt><trkpt lat="42.40502812618109" lon="14.145345199027302"><ele>24.5</ele><time>2026-05-03T11:15:20Z</time></trkpt><trkpt lat="42.4051471191098" lon="14.14545301083925"><ele>23.75</ele><time>2026-05-03T11:15:21Z</time></trkpt><trkpt lat="42.40525638742583" lon="14.145551323069066"><ele>23.0</ele><time>2026-05-03T11:15:22Z</time></trkpt><trkpt lat="42.40534316387399" lon="14.145633056277326"><ele>23.0</ele><time>2026-05-03T11:15:23Z</time></trkpt><trkpt lat="42.40543051535507" lon="14.145695322427956"><ele>23.0</ele><time>2026-05-03T11:15:24Z</time></trkpt><trkpt lat="42.4054588507803" lon="14.145829228728845"><ele>23.0</ele><time>2026-05-03T11:15:25Z</time></trkpt><trkpt lat="42.40545730488763" lon="14.145928331105296"><ele>23.0</ele><time>2026-05-03T11:15:26Z</time></trkpt><trkpt lat="42.40544366061673" lon="14.146037311366138"><ele>23.0</ele><time>2026-05-03T11:15:27Z</time></trkpt><trkpt lat="42.405523193694" lon="14.146140490408323"><ele>22.799999999999997</ele><time>2026-05-03T11:15:29Z</time></trkpt><trkpt lat="42.40560119344416" lon="14.146127583755806"><ele>22.6</ele><time>2026-05-03T11:15:30Z</time></trkpt><trkpt lat="42.40569543965619" lon="14.146080519571532"><ele>22.4</ele><time>2026-05-03T11:15:31Z</time></trkpt><trkpt lat="42.40579972717759" lon="14.146055609409386"><ele>22.200000000000003</ele><time>2026-05-03T11:15:32Z</time></trkpt><trkpt lat="42.405898132298475" lon="14.146058718738463"><ele>22.0</ele><time>2026-05-03T11:15:33Z</time></trkpt><trkpt lat="42.406002790237345" lon="14.146192132119094"><ele>22.0</ele><time>2026-05-03T11:15:34Z</time></trkpt><trkpt lat="42.406114039270896" lon="14.146314363414302"><ele>22.0</ele><time>2026-05-03T11:15:35Z</time></trkpt><trkpt lat="42.40622918016365" lon="14.14643528753253"><ele>22.0</ele><time>2026-05-03T11:15:36Z</time></trkpt><trkpt lat="42.40637095280287" lon="14.14655999530718"><ele>22.0</ele><time>2026-05-03T11:15:37Z</time></trkpt><trkpt lat="42.40651891607575" lon="14.146690076770467"><ele>22.0</ele><time>2026-05-03T11:15:38Z</time></trkpt><trkpt lat="42.406684029887906" lon="14.1468177646377"><ele>22.0</ele><time>2026-05-03T11:15:39Z</time></trkpt><trkpt lat="42.406868794228195" lon="14.14692683153789"><ele>22.0</ele><time>2026-05-03T11:15:40Z</time></trkpt><trkpt lat="42.40706669841133" lon="14.147009617451811"><ele>22.0</ele><time>2026-05-03T11:15:41Z</time></trkpt><trkpt lat="42.40727090608282" lon="14.147069576019739"><ele>22.0</ele><time>2026-05-03T11:15:42Z</time></trkpt><trkpt lat="42.40747341194358" lon="14.147112876543634"><ele>20.666666666666664</ele><time>2026-05-03T11:15:43Z</time></trkpt><trkpt lat="42.40767000159427" lon="14.147149880907312"><ele>19.333333333333332</ele><time>2026-05-03T11:15:44Z</time></trkpt><trkpt lat="42.40786600572182" lon="14.147188457666548"><ele>18.0</ele><time>2026-05-03T11:15:45Z</time></trkpt><trkpt lat="42.40806296159929" lon="14.147233162799415"><ele>17.666666666666668</ele><time>2026-05-03T11:15:46Z</time></trkpt><trkpt lat="42.408264744171035" lon="14.147293425897272"><ele>17.333333333333336</ele><time>2026-05-03T11:15:47Z</time></trkpt><trkpt lat="42.40844670028678" lon="14.14736518087076"><ele>17.0</ele><time>2026-05-03T11:15:48Z</time></trkpt><trkpt lat="42.40864123562552" lon="14.147462804408947"><ele>17.0</ele><time>2026-05-03T11:15:49Z</time></trkpt><trkpt lat="42.408819651440076" lon="14.14758396885418"><ele>17.0</ele><time>2026-05-03T11:15:50Z</time></trkpt><trkpt lat="42.40899830845065" lon="14.147717365489571"><ele>17.0</ele><time>2026-05-03T11:15:51Z</time></trkpt><trkpt lat="42.409173979094" lon="14.147859428093343"><ele>17.0</ele><time>2026-05-03T11:15:52Z</time></trkpt><trkpt lat="42.40935506291501" lon="14.148010885460822"><ele>17.0</ele><time>2026-05-03T11:15:53Z</time></trkpt><trkpt lat="42.409539650191526" lon="14.148162638304672"><ele>17.0</ele><time>2026-05-03T11:15:54.001Z</time></trkpt><trkpt lat="42.40973491342029" lon="14.14831545498468"><ele>17.666666666666668</ele><time>2026-05-03T11:15:55.001Z</time></trkpt><trkpt lat="42.409925694944874" lon="14.148462449957968"><ele>18.333333333333332</ele><time>2026-05-03T11:15:56.001Z</time></trkpt><trkpt lat="42.41012298213612" lon="14.148613779354907"><ele>19.0</ele><time>2026-05-03T11:15:57.001Z</time></trkpt><trkpt lat="42.410322800735045" lon="14.148767812146135"><ele>19.0</ele><time>2026-05-03T11:15:58.001Z</time></trkpt><trkpt lat="42.41052646336063" lon="14.148928141613975"><ele>19.0</ele><time>2026-05-03T11:15:59.001Z</time></trkpt><trkpt lat="42.410720909150506" lon="14.149086327366742"><ele>20.0</ele><time>2026-05-03T11:16:00.001Z</time></trkpt><trkpt lat="42.41092082920585" lon="14.149245015430889"><ele>21.0</ele><time>2026-05-03T11:16:01.001Z</time></trkpt><trkpt lat="42.411127730170584" lon="14.14940508057895"><ele>21.0</ele><time>2026-05-03T11:16:02.001Z</time></trkpt><trkpt lat="42.41134885958221" lon="14.149575765205293"><ele>21.0</ele><time>2026-05-03T11:16:03.001Z</time></trkpt><trkpt lat="42.4115689597826" lon="14.149744469986363"><ele>19.5</ele><time>2026-05-03T11:16:04.001Z</time></trkpt><trkpt lat="42.41178172812447" lon="14.149909477733937"><ele>18.0</ele><time>2026-05-03T11:16:05.001Z</time></trkpt><trkpt lat="42.41198871588472" lon="14.150070661578152"><ele>17.0</ele><time>2026-05-03T11:16:06.001Z</time></trkpt><trkpt lat="42.41217048612156" lon="14.150217985725876"><ele>16.0</ele><time>2026-05-03T11:16:07.001Z</time></trkpt><trkpt lat="42.412359079801355" lon="14.150363985490308"><ele>15.0</ele><time>2026-05-03T11:16:08.001Z</time></trkpt><trkpt lat="42.41254191993703" lon="14.150507870676039"><ele>15.0</ele><time>2026-05-03T11:16:09.001Z</time></trkpt><trkpt lat="42.41271828025296" lon="14.150652736146409"><ele>15.0</ele><time>2026-05-03T11:16:10.001Z</time></trkpt><trkpt lat="42.412888940585674" lon="14.150796967441835"><ele>15.0</ele><time>2026-05-03T11:16:11.001Z</time></trkpt><trkpt lat="42.41306211714487" lon="14.150958573419038"><ele>15.0</ele><time>2026-05-03T11:16:12.001Z</time></trkpt><trkpt lat="42.41322839619997" lon="14.151136558866448"><ele>15.0</ele><time>2026-05-03T11:16:13.001Z</time></trkpt><trkpt lat="42.41339478376684" lon="14.151325591849345"><ele>15.0</ele><time>2026-05-03T11:16:14.001Z</time></trkpt><trkpt lat="42.41356609134754" lon="14.151503329652677"><ele>15.333333333333332</ele><time>2026-05-03T11:16:15.001Z</time></trkpt><trkpt lat="42.41373189823595" lon="14.15164497073791"><ele>15.666666666666666</ele><time>2026-05-03T11:16:16.001Z</time></trkpt><trkpt lat="42.413902905608786" lon="14.151764132855467"><ele>16.0</ele><time>2026-05-03T11:16:17.001Z</time></trkpt><trkpt lat="42.414106606075904" lon="14.151872937671664"><ele>16.0</ele><time>2026-05-03T11:16:18.001Z</time></trkpt><trkpt lat="42.41431139118398" lon="14.151964626350615"><ele>16.0</ele><time>2026-05-03T11:16:19.001Z</time></trkpt><trkpt lat="42.41452568717881" lon="14.152028535060758"><ele>16.0</ele><time>2026-05-03T11:16:20.001Z</time></trkpt><trkpt lat="42.414748830094986" lon="14.15206247970081"><ele>15.666666666666666</ele><time>2026-05-03T11:16:21.001Z</time></trkpt><trkpt lat="42.414975221510105" lon="14.152076791873863"><ele>15.333333333333332</ele><time>2026-05-03T11:16:22.001Z</time></trkpt><trkpt lat="42.41519774291833" lon="14.152084496209362"><ele>15.0</ele><time>2026-05-03T11:16:23.001Z</time></trkpt><trkpt lat="42.415427918655794" lon="14.152132555022389"><ele>15.333333333333332</ele><time>2026-05-03T11:16:24.001Z</time></trkpt><trkpt lat="42.41563170129156" lon="14.15215703811947"><ele>15.666666666666666</ele><time>2026-05-03T11:16:25.001Z</time></trkpt><trkpt lat="42.415832808405185" lon="14.152148180310272"><ele>16.0</ele><time>2026-05-03T11:16:26.001Z</time></trkpt><trkpt lat="42.41601472481545" lon="14.152207540753084"><ele>16.0</ele><time>2026-05-03T11:16:27.001Z</time></trkpt><trkpt lat="42.416173309786146" lon="14.152303983559166"><ele>16.0</ele><time>2026-05-03T11:16:28.001Z</time></trkpt><trkpt lat="42.416316394489115" lon="14.152433820506932"><ele>16.0</ele><time>2026-05-03T11:16:29.001Z</time></trkpt><trkpt lat="42.416471157144976" lon="14.152610998393719"><ele>17.0</ele><time>2026-05-03T11:16:30.001Z</time></trkpt><trkpt lat="42.41660652375376" lon="14.152804256202979"><ele>18.0</ele><time>2026-05-03T11:16:31.001Z</time></trkpt><trkpt lat="42.41674415676612" lon="14.153007029126771"><ele>19.0</ele><time>2026-05-03T11:16:32.001Z</time></trkpt><trkpt lat="42.41687883952097" lon="14.153213126880807"><ele>19.0</ele><time>2026-05-03T11:16:33.001Z</time></trkpt><trkpt lat="42.41701934369609" lon="14.153412877517836"><ele>19.0</ele><time>2026-05-03T11:16:34.001Z</time></trkpt><trkpt lat="42.4171542185396" lon="14.153592261499554"><ele>19.0</ele><time>2026-05-03T11:16:35.001Z</time></trkpt><trkpt lat="42.41728311446858" lon="14.153755553886647"><ele>19.0</ele><time>2026-05-03T11:16:36.001Z</time></trkpt><trkpt lat="42.41739423226034" lon="14.153916061268452"><ele>19.0</ele><time>2026-05-03T11:16:37.001Z</time></trkpt><trkpt lat="42.417513720134025" lon="14.154077494897516"><ele>19.0</ele><time>2026-05-03T11:16:38.001Z</time></trkpt><trkpt lat="42.41762260828871" lon="14.154225211685302"><ele>19.0</ele><time>2026-05-03T11:16:39.001Z</time></trkpt><trkpt lat="42.41772555602419" lon="14.154358435569963"><ele>19.0</ele><time>2026-05-03T11:16:40.001Z</time></trkpt><trkpt lat="42.41783762418589" lon="14.154497378204386"><ele>19.0</ele><time>2026-05-03T11:16:41.001Z</time></trkpt><trkpt lat="42.41794788598577" lon="14.154633187125837"><ele>19.0</ele><time>2026-05-03T11:16:42.001Z</time></trkpt><trkpt lat="42.41804726654233" lon="14.154761304605065"><ele>18.5</ele><time>2026-05-03T11:16:43.001Z</time></trkpt><trkpt lat="42.41814039831874" lon="14.15488661442508"><ele>18.0</ele><time>2026-05-03T11:16:44.001Z</time></trkpt><trkpt lat="42.41823920251334" lon="14.155022315433838"><ele>17.5</ele><time>2026-05-03T11:16:45.001Z</time></trkpt><trkpt lat="42.418337837649204" lon="14.155153795595355"><ele>17.0</ele><time>2026-05-03T11:16:46.001Z</time></trkpt><trkpt lat="42.41844791772605" lon="14.155297594189866"><ele>17.0</ele><time>2026-05-03T11:16:47.001Z</time></trkpt><trkpt lat="42.4185784177336" lon="14.155460839406336"><ele>17.0</ele><time>2026-05-03T11:16:48.001Z</time></trkpt><trkpt lat="42.418717836485534" lon="14.155649164597047"><ele>17.0</ele><time>2026-05-03T11:16:49.001Z</time></trkpt><trkpt lat="42.418851231552615" lon="14.155855607932958"><ele>18.5</ele><time>2026-05-03T11:16:50.001Z</time></trkpt><trkpt lat="42.41895406627263" lon="14.156018373867273"><ele>20.0</ele><time>2026-05-03T11:16:51.001Z</time></trkpt><trkpt lat="42.41905046860903" lon="14.156161791740296"><ele>21.5</ele><time>2026-05-03T11:16:52.001Z</time></trkpt><trkpt lat="42.419145398103026" lon="14.156271036143307"><ele>23.0</ele><time>2026-05-03T11:16:53.001Z</time></trkpt><trkpt lat="42.41924477663298" lon="14.156366292042186"><ele>23.0</ele><time>2026-05-03T11:16:54Z</time></trkpt><trkpt lat="42.41937409411796" lon="14.156433647987974"><ele>23.0</ele><time>2026-05-03T11:16:55Z</time></trkpt><trkpt lat="42.419533135007406" lon="14.156483669047422"><ele>23.0</ele><time>2026-05-03T11:16:56Z</time></trkpt><trkpt lat="42.41970569825557" lon="14.156552289479388"><ele>22.0</ele><time>2026-05-03T11:16:57Z</time></trkpt><trkpt lat="42.41989826892936" lon="14.156636831458501"><ele>21.0</ele><time>2026-05-03T11:16:58Z</time></trkpt><trkpt lat="42.42011225340799" lon="14.156738423889307"><ele>20.0</ele><time>2026-05-03T11:16:59Z</time></trkpt><trkpt lat="42.42033076694926" lon="14.15684349749171"><ele>20.333333333333336</ele><time>2026-05-03T11:17:00Z</time></trkpt><trkpt lat="42.420535557074984" lon="14.156932071246178"><ele>20.666666666666668</ele><time>2026-05-03T11:17:01Z</time></trkpt><trkpt lat="42.420738464063206" lon="14.157007797184498"><ele>21.0</ele><time>2026-05-03T11:17:02Z</time></trkpt><trkpt lat="42.42093683202448" lon="14.15708590123618"><ele>21.0</ele><time>2026-05-03T11:17:03Z</time></trkpt><trkpt lat="42.421124274625" lon="14.157164622200565"><ele>21.0</ele><time>2026-05-03T11:17:04Z</time></trkpt><trkpt lat="42.42130049557724" lon="14.157235860065061"><ele>21.0</ele><time>2026-05-03T11:17:05Z</time></trkpt><trkpt lat="42.4214610481308" lon="14.15730222939836"><ele>21.5</ele><time>2026-05-03T11:17:06Z</time></trkpt><trkpt lat="42.4216052387533" lon="14.15736408371075"><ele>22.0</ele><time>2026-05-03T11:17:07Z</time></trkpt><trkpt lat="42.42175256353225" lon="14.157420594556614"><ele>22.5</ele><time>2026-05-03T11:17:08Z</time></trkpt><trkpt lat="42.42189026283348" lon="14.157451150886505"><ele>23.0</ele><time>2026-05-03T11:17:09Z</time></trkpt><trkpt lat="42.422023394878146" lon="14.157444268836167"><ele>22.25</ele><time>2026-05-03T11:17:10Z</time></trkpt><trkpt lat="42.422141033837285" lon="14.157425403576163"><ele>21.5</ele><time>2026-05-03T11:17:11Z</time></trkpt><trkpt lat="42.42225812378632" lon="14.157436254368346"><ele>20.75</ele><time>2026-05-03T11:17:12Z</time></trkpt><trkpt lat="42.422370621379784" lon="14.157496639765572"><ele>20.0</ele><time>2026-05-03T11:17:13Z</time></trkpt><trkpt lat="42.422483958343385" lon="14.157571576388895"><ele>20.0</ele><time>2026-05-03T11:17:14Z</time></trkpt><trkpt lat="42.42260213990232" lon="14.157655091907037"><ele>20.0</ele><time>2026-05-03T11:17:15Z</time></trkpt><trkpt lat="42.42272532859658" lon="14.157745625732469"><ele>20.0</ele><time>2026-05-03T11:17:16Z</time></trkpt><trkpt lat="42.42285410311132" lon="14.15783580538712"><ele>20.0</ele><time>2026-05-03T11:17:17Z</time></trkpt><trkpt lat="42.42299380779639" lon="14.157913461600799"><ele>19.333333333333336</ele><time>2026-05-03T11:17:18Z</time></trkpt><trkpt lat="42.42314014901331" lon="14.157971885273042"><ele>18.666666666666668</ele><time>2026-05-03T11:17:19Z</time></trkpt><trkpt lat="42.423288212780704" lon="14.158020762270214"><ele>18.0</ele><time>2026-05-03T11:17:20Z</time></trkpt><trkpt lat="42.42345179391562" lon="14.158089159168965"><ele>18.0</ele><time>2026-05-03T11:17:21Z</time></trkpt><trkpt lat="42.42361256168374" lon="14.158163452550998"><ele>18.0</ele><time>2026-05-03T11:17:22Z</time></trkpt><trkpt lat="42.423780953749954" lon="14.1582288973061"><ele>18.0</ele><time>2026-05-03T11:17:23Z</time></trkpt><trkpt lat="42.42396821833421" lon="14.158306047667118"><ele>17.666666666666668</ele><time>2026-05-03T11:17:24Z</time></trkpt><trkpt lat="42.42413376989171" lon="14.158382707001262"><ele>17.333333333333336</ele><time>2026-05-03T11:17:25Z</time></trkpt><trkpt lat="42.424305795292696" lon="14.158458755209951"><ele>17.0</ele><time>2026-05-03T11:17:26Z</time></trkpt><trkpt lat="42.42448393834909" lon="14.158542121647848"><ele>17.333333333333336</ele><time>2026-05-03T11:17:27Z</time></trkpt><trkpt lat="42.42464756652727" lon="14.158614130904205"><ele>17.666666666666668</ele><time>2026-05-03T11:17:28Z</time></trkpt><trkpt lat="42.424789000068195" lon="14.158675302895741"><ele>18.0</ele><time>2026-05-03T11:17:29Z</time></trkpt><trkpt lat="42.424940535542824" lon="14.15873431580977"><ele>18.0</ele><time>2026-05-03T11:17:30Z</time></trkpt><trkpt lat="42.425106435281606" lon="14.158798514316393"><ele>18.0</ele><time>2026-05-03T11:17:31Z</time></trkpt><trkpt lat="42.425273334648075" lon="14.158867982442702"><ele>18.0</ele><time>2026-05-03T11:17:32Z</time></trkpt><trkpt lat="42.42544014238882" lon="14.15893874859643"><ele>18.333333333333332</ele><time>2026-05-03T11:17:33Z</time></trkpt><trkpt lat="42.425607240830665" lon="14.159021908476854"><ele>18.666666666666664</ele><time>2026-05-03T11:17:34Z</time></trkpt><trkpt lat="42.42575860852867" lon="14.159106781471582"><ele>19.0</ele><time>2026-05-03T11:17:35Z</time></trkpt><trkpt lat="42.425897184485166" lon="14.159192096976383"><ele>19.0</ele><time>2026-05-03T11:17:36Z</time></trkpt><trkpt lat="42.426044472306494" lon="14.159278027086614"><ele>19.0</ele><time>2026-05-03T11:17:37Z</time></trkpt><trkpt lat="42.4261946676522" lon="14.159366904175863"><ele>19.0</ele><time>2026-05-03T11:17:38Z</time></trkpt><trkpt lat="42.42633879931158" lon="14.159469525278027"><ele>19.333333333333332</ele><time>2026-05-03T11:17:39Z</time></trkpt><trkpt lat="42.42647852566866" lon="14.159569883131672"><ele>19.666666666666668</ele><time>2026-05-03T11:17:40Z</time></trkpt><trkpt lat="42.42662170941001" lon="14.159677290777367"><ele>20.0</ele><time>2026-05-03T11:17:41Z</time></trkpt><trkpt lat="42.426764321663086" lon="14.159785556513361"><ele>19.666666666666668</ele><time>2026-05-03T11:17:42Z</time></trkpt><trkpt lat="42.42690555116299" lon="14.159892109368988"><ele>19.333333333333332</ele><time>2026-05-03T11:17:43Z</time></trkpt><trkpt lat="42.42704321754484" lon="14.160013711823899"><ele>19.0</ele><time>2026-05-03T11:17:44Z</time></trkpt><trkpt lat="42.42718815732564" lon="14.160130114552715"><ele>18.666666666666664</ele><time>2026-05-03T11:17:45Z</time></trkpt><trkpt lat="42.427331048697624" lon="14.160252983702854"><ele>18.333333333333332</ele><time>2026-05-03T11:17:46Z</time></trkpt><trkpt lat="42.42747587094497" lon="14.160375243724799"><ele>18.0</ele><time>2026-05-03T11:17:47Z</time></trkpt><trkpt lat="42.42761363320978" lon="14.160499719592348"><ele>18.0</ele><time>2026-05-03T11:17:48Z</time></trkpt><trkpt lat="42.427760488342855" lon="14.16063528986331"><ele>18.0</ele><time>2026-05-03T11:17:49Z</time></trkpt><trkpt lat="42.42789749926381" lon="14.160770487649161"><ele>18.0</ele><time>2026-05-03T11:17:50Z</time></trkpt><trkpt lat="42.42803475677866" lon="14.160912034639404"><ele>17.666666666666668</ele><time>2026-05-03T11:17:51Z</time></trkpt><trkpt lat="42.42817653825137" lon="14.161055716850472"><ele>17.333333333333336</ele><time>2026-05-03T11:17:52Z</time></trkpt><trkpt lat="42.42831797076431" lon="14.161187561444613"><ele>17.0</ele><time>2026-05-03T11:17:53Z</time></trkpt><trkpt lat="42.42845863714115" lon="14.161326889114946"><ele>17.0</ele><time>2026-05-03T11:17:54Z</time></trkpt><trkpt lat="42.42859057065272" lon="14.16146429580462"><ele>17.0</ele><time>2026-05-03T11:17:55Z</time></trkpt><trkpt lat="42.42873195760653" lon="14.161606048053558"><ele>17.0</ele><time>2026-05-03T11:17:56Z</time></trkpt><trkpt lat="42.428858648937684" lon="14.161742275391063"><ele>20.333333333333336</ele><time>2026-05-03T11:17:57Z</time></trkpt><trkpt lat="42.42899309781258" lon="14.161872746442445"><ele>23.666666666666668</ele><time>2026-05-03T11:17:58Z</time></trkpt><trkpt lat="42.42912734396468" lon="14.1620081804496"><ele>27.0</ele><time>2026-05-03T11:17:59Z</time></trkpt><trkpt lat="42.429260256344165" lon="14.162143328046271"><ele>27.0</ele><time>2026-05-03T11:18:00Z</time></trkpt><trkpt lat="42.429398830445905" lon="14.162281662119591"><ele>27.0</ele><time>2026-05-03T11:18:01Z</time></trkpt><trkpt lat="42.42953275588106" lon="14.162419822566008"><ele>27.0</ele><time>2026-05-03T11:18:02Z</time></trkpt><trkpt lat="42.42966969344156" lon="14.162550725717566"><ele>25.5</ele><time>2026-05-03T11:18:03Z</time></trkpt><trkpt lat="42.42980451583012" lon="14.162651808290214"><ele>24.0</ele><time>2026-05-03T11:18:04Z</time></trkpt><trkpt lat="42.429941058430046" lon="14.1627256445813"><ele>22.5</ele><time>2026-05-03T11:18:05Z</time></trkpt><trkpt lat="42.43007128967204" lon="14.162771813085632"><ele>21.0</ele><time>2026-05-03T11:18:06Z</time></trkpt><trkpt lat="42.43019538221666" lon="14.162795310145924"><ele>21.0</ele><time>2026-05-03T11:18:07Z</time></trkpt><trkpt lat="42.43030753448354" lon="14.162805123220664"><ele>21.0</ele><time>2026-05-03T11:18:08Z</time></trkpt><trkpt lat="42.430398620872985" lon="14.16280186064794"><ele>21.0</ele><time>2026-05-03T11:18:09Z</time></trkpt><trkpt lat="42.43050280633046" lon="14.16282484534315"><ele>21.0</ele><time>2026-05-03T11:18:11Z</time></trkpt><trkpt lat="42.43047968131336" lon="14.162622657788019"><ele>21.0</ele><time>2026-05-03T11:18:14Z</time></trkpt><trkpt lat="42.43040934846004" lon="14.162595825604935"><ele>21.0</ele><time>2026-05-03T11:18:16Z</time></trkpt><trkpt lat="42.43036659812569" lon="14.162530753974002"><ele>21.0</ele><time>2026-05-03T11:18:28.001Z</time></trkpt><trkpt lat="42.43032593260455" lon="14.162414228711981"><ele>21.0</ele><time>2026-05-03T11:18:30.001Z</time></trkpt><trkpt lat="42.43032858723041" lon="14.1623114945238"><ele>21.0</ele><time>2026-05-03T11:18:31.001Z</time></trkpt><trkpt lat="42.43037150032156" lon="14.162214161329798"><ele>21.0</ele><time>2026-05-03T11:18:32.001Z</time></trkpt><trkpt lat="42.43043428383437" lon="14.162079219997954"><ele>21.5</ele><time>2026-05-03T11:18:33.001Z</time></trkpt><trkpt lat="42.43049852115206" lon="14.161938021221447"><ele>22.0</ele><time>2026-05-03T11:18:34.001Z</time></trkpt><trkpt lat="42.43056290876376" lon="14.161788247826097"><ele>22.5</ele><time>2026-05-03T11:18:35.001Z</time></trkpt><trkpt lat="42.43062452721933" lon="14.161639632381524"><ele>23.0</ele><time>2026-05-03T11:18:36.001Z</time></trkpt><trkpt lat="42.430683212480005" lon="14.1614886815323"><ele>23.799999999999997</ele><time>2026-05-03T11:18:37.001Z</time></trkpt><trkpt lat="42.43074344899261" lon="14.161341623746091"><ele>24.6</ele><time>2026-05-03T11:18:38.001Z</time></trkpt><trkpt lat="42.43079838595655" lon="14.161204482902011"><ele>25.400000000000002</ele><time>2026-05-03T11:18:39.001Z</time></trkpt><trkpt lat="42.43085859171589" lon="14.161115475517226"><ele>26.200000000000003</ele><time>2026-05-03T11:18:40.001Z</time></trkpt><trkpt lat="42.4309321169744" lon="14.161025089161116"><ele>27.0</ele><time>2026-05-03T11:18:41.001Z</time></trkpt><trkpt lat="42.43096327341406" lon="14.16090429981387"><ele>27.0</ele><time>2026-05-03T11:18:42.001Z</time></trkpt><trkpt lat="42.431021010434556" lon="14.160746738623667"><ele>27.0</ele><time>2026-05-03T11:18:43.001Z</time></trkpt><trkpt lat="42.43109037618946" lon="14.160530366361112"><ele>27.0</ele><time>2026-05-03T11:18:44.001Z</time></trkpt><trkpt lat="42.431198207783865" lon="14.160291862175598"><ele>28.5</ele><time>2026-05-03T11:18:45.001Z</time></trkpt><trkpt lat="42.431313213538225" lon="14.160009439912654"><ele>30.0</ele><time>2026-05-03T11:18:46.001Z</time></trkpt><trkpt lat="42.43143672257319" lon="14.159702151821488"><ele>30.666666666666664</ele><time>2026-05-03T11:18:47.001Z</time></trkpt><trkpt lat="42.4315524458298" lon="14.159421150105995"><ele>31.333333333333332</ele><time>2026-05-03T11:18:48.001Z</time></trkpt><trkpt lat="42.43165390188828" lon="14.159174170574978"><ele>32.0</ele><time>2026-05-03T11:18:49.001Z</time></trkpt><trkpt lat="42.431754377052734" lon="14.158926121240244"><ele>32.33333333333333</ele><time>2026-05-03T11:18:50.001Z</time></trkpt><trkpt lat="42.43185968524239" lon="14.158663438504819"><ele>32.666666666666664</ele><time>2026-05-03T11:18:51.001Z</time></trkpt><trkpt lat="42.43195090106028" lon="14.158442194727016"><ele>33.0</ele><time>2026-05-03T11:18:52.001Z</time></trkpt><trkpt lat="42.43203366632277" lon="14.158244483745664"><ele>33.333333333333336</ele><time>2026-05-03T11:18:53.001Z</time></trkpt><trkpt lat="42.43210484201245" lon="14.158064500564068"><ele>33.66666666666667</ele><time>2026-05-03T11:18:54.001Z</time></trkpt><trkpt lat="42.432193434718805" lon="14.157898139327756"><ele>34.0</ele><time>2026-05-03T11:18:55.001Z</time></trkpt><trkpt lat="42.43225633844203" lon="14.157707023391852"><ele>36.333333333333336</ele><time>2026-05-03T11:18:56.001Z</time></trkpt><trkpt lat="42.432349994170565" lon="14.157528695922606"><ele>38.666666666666664</ele><time>2026-05-03T11:18:57.001Z</time></trkpt><trkpt lat="42.43245247109451" lon="14.1573617775689"><ele>41.0</ele><time>2026-05-03T11:18:58.001Z</time></trkpt><trkpt lat="42.432565113002845" lon="14.15721452664953"><ele>42.33333333333333</ele><time>2026-05-03T11:18:59.001Z</time></trkpt><trkpt lat="42.432726221092956" lon="14.157086005246121"><ele>43.666666666666664</ele><time>2026-05-03T11:19:00Z</time></trkpt><trkpt lat="42.43289949216114" lon="14.156910513397918"><ele>45.0</ele><time>2026-05-03T11:19:01Z</time></trkpt><trkpt lat="42.433105048795426" lon="14.156734009259225"><ele>47.5</ele><time>2026-05-03T11:19:02Z</time></trkpt><trkpt lat="42.43333274201132" lon="14.156548888200094"><ele>50.0</ele><time>2026-05-03T11:19:03Z</time></trkpt><trkpt lat="42.43358332146009" lon="14.156375104253462"><ele>51.0</ele><time>2026-05-03T11:19:04Z</time></trkpt><trkpt lat="42.43380366131264" lon="14.156208537862382"><ele>52.0</ele><time>2026-05-03T11:19:05Z</time></trkpt><trkpt lat="42.4340059710359" lon="14.15603778402567"><ele>53.0</ele><time>2026-05-03T11:19:06Z</time></trkpt><trkpt lat="42.434211572085964" lon="14.155887241778746"><ele>54.0</ele><time>2026-05-03T11:19:07Z</time></trkpt><trkpt lat="42.4344069624548" lon="14.15574128431866"><ele>54.33333333333333</ele><time>2026-05-03T11:19:08Z</time></trkpt><trkpt lat="42.43459869616646" lon="14.155601738263568"><ele>54.666666666666664</ele><time>2026-05-03T11:19:09Z</time></trkpt><trkpt lat="42.4347861055513" lon="14.15546145536151"><ele>55.0</ele><time>2026-05-03T11:19:10Z</time></trkpt><trkpt lat="42.43496897029644" lon="14.155316118770143"><ele>56.0</ele><time>2026-05-03T11:19:11Z</time></trkpt><trkpt lat="42.435157409987305" lon="14.155190767868499"><ele>57.0</ele><time>2026-05-03T11:19:12Z</time></trkpt><trkpt lat="42.435342797441166" lon="14.15505222258747"><ele>58.0</ele><time>2026-05-03T11:19:13Z</time></trkpt><trkpt lat="42.43553559856368" lon="14.154907639259246"><ele>59.666666666666664</ele><time>2026-05-03T11:19:14Z</time></trkpt><trkpt lat="42.43573174184337" lon="14.154759600507445"><ele>61.33333333333333</ele><time>2026-05-03T11:19:15Z</time></trkpt><trkpt lat="42.435925792546065" lon="14.154609380307658"><ele>63.0</ele><time>2026-05-03T11:19:16Z</time></trkpt><trkpt lat="42.436129272882496" lon="14.154427131156607"><ele>63.5</ele><time>2026-05-03T11:19:17Z</time></trkpt><trkpt lat="42.436348219855475" lon="14.154256652311314"><ele>64.0</ele><time>2026-05-03T11:19:18Z</time></trkpt><trkpt lat="42.43656771992363" lon="14.154068953221474"><ele>67.0</ele><time>2026-05-03T11:19:19Z</time></trkpt><trkpt lat="42.436768203312155" lon="14.153884281805443"><ele>70.0</ele><time>2026-05-03T11:19:20Z</time></trkpt><trkpt lat="42.43695857263054" lon="14.1537117352655"><ele>70.0</ele><time>2026-05-03T11:19:21Z</time></trkpt><trkpt lat="42.43713428168155" lon="14.15355999513078"><ele>70.0</ele><time>2026-05-03T11:19:22Z</time></trkpt><trkpt lat="42.437299749458546" lon="14.153428907458034"><ele>70.0</ele><time>2026-05-03T11:19:23Z</time></trkpt><trkpt lat="42.43747157897061" lon="14.153315455085089"><ele>69.66666666666666</ele><time>2026-05-03T11:19:24Z</time></trkpt><trkpt lat="42.43766751895894" lon="14.153268952279166"><ele>69.33333333333333</ele><time>2026-05-03T11:19:25Z</time></trkpt><trkpt lat="42.437863009198495" lon="14.15321678977822"><ele>69.0</ele><time>2026-05-03T11:19:26Z</time></trkpt><trkpt lat="42.43805183329575" lon="14.153141521638046"><ele>67.0</ele><time>2026-05-03T11:19:27Z</time></trkpt><trkpt lat="42.43823514454967" lon="14.153081899387196"><ele>65.0</ele><time>2026-05-03T11:19:28Z</time></trkpt><trkpt lat="42.43840505661824" lon="14.152980081116556"><ele>63.0</ele><time>2026-05-03T11:19:29Z</time></trkpt><trkpt lat="42.43857441595771" lon="14.152834962011903"><ele>63.0</ele><time>2026-05-03T11:19:30Z</time></trkpt><trkpt lat="42.4387343418546" lon="14.152658065703744"><ele>63.0</ele><time>2026-05-03T11:19:31Z</time></trkpt><trkpt lat="42.43891591747202" lon="14.152511151098784"><ele>63.0</ele><time>2026-05-03T11:19:32Z</time></trkpt><trkpt lat="42.43903671798315" lon="14.152235073509333"><ele>66.33333333333333</ele><time>2026-05-03T11:19:33Z</time></trkpt><trkpt lat="42.43916928732038" lon="14.152016828176448"><ele>69.66666666666666</ele><time>2026-05-03T11:19:34Z</time></trkpt><trkpt lat="42.43929646795306" lon="14.151829109632498"><ele>73.0</ele><time>2026-05-03T11:19:35Z</time></trkpt><trkpt lat="42.439435853376445" lon="14.151681004481748"><ele>73.0</ele><time>2026-05-03T11:19:36Z</time></trkpt><trkpt lat="42.43959246280137" lon="14.151559106465283"><ele>73.0</ele><time>2026-05-03T11:19:37Z</time></trkpt><trkpt lat="42.43975960560739" lon="14.151465784531075"><ele>73.0</ele><time>2026-05-03T11:19:38Z</time></trkpt><trkpt lat="42.439930240744864" lon="14.151393119469827"><ele>74.0</ele><time>2026-05-03T11:19:39Z</time></trkpt><trkpt lat="42.44010448670076" lon="14.151321337497349"><ele>75.0</ele><time>2026-05-03T11:19:40Z</time></trkpt><trkpt lat="42.44026316572168" lon="14.1512325646104"><ele>76.0</ele><time>2026-05-03T11:19:41Z</time></trkpt><trkpt lat="42.44040832583564" lon="14.151129091883304"><ele>80.0</ele><time>2026-05-03T11:19:42Z</time></trkpt><trkpt lat="42.440545020170475" lon="14.151016710877704"><ele>84.0</ele><time>2026-05-03T11:19:43Z</time></trkpt><trkpt lat="42.44069359082779" lon="14.150907165960687"><ele>88.0</ele><time>2026-05-03T11:19:44Z</time></trkpt><trkpt lat="42.44084617132731" lon="14.150832593355378"><ele>88.0</ele><time>2026-05-03T11:19:45Z</time></trkpt><trkpt lat="42.44100230307169" lon="14.150794101310396"><ele>88.0</ele><time>2026-05-03T11:19:46Z</time></trkpt><trkpt lat="42.44115297622482" lon="14.150794456655106"><ele>88.0</ele><time>2026-05-03T11:19:47Z</time></trkpt><trkpt lat="42.44129500904063" lon="14.150832040111606"><ele>89.0</ele><time>2026-05-03T11:19:48Z</time></trkpt><trkpt lat="42.441444148663074" lon="14.150897372421793"><ele>90.0</ele><time>2026-05-03T11:19:49Z</time></trkpt><trkpt lat="42.44159171638039" lon="14.150966985916417"><ele>91.0</ele><time>2026-05-03T11:19:50Z</time></trkpt><trkpt lat="42.441748944151" lon="14.15099729721005"><ele>91.0</ele><time>2026-05-03T11:19:51Z</time></trkpt><trkpt lat="42.441918987887334" lon="14.150981950297767"><ele>91.0</ele><time>2026-05-03T11:19:52Z</time></trkpt><trkpt lat="42.44207290869259" lon="14.150924114116142"><ele>91.0</ele><time>2026-05-03T11:19:53Z</time></trkpt><trkpt lat="42.44220942308227" lon="14.150843849016065"><ele>91.75</ele><time>2026-05-03T11:19:54Z</time></trkpt><trkpt lat="42.44230514625492" lon="14.150735414168523"><ele>92.5</ele><time>2026-05-03T11:19:55Z</time></trkpt><trkpt lat="42.442369703648104" lon="14.150592363399872"><ele>93.25</ele><time>2026-05-03T11:19:56Z</time></trkpt><trkpt lat="42.44241041388533" lon="14.150418403210374"><ele>94.0</ele><time>2026-05-03T11:19:57Z</time></trkpt><trkpt lat="42.442440806889714" lon="14.150214816100316"><ele>94.0</ele><time>2026-05-03T11:19:58Z</time></trkpt><trkpt lat="42.442472660947" lon="14.149989159677888"><ele>94.0</ele><time>2026-05-03T11:19:59Z</time></trkpt><trkpt lat="42.44251765938414" lon="14.149748017516533"><ele>94.0</ele><time>2026-05-03T11:20:00Z</time></trkpt><trkpt lat="42.442582794924256" lon="14.149499141845924"><ele>95.33333333333333</ele><time>2026-05-03T11:20:01Z</time></trkpt><trkpt lat="42.442658139867376" lon="14.149252761964398"><ele>96.66666666666666</ele><time>2026-05-03T11:20:02Z</time></trkpt><trkpt lat="42.44275165453678" lon="14.149000346622906"><ele>98.0</ele><time>2026-05-03T11:20:03Z</time></trkpt><trkpt lat="42.44285512008126" lon="14.148777306565876"><ele>100.0</ele><time>2026-05-03T11:20:04Z</time></trkpt><trkpt lat="42.44297386613624" lon="14.148571807404455"><ele>102.0</ele><time>2026-05-03T11:20:05Z</time></trkpt><trkpt lat="42.443111914751334" lon="14.148367826975957"><ele>104.0</ele><time>2026-05-03T11:20:06Z</time></trkpt><trkpt lat="42.44325838152022" lon="14.14816094133126"><ele>109.0</ele><time>2026-05-03T11:20:07Z</time></trkpt><trkpt lat="42.443404696343784" lon="14.147961701220488"><ele>114.0</ele><time>2026-05-03T11:20:08Z</time></trkpt><trkpt lat="42.44353146958192" lon="14.147787919322482"><ele>119.0</ele><time>2026-05-03T11:20:09Z</time></trkpt><trkpt lat="42.443657883376126" lon="14.147647581517486"><ele>119.0</ele><time>2026-05-03T11:20:10Z</time></trkpt><trkpt lat="42.44379010749525" lon="14.14754449246647"><ele>119.0</ele><time>2026-05-03T11:20:11Z</time></trkpt><trkpt lat="42.443951476090774" lon="14.147476749733295"><ele>119.0</ele><time>2026-05-03T11:20:12Z</time></trkpt><trkpt lat="42.444134463136955" lon="14.147435945632939"><ele>117.75</ele><time>2026-05-03T11:20:13Z</time></trkpt><trkpt lat="42.44428889023961" lon="14.14740355007673"><ele>116.5</ele><time>2026-05-03T11:20:14Z</time></trkpt><trkpt lat="42.444412290471526" lon="14.147338496467032"><ele>115.25</ele><time>2026-05-03T11:20:15Z</time></trkpt><trkpt lat="42.44450029435327" lon="14.147228743098989"><ele>114.0</ele><time>2026-05-03T11:20:16Z</time></trkpt><trkpt lat="42.444550174476994" lon="14.147089185690119"><ele>115.16666666666667</ele><time>2026-05-03T11:20:17Z</time></trkpt><trkpt lat="42.44458595333119" lon="14.146968789157997"><ele>116.33333333333334</ele><time>2026-05-03T11:20:18Z</time></trkpt><trkpt lat="42.444625393078404" lon="14.146865800726816"><ele>117.5</ele><time>2026-05-03T11:20:19Z</time></trkpt><trkpt lat="42.44467345024107" lon="14.146782080350091"><ele>118.66666666666667</ele><time>2026-05-03T11:20:20Z</time></trkpt><trkpt lat="42.44473323746876" lon="14.146696565711844"><ele>119.83333333333334</ele><time>2026-05-03T11:20:21Z</time></trkpt><trkpt lat="42.44479624822578" lon="14.146611436413549"><ele>121.0</ele><time>2026-05-03T11:20:22Z</time></trkpt><trkpt lat="42.4448583305742" lon="14.146503766639515"><ele>122.25</ele><time>2026-05-03T11:20:23Z</time></trkpt><trkpt lat="42.4449342471465" lon="14.146365583399831"><ele>123.5</ele><time>2026-05-03T11:20:24Z</time></trkpt><trkpt lat="42.44502262196524" lon="14.14620589100324"><ele>124.75</ele><time>2026-05-03T11:20:25Z</time></trkpt><trkpt lat="42.44511851536564" lon="14.146031038821672"><ele>126.0</ele><time>2026-05-03T11:20:26Z</time></trkpt><trkpt lat="42.44521949682938" lon="14.145852903480082"><ele>124.0</ele><time>2026-05-03T11:20:27.001Z</time></trkpt><trkpt lat="42.44531874498099" lon="14.145681535811725"><ele>122.0</ele><time>2026-05-03T11:20:28.001Z</time></trkpt><trkpt lat="42.44542769044252" lon="14.145510873678674"><ele>120.0</ele><time>2026-05-03T11:20:29.001Z</time></trkpt><trkpt lat="42.445560017652845" lon="14.145341826082335"><ele>120.0</ele><time>2026-05-03T11:20:30.001Z</time></trkpt><trkpt lat="42.44569753412763" lon="14.145191649618225"><ele>120.0</ele><time>2026-05-03T11:20:31.001Z</time></trkpt><trkpt lat="42.445860245891794" lon="14.145050140284424"><ele>120.0</ele><time>2026-05-03T11:20:32.001Z</time></trkpt><trkpt lat="42.4460172861353" lon="14.144943144244449"><ele>120.33333333333334</ele><time>2026-05-03T11:20:33.001Z</time></trkpt><trkpt lat="42.44616844411635" lon="14.144852240585665"><ele>120.66666666666667</ele><time>2026-05-03T11:20:34.001Z</time></trkpt><trkpt lat="42.44631484358637" lon="14.144773950748567"><ele>121.0</ele><time>2026-05-03T11:20:35.001Z</time></trkpt><trkpt lat="42.4464703678496" lon="14.144707904612142"><ele>121.0</ele><time>2026-05-03T11:20:36.001Z</time></trkpt><trkpt lat="42.446632250652726" lon="14.144664803166323"><ele>121.0</ele><time>2026-05-03T11:20:37.001Z</time></trkpt><trkpt lat="42.44678868034747" lon="14.144629187120099"><ele>121.0</ele><time>2026-05-03T11:20:38.001Z</time></trkpt><trkpt lat="42.44693515268412" lon="14.144591049663255"><ele>121.0</ele><time>2026-05-03T11:20:39.001Z</time></trkpt><trkpt lat="42.4470686379802" lon="14.144555544932455"><ele>121.0</ele><time>2026-05-03T11:20:40.001Z</time></trkpt><trkpt lat="42.4471890566141" lon="14.144529530915516"><ele>121.0</ele><time>2026-05-03T11:20:41.001Z</time></trkpt><trkpt lat="42.44729739839989" lon="14.144520662258783"><ele>121.0</ele><time>2026-05-03T11:20:42.001Z</time></trkpt><trkpt lat="42.44740346736649" lon="14.14455453114792"><ele>122.25</ele><time>2026-05-03T11:20:43.001Z</time></trkpt><trkpt lat="42.44748689126595" lon="14.144636628805776"><ele>123.5</ele><time>2026-05-03T11:20:44.001Z</time></trkpt><trkpt lat="42.44753248512967" lon="14.144756072698987"><ele>124.75</ele><time>2026-05-03T11:20:45.001Z</time></trkpt><trkpt lat="42.44755463151331" lon="14.14490980309038"><ele>126.0</ele><time>2026-05-03T11:20:46.001Z</time></trkpt><trkpt lat="42.44756690708001" lon="14.145089366632867"><ele>126.25</ele><time>2026-05-03T11:20:47.001Z</time></trkpt><trkpt lat="42.44756208023836" lon="14.145291456071138"><ele>126.5</ele><time>2026-05-03T11:20:48.001Z</time></trkpt><trkpt lat="42.44756240448956" lon="14.14549320035653"><ele>126.75</ele><time>2026-05-03T11:20:49.001Z</time></trkpt><trkpt lat="42.44757311507441" lon="14.145660307960911"><ele>127.0</ele><time>2026-05-03T11:20:50.001Z</time></trkpt><trkpt lat="42.4476047453035" lon="14.145791632022949"><ele>127.5</ele><time>2026-05-03T11:20:51.001Z</time></trkpt><trkpt lat="42.44766609903497" lon="14.145914023767444"><ele>128.0</ele><time>2026-05-03T11:20:52.001Z</time></trkpt><trkpt lat="42.44775255146984" lon="14.146041883830788"><ele>128.5</ele><time>2026-05-03T11:20:53.001Z</time></trkpt><trkpt lat="42.447866014446824" lon="14.146163648273866"><ele>129.0</ele><time>2026-05-03T11:20:54.001Z</time></trkpt><trkpt lat="42.447998498597606" lon="14.146271295072392"><ele>133.33333333333334</ele><time>2026-05-03T11:20:55.001Z</time></trkpt><trkpt lat="42.44815582907589" lon="14.146358330699579"><ele>137.66666666666669</ele><time>2026-05-03T11:20:56.001Z</time></trkpt><trkpt lat="42.44833032847465" lon="14.146444589483277"><ele>142.0</ele><time>2026-05-03T11:20:57.001Z</time></trkpt><trkpt lat="42.44848994180794" lon="14.14647642870049"><ele>142.0</ele><time>2026-05-03T11:20:58.001Z</time></trkpt><trkpt lat="42.44864866779955" lon="14.146493605739574"><ele>142.0</ele><time>2026-05-03T11:20:59.001Z</time></trkpt><trkpt lat="42.448781308888876" lon="14.146461373585318"><ele>142.0</ele><time>2026-05-03T11:21:00.001Z</time></trkpt><trkpt lat="42.448909657925576" lon="14.146406262618934"><ele>142.0</ele><time>2026-05-03T11:21:01.001Z</time></trkpt><trkpt lat="42.449019790765725" lon="14.146322132967319"><ele>142.5</ele><time>2026-05-03T11:21:02.001Z</time></trkpt><trkpt lat="42.44911697573188" lon="14.146208624511416"><ele>143.0</ele><time>2026-05-03T11:21:03.001Z</time></trkpt><trkpt lat="42.4492101575846" lon="14.146065200430003"><ele>143.5</ele><time>2026-05-03T11:21:04.001Z</time></trkpt><trkpt lat="42.44930674753132" lon="14.145884980957286"><ele>144.0</ele><time>2026-05-03T11:21:05.001Z</time></trkpt><trkpt lat="42.44941972950948" lon="14.145663317659144"><ele>141.33333333333334</ele><time>2026-05-03T11:21:05.999Z</time></trkpt><trkpt lat="42.44953677221606" lon="14.14545438582806"><ele>138.66666666666669</ele><time>2026-05-03T11:21:06.999Z</time></trkpt><trkpt lat="42.44963270577099" lon="14.145289041393468"><ele>136.0</ele><time>2026-05-03T11:21:07.999Z</time></trkpt><trkpt lat="42.44970375599695" lon="14.145104858162929"><ele>136.0</ele><time>2026-05-03T11:21:08.999Z</time></trkpt><trkpt lat="42.449769099450016" lon="14.144919897739344"><ele>136.0</ele><time>2026-05-03T11:21:09.999Z</time></trkpt><trkpt lat="42.44983338488716" lon="14.144727167714711"><ele>136.0</ele><time>2026-05-03T11:21:10.999Z</time></trkpt><trkpt lat="42.449891713673196" lon="14.144523198470798"><ele>136.66666666666669</ele><time>2026-05-03T11:21:11.999Z</time></trkpt><trkpt lat="42.4499303898201" lon="14.144309968418286"><ele>137.33333333333334</ele><time>2026-05-03T11:21:12.999Z</time></trkpt><trkpt lat="42.44994778475756" lon="14.144071327356723"><ele>138.0</ele><time>2026-05-03T11:21:13.999Z</time></trkpt><trkpt lat="42.4499421633061" lon="14.143818637611458"><ele>138.0</ele><time>2026-05-03T11:21:14.999Z</time></trkpt><trkpt lat="42.449923628583285" lon="14.143567492632899"><ele>138.0</ele><time>2026-05-03T11:21:15.999Z</time></trkpt><trkpt lat="42.449895651460366" lon="14.143342851862592"><ele>138.0</ele><time>2026-05-03T11:21:16.999Z</time></trkpt><trkpt lat="42.449874607543265" lon="14.143141000381734"><ele>137.75</ele><time>2026-05-03T11:21:17.999Z</time></trkpt><trkpt lat="42.44983992483884" lon="14.142954971678794"><ele>137.5</ele><time>2026-05-03T11:21:18.999Z</time></trkpt><trkpt lat="42.44979116666151" lon="14.142772840254327"><ele>137.25</ele><time>2026-05-03T11:21:19.999Z</time></trkpt><trkpt lat="42.44972448013853" lon="14.142585056330235"><ele>137.0</ele><time>2026-05-03T11:21:20.999Z</time></trkpt><trkpt lat="42.44965400452801" lon="14.142400840648829"><ele>137.6</ele><time>2026-05-03T11:21:21.999Z</time></trkpt><trkpt lat="42.44959312873208" lon="14.142239068537853"><ele>138.2</ele><time>2026-05-03T11:21:22.999Z</time></trkpt><trkpt lat="42.44955714293888" lon="14.14208104641038"><ele>138.8</ele><time>2026-05-03T11:21:23.999Z</time></trkpt><trkpt lat="42.44953542155956" lon="14.141942179619953"><ele>139.4</ele><time>2026-05-03T11:21:25Z</time></trkpt><trkpt lat="42.44954679480199" lon="14.141826830971757"><ele>140.0</ele><time>2026-05-03T11:21:26Z</time></trkpt><trkpt lat="42.449639475623044" lon="14.141736427889859"><ele>140.0</ele><time>2026-05-03T11:21:27Z</time></trkpt><trkpt lat="42.4497068039403" lon="14.141608371507303"><ele>140.0</ele><time>2026-05-03T11:21:28Z</time></trkpt><trkpt lat="42.449852193109" lon="14.14155501079558"><ele>140.0</ele><time>2026-05-03T11:21:29Z</time></trkpt><trkpt lat="42.449996087916" lon="14.141470633838367"><ele>140.0</ele><time>2026-05-03T11:21:30Z</time></trkpt><trkpt lat="42.45015303414722" lon="14.141395725728925"><ele>141.25</ele><time>2026-05-03T11:21:31Z</time></trkpt><trkpt lat="42.450308256485606" lon="14.141335747530102"><ele>142.5</ele><time>2026-05-03T11:21:32Z</time></trkpt><trkpt lat="42.450446821175596" lon="14.14128685638508"><ele>143.75</ele><time>2026-05-03T11:21:33Z</time></trkpt><trkpt lat="42.450573933491036" lon="14.141241866929088"><ele>145.0</ele><time>2026-05-03T11:21:34Z</time></trkpt><trkpt lat="42.450690857097875" lon="14.141199793515051"><ele>146.25</ele><time>2026-05-03T11:21:35Z</time></trkpt><trkpt lat="42.45082612604388" lon="14.141146010340602"><ele>147.5</ele><time>2026-05-03T11:21:36Z</time></trkpt><trkpt lat="42.450971202473646" lon="14.141084325412859"><ele>148.75</ele><time>2026-05-03T11:21:37Z</time></trkpt><trkpt lat="42.45111383127598" lon="14.141026800250312"><ele>150.0</ele><time>2026-05-03T11:21:38Z</time></trkpt><trkpt lat="42.451266795603686" lon="14.140985342565422"><ele>150.5</ele><time>2026-05-03T11:21:39Z</time></trkpt><trkpt lat="42.451392843527245" lon="14.140941423657932"><ele>151.0</ele><time>2026-05-03T11:21:40Z</time></trkpt><trkpt lat="42.451521133175866" lon="14.140914860447563"><ele>151.5</ele><time>2026-05-03T11:21:41Z</time></trkpt><trkpt lat="42.451645054210495" lon="14.140889557316985"><ele>152.0</ele><time>2026-05-03T11:21:42Z</time></trkpt><trkpt lat="42.451766666344085" lon="14.140892249482933"><ele>152.0</ele><time>2026-05-03T11:21:43Z</time></trkpt><trkpt lat="42.45188564570867" lon="14.140850302502317"><ele>152.0</ele><time>2026-05-03T11:21:44Z</time></trkpt><trkpt lat="42.4520009416042" lon="14.140827798694058"><ele>152.0</ele><time>2026-05-03T11:21:45Z</time></trkpt><trkpt lat="42.452112853567854" lon="14.140809631626091"><ele>152.0</ele><time>2026-05-03T11:21:46Z</time></trkpt><trkpt lat="42.45222458255563" lon="14.14078999496973"><ele>152.0</ele><time>2026-05-03T11:21:47Z</time></trkpt><trkpt lat="42.45233962322414" lon="14.140766453210741"><ele>152.0</ele><time>2026-05-03T11:21:48Z</time></trkpt><trkpt lat="42.452458262638736" lon="14.140749714923135"><ele>152.0</ele><time>2026-05-03T11:21:49Z</time></trkpt><trkpt lat="42.45256865152382" lon="14.140719930524469"><ele>152.0</ele><time>2026-05-03T11:21:50Z</time></trkpt><trkpt lat="42.452680042067605" lon="14.140694030621356"><ele>152.0</ele><time>2026-05-03T11:21:51Z</time></trkpt><trkpt lat="42.4527923030798" lon="14.140671729364264"><ele>152.0</ele><time>2026-05-03T11:21:52Z</time></trkpt><trkpt lat="42.452886810067355" lon="14.14064805117027"><ele>152.0</ele><time>2026-05-03T11:21:53Z</time></trkpt><trkpt lat="42.45295535852978" lon="14.140634261714881"><ele>152.0</ele><time>2026-05-03T11:21:54Z</time></trkpt><trkpt lat="42.45304947475917" lon="14.140621672528102"><ele>152.0</ele><time>2026-05-03T11:21:56Z</time></trkpt><trkpt lat="42.45311353007237" lon="14.140584321411906"><ele>152.0</ele><time>2026-05-03T11:22:00Z</time></trkpt><trkpt lat="42.45318459348659" lon="14.140517797212548"><ele>155.39999999999998</ele><time>2026-05-03T11:22:02Z</time></trkpt><trkpt lat="42.45330387660482" lon="14.140452013145731"><ele>158.79999999999998</ele><time>2026-05-03T11:22:04Z</time></trkpt><trkpt lat="42.453407582420226" lon="14.140391652925148"><ele>162.2</ele><time>2026-05-03T11:22:06Z</time></trkpt><trkpt lat="42.45352072950493" lon="14.140322031032522"><ele>165.6</ele><time>2026-05-03T11:22:08Z</time></trkpt><trkpt lat="42.45359083522345" lon="14.140284250571705"><ele>169.0</ele><time>2026-05-03T11:22:09Z</time></trkpt><trkpt lat="42.453670154597766" lon="14.140233881253092"><ele>169.0</ele><time>2026-05-03T11:22:10Z</time></trkpt><trkpt lat="42.45375975254714" lon="14.140177436326992"><ele>169.0</ele><time>2026-05-03T11:22:11Z</time></trkpt><trkpt lat="42.45384396331277" lon="14.140100578755893"><ele>169.0</ele><time>2026-05-03T11:22:12Z</time></trkpt><trkpt lat="42.45392231938456" lon="14.140001479504557"><ele>169.0</ele><time>2026-05-03T11:22:13Z</time></trkpt><trkpt lat="42.45397911501984" lon="14.139890073346603"><ele>169.0</ele><time>2026-05-03T11:22:14Z</time></trkpt><trkpt lat="42.45402885017444" lon="14.139775515894717"><ele>170.0</ele><time>2026-05-03T11:22:15Z</time></trkpt><trkpt lat="42.454078450709545" lon="14.139664670515467"><ele>171.0</ele><time>2026-05-03T11:22:16Z</time></trkpt><trkpt lat="42.45413064753574" lon="14.139557666221952"><ele>172.0</ele><time>2026-05-03T11:22:17Z</time></trkpt><trkpt lat="42.45418668149976" lon="14.13944888570668"><ele>173.0</ele><time>2026-05-03T11:22:18Z</time></trkpt><trkpt lat="42.45424224725558" lon="14.139348724288213"><ele>174.0</ele><time>2026-05-03T11:22:19Z</time></trkpt><trkpt lat="42.45429249360753" lon="14.139249212158022"><ele>174.0</ele><time>2026-05-03T11:22:20Z</time></trkpt><trkpt lat="42.45434169624567" lon="14.139160657173079"><ele>174.0</ele><time>2026-05-03T11:22:21Z</time></trkpt><trkpt lat="42.454410205861606" lon="14.139043212390446"><ele>174.0</ele><time>2026-05-03T11:22:23Z</time></trkpt><trkpt lat="42.454483050708276" lon="14.138914802471882"><ele>174.0</ele><time>2026-05-03T11:22:25Z</time></trkpt><trkpt lat="42.45452331293697" lon="14.1388409601958"><ele>174.0</ele><time>2026-05-03T11:22:26Z</time></trkpt><trkpt lat="42.45456449677064" lon="14.138765723345504"><ele>174.0</ele><time>2026-05-03T11:22:27Z</time></trkpt><trkpt lat="42.4546069821764" lon="14.13869205317512"><ele>173.83333333333334</ele><time>2026-05-03T11:22:28Z</time></trkpt><trkpt lat="42.45465112722405" lon="14.138620035077837"><ele>173.66666666666666</ele><time>2026-05-03T11:22:29Z</time></trkpt><trkpt lat="42.454694532961206" lon="14.138546218159501"><ele>173.5</ele><time>2026-05-03T11:22:30Z</time></trkpt><trkpt lat="42.454742618360434" lon="14.138463358498413"><ele>173.33333333333331</ele><time>2026-05-03T11:22:31Z</time></trkpt><trkpt lat="42.454794846572874" lon="14.138377927239516"><ele>173.16666666666666</ele><time>2026-05-03T11:22:32Z</time></trkpt><trkpt lat="42.454849163863514" lon="14.13828388785659"><ele>173.0</ele><time>2026-05-03T11:22:33Z</time></trkpt><trkpt lat="42.45490519623108" lon="14.13818169920523"><ele>172.4</ele><time>2026-05-03T11:22:34Z</time></trkpt><trkpt lat="42.454959132626215" lon="14.138076559760629"><ele>171.8</ele><time>2026-05-03T11:22:35Z</time></trkpt><trkpt lat="42.45500946591968" lon="14.137963136869947"><ele>171.2</ele><time>2026-05-03T11:22:36Z</time></trkpt><trkpt lat="42.45504561975341" lon="14.137816508487065"><ele>170.6</ele><time>2026-05-03T11:22:37Z</time></trkpt><trkpt lat="42.455055653282834" lon="14.137625886356066"><ele>170.0</ele><time>2026-05-03T11:22:38Z</time></trkpt><trkpt lat="42.45505272136972" lon="14.13741073716635"><ele>170.75</ele><time>2026-05-03T11:22:39Z</time></trkpt><trkpt lat="42.45504750819937" lon="14.137211701326041"><ele>171.5</ele><time>2026-05-03T11:22:40Z</time></trkpt><trkpt lat="42.45504277563078" lon="14.13703989487602"><ele>172.25</ele><time>2026-05-03T11:22:41Z</time></trkpt><trkpt lat="42.455024779459606" lon="14.13688732839966"><ele>173.0</ele><time>2026-05-03T11:22:42Z</time></trkpt><trkpt lat="42.45502919883735" lon="14.13674230348299"><ele>173.0</ele><time>2026-05-03T11:22:43Z</time></trkpt><trkpt lat="42.45503082246361" lon="14.13661175195806"><ele>173.0</ele><time>2026-05-03T11:22:44Z</time></trkpt><trkpt lat="42.455041724428725" lon="14.136494181021275"><ele>173.0</ele><time>2026-05-03T11:22:45Z</time></trkpt><trkpt lat="42.45508574898222" lon="14.136410550401726"><ele>173.0</ele><time>2026-05-03T11:22:46Z</time></trkpt><trkpt lat="42.45515305492301" lon="14.136381965403618"><ele>173.0</ele><time>2026-05-03T11:22:47Z</time></trkpt><trkpt lat="42.455260932624874" lon="14.136379555292052"><ele>173.0</ele><time>2026-05-03T11:22:48Z</time></trkpt><trkpt lat="42.45538414362901" lon="14.136324104441707"><ele>174.4</ele><time>2026-05-03T11:22:49.001Z</time></trkpt><trkpt lat="42.455477295334184" lon="14.13629009303665"><ele>175.8</ele><time>2026-05-03T11:22:50.001Z</time></trkpt><trkpt lat="42.45555879878317" lon="14.136238160786059"><ele>177.2</ele><time>2026-05-03T11:22:52.001Z</time></trkpt><trkpt lat="42.455673864933146" lon="14.136154427087828"><ele>178.6</ele><time>2026-05-03T11:22:54.001Z</time></trkpt><trkpt lat="42.4557702247873" lon="14.136084932454299"><ele>180.0</ele><time>2026-05-03T11:22:55.001Z</time></trkpt><trkpt lat="42.45587199178141" lon="14.136005350877197"><ele>180.0</ele><time>2026-05-03T11:22:56.001Z</time></trkpt><trkpt lat="42.45598271927065" lon="14.135921031146985"><ele>180.0</ele><time>2026-05-03T11:22:57.001Z</time></trkpt><trkpt lat="42.456070775383964" lon="14.135786134016335"><ele>180.0</ele><time>2026-05-03T11:22:58.001Z</time></trkpt><trkpt lat="42.456139956718694" lon="14.135636256441579"><ele>180.0</ele><time>2026-05-03T11:22:59.001Z</time></trkpt><trkpt lat="42.45619716563826" lon="14.135464792576792"><ele>176.0</ele><time>2026-05-03T11:23:00.001Z</time></trkpt><trkpt lat="42.45625173629658" lon="14.135273126119996"><ele>172.0</ele><time>2026-05-03T11:23:01.001Z</time></trkpt><trkpt lat="42.45631220815769" lon="14.135064404410848"><ele>168.0</ele><time>2026-05-03T11:23:02.001Z</time></trkpt><trkpt lat="42.456389447525744" lon="14.134860018906897"><ele>168.0</ele><time>2026-05-03T11:23:03.001Z</time></trkpt><trkpt lat="42.45645918126431" lon="14.134635166782523"><ele>168.0</ele><time>2026-05-03T11:23:04.001Z</time></trkpt><trkpt lat="42.45651872856937" lon="14.134394905428321"><ele>168.0</ele><time>2026-05-03T11:23:05.001Z</time></trkpt><trkpt lat="42.45659964470196" lon="14.134147122155307"><ele>168.0</ele><time>2026-05-03T11:23:06.001Z</time></trkpt><trkpt lat="42.45666751346778" lon="14.133901651943368"><ele>168.0</ele><time>2026-05-03T11:23:07.001Z</time></trkpt><trkpt lat="42.45671735104501" lon="14.133658192289634"><ele>168.0</ele><time>2026-05-03T11:23:08.001Z</time></trkpt><trkpt lat="42.45677215823203" lon="14.133435093692045"><ele>167.33333333333334</ele><time>2026-05-03T11:23:09.001Z</time></trkpt><trkpt lat="42.456803472660766" lon="14.13321033555682"><ele>166.66666666666669</ele><time>2026-05-03T11:23:10.001Z</time></trkpt><trkpt lat="42.456829709191254" lon="14.132993737396596"><ele>166.0</ele><time>2026-05-03T11:23:11.001Z</time></trkpt><trkpt lat="42.45685225487072" lon="14.13278459487449"><ele>166.0</ele><time>2026-05-03T11:23:12Z</time></trkpt><trkpt lat="42.45688319603201" lon="14.13256507991665"><ele>166.0</ele><time>2026-05-03T11:23:13Z</time></trkpt><trkpt lat="42.456946149148095" lon="14.132356901044474"><ele>166.0</ele><time>2026-05-03T11:23:14Z</time></trkpt><trkpt lat="42.457042064697745" lon="14.13214629802445"><ele>164.0</ele><time>2026-05-03T11:23:15Z</time></trkpt><trkpt lat="42.45714108432276" lon="14.13190604385932"><ele>162.0</ele><time>2026-05-03T11:23:16Z</time></trkpt><trkpt lat="42.45721765759994" lon="14.131684212451587"><ele>160.0</ele><time>2026-05-03T11:23:17Z</time></trkpt><trkpt lat="42.45731079848633" lon="14.131472733516793"><ele>160.0</ele><time>2026-05-03T11:23:18Z</time></trkpt><trkpt lat="42.457407388838405" lon="14.131259928451941"><ele>160.0</ele><time>2026-05-03T11:23:19Z</time></trkpt><trkpt lat="42.45750225559036" lon="14.131036566654483"><ele>160.0</ele><time>2026-05-03T11:23:20Z</time></trkpt><trkpt lat="42.45761073777282" lon="14.130811501273172"><ele>160.33333333333334</ele><time>2026-05-03T11:23:21Z</time></trkpt><trkpt lat="42.45773871361135" lon="14.13062964611294"><ele>160.66666666666666</ele><time>2026-05-03T11:23:22Z</time></trkpt><trkpt lat="42.4578756808188" lon="14.130475519374826"><ele>161.0</ele><time>2026-05-03T11:23:23Z</time></trkpt><trkpt lat="42.45803555819068" lon="14.1303139045513"><ele>160.66666666666666</ele><time>2026-05-03T11:23:24Z</time></trkpt><trkpt lat="42.45818636491127" lon="14.130143206176102"><ele>160.33333333333334</ele><time>2026-05-03T11:23:25Z</time></trkpt><trkpt lat="42.45832868875311" lon="14.129969834088204"><ele>160.0</ele><time>2026-05-03T11:23:26Z</time></trkpt><trkpt lat="42.458452686066195" lon="14.129770178347213"><ele>160.0</ele><time>2026-05-03T11:23:27Z</time></trkpt><trkpt lat="42.45854625137953" lon="14.1295693421682"><ele>160.0</ele><time>2026-05-03T11:23:28Z</time></trkpt><trkpt lat="42.45861758878433" lon="14.129364040753705"><ele>160.0</ele><time>2026-05-03T11:23:29Z</time></trkpt><trkpt lat="42.45868328338504" lon="14.129174244929741"><ele>158.33333333333334</ele><time>2026-05-03T11:23:30Z</time></trkpt><trkpt lat="42.45870433512875" lon="14.128953254395995"><ele>156.66666666666666</ele><time>2026-05-03T11:23:31Z</time></trkpt><trkpt lat="42.458715371255344" lon="14.128751279663756"><ele>155.0</ele><time>2026-05-03T11:23:32Z</time></trkpt><trkpt lat="42.458724381714056" lon="14.128538673609567"><ele>155.0</ele><time>2026-05-03T11:23:33Z</time></trkpt><trkpt lat="42.45865696970867" lon="14.128329247300924"><ele>155.0</ele><time>2026-05-03T11:23:34Z</time></trkpt><trkpt lat="42.45858446250135" lon="14.128121476436936"><ele>155.0</ele><time>2026-05-03T11:23:35Z</time></trkpt><trkpt lat="42.45851070315736" lon="14.127879793198014"><ele>157.66666666666666</ele><time>2026-05-03T11:23:36Z</time></trkpt><trkpt lat="42.45842408174447" lon="14.127649669991374"><ele>160.33333333333334</ele><time>2026-05-03T11:23:37Z</time></trkpt><trkpt lat="42.45834083778427" lon="14.127447502269945"><ele>163.0</ele><time>2026-05-03T11:23:38Z</time></trkpt><trkpt lat="42.458229909475925" lon="14.127277505697974"><ele>160.66666666666669</ele><time>2026-05-03T11:23:39Z</time></trkpt><trkpt lat="42.458123209361354" lon="14.127141187501367"><ele>158.33333333333334</ele><time>2026-05-03T11:23:40Z</time></trkpt><trkpt lat="42.45799018450782" lon="14.12702985862511"><ele>156.0</ele><time>2026-05-03T11:23:41Z</time></trkpt><trkpt lat="42.45788517742875" lon="14.12686626422028"><ele>156.0</ele><time>2026-05-03T11:23:42Z</time></trkpt><trkpt lat="42.4577878358661" lon="14.12668253145701"><ele>156.0</ele><time>2026-05-03T11:23:43Z</time></trkpt><trkpt lat="42.457686556225006" lon="14.126482368868814"><ele>156.0</ele><time>2026-05-03T11:23:44Z</time></trkpt><trkpt lat="42.45758144487002" lon="14.126282503574762"><ele>159.66666666666666</ele><time>2026-05-03T11:23:45Z</time></trkpt><trkpt lat="42.45748354405016" lon="14.126086455258736"><ele>163.33333333333331</ele><time>2026-05-03T11:23:46Z</time></trkpt><trkpt lat="42.45740143569003" lon="14.125881536144638"><ele>167.0</ele><time>2026-05-03T11:23:47Z</time></trkpt><trkpt lat="42.45733381254566" lon="14.125682795581973"><ele>168.75</ele><time>2026-05-03T11:23:48Z</time></trkpt><trkpt lat="42.45728073588312" lon="14.125498050294576"><ele>170.5</ele><time>2026-05-03T11:23:49Z</time></trkpt><trkpt lat="42.457230647089716" lon="14.125312786673145"><ele>172.25</ele><time>2026-05-03T11:23:50Z</time></trkpt><trkpt lat="42.45721466662147" lon="14.12511658270136"><ele>174.0</ele><time>2026-05-03T11:23:51Z</time></trkpt><trkpt lat="42.45721093527656" lon="14.124916757126922"><ele>173.0</ele><time>2026-05-03T11:23:52Z</time></trkpt><trkpt lat="42.457225064400866" lon="14.124719208318721"><ele>172.0</ele><time>2026-05-03T11:23:53Z</time></trkpt><trkpt lat="42.457251592953924" lon="14.124505542924814"><ele>171.0</ele><time>2026-05-03T11:23:54Z</time></trkpt><trkpt lat="42.45728741527179" lon="14.124284016350195"><ele>171.0</ele><time>2026-05-03T11:23:55Z</time></trkpt><trkpt lat="42.45733755523552" lon="14.124067999471821"><ele>171.0</ele><time>2026-05-03T11:23:56Z</time></trkpt><trkpt lat="42.45741275458623" lon="14.123861303425059"><ele>171.0</ele><time>2026-05-03T11:23:57Z</time></trkpt><trkpt lat="42.45747558756103" lon="14.123646928606925"><ele>168.66666666666666</ele><time>2026-05-03T11:23:58Z</time></trkpt><trkpt lat="42.45753652391848" lon="14.123444810425006"><ele>166.33333333333331</ele><time>2026-05-03T11:23:59Z</time></trkpt><trkpt lat="42.457578763156235" lon="14.12324657842244"><ele>164.0</ele><time>2026-05-03T11:24:00Z</time></trkpt><trkpt lat="42.457650278469345" lon="14.123066528696"><ele>163.5</ele><time>2026-05-03T11:24:01Z</time></trkpt><trkpt lat="42.45770106400258" lon="14.122896038600043"><ele>163.0</ele><time>2026-05-03T11:24:02Z</time></trkpt><trkpt lat="42.4577568173251" lon="14.122711366277276"><ele>162.5</ele><time>2026-05-03T11:24:03Z</time></trkpt><trkpt lat="42.45781350525901" lon="14.122527763035187"><ele>162.0</ele><time>2026-05-03T11:24:04Z</time></trkpt><trkpt lat="42.45787591537361" lon="14.122351978303477"><ele>161.5</ele><time>2026-05-03T11:24:05Z</time></trkpt><trkpt lat="42.457946409183386" lon="14.122190697927563"><ele>161.0</ele><time>2026-05-03T11:24:06Z</time></trkpt><trkpt lat="42.45803771076033" lon="14.12203055583521"><ele>160.5</ele><time>2026-05-03T11:24:07Z</time></trkpt><trkpt lat="42.45814744924477" lon="14.121885591840128"><ele>160.0</ele><time>2026-05-03T11:24:08Z</time></trkpt><trkpt lat="42.458265243118014" lon="14.121748439643351"><ele>160.0</ele><time>2026-05-03T11:24:09Z</time></trkpt><trkpt lat="42.458387688962674" lon="14.121610910994688"><ele>160.0</ele><time>2026-05-03T11:24:10Z</time></trkpt><trkpt lat="42.45850548826583" lon="14.121466137227733"><ele>160.0</ele><time>2026-05-03T11:24:11Z</time></trkpt><trkpt lat="42.45863932373734" lon="14.121328719118015"><ele>160.0</ele><time>2026-05-03T11:24:12Z</time></trkpt><trkpt lat="42.45877392679193" lon="14.121189975871705"><ele>160.0</ele><time>2026-05-03T11:24:13Z</time></trkpt><trkpt lat="42.45891132789867" lon="14.121040650904613"><ele>160.0</ele><time>2026-05-03T11:24:14Z</time></trkpt><trkpt lat="42.45905099251033" lon="14.120893668308174"><ele>160.0</ele><time>2026-05-03T11:24:15Z</time></trkpt><trkpt lat="42.45918903267752" lon="14.120751716155972"><ele>160.0</ele><time>2026-05-03T11:24:16Z</time></trkpt><trkpt lat="42.45932912781488" lon="14.120603285632598"><ele>160.0</ele><time>2026-05-03T11:24:17Z</time></trkpt><trkpt lat="42.45946390892557" lon="14.120461814377027"><ele>160.0</ele><time>2026-05-03T11:24:18Z</time></trkpt><trkpt lat="42.459579415279336" lon="14.120346885223828"><ele>160.0</ele><time>2026-05-03T11:24:19Z</time></trkpt><trkpt lat="42.45968218191794" lon="14.12024303800067"><ele>160.0</ele><time>2026-05-03T11:24:20Z</time></trkpt><trkpt lat="42.45977465793587" lon="14.120163258262147"><ele>160.0</ele><time>2026-05-03T11:24:21Z</time></trkpt><trkpt lat="42.45985251408497" lon="14.12010310556237"><ele>160.0</ele><time>2026-05-03T11:24:22Z</time></trkpt><trkpt lat="42.45991611000195" lon="14.120070007041624"><ele>160.0</ele><time>2026-05-03T11:24:23Z</time></trkpt><trkpt lat="42.45999942591349" lon="14.120057205364084"><ele>160.0</ele><time>2026-05-03T11:24:24Z</time></trkpt><trkpt lat="42.46010264649359" lon="14.120034631182165"><ele>160.0</ele><time>2026-05-03T11:24:25Z</time></trkpt><trkpt lat="42.46020029175348" lon="14.12001671514324"><ele>160.0</ele><time>2026-05-03T11:24:26Z</time></trkpt><trkpt lat="42.460314786552665" lon="14.120023062253797"><ele>160.0</ele><time>2026-05-03T11:24:27Z</time></trkpt><trkpt lat="42.460442068371975" lon="14.120071950639238"><ele>160.0</ele><time>2026-05-03T11:24:28Z</time></trkpt><trkpt lat="42.46057756060082" lon="14.12014178345562"><ele>160.0</ele><time>2026-05-03T11:24:29.001Z</time></trkpt><trkpt lat="42.46072824215267" lon="14.120205030039541"><ele>160.0</ele><time>2026-05-03T11:24:30.001Z</time></trkpt><trkpt lat="42.46088614886086" lon="14.120255304188806"><ele>160.66666666666669</ele><time>2026-05-03T11:24:31.001Z</time></trkpt><trkpt lat="42.46105074430602" lon="14.120299966443064"><ele>161.33333333333334</ele><time>2026-05-03T11:24:32.001Z</time></trkpt><trkpt lat="42.46119633782432" lon="14.120343459952831"><ele>162.0</ele><time>2026-05-03T11:24:33.001Z</time></trkpt><trkpt lat="42.46133977025159" lon="14.120401244153793"><ele>164.33333333333334</ele><time>2026-05-03T11:24:34.001Z</time></trkpt><trkpt lat="42.46148162106426" lon="14.120494945033732"><ele>166.66666666666669</ele><time>2026-05-03T11:24:35.001Z</time></trkpt><trkpt lat="42.46162674830247" lon="14.120613461987157"><ele>169.0</ele><time>2026-05-03T11:24:36.001Z</time></trkpt><trkpt lat="42.46177374958129" lon="14.12074671119154"><ele>168.0</ele><time>2026-05-03T11:24:37.001Z</time></trkpt><trkpt lat="42.46192796461078" lon="14.120868968213065"><ele>167.0</ele><time>2026-05-03T11:24:38.001Z</time></trkpt><trkpt lat="42.46208985592347" lon="14.120983035654925"><ele>166.0</ele><time>2026-05-03T11:24:39.001Z</time></trkpt><trkpt lat="42.46224213982785" lon="14.121093309667145"><ele>166.0</ele><time>2026-05-03T11:24:40.001Z</time></trkpt><trkpt lat="42.46240494474444" lon="14.121215331661485"><ele>166.0</ele><time>2026-05-03T11:24:41.001Z</time></trkpt><trkpt lat="42.46256766056026" lon="14.121335319464775"><ele>166.0</ele><time>2026-05-03T11:24:42.001Z</time></trkpt><trkpt lat="42.46273021614974" lon="14.12145843371084"><ele>162.33333333333334</ele><time>2026-05-03T11:24:43.001Z</time></trkpt><trkpt lat="42.462884524561076" lon="14.121581942893263"><ele>158.66666666666666</ele><time>2026-05-03T11:24:44.001Z</time></trkpt><trkpt lat="42.46305204518171" lon="14.121699692173749"><ele>155.0</ele><time>2026-05-03T11:24:45.001Z</time></trkpt><trkpt lat="42.46318837363498" lon="14.121796496563361"><ele>155.0</ele><time>2026-05-03T11:24:46.001Z</time></trkpt><trkpt lat="42.46330832242361" lon="14.121892738009322"><ele>155.0</ele><time>2026-05-03T11:24:47.001Z</time></trkpt><trkpt lat="42.463443354784616" lon="14.121995233693037"><ele>155.0</ele><time>2026-05-03T11:24:48.001Z</time></trkpt><trkpt lat="42.463568912312866" lon="14.122083989140945"><ele>155.0</ele><time>2026-05-03T11:24:49.001Z</time></trkpt><trkpt lat="42.463685797250086" lon="14.12216487744515"><ele>154.0</ele><time>2026-05-03T11:24:50.001Z</time></trkpt><trkpt lat="42.46379909300472" lon="14.122268078106467"><ele>153.0</ele><time>2026-05-03T11:24:51.001Z</time></trkpt><trkpt lat="42.463899352387045" lon="14.12240589497275"><ele>152.0</ele><time>2026-05-03T11:24:52.001Z</time></trkpt><trkpt lat="42.463997608939046" lon="14.122571476644028"><ele>151.0</ele><time>2026-05-03T11:24:53.001Z</time></trkpt><trkpt lat="42.46408134713454" lon="14.122749413775392"><ele>150.5</ele><time>2026-05-03T11:24:54.001Z</time></trkpt><trkpt lat="42.46415414509559" lon="14.122926212677763"><ele>150.0</ele><time>2026-05-03T11:24:55.001Z</time></trkpt><trkpt lat="42.464221631260926" lon="14.123100943637043"><ele>149.5</ele><time>2026-05-03T11:24:56.001Z</time></trkpt><trkpt lat="42.464275634871804" lon="14.123292684164133"><ele>149.0</ele><time>2026-05-03T11:24:57.001Z</time></trkpt><trkpt lat="42.464329673167555" lon="14.123505514103929"><ele>149.0</ele><time>2026-05-03T11:24:58.001Z</time></trkpt><trkpt lat="42.46437436584137" lon="14.123709717915446"><ele>149.0</ele><time>2026-05-03T11:24:59.001Z</time></trkpt><trkpt lat="42.46443065233429" lon="14.123905321726768"><ele>149.0</ele><time>2026-05-03T11:25:00.001Z</time></trkpt><trkpt lat="42.46450578341961" lon="14.124087771922264"><ele>147.33333333333331</ele><time>2026-05-03T11:25:01.001Z</time></trkpt><trkpt lat="42.46460594559236" lon="14.12426571581034"><ele>145.66666666666666</ele><time>2026-05-03T11:25:02.001Z</time></trkpt><trkpt lat="42.4647367389651" lon="14.12443151264695"><ele>144.0</ele><time>2026-05-03T11:25:03.001Z</time></trkpt><trkpt lat="42.464876732591016" lon="14.124591253087354"><ele>143.0</ele><time>2026-05-03T11:25:04.001Z</time></trkpt><trkpt lat="42.46502539585134" lon="14.124777166919555"><ele>142.0</ele><time>2026-05-03T11:25:05.001Z</time></trkpt><trkpt lat="42.465150273657095" lon="14.124979456786921"><ele>141.0</ele><time>2026-05-03T11:25:06.001Z</time></trkpt><trkpt lat="42.46525214956626" lon="14.125187772277544"><ele>141.66666666666666</ele><time>2026-05-03T11:25:07.001Z</time></trkpt><trkpt lat="42.465360966760144" lon="14.12539456061719"><ele>142.33333333333331</ele><time>2026-05-03T11:25:08.001Z</time></trkpt><trkpt lat="42.46549397883622" lon="14.125600145928395"><ele>143.0</ele><time>2026-05-03T11:25:09.001Z</time></trkpt><trkpt lat="42.46563270640398" lon="14.125774540973659"><ele>143.0</ele><time>2026-05-03T11:25:10.001Z</time></trkpt><trkpt lat="42.46576996375678" lon="14.125923527755933"><ele>143.0</ele><time>2026-05-03T11:25:11.001Z</time></trkpt><trkpt lat="42.46591371655488" lon="14.126041824104185"><ele>143.0</ele><time>2026-05-03T11:25:12.001Z</time></trkpt><trkpt lat="42.466065069908595" lon="14.12611952876453"><ele>143.0</ele><time>2026-05-03T11:25:13.001Z</time></trkpt><trkpt lat="42.46621974254345" lon="14.126154593137999"><ele>143.0</ele><time>2026-05-03T11:25:14.001Z</time></trkpt><trkpt lat="42.466379817287844" lon="14.126161639395155"><ele>143.0</ele><time>2026-05-03T11:25:15.001Z</time></trkpt><trkpt lat="42.46653239873143" lon="14.12618273351089"><ele>142.0</ele><time>2026-05-03T11:25:16.001Z</time></trkpt><trkpt lat="42.46665443527105" lon="14.12622662310707"><ele>141.0</ele><time>2026-05-03T11:25:17.001Z</time></trkpt><trkpt lat="42.466754264072556" lon="14.126317724784782"><ele>140.0</ele><time>2026-05-03T11:25:18Z</time></trkpt><trkpt lat="42.46683970528853" lon="14.126458376069012"><ele>139.0</ele><time>2026-05-03T11:25:19Z</time></trkpt><trkpt lat="42.46692033246811" lon="14.126643298318248"><ele>139.0</ele><time>2026-05-03T11:25:20Z</time></trkpt><trkpt lat="42.46700810392443" lon="14.126841731386921"><ele>139.0</ele><time>2026-05-03T11:25:21Z</time></trkpt><trkpt lat="42.46710500601934" lon="14.127050475201514"><ele>139.0</ele><time>2026-05-03T11:25:22Z</time></trkpt><trkpt lat="42.467214052385884" lon="14.127275928192418"><ele>141.0</ele><time>2026-05-03T11:25:23Z</time></trkpt><trkpt lat="42.46731547793491" lon="14.127502617014477"><ele>143.0</ele><time>2026-05-03T11:25:24Z</time></trkpt><trkpt lat="42.46740581084585" lon="14.127733079558617"><ele>145.0</ele><time>2026-05-03T11:25:25Z</time></trkpt><trkpt lat="42.46749272565458" lon="14.127970834334622"><ele>145.0</ele><time>2026-05-03T11:25:26Z</time></trkpt><trkpt lat="42.467564466631046" lon="14.128197371772623"><ele>145.0</ele><time>2026-05-03T11:25:27Z</time></trkpt><trkpt lat="42.467631904404115" lon="14.128393840202081"><ele>145.0</ele><time>2026-05-03T11:25:28Z</time></trkpt><trkpt lat="42.467696371999935" lon="14.128556076262976"><ele>145.5</ele><time>2026-05-03T11:25:29Z</time></trkpt><trkpt lat="42.46777178658994" lon="14.128686666952072"><ele>146.0</ele><time>2026-05-03T11:25:30Z</time></trkpt><trkpt lat="42.46787165380551" lon="14.128780451215382"><ele>146.5</ele><time>2026-05-03T11:25:31Z</time></trkpt><trkpt lat="42.468000113737666" lon="14.128842677717056"><ele>147.0</ele><time>2026-05-03T11:25:32Z</time></trkpt><trkpt lat="42.468146007473685" lon="14.128885795749579"><ele>150.33333333333334</ele><time>2026-05-03T11:25:33Z</time></trkpt><trkpt lat="42.468297705130205" lon="14.128928356643625"><ele>153.66666666666669</ele><time>2026-05-03T11:25:34Z</time></trkpt><trkpt lat="42.468454739412955" lon="14.128971800124713"><ele>157.0</ele><time>2026-05-03T11:25:35Z</time></trkpt><trkpt lat="42.468617763076516" lon="14.129028882672287"><ele>154.66666666666669</ele><time>2026-05-03T11:25:36Z</time></trkpt><trkpt lat="42.46878169269806" lon="14.12909172939845"><ele>152.33333333333334</ele><time>2026-05-03T11:25:37Z</time></trkpt><trkpt lat="42.468945217553056" lon="14.129154571923586"><ele>150.0</ele><time>2026-05-03T11:25:38Z</time></trkpt><trkpt lat="42.46910164954953" lon="14.129207966735896"><ele>150.0</ele><time>2026-05-03T11:25:39Z</time></trkpt><trkpt lat="42.46923664300003" lon="14.129266556587767"><ele>150.0</ele><time>2026-05-03T11:25:40Z</time></trkpt><trkpt lat="42.46936823980067" lon="14.129353103823712"><ele>150.0</ele><time>2026-05-03T11:25:41Z</time></trkpt><trkpt lat="42.46949796559059" lon="14.129482374944892"><ele>150.0</ele><time>2026-05-03T11:25:42Z</time></trkpt><trkpt lat="42.46961575254635" lon="14.129618301657144"><ele>150.0</ele><time>2026-05-03T11:25:43Z</time></trkpt><trkpt lat="42.46974287248552" lon="14.129765405504987"><ele>150.0</ele><time>2026-05-03T11:25:44Z</time></trkpt><trkpt lat="42.469876607710745" lon="14.129920436289614"><ele>150.0</ele><time>2026-05-03T11:25:45Z</time></trkpt><trkpt lat="42.470013056296295" lon="14.130086011706567"><ele>150.0</ele><time>2026-05-03T11:25:46Z</time></trkpt><trkpt lat="42.47014803546749" lon="14.130263869307315"><ele>150.0</ele><time>2026-05-03T11:25:47Z</time></trkpt><trkpt lat="42.47029060354739" lon="14.13043966760698"><ele>150.0</ele><time>2026-05-03T11:25:48Z</time></trkpt><trkpt lat="42.47043519303658" lon="14.130610611079808"><ele>148.0</ele><time>2026-05-03T11:25:49Z</time></trkpt><trkpt lat="42.47058259915041" lon="14.130784574528768"><ele>146.0</ele><time>2026-05-03T11:25:50Z</time></trkpt><trkpt lat="42.47072337475962" lon="14.130959175191707"><ele>144.0</ele><time>2026-05-03T11:25:51Z</time></trkpt><trkpt lat="42.470867491340044" lon="14.13113987504699"><ele>144.0</ele><time>2026-05-03T11:25:52Z</time></trkpt><trkpt lat="42.47100851806749" lon="14.131309091932172"><ele>144.0</ele><time>2026-05-03T11:25:53Z</time></trkpt><trkpt lat="42.47114034308738" lon="14.131471240849963"><ele>144.0</ele><time>2026-05-03T11:25:54Z</time></trkpt><trkpt lat="42.47125927236075" lon="14.131621656064508"><ele>143.5</ele><time>2026-05-03T11:25:55Z</time></trkpt><trkpt lat="42.471360607628064" lon="14.131761416149189"><ele>143.0</ele><time>2026-05-03T11:25:56Z</time></trkpt><trkpt lat="42.47145185982092" lon="14.131906427058835"><ele>142.5</ele><time>2026-05-03T11:25:57Z</time></trkpt><trkpt lat="42.47150837825107" lon="14.132067089793129"><ele>142.0</ele><time>2026-05-03T11:25:58Z</time></trkpt><trkpt lat="42.471527733941485" lon="14.132257686716503"><ele>143.5</ele><time>2026-05-03T11:25:59Z</time></trkpt><trkpt lat="42.47153099188286" lon="14.132448384161322"><ele>145.0</ele><time>2026-05-03T11:26:00Z</time></trkpt><trkpt lat="42.471532913087756" lon="14.132658397455153"><ele>146.5</ele><time>2026-05-03T11:26:01Z</time></trkpt><trkpt lat="42.47155501554291" lon="14.132862773924177"><ele>148.0</ele><time>2026-05-03T11:26:02Z</time></trkpt><trkpt lat="42.47161242441423" lon="14.133068477485175"><ele>148.0</ele><time>2026-05-03T11:26:03Z</time></trkpt><trkpt lat="42.4717098050925" lon="14.133209361229166"><ele>148.0</ele><time>2026-05-03T11:26:04Z</time></trkpt><trkpt lat="42.471813541426776" lon="14.133328402766963"><ele>148.0</ele><time>2026-05-03T11:26:05Z</time></trkpt><trkpt lat="42.4719285576398" lon="14.133377602282302"><ele>148.0</ele><time>2026-05-03T11:26:06Z</time></trkpt><trkpt lat="42.47206082778722" lon="14.13340401902678"><ele>150.5</ele><time>2026-05-03T11:26:07Z</time></trkpt><trkpt lat="42.47221849253581" lon="14.133422546066608"><ele>153.0</ele><time>2026-05-03T11:26:08Z</time></trkpt><trkpt lat="42.472356178624096" lon="14.13340674402002"><ele>155.5</ele><time>2026-05-03T11:26:09Z</time></trkpt><trkpt lat="42.47247281053142" lon="14.133426220327005"><ele>158.0</ele><time>2026-05-03T11:26:10Z</time></trkpt><trkpt lat="42.47257381518348" lon="14.133503122002073"><ele>158.0</ele><time>2026-05-03T11:26:11Z</time></trkpt><trkpt lat="42.47267205859635" lon="14.133628129479028"><ele>158.0</ele><time>2026-05-03T11:26:12Z</time></trkpt><trkpt lat="42.47277919645445" lon="14.13377084879503"><ele>158.0</ele><time>2026-05-03T11:26:13Z</time></trkpt><trkpt lat="42.472895409468215" lon="14.13389960428667"><ele>158.0</ele><time>2026-05-03T11:26:14Z</time></trkpt><trkpt lat="42.47303532003011" lon="14.1340049076824"><ele>160.66666666666666</ele><time>2026-05-03T11:26:15Z</time></trkpt><trkpt lat="42.47318484260785" lon="14.134098238284485"><ele>163.33333333333334</ele><time>2026-05-03T11:26:16Z</time></trkpt><trkpt lat="42.47332240666554" lon="14.134214650940084"><ele>166.0</ele><time>2026-05-03T11:26:17Z</time></trkpt><trkpt lat="42.47343525865516" lon="14.13436020824553"><ele>166.0</ele><time>2026-05-03T11:26:18Z</time></trkpt><trkpt lat="42.47351815948407" lon="14.134513409215565"><ele>166.0</ele><time>2026-05-03T11:26:19Z</time></trkpt><trkpt lat="42.47357270570255" lon="14.134672312943602"><ele>166.0</ele><time>2026-05-03T11:26:20Z</time></trkpt><trkpt lat="42.47360069895095" lon="14.134844632861107"><ele>166.0</ele><time>2026-05-03T11:26:21Z</time></trkpt><trkpt lat="42.47361790853852" lon="14.135044418131205"><ele>164.0</ele><time>2026-05-03T11:26:22Z</time></trkpt><trkpt lat="42.47365167944331" lon="14.135233211807632"><ele>162.0</ele><time>2026-05-03T11:26:23Z</time></trkpt><trkpt lat="42.47370076387887" lon="14.13538409018883"><ele>160.0</ele><time>2026-05-03T11:26:24Z</time></trkpt><trkpt lat="42.47378216502" lon="14.135505815559538"><ele>158.0</ele><time>2026-05-03T11:26:25Z</time></trkpt><trkpt lat="42.47390231590883" lon="14.135584725546401"><ele>160.66666666666666</ele><time>2026-05-03T11:26:26Z</time></trkpt><trkpt lat="42.47404672790068" lon="14.135642224920963"><ele>163.33333333333334</ele><time>2026-05-03T11:26:27Z</time></trkpt><trkpt lat="42.47419612696563" lon="14.135694055025585"><ele>166.0</ele><time>2026-05-03T11:26:28.001Z</time></trkpt><trkpt lat="42.474346504996966" lon="14.135775540737262"><ele>166.0</ele><time>2026-05-03T11:26:29.001Z</time></trkpt><trkpt lat="42.47447157999932" lon="14.135892073841365"><ele>166.0</ele><time>2026-05-03T11:26:30.001Z</time></trkpt><trkpt lat="42.47458445628989" lon="14.136023375169602"><ele>166.0</ele><time>2026-05-03T11:26:31.001Z</time></trkpt><trkpt lat="42.47471654550947" lon="14.136127732919165"><ele>170.25</ele><time>2026-05-03T11:26:32.001Z</time></trkpt><trkpt lat="42.474861899167145" lon="14.136185660226113"><ele>174.5</ele><time>2026-05-03T11:26:33.001Z</time></trkpt><trkpt lat="42.475009238570095" lon="14.136218604678433"><ele>178.75</ele><time>2026-05-03T11:26:34.001Z</time></trkpt><trkpt lat="42.475126116148616" lon="14.136268218850287"><ele>183.0</ele><time>2026-05-03T11:26:35.001Z</time></trkpt><trkpt lat="42.47522206463747" lon="14.136364368309657"><ele>183.0</ele><time>2026-05-03T11:26:36.001Z</time></trkpt><trkpt lat="42.47529761273381" lon="14.136514452077524"><ele>183.0</ele><time>2026-05-03T11:26:37.001Z</time></trkpt><trkpt lat="42.4753879382448" lon="14.136677066590872"><ele>183.0</ele><time>2026-05-03T11:26:38.001Z</time></trkpt><trkpt lat="42.47551097108679" lon="14.13682510976189"><ele>183.0</ele><time>2026-05-03T11:26:39.001Z</time></trkpt><trkpt lat="42.47567722300995" lon="14.136929553602956"><ele>183.0</ele><time>2026-05-03T11:26:40.001Z</time></trkpt><trkpt lat="42.47584478441312" lon="14.137018660476894"><ele>183.0</ele><time>2026-05-03T11:26:41.001Z</time></trkpt><trkpt lat="42.47602968922269" lon="14.137119479046461"><ele>183.0</ele><time>2026-05-03T11:26:42.001Z</time></trkpt><trkpt lat="42.47621624343641" lon="14.137230622437865"><ele>181.66666666666666</ele><time>2026-05-03T11:26:43.001Z</time></trkpt><trkpt lat="42.4763984352079" lon="14.137342158215786"><ele>180.33333333333331</ele><time>2026-05-03T11:26:44.001Z</time></trkpt><trkpt lat="42.476559842356316" lon="14.13742292019162"><ele>179.0</ele><time>2026-05-03T11:26:45.001Z</time></trkpt><trkpt lat="42.476721350078904" lon="14.137470981469257"><ele>179.0</ele><time>2026-05-03T11:26:46.001Z</time></trkpt><trkpt lat="42.476866292911936" lon="14.137486137267231"><ele>179.0</ele><time>2026-05-03T11:26:47.001Z</time></trkpt><trkpt lat="42.476999012142066" lon="14.137487087947973"><ele>179.0</ele><time>2026-05-03T11:26:48.001Z</time></trkpt><trkpt lat="42.47714281924163" lon="14.137486337110499"><ele>179.0</ele><time>2026-05-03T11:26:49.001Z</time></trkpt><trkpt lat="42.47729897028484" lon="14.137478660494363"><ele>180.0</ele><time>2026-05-03T11:26:50.001Z</time></trkpt><trkpt lat="42.477464521096486" lon="14.137452276244657"><ele>181.0</ele><time>2026-05-03T11:26:51.001Z</time></trkpt><trkpt lat="42.47762471004877" lon="14.137395285932541"><ele>182.0</ele><time>2026-05-03T11:26:52.001Z</time></trkpt><trkpt lat="42.477791283053904" lon="14.13731261490678"><ele>180.0</ele><time>2026-05-03T11:26:53.001Z</time></trkpt><trkpt lat="42.47793376458977" lon="14.137249686813131"><ele>178.0</ele><time>2026-05-03T11:26:54.001Z</time></trkpt><trkpt lat="42.47807316011452" lon="14.137198120098988"><ele>176.0</ele><time>2026-05-03T11:26:55.001Z</time></trkpt><trkpt lat="42.4782079653964" lon="14.137171489814596"><ele>174.0</ele><time>2026-05-03T11:26:56.001Z</time></trkpt><trkpt lat="42.47834345379959" lon="14.137226976463323"><ele>172.0</ele><time>2026-05-03T11:26:57.001Z</time></trkpt><trkpt lat="42.478497383168005" lon="14.137268165141387"><ele>170.0</ele><time>2026-05-03T11:26:58.001Z</time></trkpt><trkpt lat="42.478643247605504" lon="14.1373410569238"><ele>168.0</ele><time>2026-05-03T11:26:59.001Z</time></trkpt><trkpt lat="42.478790158456434" lon="14.13734564087695"><ele>167.66666666666666</ele><time>2026-05-03T11:27:00.001Z</time></trkpt><trkpt lat="42.47893020311444" lon="14.137272489869671"><ele>167.33333333333331</ele><time>2026-05-03T11:27:01.001Z</time></trkpt><trkpt lat="42.479066252847545" lon="14.1371702598008"><ele>167.0</ele><time>2026-05-03T11:27:02.001Z</time></trkpt><trkpt lat="42.479189051960454" lon="14.13706799484841"><ele>167.0</ele><time>2026-05-03T11:27:03.001Z</time></trkpt><trkpt lat="42.47929469892012" lon="14.136955569931922"><ele>167.0</ele><time>2026-05-03T11:27:04.001Z</time></trkpt><trkpt lat="42.479372495743746" lon="14.136810612441613"><ele>167.0</ele><time>2026-05-03T11:27:05.001Z</time></trkpt><trkpt lat="42.479437428012254" lon="14.136660474811"><ele>167.0</ele><time>2026-05-03T11:27:06.001Z</time></trkpt><trkpt lat="42.47952272692858" lon="14.136502723841042"><ele>166.5</ele><time>2026-05-03T11:27:07.001Z</time></trkpt><trkpt lat="42.47960980877499" lon="14.136389597242676"><ele>166.0</ele><time>2026-05-03T11:27:08.001Z</time></trkpt><trkpt lat="42.47971435574498" lon="14.136267421014372"><ele>165.5</ele><time>2026-05-03T11:27:09.001Z</time></trkpt><trkpt lat="42.47980697558038" lon="14.136113313911316"><ele>165.0</ele><time>2026-05-03T11:27:10.001Z</time></trkpt><trkpt lat="42.479892313336244" lon="14.135975906019105"><ele>165.0</ele><time>2026-05-03T11:27:11.001Z</time></trkpt><trkpt lat="42.47994587354023" lon="14.135804949622056"><ele>165.0</ele><time>2026-05-03T11:27:12.001Z</time></trkpt><trkpt lat="42.479983896934804" lon="14.135610713170584"><ele>165.0</ele><time>2026-05-03T11:27:13.001Z</time></trkpt><trkpt lat="42.48003935335942" lon="14.135438863746714"><ele>165.0</ele><time>2026-05-03T11:27:14.001Z</time></trkpt><trkpt lat="42.48009282542453" lon="14.135283099136357"><ele>163.4</ele><time>2026-05-03T11:27:15.001Z</time></trkpt><trkpt lat="42.480161236415235" lon="14.1351628131293"><ele>161.8</ele><time>2026-05-03T11:27:16.001Z</time></trkpt><trkpt lat="42.48025020714178" lon="14.135042551999735"><ele>160.2</ele><time>2026-05-03T11:27:17.001Z</time></trkpt><trkpt lat="42.480354158729405" lon="14.134965233986485"><ele>158.6</ele><time>2026-05-03T11:27:18.001Z</time></trkpt><trkpt lat="42.480430061803155" lon="14.134902121740563"><ele>157.0</ele><time>2026-05-03T11:27:19.001Z</time></trkpt><trkpt lat="42.48049242572747" lon="14.134854044663694"><ele>157.16666666666669</ele><time>2026-05-03T11:27:20.001Z</time></trkpt><trkpt lat="42.48054896078762" lon="14.134802871125881"><ele>157.33333333333334</ele><time>2026-05-03T11:27:21.001Z</time></trkpt><trkpt lat="42.480622399648986" lon="14.134775416759592"><ele>157.5</ele><time>2026-05-03T11:27:22.001Z</time></trkpt><trkpt lat="42.480702926898914" lon="14.134765707982025"><ele>157.66666666666666</ele><time>2026-05-03T11:27:23.001Z</time></trkpt><trkpt lat="42.48079098974844" lon="14.13479507964328"><ele>157.83333333333331</ele><time>2026-05-03T11:27:24Z</time></trkpt><trkpt lat="42.4808741711776" lon="14.134858692369246"><ele>158.0</ele><time>2026-05-03T11:27:25Z</time></trkpt><trkpt lat="42.48093996124209" lon="14.134934575734759"><ele>158.0</ele><time>2026-05-03T11:27:26Z</time></trkpt><trkpt lat="42.48100645357636" lon="14.135020035832667"><ele>158.0</ele><time>2026-05-03T11:27:27Z</time></trkpt><trkpt lat="42.4810746836784" lon="14.135120372878154"><ele>158.0</ele><time>2026-05-03T11:27:28Z</time></trkpt><trkpt lat="42.481125237091526" lon="14.13527886250195"><ele>158.0</ele><time>2026-05-03T11:27:29Z</time></trkpt><trkpt lat="42.48119176059652" lon="14.135478520022456"><ele>154.33333333333331</ele><time>2026-05-03T11:27:30Z</time></trkpt><trkpt lat="42.48127371929974" lon="14.13572847740382"><ele>150.66666666666666</ele><time>2026-05-03T11:27:31Z</time></trkpt><trkpt lat="42.48136657074615" lon="14.135966714959713"><ele>147.0</ele><time>2026-05-03T11:27:32Z</time></trkpt><trkpt lat="42.4814298474645" lon="14.136174997357841"><ele>147.0</ele><time>2026-05-03T11:27:33Z</time></trkpt><trkpt lat="42.481489090776456" lon="14.136348740408545"><ele>147.0</ele><time>2026-05-03T11:27:34Z</time></trkpt><trkpt lat="42.48155526611774" lon="14.136490311971045"><ele>147.0</ele><time>2026-05-03T11:27:35Z</time></trkpt><trkpt lat="42.48164616987532" lon="14.136575115916123"><ele>147.0</ele><time>2026-05-03T11:27:36Z</time></trkpt><trkpt lat="42.481757895853406" lon="14.136601519738802"><ele>147.0</ele><time>2026-05-03T11:27:37Z</time></trkpt><trkpt lat="42.481880774964125" lon="14.136580317289924"><ele>147.0</ele><time>2026-05-03T11:27:38Z</time></trkpt><trkpt lat="42.48200173164779" lon="14.136508377504782"><ele>147.0</ele><time>2026-05-03T11:27:39Z</time></trkpt><trkpt lat="42.48208093739393" lon="14.136402691731362"><ele>147.0</ele><time>2026-05-03T11:27:40Z</time></trkpt><trkpt lat="42.48213162868892" lon="14.136262847307554"><ele>145.75</ele><time>2026-05-03T11:27:41Z</time></trkpt><trkpt lat="42.48216564717417" lon="14.136085163042535"><ele>144.5</ele><time>2026-05-03T11:27:42Z</time></trkpt><trkpt lat="42.482200737137255" lon="14.135902950995593"><ele>143.25</ele><time>2026-05-03T11:27:43Z</time></trkpt><trkpt lat="42.48223497126165" lon="14.135715687636559"><ele>142.0</ele><time>2026-05-03T11:27:44Z</time></trkpt><trkpt lat="42.48226965615111" lon="14.135524244399237"><ele>141.0</ele><time>2026-05-03T11:27:45Z</time></trkpt><trkpt lat="42.48231008588324" lon="14.135320426921128"><ele>140.0</ele><time>2026-05-03T11:27:46Z</time></trkpt><trkpt lat="42.482353310247625" lon="14.135097286686618"><ele>139.0</ele><time>2026-05-03T11:27:47Z</time></trkpt><trkpt lat="42.482418816385355" lon="14.134873657857316"><ele>138.33333333333334</ele><time>2026-05-03T11:27:48Z</time></trkpt><trkpt lat="42.482467671026306" lon="14.134648678607247"><ele>137.66666666666666</ele><time>2026-05-03T11:27:49Z</time></trkpt><trkpt lat="42.482516166269995" lon="14.13442325065761"><ele>137.0</ele><time>2026-05-03T11:27:50Z</time></trkpt><trkpt lat="42.482562755120085" lon="14.13420681151979"><ele>136.0</ele><time>2026-05-03T11:27:51Z</time></trkpt><trkpt lat="42.48260404570959" lon="14.134009953957136"><ele>135.0</ele><time>2026-05-03T11:27:52Z</time></trkpt><trkpt lat="42.48262968780837" lon="14.133811734904873"><ele>134.0</ele><time>2026-05-03T11:27:53Z</time></trkpt><trkpt lat="42.48269251648366" lon="14.133634559139034"><ele>133.0</ele><time>2026-05-03T11:27:54Z</time></trkpt><trkpt lat="42.48275194173908" lon="14.133466533127093"><ele>133.0</ele><time>2026-05-03T11:27:55Z</time></trkpt><trkpt lat="42.48283602509206" lon="14.133326934043694"><ele>133.0</ele><time>2026-05-03T11:27:56Z</time></trkpt><trkpt lat="42.482944149045224" lon="14.133242399971591"><ele>133.0</ele><time>2026-05-03T11:27:57Z</time></trkpt><trkpt lat="42.48307983508197" lon="14.133180008981638"><ele>133.0</ele><time>2026-05-03T11:27:58Z</time></trkpt><trkpt lat="42.48322421750239" lon="14.133089108058629"><ele>131.66666666666669</ele><time>2026-05-03T11:27:59Z</time></trkpt><trkpt lat="42.483380047857054" lon="14.133025127601146"><ele>130.33333333333334</ele><time>2026-05-03T11:28:00Z</time></trkpt><trkpt lat="42.48353599071652" lon="14.132951205567734"><ele>129.0</ele><time>2026-05-03T11:28:01Z</time></trkpt><trkpt lat="42.48367449050641" lon="14.132880838666985"><ele>128.0</ele><time>2026-05-03T11:28:02Z</time></trkpt><trkpt lat="42.48381817110138" lon="14.132807692377474"><ele>127.0</ele><time>2026-05-03T11:28:03Z</time></trkpt><trkpt lat="42.48395518875744" lon="14.132742294674731"><ele>126.0</ele><time>2026-05-03T11:28:04Z</time></trkpt><trkpt lat="42.48409074435056" lon="14.132681109926757"><ele>125.0</ele><time>2026-05-03T11:28:05Z</time></trkpt><trkpt lat="42.48421753232007" lon="14.13262248627959"><ele>125.0</ele><time>2026-05-03T11:28:06Z</time></trkpt><trkpt lat="42.48435065505851" lon="14.132563866232768"><ele>125.0</ele><time>2026-05-03T11:28:07Z</time></trkpt><trkpt lat="42.48448432547229" lon="14.1325021530553"><ele>125.0</ele><time>2026-05-03T11:28:08Z</time></trkpt><trkpt lat="42.48461348268051" lon="14.132439233080786"><ele>125.0</ele><time>2026-05-03T11:28:09Z</time></trkpt><trkpt lat="42.48473212958719" lon="14.132380361643634"><ele>123.5</ele><time>2026-05-03T11:28:10Z</time></trkpt><trkpt lat="42.484848558839175" lon="14.132333497682492"><ele>122.0</ele><time>2026-05-03T11:28:11Z</time></trkpt><trkpt lat="42.484974387123444" lon="14.132303164267672"><ele>120.5</ele><time>2026-05-03T11:28:12Z</time></trkpt><trkpt lat="42.485115314832015" lon="14.132309784965926"><ele>119.0</ele><time>2026-05-03T11:28:13Z</time></trkpt><trkpt lat="42.485256194701954" lon="14.132366910824823"><ele>119.25</ele><time>2026-05-03T11:28:14Z</time></trkpt><trkpt lat="42.48538637663142" lon="14.132470948604288"><ele>119.5</ele><time>2026-05-03T11:28:15Z</time></trkpt><trkpt lat="42.48549072735897" lon="14.132598285212978"><ele>119.75</ele><time>2026-05-03T11:28:16Z</time></trkpt><trkpt lat="42.48557694199631" lon="14.132720971976847"><ele>120.0</ele><time>2026-05-03T11:28:17Z</time></trkpt><trkpt lat="42.48566081915107" lon="14.13283378561914"><ele>119.5</ele><time>2026-05-03T11:28:18Z</time></trkpt><trkpt lat="42.485753659346834" lon="14.132950122967937"><ele>119.0</ele><time>2026-05-03T11:28:19Z</time></trkpt><trkpt lat="42.48585041030498" lon="14.133073056973672"><ele>118.5</ele><time>2026-05-03T11:28:20Z</time></trkpt><trkpt lat="42.48594517282607" lon="14.13318176381964"><ele>118.0</ele><time>2026-05-03T11:28:21.001Z</time></trkpt><trkpt lat="42.48603040838425" lon="14.133273976358009"><ele>117.80000000000001</ele><time>2026-05-03T11:28:22.001Z</time></trkpt><trkpt lat="42.48610941068821" lon="14.133367263677568"><ele>117.60000000000001</ele><time>2026-05-03T11:28:23.001Z</time></trkpt><trkpt lat="42.48619019812511" lon="14.133469878427421"><ele>117.39999999999999</ele><time>2026-05-03T11:28:24.001Z</time></trkpt><trkpt lat="42.48626214595026" lon="14.133558789834444"><ele>117.19999999999999</ele><time>2026-05-03T11:28:25.001Z</time></trkpt><trkpt lat="42.48632910186969" lon="14.133639316001444"><ele>117.0</ele><time>2026-05-03T11:28:26.001Z</time></trkpt><trkpt lat="42.48638757859934" lon="14.133708623971659"><ele>117.0</ele><time>2026-05-03T11:28:27.001Z</time></trkpt><trkpt lat="42.48643791366478" lon="14.133769039343267"><ele>116.99999999999999</ele><time>2026-05-03T11:28:28.001Z</time></trkpt><trkpt lat="42.486525248674184" lon="14.133879410571883"><ele>116.99999999999999</ele><time>2026-05-03T11:28:30.001Z</time></trkpt><trkpt lat="42.48660044991696" lon="14.134005270843767"><ele>117.0</ele><time>2026-05-03T11:28:32.001Z</time></trkpt><trkpt lat="42.48665368089433" lon="14.134183192457314"><ele>117.0</ele><time>2026-05-03T11:28:34.001Z</time></trkpt><trkpt lat="42.48668005327919" lon="14.13432869675786"><ele>117.0</ele><time>2026-05-03T11:28:35.001Z</time></trkpt><trkpt lat="42.486715162033974" lon="14.13449841014609"><ele>117.0</ele><time>2026-05-03T11:28:36.001Z</time></trkpt><trkpt lat="42.486758226556695" lon="14.13469282083929"><ele>117.0</ele><time>2026-05-03T11:28:37.001Z</time></trkpt><trkpt lat="42.486799360148254" lon="14.134882404807513"><ele>117.0</ele><time>2026-05-03T11:28:38.001Z</time></trkpt><trkpt lat="42.486834711537355" lon="14.13510478340482"><ele>117.0</ele><time>2026-05-03T11:28:39.001Z</time></trkpt><trkpt lat="42.48686115951844" lon="14.135319404942486"><ele>117.0</ele><time>2026-05-03T11:28:40.001Z</time></trkpt><trkpt lat="42.48689294217243" lon="14.135541636715141"><ele>117.0</ele><time>2026-05-03T11:28:41.001Z</time></trkpt><trkpt lat="42.48693456664767" lon="14.135755918401443"><ele>116.66666666666666</ele><time>2026-05-03T11:28:42.001Z</time></trkpt><trkpt lat="42.48699144695761" lon="14.13597773812455"><ele>116.33333333333333</ele><time>2026-05-03T11:28:43.001Z</time></trkpt><trkpt lat="42.487061833720276" lon="14.13618044551063"><ele>116.0</ele><time>2026-05-03T11:28:44.001Z</time></trkpt><trkpt lat="42.48714196558779" lon="14.13637428414986"><ele>118.66666666666666</ele><time>2026-05-03T11:28:45.001Z</time></trkpt><trkpt lat="42.4872334633285" lon="14.136579462157611"><ele>121.33333333333334</ele><time>2026-05-03T11:28:46.001Z</time></trkpt><trkpt lat="42.48731724212657" lon="14.136792217120163"><ele>124.0</ele><time>2026-05-03T11:28:47.001Z</time></trkpt><trkpt lat="42.48739025128381" lon="14.137004924526389"><ele>124.0</ele><time>2026-05-03T11:28:48.001Z</time></trkpt><trkpt lat="42.487449762096055" lon="14.137202168643796"><ele>124.0</ele><time>2026-05-03T11:28:49.001Z</time></trkpt><trkpt lat="42.48750971110715" lon="14.137393408073097"><ele>124.0</ele><time>2026-05-03T11:28:50.001Z</time></trkpt><trkpt lat="42.487565041266386" lon="14.13757362658568"><ele>124.0</ele><time>2026-05-03T11:28:51.001Z</time></trkpt><trkpt lat="42.487611214174095" lon="14.137754475527665"><ele>124.0</ele><time>2026-05-03T11:28:52.001Z</time></trkpt><trkpt lat="42.48764494584878" lon="14.1379416046376"><ele>124.0</ele><time>2026-05-03T11:28:53.001Z</time></trkpt><trkpt lat="42.487639688219204" lon="14.138131238802911"><ele>124.0</ele><time>2026-05-03T11:28:54.001Z</time></trkpt><trkpt lat="42.48761009967743" lon="14.138312073810734"><ele>124.25</ele><time>2026-05-03T11:28:55.001Z</time></trkpt><trkpt lat="42.48759776041096" lon="14.138492415990395"><ele>124.5</ele><time>2026-05-03T11:28:56.001Z</time></trkpt><trkpt lat="42.48761939938819" lon="14.138668520203108"><ele>124.75</ele><time>2026-05-03T11:28:57.001Z</time></trkpt><trkpt lat="42.48767569443676" lon="14.138843806456602"><ele>125.0</ele><time>2026-05-03T11:28:58.001Z</time></trkpt><trkpt lat="42.48775238130681" lon="14.139008547077555"><ele>125.25</ele><time>2026-05-03T11:28:59.001Z</time></trkpt><trkpt lat="42.48785176950461" lon="14.13915776886092"><ele>125.5</ele><time>2026-05-03T11:29:00.001Z</time></trkpt><trkpt lat="42.48796724143974" lon="14.139270987589471"><ele>125.75</ele><time>2026-05-03T11:29:01.001Z</time></trkpt><trkpt lat="42.48809898565162" lon="14.13934984545872"><ele>126.0</ele><time>2026-05-03T11:29:02.001Z</time></trkpt><trkpt lat="42.488242705226796" lon="14.139391826248708"><ele>128.0</ele><time>2026-05-03T11:29:03.001Z</time></trkpt><trkpt lat="42.4883911899414" lon="14.139402435215342"><ele>130.0</ele><time>2026-05-03T11:29:04.001Z</time></trkpt><trkpt lat="42.488541453220066" lon="14.13939009817959"><ele>132.0</ele><time>2026-05-03T11:29:05.001Z</time></trkpt><trkpt lat="42.48866558132835" lon="14.139390301379729"><ele>134.0</ele><time>2026-05-03T11:29:06.001Z</time></trkpt><trkpt lat="42.48877725239347" lon="14.139396367379225"><ele>134.6</ele><time>2026-05-03T11:29:07.001Z</time></trkpt><trkpt lat="42.48887900269512" lon="14.139411783077007"><ele>135.2</ele><time>2026-05-03T11:29:08.001Z</time></trkpt><trkpt lat="42.48897720614087" lon="14.139435595425658"><ele>135.79999999999998</ele><time>2026-05-03T11:29:09.001Z</time></trkpt><trkpt lat="42.489061421449655" lon="14.139487898741413"><ele>136.4</ele><time>2026-05-03T11:29:10.001Z</time></trkpt><trkpt lat="42.48913522716536" lon="14.139563766394753"><ele>137.0</ele><time>2026-05-03T11:29:11.001Z</time></trkpt><trkpt lat="42.48920214272158" lon="14.1396270904396"><ele>137.0</ele><time>2026-05-03T11:29:12.001Z</time></trkpt><trkpt lat="42.48927630722548" lon="14.139656821738628"><ele>137.0</ele><time>2026-05-03T11:29:13.001Z</time></trkpt><trkpt lat="42.4893478519472" lon="14.139657230495612"><ele>137.0</ele><time>2026-05-03T11:29:14.001Z</time></trkpt><trkpt lat="42.48943461652084" lon="14.139561351630858"><ele>137.0</ele><time>2026-05-03T11:29:15.001Z</time></trkpt><trkpt lat="42.48947284273788" lon="14.139436460573174"><ele>137.0</ele><time>2026-05-03T11:29:16.001Z</time></trkpt><trkpt lat="42.48961759602329" lon="14.139447164070681"><ele>138.0</ele><time>2026-05-03T11:29:17.001Z</time></trkpt><trkpt lat="42.48974688150299" lon="14.139449554941272"><ele>139.0</ele><time>2026-05-03T11:29:18.001Z</time></trkpt><trkpt lat="42.48989381253016" lon="14.139466785706336"><ele>140.0</ele><time>2026-05-03T11:29:19.001Z</time></trkpt><trkpt lat="42.49005302045358" lon="14.139488484249366"><ele>141.0</ele><time>2026-05-03T11:29:20.001Z</time></trkpt><trkpt lat="42.490227374447464" lon="14.139493367861693"><ele>141.0</ele><time>2026-05-03T11:29:21.001Z</time></trkpt><trkpt lat="42.490411777762525" lon="14.13950068134103"><ele>141.0</ele><time>2026-05-03T11:29:22.001Z</time></trkpt><trkpt lat="42.490573086765544" lon="14.139518887612875"><ele>141.0</ele><time>2026-05-03T11:29:23.001Z</time></trkpt><trkpt lat="42.490698777087076" lon="14.13952892596438"><ele>143.0</ele><time>2026-05-03T11:29:24.001Z</time></trkpt><trkpt lat="42.49080083944657" lon="14.139566612082964"><ele>145.0</ele><time>2026-05-03T11:29:25.001Z</time></trkpt><trkpt lat="42.49086056983293" lon="14.139622384624944"><ele>147.0</ele><time>2026-05-03T11:29:26.001Z</time></trkpt><trkpt lat="42.490882689970704" lon="14.139723568803197"><ele>149.0</ele><time>2026-05-03T11:29:27.001Z</time></trkpt><trkpt lat="42.49088587574926" lon="14.139850895595401"><ele>151.0</ele><time>2026-05-03T11:29:28.001Z</time></trkpt><trkpt lat="42.49087247244364" lon="14.140003150600357"><ele>152.0</ele><time>2026-05-03T11:29:29.001Z</time></trkpt><trkpt lat="42.49086253866107" lon="14.140186294351771"><ele>153.0</ele><time>2026-05-03T11:29:30Z</time></trkpt><trkpt lat="42.49085759880271" lon="14.140397375728178"><ele>154.0</ele><time>2026-05-03T11:29:31Z</time></trkpt><trkpt lat="42.49084946782563" lon="14.140598256877544"><ele>155.0</ele><time>2026-05-03T11:29:32Z</time></trkpt><trkpt lat="42.49085305787545" lon="14.140758617789675"><ele>155.0</ele><time>2026-05-03T11:29:33Z</time></trkpt><trkpt lat="42.490878701844146" lon="14.140875052927187"><ele>155.0</ele><time>2026-05-03T11:29:34Z</time></trkpt><trkpt lat="42.49092530337454" lon="14.140934006112257"><ele>155.0</ele><time>2026-05-03T11:29:35Z</time></trkpt><trkpt lat="42.4909905323934" lon="14.140950885331113"><ele>155.0</ele><time>2026-05-03T11:29:36Z</time></trkpt><trkpt lat="42.49106424537088" lon="14.140912485116393"><ele>155.0</ele><time>2026-05-03T11:29:37Z</time></trkpt><trkpt lat="42.49114372826421" lon="14.140824722973903"><ele>155.0</ele><time>2026-05-03T11:29:38Z</time></trkpt><trkpt lat="42.49120788158772" lon="14.140695143001816"><ele>155.0</ele><time>2026-05-03T11:29:39Z</time></trkpt><trkpt lat="42.4912568959281" lon="14.140581420332856"><ele>155.0</ele><time>2026-05-03T11:29:40Z</time></trkpt><trkpt lat="42.491300981672104" lon="14.140512209041736"><ele>155.0</ele><time>2026-05-03T11:29:41Z</time></trkpt><trkpt lat="42.491344243632724" lon="14.140449274302826"><ele>155.0</ele><time>2026-05-03T11:29:42Z</time></trkpt><trkpt lat="42.49139878898823" lon="14.140389054053989"><ele>155.0</ele><time>2026-05-03T11:29:43Z</time></trkpt><trkpt lat="42.49143397947592" lon="14.14031484368384"><ele>155.0</ele><time>2026-05-03T11:29:44Z</time></trkpt><trkpt lat="42.49150826436648" lon="14.14033523246193"><ele>155.0</ele><time>2026-05-03T11:29:45Z</time></trkpt><trkpt lat="42.49156422806314" lon="14.14040504703653"><ele>156.2</ele><time>2026-05-03T11:29:46Z</time></trkpt><trkpt lat="42.491611898313835" lon="14.14051647313082"><ele>157.4</ele><time>2026-05-03T11:29:47Z</time></trkpt><trkpt lat="42.49164485675822" lon="14.14065175574571"><ele>158.60000000000002</ele><time>2026-05-03T11:29:48Z</time></trkpt><trkpt lat="42.491669619171304" lon="14.140796587910346"><ele>159.8</ele><time>2026-05-03T11:29:49Z</time></trkpt><trkpt lat="42.49170014125935" lon="14.140949637619766"><ele>161.0</ele><time>2026-05-03T11:29:50Z</time></trkpt><trkpt lat="42.49173404069444" lon="14.14109140409565"><ele>161.0</ele><time>2026-05-03T11:29:51Z</time></trkpt><trkpt lat="42.49176528535366" lon="14.14122821578732"><ele>161.0</ele><time>2026-05-03T11:29:52Z</time></trkpt><trkpt lat="42.491779800879755" lon="14.141363431978018"><ele>161.0</ele><time>2026-05-03T11:29:53Z</time></trkpt><trkpt lat="42.49177590165009" lon="14.141526592839098"><ele>161.0</ele><time>2026-05-03T11:29:54Z</time></trkpt><trkpt lat="42.49175172338794" lon="14.14169557431343"><ele>161.0</ele><time>2026-05-03T11:29:55Z</time></trkpt><trkpt lat="42.491701873647244" lon="14.141879810717244"><ele>161.0</ele><time>2026-05-03T11:29:56Z</time></trkpt><trkpt lat="42.49162563474859" lon="14.142038754058117"><ele>161.0</ele><time>2026-05-03T11:29:57Z</time></trkpt><trkpt lat="42.49156620279977" lon="14.142173175054097"><ele>161.0</ele><time>2026-05-03T11:29:58Z</time></trkpt><trkpt lat="42.49158157049261" lon="14.142326582752016"><ele>160.20000000000002</ele><time>2026-05-03T11:29:59Z</time></trkpt><trkpt lat="42.49163297327475" lon="14.14245509042557"><ele>159.4</ele><time>2026-05-03T11:30:00Z</time></trkpt><trkpt lat="42.49170183333641" lon="14.142558618900251"><ele>158.6</ele><time>2026-05-03T11:30:01Z</time></trkpt><trkpt lat="42.49175489997234" lon="14.142677279027055"><ele>157.8</ele><time>2026-05-03T11:30:02Z</time></trkpt><trkpt lat="42.49181587793837" lon="14.142777011349114"><ele>157.0</ele><time>2026-05-03T11:30:03Z</time></trkpt><trkpt lat="42.491835108935085" lon="14.142912181423007"><ele>157.0</ele><time>2026-05-03T11:30:04Z</time></trkpt><trkpt lat="42.49178236596389" lon="14.143038014534511"><ele>157.0</ele><time>2026-05-03T11:30:05Z</time></trkpt><trkpt lat="42.49169774277375" lon="14.143138078798057"><ele>157.0</ele><time>2026-05-03T11:30:06Z</time></trkpt><trkpt lat="42.491603882511356" lon="14.143236888741873"><ele>157.0</ele><time>2026-05-03T11:30:07Z</time></trkpt><trkpt lat="42.4915177055504" lon="14.143340216898496"><ele>156.0</ele><time>2026-05-03T11:30:08Z</time></trkpt><trkpt lat="42.49150101000443" lon="14.14348651795852"><ele>155.0</ele><time>2026-05-03T11:30:09Z</time></trkpt><trkpt lat="42.491534145464776" lon="14.143630800575883"><ele>154.0</ele><time>2026-05-03T11:30:10Z</time></trkpt><trkpt lat="42.491597783753186" lon="14.14377693418195"><ele>153.0</ele><time>2026-05-03T11:30:11Z</time></trkpt><trkpt lat="42.49167428887406" lon="14.143929140089458"><ele>154.0</ele><time>2026-05-03T11:30:12Z</time></trkpt><trkpt lat="42.4917679399159" lon="14.144069838126205"><ele>155.0</ele><time>2026-05-03T11:30:13Z</time></trkpt><trkpt lat="42.49188693236955" lon="14.144178790062297"><ele>156.0</ele><time>2026-05-03T11:30:14Z</time></trkpt><trkpt lat="42.49202121873894" lon="14.144263967772243"><ele>157.0</ele><time>2026-05-03T11:30:15Z</time></trkpt><trkpt lat="42.49216378402265" lon="14.144317785874367"><ele>148.66666666666669</ele><time>2026-05-03T11:30:16Z</time></trkpt><trkpt lat="42.492304777771764" lon="14.144366647967107"><ele>140.33333333333334</ele><time>2026-05-03T11:30:17Z</time></trkpt><trkpt lat="42.49244702378748" lon="14.14442931210357"><ele>132.0</ele><time>2026-05-03T11:30:18Z</time></trkpt><trkpt lat="42.492600748000335" lon="14.144498877942164"><ele>132.0</ele><time>2026-05-03T11:30:19Z</time></trkpt><trkpt lat="42.492719987059694" lon="14.144582396749163"><ele>132.0</ele><time>2026-05-03T11:30:20Z</time></trkpt><trkpt lat="42.492821727066" lon="14.144642679326125"><ele>132.0</ele><time>2026-05-03T11:30:21Z</time></trkpt><trkpt lat="42.49290993435672" lon="14.144720821681261"><ele>132.0</ele><time>2026-05-03T11:30:22Z</time></trkpt><trkpt lat="42.493001986802085" lon="14.144825751632464"><ele>133.25</ele><time>2026-05-03T11:30:23Z</time></trkpt><trkpt lat="42.49309046818199" lon="14.144963376429386"><ele>134.5</ele><time>2026-05-03T11:30:24Z</time></trkpt><trkpt lat="42.493176562267436" lon="14.145115228635868"><ele>135.75</ele><time>2026-05-03T11:30:25.001Z</time></trkpt><trkpt lat="42.4933063629412" lon="14.145237258991731"><ele>137.0</ele><time>2026-05-03T11:30:26.001Z</time></trkpt><trkpt lat="42.493413143532" lon="14.145312264957097"><ele>137.0</ele><time>2026-05-03T11:30:27.001Z</time></trkpt><trkpt lat="42.49352255093392" lon="14.145337495954397"><ele>137.0</ele><time>2026-05-03T11:30:28.001Z</time></trkpt><trkpt lat="42.49363664364871" lon="14.145316637761969"><ele>137.0</ele><time>2026-05-03T11:30:29.001Z</time></trkpt><trkpt lat="42.49373526856378" lon="14.145259725896235"><ele>137.0</ele><time>2026-05-03T11:30:30.001Z</time></trkpt><trkpt lat="42.49381667001561" lon="14.145168564351136"><ele>137.0</ele><time>2026-05-03T11:30:31.001Z</time></trkpt><trkpt lat="42.493897367367" lon="14.145032585902102"><ele>132.25</ele><time>2026-05-03T11:30:32.001Z</time></trkpt><trkpt lat="42.49395912835243" lon="14.144866481536997"><ele>127.5</ele><time>2026-05-03T11:30:33.001Z</time></trkpt><trkpt lat="42.493991595944365" lon="14.144667246428407"><ele>122.75</ele><time>2026-05-03T11:30:34.001Z</time></trkpt><trkpt lat="42.494017960863545" lon="14.144471088534273"><ele>118.0</ele><time>2026-05-03T11:30:35.001Z</time></trkpt><trkpt lat="42.49405193484519" lon="14.144313610671192"><ele>118.0</ele><time>2026-05-03T11:30:36.001Z</time></trkpt><trkpt lat="42.49411046406556" lon="14.144158039165532"><ele>118.0</ele><time>2026-05-03T11:30:37.001Z</time></trkpt><trkpt lat="42.49420930402731" lon="14.144038967053055"><ele>118.0</ele><time>2026-05-03T11:30:38.001Z</time></trkpt><trkpt lat="42.494312632455156" lon="14.143954858897304"><ele>118.0</ele><time>2026-05-03T11:30:39.001Z</time></trkpt><trkpt lat="42.49443463742049" lon="14.143878663699194"><ele>114.5</ele><time>2026-05-03T11:30:40.001Z</time></trkpt><trkpt lat="42.49458237388868" lon="14.143847587872127"><ele>111.0</ele><time>2026-05-03T11:30:41.001Z</time></trkpt><trkpt lat="42.49471737588569" lon="14.143844902447425"><ele>107.5</ele><time>2026-05-03T11:30:42.001Z</time></trkpt><trkpt lat="42.49487406642053" lon="14.14385611397122"><ele>104.0</ele><time>2026-05-03T11:30:43.001Z</time></trkpt><trkpt lat="42.49503341131939" lon="14.143844844271502"><ele>104.0</ele><time>2026-05-03T11:30:44.001Z</time></trkpt><trkpt lat="42.495196186891434" lon="14.143823256624586"><ele>104.0</ele><time>2026-05-03T11:30:45.001Z</time></trkpt><trkpt lat="42.49535246850569" lon="14.143763494211536"><ele>104.0</ele><time>2026-05-03T11:30:46.001Z</time></trkpt><trkpt lat="42.49548315586821" lon="14.143710509191678"><ele>105.75</ele><time>2026-05-03T11:30:47.001Z</time></trkpt><trkpt lat="42.49560776861382" lon="14.14365316009971"><ele>107.5</ele><time>2026-05-03T11:30:48.001Z</time></trkpt><trkpt lat="42.49573488099542" lon="14.14357234218892"><ele>109.25</ele><time>2026-05-03T11:30:49.001Z</time></trkpt><trkpt lat="42.49586620057899" lon="14.143454870175097"><ele>111.0</ele><time>2026-05-03T11:30:50.001Z</time></trkpt><trkpt lat="42.49600652263782" lon="14.143314740741307"><ele>108.0</ele><time>2026-05-03T11:30:51.001Z</time></trkpt><trkpt lat="42.49614341672938" lon="14.143176696212013"><ele>105.0</ele><time>2026-05-03T11:30:52.001Z</time></trkpt><trkpt lat="42.496298304857156" lon="14.143034401444293"><ele>102.0</ele><time>2026-05-03T11:30:53.001Z</time></trkpt><trkpt lat="42.49644160041955" lon="14.142916497111747"><ele>101.5</ele><time>2026-05-03T11:30:54.001Z</time></trkpt><trkpt lat="42.496575240975744" lon="14.142810703208704"><ele>101.0</ele><time>2026-05-03T11:30:55.001Z</time></trkpt><trkpt lat="42.49669922101471" lon="14.14270453687099"><ele>100.5</ele><time>2026-05-03T11:30:56.001Z</time></trkpt><trkpt lat="42.49681982356951" lon="14.142600565881303"><ele>100.0</ele><time>2026-05-03T11:30:57.001Z</time></trkpt><trkpt lat="42.496929945033415" lon="14.142493900006366"><ele>100.0</ele><time>2026-05-03T11:30:58.001Z</time></trkpt><trkpt lat="42.49702631396008" lon="14.142386348351598"><ele>100.0</ele><time>2026-05-03T11:30:59.001Z</time></trkpt><trkpt lat="42.49713927379616" lon="14.142283527991603"><ele>100.0</ele><time>2026-05-03T11:31:00.001Z</time></trkpt><trkpt lat="42.497221612773004" lon="14.142174654183261"><ele>100.0</ele><time>2026-05-03T11:31:01.001Z</time></trkpt><trkpt lat="42.497303920460006" lon="14.142064343339161"><ele>97.50000000000001</ele><time>2026-05-03T11:31:02.001Z</time></trkpt><trkpt lat="42.497393045063134" lon="14.141990685393191"><ele>95.0</ele><time>2026-05-03T11:31:03.001Z</time></trkpt><trkpt lat="42.49745871707353" lon="14.141945977429266"><ele>92.5</ele><time>2026-05-03T11:31:04.001Z</time></trkpt><trkpt lat="42.49752984247386" lon="14.14193908711539"><ele>90.0</ele><time>2026-05-03T11:31:05.001Z</time></trkpt><trkpt lat="42.497601298578196" lon="14.141999971438702"><ele>87.5</ele><time>2026-05-03T11:31:06.001Z</time></trkpt><trkpt lat="42.497634059875196" lon="14.142099162468504"><ele>85.0</ele><time>2026-05-03T11:31:07.001Z</time></trkpt><trkpt lat="42.497619546269675" lon="14.142224150371419"><ele>85.0</ele><time>2026-05-03T11:31:08.001Z</time></trkpt><trkpt lat="42.49755779330289" lon="14.142344190583266"><ele>85.0</ele><time>2026-05-03T11:31:09.001Z</time></trkpt><trkpt lat="42.49746910587658" lon="14.142498307850534"><ele>85.0</ele><time>2026-05-03T11:31:10.001Z</time></trkpt><trkpt lat="42.49735298212056" lon="14.142679090186727"><ele>85.0</ele><time>2026-05-03T11:31:11.001Z</time></trkpt><trkpt lat="42.497238917525756" lon="14.142867380853732"><ele>85.33333333333333</ele><time>2026-05-03T11:31:12.001Z</time></trkpt><trkpt lat="42.4971328427192" lon="14.143054786754773"><ele>85.66666666666667</ele><time>2026-05-03T11:31:13.001Z</time></trkpt><trkpt lat="42.49703709997886" lon="14.143212715128454"><ele>86.0</ele><time>2026-05-03T11:31:14.001Z</time></trkpt><trkpt lat="42.49694152997661" lon="14.14336451365531"><ele>88.5</ele><time>2026-05-03T11:31:15.001Z</time></trkpt><trkpt lat="42.49685358327567" lon="14.143521637151808"><ele>91.0</ele><time>2026-05-03T11:31:16.001Z</time></trkpt><trkpt lat="42.496754600270606" lon="14.143675395228414"><ele>93.5</ele><time>2026-05-03T11:31:17.001Z</time></trkpt><trkpt lat="42.496658771227075" lon="14.143828514891272"><ele>96.0</ele><time>2026-05-03T11:31:18.001Z</time></trkpt><trkpt lat="42.49655879047518" lon="14.14396110692702"><ele>92.5</ele><time>2026-05-03T11:31:19.001Z</time></trkpt><trkpt lat="42.496461164633715" lon="14.144095802379672"><ele>89.0</ele><time>2026-05-03T11:31:20.001Z</time></trkpt><trkpt lat="42.49640101866905" lon="14.144239222361003"><ele>85.5</ele><time>2026-05-03T11:31:21.001Z</time></trkpt><trkpt lat="42.49636785535012" lon="14.144411167814049"><ele>82.0</ele><time>2026-05-03T11:31:22.001Z</time></trkpt><trkpt lat="42.496368204192976" lon="14.144596754431786"><ele>82.0</ele><time>2026-05-03T11:31:23.001Z</time></trkpt><trkpt lat="42.49639123659177" lon="14.14477971758953"><ele>82.0</ele><time>2026-05-03T11:31:24.001Z</time></trkpt><trkpt lat="42.49641178686836" lon="14.144950896161323"><ele>82.0</ele><time>2026-05-03T11:31:25.001Z</time></trkpt><trkpt lat="42.496377140010296" lon="14.145111583507418"><ele>82.0</ele><time>2026-05-03T11:31:26.001Z</time></trkpt><trkpt lat="42.49629582548134" lon="14.145270882482217"><ele>82.0</ele><time>2026-05-03T11:31:27.001Z</time></trkpt><trkpt lat="42.49620260926954" lon="14.145411279262403"><ele>82.0</ele><time>2026-05-03T11:31:28.001Z</time></trkpt><trkpt lat="42.49615063847152" lon="14.145565231397113"><ele>82.0</ele><time>2026-05-03T11:31:29.001Z</time></trkpt><trkpt lat="42.496133588789995" lon="14.145715724775165"><ele>82.0</ele><time>2026-05-03T11:31:30.001Z</time></trkpt><trkpt lat="42.49615534774155" lon="14.145856399921145"><ele>82.0</ele><time>2026-05-03T11:31:31.001Z</time></trkpt><trkpt lat="42.49621676380957" lon="14.1459749682606"><ele>82.0</ele><time>2026-05-03T11:31:32.001Z</time></trkpt><trkpt lat="42.49631414342633" lon="14.146040258550254"><ele>82.0</ele><time>2026-05-03T11:31:33.001Z</time></trkpt><trkpt lat="42.49642814867032" lon="14.146064256290371"><ele>82.0</ele><time>2026-05-03T11:31:34.001Z</time></trkpt><trkpt lat="42.49654050115043" lon="14.14603571215704"><ele>82.0</ele><time>2026-05-03T11:31:35.001Z</time></trkpt><trkpt lat="42.49663886805273" lon="14.14594982427877"><ele>79.5</ele><time>2026-05-03T11:31:36Z</time></trkpt><trkpt lat="42.496701095361274" lon="14.145812207704468"><ele>77.0</ele><time>2026-05-03T11:31:37Z</time></trkpt><trkpt lat="42.49673076940517" lon="14.14564469487661"><ele>74.5</ele><time>2026-05-03T11:31:38Z</time></trkpt><trkpt lat="42.49673040454194" lon="14.145441947450504"><ele>72.0</ele><time>2026-05-03T11:31:39Z</time></trkpt><trkpt lat="42.49673448743534" lon="14.145264555695922"><ele>71.5</ele><time>2026-05-03T11:31:40Z</time></trkpt><trkpt lat="42.49677129493712" lon="14.145098050087014"><ele>71.0</ele><time>2026-05-03T11:31:41Z</time></trkpt><trkpt lat="42.49684602412119" lon="14.144928868819369"><ele>70.5</ele><time>2026-05-03T11:31:42Z</time></trkpt><trkpt lat="42.49694515331345" lon="14.144766108057365"><ele>70.0</ele><time>2026-05-03T11:31:43Z</time></trkpt><trkpt lat="42.49705135972367" lon="14.144641237660538"><ele>67.5</ele><time>2026-05-03T11:31:44Z</time></trkpt><trkpt lat="42.497178738014135" lon="14.14456281003649"><ele>65.0</ele><time>2026-05-03T11:31:45Z</time></trkpt><trkpt lat="42.49730806056554" lon="14.144484176699082"><ele>62.5</ele><time>2026-05-03T11:31:46Z</time></trkpt><trkpt lat="42.49741376995587" lon="14.144412976337845"><ele>60.0</ele><time>2026-05-03T11:31:47Z</time></trkpt><trkpt lat="42.49753021100218" lon="14.144310891762379"><ele>60.0</ele><time>2026-05-03T11:31:48Z</time></trkpt><trkpt lat="42.49764258360362" lon="14.144173328924625"><ele>60.0</ele><time>2026-05-03T11:31:49Z</time></trkpt><trkpt lat="42.49776126091686" lon="14.144002530000622"><ele>60.0</ele><time>2026-05-03T11:31:50Z</time></trkpt><trkpt lat="42.497895862292516" lon="14.143832718772247"><ele>57.0</ele><time>2026-05-03T11:31:51Z</time></trkpt><trkpt lat="42.49803096803767" lon="14.143642332163962"><ele>54.0</ele><time>2026-05-03T11:31:52Z</time></trkpt><trkpt lat="42.49813946507787" lon="14.143478334165808"><ele>51.0</ele><time>2026-05-03T11:31:53Z</time></trkpt><trkpt lat="42.49824943526395" lon="14.14330159672094"><ele>54.25</ele><time>2026-05-03T11:31:54Z</time></trkpt><trkpt lat="42.49834169862891" lon="14.143147154681717"><ele>57.5</ele><time>2026-05-03T11:31:55Z</time></trkpt><trkpt lat="42.49843482072439" lon="14.142985475425903"><ele>60.75</ele><time>2026-05-03T11:31:56Z</time></trkpt><trkpt lat="42.49850876318779" lon="14.142858543677548"><ele>64.0</ele><time>2026-05-03T11:31:57Z</time></trkpt><trkpt lat="42.498560841155204" lon="14.142748457876245"><ele>64.0</ele><time>2026-05-03T11:31:58Z</time></trkpt><trkpt lat="42.49861826521207" lon="14.14268671335693"><ele>64.0</ele><time>2026-05-03T11:31:59Z</time></trkpt><trkpt lat="42.49868656488916" lon="14.142670951134996"><ele>64.0</ele><time>2026-05-03T11:32:01Z</time></trkpt><trkpt lat="42.49875347319885" lon="14.142439150551366"><ele>64.0</ele><time>2026-05-03T11:32:13Z</time></trkpt><trkpt lat="42.498764801152085" lon="14.142316660907623"><ele>64.0</ele><time>2026-05-03T11:32:14Z</time></trkpt><trkpt lat="42.498822650825915" lon="14.142158224347353"><ele>61.0</ele><time>2026-05-03T11:32:15Z</time></trkpt><trkpt lat="42.498902007527725" lon="14.141981180835367"><ele>58.0</ele><time>2026-05-03T11:32:16Z</time></trkpt><trkpt lat="42.49898558017381" lon="14.141813432429727"><ele>55.0</ele><time>2026-05-03T11:32:17Z</time></trkpt><trkpt lat="42.499061020847456" lon="14.141664017704283"><ele>52.0</ele><time>2026-05-03T11:32:18Z</time></trkpt><trkpt lat="42.49914174376061" lon="14.141522294862126"><ele>52.0</ele><time>2026-05-03T11:32:19Z</time></trkpt><trkpt lat="42.4992290673299" lon="14.141396228833417"><ele>52.0</ele><time>2026-05-03T11:32:20Z</time></trkpt><trkpt lat="42.49932691742646" lon="14.141273293029926"><ele>52.0</ele><time>2026-05-03T11:32:21Z</time></trkpt><trkpt lat="42.499428404218264" lon="14.141146574005274"><ele>52.0</ele><time>2026-05-03T11:32:22Z</time></trkpt><trkpt lat="42.49955107810499" lon="14.141045016140247"><ele>48.75</ele><time>2026-05-03T11:32:23Z</time></trkpt><trkpt lat="42.49965513664167" lon="14.140930549550047"><ele>45.5</ele><time>2026-05-03T11:32:24Z</time></trkpt><trkpt lat="42.49977367013415" lon="14.140817686154685"><ele>42.25</ele><time>2026-05-03T11:32:25Z</time></trkpt><trkpt lat="42.49987989069577" lon="14.140694857309299"><ele>39.0</ele><time>2026-05-03T11:32:26Z</time></trkpt><trkpt lat="42.49997883994093" lon="14.14055243369764"><ele>39.0</ele><time>2026-05-03T11:32:27Z</time></trkpt><trkpt lat="42.50006545441708" lon="14.14040392462538"><ele>39.0</ele><time>2026-05-03T11:32:28Z</time></trkpt><trkpt lat="42.50015250077189" lon="14.140262990255295"><ele>39.0</ele><time>2026-05-03T11:32:29Z</time></trkpt><trkpt lat="42.500235402530556" lon="14.140132979316162"><ele>39.0</ele><time>2026-05-03T11:32:30Z</time></trkpt><trkpt lat="42.500322955136774" lon="14.140009659908202"><ele>39.0</ele><time>2026-05-03T11:32:31Z</time></trkpt><trkpt lat="42.50040054919111" lon="14.139885423084687"><ele>39.0</ele><time>2026-05-03T11:32:32Z</time></trkpt><trkpt lat="42.50047979173707" lon="14.139764286205999"><ele>39.0</ele><time>2026-05-03T11:32:33Z</time></trkpt><trkpt lat="42.50055221173184" lon="14.13964715645974"><ele>39.0</ele><time>2026-05-03T11:32:34Z</time></trkpt><trkpt lat="42.50062281260137" lon="14.139535050560808"><ele>35.75</ele><time>2026-05-03T11:32:35Z</time></trkpt><trkpt lat="42.500690060302546" lon="14.13940960423688"><ele>32.5</ele><time>2026-05-03T11:32:36Z</time></trkpt><trkpt lat="42.50075719944277" lon="14.139282220984619"><ele>29.25</ele><time>2026-05-03T11:32:37Z</time></trkpt><trkpt lat="42.50082889299528" lon="14.139138054209955"><ele>26.0</ele><time>2026-05-03T11:32:38Z</time></trkpt><trkpt lat="42.500899911736134" lon="14.138997942733933"><ele>25.0</ele><time>2026-05-03T11:32:39Z</time></trkpt><trkpt lat="42.50096231299261" lon="14.138860551604797"><ele>24.0</ele><time>2026-05-03T11:32:40Z</time></trkpt><trkpt lat="42.50102003803869" lon="14.138731694737334"><ele>23.0</ele><time>2026-05-03T11:32:41Z</time></trkpt><trkpt lat="42.5010773813839" lon="14.138607063630166"><ele>22.0</ele><time>2026-05-03T11:32:42Z</time></trkpt><trkpt lat="42.5011389878847" lon="14.138488594621913"><ele>21.0</ele><time>2026-05-03T11:32:43.001Z</time></trkpt><trkpt lat="42.501182475040494" lon="14.138375137871886"><ele>21.0</ele><time>2026-05-03T11:32:44.001Z</time></trkpt><trkpt lat="42.501225236353115" lon="14.138240646973655"><ele>21.0</ele><time>2026-05-03T11:32:45.001Z</time></trkpt><trkpt lat="42.5012608497615" lon="14.1380992947986"><ele>21.0</ele><time>2026-05-03T11:32:46.001Z</time></trkpt><trkpt lat="42.50129456878304" lon="14.137946593485447"><ele>21.0</ele><time>2026-05-03T11:32:47.001Z</time></trkpt><trkpt lat="42.50132588125409" lon="14.137794694709582"><ele>19.75</ele><time>2026-05-03T11:32:48.001Z</time></trkpt><trkpt lat="42.501362565794665" lon="14.137639929160626"><ele>18.5</ele><time>2026-05-03T11:32:49.001Z</time></trkpt><trkpt lat="42.50140126058847" lon="14.137486810109518"><ele>17.25</ele><time>2026-05-03T11:32:50.001Z</time></trkpt><trkpt lat="42.50144328636281" lon="14.137327845757797"><ele>16.0</ele><time>2026-05-03T11:32:51.001Z</time></trkpt><trkpt lat="42.50148509644595" lon="14.13716980475673"><ele>15.5</ele><time>2026-05-03T11:32:52.001Z</time></trkpt><trkpt lat="42.501525500062904" lon="14.137012564762838"><ele>15.0</ele><time>2026-05-03T11:32:53.001Z</time></trkpt><trkpt lat="42.50156792272734" lon="14.136847647412816"><ele>14.5</ele><time>2026-05-03T11:32:54.001Z</time></trkpt><trkpt lat="42.50160736990828" lon="14.136687266238752"><ele>14.0</ele><time>2026-05-03T11:32:55.001Z</time></trkpt><trkpt lat="42.50164925707446" lon="14.136521220067683"><ele>14.0</ele><time>2026-05-03T11:32:56.001Z</time></trkpt><trkpt lat="42.50169253703949" lon="14.136359562343252"><ele>14.0</ele><time>2026-05-03T11:32:57.001Z</time></trkpt><trkpt lat="42.5017340979943" lon="14.136198661677208"><ele>14.0</ele><time>2026-05-03T11:32:58.001Z</time></trkpt><trkpt lat="42.50177535915032" lon="14.13604016855248"><ele>14.0</ele><time>2026-05-03T11:32:59.001Z</time></trkpt><trkpt lat="42.5018153371802" lon="14.135883608119379"><ele>14.0</ele><time>2026-05-03T11:33:00.001Z</time></trkpt><trkpt lat="42.501852041332405" lon="14.135728438573999"><ele>14.0</ele><time>2026-05-03T11:33:01.001Z</time></trkpt><trkpt lat="42.5018877057982" lon="14.135577511487103"><ele>14.0</ele><time>2026-05-03T11:33:02.001Z</time></trkpt><trkpt lat="42.50193034575469" lon="14.13544372409502"><ele>14.0</ele><time>2026-05-03T11:33:03.001Z</time></trkpt><trkpt lat="42.501965791869665" lon="14.135306810153066"><ele>14.0</ele><time>2026-05-03T11:33:04.001Z</time></trkpt><trkpt lat="42.50200424272061" lon="14.135174334485324"><ele>13.999999999999998</ele><time>2026-05-03T11:33:05.001Z</time></trkpt><trkpt lat="42.50204430633893" lon="14.135046564510475"><ele>13.999999999999998</ele><time>2026-05-03T11:33:06.001Z</time></trkpt><trkpt lat="42.50208494320653" lon="14.134935313816214"><ele>14.0</ele><time>2026-05-03T11:33:07.001Z</time></trkpt><trkpt lat="42.50212504280395" lon="14.134861091211029"><ele>14.0</ele><time>2026-05-03T11:33:08.001Z</time></trkpt><trkpt lat="42.50219086317167" lon="14.134790404446575"><ele>14.0</ele><time>2026-05-03T11:33:09.001Z</time></trkpt><trkpt lat="42.50227321509172" lon="14.13474772400263"><ele>13.999999999999998</ele><time>2026-05-03T11:33:10.001Z</time></trkpt><trkpt lat="42.50236346920631" lon="14.13473704038764"><ele>13.999999999999998</ele><time>2026-05-03T11:33:11.001Z</time></trkpt><trkpt lat="42.50245676998368" lon="14.134754788628753"><ele>14.0</ele><time>2026-05-03T11:33:12.001Z</time></trkpt><trkpt lat="42.50254103861521" lon="14.134805566731165"><ele>14.0</ele><time>2026-05-03T11:33:13.001Z</time></trkpt><trkpt lat="42.50260192983622" lon="14.134891399850565"><ele>14.0</ele><time>2026-05-03T11:33:14.001Z</time></trkpt><trkpt lat="42.50267408801067" lon="14.134982302958827"><ele>13.999999999999998</ele><time>2026-05-03T11:33:15.001Z</time></trkpt><trkpt lat="42.5027424297111" lon="14.135064089642501"><ele>13.999999999999998</ele><time>2026-05-03T11:33:16.001Z</time></trkpt><trkpt lat="42.50281879326412" lon="14.135153998654973"><ele>14.0</ele><time>2026-05-03T11:33:17.001Z</time></trkpt><trkpt lat="42.502894687056916" lon="14.13523103038132"><ele>14.0</ele><time>2026-05-03T11:33:18.001Z</time></trkpt><trkpt lat="42.50296050798714" lon="14.13528633500438"><ele>13.6</ele><time>2026-05-03T11:33:19.001Z</time></trkpt><trkpt lat="42.50302325721827" lon="14.135325379057708"><ele>13.2</ele><time>2026-05-03T11:33:20.001Z</time></trkpt><trkpt lat="42.503113186120025" lon="14.135324077273975"><ele>12.799999999999999</ele><time>2026-05-03T11:33:22.001Z</time></trkpt><trkpt lat="42.50313261211546" lon="14.135194674473553"><ele>12.399999999999999</ele><time>2026-05-03T11:33:23.001Z</time></trkpt><trkpt lat="42.50316874442001" lon="14.135041341845954"><ele>12.0</ele><time>2026-05-03T11:33:25.001Z</time></trkpt><trkpt lat="42.503189571684715" lon="14.134940329174093"><ele>12.2</ele><time>2026-05-03T11:33:26.001Z</time></trkpt><trkpt lat="42.50323358240756" lon="14.134844750588266"><ele>12.399999999999999</ele><time>2026-05-03T11:33:27.001Z</time></trkpt><trkpt lat="42.503249482719426" lon="14.134733597577458"><ele>12.600000000000001</ele><time>2026-05-03T11:33:28.001Z</time></trkpt><trkpt lat="42.50327651521438" lon="14.134607066864495"><ele>12.8</ele><time>2026-05-03T11:33:29.001Z</time></trkpt><trkpt lat="42.50331199220639" lon="14.134480394682207"><ele>13.0</ele><time>2026-05-03T11:33:30.001Z</time></trkpt><trkpt lat="42.50335479614629" lon="14.134333430450296"><ele>13.0</ele><time>2026-05-03T11:33:31.001Z</time></trkpt><trkpt lat="42.50338940422486" lon="14.134185142127704"><ele>13.0</ele><time>2026-05-03T11:33:32.001Z</time></trkpt><trkpt lat="42.503426925089215" lon="14.134033355139243"><ele>13.0</ele><time>2026-05-03T11:33:33.001Z</time></trkpt><trkpt lat="42.503472745656204" lon="14.133871775280777"><ele>13.0</ele><time>2026-05-03T11:33:34.001Z</time></trkpt><trkpt lat="42.50351866075658" lon="14.133738743756831"><ele>13.0</ele><time>2026-05-03T11:33:35.001Z</time></trkpt><trkpt lat="42.50360506743564" lon="14.133650261497964"><ele>13.0</ele><time>2026-05-03T11:33:36.001Z</time></trkpt><trkpt lat="42.50369877986241" lon="14.133529314089934"><ele>13.0</ele><time>2026-05-03T11:33:37.001Z</time></trkpt><trkpt lat="42.503824246604026" lon="14.133435060250504"><ele>13.0</ele><time>2026-05-03T11:33:38.001Z</time></trkpt><trkpt lat="42.50394691295924" lon="14.133326865229352"><ele>13.0</ele><time>2026-05-03T11:33:39.001Z</time></trkpt><trkpt lat="42.50407075292686" lon="14.133208767680909"><ele>13.0</ele><time>2026-05-03T11:33:40.001Z</time></trkpt><trkpt lat="42.50419898828095" lon="14.133083445228737"><ele>13.0</ele><time>2026-05-03T11:33:41.001Z</time></trkpt><trkpt lat="42.50431320726011" lon="14.132976893926715"><ele>13.0</ele><time>2026-05-03T11:33:42Z</time></trkpt><trkpt lat="42.504434413702896" lon="14.132869567550895"><ele>13.0</ele><time>2026-05-03T11:33:43Z</time></trkpt><trkpt lat="42.50453687908438" lon="14.132771532888173"><ele>13.0</ele><time>2026-05-03T11:33:44Z</time></trkpt><trkpt lat="42.50462594096029" lon="14.132687184337799"><ele>13.0</ele><time>2026-05-03T11:33:45Z</time></trkpt><trkpt lat="42.5047226689622" lon="14.132597616678401"><ele>13.0</ele><time>2026-05-03T11:33:46Z</time></trkpt><trkpt lat="42.50482183798514" lon="14.132520497518286"><ele>12.200000000000001</ele><time>2026-05-03T11:33:47Z</time></trkpt><trkpt lat="42.50492136581456" lon="14.132433071320836"><ele>11.4</ele><time>2026-05-03T11:33:48Z</time></trkpt><trkpt lat="42.505010782094566" lon="14.132353869409771"><ele>10.600000000000001</ele><time>2026-05-03T11:33:49Z</time></trkpt><trkpt lat="42.505083108738276" lon="14.13229495895505"><ele>9.8</ele><time>2026-05-03T11:33:50Z</time></trkpt><trkpt lat="42.50514380966" lon="14.132246028418985"><ele>9.0</ele><time>2026-05-03T11:33:51Z</time></trkpt><trkpt lat="42.50522343806021" lon="14.13217708433115"><ele>9.0</ele><time>2026-05-03T11:33:53Z</time></trkpt><trkpt lat="42.5052921098691" lon="14.132091963789993"><ele>9.0</ele><time>2026-05-03T11:33:56Z</time></trkpt><trkpt lat="42.50538755490531" lon="14.131985411853817"><ele>9.0</ele><time>2026-05-03T11:33:58Z</time></trkpt><trkpt lat="42.50544285002511" lon="14.131930705423494"><ele>9.0</ele><time>2026-05-03T11:33:59Z</time></trkpt><trkpt lat="42.5054955500517" lon="14.131881391980627"><ele>9.0</ele><time>2026-05-03T11:34:00Z</time></trkpt><trkpt lat="42.50558891022017" lon="14.131799255517103"><ele>9.0</ele><time>2026-05-03T11:34:02Z</time></trkpt><trkpt lat="42.50568446192757" lon="14.13169334840536"><ele>9.0</ele><time>2026-05-03T11:34:04Z</time></trkpt><trkpt lat="42.505753274079744" lon="14.131638229021672"><ele>9.0</ele><time>2026-05-03T11:34:05Z</time></trkpt><trkpt lat="42.50583526032652" lon="14.131587585400323"><ele>9.0</ele><time>2026-05-03T11:34:06Z</time></trkpt><trkpt lat="42.50591219849889" lon="14.13152496250542"><ele>9.0</ele><time>2026-05-03T11:34:07Z</time></trkpt><trkpt lat="42.505998933001706" lon="14.131450143541977"><ele>9.0</ele><time>2026-05-03T11:34:08Z</time></trkpt><trkpt lat="42.50607878958079" lon="14.13137233971864"><ele>9.0</ele><time>2026-05-03T11:34:09Z</time></trkpt><trkpt lat="42.50616206342225" lon="14.131297359464364"><ele>9.0</ele><time>2026-05-03T11:34:10Z</time></trkpt><trkpt lat="42.5062485929126" lon="14.131221487135894"><ele>9.0</ele><time>2026-05-03T11:34:11Z</time></trkpt><trkpt lat="42.50634727369286" lon="14.131134694900188"><ele>9.0</ele><time>2026-05-03T11:34:12Z</time></trkpt><trkpt lat="42.506438756812784" lon="14.131081875068045"><ele>9.0</ele><time>2026-05-03T11:34:13Z</time></trkpt><trkpt lat="42.50652474154403" lon="14.131040794513124"><ele>9.0</ele><time>2026-05-03T11:34:14Z</time></trkpt><trkpt lat="42.50660732595118" lon="14.13100596608042"><ele>9.0</ele><time>2026-05-03T11:34:15Z</time></trkpt><trkpt lat="42.506694539418284" lon="14.13095312675789"><ele>9.0</ele><time>2026-05-03T11:34:16Z</time></trkpt><trkpt lat="42.50678536503177" lon="14.130893995131176"><ele>9.0</ele><time>2026-05-03T11:34:17Z</time></trkpt><trkpt lat="42.506877994160114" lon="14.130842098911417"><ele>9.0</ele><time>2026-05-03T11:34:18Z</time></trkpt><trkpt lat="42.50697626713663" lon="14.13079442475959"><ele>9.0</ele><time>2026-05-03T11:34:19Z</time></trkpt><trkpt lat="42.50707872852019" lon="14.13075763764014"><ele>9.0</ele><time>2026-05-03T11:34:20Z</time></trkpt><trkpt lat="42.50718508824596" lon="14.13072276139303"><ele>9.0</ele><time>2026-05-03T11:34:21Z</time></trkpt><trkpt lat="42.5072889408755" lon="14.130695546862324"><ele>9.0</ele><time>2026-05-03T11:34:22Z</time></trkpt><trkpt lat="42.507395725299304" lon="14.130670024780315"><ele>9.6</ele><time>2026-05-03T11:34:23Z</time></trkpt><trkpt lat="42.50750187718587" lon="14.130640341176107"><ele>10.2</ele><time>2026-05-03T11:34:24Z</time></trkpt><trkpt lat="42.50760452762863" lon="14.130607190409412"><ele>10.799999999999999</ele><time>2026-05-03T11:34:25Z</time></trkpt><trkpt lat="42.507709137889755" lon="14.130559096261548"><ele>11.4</ele><time>2026-05-03T11:34:26Z</time></trkpt><trkpt lat="42.50781046489842" lon="14.130501651251118"><ele>12.0</ele><time>2026-05-03T11:34:27Z</time></trkpt><trkpt lat="42.50790731019375" lon="14.130435312281323"><ele>12.0</ele><time>2026-05-03T11:34:28Z</time></trkpt><trkpt lat="42.50800770584239" lon="14.130358242401385"><ele>12.0</ele><time>2026-05-03T11:34:29Z</time></trkpt><trkpt lat="42.50810625184765" lon="14.130278853507273"><ele>12.0</ele><time>2026-05-03T11:34:30Z</time></trkpt><trkpt lat="42.508201806871284" lon="14.130203340690182"><ele>12.0</ele><time>2026-05-03T11:34:31Z</time></trkpt><trkpt lat="42.50828937001241" lon="14.13013534556668"><ele>12.0</ele><time>2026-05-03T11:34:32Z</time></trkpt><trkpt lat="42.50838094971513" lon="14.130061233744561"><ele>12.0</ele><time>2026-05-03T11:34:33Z</time></trkpt><trkpt lat="42.50847576715673" lon="14.12997404401335"><ele>12.0</ele><time>2026-05-03T11:34:34Z</time></trkpt><trkpt lat="42.50856482015017" lon="14.129886301930446"><ele>12.0</ele><time>2026-05-03T11:34:35Z</time></trkpt><trkpt lat="42.508640926502224" lon="14.129817208776888"><ele>12.0</ele><time>2026-05-03T11:34:36Z</time></trkpt><trkpt lat="42.50871659582811" lon="14.129756588478283"><ele>12.0</ele><time>2026-05-03T11:34:37Z</time></trkpt><trkpt lat="42.508775673736054" lon="14.129708418168779"><ele>11.0</ele><time>2026-05-03T11:34:38Z</time></trkpt><trkpt lat="42.50887407338509" lon="14.129734482802174"><ele>10.0</ele><time>2026-05-03T11:34:39Z</time></trkpt><trkpt lat="42.50896563384703" lon="14.129773051018217"><ele>9.0</ele><time>2026-05-03T11:34:40Z</time></trkpt><trkpt lat="42.509056202465125" lon="14.129769154028878"><ele>8.0</ele><time>2026-05-03T11:34:41Z</time></trkpt><trkpt lat="42.50913795045791" lon="14.129933348985439"><ele>7.0</ele><time>2026-05-03T11:34:42Z</time></trkpt><trkpt lat="42.509216717984536" lon="14.130051411419137"><ele>7.0</ele><time>2026-05-03T11:34:43Z</time></trkpt><trkpt lat="42.50930262538558" lon="14.130188418465682"><ele>7.0</ele><time>2026-05-03T11:34:44Z</time></trkpt><trkpt lat="42.50939627397588" lon="14.130328815236407"><ele>7.0</ele><time>2026-05-03T11:34:45Z</time></trkpt><trkpt lat="42.50949479097102" lon="14.130470037612579"><ele>7.0</ele><time>2026-05-03T11:34:46Z</time></trkpt><trkpt lat="42.50960686750456" lon="14.130626726154029"><ele>6.333333333333334</ele><time>2026-05-03T11:34:47Z</time></trkpt><trkpt lat="42.50973637893063" lon="14.130803721121735"><ele>5.666666666666667</ele><time>2026-05-03T11:34:48Z</time></trkpt><trkpt lat="42.50988432937092" lon="14.13100873588574"><ele>5.0</ele><time>2026-05-03T11:34:49Z</time></trkpt><trkpt lat="42.51002215953433" lon="14.131219333237143"><ele>5.0</ele><time>2026-05-03T11:34:50Z</time></trkpt><trkpt lat="42.51015485029371" lon="14.131434422855502"><ele>5.0</ele><time>2026-05-03T11:34:51Z</time></trkpt><trkpt lat="42.51027565619494" lon="14.13166009845265"><ele>5.0</ele><time>2026-05-03T11:34:52Z</time></trkpt><trkpt lat="42.51039334520845" lon="14.131900017223021"><ele>4.666666666666667</ele><time>2026-05-03T11:34:53Z</time></trkpt><trkpt lat="42.51050561506928" lon="14.132140293096962"><ele>4.333333333333333</ele><time>2026-05-03T11:34:54Z</time></trkpt><trkpt lat="42.51061925443867" lon="14.132382236268155"><ele>4.0</ele><time>2026-05-03T11:34:55Z</time></trkpt><trkpt lat="42.51073021211439" lon="14.13259798085801"><ele>4.666666666666666</ele><time>2026-05-03T11:34:56Z</time></trkpt><trkpt lat="42.51085446002822" lon="14.132824672634188"><ele>5.333333333333333</ele><time>2026-05-03T11:34:57.001Z</time></trkpt><trkpt lat="42.510980255075026" lon="14.133040336884816"><ele>6.0</ele><time>2026-05-03T11:34:58.001Z</time></trkpt><trkpt lat="42.511106947210735" lon="14.13324732533347"><ele>6.333333333333334</ele><time>2026-05-03T11:34:59.001Z</time></trkpt><trkpt lat="42.511221788279904" lon="14.133433817455533"><ele>6.666666666666667</ele><time>2026-05-03T11:35:00.001Z</time></trkpt><trkpt lat="42.51132647277043" lon="14.133624928240451"><ele>7.0</ele><time>2026-05-03T11:35:01.001Z</time></trkpt><trkpt lat="42.511428769918645" lon="14.133826870656243"><ele>6.333333333333334</ele><time>2026-05-03T11:35:02.001Z</time></trkpt><trkpt lat="42.51152668292827" lon="14.134031187053385"><ele>5.666666666666667</ele><time>2026-05-03T11:35:03.001Z</time></trkpt><trkpt lat="42.51163917063649" lon="14.134237356323949"><ele>5.0</ele><time>2026-05-03T11:35:04.001Z</time></trkpt><trkpt lat="42.51176574539704" lon="14.134405549963159"><ele>5.0</ele><time>2026-05-03T11:35:05.001Z</time></trkpt><trkpt lat="42.51192019857945" lon="14.134560773973924"><ele>5.0</ele><time>2026-05-03T11:35:06.001Z</time></trkpt><trkpt lat="42.5120864271708" lon="14.134683939561572"><ele>5.0</ele><time>2026-05-03T11:35:07.001Z</time></trkpt><trkpt lat="42.51225912331525" lon="14.134788142911306"><ele>4.333333333333334</ele><time>2026-05-03T11:35:08.001Z</time></trkpt><trkpt lat="42.51243460887903" lon="14.134887957504935"><ele>3.666666666666667</ele><time>2026-05-03T11:35:09.001Z</time></trkpt><trkpt lat="42.512607346863824" lon="14.135001689843735"><ele>3.0</ele><time>2026-05-03T11:35:10.001Z</time></trkpt><trkpt lat="42.512760382685016" lon="14.135125477531101"><ele>3.0</ele><time>2026-05-03T11:35:11.001Z</time></trkpt><trkpt lat="42.51289854969601" lon="14.135263802739074"><ele>3.0</ele><time>2026-05-03T11:35:12.001Z</time></trkpt><trkpt lat="42.51301702678056" lon="14.13542439545801"><ele>3.0</ele><time>2026-05-03T11:35:13.001Z</time></trkpt><trkpt lat="42.5131250321345" lon="14.135607468042467"><ele>3.0</ele><time>2026-05-03T11:35:14.001Z</time></trkpt><trkpt lat="42.51321204749838" lon="14.135808273116393"><ele>3.0</ele><time>2026-05-03T11:35:15.001Z</time></trkpt><trkpt lat="42.513286739664544" lon="14.136032235920679"><ele>3.0</ele><time>2026-05-03T11:35:16.001Z</time></trkpt><trkpt lat="42.51334204708892" lon="14.136257780786607"><ele>3.0</ele><time>2026-05-03T11:35:17.001Z</time></trkpt><trkpt lat="42.51338326929909" lon="14.136489747967268"><ele>3.0</ele><time>2026-05-03T11:35:18.001Z</time></trkpt><trkpt lat="42.51341888768019" lon="14.13669812401368"><ele>3.0</ele><time>2026-05-03T11:35:19.001Z</time></trkpt><trkpt lat="42.51347022657399" lon="14.136880728691501"><ele>3.2</ele><time>2026-05-03T11:35:20.001Z</time></trkpt><trkpt lat="42.513526215573926" lon="14.13703435155095"><ele>3.4</ele><time>2026-05-03T11:35:21.001Z</time></trkpt><trkpt lat="42.513580849377206" lon="14.137172927604025"><ele>3.6000000000000005</ele><time>2026-05-03T11:35:22.001Z</time></trkpt><trkpt lat="42.51362982446176" lon="14.13729306294806"><ele>3.8000000000000003</ele><time>2026-05-03T11:35:23.001Z</time></trkpt><trkpt lat="42.51367011551452" lon="14.137399541625062"><ele>4.0</ele><time>2026-05-03T11:35:24.001Z</time></trkpt><trkpt lat="42.51372782602244" lon="14.137482038886665"><ele>4.5</ele><time>2026-05-03T11:35:25.001Z</time></trkpt><trkpt lat="42.513753591425655" lon="14.137582807035546"><ele>5.0</ele><time>2026-05-03T11:35:26.001Z</time></trkpt><trkpt lat="42.51379740177401" lon="14.137708322858154"><ele>5.5</ele><time>2026-05-03T11:35:27.001Z</time></trkpt><trkpt lat="42.513715637246115" lon="14.137896756068304"><ele>6.0</ele><time>2026-05-03T11:35:28.001Z</time></trkpt><trkpt lat="42.5136611118219" lon="14.138046937298904"><ele>6.0</ele><time>2026-05-03T11:35:29.001Z</time></trkpt><trkpt lat="42.51358804143647" lon="14.138184409447367"><ele>6.0</ele><time>2026-05-03T11:35:30.001Z</time></trkpt><trkpt lat="42.513512202530215" lon="14.138346176102267"><ele>6.0</ele><time>2026-05-03T11:35:31.001Z</time></trkpt><trkpt lat="42.513440867132395" lon="14.138525954521608"><ele>6.0</ele><time>2026-05-03T11:35:32.001Z</time></trkpt><trkpt lat="42.513371188194604" lon="14.138692824514958"><ele>5.75</ele><time>2026-05-03T11:35:33.001Z</time></trkpt><trkpt lat="42.513302055977135" lon="14.13886999215498"><ele>5.5</ele><time>2026-05-03T11:35:34.001Z</time></trkpt><trkpt lat="42.51323573595543" lon="14.139039030615969"><ele>5.25</ele><time>2026-05-03T11:35:35.001Z</time></trkpt><trkpt lat="42.513170872352624" lon="14.139221177498047"><ele>5.0</ele><time>2026-05-03T11:35:36.001Z</time></trkpt><trkpt lat="42.51310261646584" lon="14.139397163587248"><ele>5.25</ele><time>2026-05-03T11:35:37.001Z</time></trkpt><trkpt lat="42.513036499611395" lon="14.139569388589134"><ele>5.5</ele><time>2026-05-03T11:35:38.001Z</time></trkpt><trkpt lat="42.51296914785384" lon="14.139740317026309"><ele>5.75</ele><time>2026-05-03T11:35:39.001Z</time></trkpt><trkpt lat="42.51290755058349" lon="14.139895906265679"><ele>6.0</ele><time>2026-05-03T11:35:40.001Z</time></trkpt><trkpt lat="42.51285211541039" lon="14.140049457709003"><ele>6.0</ele><time>2026-05-03T11:35:41.001Z</time></trkpt><trkpt lat="42.51280206007857" lon="14.140198608176194"><ele>6.0</ele><time>2026-05-03T11:35:42.001Z</time></trkpt><trkpt lat="42.512750395107105" lon="14.140356199339188"><ele>6.0</ele><time>2026-05-03T11:35:43.001Z</time></trkpt><trkpt lat="42.51269653251744" lon="14.140514653417164"><ele>6.0</ele><time>2026-05-03T11:35:44.001Z</time></trkpt><trkpt lat="42.5126372939024" lon="14.140669498897427"><ele>6.4</ele><time>2026-05-03T11:35:45.001Z</time></trkpt><trkpt lat="42.51258136652137" lon="14.140808249966737"><ele>6.8</ele><time>2026-05-03T11:35:46.001Z</time></trkpt><trkpt lat="42.51253196730471" lon="14.140944992756133"><ele>7.200000000000001</ele><time>2026-05-03T11:35:47.001Z</time></trkpt><trkpt lat="42.51248395654304" lon="14.141078260779222"><ele>7.6000000000000005</ele><time>2026-05-03T11:35:47.999Z</time></trkpt><trkpt lat="42.51244066515612" lon="14.14119948862773"><ele>8.0</ele><time>2026-05-03T11:35:48.999Z</time></trkpt><trkpt lat="42.512402876006185" lon="14.141306658637667"><ele>8.0</ele><time>2026-05-03T11:35:49.999Z</time></trkpt><trkpt lat="42.51239145958224" lon="14.141450587840056"><ele>8.0</ele><time>2026-05-03T11:35:51.999Z</time></trkpt><trkpt lat="42.51248751448023" lon="14.141531128563788"><ele>8.0</ele><time>2026-05-03T11:35:52.999Z</time></trkpt><trkpt lat="42.51255974958773" lon="14.141545726183855"><ele>8.0</ele><time>2026-05-03T11:35:53.999Z</time></trkpt><trkpt lat="42.51264835783218" lon="14.141512370318695"><ele>8.0</ele><time>2026-05-03T11:35:54.999Z</time></trkpt><trkpt lat="42.51273898659997" lon="14.141479552584006"><ele>8.0</ele><time>2026-05-03T11:35:55.999Z</time></trkpt><trkpt lat="42.512841111256364" lon="14.1414649081125"><ele>8.0</ele><time>2026-05-03T11:35:56.999Z</time></trkpt><trkpt lat="42.51294516005991" lon="14.141442498164869"><ele>8.0</ele><time>2026-05-03T11:35:57.999Z</time></trkpt><trkpt lat="42.51304511764892" lon="14.141398559260065"><ele>8.0</ele><time>2026-05-03T11:35:58.999Z</time></trkpt><trkpt lat="42.51317814581161" lon="14.141428850896142"><ele>8.0</ele><time>2026-05-03T11:35:59.999Z</time></trkpt><trkpt lat="42.51331385654968" lon="14.141454153410308"><ele>7.5</ele><time>2026-05-03T11:36:00.999Z</time></trkpt><trkpt lat="42.51344698436692" lon="14.141535773365531"><ele>7.0</ele><time>2026-05-03T11:36:01.999Z</time></trkpt><trkpt lat="42.51358648147935" lon="14.14160337435144"><ele>6.5</ele><time>2026-05-03T11:36:02.999Z</time></trkpt><trkpt lat="42.513717944858975" lon="14.14170643717304"><ele>6.0</ele><time>2026-05-03T11:36:03.999Z</time></trkpt><trkpt lat="42.51384472948623" lon="14.141801493686138"><ele>5.25</ele><time>2026-05-03T11:36:04.999Z</time></trkpt><trkpt lat="42.513966507474" lon="14.141893150801476"><ele>4.5</ele><time>2026-05-03T11:36:05.999Z</time></trkpt><trkpt lat="42.514078459519084" lon="14.141972985601443"><ele>3.75</ele><time>2026-05-03T11:36:06.999Z</time></trkpt><trkpt lat="42.514172318416065" lon="14.142054104662206"><ele>3.0</ele><time>2026-05-03T11:36:07.999Z</time></trkpt><trkpt lat="42.51423980419772" lon="14.142155114165773"><ele>3.0</ele><time>2026-05-03T11:36:08.999Z</time></trkpt><trkpt lat="42.51427744713803" lon="14.14227659685406"><ele>3.0</ele><time>2026-05-03T11:36:09.999Z</time></trkpt><trkpt lat="42.51430051991359" lon="14.142400092121838"><ele>3.0</ele><time>2026-05-03T11:36:11Z</time></trkpt><trkpt lat="42.51434424878288" lon="14.142490883404777"><ele>3.0</ele><time>2026-05-03T11:36:12Z</time></trkpt><trkpt lat="42.514412982376214" lon="14.142531694457032"><ele>3.0</ele><time>2026-05-03T11:36:13Z</time></trkpt><trkpt lat="42.514487558405705" lon="14.142519643103485"><ele>3.0</ele><time>2026-05-03T11:36:14Z</time></trkpt><trkpt lat="42.51455475463042" lon="14.142462607116583"><ele>2.75</ele><time>2026-05-03T11:36:15Z</time></trkpt><trkpt lat="42.51464209372559" lon="14.142409516916809"><ele>2.5</ele><time>2026-05-03T11:36:16Z</time></trkpt><trkpt lat="42.51474013452314" lon="14.142421281077926"><ele>2.25</ele><time>2026-05-03T11:36:17Z</time></trkpt><trkpt lat="42.51484283989874" lon="14.142495556204958"><ele>2.0</ele><time>2026-05-03T11:36:18Z</time></trkpt><trkpt lat="42.51495991279126" lon="14.142604684833788"><ele>2.0</ele><time>2026-05-03T11:36:19Z</time></trkpt><trkpt lat="42.515086823475805" lon="14.14270979149051"><ele>2.0</ele><time>2026-05-03T11:36:20Z</time></trkpt><trkpt lat="42.5152141162008" lon="14.142803831784303"><ele>2.0</ele><time>2026-05-03T11:36:21Z</time></trkpt><trkpt lat="42.515332929537784" lon="14.142892202023104"><ele>2.0</ele><time>2026-05-03T11:36:22Z</time></trkpt><trkpt lat="42.51544559379272" lon="14.142976133651816"><ele>2.25</ele><time>2026-05-03T11:36:23Z</time></trkpt><trkpt lat="42.515555758030615" lon="14.143058638991546"><ele>2.5</ele><time>2026-05-03T11:36:24Z</time></trkpt><trkpt lat="42.51566987586952" lon="14.143142076296689"><ele>2.75</ele><time>2026-05-03T11:36:25Z</time></trkpt><trkpt lat="42.51578929638664" lon="14.143224264963495"><ele>3.0</ele><time>2026-05-03T11:36:26Z</time></trkpt><trkpt lat="42.51591213266576" lon="14.143305800478338"><ele>3.25</ele><time>2026-05-03T11:36:27Z</time></trkpt><trkpt lat="42.516037346540834" lon="14.143390998195418"><ele>3.5</ele><time>2026-05-03T11:36:28Z</time></trkpt><trkpt lat="42.51616744081786" lon="14.143485298420687"><ele>3.75</ele><time>2026-05-03T11:36:29Z</time></trkpt><trkpt lat="42.51630750337847" lon="14.143586354731486"><ele>4.0</ele><time>2026-05-03T11:36:30Z</time></trkpt><trkpt lat="42.5164551484454" lon="14.14369015643467"><ele>4.666666666666666</ele><time>2026-05-03T11:36:31Z</time></trkpt><trkpt lat="42.5166005921793" lon="14.143789142393572"><ele>5.333333333333333</ele><time>2026-05-03T11:36:32Z</time></trkpt><trkpt lat="42.516742216431965" lon="14.143891540321818"><ele>6.0</ele><time>2026-05-03T11:36:33Z</time></trkpt><trkpt lat="42.51688442101881" lon="14.143999225569251"><ele>5.333333333333333</ele><time>2026-05-03T11:36:34Z</time></trkpt><trkpt lat="42.51702980752" lon="14.144102416721228"><ele>4.666666666666666</ele><time>2026-05-03T11:36:35Z</time></trkpt><trkpt lat="42.517165984162766" lon="14.14420723059542"><ele>4.0</ele><time>2026-05-03T11:36:36Z</time></trkpt><trkpt lat="42.517306632732435" lon="14.14431541774832"><ele>3.6666666666666665</ele><time>2026-05-03T11:36:37Z</time></trkpt><trkpt lat="42.517451389207736" lon="14.144420207558824"><ele>3.333333333333333</ele><time>2026-05-03T11:36:38Z</time></trkpt><trkpt lat="42.51759815173159" lon="14.144526715263309"><ele>3.0</ele><time>2026-05-03T11:36:39Z</time></trkpt><trkpt lat="42.51774634317923" lon="14.144629612957955"><ele>3.0</ele><time>2026-05-03T11:36:40Z</time></trkpt><trkpt lat="42.51789780100357" lon="14.144739270935876"><ele>3.0</ele><time>2026-05-03T11:36:41Z</time></trkpt><trkpt lat="42.518055540470606" lon="14.14485303297131"><ele>3.0</ele><time>2026-05-03T11:36:42Z</time></trkpt><trkpt lat="42.51820713781409" lon="14.144964232527709"><ele>3.0</ele><time>2026-05-03T11:36:43Z</time></trkpt><trkpt lat="42.5183721018418" lon="14.1450813131925"><ele>3.0</ele><time>2026-05-03T11:36:44Z</time></trkpt><trkpt lat="42.51851162344873" lon="14.14518141273174"><ele>3.0</ele><time>2026-05-03T11:36:45Z</time></trkpt><trkpt lat="42.51864584623531" lon="14.145273985311677"><ele>3.0</ele><time>2026-05-03T11:36:46Z</time></trkpt><trkpt lat="42.51876809073142" lon="14.145360212068715"><ele>3.0</ele><time>2026-05-03T11:36:47Z</time></trkpt><trkpt lat="42.5188815871831" lon="14.14544429905114"><ele>3.0</ele><time>2026-05-03T11:36:48Z</time></trkpt><trkpt lat="42.51898743717516" lon="14.145522318253013"><ele>3.0</ele><time>2026-05-03T11:36:49Z</time></trkpt><trkpt lat="42.519086800192866" lon="14.145592106689964"><ele>3.0</ele><time>2026-05-03T11:36:50Z</time></trkpt><trkpt lat="42.51917848557363" lon="14.1456549642794"><ele>3.0</ele><time>2026-05-03T11:36:51Z</time></trkpt><trkpt lat="42.519268795202954" lon="14.145711154932691"><ele>3.0</ele><time>2026-05-03T11:36:52Z</time></trkpt><trkpt lat="42.51934924773821" lon="14.145767992804236"><ele>3.0</ele><time>2026-05-03T11:36:53Z</time></trkpt><trkpt lat="42.51942663963571" lon="14.14582653026675"><ele>3.0</ele><time>2026-05-03T11:36:54Z</time></trkpt><trkpt lat="42.51948980502076" lon="14.145891077263201"><ele>3.0</ele><time>2026-05-03T11:36:55Z</time></trkpt><trkpt lat="42.51952720274936" lon="14.145983140134085"><ele>3.0</ele><time>2026-05-03T11:36:56Z</time></trkpt><trkpt lat="42.51957235950897" lon="14.146127758238881"><ele>3.0</ele><time>2026-05-03T11:36:58Z</time></trkpt><trkpt lat="42.51949223724744" lon="14.146261791458247"><ele>3.0</ele><time>2026-05-03T11:37:00Z</time></trkpt><trkpt lat="42.51943656064836" lon="14.146330661229953"><ele>3.0</ele><time>2026-05-03T11:37:01Z</time></trkpt><trkpt lat="42.51937511313847" lon="14.146415178240803"><ele>3.0</ele><time>2026-05-03T11:37:02Z</time></trkpt><trkpt lat="42.5193150463242" lon="14.146509813041678"><ele>3.0</ele><time>2026-05-03T11:37:03Z</time></trkpt><trkpt lat="42.519241512282925" lon="14.146595554229044"><ele>3.0</ele><time>2026-05-03T11:37:04Z</time></trkpt><trkpt lat="42.51917265134492" lon="14.146674060806284"><ele>3.0</ele><time>2026-05-03T11:37:05Z</time></trkpt><trkpt lat="42.519115358104145" lon="14.146751521714936"><ele>3.0</ele><time>2026-05-03T11:37:06Z</time></trkpt><trkpt lat="42.519071125007386" lon="14.146824961773305"><ele>3.0</ele><time>2026-05-03T11:37:07Z</time></trkpt><trkpt lat="42.519014445671175" lon="14.146874403096756"><ele>3.0</ele><time>2026-05-03T11:37:08Z</time></trkpt><trkpt lat="42.51905514700163" lon="14.147088011361712"><ele>3.0</ele><time>2026-05-03T11:37:10Z</time></trkpt><trkpt lat="42.51910060639333" lon="14.14717423348581"><ele>3.0</ele><time>2026-05-03T11:37:11Z</time></trkpt><trkpt lat="42.519173772244585" lon="14.1472303782145"><ele>3.0</ele><time>2026-05-03T11:37:12.001Z</time></trkpt><trkpt lat="42.519237027559306" lon="14.147282036950775"><ele>3.0</ele><time>2026-05-03T11:37:13.001Z</time></trkpt><trkpt lat="42.51931985016864" lon="14.147307067479135"><ele>3.0</ele><time>2026-05-03T11:37:14.001Z</time></trkpt><trkpt lat="42.51942275095268" lon="14.147334525102735"><ele>3.0</ele><time>2026-05-03T11:37:15.001Z</time></trkpt><trkpt lat="42.51951124408431" lon="14.147326946367043"><ele>3.0</ele><time>2026-05-03T11:37:16.001Z</time></trkpt><trkpt lat="42.519582271175445" lon="14.14752102218306"><ele>3.0</ele><time>2026-05-03T11:37:17.001Z</time></trkpt><trkpt lat="42.51965643539949" lon="14.14765788799951"><ele>2.75</ele><time>2026-05-03T11:37:18.001Z</time></trkpt><trkpt lat="42.519748708460135" lon="14.147822102509819"><ele>2.5</ele><time>2026-05-03T11:37:19.001Z</time></trkpt><trkpt lat="42.51983938576312" lon="14.147980401741556"><ele>2.25</ele><time>2026-05-03T11:37:20.001Z</time></trkpt><trkpt lat="42.51991707015734" lon="14.148127487909944"><ele>2.0</ele><time>2026-05-03T11:37:21.001Z</time></trkpt><trkpt lat="42.51998792505734" lon="14.148280892745781"><ele>2.0</ele><time>2026-05-03T11:37:22.001Z</time></trkpt><trkpt lat="42.52004254298299" lon="14.14843668410952"><ele>2.0</ele><time>2026-05-03T11:37:23.001Z</time></trkpt><trkpt lat="42.520087120474024" lon="14.148584710681648"><ele>2.0</ele><time>2026-05-03T11:37:24.001Z</time></trkpt><trkpt lat="42.520131376597476" lon="14.148724919394652"><ele>2.0</ele><time>2026-05-03T11:37:25.001Z</time></trkpt><trkpt lat="42.52017912403167" lon="14.148858653867316"><ele>2.0</ele><time>2026-05-03T11:37:26.001Z</time></trkpt><trkpt lat="42.52022525323149" lon="14.148996633768736"><ele>2.0</ele><time>2026-05-03T11:37:27.001Z</time></trkpt><trkpt lat="42.520264863844076" lon="14.149121593509806"><ele>2.0</ele><time>2026-05-03T11:37:28.001Z</time></trkpt><trkpt lat="42.52030669812623" lon="14.149240680259112"><ele>2.0</ele><time>2026-05-03T11:37:29.001Z</time></trkpt><trkpt lat="42.520348133307245" lon="14.149363280038372"><ele>2.0</ele><time>2026-05-03T11:37:30.001Z</time></trkpt><trkpt lat="42.52039378579349" lon="14.149491976386681"><ele>2.0</ele><time>2026-05-03T11:37:31.001Z</time></trkpt><trkpt lat="42.520447977579586" lon="14.149638647296893"><ele>2.0</ele><time>2026-05-03T11:37:32.001Z</time></trkpt><trkpt lat="42.520500244197976" lon="14.149795738953944"><ele>2.0</ele><time>2026-05-03T11:37:33.001Z</time></trkpt><trkpt lat="42.52055585179101" lon="14.149974880826063"><ele>2.0</ele><time>2026-05-03T11:37:34.001Z</time></trkpt><trkpt lat="42.520617569656494" lon="14.15014240514361"><ele>2.0</ele><time>2026-05-03T11:37:35.001Z</time></trkpt><trkpt lat="42.52067631670517" lon="14.150305454758044"><ele>2.0</ele><time>2026-05-03T11:37:36.001Z</time></trkpt><trkpt lat="42.520731718988344" lon="14.15046255396732"><ele>2.0</ele><time>2026-05-03T11:37:37.001Z</time></trkpt><trkpt lat="42.520789759357996" lon="14.150623891541558"><ele>2.0</ele><time>2026-05-03T11:37:38.001Z</time></trkpt><trkpt lat="42.52084215030487" lon="14.150779440892096"><ele>2.0</ele><time>2026-05-03T11:37:39.001Z</time></trkpt><trkpt lat="42.52089885885687" lon="14.150942539560653"><ele>2.0</ele><time>2026-05-03T11:37:40.001Z</time></trkpt><trkpt lat="42.520953706973906" lon="14.151096958436735"><ele>2.0</ele><time>2026-05-03T11:37:41.001Z</time></trkpt><trkpt lat="42.521007356938476" lon="14.151248890916703"><ele>2.0</ele><time>2026-05-03T11:37:42.001Z</time></trkpt><trkpt lat="42.52105849205997" lon="14.151402133016706"><ele>2.0</ele><time>2026-05-03T11:37:43.001Z</time></trkpt><trkpt lat="42.521102240692116" lon="14.151540610349128"><ele>2.0</ele><time>2026-05-03T11:37:44.001Z</time></trkpt><trkpt lat="42.52114244547675" lon="14.151663990162788"><ele>2.0</ele><time>2026-05-03T11:37:45.001Z</time></trkpt><trkpt lat="42.52118486371398" lon="14.15177893165125"><ele>2.0</ele><time>2026-05-03T11:37:46.001Z</time></trkpt><trkpt lat="42.52121822634722" lon="14.151880867826653"><ele>2.0</ele><time>2026-05-03T11:37:47.001Z</time></trkpt><trkpt lat="42.52124836567833" lon="14.151986466916547"><ele>1.6666666666666665</ele><time>2026-05-03T11:37:48.001Z</time></trkpt><trkpt lat="42.521273167116085" lon="14.152069918270833"><ele>1.3333333333333333</ele><time>2026-05-03T11:37:49.001Z</time></trkpt><trkpt lat="42.52130102299921" lon="14.152150024969675"><ele>1.0</ele><time>2026-05-03T11:37:50.001Z</time></trkpt><trkpt lat="42.521326563741425" lon="14.152229778678533"><ele>0.6666666666666666</ele><time>2026-05-03T11:37:51.001Z</time></trkpt><trkpt lat="42.521378425133" lon="14.152380721371463"><ele>0.3333333333333333</ele><time>2026-05-03T11:37:53.001Z</time></trkpt><trkpt lat="42.52143621644247" lon="14.152535844109254"><ele>0.0</ele><time>2026-05-03T11:37:54.999Z</time></trkpt><trkpt lat="42.52146712771703" lon="14.15261878777174"><ele>-0.25</ele><time>2026-05-03T11:37:55.999Z</time></trkpt><trkpt lat="42.521527521068656" lon="14.15278726285225"><ele>-0.5</ele><time>2026-05-03T11:37:57.999Z</time></trkpt><trkpt lat="42.521561603766294" lon="14.152895996828757"><ele>-0.75</ele><time>2026-05-03T11:37:58.999Z</time></trkpt><trkpt lat="42.5216153276302" lon="14.15303493395821"><ele>-1.0</ele><time>2026-05-03T11:37:59.999Z</time></trkpt><trkpt lat="42.52166730574939" lon="14.153185161698385"><ele>-0.8333333333333333</ele><time>2026-05-03T11:38:00.999Z</time></trkpt><trkpt lat="42.52171963689569" lon="14.15332186270292"><ele>-0.6666666666666666</ele><time>2026-05-03T11:38:01.999Z</time></trkpt><trkpt lat="42.52175987413099" lon="14.153440934989973"><ele>-0.5</ele><time>2026-05-03T11:38:02.999Z</time></trkpt><trkpt lat="42.52179544759723" lon="14.153548342726246"><ele>-0.3333333333333333</ele><time>2026-05-03T11:38:03.999Z</time></trkpt><trkpt lat="42.52182756598046" lon="14.1536328709858"><ele>-0.16666666666666666</ele><time>2026-05-03T11:38:04.999Z</time></trkpt><trkpt lat="42.521869576909154" lon="14.153713476765953"><ele>0.0</ele><time>2026-05-03T11:38:06.999Z</time></trkpt><trkpt lat="42.52200293234367" lon="14.153645607966292"><ele>0.0</ele><time>2026-05-03T11:38:07.999Z</time></trkpt><trkpt lat="42.522055776747344" lon="14.15356364601552"><ele>0.0</ele><time>2026-05-03T11:38:08.999Z</time></trkpt><trkpt lat="42.522125347648775" lon="14.153498765155433"><ele>0.0</ele><time>2026-05-03T11:38:09.999Z</time></trkpt><trkpt lat="42.52219797855" lon="14.153441676384157"><ele>0.0</ele><time>2026-05-03T11:38:10.999Z</time></trkpt><trkpt lat="42.52225969349598" lon="14.153396113861263"><ele>0.0</ele><time>2026-05-03T11:38:12Z</time></trkpt><trkpt lat="42.52231795044793" lon="14.153322643761566"><ele>0.0</ele><time>2026-05-03T11:38:14Z</time></trkpt><trkpt lat="42.52224088360871" lon="14.153100500243335"><ele>-0.2</ele><time>2026-05-03T11:38:25Z</time></trkpt><trkpt lat="42.52215533360875" lon="14.153016769955572"><ele>-0.4</ele><time>2026-05-03T11:38:27Z</time></trkpt><trkpt lat="42.52209879606434" lon="14.152855952208203"><ele>-0.6000000000000001</ele><time>2026-05-03T11:38:29Z</time></trkpt><trkpt lat="42.5220619007106" lon="14.152715897181743"><ele>-0.8</ele><time>2026-05-03T11:38:31Z</time></trkpt><trkpt lat="42.52201634389003" lon="14.152647757689014"><ele>-1.0</ele><time>2026-05-03T11:38:33Z</time></trkpt><trkpt lat="42.521964252596085" lon="14.152546579656805"><ele>-0.9999999999999999</ele><time>2026-05-03T11:38:36Z</time></trkpt><trkpt lat="42.52192362333477" lon="14.152450477989655"><ele>-1.0</ele><time>2026-05-03T11:38:38Z</time></trkpt><trkpt lat="42.521885553635066" lon="14.152347010885947"><ele>-1.0</ele><time>2026-05-03T11:38:41Z</time></trkpt><trkpt lat="42.52193753216589" lon="14.152255910010444"><ele>-1.0</ele><time>2026-05-03T11:38:45Z</time></trkpt><trkpt lat="42.522052204922936" lon="14.152322041067029"><ele>-0.9999999999999999</ele><time>2026-05-03T11:38:47Z</time></trkpt><trkpt lat="42.52209669432956" lon="14.152382638865593"><ele>-1.0</ele><time>2026-05-03T11:38:48Z</time></trkpt><trkpt lat="42.522126694419754" lon="14.152493805526435"><ele>2.0</ele><time>2026-05-03T11:38:50Z</time></trkpt><trkpt lat="42.5222411446632" lon="14.152407972268122"><ele>2.0</ele><time>2026-05-03T11:38:53Z</time></trkpt><trkpt lat="42.52231523021137" lon="14.152350852258458"><ele>2.0</ele><time>2026-05-03T11:38:55Z</time></trkpt><trkpt lat="42.52237874472417" lon="14.152386991584176"><ele>2.0</ele><time>2026-05-03T11:38:57Z</time></trkpt><trkpt lat="42.522371964432274" lon="14.152488925461979"><ele>2.0</ele><time>2026-05-03T11:39:00Z</time></trkpt></trkseg></trk></gpx>